<?xml version="1.0" encoding="UTF-8" standalone="no" ?>
<gpx xmlns="http://www.topografix.com/GPX/1/1" xmlns:xsi="http://www.w3.org/2001/XMLSchema-instance" xsi:schemaLocation="http://www.topografix.com/GPX/1/1 http://www.topografix.com/GPX/1/1/gpx.xsd" version="1.1" creator="VisuGPX - https://www.visugpx.com">
  <metadata>
    <name>Cormet de Roselend - Col du Petit Saint Bernard - Bourg Saint Maurice</name>
  </metadata>
  <trk>
    <name><![CDATA[Bellantre - Cormet de Roselend - Col du Petit Saint Bernard - Bourg Saint Maurice]]></name>
    <trkseg>
      <trkpt lat="45.58139" lon="6.73846">
        <ele>817.2</ele>
        <time>2020-08-07T07:34:39Z</time>
      </trkpt>
      <trkpt lat="45.58136" lon="6.73847">
        <ele>817.1</ele>
        <time>2020-08-07T07:34:40Z</time>
      </trkpt>
      <trkpt lat="45.58135" lon="6.73847">
        <ele>817</ele>
        <time>2020-08-07T07:34:42Z</time>
      </trkpt>
      <trkpt lat="45.58134" lon="6.73846">
        <ele>817</ele>
        <time>2020-08-07T07:34:43Z</time>
      </trkpt>
      <trkpt lat="45.58134" lon="6.73846">
        <ele>817</ele>
        <time>2020-08-07T07:34:44Z</time>
      </trkpt>
      <trkpt lat="45.58134" lon="6.73846">
        <ele>817</ele>
        <time>2020-08-07T07:34:46Z</time>
      </trkpt>
      <trkpt lat="45.58134" lon="6.73846">
        <ele>817</ele>
        <time>2020-08-07T07:34:47Z</time>
      </trkpt>
      <trkpt lat="45.58135" lon="6.73845">
        <ele>816.9</ele>
        <time>2020-08-07T07:34:49Z</time>
      </trkpt>
      <trkpt lat="45.58135" lon="6.73846">
        <ele>816.9</ele>
        <time>2020-08-07T07:34:51Z</time>
      </trkpt>
      <trkpt lat="45.58135" lon="6.73846">
        <ele>816.9</ele>
        <time>2020-08-07T07:34:54Z</time>
      </trkpt>
      <trkpt lat="45.58135" lon="6.73846">
        <ele>816.9</ele>
        <time>2020-08-07T07:34:55Z</time>
      </trkpt>
      <trkpt lat="45.58136" lon="6.73847">
        <ele>816.8</ele>
        <time>2020-08-07T07:34:56Z</time>
      </trkpt>
      <trkpt lat="45.58137" lon="6.7385">
        <ele>816.8</ele>
        <time>2020-08-07T07:34:58Z</time>
      </trkpt>
      <trkpt lat="45.58125" lon="6.73837">
        <ele>816.1</ele>
        <time>2020-08-07T07:35:00Z</time>
      </trkpt>
      <trkpt lat="45.58117" lon="6.73814">
        <ele>815.4</ele>
        <time>2020-08-07T07:35:02Z</time>
      </trkpt>
      <trkpt lat="45.58114" lon="6.73803">
        <ele>815.1</ele>
        <time>2020-08-07T07:35:03Z</time>
      </trkpt>
      <trkpt lat="45.58111" lon="6.73793">
        <ele>814.7</ele>
        <time>2020-08-07T07:35:04Z</time>
      </trkpt>
      <trkpt lat="45.58105" lon="6.73777">
        <ele>814.2</ele>
        <time>2020-08-07T07:35:06Z</time>
      </trkpt>
      <trkpt lat="45.58101" lon="6.73771">
        <ele>813.9</ele>
        <time>2020-08-07T07:35:07Z</time>
      </trkpt>
      <trkpt lat="45.5809" lon="6.73762">
        <ele>813.3</ele>
        <time>2020-08-07T07:35:09Z</time>
      </trkpt>
      <trkpt lat="45.5808" lon="6.73754">
        <ele>812.9</ele>
        <time>2020-08-07T07:35:11Z</time>
      </trkpt>
      <trkpt lat="45.58069" lon="6.73745">
        <ele>812.4</ele>
        <time>2020-08-07T07:35:13Z</time>
      </trkpt>
      <trkpt lat="45.58063" lon="6.73742">
        <ele>812.2</ele>
        <time>2020-08-07T07:35:14Z</time>
      </trkpt>
      <trkpt lat="45.58058" lon="6.7374">
        <ele>812</ele>
        <time>2020-08-07T07:35:15Z</time>
      </trkpt>
      <trkpt lat="45.58047" lon="6.73732">
        <ele>811.6</ele>
        <time>2020-08-07T07:35:17Z</time>
      </trkpt>
      <trkpt lat="45.58043" lon="6.73728">
        <ele>811.4</ele>
        <time>2020-08-07T07:35:18Z</time>
      </trkpt>
      <trkpt lat="45.58039" lon="6.73724">
        <ele>811.2</ele>
        <time>2020-08-07T07:35:19Z</time>
      </trkpt>
      <trkpt lat="45.58031" lon="6.73714">
        <ele>810.9</ele>
        <time>2020-08-07T07:35:21Z</time>
      </trkpt>
      <trkpt lat="45.58028" lon="6.73709">
        <ele>810.8</ele>
        <time>2020-08-07T07:35:22Z</time>
      </trkpt>
      <trkpt lat="45.58021" lon="6.73697">
        <ele>810.4</ele>
        <time>2020-08-07T07:35:24Z</time>
      </trkpt>
      <trkpt lat="45.58018" lon="6.73691">
        <ele>810.3</ele>
        <time>2020-08-07T07:35:25Z</time>
      </trkpt>
      <trkpt lat="45.58013" lon="6.73682">
        <ele>810</ele>
        <time>2020-08-07T07:35:27Z</time>
      </trkpt>
      <trkpt lat="45.58011" lon="6.73678">
        <ele>809.9</ele>
        <time>2020-08-07T07:35:28Z</time>
      </trkpt>
      <trkpt lat="45.58008" lon="6.73671">
        <ele>809.8</ele>
        <time>2020-08-07T07:35:30Z</time>
      </trkpt>
      <trkpt lat="45.58007" lon="6.73666">
        <ele>809.7</ele>
        <time>2020-08-07T07:35:32Z</time>
      </trkpt>
      <trkpt lat="45.58007" lon="6.73665">
        <ele>809.7</ele>
        <time>2020-08-07T07:35:33Z</time>
      </trkpt>
      <trkpt lat="45.58007" lon="6.73663">
        <ele>809.6</ele>
        <time>2020-08-07T07:35:34Z</time>
      </trkpt>
      <trkpt lat="45.58008" lon="6.73661">
        <ele>809.6</ele>
        <time>2020-08-07T07:35:36Z</time>
      </trkpt>
      <trkpt lat="45.58007" lon="6.7366">
        <ele>809.6</ele>
        <time>2020-08-07T07:35:38Z</time>
      </trkpt>
      <trkpt lat="45.58006" lon="6.73654">
        <ele>809.5</ele>
        <time>2020-08-07T07:35:40Z</time>
      </trkpt>
      <trkpt lat="45.58005" lon="6.7365">
        <ele>809.4</ele>
        <time>2020-08-07T07:35:41Z</time>
      </trkpt>
      <trkpt lat="45.58" lon="6.73641">
        <ele>809.3</ele>
        <time>2020-08-07T07:35:43Z</time>
      </trkpt>
      <trkpt lat="45.57995" lon="6.73635">
        <ele>809.3</ele>
        <time>2020-08-07T07:35:44Z</time>
      </trkpt>
      <trkpt lat="45.57985" lon="6.73623">
        <ele>809.1</ele>
        <time>2020-08-07T07:35:46Z</time>
      </trkpt>
      <trkpt lat="45.57975" lon="6.73613">
        <ele>808.3</ele>
        <time>2020-08-07T07:35:48Z</time>
      </trkpt>
      <trkpt lat="45.5797" lon="6.73607">
        <ele>808</ele>
        <time>2020-08-07T07:35:49Z</time>
      </trkpt>
      <trkpt lat="45.57959" lon="6.73594">
        <ele>807.4</ele>
        <time>2020-08-07T07:35:51Z</time>
      </trkpt>
      <trkpt lat="45.57949" lon="6.73581">
        <ele>806.7</ele>
        <time>2020-08-07T07:35:53Z</time>
      </trkpt>
      <trkpt lat="45.57938" lon="6.73568">
        <ele>806.1</ele>
        <time>2020-08-07T07:35:55Z</time>
      </trkpt>
      <trkpt lat="45.57927" lon="6.73554">
        <ele>805.4</ele>
        <time>2020-08-07T07:35:57Z</time>
      </trkpt>
      <trkpt lat="45.57916" lon="6.7354">
        <ele>804.7</ele>
        <time>2020-08-07T07:35:59Z</time>
      </trkpt>
      <trkpt lat="45.5791" lon="6.73532">
        <ele>804.3</ele>
        <time>2020-08-07T07:36:00Z</time>
      </trkpt>
      <trkpt lat="45.57905" lon="6.73525">
        <ele>804</ele>
        <time>2020-08-07T07:36:01Z</time>
      </trkpt>
      <trkpt lat="45.57899" lon="6.73517">
        <ele>803.7</ele>
        <time>2020-08-07T07:36:02Z</time>
      </trkpt>
      <trkpt lat="45.57888" lon="6.735">
        <ele>802.9</ele>
        <time>2020-08-07T07:36:04Z</time>
      </trkpt>
      <trkpt lat="45.57877" lon="6.73482">
        <ele>802.1</ele>
        <time>2020-08-07T07:36:06Z</time>
      </trkpt>
      <trkpt lat="45.57872" lon="6.73474">
        <ele>801.7</ele>
        <time>2020-08-07T07:36:07Z</time>
      </trkpt>
      <trkpt lat="45.57861" lon="6.73456">
        <ele>800.9</ele>
        <time>2020-08-07T07:36:09Z</time>
      </trkpt>
      <trkpt lat="45.57856" lon="6.73446">
        <ele>800.5</ele>
        <time>2020-08-07T07:36:10Z</time>
      </trkpt>
      <trkpt lat="45.57851" lon="6.73436">
        <ele>800.1</ele>
        <time>2020-08-07T07:36:11Z</time>
      </trkpt>
      <trkpt lat="45.57842" lon="6.73417">
        <ele>799.4</ele>
        <time>2020-08-07T07:36:13Z</time>
      </trkpt>
      <trkpt lat="45.57837" lon="6.73407">
        <ele>799.1</ele>
        <time>2020-08-07T07:36:14Z</time>
      </trkpt>
      <trkpt lat="45.57827" lon="6.73388">
        <ele>798.4</ele>
        <time>2020-08-07T07:36:16Z</time>
      </trkpt>
      <trkpt lat="45.57816" lon="6.7337">
        <ele>797.9</ele>
        <time>2020-08-07T07:36:18Z</time>
      </trkpt>
      <trkpt lat="45.57803" lon="6.73353">
        <ele>797.3</ele>
        <time>2020-08-07T07:36:20Z</time>
      </trkpt>
      <trkpt lat="45.57791" lon="6.73336">
        <ele>796.8</ele>
        <time>2020-08-07T07:36:22Z</time>
      </trkpt>
      <trkpt lat="45.57778" lon="6.7332">
        <ele>796.5</ele>
        <time>2020-08-07T07:36:24Z</time>
      </trkpt>
      <trkpt lat="45.57771" lon="6.73312">
        <ele>796.2</ele>
        <time>2020-08-07T07:36:25Z</time>
      </trkpt>
      <trkpt lat="45.57758" lon="6.73295">
        <ele>795.7</ele>
        <time>2020-08-07T07:36:27Z</time>
      </trkpt>
      <trkpt lat="45.57747" lon="6.73279">
        <ele>795.1</ele>
        <time>2020-08-07T07:36:29Z</time>
      </trkpt>
      <trkpt lat="45.57741" lon="6.7327">
        <ele>794.8</ele>
        <time>2020-08-07T07:36:30Z</time>
      </trkpt>
      <trkpt lat="45.57731" lon="6.73251">
        <ele>794.2</ele>
        <time>2020-08-07T07:36:32Z</time>
      </trkpt>
      <trkpt lat="45.57726" lon="6.73241">
        <ele>793.9</ele>
        <time>2020-08-07T07:36:33Z</time>
      </trkpt>
      <trkpt lat="45.57718" lon="6.73219">
        <ele>793.4</ele>
        <time>2020-08-07T07:36:35Z</time>
      </trkpt>
      <trkpt lat="45.57711" lon="6.73199">
        <ele>792.9</ele>
        <time>2020-08-07T07:36:37Z</time>
      </trkpt>
      <trkpt lat="45.57704" lon="6.7318">
        <ele>792.4</ele>
        <time>2020-08-07T07:36:39Z</time>
      </trkpt>
      <trkpt lat="45.57696" lon="6.73158">
        <ele>791.9</ele>
        <time>2020-08-07T07:36:41Z</time>
      </trkpt>
      <trkpt lat="45.57688" lon="6.73136">
        <ele>791.3</ele>
        <time>2020-08-07T07:36:43Z</time>
      </trkpt>
      <trkpt lat="45.57679" lon="6.73115">
        <ele>790.6</ele>
        <time>2020-08-07T07:36:45Z</time>
      </trkpt>
      <trkpt lat="45.5767" lon="6.73092">
        <ele>789.8</ele>
        <time>2020-08-07T07:36:47Z</time>
      </trkpt>
      <trkpt lat="45.5766" lon="6.73069">
        <ele>788.9</ele>
        <time>2020-08-07T07:36:49Z</time>
      </trkpt>
      <trkpt lat="45.57655" lon="6.73058">
        <ele>788.5</ele>
        <time>2020-08-07T07:36:50Z</time>
      </trkpt>
      <trkpt lat="45.57643" lon="6.73036">
        <ele>787.5</ele>
        <time>2020-08-07T07:36:52Z</time>
      </trkpt>
      <trkpt lat="45.57636" lon="6.73024">
        <ele>786.9</ele>
        <time>2020-08-07T07:36:53Z</time>
      </trkpt>
      <trkpt lat="45.5763" lon="6.73014">
        <ele>786.4</ele>
        <time>2020-08-07T07:36:54Z</time>
      </trkpt>
      <trkpt lat="45.57617" lon="6.72992">
        <ele>785.5</ele>
        <time>2020-08-07T07:36:56Z</time>
      </trkpt>
      <trkpt lat="45.5761" lon="6.7298">
        <ele>785</ele>
        <time>2020-08-07T07:36:57Z</time>
      </trkpt>
      <trkpt lat="45.57596" lon="6.72957">
        <ele>784.2</ele>
        <time>2020-08-07T07:36:59Z</time>
      </trkpt>
      <trkpt lat="45.57583" lon="6.72935">
        <ele>783.4</ele>
        <time>2020-08-07T07:37:01Z</time>
      </trkpt>
      <trkpt lat="45.57569" lon="6.72914">
        <ele>782.6</ele>
        <time>2020-08-07T07:37:03Z</time>
      </trkpt>
      <trkpt lat="45.57563" lon="6.72904">
        <ele>782.2</ele>
        <time>2020-08-07T07:37:04Z</time>
      </trkpt>
      <trkpt lat="45.57551" lon="6.72886">
        <ele>781.5</ele>
        <time>2020-08-07T07:37:06Z</time>
      </trkpt>
      <trkpt lat="45.57539" lon="6.72866">
        <ele>780.8</ele>
        <time>2020-08-07T07:37:08Z</time>
      </trkpt>
      <trkpt lat="45.57528" lon="6.72845">
        <ele>780.1</ele>
        <time>2020-08-07T07:37:10Z</time>
      </trkpt>
      <trkpt lat="45.57522" lon="6.72834">
        <ele>779.7</ele>
        <time>2020-08-07T07:37:11Z</time>
      </trkpt>
      <trkpt lat="45.57512" lon="6.72812">
        <ele>778.9</ele>
        <time>2020-08-07T07:37:13Z</time>
      </trkpt>
      <trkpt lat="45.57504" lon="6.72795">
        <ele>778.2</ele>
        <time>2020-08-07T07:37:15Z</time>
      </trkpt>
      <trkpt lat="45.57497" lon="6.72782">
        <ele>777.6</ele>
        <time>2020-08-07T07:37:17Z</time>
      </trkpt>
      <trkpt lat="45.57495" lon="6.72776">
        <ele>777.4</ele>
        <time>2020-08-07T07:37:18Z</time>
      </trkpt>
      <trkpt lat="45.57492" lon="6.72769">
        <ele>777.1</ele>
        <time>2020-08-07T07:37:20Z</time>
      </trkpt>
      <trkpt lat="45.5749" lon="6.72765">
        <ele>776.9</ele>
        <time>2020-08-07T07:37:21Z</time>
      </trkpt>
      <trkpt lat="45.57483" lon="6.72756">
        <ele>776.5</ele>
        <time>2020-08-07T07:37:23Z</time>
      </trkpt>
      <trkpt lat="45.57474" lon="6.72763">
        <ele>775.7</ele>
        <time>2020-08-07T07:37:25Z</time>
      </trkpt>
      <trkpt lat="45.57471" lon="6.72772">
        <ele>775.1</ele>
        <time>2020-08-07T07:37:26Z</time>
      </trkpt>
      <trkpt lat="45.57471" lon="6.72781">
        <ele>774.7</ele>
        <time>2020-08-07T07:37:27Z</time>
      </trkpt>
      <trkpt lat="45.57476" lon="6.72797">
        <ele>773.7</ele>
        <time>2020-08-07T07:37:29Z</time>
      </trkpt>
      <trkpt lat="45.57484" lon="6.72812">
        <ele>772.6</ele>
        <time>2020-08-07T07:37:31Z</time>
      </trkpt>
      <trkpt lat="45.57495" lon="6.7283">
        <ele>771.3</ele>
        <time>2020-08-07T07:37:33Z</time>
      </trkpt>
      <trkpt lat="45.57501" lon="6.7284">
        <ele>770.5</ele>
        <time>2020-08-07T07:37:34Z</time>
      </trkpt>
      <trkpt lat="45.57514" lon="6.72864">
        <ele>768.8</ele>
        <time>2020-08-07T07:37:36Z</time>
      </trkpt>
      <trkpt lat="45.57521" lon="6.72876">
        <ele>767.9</ele>
        <time>2020-08-07T07:37:37Z</time>
      </trkpt>
      <trkpt lat="45.57534" lon="6.72901">
        <ele>766</ele>
        <time>2020-08-07T07:37:39Z</time>
      </trkpt>
      <trkpt lat="45.57546" lon="6.72929">
        <ele>764</ele>
        <time>2020-08-07T07:37:41Z</time>
      </trkpt>
      <trkpt lat="45.57558" lon="6.7296">
        <ele>761.9</ele>
        <time>2020-08-07T07:37:43Z</time>
      </trkpt>
      <trkpt lat="45.57565" lon="6.72978">
        <ele>760.7</ele>
        <time>2020-08-07T07:37:44Z</time>
      </trkpt>
      <trkpt lat="45.57574" lon="6.73014">
        <ele>758.6</ele>
        <time>2020-08-07T07:37:46Z</time>
      </trkpt>
      <trkpt lat="45.57582" lon="6.73051">
        <ele>756.5</ele>
        <time>2020-08-07T07:37:48Z</time>
      </trkpt>
      <trkpt lat="45.5759" lon="6.73087">
        <ele>754.3</ele>
        <time>2020-08-07T07:37:50Z</time>
      </trkpt>
      <trkpt lat="45.57598" lon="6.73123">
        <ele>752</ele>
        <time>2020-08-07T07:37:52Z</time>
      </trkpt>
      <trkpt lat="45.57603" lon="6.73141">
        <ele>750.9</ele>
        <time>2020-08-07T07:37:53Z</time>
      </trkpt>
      <trkpt lat="45.57613" lon="6.73176">
        <ele>749.1</ele>
        <time>2020-08-07T07:37:55Z</time>
      </trkpt>
      <trkpt lat="45.57626" lon="6.7321">
        <ele>747.9</ele>
        <time>2020-08-07T07:37:57Z</time>
      </trkpt>
      <trkpt lat="45.57632" lon="6.73226">
        <ele>747.1</ele>
        <time>2020-08-07T07:37:58Z</time>
      </trkpt>
      <trkpt lat="45.57645" lon="6.73257">
        <ele>745</ele>
        <time>2020-08-07T07:38:00Z</time>
      </trkpt>
      <trkpt lat="45.57658" lon="6.73284">
        <ele>743.5</ele>
        <time>2020-08-07T07:38:02Z</time>
      </trkpt>
      <trkpt lat="45.57669" lon="6.73305">
        <ele>742.6</ele>
        <time>2020-08-07T07:38:04Z</time>
      </trkpt>
      <trkpt lat="45.57673" lon="6.73315">
        <ele>742.4</ele>
        <time>2020-08-07T07:38:05Z</time>
      </trkpt>
      <trkpt lat="45.57676" lon="6.73324">
        <ele>742.1</ele>
        <time>2020-08-07T07:38:06Z</time>
      </trkpt>
      <trkpt lat="45.57678" lon="6.73334">
        <ele>741.9</ele>
        <time>2020-08-07T07:38:07Z</time>
      </trkpt>
      <trkpt lat="45.57672" lon="6.73356">
        <ele>740.2</ele>
        <time>2020-08-07T07:38:09Z</time>
      </trkpt>
      <trkpt lat="45.5766" lon="6.73372">
        <ele>738.5</ele>
        <time>2020-08-07T07:38:11Z</time>
      </trkpt>
      <trkpt lat="45.57655" lon="6.7338">
        <ele>737.3</ele>
        <time>2020-08-07T07:38:12Z</time>
      </trkpt>
      <trkpt lat="45.5765" lon="6.73387">
        <ele>737</ele>
        <time>2020-08-07T07:38:13Z</time>
      </trkpt>
      <trkpt lat="45.57643" lon="6.73394">
        <ele>736.9</ele>
        <time>2020-08-07T07:38:15Z</time>
      </trkpt>
      <trkpt lat="45.57641" lon="6.73394">
        <ele>736.9</ele>
        <time>2020-08-07T07:38:16Z</time>
      </trkpt>
      <trkpt lat="45.5764" lon="6.73392">
        <ele>736.9</ele>
        <time>2020-08-07T07:38:17Z</time>
      </trkpt>
      <trkpt lat="45.57642" lon="6.73387">
        <ele>736.8</ele>
        <time>2020-08-07T07:38:19Z</time>
      </trkpt>
      <trkpt lat="45.57641" lon="6.73384">
        <ele>736.8</ele>
        <time>2020-08-07T07:38:21Z</time>
      </trkpt>
      <trkpt lat="45.57641" lon="6.73381">
        <ele>736.7</ele>
        <time>2020-08-07T07:38:22Z</time>
      </trkpt>
      <trkpt lat="45.5764" lon="6.73378">
        <ele>736.7</ele>
        <time>2020-08-07T07:38:25Z</time>
      </trkpt>
      <trkpt lat="45.57639" lon="6.73375">
        <ele>736.6</ele>
        <time>2020-08-07T07:38:26Z</time>
      </trkpt>
      <trkpt lat="45.57639" lon="6.73372">
        <ele>736.5</ele>
        <time>2020-08-07T07:38:27Z</time>
      </trkpt>
      <trkpt lat="45.57638" lon="6.73369">
        <ele>736.5</ele>
        <time>2020-08-07T07:38:41Z</time>
      </trkpt>
      <trkpt lat="45.57637" lon="6.73366">
        <ele>736.4</ele>
        <time>2020-08-07T07:38:42Z</time>
      </trkpt>
      <trkpt lat="45.57637" lon="6.73363">
        <ele>736.3</ele>
        <time>2020-08-07T07:38:44Z</time>
      </trkpt>
      <trkpt lat="45.57634" lon="6.73356">
        <ele>736.2</ele>
        <time>2020-08-07T07:38:45Z</time>
      </trkpt>
      <trkpt lat="45.57634" lon="6.7335">
        <ele>736.1</ele>
        <time>2020-08-07T07:38:46Z</time>
      </trkpt>
      <trkpt lat="45.57637" lon="6.73345">
        <ele>736.2</ele>
        <time>2020-08-07T07:38:48Z</time>
      </trkpt>
      <trkpt lat="45.57637" lon="6.73349">
        <ele>736.2</ele>
        <time>2020-08-07T07:38:49Z</time>
      </trkpt>
      <trkpt lat="45.57638" lon="6.73351">
        <ele>736.3</ele>
        <time>2020-08-07T07:38:50Z</time>
      </trkpt>
      <trkpt lat="45.57643" lon="6.73363">
        <ele>736.5</ele>
        <time>2020-08-07T07:38:52Z</time>
      </trkpt>
      <trkpt lat="45.57647" lon="6.73371">
        <ele>736.7</ele>
        <time>2020-08-07T07:38:53Z</time>
      </trkpt>
      <trkpt lat="45.57654" lon="6.73384">
        <ele>736.9</ele>
        <time>2020-08-07T07:38:55Z</time>
      </trkpt>
      <trkpt lat="45.57662" lon="6.73398">
        <ele>737</ele>
        <time>2020-08-07T07:38:57Z</time>
      </trkpt>
      <trkpt lat="45.57667" lon="6.73414">
        <ele>737.2</ele>
        <time>2020-08-07T07:38:59Z</time>
      </trkpt>
      <trkpt lat="45.57667" lon="6.73422">
        <ele>737.3</ele>
        <time>2020-08-07T07:39:00Z</time>
      </trkpt>
      <trkpt lat="45.57666" lon="6.73432">
        <ele>737.4</ele>
        <time>2020-08-07T07:39:01Z</time>
      </trkpt>
      <trkpt lat="45.57664" lon="6.73442">
        <ele>737.5</ele>
        <time>2020-08-07T07:39:02Z</time>
      </trkpt>
      <trkpt lat="45.57663" lon="6.73461">
        <ele>737.7</ele>
        <time>2020-08-07T07:39:04Z</time>
      </trkpt>
      <trkpt lat="45.57664" lon="6.7347">
        <ele>737.8</ele>
        <time>2020-08-07T07:39:05Z</time>
      </trkpt>
      <trkpt lat="45.57667" lon="6.73489">
        <ele>738</ele>
        <time>2020-08-07T07:39:07Z</time>
      </trkpt>
      <trkpt lat="45.5767" lon="6.73499">
        <ele>738</ele>
        <time>2020-08-07T07:39:08Z</time>
      </trkpt>
      <trkpt lat="45.57674" lon="6.73508">
        <ele>738.1</ele>
        <time>2020-08-07T07:39:09Z</time>
      </trkpt>
      <trkpt lat="45.57682" lon="6.73527">
        <ele>738.2</ele>
        <time>2020-08-07T07:39:11Z</time>
      </trkpt>
      <trkpt lat="45.5769" lon="6.73546">
        <ele>738.1</ele>
        <time>2020-08-07T07:39:13Z</time>
      </trkpt>
      <trkpt lat="45.57694" lon="6.73556">
        <ele>738.1</ele>
        <time>2020-08-07T07:39:14Z</time>
      </trkpt>
      <trkpt lat="45.57697" lon="6.73567">
        <ele>738.1</ele>
        <time>2020-08-07T07:39:15Z</time>
      </trkpt>
      <trkpt lat="45.57703" lon="6.73587">
        <ele>738.2</ele>
        <time>2020-08-07T07:39:17Z</time>
      </trkpt>
      <trkpt lat="45.57705" lon="6.73608">
        <ele>738.3</ele>
        <time>2020-08-07T07:39:19Z</time>
      </trkpt>
      <trkpt lat="45.57704" lon="6.73628">
        <ele>738.4</ele>
        <time>2020-08-07T07:39:21Z</time>
      </trkpt>
      <trkpt lat="45.57701" lon="6.73648">
        <ele>738.5</ele>
        <time>2020-08-07T07:39:23Z</time>
      </trkpt>
      <trkpt lat="45.57698" lon="6.73667">
        <ele>738.7</ele>
        <time>2020-08-07T07:39:25Z</time>
      </trkpt>
      <trkpt lat="45.57697" lon="6.73675">
        <ele>738.7</ele>
        <time>2020-08-07T07:39:26Z</time>
      </trkpt>
      <trkpt lat="45.57695" lon="6.73687">
        <ele>738.9</ele>
        <time>2020-08-07T07:39:28Z</time>
      </trkpt>
      <trkpt lat="45.57693" lon="6.73692">
        <ele>739</ele>
        <time>2020-08-07T07:39:29Z</time>
      </trkpt>
      <trkpt lat="45.5769" lon="6.737">
        <ele>739.2</ele>
        <time>2020-08-07T07:39:31Z</time>
      </trkpt>
      <trkpt lat="45.57688" lon="6.73703">
        <ele>739.3</ele>
        <time>2020-08-07T07:39:32Z</time>
      </trkpt>
      <trkpt lat="45.57684" lon="6.7371">
        <ele>739.6</ele>
        <time>2020-08-07T07:39:34Z</time>
      </trkpt>
      <trkpt lat="45.57681" lon="6.73706">
        <ele>739.7</ele>
        <time>2020-08-07T07:39:36Z</time>
      </trkpt>
      <trkpt lat="45.57675" lon="6.73711">
        <ele>739.9</ele>
        <time>2020-08-07T07:39:37Z</time>
      </trkpt>
      <trkpt lat="45.57673" lon="6.73715">
        <ele>740</ele>
        <time>2020-08-07T07:39:38Z</time>
      </trkpt>
      <trkpt lat="45.57673" lon="6.73722">
        <ele>740.2</ele>
        <time>2020-08-07T07:39:40Z</time>
      </trkpt>
      <trkpt lat="45.57674" lon="6.73729">
        <ele>740.2</ele>
        <time>2020-08-07T07:39:41Z</time>
      </trkpt>
      <trkpt lat="45.57676" lon="6.73738">
        <ele>740.2</ele>
        <time>2020-08-07T07:39:42Z</time>
      </trkpt>
      <trkpt lat="45.57676" lon="6.73752">
        <ele>740.1</ele>
        <time>2020-08-07T07:39:44Z</time>
      </trkpt>
      <trkpt lat="45.57674" lon="6.73761">
        <ele>739.9</ele>
        <time>2020-08-07T07:39:45Z</time>
      </trkpt>
      <trkpt lat="45.57669" lon="6.73777">
        <ele>739.7</ele>
        <time>2020-08-07T07:39:47Z</time>
      </trkpt>
      <trkpt lat="45.57666" lon="6.73785">
        <ele>739.6</ele>
        <time>2020-08-07T07:39:48Z</time>
      </trkpt>
      <trkpt lat="45.57663" lon="6.73793">
        <ele>739.6</ele>
        <time>2020-08-07T07:39:49Z</time>
      </trkpt>
      <trkpt lat="45.57658" lon="6.73809">
        <ele>739.6</ele>
        <time>2020-08-07T07:39:51Z</time>
      </trkpt>
      <trkpt lat="45.57656" lon="6.73817">
        <ele>739.6</ele>
        <time>2020-08-07T07:39:52Z</time>
      </trkpt>
      <trkpt lat="45.57655" lon="6.73826">
        <ele>739.6</ele>
        <time>2020-08-07T07:39:53Z</time>
      </trkpt>
      <trkpt lat="45.57652" lon="6.73843">
        <ele>739.6</ele>
        <time>2020-08-07T07:39:55Z</time>
      </trkpt>
      <trkpt lat="45.5765" lon="6.7386">
        <ele>739.5</ele>
        <time>2020-08-07T07:39:57Z</time>
      </trkpt>
      <trkpt lat="45.5765" lon="6.73867">
        <ele>739.5</ele>
        <time>2020-08-07T07:39:58Z</time>
      </trkpt>
      <trkpt lat="45.57649" lon="6.73875">
        <ele>739.5</ele>
        <time>2020-08-07T07:39:59Z</time>
      </trkpt>
      <trkpt lat="45.57649" lon="6.73883">
        <ele>739.4</ele>
        <time>2020-08-07T07:40:00Z</time>
      </trkpt>
      <trkpt lat="45.5765" lon="6.73898">
        <ele>739.4</ele>
        <time>2020-08-07T07:40:02Z</time>
      </trkpt>
      <trkpt lat="45.5765" lon="6.73906">
        <ele>739.4</ele>
        <time>2020-08-07T07:40:03Z</time>
      </trkpt>
      <trkpt lat="45.57651" lon="6.7392">
        <ele>739.5</ele>
        <time>2020-08-07T07:40:05Z</time>
      </trkpt>
      <trkpt lat="45.57651" lon="6.73935">
        <ele>739.6</ele>
        <time>2020-08-07T07:40:07Z</time>
      </trkpt>
      <trkpt lat="45.57652" lon="6.73943">
        <ele>739.6</ele>
        <time>2020-08-07T07:40:08Z</time>
      </trkpt>
      <trkpt lat="45.57652" lon="6.73951">
        <ele>739.7</ele>
        <time>2020-08-07T07:40:09Z</time>
      </trkpt>
      <trkpt lat="45.57655" lon="6.73967">
        <ele>739.9</ele>
        <time>2020-08-07T07:40:11Z</time>
      </trkpt>
      <trkpt lat="45.57659" lon="6.73982">
        <ele>740.2</ele>
        <time>2020-08-07T07:40:13Z</time>
      </trkpt>
      <trkpt lat="45.57663" lon="6.73996">
        <ele>740.6</ele>
        <time>2020-08-07T07:40:15Z</time>
      </trkpt>
      <trkpt lat="45.57667" lon="6.74009">
        <ele>740.9</ele>
        <time>2020-08-07T07:40:17Z</time>
      </trkpt>
      <trkpt lat="45.57671" lon="6.7402">
        <ele>741.3</ele>
        <time>2020-08-07T07:40:19Z</time>
      </trkpt>
      <trkpt lat="45.57674" lon="6.7403">
        <ele>741.6</ele>
        <time>2020-08-07T07:40:21Z</time>
      </trkpt>
      <trkpt lat="45.57675" lon="6.74037">
        <ele>741.9</ele>
        <time>2020-08-07T07:40:22Z</time>
      </trkpt>
      <trkpt lat="45.57676" lon="6.74044">
        <ele>742.1</ele>
        <time>2020-08-07T07:40:23Z</time>
      </trkpt>
      <trkpt lat="45.57678" lon="6.74053">
        <ele>742.5</ele>
        <time>2020-08-07T07:40:25Z</time>
      </trkpt>
      <trkpt lat="45.5768" lon="6.74058">
        <ele>742.6</ele>
        <time>2020-08-07T07:40:26Z</time>
      </trkpt>
      <trkpt lat="45.57683" lon="6.74068">
        <ele>743</ele>
        <time>2020-08-07T07:40:27Z</time>
      </trkpt>
      <trkpt lat="45.57687" lon="6.74075">
        <ele>743.3</ele>
        <time>2020-08-07T07:40:30Z</time>
      </trkpt>
      <trkpt lat="45.57692" lon="6.74085">
        <ele>743.6</ele>
        <time>2020-08-07T07:40:31Z</time>
      </trkpt>
      <trkpt lat="45.57696" lon="6.74091">
        <ele>743.8</ele>
        <time>2020-08-07T07:40:33Z</time>
      </trkpt>
      <trkpt lat="45.577" lon="6.74095">
        <ele>744</ele>
        <time>2020-08-07T07:40:35Z</time>
      </trkpt>
      <trkpt lat="45.57706" lon="6.74101">
        <ele>744.2</ele>
        <time>2020-08-07T07:40:37Z</time>
      </trkpt>
      <trkpt lat="45.57709" lon="6.74104">
        <ele>744.4</ele>
        <time>2020-08-07T07:40:38Z</time>
      </trkpt>
      <trkpt lat="45.57715" lon="6.7411">
        <ele>744.6</ele>
        <time>2020-08-07T07:40:39Z</time>
      </trkpt>
      <trkpt lat="45.57724" lon="6.74116">
        <ele>745</ele>
        <time>2020-08-07T07:40:41Z</time>
      </trkpt>
      <trkpt lat="45.57729" lon="6.74118">
        <ele>745.3</ele>
        <time>2020-08-07T07:40:44Z</time>
      </trkpt>
      <trkpt lat="45.57734" lon="6.7412">
        <ele>745.5</ele>
        <time>2020-08-07T07:40:45Z</time>
      </trkpt>
      <trkpt lat="45.5774" lon="6.74122">
        <ele>745.8</ele>
        <time>2020-08-07T07:40:46Z</time>
      </trkpt>
      <trkpt lat="45.57744" lon="6.74123">
        <ele>746</ele>
        <time>2020-08-07T07:40:47Z</time>
      </trkpt>
      <trkpt lat="45.57747" lon="6.74124">
        <ele>746.2</ele>
        <time>2020-08-07T07:40:48Z</time>
      </trkpt>
      <trkpt lat="45.57751" lon="6.74125">
        <ele>746.3</ele>
        <time>2020-08-07T07:40:50Z</time>
      </trkpt>
      <trkpt lat="45.57756" lon="6.74128">
        <ele>746.5</ele>
        <time>2020-08-07T07:40:52Z</time>
      </trkpt>
      <trkpt lat="45.57762" lon="6.7413">
        <ele>746.6</ele>
        <time>2020-08-07T07:40:54Z</time>
      </trkpt>
      <trkpt lat="45.57765" lon="6.74132">
        <ele>746.6</ele>
        <time>2020-08-07T07:40:55Z</time>
      </trkpt>
      <trkpt lat="45.57772" lon="6.74135">
        <ele>746.6</ele>
        <time>2020-08-07T07:40:57Z</time>
      </trkpt>
      <trkpt lat="45.57777" lon="6.74139">
        <ele>746.4</ele>
        <time>2020-08-07T07:40:58Z</time>
      </trkpt>
      <trkpt lat="45.57783" lon="6.74143">
        <ele>746.1</ele>
        <time>2020-08-07T07:40:59Z</time>
      </trkpt>
      <trkpt lat="45.57796" lon="6.74151">
        <ele>745.2</ele>
        <time>2020-08-07T07:41:01Z</time>
      </trkpt>
      <trkpt lat="45.57803" lon="6.74155">
        <ele>744.7</ele>
        <time>2020-08-07T07:41:02Z</time>
      </trkpt>
      <trkpt lat="45.5781" lon="6.74159">
        <ele>744.1</ele>
        <time>2020-08-07T07:41:03Z</time>
      </trkpt>
      <trkpt lat="45.57826" lon="6.74158">
        <ele>743.2</ele>
        <time>2020-08-07T07:41:05Z</time>
      </trkpt>
      <trkpt lat="45.57834" lon="6.74154">
        <ele>743</ele>
        <time>2020-08-07T07:41:06Z</time>
      </trkpt>
      <trkpt lat="45.5785" lon="6.74145">
        <ele>742.8</ele>
        <time>2020-08-07T07:41:08Z</time>
      </trkpt>
      <trkpt lat="45.57857" lon="6.74142">
        <ele>742.8</ele>
        <time>2020-08-07T07:41:09Z</time>
      </trkpt>
      <trkpt lat="45.57873" lon="6.74135">
        <ele>742.8</ele>
        <time>2020-08-07T07:41:11Z</time>
      </trkpt>
      <trkpt lat="45.5788" lon="6.74132">
        <ele>742.8</ele>
        <time>2020-08-07T07:41:12Z</time>
      </trkpt>
      <trkpt lat="45.57887" lon="6.74129">
        <ele>742.9</ele>
        <time>2020-08-07T07:41:13Z</time>
      </trkpt>
      <trkpt lat="45.57901" lon="6.74123">
        <ele>742.9</ele>
        <time>2020-08-07T07:41:15Z</time>
      </trkpt>
      <trkpt lat="45.57907" lon="6.7412">
        <ele>743</ele>
        <time>2020-08-07T07:41:16Z</time>
      </trkpt>
      <trkpt lat="45.57919" lon="6.74112">
        <ele>743.1</ele>
        <time>2020-08-07T07:41:18Z</time>
      </trkpt>
      <trkpt lat="45.57924" lon="6.74109">
        <ele>743.2</ele>
        <time>2020-08-07T07:41:19Z</time>
      </trkpt>
      <trkpt lat="45.57937" lon="6.74105">
        <ele>743.3</ele>
        <time>2020-08-07T07:41:21Z</time>
      </trkpt>
      <trkpt lat="45.5795" lon="6.74104">
        <ele>743.4</ele>
        <time>2020-08-07T07:41:23Z</time>
      </trkpt>
      <trkpt lat="45.57962" lon="6.74104">
        <ele>743.6</ele>
        <time>2020-08-07T07:41:25Z</time>
      </trkpt>
      <trkpt lat="45.57968" lon="6.74103">
        <ele>743.7</ele>
        <time>2020-08-07T07:41:26Z</time>
      </trkpt>
      <trkpt lat="45.57974" lon="6.74104">
        <ele>743.8</ele>
        <time>2020-08-07T07:41:27Z</time>
      </trkpt>
      <trkpt lat="45.57986" lon="6.74106">
        <ele>744</ele>
        <time>2020-08-07T07:41:29Z</time>
      </trkpt>
      <trkpt lat="45.57997" lon="6.74108">
        <ele>744.2</ele>
        <time>2020-08-07T07:41:31Z</time>
      </trkpt>
      <trkpt lat="45.58009" lon="6.74111">
        <ele>744.3</ele>
        <time>2020-08-07T07:41:33Z</time>
      </trkpt>
      <trkpt lat="45.58015" lon="6.74113">
        <ele>744.4</ele>
        <time>2020-08-07T07:41:34Z</time>
      </trkpt>
      <trkpt lat="45.58027" lon="6.74117">
        <ele>744.6</ele>
        <time>2020-08-07T07:41:36Z</time>
      </trkpt>
      <trkpt lat="45.58039" lon="6.74122">
        <ele>744.7</ele>
        <time>2020-08-07T07:41:38Z</time>
      </trkpt>
      <trkpt lat="45.5805" lon="6.74127">
        <ele>744.9</ele>
        <time>2020-08-07T07:41:40Z</time>
      </trkpt>
      <trkpt lat="45.5806" lon="6.74131">
        <ele>745.1</ele>
        <time>2020-08-07T07:41:42Z</time>
      </trkpt>
      <trkpt lat="45.58068" lon="6.74137">
        <ele>745.2</ele>
        <time>2020-08-07T07:41:44Z</time>
      </trkpt>
      <trkpt lat="45.58075" lon="6.74144">
        <ele>745.4</ele>
        <time>2020-08-07T07:41:46Z</time>
      </trkpt>
      <trkpt lat="45.58081" lon="6.74155">
        <ele>745.5</ele>
        <time>2020-08-07T07:41:48Z</time>
      </trkpt>
      <trkpt lat="45.58084" lon="6.74161">
        <ele>745.6</ele>
        <time>2020-08-07T07:41:49Z</time>
      </trkpt>
      <trkpt lat="45.58085" lon="6.74165">
        <ele>745.7</ele>
        <time>2020-08-07T07:41:50Z</time>
      </trkpt>
      <trkpt lat="45.58087" lon="6.74171">
        <ele>745.7</ele>
        <time>2020-08-07T07:41:51Z</time>
      </trkpt>
      <trkpt lat="45.58091" lon="6.74184">
        <ele>745.8</ele>
        <time>2020-08-07T07:41:53Z</time>
      </trkpt>
      <trkpt lat="45.58095" lon="6.74197">
        <ele>745.8</ele>
        <time>2020-08-07T07:41:55Z</time>
      </trkpt>
      <trkpt lat="45.581" lon="6.7421">
        <ele>745.9</ele>
        <time>2020-08-07T07:41:57Z</time>
      </trkpt>
      <trkpt lat="45.58103" lon="6.74217">
        <ele>745.9</ele>
        <time>2020-08-07T07:41:58Z</time>
      </trkpt>
      <trkpt lat="45.58106" lon="6.74223">
        <ele>746</ele>
        <time>2020-08-07T07:41:59Z</time>
      </trkpt>
      <trkpt lat="45.58111" lon="6.74236">
        <ele>746.2</ele>
        <time>2020-08-07T07:42:01Z</time>
      </trkpt>
      <trkpt lat="45.58113" lon="6.74242">
        <ele>746.3</ele>
        <time>2020-08-07T07:42:02Z</time>
      </trkpt>
      <trkpt lat="45.58117" lon="6.74254">
        <ele>746.5</ele>
        <time>2020-08-07T07:42:04Z</time>
      </trkpt>
      <trkpt lat="45.58118" lon="6.74259">
        <ele>746.5</ele>
        <time>2020-08-07T07:42:05Z</time>
      </trkpt>
      <trkpt lat="45.58119" lon="6.74265">
        <ele>746.6</ele>
        <time>2020-08-07T07:42:06Z</time>
      </trkpt>
      <trkpt lat="45.5812" lon="6.74276">
        <ele>746.7</ele>
        <time>2020-08-07T07:42:08Z</time>
      </trkpt>
      <trkpt lat="45.5812" lon="6.7429">
        <ele>746.8</ele>
        <time>2020-08-07T07:42:10Z</time>
      </trkpt>
      <trkpt lat="45.5812" lon="6.74297">
        <ele>746.7</ele>
        <time>2020-08-07T07:42:11Z</time>
      </trkpt>
      <trkpt lat="45.58121" lon="6.74312">
        <ele>746.7</ele>
        <time>2020-08-07T07:42:13Z</time>
      </trkpt>
      <trkpt lat="45.58124" lon="6.74319">
        <ele>746.6</ele>
        <time>2020-08-07T07:42:14Z</time>
      </trkpt>
      <trkpt lat="45.58131" lon="6.74333">
        <ele>746.6</ele>
        <time>2020-08-07T07:42:16Z</time>
      </trkpt>
      <trkpt lat="45.58134" lon="6.74339">
        <ele>746.6</ele>
        <time>2020-08-07T07:42:17Z</time>
      </trkpt>
      <trkpt lat="45.5814" lon="6.74352">
        <ele>746.6</ele>
        <time>2020-08-07T07:42:19Z</time>
      </trkpt>
      <trkpt lat="45.58143" lon="6.74358">
        <ele>746.6</ele>
        <time>2020-08-07T07:42:20Z</time>
      </trkpt>
      <trkpt lat="45.58145" lon="6.74365">
        <ele>746.6</ele>
        <time>2020-08-07T07:42:21Z</time>
      </trkpt>
      <trkpt lat="45.58148" lon="6.74371">
        <ele>746.6</ele>
        <time>2020-08-07T07:42:22Z</time>
      </trkpt>
      <trkpt lat="45.58153" lon="6.74384">
        <ele>746.6</ele>
        <time>2020-08-07T07:42:24Z</time>
      </trkpt>
      <trkpt lat="45.58158" lon="6.74397">
        <ele>746.7</ele>
        <time>2020-08-07T07:42:26Z</time>
      </trkpt>
      <trkpt lat="45.5816" lon="6.74403">
        <ele>746.7</ele>
        <time>2020-08-07T07:42:27Z</time>
      </trkpt>
      <trkpt lat="45.58166" lon="6.74416">
        <ele>746.8</ele>
        <time>2020-08-07T07:42:29Z</time>
      </trkpt>
      <trkpt lat="45.58172" lon="6.74428">
        <ele>746.8</ele>
        <time>2020-08-07T07:42:31Z</time>
      </trkpt>
      <trkpt lat="45.58178" lon="6.74439">
        <ele>746.8</ele>
        <time>2020-08-07T07:42:33Z</time>
      </trkpt>
      <trkpt lat="45.58183" lon="6.74451">
        <ele>746.8</ele>
        <time>2020-08-07T07:42:35Z</time>
      </trkpt>
      <trkpt lat="45.58188" lon="6.74463">
        <ele>746.9</ele>
        <time>2020-08-07T07:42:37Z</time>
      </trkpt>
      <trkpt lat="45.58189" lon="6.74476">
        <ele>747</ele>
        <time>2020-08-07T07:42:39Z</time>
      </trkpt>
      <trkpt lat="45.5819" lon="6.7449">
        <ele>747</ele>
        <time>2020-08-07T07:42:41Z</time>
      </trkpt>
      <trkpt lat="45.5819" lon="6.74503">
        <ele>747.1</ele>
        <time>2020-08-07T07:42:43Z</time>
      </trkpt>
      <trkpt lat="45.58191" lon="6.7451">
        <ele>747.1</ele>
        <time>2020-08-07T07:42:44Z</time>
      </trkpt>
      <trkpt lat="45.58192" lon="6.74523">
        <ele>747.2</ele>
        <time>2020-08-07T07:42:46Z</time>
      </trkpt>
      <trkpt lat="45.58195" lon="6.74538">
        <ele>747.3</ele>
        <time>2020-08-07T07:42:48Z</time>
      </trkpt>
      <trkpt lat="45.58198" lon="6.74553">
        <ele>747.4</ele>
        <time>2020-08-07T07:42:50Z</time>
      </trkpt>
      <trkpt lat="45.58201" lon="6.74566">
        <ele>747.5</ele>
        <time>2020-08-07T07:42:52Z</time>
      </trkpt>
      <trkpt lat="45.58205" lon="6.74579">
        <ele>747.5</ele>
        <time>2020-08-07T07:42:54Z</time>
      </trkpt>
      <trkpt lat="45.58208" lon="6.74587">
        <ele>747.6</ele>
        <time>2020-08-07T07:42:56Z</time>
      </trkpt>
      <trkpt lat="45.58211" lon="6.74594">
        <ele>747.7</ele>
        <time>2020-08-07T07:42:57Z</time>
      </trkpt>
      <trkpt lat="45.58216" lon="6.74607">
        <ele>747.9</ele>
        <time>2020-08-07T07:42:59Z</time>
      </trkpt>
      <trkpt lat="45.58221" lon="6.74625">
        <ele>748.2</ele>
        <time>2020-08-07T07:43:01Z</time>
      </trkpt>
      <trkpt lat="45.58223" lon="6.74636">
        <ele>748.3</ele>
        <time>2020-08-07T07:43:04Z</time>
      </trkpt>
      <trkpt lat="45.58221" lon="6.74643">
        <ele>748.4</ele>
        <time>2020-08-07T07:43:05Z</time>
      </trkpt>
      <trkpt lat="45.58228" lon="6.74654">
        <ele>748.5</ele>
        <time>2020-08-07T07:43:07Z</time>
      </trkpt>
      <trkpt lat="45.58236" lon="6.74666">
        <ele>748.6</ele>
        <time>2020-08-07T07:43:09Z</time>
      </trkpt>
      <trkpt lat="45.58245" lon="6.74676">
        <ele>748.7</ele>
        <time>2020-08-07T07:43:11Z</time>
      </trkpt>
      <trkpt lat="45.5825" lon="6.7468">
        <ele>748.7</ele>
        <time>2020-08-07T07:43:12Z</time>
      </trkpt>
      <trkpt lat="45.5826" lon="6.74687">
        <ele>748.7</ele>
        <time>2020-08-07T07:43:14Z</time>
      </trkpt>
      <trkpt lat="45.58265" lon="6.7469">
        <ele>748.8</ele>
        <time>2020-08-07T07:43:15Z</time>
      </trkpt>
      <trkpt lat="45.58269" lon="6.74694">
        <ele>748.8</ele>
        <time>2020-08-07T07:43:16Z</time>
      </trkpt>
      <trkpt lat="45.58273" lon="6.74699">
        <ele>748.8</ele>
        <time>2020-08-07T07:43:17Z</time>
      </trkpt>
      <trkpt lat="45.58277" lon="6.74704">
        <ele>748.8</ele>
        <time>2020-08-07T07:43:18Z</time>
      </trkpt>
      <trkpt lat="45.58285" lon="6.74714">
        <ele>748.9</ele>
        <time>2020-08-07T07:43:20Z</time>
      </trkpt>
      <trkpt lat="45.58293" lon="6.74723">
        <ele>748.9</ele>
        <time>2020-08-07T07:43:22Z</time>
      </trkpt>
      <trkpt lat="45.58302" lon="6.74732">
        <ele>749</ele>
        <time>2020-08-07T07:43:24Z</time>
      </trkpt>
      <trkpt lat="45.58306" lon="6.74736">
        <ele>749</ele>
        <time>2020-08-07T07:43:25Z</time>
      </trkpt>
      <trkpt lat="45.58316" lon="6.74743">
        <ele>749.2</ele>
        <time>2020-08-07T07:43:27Z</time>
      </trkpt>
      <trkpt lat="45.58326" lon="6.7475">
        <ele>749.4</ele>
        <time>2020-08-07T07:43:29Z</time>
      </trkpt>
      <trkpt lat="45.5833" lon="6.74753">
        <ele>749.5</ele>
        <time>2020-08-07T07:43:30Z</time>
      </trkpt>
      <trkpt lat="45.5834" lon="6.74759">
        <ele>749.5</ele>
        <time>2020-08-07T07:43:32Z</time>
      </trkpt>
      <trkpt lat="45.58345" lon="6.74762">
        <ele>749.5</ele>
        <time>2020-08-07T07:43:33Z</time>
      </trkpt>
      <trkpt lat="45.58355" lon="6.74769">
        <ele>749.5</ele>
        <time>2020-08-07T07:43:35Z</time>
      </trkpt>
      <trkpt lat="45.58364" lon="6.74775">
        <ele>749.5</ele>
        <time>2020-08-07T07:43:37Z</time>
      </trkpt>
      <trkpt lat="45.58374" lon="6.7478">
        <ele>749.4</ele>
        <time>2020-08-07T07:43:39Z</time>
      </trkpt>
      <trkpt lat="45.58384" lon="6.74783">
        <ele>749.3</ele>
        <time>2020-08-07T07:43:41Z</time>
      </trkpt>
      <trkpt lat="45.58394" lon="6.74785">
        <ele>749.3</ele>
        <time>2020-08-07T07:43:43Z</time>
      </trkpt>
      <trkpt lat="45.58405" lon="6.74785">
        <ele>749.3</ele>
        <time>2020-08-07T07:43:45Z</time>
      </trkpt>
      <trkpt lat="45.58415" lon="6.74786">
        <ele>749.4</ele>
        <time>2020-08-07T07:43:47Z</time>
      </trkpt>
      <trkpt lat="45.58426" lon="6.74789">
        <ele>749.4</ele>
        <time>2020-08-07T07:43:49Z</time>
      </trkpt>
      <trkpt lat="45.58431" lon="6.74791">
        <ele>749.5</ele>
        <time>2020-08-07T07:43:50Z</time>
      </trkpt>
      <trkpt lat="45.58441" lon="6.74794">
        <ele>749.6</ele>
        <time>2020-08-07T07:43:52Z</time>
      </trkpt>
      <trkpt lat="45.58446" lon="6.74796">
        <ele>749.7</ele>
        <time>2020-08-07T07:43:53Z</time>
      </trkpt>
      <trkpt lat="45.58456" lon="6.74797">
        <ele>749.8</ele>
        <time>2020-08-07T07:43:55Z</time>
      </trkpt>
      <trkpt lat="45.58466" lon="6.748">
        <ele>749.9</ele>
        <time>2020-08-07T07:43:57Z</time>
      </trkpt>
      <trkpt lat="45.58476" lon="6.74803">
        <ele>750.1</ele>
        <time>2020-08-07T07:43:59Z</time>
      </trkpt>
      <trkpt lat="45.58486" lon="6.74806">
        <ele>750.3</ele>
        <time>2020-08-07T07:44:01Z</time>
      </trkpt>
      <trkpt lat="45.5849" lon="6.74807">
        <ele>750.5</ele>
        <time>2020-08-07T07:44:02Z</time>
      </trkpt>
      <trkpt lat="45.58499" lon="6.7481">
        <ele>750.7</ele>
        <time>2020-08-07T07:44:04Z</time>
      </trkpt>
      <trkpt lat="45.58505" lon="6.74816">
        <ele>750.8</ele>
        <time>2020-08-07T07:44:06Z</time>
      </trkpt>
      <trkpt lat="45.58508" lon="6.7482">
        <ele>750.9</ele>
        <time>2020-08-07T07:44:07Z</time>
      </trkpt>
      <trkpt lat="45.5851" lon="6.74824">
        <ele>750.9</ele>
        <time>2020-08-07T07:44:08Z</time>
      </trkpt>
      <trkpt lat="45.58515" lon="6.74835">
        <ele>751</ele>
        <time>2020-08-07T07:44:10Z</time>
      </trkpt>
      <trkpt lat="45.58519" lon="6.74839">
        <ele>751.1</ele>
        <time>2020-08-07T07:44:11Z</time>
      </trkpt>
      <trkpt lat="45.58524" lon="6.74843">
        <ele>751.1</ele>
        <time>2020-08-07T07:44:12Z</time>
      </trkpt>
      <trkpt lat="45.58534" lon="6.74847">
        <ele>751.2</ele>
        <time>2020-08-07T07:44:14Z</time>
      </trkpt>
      <trkpt lat="45.58539" lon="6.74848">
        <ele>751.3</ele>
        <time>2020-08-07T07:44:15Z</time>
      </trkpt>
      <trkpt lat="45.58545" lon="6.7485">
        <ele>751.3</ele>
        <time>2020-08-07T07:44:16Z</time>
      </trkpt>
      <trkpt lat="45.58555" lon="6.74853">
        <ele>751.4</ele>
        <time>2020-08-07T07:44:18Z</time>
      </trkpt>
      <trkpt lat="45.5856" lon="6.74855">
        <ele>751.5</ele>
        <time>2020-08-07T07:44:19Z</time>
      </trkpt>
      <trkpt lat="45.58569" lon="6.74859">
        <ele>751.6</ele>
        <time>2020-08-07T07:44:21Z</time>
      </trkpt>
      <trkpt lat="45.58573" lon="6.74862">
        <ele>751.6</ele>
        <time>2020-08-07T07:44:22Z</time>
      </trkpt>
      <trkpt lat="45.58578" lon="6.74866">
        <ele>751.7</ele>
        <time>2020-08-07T07:44:23Z</time>
      </trkpt>
      <trkpt lat="45.58586" lon="6.74875">
        <ele>751.8</ele>
        <time>2020-08-07T07:44:25Z</time>
      </trkpt>
      <trkpt lat="45.5859" lon="6.7488">
        <ele>751.9</ele>
        <time>2020-08-07T07:44:26Z</time>
      </trkpt>
      <trkpt lat="45.58598" lon="6.74888">
        <ele>752</ele>
        <time>2020-08-07T07:44:28Z</time>
      </trkpt>
      <trkpt lat="45.58608" lon="6.74892">
        <ele>752</ele>
        <time>2020-08-07T07:44:30Z</time>
      </trkpt>
      <trkpt lat="45.58618" lon="6.74896">
        <ele>752.1</ele>
        <time>2020-08-07T07:44:32Z</time>
      </trkpt>
      <trkpt lat="45.58623" lon="6.74897">
        <ele>752.1</ele>
        <time>2020-08-07T07:44:33Z</time>
      </trkpt>
      <trkpt lat="45.58634" lon="6.74898">
        <ele>752.1</ele>
        <time>2020-08-07T07:44:35Z</time>
      </trkpt>
      <trkpt lat="45.58639" lon="6.74898">
        <ele>752.1</ele>
        <time>2020-08-07T07:44:36Z</time>
      </trkpt>
      <trkpt lat="45.58649" lon="6.74899">
        <ele>752.1</ele>
        <time>2020-08-07T07:44:38Z</time>
      </trkpt>
      <trkpt lat="45.58654" lon="6.749">
        <ele>752.1</ele>
        <time>2020-08-07T07:44:39Z</time>
      </trkpt>
      <trkpt lat="45.58664" lon="6.74898">
        <ele>752.1</ele>
        <time>2020-08-07T07:44:41Z</time>
      </trkpt>
      <trkpt lat="45.58674" lon="6.74897">
        <ele>752.1</ele>
        <time>2020-08-07T07:44:43Z</time>
      </trkpt>
      <trkpt lat="45.58685" lon="6.749">
        <ele>752</ele>
        <time>2020-08-07T07:44:45Z</time>
      </trkpt>
      <trkpt lat="45.58696" lon="6.74903">
        <ele>752.1</ele>
        <time>2020-08-07T07:44:47Z</time>
      </trkpt>
      <trkpt lat="45.58707" lon="6.74903">
        <ele>752.2</ele>
        <time>2020-08-07T07:44:49Z</time>
      </trkpt>
      <trkpt lat="45.58713" lon="6.74903">
        <ele>752.3</ele>
        <time>2020-08-07T07:44:50Z</time>
      </trkpt>
      <trkpt lat="45.58718" lon="6.74903">
        <ele>752.3</ele>
        <time>2020-08-07T07:44:51Z</time>
      </trkpt>
      <trkpt lat="45.58723" lon="6.74903">
        <ele>752.4</ele>
        <time>2020-08-07T07:44:52Z</time>
      </trkpt>
      <trkpt lat="45.58732" lon="6.74903">
        <ele>752.5</ele>
        <time>2020-08-07T07:44:54Z</time>
      </trkpt>
      <trkpt lat="45.58738" lon="6.74903">
        <ele>752.6</ele>
        <time>2020-08-07T07:44:55Z</time>
      </trkpt>
      <trkpt lat="45.58748" lon="6.74906">
        <ele>752.7</ele>
        <time>2020-08-07T07:44:57Z</time>
      </trkpt>
      <trkpt lat="45.58757" lon="6.74911">
        <ele>752.8</ele>
        <time>2020-08-07T07:44:59Z</time>
      </trkpt>
      <trkpt lat="45.58766" lon="6.74917">
        <ele>752.8</ele>
        <time>2020-08-07T07:45:01Z</time>
      </trkpt>
      <trkpt lat="45.58777" lon="6.74918">
        <ele>752.9</ele>
        <time>2020-08-07T07:45:03Z</time>
      </trkpt>
      <trkpt lat="45.58782" lon="6.74918">
        <ele>752.9</ele>
        <time>2020-08-07T07:45:04Z</time>
      </trkpt>
      <trkpt lat="45.58792" lon="6.74918">
        <ele>753</ele>
        <time>2020-08-07T07:45:06Z</time>
      </trkpt>
      <trkpt lat="45.58803" lon="6.74916">
        <ele>753.1</ele>
        <time>2020-08-07T07:45:08Z</time>
      </trkpt>
      <trkpt lat="45.58808" lon="6.74915">
        <ele>753.2</ele>
        <time>2020-08-07T07:45:09Z</time>
      </trkpt>
      <trkpt lat="45.58819" lon="6.74915">
        <ele>753.3</ele>
        <time>2020-08-07T07:45:11Z</time>
      </trkpt>
      <trkpt lat="45.58829" lon="6.74914">
        <ele>753.4</ele>
        <time>2020-08-07T07:45:13Z</time>
      </trkpt>
      <trkpt lat="45.5884" lon="6.74913">
        <ele>753.5</ele>
        <time>2020-08-07T07:45:15Z</time>
      </trkpt>
      <trkpt lat="45.5885" lon="6.74912">
        <ele>753.7</ele>
        <time>2020-08-07T07:45:17Z</time>
      </trkpt>
      <trkpt lat="45.5886" lon="6.74914">
        <ele>754</ele>
        <time>2020-08-07T07:45:19Z</time>
      </trkpt>
      <trkpt lat="45.58869" lon="6.74915">
        <ele>754.2</ele>
        <time>2020-08-07T07:45:21Z</time>
      </trkpt>
      <trkpt lat="45.58877" lon="6.74914">
        <ele>754.3</ele>
        <time>2020-08-07T07:45:23Z</time>
      </trkpt>
      <trkpt lat="45.58882" lon="6.74912">
        <ele>754.4</ele>
        <time>2020-08-07T07:45:24Z</time>
      </trkpt>
      <trkpt lat="45.58886" lon="6.74911">
        <ele>754.5</ele>
        <time>2020-08-07T07:45:25Z</time>
      </trkpt>
      <trkpt lat="45.58896" lon="6.7491">
        <ele>754.6</ele>
        <time>2020-08-07T07:45:27Z</time>
      </trkpt>
      <trkpt lat="45.58907" lon="6.74912">
        <ele>754.8</ele>
        <time>2020-08-07T07:45:29Z</time>
      </trkpt>
      <trkpt lat="45.58917" lon="6.74915">
        <ele>755</ele>
        <time>2020-08-07T07:45:31Z</time>
      </trkpt>
      <trkpt lat="45.58922" lon="6.74915">
        <ele>755.1</ele>
        <time>2020-08-07T07:45:32Z</time>
      </trkpt>
      <trkpt lat="45.58932" lon="6.74915">
        <ele>755.2</ele>
        <time>2020-08-07T07:45:34Z</time>
      </trkpt>
      <trkpt lat="45.58936" lon="6.74915">
        <ele>755.2</ele>
        <time>2020-08-07T07:45:35Z</time>
      </trkpt>
      <trkpt lat="45.58946" lon="6.74917">
        <ele>755.4</ele>
        <time>2020-08-07T07:45:37Z</time>
      </trkpt>
      <trkpt lat="45.58955" lon="6.74924">
        <ele>755.6</ele>
        <time>2020-08-07T07:45:39Z</time>
      </trkpt>
      <trkpt lat="45.5896" lon="6.74927">
        <ele>755.7</ele>
        <time>2020-08-07T07:45:40Z</time>
      </trkpt>
      <trkpt lat="45.58968" lon="6.74934">
        <ele>755.9</ele>
        <time>2020-08-07T07:45:42Z</time>
      </trkpt>
      <trkpt lat="45.58972" lon="6.74938">
        <ele>755.9</ele>
        <time>2020-08-07T07:45:43Z</time>
      </trkpt>
      <trkpt lat="45.58981" lon="6.74944">
        <ele>756.1</ele>
        <time>2020-08-07T07:45:45Z</time>
      </trkpt>
      <trkpt lat="45.58985" lon="6.74947">
        <ele>756.1</ele>
        <time>2020-08-07T07:45:46Z</time>
      </trkpt>
      <trkpt lat="45.58994" lon="6.74952">
        <ele>756.3</ele>
        <time>2020-08-07T07:45:48Z</time>
      </trkpt>
      <trkpt lat="45.59003" lon="6.74955">
        <ele>756.4</ele>
        <time>2020-08-07T07:45:50Z</time>
      </trkpt>
      <trkpt lat="45.59013" lon="6.74958">
        <ele>756.3</ele>
        <time>2020-08-07T07:45:52Z</time>
      </trkpt>
      <trkpt lat="45.59018" lon="6.7496">
        <ele>756.3</ele>
        <time>2020-08-07T07:45:53Z</time>
      </trkpt>
      <trkpt lat="45.59028" lon="6.74963">
        <ele>756.2</ele>
        <time>2020-08-07T07:45:55Z</time>
      </trkpt>
      <trkpt lat="45.59038" lon="6.74966">
        <ele>756.1</ele>
        <time>2020-08-07T07:45:57Z</time>
      </trkpt>
      <trkpt lat="45.59044" lon="6.74969">
        <ele>756</ele>
        <time>2020-08-07T07:45:58Z</time>
      </trkpt>
      <trkpt lat="45.59049" lon="6.74974">
        <ele>756</ele>
        <time>2020-08-07T07:45:59Z</time>
      </trkpt>
      <trkpt lat="45.59057" lon="6.74987">
        <ele>756.1</ele>
        <time>2020-08-07T07:46:01Z</time>
      </trkpt>
      <trkpt lat="45.59064" lon="6.74998">
        <ele>756.1</ele>
        <time>2020-08-07T07:46:03Z</time>
      </trkpt>
      <trkpt lat="45.59075" lon="6.75004">
        <ele>756.1</ele>
        <time>2020-08-07T07:46:05Z</time>
      </trkpt>
      <trkpt lat="45.59086" lon="6.75004">
        <ele>756.2</ele>
        <time>2020-08-07T07:46:07Z</time>
      </trkpt>
      <trkpt lat="45.59097" lon="6.75004">
        <ele>756.2</ele>
        <time>2020-08-07T07:46:09Z</time>
      </trkpt>
      <trkpt lat="45.59103" lon="6.75004">
        <ele>756.3</ele>
        <time>2020-08-07T07:46:10Z</time>
      </trkpt>
      <trkpt lat="45.59109" lon="6.75005">
        <ele>756.4</ele>
        <time>2020-08-07T07:46:11Z</time>
      </trkpt>
      <trkpt lat="45.59115" lon="6.75005">
        <ele>756.4</ele>
        <time>2020-08-07T07:46:12Z</time>
      </trkpt>
      <trkpt lat="45.59127" lon="6.75006">
        <ele>756.5</ele>
        <time>2020-08-07T07:46:14Z</time>
      </trkpt>
      <trkpt lat="45.5914" lon="6.75009">
        <ele>756.6</ele>
        <time>2020-08-07T07:46:16Z</time>
      </trkpt>
      <trkpt lat="45.59152" lon="6.75011">
        <ele>756.8</ele>
        <time>2020-08-07T07:46:18Z</time>
      </trkpt>
      <trkpt lat="45.59163" lon="6.75014">
        <ele>757.1</ele>
        <time>2020-08-07T07:46:20Z</time>
      </trkpt>
      <trkpt lat="45.59168" lon="6.75016">
        <ele>757.2</ele>
        <time>2020-08-07T07:46:21Z</time>
      </trkpt>
      <trkpt lat="45.59173" lon="6.7502">
        <ele>757.3</ele>
        <time>2020-08-07T07:46:22Z</time>
      </trkpt>
      <trkpt lat="45.59183" lon="6.75029">
        <ele>757.4</ele>
        <time>2020-08-07T07:46:24Z</time>
      </trkpt>
      <trkpt lat="45.59192" lon="6.75039">
        <ele>757.5</ele>
        <time>2020-08-07T07:46:26Z</time>
      </trkpt>
      <trkpt lat="45.592" lon="6.75051">
        <ele>757.7</ele>
        <time>2020-08-07T07:46:28Z</time>
      </trkpt>
      <trkpt lat="45.59209" lon="6.75062">
        <ele>757.7</ele>
        <time>2020-08-07T07:46:30Z</time>
      </trkpt>
      <trkpt lat="45.59218" lon="6.75071">
        <ele>757.9</ele>
        <time>2020-08-07T07:46:32Z</time>
      </trkpt>
      <trkpt lat="45.59223" lon="6.75076">
        <ele>758.1</ele>
        <time>2020-08-07T07:46:33Z</time>
      </trkpt>
      <trkpt lat="45.59227" lon="6.75082">
        <ele>758.2</ele>
        <time>2020-08-07T07:46:34Z</time>
      </trkpt>
      <trkpt lat="45.59231" lon="6.75087">
        <ele>758.3</ele>
        <time>2020-08-07T07:46:35Z</time>
      </trkpt>
      <trkpt lat="45.59239" lon="6.75098">
        <ele>758.5</ele>
        <time>2020-08-07T07:46:37Z</time>
      </trkpt>
      <trkpt lat="45.59247" lon="6.75108">
        <ele>758.7</ele>
        <time>2020-08-07T07:46:39Z</time>
      </trkpt>
      <trkpt lat="45.59254" lon="6.7512">
        <ele>758.9</ele>
        <time>2020-08-07T07:46:41Z</time>
      </trkpt>
      <trkpt lat="45.59257" lon="6.75126">
        <ele>759.1</ele>
        <time>2020-08-07T07:46:42Z</time>
      </trkpt>
      <trkpt lat="45.59264" lon="6.7514">
        <ele>759.4</ele>
        <time>2020-08-07T07:46:44Z</time>
      </trkpt>
      <trkpt lat="45.59273" lon="6.75149">
        <ele>759.7</ele>
        <time>2020-08-07T07:46:46Z</time>
      </trkpt>
      <trkpt lat="45.59282" lon="6.75157">
        <ele>759.9</ele>
        <time>2020-08-07T07:46:48Z</time>
      </trkpt>
      <trkpt lat="45.59287" lon="6.75159">
        <ele>760</ele>
        <time>2020-08-07T07:46:49Z</time>
      </trkpt>
      <trkpt lat="45.59298" lon="6.7516">
        <ele>760.1</ele>
        <time>2020-08-07T07:46:51Z</time>
      </trkpt>
      <trkpt lat="45.59303" lon="6.75161">
        <ele>760.2</ele>
        <time>2020-08-07T07:46:52Z</time>
      </trkpt>
      <trkpt lat="45.59314" lon="6.75163">
        <ele>760.2</ele>
        <time>2020-08-07T07:46:54Z</time>
      </trkpt>
      <trkpt lat="45.59319" lon="6.75165">
        <ele>760.3</ele>
        <time>2020-08-07T07:46:55Z</time>
      </trkpt>
      <trkpt lat="45.59329" lon="6.7517">
        <ele>760.3</ele>
        <time>2020-08-07T07:46:57Z</time>
      </trkpt>
      <trkpt lat="45.5934" lon="6.75175">
        <ele>760.4</ele>
        <time>2020-08-07T07:46:59Z</time>
      </trkpt>
      <trkpt lat="45.5935" lon="6.75181">
        <ele>760.4</ele>
        <time>2020-08-07T07:47:01Z</time>
      </trkpt>
      <trkpt lat="45.59361" lon="6.75188">
        <ele>760.6</ele>
        <time>2020-08-07T07:47:03Z</time>
      </trkpt>
      <trkpt lat="45.59372" lon="6.75192">
        <ele>760.7</ele>
        <time>2020-08-07T07:47:05Z</time>
      </trkpt>
      <trkpt lat="45.59382" lon="6.75194">
        <ele>760.8</ele>
        <time>2020-08-07T07:47:07Z</time>
      </trkpt>
      <trkpt lat="45.59392" lon="6.75195">
        <ele>760.8</ele>
        <time>2020-08-07T07:47:09Z</time>
      </trkpt>
      <trkpt lat="45.59402" lon="6.75198">
        <ele>760.7</ele>
        <time>2020-08-07T07:47:11Z</time>
      </trkpt>
      <trkpt lat="45.59411" lon="6.75205">
        <ele>760.6</ele>
        <time>2020-08-07T07:47:13Z</time>
      </trkpt>
      <trkpt lat="45.5942" lon="6.75217">
        <ele>760.5</ele>
        <time>2020-08-07T07:47:15Z</time>
      </trkpt>
      <trkpt lat="45.59428" lon="6.7523">
        <ele>760.5</ele>
        <time>2020-08-07T07:47:17Z</time>
      </trkpt>
      <trkpt lat="45.59435" lon="6.75243">
        <ele>760.6</ele>
        <time>2020-08-07T07:47:19Z</time>
      </trkpt>
      <trkpt lat="45.59441" lon="6.75256">
        <ele>760.7</ele>
        <time>2020-08-07T07:47:21Z</time>
      </trkpt>
      <trkpt lat="45.59444" lon="6.75262">
        <ele>760.7</ele>
        <time>2020-08-07T07:47:22Z</time>
      </trkpt>
      <trkpt lat="45.59448" lon="6.75267">
        <ele>760.7</ele>
        <time>2020-08-07T07:47:23Z</time>
      </trkpt>
      <trkpt lat="45.59451" lon="6.75273">
        <ele>760.7</ele>
        <time>2020-08-07T07:47:24Z</time>
      </trkpt>
      <trkpt lat="45.59458" lon="6.75283">
        <ele>760.8</ele>
        <time>2020-08-07T07:47:26Z</time>
      </trkpt>
      <trkpt lat="45.59463" lon="6.75288">
        <ele>760.8</ele>
        <time>2020-08-07T07:47:27Z</time>
      </trkpt>
      <trkpt lat="45.59472" lon="6.75297">
        <ele>761</ele>
        <time>2020-08-07T07:47:29Z</time>
      </trkpt>
      <trkpt lat="45.59481" lon="6.75306">
        <ele>761.3</ele>
        <time>2020-08-07T07:47:31Z</time>
      </trkpt>
      <trkpt lat="45.59486" lon="6.7531">
        <ele>761.4</ele>
        <time>2020-08-07T07:47:32Z</time>
      </trkpt>
      <trkpt lat="45.59495" lon="6.75319">
        <ele>761.7</ele>
        <time>2020-08-07T07:47:34Z</time>
      </trkpt>
      <trkpt lat="45.59503" lon="6.75329">
        <ele>761.9</ele>
        <time>2020-08-07T07:47:36Z</time>
      </trkpt>
      <trkpt lat="45.59509" lon="6.75339">
        <ele>762.2</ele>
        <time>2020-08-07T07:47:38Z</time>
      </trkpt>
      <trkpt lat="45.59516" lon="6.75348">
        <ele>762.4</ele>
        <time>2020-08-07T07:47:40Z</time>
      </trkpt>
      <trkpt lat="45.5952" lon="6.75353">
        <ele>762.5</ele>
        <time>2020-08-07T07:47:41Z</time>
      </trkpt>
      <trkpt lat="45.59528" lon="6.75362">
        <ele>762.6</ele>
        <time>2020-08-07T07:47:43Z</time>
      </trkpt>
      <trkpt lat="45.59532" lon="6.75366">
        <ele>762.7</ele>
        <time>2020-08-07T07:47:44Z</time>
      </trkpt>
      <trkpt lat="45.5954" lon="6.75375">
        <ele>762.9</ele>
        <time>2020-08-07T07:47:46Z</time>
      </trkpt>
      <trkpt lat="45.59544" lon="6.7538">
        <ele>763</ele>
        <time>2020-08-07T07:47:47Z</time>
      </trkpt>
      <trkpt lat="45.59553" lon="6.75387">
        <ele>763.2</ele>
        <time>2020-08-07T07:47:49Z</time>
      </trkpt>
      <trkpt lat="45.59561" lon="6.75393">
        <ele>763.3</ele>
        <time>2020-08-07T07:47:51Z</time>
      </trkpt>
      <trkpt lat="45.59569" lon="6.75398">
        <ele>763.5</ele>
        <time>2020-08-07T07:47:53Z</time>
      </trkpt>
      <trkpt lat="45.59576" lon="6.75409">
        <ele>763.6</ele>
        <time>2020-08-07T07:47:55Z</time>
      </trkpt>
      <trkpt lat="45.59582" lon="6.7542">
        <ele>763.7</ele>
        <time>2020-08-07T07:47:57Z</time>
      </trkpt>
      <trkpt lat="45.59591" lon="6.75428">
        <ele>763.7</ele>
        <time>2020-08-07T07:47:59Z</time>
      </trkpt>
      <trkpt lat="45.59597" lon="6.75429">
        <ele>763.7</ele>
        <time>2020-08-07T07:48:00Z</time>
      </trkpt>
      <trkpt lat="45.59602" lon="6.75429">
        <ele>763.7</ele>
        <time>2020-08-07T07:48:01Z</time>
      </trkpt>
      <trkpt lat="45.59612" lon="6.75433">
        <ele>763.7</ele>
        <time>2020-08-07T07:48:03Z</time>
      </trkpt>
      <trkpt lat="45.59617" lon="6.75436">
        <ele>763.7</ele>
        <time>2020-08-07T07:48:04Z</time>
      </trkpt>
      <trkpt lat="45.59627" lon="6.75443">
        <ele>763.6</ele>
        <time>2020-08-07T07:48:06Z</time>
      </trkpt>
      <trkpt lat="45.59636" lon="6.7545">
        <ele>763.5</ele>
        <time>2020-08-07T07:48:08Z</time>
      </trkpt>
      <trkpt lat="45.59646" lon="6.75457">
        <ele>763.5</ele>
        <time>2020-08-07T07:48:10Z</time>
      </trkpt>
      <trkpt lat="45.59651" lon="6.7546">
        <ele>763.5</ele>
        <time>2020-08-07T07:48:11Z</time>
      </trkpt>
      <trkpt lat="45.59656" lon="6.75463">
        <ele>763.5</ele>
        <time>2020-08-07T07:48:12Z</time>
      </trkpt>
      <trkpt lat="45.59666" lon="6.75469">
        <ele>763.6</ele>
        <time>2020-08-07T07:48:14Z</time>
      </trkpt>
      <trkpt lat="45.59675" lon="6.75477">
        <ele>763.7</ele>
        <time>2020-08-07T07:48:16Z</time>
      </trkpt>
      <trkpt lat="45.5968" lon="6.75481">
        <ele>763.8</ele>
        <time>2020-08-07T07:48:17Z</time>
      </trkpt>
      <trkpt lat="45.59685" lon="6.75485">
        <ele>763.8</ele>
        <time>2020-08-07T07:48:18Z</time>
      </trkpt>
      <trkpt lat="45.59695" lon="6.75493">
        <ele>764</ele>
        <time>2020-08-07T07:48:20Z</time>
      </trkpt>
      <trkpt lat="45.59706" lon="6.75495">
        <ele>764.2</ele>
        <time>2020-08-07T07:48:22Z</time>
      </trkpt>
      <trkpt lat="45.59717" lon="6.75494">
        <ele>764.3</ele>
        <time>2020-08-07T07:48:24Z</time>
      </trkpt>
      <trkpt lat="45.59722" lon="6.75496">
        <ele>764.3</ele>
        <time>2020-08-07T07:48:25Z</time>
      </trkpt>
      <trkpt lat="45.59727" lon="6.75498">
        <ele>764.3</ele>
        <time>2020-08-07T07:48:26Z</time>
      </trkpt>
      <trkpt lat="45.59737" lon="6.75507">
        <ele>764.4</ele>
        <time>2020-08-07T07:48:28Z</time>
      </trkpt>
      <trkpt lat="45.59745" lon="6.75519">
        <ele>764.4</ele>
        <time>2020-08-07T07:48:30Z</time>
      </trkpt>
      <trkpt lat="45.59749" lon="6.75525">
        <ele>764.5</ele>
        <time>2020-08-07T07:48:31Z</time>
      </trkpt>
      <trkpt lat="45.59756" lon="6.75538">
        <ele>764.6</ele>
        <time>2020-08-07T07:48:33Z</time>
      </trkpt>
      <trkpt lat="45.59763" lon="6.75549">
        <ele>764.7</ele>
        <time>2020-08-07T07:48:35Z</time>
      </trkpt>
      <trkpt lat="45.59769" lon="6.75561">
        <ele>764.9</ele>
        <time>2020-08-07T07:48:37Z</time>
      </trkpt>
      <trkpt lat="45.59774" lon="6.75574">
        <ele>765.1</ele>
        <time>2020-08-07T07:48:39Z</time>
      </trkpt>
      <trkpt lat="45.59779" lon="6.75586">
        <ele>765.4</ele>
        <time>2020-08-07T07:48:41Z</time>
      </trkpt>
      <trkpt lat="45.59782" lon="6.75593">
        <ele>765.5</ele>
        <time>2020-08-07T07:48:42Z</time>
      </trkpt>
      <trkpt lat="45.59784" lon="6.75599">
        <ele>765.7</ele>
        <time>2020-08-07T07:48:43Z</time>
      </trkpt>
      <trkpt lat="45.59789" lon="6.75611">
        <ele>765.9</ele>
        <time>2020-08-07T07:48:45Z</time>
      </trkpt>
      <trkpt lat="45.59794" lon="6.75622">
        <ele>766.2</ele>
        <time>2020-08-07T07:48:47Z</time>
      </trkpt>
      <trkpt lat="45.59799" lon="6.75633">
        <ele>766.4</ele>
        <time>2020-08-07T07:48:49Z</time>
      </trkpt>
      <trkpt lat="45.59801" lon="6.75638">
        <ele>766.5</ele>
        <time>2020-08-07T07:48:50Z</time>
      </trkpt>
      <trkpt lat="45.59802" lon="6.75651">
        <ele>766.8</ele>
        <time>2020-08-07T07:48:52Z</time>
      </trkpt>
      <trkpt lat="45.59802" lon="6.75659">
        <ele>766.9</ele>
        <time>2020-08-07T07:48:53Z</time>
      </trkpt>
      <trkpt lat="45.59802" lon="6.75673">
        <ele>767.2</ele>
        <time>2020-08-07T07:48:55Z</time>
      </trkpt>
      <trkpt lat="45.59801" lon="6.7568">
        <ele>767.3</ele>
        <time>2020-08-07T07:48:56Z</time>
      </trkpt>
      <trkpt lat="45.59801" lon="6.75693">
        <ele>767.5</ele>
        <time>2020-08-07T07:48:58Z</time>
      </trkpt>
      <trkpt lat="45.59801" lon="6.75699">
        <ele>767.6</ele>
        <time>2020-08-07T07:48:59Z</time>
      </trkpt>
      <trkpt lat="45.59802" lon="6.75712">
        <ele>767.8</ele>
        <time>2020-08-07T07:49:01Z</time>
      </trkpt>
      <trkpt lat="45.59803" lon="6.75718">
        <ele>767.8</ele>
        <time>2020-08-07T07:49:02Z</time>
      </trkpt>
      <trkpt lat="45.59806" lon="6.75729">
        <ele>768</ele>
        <time>2020-08-07T07:49:04Z</time>
      </trkpt>
      <trkpt lat="45.59813" lon="6.75739">
        <ele>768.2</ele>
        <time>2020-08-07T07:49:06Z</time>
      </trkpt>
      <trkpt lat="45.59825" lon="6.75749">
        <ele>768.6</ele>
        <time>2020-08-07T07:49:08Z</time>
      </trkpt>
      <trkpt lat="45.59827" lon="6.75743">
        <ele>768.8</ele>
        <time>2020-08-07T07:49:10Z</time>
      </trkpt>
      <trkpt lat="45.59831" lon="6.75756">
        <ele>769.1</ele>
        <time>2020-08-07T07:49:11Z</time>
      </trkpt>
      <trkpt lat="45.59833" lon="6.75767">
        <ele>769.5</ele>
        <time>2020-08-07T07:49:13Z</time>
      </trkpt>
      <trkpt lat="45.59834" lon="6.75776">
        <ele>769.7</ele>
        <time>2020-08-07T07:49:15Z</time>
      </trkpt>
      <trkpt lat="45.59835" lon="6.75783">
        <ele>769.9</ele>
        <time>2020-08-07T07:49:16Z</time>
      </trkpt>
      <trkpt lat="45.59838" lon="6.758">
        <ele>770.2</ele>
        <time>2020-08-07T07:49:17Z</time>
      </trkpt>
      <trkpt lat="45.59842" lon="6.75806">
        <ele>770.4</ele>
        <time>2020-08-07T07:49:19Z</time>
      </trkpt>
      <trkpt lat="45.59846" lon="6.7581">
        <ele>770.5</ele>
        <time>2020-08-07T07:49:20Z</time>
      </trkpt>
      <trkpt lat="45.5985" lon="6.75813">
        <ele>770.7</ele>
        <time>2020-08-07T07:49:21Z</time>
      </trkpt>
      <trkpt lat="45.59853" lon="6.75816">
        <ele>770.8</ele>
        <time>2020-08-07T07:49:23Z</time>
      </trkpt>
      <trkpt lat="45.59857" lon="6.7582">
        <ele>770.9</ele>
        <time>2020-08-07T07:49:24Z</time>
      </trkpt>
      <trkpt lat="45.59869" lon="6.75835">
        <ele>771.4</ele>
        <time>2020-08-07T07:49:26Z</time>
      </trkpt>
      <trkpt lat="45.59874" lon="6.75841">
        <ele>771.7</ele>
        <time>2020-08-07T07:49:28Z</time>
      </trkpt>
      <trkpt lat="45.59881" lon="6.75854">
        <ele>772.3</ele>
        <time>2020-08-07T07:49:30Z</time>
      </trkpt>
      <trkpt lat="45.59884" lon="6.75861">
        <ele>772.5</ele>
        <time>2020-08-07T07:49:33Z</time>
      </trkpt>
      <trkpt lat="45.59887" lon="6.75871">
        <ele>772.9</ele>
        <time>2020-08-07T07:49:34Z</time>
      </trkpt>
      <trkpt lat="45.5989" lon="6.75881">
        <ele>773.2</ele>
        <time>2020-08-07T07:49:37Z</time>
      </trkpt>
      <trkpt lat="45.59893" lon="6.75888">
        <ele>773.5</ele>
        <time>2020-08-07T07:49:38Z</time>
      </trkpt>
      <trkpt lat="45.59898" lon="6.75892">
        <ele>773.6</ele>
        <time>2020-08-07T07:49:39Z</time>
      </trkpt>
      <trkpt lat="45.59902" lon="6.75894">
        <ele>773.7</ele>
        <time>2020-08-07T07:49:41Z</time>
      </trkpt>
      <trkpt lat="45.59914" lon="6.75893">
        <ele>773.8</ele>
        <time>2020-08-07T07:49:43Z</time>
      </trkpt>
      <trkpt lat="45.5992" lon="6.75892">
        <ele>773.7</ele>
        <time>2020-08-07T07:49:44Z</time>
      </trkpt>
      <trkpt lat="45.59931" lon="6.75891">
        <ele>773.5</ele>
        <time>2020-08-07T07:49:46Z</time>
      </trkpt>
      <trkpt lat="45.59937" lon="6.75894">
        <ele>773.3</ele>
        <time>2020-08-07T07:49:47Z</time>
      </trkpt>
      <trkpt lat="45.59943" lon="6.75899">
        <ele>773.3</ele>
        <time>2020-08-07T07:49:48Z</time>
      </trkpt>
      <trkpt lat="45.59953" lon="6.7591">
        <ele>774</ele>
        <time>2020-08-07T07:49:50Z</time>
      </trkpt>
      <trkpt lat="45.59957" lon="6.75916">
        <ele>774.5</ele>
        <time>2020-08-07T07:49:51Z</time>
      </trkpt>
      <trkpt lat="45.59962" lon="6.75925">
        <ele>775.2</ele>
        <time>2020-08-07T07:49:53Z</time>
      </trkpt>
      <trkpt lat="45.59963" lon="6.75933">
        <ele>775.7</ele>
        <time>2020-08-07T07:49:54Z</time>
      </trkpt>
      <trkpt lat="45.59964" lon="6.7594">
        <ele>775.9</ele>
        <time>2020-08-07T07:49:55Z</time>
      </trkpt>
      <trkpt lat="45.59967" lon="6.75946">
        <ele>776.2</ele>
        <time>2020-08-07T07:49:56Z</time>
      </trkpt>
      <trkpt lat="45.5997" lon="6.75949">
        <ele>776.3</ele>
        <time>2020-08-07T07:49:58Z</time>
      </trkpt>
      <trkpt lat="45.59976" lon="6.75954">
        <ele>776.4</ele>
        <time>2020-08-07T07:50:00Z</time>
      </trkpt>
      <trkpt lat="45.59983" lon="6.75958">
        <ele>776.4</ele>
        <time>2020-08-07T07:50:01Z</time>
      </trkpt>
      <trkpt lat="45.59991" lon="6.75964">
        <ele>776.4</ele>
        <time>2020-08-07T07:50:03Z</time>
      </trkpt>
      <trkpt lat="45.59995" lon="6.75968">
        <ele>776.3</ele>
        <time>2020-08-07T07:50:04Z</time>
      </trkpt>
      <trkpt lat="45.60003" lon="6.75979">
        <ele>776.3</ele>
        <time>2020-08-07T07:50:06Z</time>
      </trkpt>
      <trkpt lat="45.60007" lon="6.75984">
        <ele>776.3</ele>
        <time>2020-08-07T07:50:07Z</time>
      </trkpt>
      <trkpt lat="45.60011" lon="6.75989">
        <ele>776.3</ele>
        <time>2020-08-07T07:50:08Z</time>
      </trkpt>
      <trkpt lat="45.60014" lon="6.75993">
        <ele>776.4</ele>
        <time>2020-08-07T07:50:09Z</time>
      </trkpt>
      <trkpt lat="45.60023" lon="6.76002">
        <ele>776.4</ele>
        <time>2020-08-07T07:50:11Z</time>
      </trkpt>
      <trkpt lat="45.60027" lon="6.76007">
        <ele>776.4</ele>
        <time>2020-08-07T07:50:12Z</time>
      </trkpt>
      <trkpt lat="45.60036" lon="6.76016">
        <ele>776.4</ele>
        <time>2020-08-07T07:50:14Z</time>
      </trkpt>
      <trkpt lat="45.60045" lon="6.76026">
        <ele>776.4</ele>
        <time>2020-08-07T07:50:16Z</time>
      </trkpt>
      <trkpt lat="45.60049" lon="6.76032">
        <ele>776.4</ele>
        <time>2020-08-07T07:50:17Z</time>
      </trkpt>
      <trkpt lat="45.60055" lon="6.76044">
        <ele>776.6</ele>
        <time>2020-08-07T07:50:19Z</time>
      </trkpt>
      <trkpt lat="45.60057" lon="6.76051">
        <ele>776.6</ele>
        <time>2020-08-07T07:50:20Z</time>
      </trkpt>
      <trkpt lat="45.60064" lon="6.76063">
        <ele>776.6</ele>
        <time>2020-08-07T07:50:22Z</time>
      </trkpt>
      <trkpt lat="45.6007" lon="6.76075">
        <ele>776.5</ele>
        <time>2020-08-07T07:50:24Z</time>
      </trkpt>
      <trkpt lat="45.60073" lon="6.76083">
        <ele>776.5</ele>
        <time>2020-08-07T07:50:25Z</time>
      </trkpt>
      <trkpt lat="45.60076" lon="6.76099">
        <ele>776.5</ele>
        <time>2020-08-07T07:50:27Z</time>
      </trkpt>
      <trkpt lat="45.60074" lon="6.76116">
        <ele>776.8</ele>
        <time>2020-08-07T07:50:29Z</time>
      </trkpt>
      <trkpt lat="45.60073" lon="6.76125">
        <ele>776.9</ele>
        <time>2020-08-07T07:50:30Z</time>
      </trkpt>
      <trkpt lat="45.60072" lon="6.7614">
        <ele>777.3</ele>
        <time>2020-08-07T07:50:32Z</time>
      </trkpt>
      <trkpt lat="45.60072" lon="6.76147">
        <ele>777.5</ele>
        <time>2020-08-07T07:50:33Z</time>
      </trkpt>
      <trkpt lat="45.60072" lon="6.76155">
        <ele>777.7</ele>
        <time>2020-08-07T07:50:34Z</time>
      </trkpt>
      <trkpt lat="45.60074" lon="6.76169">
        <ele>777.9</ele>
        <time>2020-08-07T07:50:36Z</time>
      </trkpt>
      <trkpt lat="45.60075" lon="6.76184">
        <ele>777.9</ele>
        <time>2020-08-07T07:50:38Z</time>
      </trkpt>
      <trkpt lat="45.60076" lon="6.76191">
        <ele>777.9</ele>
        <time>2020-08-07T07:50:39Z</time>
      </trkpt>
      <trkpt lat="45.60078" lon="6.76206">
        <ele>777.9</ele>
        <time>2020-08-07T07:50:41Z</time>
      </trkpt>
      <trkpt lat="45.6008" lon="6.76215">
        <ele>777.9</ele>
        <time>2020-08-07T07:50:42Z</time>
      </trkpt>
      <trkpt lat="45.60082" lon="6.76223">
        <ele>777.9</ele>
        <time>2020-08-07T07:50:43Z</time>
      </trkpt>
      <trkpt lat="45.60086" lon="6.76239">
        <ele>778</ele>
        <time>2020-08-07T07:50:45Z</time>
      </trkpt>
      <trkpt lat="45.60088" lon="6.76246">
        <ele>778</ele>
        <time>2020-08-07T07:50:46Z</time>
      </trkpt>
      <trkpt lat="45.60091" lon="6.76261">
        <ele>778</ele>
        <time>2020-08-07T07:50:48Z</time>
      </trkpt>
      <trkpt lat="45.60088" lon="6.76277">
        <ele>778</ele>
        <time>2020-08-07T07:50:50Z</time>
      </trkpt>
      <trkpt lat="45.60085" lon="6.76291">
        <ele>778</ele>
        <time>2020-08-07T07:50:52Z</time>
      </trkpt>
      <trkpt lat="45.60083" lon="6.76305">
        <ele>778.1</ele>
        <time>2020-08-07T07:50:54Z</time>
      </trkpt>
      <trkpt lat="45.60083" lon="6.76312">
        <ele>778.1</ele>
        <time>2020-08-07T07:50:55Z</time>
      </trkpt>
      <trkpt lat="45.60083" lon="6.76317">
        <ele>778.2</ele>
        <time>2020-08-07T07:50:56Z</time>
      </trkpt>
      <trkpt lat="45.60085" lon="6.7633">
        <ele>778.2</ele>
        <time>2020-08-07T07:50:58Z</time>
      </trkpt>
      <trkpt lat="45.60086" lon="6.76335">
        <ele>778.3</ele>
        <time>2020-08-07T07:50:59Z</time>
      </trkpt>
      <trkpt lat="45.60089" lon="6.76346">
        <ele>778.4</ele>
        <time>2020-08-07T07:51:01Z</time>
      </trkpt>
      <trkpt lat="45.6009" lon="6.76361">
        <ele>778.6</ele>
        <time>2020-08-07T07:51:03Z</time>
      </trkpt>
      <trkpt lat="45.60089" lon="6.76369">
        <ele>778.8</ele>
        <time>2020-08-07T07:51:04Z</time>
      </trkpt>
      <trkpt lat="45.60088" lon="6.76387">
        <ele>779.1</ele>
        <time>2020-08-07T07:51:06Z</time>
      </trkpt>
      <trkpt lat="45.60089" lon="6.76403">
        <ele>779.5</ele>
        <time>2020-08-07T07:51:08Z</time>
      </trkpt>
      <trkpt lat="45.6009" lon="6.76417">
        <ele>779.9</ele>
        <time>2020-08-07T07:51:10Z</time>
      </trkpt>
      <trkpt lat="45.60093" lon="6.7643">
        <ele>780.4</ele>
        <time>2020-08-07T07:51:12Z</time>
      </trkpt>
      <trkpt lat="45.60095" lon="6.76443">
        <ele>780.8</ele>
        <time>2020-08-07T07:51:14Z</time>
      </trkpt>
      <trkpt lat="45.60096" lon="6.76448">
        <ele>781</ele>
        <time>2020-08-07T07:51:15Z</time>
      </trkpt>
      <trkpt lat="45.60096" lon="6.76453">
        <ele>781.2</ele>
        <time>2020-08-07T07:51:16Z</time>
      </trkpt>
      <trkpt lat="45.60096" lon="6.7646">
        <ele>781.4</ele>
        <time>2020-08-07T07:51:17Z</time>
      </trkpt>
      <trkpt lat="45.60097" lon="6.76467">
        <ele>781.6</ele>
        <time>2020-08-07T07:51:18Z</time>
      </trkpt>
      <trkpt lat="45.60102" lon="6.76481">
        <ele>782.1</ele>
        <time>2020-08-07T07:51:20Z</time>
      </trkpt>
      <trkpt lat="45.60105" lon="6.76488">
        <ele>782.3</ele>
        <time>2020-08-07T07:51:21Z</time>
      </trkpt>
      <trkpt lat="45.60111" lon="6.76498">
        <ele>782.8</ele>
        <time>2020-08-07T07:51:23Z</time>
      </trkpt>
      <trkpt lat="45.60118" lon="6.7651">
        <ele>783.4</ele>
        <time>2020-08-07T07:51:25Z</time>
      </trkpt>
      <trkpt lat="45.60124" lon="6.7652">
        <ele>784</ele>
        <time>2020-08-07T07:51:27Z</time>
      </trkpt>
      <trkpt lat="45.60131" lon="6.76531">
        <ele>784.5</ele>
        <time>2020-08-07T07:51:29Z</time>
      </trkpt>
      <trkpt lat="45.60137" lon="6.76541">
        <ele>785</ele>
        <time>2020-08-07T07:51:31Z</time>
      </trkpt>
      <trkpt lat="45.6014" lon="6.76546">
        <ele>785.2</ele>
        <time>2020-08-07T07:51:32Z</time>
      </trkpt>
      <trkpt lat="45.60146" lon="6.76556">
        <ele>785.5</ele>
        <time>2020-08-07T07:51:34Z</time>
      </trkpt>
      <trkpt lat="45.6015" lon="6.76561">
        <ele>785.6</ele>
        <time>2020-08-07T07:51:35Z</time>
      </trkpt>
      <trkpt lat="45.60157" lon="6.7657">
        <ele>785.8</ele>
        <time>2020-08-07T07:51:37Z</time>
      </trkpt>
      <trkpt lat="45.6016" lon="6.76575">
        <ele>785.9</ele>
        <time>2020-08-07T07:51:38Z</time>
      </trkpt>
      <trkpt lat="45.60165" lon="6.76586">
        <ele>786</ele>
        <time>2020-08-07T07:51:40Z</time>
      </trkpt>
      <trkpt lat="45.60167" lon="6.76596">
        <ele>786</ele>
        <time>2020-08-07T07:51:42Z</time>
      </trkpt>
      <trkpt lat="45.60168" lon="6.76602">
        <ele>785.9</ele>
        <time>2020-08-07T07:51:43Z</time>
      </trkpt>
      <trkpt lat="45.60175" lon="6.76615">
        <ele>785.6</ele>
        <time>2020-08-07T07:51:45Z</time>
      </trkpt>
      <trkpt lat="45.60179" lon="6.76622">
        <ele>785.4</ele>
        <time>2020-08-07T07:51:46Z</time>
      </trkpt>
      <trkpt lat="45.60183" lon="6.76628">
        <ele>785.2</ele>
        <time>2020-08-07T07:51:47Z</time>
      </trkpt>
      <trkpt lat="45.60188" lon="6.76633">
        <ele>785.1</ele>
        <time>2020-08-07T07:51:48Z</time>
      </trkpt>
      <trkpt lat="45.60199" lon="6.76642">
        <ele>784.8</ele>
        <time>2020-08-07T07:51:50Z</time>
      </trkpt>
      <trkpt lat="45.6021" lon="6.76649">
        <ele>784.7</ele>
        <time>2020-08-07T07:51:52Z</time>
      </trkpt>
      <trkpt lat="45.60216" lon="6.76652">
        <ele>784.7</ele>
        <time>2020-08-07T07:51:53Z</time>
      </trkpt>
      <trkpt lat="45.60227" lon="6.76659">
        <ele>784.8</ele>
        <time>2020-08-07T07:51:55Z</time>
      </trkpt>
      <trkpt lat="45.60233" lon="6.76662">
        <ele>784.8</ele>
        <time>2020-08-07T07:51:56Z</time>
      </trkpt>
      <trkpt lat="45.60245" lon="6.76667">
        <ele>785</ele>
        <time>2020-08-07T07:51:58Z</time>
      </trkpt>
      <trkpt lat="45.60251" lon="6.76671">
        <ele>785.5</ele>
        <time>2020-08-07T07:51:59Z</time>
      </trkpt>
      <trkpt lat="45.60262" lon="6.76681">
        <ele>786.4</ele>
        <time>2020-08-07T07:52:01Z</time>
      </trkpt>
      <trkpt lat="45.60279" lon="6.76695">
        <ele>787.3</ele>
        <time>2020-08-07T07:52:04Z</time>
      </trkpt>
      <trkpt lat="45.60285" lon="6.76698">
        <ele>787.5</ele>
        <time>2020-08-07T07:52:05Z</time>
      </trkpt>
      <trkpt lat="45.60294" lon="6.76703">
        <ele>788.2</ele>
        <time>2020-08-07T07:52:07Z</time>
      </trkpt>
      <trkpt lat="45.60303" lon="6.76706">
        <ele>789.1</ele>
        <time>2020-08-07T07:52:09Z</time>
      </trkpt>
      <trkpt lat="45.60307" lon="6.76708">
        <ele>789.5</ele>
        <time>2020-08-07T07:52:11Z</time>
      </trkpt>
      <trkpt lat="45.6031" lon="6.76709">
        <ele>789.7</ele>
        <time>2020-08-07T07:52:12Z</time>
      </trkpt>
      <trkpt lat="45.60313" lon="6.76711">
        <ele>790.1</ele>
        <time>2020-08-07T07:52:14Z</time>
      </trkpt>
      <trkpt lat="45.60316" lon="6.76713">
        <ele>790.4</ele>
        <time>2020-08-07T07:52:16Z</time>
      </trkpt>
      <trkpt lat="45.60318" lon="6.76718">
        <ele>790.8</ele>
        <time>2020-08-07T07:52:18Z</time>
      </trkpt>
      <trkpt lat="45.60319" lon="6.76725">
        <ele>791.2</ele>
        <time>2020-08-07T07:52:20Z</time>
      </trkpt>
      <trkpt lat="45.60322" lon="6.7674">
        <ele>792.3</ele>
        <time>2020-08-07T07:52:22Z</time>
      </trkpt>
      <trkpt lat="45.60325" lon="6.76743">
        <ele>792.6</ele>
        <time>2020-08-07T07:52:25Z</time>
      </trkpt>
      <trkpt lat="45.60328" lon="6.76741">
        <ele>792.3</ele>
        <time>2020-08-07T07:52:27Z</time>
      </trkpt>
      <trkpt lat="45.60328" lon="6.76737">
        <ele>792.2</ele>
        <time>2020-08-07T07:52:28Z</time>
      </trkpt>
      <trkpt lat="45.60328" lon="6.7673">
        <ele>791.8</ele>
        <time>2020-08-07T07:52:30Z</time>
      </trkpt>
      <trkpt lat="45.60315" lon="6.76706">
        <ele>790.2</ele>
        <time>2020-08-07T07:52:32Z</time>
      </trkpt>
      <trkpt lat="45.60304" lon="6.76693">
        <ele>789.2</ele>
        <time>2020-08-07T07:52:34Z</time>
      </trkpt>
      <trkpt lat="45.6029" lon="6.76683">
        <ele>788.1</ele>
        <time>2020-08-07T07:52:36Z</time>
      </trkpt>
      <trkpt lat="45.6029" lon="6.76687">
        <ele>788</ele>
        <time>2020-08-07T07:52:38Z</time>
      </trkpt>
      <trkpt lat="45.60288" lon="6.76689">
        <ele>787.8</ele>
        <time>2020-08-07T07:52:39Z</time>
      </trkpt>
      <trkpt lat="45.60285" lon="6.76689">
        <ele>787.7</ele>
        <time>2020-08-07T07:52:41Z</time>
      </trkpt>
      <trkpt lat="45.60283" lon="6.7668">
        <ele>787.4</ele>
        <time>2020-08-07T07:52:43Z</time>
      </trkpt>
      <trkpt lat="45.60283" lon="6.76673">
        <ele>789</ele>
        <time>2020-08-07T07:52:44Z</time>
      </trkpt>
      <trkpt lat="45.60287" lon="6.76657">
        <ele>789.3</ele>
        <time>2020-08-07T07:52:47Z</time>
      </trkpt>
      <trkpt lat="45.60289" lon="6.76649">
        <ele>789.4</ele>
        <time>2020-08-07T07:52:48Z</time>
      </trkpt>
      <trkpt lat="45.60295" lon="6.76636">
        <ele>789.5</ele>
        <time>2020-08-07T07:52:50Z</time>
      </trkpt>
      <trkpt lat="45.60298" lon="6.7663">
        <ele>789.5</ele>
        <time>2020-08-07T07:52:51Z</time>
      </trkpt>
      <trkpt lat="45.603" lon="6.76624">
        <ele>789.5</ele>
        <time>2020-08-07T07:52:52Z</time>
      </trkpt>
      <trkpt lat="45.60304" lon="6.76618">
        <ele>789.3</ele>
        <time>2020-08-07T07:52:53Z</time>
      </trkpt>
      <trkpt lat="45.60307" lon="6.76612">
        <ele>787.6</ele>
        <time>2020-08-07T07:52:55Z</time>
      </trkpt>
      <trkpt lat="45.60311" lon="6.766">
        <ele>787.6</ele>
        <time>2020-08-07T07:52:57Z</time>
      </trkpt>
      <trkpt lat="45.60315" lon="6.76594">
        <ele>787.6</ele>
        <time>2020-08-07T07:52:59Z</time>
      </trkpt>
      <trkpt lat="45.60318" lon="6.7659">
        <ele>787.7</ele>
        <time>2020-08-07T07:53:01Z</time>
      </trkpt>
      <trkpt lat="45.60323" lon="6.76585">
        <ele>787.8</ele>
        <time>2020-08-07T07:53:02Z</time>
      </trkpt>
      <trkpt lat="45.60327" lon="6.76581">
        <ele>787.8</ele>
        <time>2020-08-07T07:53:04Z</time>
      </trkpt>
      <trkpt lat="45.60339" lon="6.76575">
        <ele>787.9</ele>
        <time>2020-08-07T07:53:06Z</time>
      </trkpt>
      <trkpt lat="45.60342" lon="6.76574">
        <ele>787.9</ele>
        <time>2020-08-07T07:53:08Z</time>
      </trkpt>
      <trkpt lat="45.60347" lon="6.76571">
        <ele>787.9</ele>
        <time>2020-08-07T07:53:09Z</time>
      </trkpt>
      <trkpt lat="45.60351" lon="6.76569">
        <ele>787.8</ele>
        <time>2020-08-07T07:53:11Z</time>
      </trkpt>
      <trkpt lat="45.60353" lon="6.76568">
        <ele>787.8</ele>
        <time>2020-08-07T07:53:12Z</time>
      </trkpt>
      <trkpt lat="45.60359" lon="6.76565">
        <ele>788.1</ele>
        <time>2020-08-07T07:53:14Z</time>
      </trkpt>
      <trkpt lat="45.60362" lon="6.76564">
        <ele>788.3</ele>
        <time>2020-08-07T07:53:16Z</time>
      </trkpt>
      <trkpt lat="45.60365" lon="6.76563">
        <ele>788.5</ele>
        <time>2020-08-07T07:53:18Z</time>
      </trkpt>
      <trkpt lat="45.60368" lon="6.76561">
        <ele>788.8</ele>
        <time>2020-08-07T07:53:19Z</time>
      </trkpt>
      <trkpt lat="45.60371" lon="6.76559">
        <ele>789</ele>
        <time>2020-08-07T07:53:20Z</time>
      </trkpt>
      <trkpt lat="45.60373" lon="6.76557">
        <ele>789.2</ele>
        <time>2020-08-07T07:53:22Z</time>
      </trkpt>
      <trkpt lat="45.60376" lon="6.76555">
        <ele>789.4</ele>
        <time>2020-08-07T07:53:23Z</time>
      </trkpt>
      <trkpt lat="45.6038" lon="6.76551">
        <ele>789.7</ele>
        <time>2020-08-07T07:53:25Z</time>
      </trkpt>
      <trkpt lat="45.60385" lon="6.76546">
        <ele>790.1</ele>
        <time>2020-08-07T07:53:26Z</time>
      </trkpt>
      <trkpt lat="45.60388" lon="6.76543">
        <ele>790.3</ele>
        <time>2020-08-07T07:53:27Z</time>
      </trkpt>
      <trkpt lat="45.60391" lon="6.7654">
        <ele>790.6</ele>
        <time>2020-08-07T07:53:29Z</time>
      </trkpt>
      <trkpt lat="45.60393" lon="6.76537">
        <ele>790.8</ele>
        <time>2020-08-07T07:53:30Z</time>
      </trkpt>
      <trkpt lat="45.60399" lon="6.7653">
        <ele>791.3</ele>
        <time>2020-08-07T07:53:31Z</time>
      </trkpt>
      <trkpt lat="45.60402" lon="6.76526">
        <ele>791.6</ele>
        <time>2020-08-07T07:53:33Z</time>
      </trkpt>
      <trkpt lat="45.60408" lon="6.76518">
        <ele>792.1</ele>
        <time>2020-08-07T07:53:35Z</time>
      </trkpt>
      <trkpt lat="45.60412" lon="6.76514">
        <ele>792.4</ele>
        <time>2020-08-07T07:53:37Z</time>
      </trkpt>
      <trkpt lat="45.60415" lon="6.7651">
        <ele>792.6</ele>
        <time>2020-08-07T07:53:38Z</time>
      </trkpt>
      <trkpt lat="45.60417" lon="6.76507">
        <ele>792.8</ele>
        <time>2020-08-07T07:53:39Z</time>
      </trkpt>
      <trkpt lat="45.6042" lon="6.76504">
        <ele>793</ele>
        <time>2020-08-07T07:53:41Z</time>
      </trkpt>
      <trkpt lat="45.60425" lon="6.76498">
        <ele>793.5</ele>
        <time>2020-08-07T07:53:43Z</time>
      </trkpt>
      <trkpt lat="45.60429" lon="6.76493">
        <ele>793.8</ele>
        <time>2020-08-07T07:53:44Z</time>
      </trkpt>
      <trkpt lat="45.60437" lon="6.76484">
        <ele>794.4</ele>
        <time>2020-08-07T07:53:47Z</time>
      </trkpt>
      <trkpt lat="45.6044" lon="6.7648">
        <ele>794.6</ele>
        <time>2020-08-07T07:53:48Z</time>
      </trkpt>
      <trkpt lat="45.60444" lon="6.76475">
        <ele>794.8</ele>
        <time>2020-08-07T07:53:51Z</time>
      </trkpt>
      <trkpt lat="45.6045" lon="6.76469">
        <ele>795</ele>
        <time>2020-08-07T07:53:52Z</time>
      </trkpt>
      <trkpt lat="45.60453" lon="6.76465">
        <ele>795.1</ele>
        <time>2020-08-07T07:53:53Z</time>
      </trkpt>
      <trkpt lat="45.60456" lon="6.76461">
        <ele>795.2</ele>
        <time>2020-08-07T07:53:55Z</time>
      </trkpt>
      <trkpt lat="45.60459" lon="6.76457">
        <ele>795.3</ele>
        <time>2020-08-07T07:53:56Z</time>
      </trkpt>
      <trkpt lat="45.60462" lon="6.76454">
        <ele>795.4</ele>
        <time>2020-08-07T07:53:58Z</time>
      </trkpt>
      <trkpt lat="45.60467" lon="6.76448">
        <ele>795.6</ele>
        <time>2020-08-07T07:54:00Z</time>
      </trkpt>
      <trkpt lat="45.60472" lon="6.76442">
        <ele>795.8</ele>
        <time>2020-08-07T07:54:01Z</time>
      </trkpt>
      <trkpt lat="45.60475" lon="6.76438">
        <ele>796</ele>
        <time>2020-08-07T07:54:03Z</time>
      </trkpt>
      <trkpt lat="45.60481" lon="6.76432">
        <ele>796.3</ele>
        <time>2020-08-07T07:54:04Z</time>
      </trkpt>
      <trkpt lat="45.60484" lon="6.76428">
        <ele>796.5</ele>
        <time>2020-08-07T07:54:05Z</time>
      </trkpt>
      <trkpt lat="45.60489" lon="6.76422">
        <ele>796.8</ele>
        <time>2020-08-07T07:54:07Z</time>
      </trkpt>
      <trkpt lat="45.60492" lon="6.76419">
        <ele>796.9</ele>
        <time>2020-08-07T07:54:08Z</time>
      </trkpt>
      <trkpt lat="45.60495" lon="6.76416">
        <ele>797.1</ele>
        <time>2020-08-07T07:54:09Z</time>
      </trkpt>
      <trkpt lat="45.60501" lon="6.76408">
        <ele>797.6</ele>
        <time>2020-08-07T07:54:11Z</time>
      </trkpt>
      <trkpt lat="45.60504" lon="6.76404">
        <ele>797.8</ele>
        <time>2020-08-07T07:54:12Z</time>
      </trkpt>
      <trkpt lat="45.60507" lon="6.764">
        <ele>798.1</ele>
        <time>2020-08-07T07:54:14Z</time>
      </trkpt>
      <trkpt lat="45.60509" lon="6.76396">
        <ele>798.3</ele>
        <time>2020-08-07T07:54:15Z</time>
      </trkpt>
      <trkpt lat="45.60513" lon="6.76392">
        <ele>798.6</ele>
        <time>2020-08-07T07:54:16Z</time>
      </trkpt>
      <trkpt lat="45.60517" lon="6.76387">
        <ele>798.9</ele>
        <time>2020-08-07T07:54:18Z</time>
      </trkpt>
      <trkpt lat="45.6052" lon="6.76384">
        <ele>799.1</ele>
        <time>2020-08-07T07:54:20Z</time>
      </trkpt>
      <trkpt lat="45.60523" lon="6.76381">
        <ele>799.3</ele>
        <time>2020-08-07T07:54:21Z</time>
      </trkpt>
      <trkpt lat="45.60531" lon="6.76372">
        <ele>800</ele>
        <time>2020-08-07T07:54:23Z</time>
      </trkpt>
      <trkpt lat="45.60534" lon="6.76369">
        <ele>800.2</ele>
        <time>2020-08-07T07:54:24Z</time>
      </trkpt>
      <trkpt lat="45.60536" lon="6.76366">
        <ele>800.4</ele>
        <time>2020-08-07T07:54:26Z</time>
      </trkpt>
      <trkpt lat="45.60539" lon="6.76363">
        <ele>800.6</ele>
        <time>2020-08-07T07:54:27Z</time>
      </trkpt>
      <trkpt lat="45.60546" lon="6.76353">
        <ele>801.3</ele>
        <time>2020-08-07T07:54:29Z</time>
      </trkpt>
      <trkpt lat="45.60549" lon="6.76349">
        <ele>801.5</ele>
        <time>2020-08-07T07:54:31Z</time>
      </trkpt>
      <trkpt lat="45.60551" lon="6.76346">
        <ele>801.8</ele>
        <time>2020-08-07T07:54:33Z</time>
      </trkpt>
      <trkpt lat="45.60554" lon="6.76343">
        <ele>802</ele>
        <time>2020-08-07T07:54:34Z</time>
      </trkpt>
      <trkpt lat="45.6056" lon="6.76337">
        <ele>802.5</ele>
        <time>2020-08-07T07:54:35Z</time>
      </trkpt>
      <trkpt lat="45.60563" lon="6.76334">
        <ele>802.8</ele>
        <time>2020-08-07T07:54:36Z</time>
      </trkpt>
      <trkpt lat="45.60569" lon="6.76326">
        <ele>803.3</ele>
        <time>2020-08-07T07:54:39Z</time>
      </trkpt>
      <trkpt lat="45.60571" lon="6.76322">
        <ele>803.6</ele>
        <time>2020-08-07T07:54:40Z</time>
      </trkpt>
      <trkpt lat="45.60574" lon="6.76319">
        <ele>803.8</ele>
        <time>2020-08-07T07:54:42Z</time>
      </trkpt>
      <trkpt lat="45.60578" lon="6.76314">
        <ele>804.1</ele>
        <time>2020-08-07T07:54:44Z</time>
      </trkpt>
      <trkpt lat="45.6058" lon="6.76312">
        <ele>804.3</ele>
        <time>2020-08-07T07:54:45Z</time>
      </trkpt>
      <trkpt lat="45.60583" lon="6.76308">
        <ele>804.6</ele>
        <time>2020-08-07T07:54:46Z</time>
      </trkpt>
      <trkpt lat="45.60587" lon="6.76304">
        <ele>804.9</ele>
        <time>2020-08-07T07:54:48Z</time>
      </trkpt>
      <trkpt lat="45.6059" lon="6.763">
        <ele>805.2</ele>
        <time>2020-08-07T07:54:49Z</time>
      </trkpt>
      <trkpt lat="45.60593" lon="6.76295">
        <ele>805.5</ele>
        <time>2020-08-07T07:54:50Z</time>
      </trkpt>
      <trkpt lat="45.60597" lon="6.76291">
        <ele>805.8</ele>
        <time>2020-08-07T07:54:51Z</time>
      </trkpt>
      <trkpt lat="45.60599" lon="6.76287">
        <ele>806.2</ele>
        <time>2020-08-07T07:54:52Z</time>
      </trkpt>
      <trkpt lat="45.60603" lon="6.76283">
        <ele>806.5</ele>
        <time>2020-08-07T07:54:54Z</time>
      </trkpt>
      <trkpt lat="45.60606" lon="6.7628">
        <ele>806.9</ele>
        <time>2020-08-07T07:54:56Z</time>
      </trkpt>
      <trkpt lat="45.6061" lon="6.76275">
        <ele>807.3</ele>
        <time>2020-08-07T07:54:57Z</time>
      </trkpt>
      <trkpt lat="45.60615" lon="6.76267">
        <ele>808</ele>
        <time>2020-08-07T07:55:00Z</time>
      </trkpt>
      <trkpt lat="45.60619" lon="6.76262">
        <ele>808.5</ele>
        <time>2020-08-07T07:55:02Z</time>
      </trkpt>
      <trkpt lat="45.60624" lon="6.76256">
        <ele>809</ele>
        <time>2020-08-07T07:55:04Z</time>
      </trkpt>
      <trkpt lat="45.60628" lon="6.76251">
        <ele>809.5</ele>
        <time>2020-08-07T07:55:05Z</time>
      </trkpt>
      <trkpt lat="45.6063" lon="6.76248">
        <ele>809.8</ele>
        <time>2020-08-07T07:55:06Z</time>
      </trkpt>
      <trkpt lat="45.60636" lon="6.76241">
        <ele>810.4</ele>
        <time>2020-08-07T07:55:08Z</time>
      </trkpt>
      <trkpt lat="45.60639" lon="6.76238">
        <ele>810.7</ele>
        <time>2020-08-07T07:55:09Z</time>
      </trkpt>
      <trkpt lat="45.60642" lon="6.76235">
        <ele>811.1</ele>
        <time>2020-08-07T07:55:10Z</time>
      </trkpt>
      <trkpt lat="45.60644" lon="6.76232">
        <ele>811.4</ele>
        <time>2020-08-07T07:55:11Z</time>
      </trkpt>
      <trkpt lat="45.60652" lon="6.76224">
        <ele>812.2</ele>
        <time>2020-08-07T07:55:14Z</time>
      </trkpt>
      <trkpt lat="45.60654" lon="6.76221">
        <ele>812.5</ele>
        <time>2020-08-07T07:55:15Z</time>
      </trkpt>
      <trkpt lat="45.60657" lon="6.76217">
        <ele>813</ele>
        <time>2020-08-07T07:55:17Z</time>
      </trkpt>
      <trkpt lat="45.60662" lon="6.7621">
        <ele>813.6</ele>
        <time>2020-08-07T07:55:19Z</time>
      </trkpt>
      <trkpt lat="45.60664" lon="6.76206">
        <ele>814.1</ele>
        <time>2020-08-07T07:55:20Z</time>
      </trkpt>
      <trkpt lat="45.60668" lon="6.76201">
        <ele>814.7</ele>
        <time>2020-08-07T07:55:22Z</time>
      </trkpt>
      <trkpt lat="45.60671" lon="6.76197">
        <ele>815.2</ele>
        <time>2020-08-07T07:55:24Z</time>
      </trkpt>
      <trkpt lat="45.60675" lon="6.76192">
        <ele>815.9</ele>
        <time>2020-08-07T07:55:25Z</time>
      </trkpt>
      <trkpt lat="45.60678" lon="6.76189">
        <ele>816.3</ele>
        <time>2020-08-07T07:55:26Z</time>
      </trkpt>
      <trkpt lat="45.60681" lon="6.76185">
        <ele>816.9</ele>
        <time>2020-08-07T07:55:28Z</time>
      </trkpt>
      <trkpt lat="45.60686" lon="6.76181">
        <ele>817.7</ele>
        <time>2020-08-07T07:55:29Z</time>
      </trkpt>
      <trkpt lat="45.6069" lon="6.76176">
        <ele>818.5</ele>
        <time>2020-08-07T07:55:31Z</time>
      </trkpt>
      <trkpt lat="45.60693" lon="6.76174">
        <ele>818.9</ele>
        <time>2020-08-07T07:55:32Z</time>
      </trkpt>
      <trkpt lat="45.60697" lon="6.76171">
        <ele>819.6</ele>
        <time>2020-08-07T07:55:33Z</time>
      </trkpt>
      <trkpt lat="45.60703" lon="6.76169">
        <ele>820.4</ele>
        <time>2020-08-07T07:55:36Z</time>
      </trkpt>
      <trkpt lat="45.60709" lon="6.76169">
        <ele>821.3</ele>
        <time>2020-08-07T07:55:37Z</time>
      </trkpt>
      <trkpt lat="45.60716" lon="6.76172">
        <ele>822.2</ele>
        <time>2020-08-07T07:55:40Z</time>
      </trkpt>
      <trkpt lat="45.60719" lon="6.76174">
        <ele>822.6</ele>
        <time>2020-08-07T07:55:41Z</time>
      </trkpt>
      <trkpt lat="45.60722" lon="6.76177">
        <ele>822.9</ele>
        <time>2020-08-07T07:55:42Z</time>
      </trkpt>
      <trkpt lat="45.60724" lon="6.76179">
        <ele>823.3</ele>
        <time>2020-08-07T07:55:44Z</time>
      </trkpt>
      <trkpt lat="45.60728" lon="6.76183">
        <ele>823.9</ele>
        <time>2020-08-07T07:55:45Z</time>
      </trkpt>
      <trkpt lat="45.60735" lon="6.76188">
        <ele>824.8</ele>
        <time>2020-08-07T07:55:48Z</time>
      </trkpt>
      <trkpt lat="45.60737" lon="6.7619">
        <ele>825.2</ele>
        <time>2020-08-07T07:55:49Z</time>
      </trkpt>
      <trkpt lat="45.6074" lon="6.76194">
        <ele>825.7</ele>
        <time>2020-08-07T07:55:51Z</time>
      </trkpt>
      <trkpt lat="45.60743" lon="6.76196">
        <ele>826.2</ele>
        <time>2020-08-07T07:55:53Z</time>
      </trkpt>
      <trkpt lat="45.60748" lon="6.762">
        <ele>827</ele>
        <time>2020-08-07T07:55:54Z</time>
      </trkpt>
      <trkpt lat="45.60751" lon="6.76203">
        <ele>827.6</ele>
        <time>2020-08-07T07:55:56Z</time>
      </trkpt>
      <trkpt lat="45.60757" lon="6.76208">
        <ele>828.6</ele>
        <time>2020-08-07T07:55:58Z</time>
      </trkpt>
      <trkpt lat="45.60759" lon="6.7621">
        <ele>827.6</ele>
        <time>2020-08-07T07:55:59Z</time>
      </trkpt>
      <trkpt lat="45.60765" lon="6.76213">
        <ele>825.5</ele>
        <time>2020-08-07T07:56:01Z</time>
      </trkpt>
      <trkpt lat="45.60775" lon="6.76221">
        <ele>826.3</ele>
        <time>2020-08-07T07:56:03Z</time>
      </trkpt>
      <trkpt lat="45.60779" lon="6.76224">
        <ele>826.6</ele>
        <time>2020-08-07T07:56:06Z</time>
      </trkpt>
      <trkpt lat="45.60781" lon="6.76227">
        <ele>826.8</ele>
        <time>2020-08-07T07:56:07Z</time>
      </trkpt>
      <trkpt lat="45.60788" lon="6.76232">
        <ele>827.3</ele>
        <time>2020-08-07T07:56:08Z</time>
      </trkpt>
      <trkpt lat="45.60792" lon="6.76235">
        <ele>827.7</ele>
        <time>2020-08-07T07:56:11Z</time>
      </trkpt>
      <trkpt lat="45.60794" lon="6.76237">
        <ele>827.9</ele>
        <time>2020-08-07T07:56:12Z</time>
      </trkpt>
      <trkpt lat="45.60799" lon="6.76242">
        <ele>828.4</ele>
        <time>2020-08-07T07:56:14Z</time>
      </trkpt>
      <trkpt lat="45.60801" lon="6.76244">
        <ele>828.6</ele>
        <time>2020-08-07T07:56:15Z</time>
      </trkpt>
      <trkpt lat="45.60806" lon="6.76249">
        <ele>829.1</ele>
        <time>2020-08-07T07:56:17Z</time>
      </trkpt>
      <trkpt lat="45.6081" lon="6.76253">
        <ele>829.6</ele>
        <time>2020-08-07T07:56:19Z</time>
      </trkpt>
      <trkpt lat="45.60817" lon="6.76257">
        <ele>830.2</ele>
        <time>2020-08-07T07:56:20Z</time>
      </trkpt>
      <trkpt lat="45.6082" lon="6.7626">
        <ele>830.6</ele>
        <time>2020-08-07T07:56:22Z</time>
      </trkpt>
      <trkpt lat="45.60826" lon="6.76264">
        <ele>831.2</ele>
        <time>2020-08-07T07:56:24Z</time>
      </trkpt>
      <trkpt lat="45.60828" lon="6.76266">
        <ele>831.5</ele>
        <time>2020-08-07T07:56:26Z</time>
      </trkpt>
      <trkpt lat="45.60833" lon="6.7627">
        <ele>832</ele>
        <time>2020-08-07T07:56:28Z</time>
      </trkpt>
      <trkpt lat="45.60835" lon="6.76272">
        <ele>832.2</ele>
        <time>2020-08-07T07:56:29Z</time>
      </trkpt>
      <trkpt lat="45.60839" lon="6.76276">
        <ele>832.6</ele>
        <time>2020-08-07T07:56:31Z</time>
      </trkpt>
      <trkpt lat="45.60843" lon="6.7628">
        <ele>833.1</ele>
        <time>2020-08-07T07:56:33Z</time>
      </trkpt>
      <trkpt lat="45.60847" lon="6.76284">
        <ele>833.5</ele>
        <time>2020-08-07T07:56:35Z</time>
      </trkpt>
      <trkpt lat="45.60849" lon="6.76286">
        <ele>833.7</ele>
        <time>2020-08-07T07:56:36Z</time>
      </trkpt>
      <trkpt lat="45.60853" lon="6.76289">
        <ele>833.9</ele>
        <time>2020-08-07T07:56:38Z</time>
      </trkpt>
      <trkpt lat="45.60856" lon="6.7629">
        <ele>833.9</ele>
        <time>2020-08-07T07:56:39Z</time>
      </trkpt>
      <trkpt lat="45.60861" lon="6.76294">
        <ele>834.1</ele>
        <time>2020-08-07T07:56:41Z</time>
      </trkpt>
      <trkpt lat="45.60864" lon="6.76296">
        <ele>834.2</ele>
        <time>2020-08-07T07:56:42Z</time>
      </trkpt>
      <trkpt lat="45.60868" lon="6.76299">
        <ele>834.3</ele>
        <time>2020-08-07T07:56:44Z</time>
      </trkpt>
      <trkpt lat="45.60877" lon="6.76306">
        <ele>834.8</ele>
        <time>2020-08-07T07:56:46Z</time>
      </trkpt>
      <trkpt lat="45.60881" lon="6.7631">
        <ele>835.1</ele>
        <time>2020-08-07T07:56:49Z</time>
      </trkpt>
      <trkpt lat="45.60886" lon="6.76315">
        <ele>835.6</ele>
        <time>2020-08-07T07:56:51Z</time>
      </trkpt>
      <trkpt lat="45.60889" lon="6.76318">
        <ele>835.8</ele>
        <time>2020-08-07T07:56:52Z</time>
      </trkpt>
      <trkpt lat="45.60892" lon="6.76321">
        <ele>836</ele>
        <time>2020-08-07T07:56:53Z</time>
      </trkpt>
      <trkpt lat="45.60898" lon="6.76326">
        <ele>836.5</ele>
        <time>2020-08-07T07:56:55Z</time>
      </trkpt>
      <trkpt lat="45.60904" lon="6.76331">
        <ele>837</ele>
        <time>2020-08-07T07:56:57Z</time>
      </trkpt>
      <trkpt lat="45.6091" lon="6.76336">
        <ele>837.5</ele>
        <time>2020-08-07T07:56:59Z</time>
      </trkpt>
      <trkpt lat="45.60916" lon="6.7634">
        <ele>837.8</ele>
        <time>2020-08-07T07:57:01Z</time>
      </trkpt>
      <trkpt lat="45.60922" lon="6.76345">
        <ele>838.2</ele>
        <time>2020-08-07T07:57:03Z</time>
      </trkpt>
      <trkpt lat="45.60925" lon="6.76348">
        <ele>838.3</ele>
        <time>2020-08-07T07:57:04Z</time>
      </trkpt>
      <trkpt lat="45.6093" lon="6.76353">
        <ele>838.6</ele>
        <time>2020-08-07T07:57:05Z</time>
      </trkpt>
      <trkpt lat="45.60933" lon="6.76355">
        <ele>838.8</ele>
        <time>2020-08-07T07:57:06Z</time>
      </trkpt>
      <trkpt lat="45.60937" lon="6.76358">
        <ele>839.1</ele>
        <time>2020-08-07T07:57:08Z</time>
      </trkpt>
      <trkpt lat="45.60939" lon="6.7636">
        <ele>839.2</ele>
        <time>2020-08-07T07:57:09Z</time>
      </trkpt>
      <trkpt lat="45.60944" lon="6.76364">
        <ele>839.6</ele>
        <time>2020-08-07T07:57:11Z</time>
      </trkpt>
      <trkpt lat="45.60947" lon="6.76366">
        <ele>839.8</ele>
        <time>2020-08-07T07:57:12Z</time>
      </trkpt>
      <trkpt lat="45.60951" lon="6.76369">
        <ele>840.1</ele>
        <time>2020-08-07T07:57:13Z</time>
      </trkpt>
      <trkpt lat="45.60956" lon="6.76373">
        <ele>840.5</ele>
        <time>2020-08-07T07:57:14Z</time>
      </trkpt>
      <trkpt lat="45.60959" lon="6.76376">
        <ele>840.8</ele>
        <time>2020-08-07T07:57:16Z</time>
      </trkpt>
      <trkpt lat="45.60963" lon="6.76379">
        <ele>841.1</ele>
        <time>2020-08-07T07:57:17Z</time>
      </trkpt>
      <trkpt lat="45.60966" lon="6.76383">
        <ele>841.5</ele>
        <time>2020-08-07T07:57:19Z</time>
      </trkpt>
      <trkpt lat="45.60972" lon="6.76388">
        <ele>841.9</ele>
        <time>2020-08-07T07:57:20Z</time>
      </trkpt>
      <trkpt lat="45.60975" lon="6.76391">
        <ele>842.2</ele>
        <time>2020-08-07T07:57:22Z</time>
      </trkpt>
      <trkpt lat="45.60982" lon="6.76397">
        <ele>842.8</ele>
        <time>2020-08-07T07:57:23Z</time>
      </trkpt>
      <trkpt lat="45.60986" lon="6.764">
        <ele>843</ele>
        <time>2020-08-07T07:57:25Z</time>
      </trkpt>
      <trkpt lat="45.60989" lon="6.76403">
        <ele>843.3</ele>
        <time>2020-08-07T07:57:26Z</time>
      </trkpt>
      <trkpt lat="45.60991" lon="6.76405">
        <ele>843.5</ele>
        <time>2020-08-07T07:57:27Z</time>
      </trkpt>
      <trkpt lat="45.60995" lon="6.76408">
        <ele>843.8</ele>
        <time>2020-08-07T07:57:29Z</time>
      </trkpt>
      <trkpt lat="45.61002" lon="6.76412">
        <ele>844.3</ele>
        <time>2020-08-07T07:57:31Z</time>
      </trkpt>
      <trkpt lat="45.61007" lon="6.76417">
        <ele>844.7</ele>
        <time>2020-08-07T07:57:32Z</time>
      </trkpt>
      <trkpt lat="45.61011" lon="6.7642">
        <ele>845</ele>
        <time>2020-08-07T07:57:34Z</time>
      </trkpt>
      <trkpt lat="45.61015" lon="6.76424">
        <ele>845.4</ele>
        <time>2020-08-07T07:57:35Z</time>
      </trkpt>
      <trkpt lat="45.61021" lon="6.76429">
        <ele>845.9</ele>
        <time>2020-08-07T07:57:37Z</time>
      </trkpt>
      <trkpt lat="45.61024" lon="6.76432">
        <ele>846.2</ele>
        <time>2020-08-07T07:57:38Z</time>
      </trkpt>
      <trkpt lat="45.6103" lon="6.76438">
        <ele>846.7</ele>
        <time>2020-08-07T07:57:40Z</time>
      </trkpt>
      <trkpt lat="45.61035" lon="6.76444">
        <ele>847.2</ele>
        <time>2020-08-07T07:57:42Z</time>
      </trkpt>
      <trkpt lat="45.61038" lon="6.76449">
        <ele>847.6</ele>
        <time>2020-08-07T07:57:43Z</time>
      </trkpt>
      <trkpt lat="45.61042" lon="6.76454">
        <ele>848</ele>
        <time>2020-08-07T07:57:44Z</time>
      </trkpt>
      <trkpt lat="45.61045" lon="6.76458">
        <ele>848.4</ele>
        <time>2020-08-07T07:57:45Z</time>
      </trkpt>
      <trkpt lat="45.61049" lon="6.76461">
        <ele>848.8</ele>
        <time>2020-08-07T07:57:46Z</time>
      </trkpt>
      <trkpt lat="45.61052" lon="6.76462">
        <ele>848.9</ele>
        <time>2020-08-07T07:57:48Z</time>
      </trkpt>
      <trkpt lat="45.61059" lon="6.7646">
        <ele>849</ele>
        <time>2020-08-07T07:57:49Z</time>
      </trkpt>
      <trkpt lat="45.61066" lon="6.76448">
        <ele>849.2</ele>
        <time>2020-08-07T07:57:51Z</time>
      </trkpt>
      <trkpt lat="45.61069" lon="6.7644">
        <ele>849.3</ele>
        <time>2020-08-07T07:57:53Z</time>
      </trkpt>
      <trkpt lat="45.61067" lon="6.76429">
        <ele>849.5</ele>
        <time>2020-08-07T07:57:56Z</time>
      </trkpt>
      <trkpt lat="45.61062" lon="6.76419">
        <ele>849.8</ele>
        <time>2020-08-07T07:57:57Z</time>
      </trkpt>
      <trkpt lat="45.61057" lon="6.76412">
        <ele>850.1</ele>
        <time>2020-08-07T07:57:59Z</time>
      </trkpt>
      <trkpt lat="45.61053" lon="6.76407">
        <ele>850.3</ele>
        <time>2020-08-07T07:58:00Z</time>
      </trkpt>
      <trkpt lat="45.61047" lon="6.76398">
        <ele>850.7</ele>
        <time>2020-08-07T07:58:01Z</time>
      </trkpt>
      <trkpt lat="45.61047" lon="6.76392">
        <ele>850.8</ele>
        <time>2020-08-07T07:58:03Z</time>
      </trkpt>
      <trkpt lat="45.61052" lon="6.76393">
        <ele>851.1</ele>
        <time>2020-08-07T07:58:05Z</time>
      </trkpt>
      <trkpt lat="45.61054" lon="6.76394">
        <ele>851.2</ele>
        <time>2020-08-07T07:58:06Z</time>
      </trkpt>
      <trkpt lat="45.61056" lon="6.76398">
        <ele>851.2</ele>
        <time>2020-08-07T07:58:07Z</time>
      </trkpt>
      <trkpt lat="45.61059" lon="6.76402">
        <ele>851.2</ele>
        <time>2020-08-07T07:58:08Z</time>
      </trkpt>
      <trkpt lat="45.61064" lon="6.76415">
        <ele>851.4</ele>
        <time>2020-08-07T07:58:10Z</time>
      </trkpt>
      <trkpt lat="45.61068" lon="6.76422">
        <ele>851.4</ele>
        <time>2020-08-07T07:58:12Z</time>
      </trkpt>
      <trkpt lat="45.6107" lon="6.76427">
        <ele>851.5</ele>
        <time>2020-08-07T07:58:13Z</time>
      </trkpt>
      <trkpt lat="45.61072" lon="6.76431">
        <ele>851.5</ele>
        <time>2020-08-07T07:58:14Z</time>
      </trkpt>
      <trkpt lat="45.61076" lon="6.76436">
        <ele>851.5</ele>
        <time>2020-08-07T07:58:15Z</time>
      </trkpt>
      <trkpt lat="45.61079" lon="6.7644">
        <ele>851.6</ele>
        <time>2020-08-07T07:58:17Z</time>
      </trkpt>
      <trkpt lat="45.61084" lon="6.76447">
        <ele>851.6</ele>
        <time>2020-08-07T07:58:18Z</time>
      </trkpt>
      <trkpt lat="45.61088" lon="6.76452">
        <ele>851.7</ele>
        <time>2020-08-07T07:58:20Z</time>
      </trkpt>
      <trkpt lat="45.61093" lon="6.76458">
        <ele>851.7</ele>
        <time>2020-08-07T07:58:21Z</time>
      </trkpt>
      <trkpt lat="45.61096" lon="6.76464">
        <ele>851.8</ele>
        <time>2020-08-07T07:58:22Z</time>
      </trkpt>
      <trkpt lat="45.61104" lon="6.76474">
        <ele>851.9</ele>
        <time>2020-08-07T07:58:24Z</time>
      </trkpt>
      <trkpt lat="45.61111" lon="6.76485">
        <ele>852</ele>
        <time>2020-08-07T07:58:26Z</time>
      </trkpt>
      <trkpt lat="45.61115" lon="6.7649">
        <ele>852</ele>
        <time>2020-08-07T07:58:27Z</time>
      </trkpt>
      <trkpt lat="45.61124" lon="6.765">
        <ele>852.2</ele>
        <time>2020-08-07T07:58:29Z</time>
      </trkpt>
      <trkpt lat="45.61133" lon="6.7651">
        <ele>852.5</ele>
        <time>2020-08-07T07:58:31Z</time>
      </trkpt>
      <trkpt lat="45.61142" lon="6.76519">
        <ele>852.7</ele>
        <time>2020-08-07T07:58:33Z</time>
      </trkpt>
      <trkpt lat="45.61152" lon="6.76526">
        <ele>852.9</ele>
        <time>2020-08-07T07:58:35Z</time>
      </trkpt>
      <trkpt lat="45.61156" lon="6.7653">
        <ele>853</ele>
        <time>2020-08-07T07:58:36Z</time>
      </trkpt>
      <trkpt lat="45.61161" lon="6.76533">
        <ele>853</ele>
        <time>2020-08-07T07:58:37Z</time>
      </trkpt>
      <trkpt lat="45.6117" lon="6.76541">
        <ele>853.2</ele>
        <time>2020-08-07T07:58:39Z</time>
      </trkpt>
      <trkpt lat="45.61175" lon="6.76546">
        <ele>853.2</ele>
        <time>2020-08-07T07:58:40Z</time>
      </trkpt>
      <trkpt lat="45.61181" lon="6.76551">
        <ele>853.3</ele>
        <time>2020-08-07T07:58:41Z</time>
      </trkpt>
      <trkpt lat="45.61188" lon="6.76553">
        <ele>853.3</ele>
        <time>2020-08-07T07:58:42Z</time>
      </trkpt>
      <trkpt lat="45.61201" lon="6.76552">
        <ele>853.4</ele>
        <time>2020-08-07T07:58:44Z</time>
      </trkpt>
      <trkpt lat="45.61214" lon="6.76553">
        <ele>853.4</ele>
        <time>2020-08-07T07:58:46Z</time>
      </trkpt>
      <trkpt lat="45.61226" lon="6.76556">
        <ele>853.5</ele>
        <time>2020-08-07T07:58:48Z</time>
      </trkpt>
      <trkpt lat="45.61232" lon="6.76557">
        <ele>853.5</ele>
        <time>2020-08-07T07:58:49Z</time>
      </trkpt>
      <trkpt lat="45.61238" lon="6.76559">
        <ele>853.5</ele>
        <time>2020-08-07T07:58:50Z</time>
      </trkpt>
      <trkpt lat="45.61251" lon="6.76564">
        <ele>853.4</ele>
        <time>2020-08-07T07:58:52Z</time>
      </trkpt>
      <trkpt lat="45.61257" lon="6.76567">
        <ele>853.3</ele>
        <time>2020-08-07T07:58:53Z</time>
      </trkpt>
      <trkpt lat="45.6127" lon="6.76572">
        <ele>853.2</ele>
        <time>2020-08-07T07:58:55Z</time>
      </trkpt>
      <trkpt lat="45.61282" lon="6.76577">
        <ele>853</ele>
        <time>2020-08-07T07:58:57Z</time>
      </trkpt>
      <trkpt lat="45.61289" lon="6.76579">
        <ele>852.8</ele>
        <time>2020-08-07T07:58:58Z</time>
      </trkpt>
      <trkpt lat="45.61301" lon="6.76584">
        <ele>852.6</ele>
        <time>2020-08-07T07:59:00Z</time>
      </trkpt>
      <trkpt lat="45.61308" lon="6.76586">
        <ele>852.4</ele>
        <time>2020-08-07T07:59:01Z</time>
      </trkpt>
      <trkpt lat="45.61321" lon="6.76593">
        <ele>852</ele>
        <time>2020-08-07T07:59:03Z</time>
      </trkpt>
      <trkpt lat="45.61328" lon="6.76596">
        <ele>851.8</ele>
        <time>2020-08-07T07:59:04Z</time>
      </trkpt>
      <trkpt lat="45.61342" lon="6.76603">
        <ele>851.2</ele>
        <time>2020-08-07T07:59:06Z</time>
      </trkpt>
      <trkpt lat="45.61356" lon="6.76611">
        <ele>850.6</ele>
        <time>2020-08-07T07:59:08Z</time>
      </trkpt>
      <trkpt lat="45.61368" lon="6.76617">
        <ele>850</ele>
        <time>2020-08-07T07:59:10Z</time>
      </trkpt>
      <trkpt lat="45.61374" lon="6.76621">
        <ele>849.6</ele>
        <time>2020-08-07T07:59:11Z</time>
      </trkpt>
      <trkpt lat="45.61385" lon="6.76635">
        <ele>848.7</ele>
        <time>2020-08-07T07:59:13Z</time>
      </trkpt>
      <trkpt lat="45.61398" lon="6.76647">
        <ele>848</ele>
        <time>2020-08-07T07:59:15Z</time>
      </trkpt>
      <trkpt lat="45.61404" lon="6.76654">
        <ele>847.4</ele>
        <time>2020-08-07T07:59:16Z</time>
      </trkpt>
      <trkpt lat="45.61416" lon="6.76671">
        <ele>845.5</ele>
        <time>2020-08-07T07:59:18Z</time>
      </trkpt>
      <trkpt lat="45.61421" lon="6.76681">
        <ele>844.6</ele>
        <time>2020-08-07T07:59:19Z</time>
      </trkpt>
      <trkpt lat="45.61433" lon="6.76703">
        <ele>843.4</ele>
        <time>2020-08-07T07:59:21Z</time>
      </trkpt>
      <trkpt lat="45.61445" lon="6.76725">
        <ele>841.9</ele>
        <time>2020-08-07T07:59:23Z</time>
      </trkpt>
      <trkpt lat="45.61457" lon="6.7675">
        <ele>840.2</ele>
        <time>2020-08-07T07:59:25Z</time>
      </trkpt>
      <trkpt lat="45.6147" lon="6.76775">
        <ele>838.7</ele>
        <time>2020-08-07T07:59:27Z</time>
      </trkpt>
      <trkpt lat="45.61477" lon="6.76788">
        <ele>837.9</ele>
        <time>2020-08-07T07:59:28Z</time>
      </trkpt>
      <trkpt lat="45.6149" lon="6.76814">
        <ele>836.3</ele>
        <time>2020-08-07T07:59:30Z</time>
      </trkpt>
      <trkpt lat="45.61498" lon="6.76828">
        <ele>835.4</ele>
        <time>2020-08-07T07:59:31Z</time>
      </trkpt>
      <trkpt lat="45.61512" lon="6.76855">
        <ele>833.8</ele>
        <time>2020-08-07T07:59:33Z</time>
      </trkpt>
      <trkpt lat="45.61519" lon="6.76868">
        <ele>833</ele>
        <time>2020-08-07T07:59:34Z</time>
      </trkpt>
      <trkpt lat="45.61532" lon="6.76888">
        <ele>831.8</ele>
        <time>2020-08-07T07:59:36Z</time>
      </trkpt>
      <trkpt lat="45.61536" lon="6.76896">
        <ele>831.3</ele>
        <time>2020-08-07T07:59:37Z</time>
      </trkpt>
      <trkpt lat="45.6154" lon="6.76902">
        <ele>830.9</ele>
        <time>2020-08-07T07:59:38Z</time>
      </trkpt>
      <trkpt lat="45.61545" lon="6.76916">
        <ele>829.9</ele>
        <time>2020-08-07T07:59:40Z</time>
      </trkpt>
      <trkpt lat="45.61554" lon="6.7693">
        <ele>829.2</ele>
        <time>2020-08-07T07:59:42Z</time>
      </trkpt>
      <trkpt lat="45.6156" lon="6.76938">
        <ele>828.8</ele>
        <time>2020-08-07T07:59:44Z</time>
      </trkpt>
      <trkpt lat="45.61562" lon="6.76941">
        <ele>828.7</ele>
        <time>2020-08-07T07:59:45Z</time>
      </trkpt>
      <trkpt lat="45.61566" lon="6.76946">
        <ele>828.4</ele>
        <time>2020-08-07T07:59:47Z</time>
      </trkpt>
      <trkpt lat="45.61568" lon="6.76949">
        <ele>828.3</ele>
        <time>2020-08-07T07:59:48Z</time>
      </trkpt>
      <trkpt lat="45.61572" lon="6.76953">
        <ele>828.1</ele>
        <time>2020-08-07T07:59:50Z</time>
      </trkpt>
      <trkpt lat="45.61574" lon="6.76953">
        <ele>828</ele>
        <time>2020-08-07T07:59:52Z</time>
      </trkpt>
      <trkpt lat="45.61574" lon="6.76952">
        <ele>827.9</ele>
        <time>2020-08-07T07:59:53Z</time>
      </trkpt>
      <trkpt lat="45.61574" lon="6.76952">
        <ele>827.9</ele>
        <time>2020-08-07T07:59:54Z</time>
      </trkpt>
      <trkpt lat="45.61573" lon="6.76952">
        <ele>827.9</ele>
        <time>2020-08-07T07:59:55Z</time>
      </trkpt>
      <trkpt lat="45.61573" lon="6.76952">
        <ele>827.9</ele>
        <time>2020-08-07T07:59:56Z</time>
      </trkpt>
      <trkpt lat="45.61573" lon="6.76951">
        <ele>827.9</ele>
        <time>2020-08-07T07:59:58Z</time>
      </trkpt>
      <trkpt lat="45.61573" lon="6.76951">
        <ele>827.9</ele>
        <time>2020-08-07T08:00:00Z</time>
      </trkpt>
      <trkpt lat="45.61575" lon="6.76953">
        <ele>827.8</ele>
        <time>2020-08-07T08:00:06Z</time>
      </trkpt>
      <trkpt lat="45.6158" lon="6.76959">
        <ele>827.5</ele>
        <time>2020-08-07T08:00:08Z</time>
      </trkpt>
      <trkpt lat="45.61587" lon="6.76968">
        <ele>827</ele>
        <time>2020-08-07T08:00:10Z</time>
      </trkpt>
      <trkpt lat="45.61593" lon="6.76976">
        <ele>826.6</ele>
        <time>2020-08-07T08:00:12Z</time>
      </trkpt>
      <trkpt lat="45.61597" lon="6.7698">
        <ele>826.4</ele>
        <time>2020-08-07T08:00:13Z</time>
      </trkpt>
      <trkpt lat="45.61602" lon="6.76985">
        <ele>826.1</ele>
        <time>2020-08-07T08:00:14Z</time>
      </trkpt>
      <trkpt lat="45.61612" lon="6.76994">
        <ele>825.5</ele>
        <time>2020-08-07T08:00:16Z</time>
      </trkpt>
      <trkpt lat="45.61622" lon="6.77003">
        <ele>825</ele>
        <time>2020-08-07T08:00:18Z</time>
      </trkpt>
      <trkpt lat="45.61628" lon="6.77006">
        <ele>824.8</ele>
        <time>2020-08-07T08:00:19Z</time>
      </trkpt>
      <trkpt lat="45.61636" lon="6.77011">
        <ele>824.5</ele>
        <time>2020-08-07T08:00:21Z</time>
      </trkpt>
      <trkpt lat="45.61638" lon="6.77012">
        <ele>824.4</ele>
        <time>2020-08-07T08:00:22Z</time>
      </trkpt>
      <trkpt lat="45.61645" lon="6.77017">
        <ele>824.1</ele>
        <time>2020-08-07T08:00:24Z</time>
      </trkpt>
      <trkpt lat="45.61649" lon="6.77025">
        <ele>823.7</ele>
        <time>2020-08-07T08:00:27Z</time>
      </trkpt>
      <trkpt lat="45.61654" lon="6.77031">
        <ele>823.5</ele>
        <time>2020-08-07T08:00:28Z</time>
      </trkpt>
      <trkpt lat="45.61659" lon="6.77033">
        <ele>823.2</ele>
        <time>2020-08-07T08:00:31Z</time>
      </trkpt>
      <trkpt lat="45.61662" lon="6.77034">
        <ele>823.1</ele>
        <time>2020-08-07T08:00:32Z</time>
      </trkpt>
      <trkpt lat="45.61664" lon="6.77035">
        <ele>823</ele>
        <time>2020-08-07T08:00:34Z</time>
      </trkpt>
      <trkpt lat="45.61665" lon="6.77036">
        <ele>822.9</ele>
        <time>2020-08-07T08:00:36Z</time>
      </trkpt>
      <trkpt lat="45.61665" lon="6.77036">
        <ele>822.9</ele>
        <time>2020-08-07T08:00:37Z</time>
      </trkpt>
      <trkpt lat="45.61664" lon="6.77035">
        <ele>822.9</ele>
        <time>2020-08-07T08:00:39Z</time>
      </trkpt>
      <trkpt lat="45.61664" lon="6.77035">
        <ele>822.9</ele>
        <time>2020-08-07T08:00:41Z</time>
      </trkpt>
      <trkpt lat="45.61664" lon="6.77035">
        <ele>822.9</ele>
        <time>2020-08-07T08:00:42Z</time>
      </trkpt>
      <trkpt lat="45.61664" lon="6.77035">
        <ele>822.9</ele>
        <time>2020-08-07T08:00:43Z</time>
      </trkpt>
      <trkpt lat="45.6167" lon="6.77034">
        <ele>822.6</ele>
        <time>2020-08-07T08:01:26Z</time>
      </trkpt>
      <trkpt lat="45.61671" lon="6.77035">
        <ele>822.5</ele>
        <time>2020-08-07T08:01:28Z</time>
      </trkpt>
      <trkpt lat="45.61683" lon="6.77039">
        <ele>821.9</ele>
        <time>2020-08-07T08:01:30Z</time>
      </trkpt>
      <trkpt lat="45.61691" lon="6.77041">
        <ele>821.5</ele>
        <time>2020-08-07T08:01:31Z</time>
      </trkpt>
      <trkpt lat="45.61698" lon="6.77044">
        <ele>821.2</ele>
        <time>2020-08-07T08:01:32Z</time>
      </trkpt>
      <trkpt lat="45.61713" lon="6.7705">
        <ele>820.5</ele>
        <time>2020-08-07T08:01:34Z</time>
      </trkpt>
      <trkpt lat="45.61721" lon="6.77053">
        <ele>820.2</ele>
        <time>2020-08-07T08:01:35Z</time>
      </trkpt>
      <trkpt lat="45.61735" lon="6.77059">
        <ele>819.5</ele>
        <time>2020-08-07T08:01:37Z</time>
      </trkpt>
      <trkpt lat="45.61743" lon="6.77062">
        <ele>819.2</ele>
        <time>2020-08-07T08:01:38Z</time>
      </trkpt>
      <trkpt lat="45.61758" lon="6.77069">
        <ele>818.6</ele>
        <time>2020-08-07T08:01:40Z</time>
      </trkpt>
      <trkpt lat="45.61775" lon="6.77075">
        <ele>818</ele>
        <time>2020-08-07T08:01:42Z</time>
      </trkpt>
      <trkpt lat="45.61791" lon="6.77081">
        <ele>817.5</ele>
        <time>2020-08-07T08:01:44Z</time>
      </trkpt>
      <trkpt lat="45.61799" lon="6.77085">
        <ele>817.4</ele>
        <time>2020-08-07T08:01:45Z</time>
      </trkpt>
      <trkpt lat="45.61807" lon="6.77087">
        <ele>817.2</ele>
        <time>2020-08-07T08:01:46Z</time>
      </trkpt>
      <trkpt lat="45.61814" lon="6.77089">
        <ele>817.1</ele>
        <time>2020-08-07T08:01:47Z</time>
      </trkpt>
      <trkpt lat="45.61827" lon="6.77092">
        <ele>816.9</ele>
        <time>2020-08-07T08:01:49Z</time>
      </trkpt>
      <trkpt lat="45.61833" lon="6.77094">
        <ele>816.8</ele>
        <time>2020-08-07T08:01:50Z</time>
      </trkpt>
      <trkpt lat="45.61843" lon="6.77097">
        <ele>816.8</ele>
        <time>2020-08-07T08:01:52Z</time>
      </trkpt>
      <trkpt lat="45.61853" lon="6.77101">
        <ele>816.7</ele>
        <time>2020-08-07T08:01:54Z</time>
      </trkpt>
      <trkpt lat="45.61858" lon="6.77102">
        <ele>816.7</ele>
        <time>2020-08-07T08:01:55Z</time>
      </trkpt>
      <trkpt lat="45.61863" lon="6.77102">
        <ele>816.7</ele>
        <time>2020-08-07T08:01:56Z</time>
      </trkpt>
      <trkpt lat="45.61875" lon="6.77101">
        <ele>816.7</ele>
        <time>2020-08-07T08:01:58Z</time>
      </trkpt>
      <trkpt lat="45.61886" lon="6.77101">
        <ele>816.8</ele>
        <time>2020-08-07T08:02:00Z</time>
      </trkpt>
      <trkpt lat="45.61898" lon="6.77101">
        <ele>816.9</ele>
        <time>2020-08-07T08:02:02Z</time>
      </trkpt>
      <trkpt lat="45.61904" lon="6.771">
        <ele>817</ele>
        <time>2020-08-07T08:02:03Z</time>
      </trkpt>
      <trkpt lat="45.61915" lon="6.77101">
        <ele>817.2</ele>
        <time>2020-08-07T08:02:05Z</time>
      </trkpt>
      <trkpt lat="45.61921" lon="6.77101">
        <ele>817.3</ele>
        <time>2020-08-07T08:02:06Z</time>
      </trkpt>
      <trkpt lat="45.61932" lon="6.77101">
        <ele>817.3</ele>
        <time>2020-08-07T08:02:08Z</time>
      </trkpt>
      <trkpt lat="45.61942" lon="6.77102">
        <ele>817.2</ele>
        <time>2020-08-07T08:02:10Z</time>
      </trkpt>
      <trkpt lat="45.61951" lon="6.77101">
        <ele>817.1</ele>
        <time>2020-08-07T08:02:12Z</time>
      </trkpt>
      <trkpt lat="45.61961" lon="6.77102">
        <ele>816.9</ele>
        <time>2020-08-07T08:02:14Z</time>
      </trkpt>
      <trkpt lat="45.61971" lon="6.77101">
        <ele>816.7</ele>
        <time>2020-08-07T08:02:16Z</time>
      </trkpt>
      <trkpt lat="45.61977" lon="6.77101">
        <ele>816.6</ele>
        <time>2020-08-07T08:02:17Z</time>
      </trkpt>
      <trkpt lat="45.61983" lon="6.77101">
        <ele>816.4</ele>
        <time>2020-08-07T08:02:18Z</time>
      </trkpt>
      <trkpt lat="45.61994" lon="6.77101">
        <ele>816.2</ele>
        <time>2020-08-07T08:02:20Z</time>
      </trkpt>
      <trkpt lat="45.62005" lon="6.77102">
        <ele>816</ele>
        <time>2020-08-07T08:02:22Z</time>
      </trkpt>
      <trkpt lat="45.62015" lon="6.77106">
        <ele>816</ele>
        <time>2020-08-07T08:02:24Z</time>
      </trkpt>
      <trkpt lat="45.62024" lon="6.77114">
        <ele>815.9</ele>
        <time>2020-08-07T08:02:26Z</time>
      </trkpt>
      <trkpt lat="45.62032" lon="6.77127">
        <ele>815.7</ele>
        <time>2020-08-07T08:02:28Z</time>
      </trkpt>
      <trkpt lat="45.62043" lon="6.7713">
        <ele>815.3</ele>
        <time>2020-08-07T08:02:30Z</time>
      </trkpt>
      <trkpt lat="45.62048" lon="6.77124">
        <ele>815.1</ele>
        <time>2020-08-07T08:02:31Z</time>
      </trkpt>
      <trkpt lat="45.62054" lon="6.77111">
        <ele>815.1</ele>
        <time>2020-08-07T08:02:33Z</time>
      </trkpt>
      <trkpt lat="45.62058" lon="6.77105">
        <ele>815.1</ele>
        <time>2020-08-07T08:02:34Z</time>
      </trkpt>
      <trkpt lat="45.62066" lon="6.77096">
        <ele>815</ele>
        <time>2020-08-07T08:02:36Z</time>
      </trkpt>
      <trkpt lat="45.6207" lon="6.77094">
        <ele>814.9</ele>
        <time>2020-08-07T08:02:37Z</time>
      </trkpt>
      <trkpt lat="45.6208" lon="6.77093">
        <ele>814.8</ele>
        <time>2020-08-07T08:02:39Z</time>
      </trkpt>
      <trkpt lat="45.62085" lon="6.77093">
        <ele>814.8</ele>
        <time>2020-08-07T08:02:40Z</time>
      </trkpt>
      <trkpt lat="45.62095" lon="6.77093">
        <ele>814.8</ele>
        <time>2020-08-07T08:02:42Z</time>
      </trkpt>
      <trkpt lat="45.621" lon="6.77093">
        <ele>814.8</ele>
        <time>2020-08-07T08:02:43Z</time>
      </trkpt>
      <trkpt lat="45.62104" lon="6.77093">
        <ele>814.8</ele>
        <time>2020-08-07T08:02:44Z</time>
      </trkpt>
      <trkpt lat="45.62111" lon="6.77093">
        <ele>814.9</ele>
        <time>2020-08-07T08:02:46Z</time>
      </trkpt>
      <trkpt lat="45.62118" lon="6.77093">
        <ele>815</ele>
        <time>2020-08-07T08:02:48Z</time>
      </trkpt>
      <trkpt lat="45.62128" lon="6.77094">
        <ele>815.2</ele>
        <time>2020-08-07T08:02:49Z</time>
      </trkpt>
      <trkpt lat="45.62129" lon="6.77097">
        <ele>815.3</ele>
        <time>2020-08-07T08:02:50Z</time>
      </trkpt>
      <trkpt lat="45.62129" lon="6.77098">
        <ele>815.3</ele>
        <time>2020-08-07T08:02:53Z</time>
      </trkpt>
      <trkpt lat="45.62134" lon="6.77099">
        <ele>815.4</ele>
        <time>2020-08-07T08:02:55Z</time>
      </trkpt>
      <trkpt lat="45.6214" lon="6.77098">
        <ele>815.6</ele>
        <time>2020-08-07T08:02:57Z</time>
      </trkpt>
      <trkpt lat="45.62144" lon="6.77097">
        <ele>815.7</ele>
        <time>2020-08-07T08:02:59Z</time>
      </trkpt>
      <trkpt lat="45.62154" lon="6.77095">
        <ele>816</ele>
        <time>2020-08-07T08:03:00Z</time>
      </trkpt>
      <trkpt lat="45.62164" lon="6.77093">
        <ele>816.2</ele>
        <time>2020-08-07T08:03:02Z</time>
      </trkpt>
      <trkpt lat="45.62171" lon="6.77091">
        <ele>816.4</ele>
        <time>2020-08-07T08:03:03Z</time>
      </trkpt>
      <trkpt lat="45.6218" lon="6.7709">
        <ele>816.6</ele>
        <time>2020-08-07T08:03:04Z</time>
      </trkpt>
      <trkpt lat="45.62185" lon="6.7709">
        <ele>816.7</ele>
        <time>2020-08-07T08:03:06Z</time>
      </trkpt>
      <trkpt lat="45.62193" lon="6.7709">
        <ele>816.9</ele>
        <time>2020-08-07T08:03:08Z</time>
      </trkpt>
      <trkpt lat="45.62198" lon="6.7709">
        <ele>817</ele>
        <time>2020-08-07T08:03:09Z</time>
      </trkpt>
      <trkpt lat="45.62203" lon="6.7709">
        <ele>817.1</ele>
        <time>2020-08-07T08:03:10Z</time>
      </trkpt>
      <trkpt lat="45.6221" lon="6.77091">
        <ele>817.3</ele>
        <time>2020-08-07T08:03:12Z</time>
      </trkpt>
      <trkpt lat="45.62215" lon="6.77092">
        <ele>817.5</ele>
        <time>2020-08-07T08:03:13Z</time>
      </trkpt>
      <trkpt lat="45.62218" lon="6.77093">
        <ele>817.6</ele>
        <time>2020-08-07T08:03:14Z</time>
      </trkpt>
      <trkpt lat="45.62223" lon="6.77093">
        <ele>817.8</ele>
        <time>2020-08-07T08:03:15Z</time>
      </trkpt>
      <trkpt lat="45.62228" lon="6.77094">
        <ele>817.9</ele>
        <time>2020-08-07T08:03:16Z</time>
      </trkpt>
      <trkpt lat="45.62233" lon="6.77094">
        <ele>818.1</ele>
        <time>2020-08-07T08:03:18Z</time>
      </trkpt>
      <trkpt lat="45.62238" lon="6.77095">
        <ele>818.4</ele>
        <time>2020-08-07T08:03:20Z</time>
      </trkpt>
      <trkpt lat="45.62246" lon="6.77097">
        <ele>818.7</ele>
        <time>2020-08-07T08:03:21Z</time>
      </trkpt>
      <trkpt lat="45.6225" lon="6.77098">
        <ele>818.9</ele>
        <time>2020-08-07T08:03:22Z</time>
      </trkpt>
      <trkpt lat="45.62255" lon="6.771">
        <ele>819.1</ele>
        <time>2020-08-07T08:03:24Z</time>
      </trkpt>
      <trkpt lat="45.62261" lon="6.77103">
        <ele>819.5</ele>
        <time>2020-08-07T08:03:26Z</time>
      </trkpt>
      <trkpt lat="45.62267" lon="6.77105">
        <ele>819.8</ele>
        <time>2020-08-07T08:03:27Z</time>
      </trkpt>
      <trkpt lat="45.62271" lon="6.77107">
        <ele>820</ele>
        <time>2020-08-07T08:03:29Z</time>
      </trkpt>
      <trkpt lat="45.62276" lon="6.7711">
        <ele>820.3</ele>
        <time>2020-08-07T08:03:30Z</time>
      </trkpt>
      <trkpt lat="45.62284" lon="6.77115">
        <ele>820.9</ele>
        <time>2020-08-07T08:03:33Z</time>
      </trkpt>
      <trkpt lat="45.62286" lon="6.77117">
        <ele>821.1</ele>
        <time>2020-08-07T08:03:34Z</time>
      </trkpt>
      <trkpt lat="45.62291" lon="6.7712">
        <ele>821.4</ele>
        <time>2020-08-07T08:03:35Z</time>
      </trkpt>
      <trkpt lat="45.62295" lon="6.77122">
        <ele>821.7</ele>
        <time>2020-08-07T08:03:36Z</time>
      </trkpt>
      <trkpt lat="45.62299" lon="6.77125">
        <ele>822</ele>
        <time>2020-08-07T08:03:39Z</time>
      </trkpt>
      <trkpt lat="45.62304" lon="6.77128">
        <ele>822.4</ele>
        <time>2020-08-07T08:03:40Z</time>
      </trkpt>
      <trkpt lat="45.62308" lon="6.77131">
        <ele>822.7</ele>
        <time>2020-08-07T08:03:41Z</time>
      </trkpt>
      <trkpt lat="45.62311" lon="6.77133">
        <ele>822.9</ele>
        <time>2020-08-07T08:03:43Z</time>
      </trkpt>
      <trkpt lat="45.62314" lon="6.77135">
        <ele>823.2</ele>
        <time>2020-08-07T08:03:44Z</time>
      </trkpt>
      <trkpt lat="45.62319" lon="6.77139">
        <ele>824</ele>
        <time>2020-08-07T08:03:45Z</time>
      </trkpt>
      <trkpt lat="45.62322" lon="6.77141">
        <ele>824.4</ele>
        <time>2020-08-07T08:03:46Z</time>
      </trkpt>
      <trkpt lat="45.62325" lon="6.77144">
        <ele>824.9</ele>
        <time>2020-08-07T08:03:47Z</time>
      </trkpt>
      <trkpt lat="45.6233" lon="6.77147">
        <ele>825.7</ele>
        <time>2020-08-07T08:03:50Z</time>
      </trkpt>
      <trkpt lat="45.62334" lon="6.77152">
        <ele>826.4</ele>
        <time>2020-08-07T08:03:51Z</time>
      </trkpt>
      <trkpt lat="45.62337" lon="6.77156">
        <ele>827</ele>
        <time>2020-08-07T08:03:53Z</time>
      </trkpt>
      <trkpt lat="45.62341" lon="6.77162">
        <ele>828</ele>
        <time>2020-08-07T08:03:54Z</time>
      </trkpt>
      <trkpt lat="45.62344" lon="6.77166">
        <ele>828.6</ele>
        <time>2020-08-07T08:03:55Z</time>
      </trkpt>
      <trkpt lat="45.6235" lon="6.77176">
        <ele>830</ele>
        <time>2020-08-07T08:03:57Z</time>
      </trkpt>
      <trkpt lat="45.62353" lon="6.77181">
        <ele>830.8</ele>
        <time>2020-08-07T08:04:00Z</time>
      </trkpt>
      <trkpt lat="45.62357" lon="6.77188">
        <ele>831.8</ele>
        <time>2020-08-07T08:04:02Z</time>
      </trkpt>
      <trkpt lat="45.6236" lon="6.77195">
        <ele>832.5</ele>
        <time>2020-08-07T08:04:03Z</time>
      </trkpt>
      <trkpt lat="45.62365" lon="6.77204">
        <ele>833.6</ele>
        <time>2020-08-07T08:04:05Z</time>
      </trkpt>
      <trkpt lat="45.62367" lon="6.77208">
        <ele>834</ele>
        <time>2020-08-07T08:04:06Z</time>
      </trkpt>
      <trkpt lat="45.6237" lon="6.77212">
        <ele>834.4</ele>
        <time>2020-08-07T08:04:08Z</time>
      </trkpt>
      <trkpt lat="45.62373" lon="6.77216">
        <ele>834.9</ele>
        <time>2020-08-07T08:04:10Z</time>
      </trkpt>
      <trkpt lat="45.62377" lon="6.77224">
        <ele>835.7</ele>
        <time>2020-08-07T08:04:11Z</time>
      </trkpt>
      <trkpt lat="45.62379" lon="6.77228">
        <ele>836.1</ele>
        <time>2020-08-07T08:04:12Z</time>
      </trkpt>
      <trkpt lat="45.62381" lon="6.77232">
        <ele>836.5</ele>
        <time>2020-08-07T08:04:13Z</time>
      </trkpt>
      <trkpt lat="45.62384" lon="6.77237">
        <ele>837</ele>
        <time>2020-08-07T08:04:15Z</time>
      </trkpt>
      <trkpt lat="45.62387" lon="6.77243">
        <ele>837.6</ele>
        <time>2020-08-07T08:04:16Z</time>
      </trkpt>
      <trkpt lat="45.6239" lon="6.7725">
        <ele>838.2</ele>
        <time>2020-08-07T08:04:19Z</time>
      </trkpt>
      <trkpt lat="45.62394" lon="6.77257">
        <ele>838.9</ele>
        <time>2020-08-07T08:04:20Z</time>
      </trkpt>
      <trkpt lat="45.62396" lon="6.77263">
        <ele>839.5</ele>
        <time>2020-08-07T08:04:21Z</time>
      </trkpt>
      <trkpt lat="45.62399" lon="6.77269">
        <ele>840</ele>
        <time>2020-08-07T08:04:23Z</time>
      </trkpt>
      <trkpt lat="45.62403" lon="6.77279">
        <ele>840.9</ele>
        <time>2020-08-07T08:04:25Z</time>
      </trkpt>
      <trkpt lat="45.62405" lon="6.77285">
        <ele>841.5</ele>
        <time>2020-08-07T08:04:27Z</time>
      </trkpt>
      <trkpt lat="45.62407" lon="6.77291">
        <ele>842</ele>
        <time>2020-08-07T08:04:29Z</time>
      </trkpt>
      <trkpt lat="45.6241" lon="6.77298">
        <ele>842.6</ele>
        <time>2020-08-07T08:04:30Z</time>
      </trkpt>
      <trkpt lat="45.62411" lon="6.77303">
        <ele>843.1</ele>
        <time>2020-08-07T08:04:31Z</time>
      </trkpt>
      <trkpt lat="45.62413" lon="6.77308">
        <ele>843.5</ele>
        <time>2020-08-07T08:04:33Z</time>
      </trkpt>
      <trkpt lat="45.62416" lon="6.77316">
        <ele>844.2</ele>
        <time>2020-08-07T08:04:35Z</time>
      </trkpt>
      <trkpt lat="45.6242" lon="6.77327">
        <ele>845.1</ele>
        <time>2020-08-07T08:04:36Z</time>
      </trkpt>
      <trkpt lat="45.62422" lon="6.77332">
        <ele>845.7</ele>
        <time>2020-08-07T08:04:38Z</time>
      </trkpt>
      <trkpt lat="45.62425" lon="6.77337">
        <ele>846.2</ele>
        <time>2020-08-07T08:04:40Z</time>
      </trkpt>
      <trkpt lat="45.62427" lon="6.77345">
        <ele>846.8</ele>
        <time>2020-08-07T08:04:41Z</time>
      </trkpt>
      <trkpt lat="45.62432" lon="6.77354">
        <ele>847.7</ele>
        <time>2020-08-07T08:04:43Z</time>
      </trkpt>
      <trkpt lat="45.62435" lon="6.77361">
        <ele>848.4</ele>
        <time>2020-08-07T08:04:46Z</time>
      </trkpt>
      <trkpt lat="45.62438" lon="6.7737">
        <ele>849.3</ele>
        <time>2020-08-07T08:04:48Z</time>
      </trkpt>
      <trkpt lat="45.62441" lon="6.77378">
        <ele>850</ele>
        <time>2020-08-07T08:04:49Z</time>
      </trkpt>
      <trkpt lat="45.62445" lon="6.77388">
        <ele>851.1</ele>
        <time>2020-08-07T08:04:51Z</time>
      </trkpt>
      <trkpt lat="45.62448" lon="6.77395">
        <ele>851.8</ele>
        <time>2020-08-07T08:04:53Z</time>
      </trkpt>
      <trkpt lat="45.6245" lon="6.774">
        <ele>852.2</ele>
        <time>2020-08-07T08:04:55Z</time>
      </trkpt>
      <trkpt lat="45.62455" lon="6.77415">
        <ele>853.2</ele>
        <time>2020-08-07T08:04:57Z</time>
      </trkpt>
      <trkpt lat="45.62457" lon="6.77419">
        <ele>853.5</ele>
        <time>2020-08-07T08:04:58Z</time>
      </trkpt>
      <trkpt lat="45.62459" lon="6.77426">
        <ele>853.9</ele>
        <time>2020-08-07T08:05:00Z</time>
      </trkpt>
      <trkpt lat="45.62462" lon="6.77436">
        <ele>854.6</ele>
        <time>2020-08-07T08:05:02Z</time>
      </trkpt>
      <trkpt lat="45.62464" lon="6.77443">
        <ele>855</ele>
        <time>2020-08-07T08:05:04Z</time>
      </trkpt>
      <trkpt lat="45.62465" lon="6.77448">
        <ele>855.3</ele>
        <time>2020-08-07T08:05:05Z</time>
      </trkpt>
      <trkpt lat="45.62469" lon="6.7746">
        <ele>856.2</ele>
        <time>2020-08-07T08:05:07Z</time>
      </trkpt>
      <trkpt lat="45.62472" lon="6.77473">
        <ele>857.1</ele>
        <time>2020-08-07T08:05:10Z</time>
      </trkpt>
      <trkpt lat="45.62474" lon="6.77479">
        <ele>857.5</ele>
        <time>2020-08-07T08:05:11Z</time>
      </trkpt>
      <trkpt lat="45.62478" lon="6.77491">
        <ele>858.4</ele>
        <time>2020-08-07T08:05:14Z</time>
      </trkpt>
      <trkpt lat="45.62481" lon="6.77497">
        <ele>858.9</ele>
        <time>2020-08-07T08:05:15Z</time>
      </trkpt>
      <trkpt lat="45.62483" lon="6.77501">
        <ele>859.2</ele>
        <time>2020-08-07T08:05:17Z</time>
      </trkpt>
      <trkpt lat="45.62486" lon="6.77507">
        <ele>859.7</ele>
        <time>2020-08-07T08:05:19Z</time>
      </trkpt>
      <trkpt lat="45.62488" lon="6.7751">
        <ele>860</ele>
        <time>2020-08-07T08:05:20Z</time>
      </trkpt>
      <trkpt lat="45.62492" lon="6.77519">
        <ele>860.7</ele>
        <time>2020-08-07T08:05:22Z</time>
      </trkpt>
      <trkpt lat="45.62495" lon="6.77527">
        <ele>861.5</ele>
        <time>2020-08-07T08:05:23Z</time>
      </trkpt>
      <trkpt lat="45.62497" lon="6.77532">
        <ele>861.9</ele>
        <time>2020-08-07T08:05:24Z</time>
      </trkpt>
      <trkpt lat="45.62503" lon="6.77544">
        <ele>863.1</ele>
        <time>2020-08-07T08:05:27Z</time>
      </trkpt>
      <trkpt lat="45.62508" lon="6.77555">
        <ele>864.2</ele>
        <time>2020-08-07T08:05:30Z</time>
      </trkpt>
      <trkpt lat="45.6251" lon="6.7756">
        <ele>864.6</ele>
        <time>2020-08-07T08:05:31Z</time>
      </trkpt>
      <trkpt lat="45.62511" lon="6.77566">
        <ele>865.1</ele>
        <time>2020-08-07T08:05:33Z</time>
      </trkpt>
      <trkpt lat="45.62512" lon="6.77572">
        <ele>865.5</ele>
        <time>2020-08-07T08:05:34Z</time>
      </trkpt>
      <trkpt lat="45.62512" lon="6.77579">
        <ele>866</ele>
        <time>2020-08-07T08:05:35Z</time>
      </trkpt>
      <trkpt lat="45.62512" lon="6.77584">
        <ele>866.4</ele>
        <time>2020-08-07T08:05:37Z</time>
      </trkpt>
      <trkpt lat="45.6251" lon="6.77591">
        <ele>866.8</ele>
        <time>2020-08-07T08:05:38Z</time>
      </trkpt>
      <trkpt lat="45.62508" lon="6.77596">
        <ele>867.2</ele>
        <time>2020-08-07T08:05:39Z</time>
      </trkpt>
      <trkpt lat="45.62507" lon="6.776">
        <ele>867.5</ele>
        <time>2020-08-07T08:05:40Z</time>
      </trkpt>
      <trkpt lat="45.62505" lon="6.77605">
        <ele>867.8</ele>
        <time>2020-08-07T08:05:41Z</time>
      </trkpt>
      <trkpt lat="45.62503" lon="6.77609">
        <ele>868.1</ele>
        <time>2020-08-07T08:05:43Z</time>
      </trkpt>
      <trkpt lat="45.62502" lon="6.77616">
        <ele>868.5</ele>
        <time>2020-08-07T08:05:45Z</time>
      </trkpt>
      <trkpt lat="45.62499" lon="6.77623">
        <ele>868.9</ele>
        <time>2020-08-07T08:05:46Z</time>
      </trkpt>
      <trkpt lat="45.62498" lon="6.7763">
        <ele>869.3</ele>
        <time>2020-08-07T08:05:47Z</time>
      </trkpt>
      <trkpt lat="45.62498" lon="6.77635">
        <ele>869.6</ele>
        <time>2020-08-07T08:05:49Z</time>
      </trkpt>
      <trkpt lat="45.62497" lon="6.77646">
        <ele>870.2</ele>
        <time>2020-08-07T08:05:51Z</time>
      </trkpt>
      <trkpt lat="45.62497" lon="6.77659">
        <ele>871</ele>
        <time>2020-08-07T08:05:54Z</time>
      </trkpt>
      <trkpt lat="45.62498" lon="6.77665">
        <ele>871.3</ele>
        <time>2020-08-07T08:05:55Z</time>
      </trkpt>
      <trkpt lat="45.62498" lon="6.7767">
        <ele>871.6</ele>
        <time>2020-08-07T08:05:56Z</time>
      </trkpt>
      <trkpt lat="45.62499" lon="6.77675">
        <ele>871.9</ele>
        <time>2020-08-07T08:05:57Z</time>
      </trkpt>
      <trkpt lat="45.62501" lon="6.77687">
        <ele>872.7</ele>
        <time>2020-08-07T08:06:00Z</time>
      </trkpt>
      <trkpt lat="45.62502" lon="6.77693">
        <ele>873.1</ele>
        <time>2020-08-07T08:06:01Z</time>
      </trkpt>
      <trkpt lat="45.62504" lon="6.77703">
        <ele>873.9</ele>
        <time>2020-08-07T08:06:04Z</time>
      </trkpt>
      <trkpt lat="45.62505" lon="6.77707">
        <ele>874.2</ele>
        <time>2020-08-07T08:06:05Z</time>
      </trkpt>
      <trkpt lat="45.62506" lon="6.77713">
        <ele>874.6</ele>
        <time>2020-08-07T08:06:06Z</time>
      </trkpt>
      <trkpt lat="45.62508" lon="6.77718">
        <ele>875</ele>
        <time>2020-08-07T08:06:08Z</time>
      </trkpt>
      <trkpt lat="45.6251" lon="6.77725">
        <ele>875.6</ele>
        <time>2020-08-07T08:06:09Z</time>
      </trkpt>
      <trkpt lat="45.62512" lon="6.7773">
        <ele>876</ele>
        <time>2020-08-07T08:06:10Z</time>
      </trkpt>
      <trkpt lat="45.62514" lon="6.77735">
        <ele>876.5</ele>
        <time>2020-08-07T08:06:12Z</time>
      </trkpt>
      <trkpt lat="45.62516" lon="6.7774">
        <ele>876.9</ele>
        <time>2020-08-07T08:06:13Z</time>
      </trkpt>
      <trkpt lat="45.62521" lon="6.77754">
        <ele>878.1</ele>
        <time>2020-08-07T08:06:15Z</time>
      </trkpt>
      <trkpt lat="45.62523" lon="6.77759">
        <ele>878.6</ele>
        <time>2020-08-07T08:06:17Z</time>
      </trkpt>
      <trkpt lat="45.62525" lon="6.77764">
        <ele>879</ele>
        <time>2020-08-07T08:06:18Z</time>
      </trkpt>
      <trkpt lat="45.62528" lon="6.77769">
        <ele>879.6</ele>
        <time>2020-08-07T08:06:19Z</time>
      </trkpt>
      <trkpt lat="45.62531" lon="6.77774">
        <ele>880</ele>
        <time>2020-08-07T08:06:21Z</time>
      </trkpt>
      <trkpt lat="45.62533" lon="6.77778">
        <ele>880.4</ele>
        <time>2020-08-07T08:06:22Z</time>
      </trkpt>
      <trkpt lat="45.62536" lon="6.77782">
        <ele>880.9</ele>
        <time>2020-08-07T08:06:23Z</time>
      </trkpt>
      <trkpt lat="45.62538" lon="6.77785">
        <ele>881.2</ele>
        <time>2020-08-07T08:06:24Z</time>
      </trkpt>
      <trkpt lat="45.62543" lon="6.77789">
        <ele>881.7</ele>
        <time>2020-08-07T08:06:26Z</time>
      </trkpt>
      <trkpt lat="45.62549" lon="6.7779">
        <ele>882.2</ele>
        <time>2020-08-07T08:06:28Z</time>
      </trkpt>
      <trkpt lat="45.62553" lon="6.77791">
        <ele>882.5</ele>
        <time>2020-08-07T08:06:30Z</time>
      </trkpt>
      <trkpt lat="45.62558" lon="6.77792">
        <ele>882.9</ele>
        <time>2020-08-07T08:06:31Z</time>
      </trkpt>
      <trkpt lat="45.62561" lon="6.77792">
        <ele>883.2</ele>
        <time>2020-08-07T08:06:32Z</time>
      </trkpt>
      <trkpt lat="45.62565" lon="6.77793">
        <ele>883.5</ele>
        <time>2020-08-07T08:06:34Z</time>
      </trkpt>
      <trkpt lat="45.62567" lon="6.77794">
        <ele>883.6</ele>
        <time>2020-08-07T08:06:35Z</time>
      </trkpt>
      <trkpt lat="45.62572" lon="6.77795">
        <ele>884.1</ele>
        <time>2020-08-07T08:06:37Z</time>
      </trkpt>
      <trkpt lat="45.62575" lon="6.77796">
        <ele>884.4</ele>
        <time>2020-08-07T08:06:39Z</time>
      </trkpt>
      <trkpt lat="45.62578" lon="6.77796">
        <ele>884.6</ele>
        <time>2020-08-07T08:06:40Z</time>
      </trkpt>
      <trkpt lat="45.6258" lon="6.77797">
        <ele>884.9</ele>
        <time>2020-08-07T08:06:43Z</time>
      </trkpt>
      <trkpt lat="45.62583" lon="6.77797">
        <ele>885.2</ele>
        <time>2020-08-07T08:06:44Z</time>
      </trkpt>
      <trkpt lat="45.62587" lon="6.77798">
        <ele>885.6</ele>
        <time>2020-08-07T08:06:46Z</time>
      </trkpt>
      <trkpt lat="45.6259" lon="6.77798">
        <ele>885.9</ele>
        <time>2020-08-07T08:06:47Z</time>
      </trkpt>
      <trkpt lat="45.62597" lon="6.77801">
        <ele>886.7</ele>
        <time>2020-08-07T08:06:49Z</time>
      </trkpt>
      <trkpt lat="45.62599" lon="6.778">
        <ele>887</ele>
        <time>2020-08-07T08:06:50Z</time>
      </trkpt>
      <trkpt lat="45.62602" lon="6.77805">
        <ele>887.5</ele>
        <time>2020-08-07T08:06:52Z</time>
      </trkpt>
      <trkpt lat="45.62607" lon="6.77813">
        <ele>888.3</ele>
        <time>2020-08-07T08:06:55Z</time>
      </trkpt>
      <trkpt lat="45.62609" lon="6.7782">
        <ele>889</ele>
        <time>2020-08-07T08:06:57Z</time>
      </trkpt>
      <trkpt lat="45.62616" lon="6.77831">
        <ele>889.4</ele>
        <time>2020-08-07T08:06:59Z</time>
      </trkpt>
      <trkpt lat="45.62615" lon="6.77839">
        <ele>889.6</ele>
        <time>2020-08-07T08:07:02Z</time>
      </trkpt>
      <trkpt lat="45.62615" lon="6.77847">
        <ele>889.8</ele>
        <time>2020-08-07T08:07:03Z</time>
      </trkpt>
      <trkpt lat="45.62614" lon="6.77859">
        <ele>890.1</ele>
        <time>2020-08-07T08:07:05Z</time>
      </trkpt>
      <trkpt lat="45.62614" lon="6.77865">
        <ele>890.3</ele>
        <time>2020-08-07T08:07:07Z</time>
      </trkpt>
      <trkpt lat="45.62613" lon="6.77872">
        <ele>890.5</ele>
        <time>2020-08-07T08:07:08Z</time>
      </trkpt>
      <trkpt lat="45.62612" lon="6.77876">
        <ele>890.6</ele>
        <time>2020-08-07T08:07:09Z</time>
      </trkpt>
      <trkpt lat="45.62612" lon="6.77882">
        <ele>890.8</ele>
        <time>2020-08-07T08:07:11Z</time>
      </trkpt>
      <trkpt lat="45.62611" lon="6.77889">
        <ele>891</ele>
        <time>2020-08-07T08:07:12Z</time>
      </trkpt>
      <trkpt lat="45.62612" lon="6.77895">
        <ele>891.2</ele>
        <time>2020-08-07T08:07:14Z</time>
      </trkpt>
      <trkpt lat="45.62612" lon="6.77899">
        <ele>891.3</ele>
        <time>2020-08-07T08:07:15Z</time>
      </trkpt>
      <trkpt lat="45.62612" lon="6.77908">
        <ele>891.5</ele>
        <time>2020-08-07T08:07:17Z</time>
      </trkpt>
      <trkpt lat="45.62615" lon="6.77917">
        <ele>891.7</ele>
        <time>2020-08-07T08:07:19Z</time>
      </trkpt>
      <trkpt lat="45.62616" lon="6.7792">
        <ele>891.8</ele>
        <time>2020-08-07T08:07:20Z</time>
      </trkpt>
      <trkpt lat="45.6262" lon="6.77927">
        <ele>892</ele>
        <time>2020-08-07T08:07:22Z</time>
      </trkpt>
      <trkpt lat="45.62624" lon="6.77933">
        <ele>892.1</ele>
        <time>2020-08-07T08:07:24Z</time>
      </trkpt>
      <trkpt lat="45.62627" lon="6.77935">
        <ele>892.2</ele>
        <time>2020-08-07T08:07:25Z</time>
      </trkpt>
      <trkpt lat="45.6263" lon="6.77938">
        <ele>892.2</ele>
        <time>2020-08-07T08:07:27Z</time>
      </trkpt>
      <trkpt lat="45.62633" lon="6.77941">
        <ele>892.3</ele>
        <time>2020-08-07T08:07:28Z</time>
      </trkpt>
      <trkpt lat="45.62639" lon="6.77947">
        <ele>892.4</ele>
        <time>2020-08-07T08:07:29Z</time>
      </trkpt>
      <trkpt lat="45.62642" lon="6.7795">
        <ele>892.4</ele>
        <time>2020-08-07T08:07:31Z</time>
      </trkpt>
      <trkpt lat="45.62648" lon="6.77958">
        <ele>892.6</ele>
        <time>2020-08-07T08:07:33Z</time>
      </trkpt>
      <trkpt lat="45.6265" lon="6.77963">
        <ele>892.7</ele>
        <time>2020-08-07T08:07:35Z</time>
      </trkpt>
      <trkpt lat="45.62656" lon="6.7797">
        <ele>893</ele>
        <time>2020-08-07T08:07:37Z</time>
      </trkpt>
      <trkpt lat="45.62658" lon="6.77975">
        <ele>893.1</ele>
        <time>2020-08-07T08:07:38Z</time>
      </trkpt>
      <trkpt lat="45.62663" lon="6.77983">
        <ele>893.4</ele>
        <time>2020-08-07T08:07:41Z</time>
      </trkpt>
      <trkpt lat="45.62664" lon="6.77987">
        <ele>893.5</ele>
        <time>2020-08-07T08:07:42Z</time>
      </trkpt>
      <trkpt lat="45.62666" lon="6.77991">
        <ele>893.6</ele>
        <time>2020-08-07T08:07:43Z</time>
      </trkpt>
      <trkpt lat="45.62669" lon="6.77997">
        <ele>893.8</ele>
        <time>2020-08-07T08:07:45Z</time>
      </trkpt>
      <trkpt lat="45.6267" lon="6.78002">
        <ele>893.9</ele>
        <time>2020-08-07T08:07:47Z</time>
      </trkpt>
      <trkpt lat="45.62673" lon="6.78012">
        <ele>894.1</ele>
        <time>2020-08-07T08:07:49Z</time>
      </trkpt>
      <trkpt lat="45.62674" lon="6.78015">
        <ele>894.2</ele>
        <time>2020-08-07T08:07:50Z</time>
      </trkpt>
      <trkpt lat="45.62677" lon="6.78023">
        <ele>894.4</ele>
        <time>2020-08-07T08:07:52Z</time>
      </trkpt>
      <trkpt lat="45.62679" lon="6.78031">
        <ele>894.6</ele>
        <time>2020-08-07T08:07:54Z</time>
      </trkpt>
      <trkpt lat="45.62681" lon="6.78038">
        <ele>894.8</ele>
        <time>2020-08-07T08:07:56Z</time>
      </trkpt>
      <trkpt lat="45.62682" lon="6.78042">
        <ele>895</ele>
        <time>2020-08-07T08:07:57Z</time>
      </trkpt>
      <trkpt lat="45.62684" lon="6.78047">
        <ele>895.1</ele>
        <time>2020-08-07T08:07:58Z</time>
      </trkpt>
      <trkpt lat="45.62686" lon="6.78054">
        <ele>895.3</ele>
        <time>2020-08-07T08:08:00Z</time>
      </trkpt>
      <trkpt lat="45.62688" lon="6.78062">
        <ele>895.6</ele>
        <time>2020-08-07T08:08:02Z</time>
      </trkpt>
      <trkpt lat="45.6269" lon="6.78066">
        <ele>895.7</ele>
        <time>2020-08-07T08:08:03Z</time>
      </trkpt>
      <trkpt lat="45.62693" lon="6.78076">
        <ele>896</ele>
        <time>2020-08-07T08:08:04Z</time>
      </trkpt>
      <trkpt lat="45.62695" lon="6.78082">
        <ele>896.2</ele>
        <time>2020-08-07T08:08:06Z</time>
      </trkpt>
      <trkpt lat="45.62698" lon="6.78086">
        <ele>896.3</ele>
        <time>2020-08-07T08:08:07Z</time>
      </trkpt>
      <trkpt lat="45.62701" lon="6.78092">
        <ele>896.6</ele>
        <time>2020-08-07T08:08:10Z</time>
      </trkpt>
      <trkpt lat="45.62705" lon="6.781">
        <ele>896.8</ele>
        <time>2020-08-07T08:08:12Z</time>
      </trkpt>
      <trkpt lat="45.62707" lon="6.78107">
        <ele>897.1</ele>
        <time>2020-08-07T08:08:14Z</time>
      </trkpt>
      <trkpt lat="45.6271" lon="6.78113">
        <ele>897.3</ele>
        <time>2020-08-07T08:08:15Z</time>
      </trkpt>
      <trkpt lat="45.62713" lon="6.78118">
        <ele>897.4</ele>
        <time>2020-08-07T08:08:16Z</time>
      </trkpt>
      <trkpt lat="45.62715" lon="6.78122">
        <ele>897.5</ele>
        <time>2020-08-07T08:08:17Z</time>
      </trkpt>
      <trkpt lat="45.62718" lon="6.78127">
        <ele>897.7</ele>
        <time>2020-08-07T08:08:18Z</time>
      </trkpt>
      <trkpt lat="45.62721" lon="6.78132">
        <ele>897.9</ele>
        <time>2020-08-07T08:08:21Z</time>
      </trkpt>
      <trkpt lat="45.62723" lon="6.78136">
        <ele>898</ele>
        <time>2020-08-07T08:08:22Z</time>
      </trkpt>
      <trkpt lat="45.62726" lon="6.78143">
        <ele>898.3</ele>
        <time>2020-08-07T08:08:23Z</time>
      </trkpt>
      <trkpt lat="45.62729" lon="6.78147">
        <ele>898.4</ele>
        <time>2020-08-07T08:08:25Z</time>
      </trkpt>
      <trkpt lat="45.62734" lon="6.78157">
        <ele>898.8</ele>
        <time>2020-08-07T08:08:27Z</time>
      </trkpt>
      <trkpt lat="45.62737" lon="6.78163">
        <ele>899.2</ele>
        <time>2020-08-07T08:08:29Z</time>
      </trkpt>
      <trkpt lat="45.6274" lon="6.7817">
        <ele>899.6</ele>
        <time>2020-08-07T08:08:30Z</time>
      </trkpt>
      <trkpt lat="45.62743" lon="6.78175">
        <ele>900</ele>
        <time>2020-08-07T08:08:32Z</time>
      </trkpt>
      <trkpt lat="45.62745" lon="6.7818">
        <ele>900.2</ele>
        <time>2020-08-07T08:08:34Z</time>
      </trkpt>
      <trkpt lat="45.62749" lon="6.78189">
        <ele>900.7</ele>
        <time>2020-08-07T08:08:35Z</time>
      </trkpt>
      <trkpt lat="45.62752" lon="6.78198">
        <ele>901.2</ele>
        <time>2020-08-07T08:08:38Z</time>
      </trkpt>
      <trkpt lat="45.62752" lon="6.78202">
        <ele>901.4</ele>
        <time>2020-08-07T08:08:39Z</time>
      </trkpt>
      <trkpt lat="45.62754" lon="6.78207">
        <ele>901.6</ele>
        <time>2020-08-07T08:08:40Z</time>
      </trkpt>
      <trkpt lat="45.62755" lon="6.78211">
        <ele>901.8</ele>
        <time>2020-08-07T08:08:41Z</time>
      </trkpt>
      <trkpt lat="45.62756" lon="6.78217">
        <ele>902.1</ele>
        <time>2020-08-07T08:08:42Z</time>
      </trkpt>
      <trkpt lat="45.62757" lon="6.78222">
        <ele>902.3</ele>
        <time>2020-08-07T08:08:43Z</time>
      </trkpt>
      <trkpt lat="45.62759" lon="6.78235">
        <ele>903</ele>
        <time>2020-08-07T08:08:46Z</time>
      </trkpt>
      <trkpt lat="45.62761" lon="6.78243">
        <ele>903.3</ele>
        <time>2020-08-07T08:08:49Z</time>
      </trkpt>
      <trkpt lat="45.62762" lon="6.7825">
        <ele>903.7</ele>
        <time>2020-08-07T08:08:50Z</time>
      </trkpt>
      <trkpt lat="45.62763" lon="6.78255">
        <ele>904</ele>
        <time>2020-08-07T08:08:51Z</time>
      </trkpt>
      <trkpt lat="45.62764" lon="6.78261">
        <ele>904.3</ele>
        <time>2020-08-07T08:08:53Z</time>
      </trkpt>
      <trkpt lat="45.62766" lon="6.78275">
        <ele>905</ele>
        <time>2020-08-07T08:08:55Z</time>
      </trkpt>
      <trkpt lat="45.62767" lon="6.78282">
        <ele>905.3</ele>
        <time>2020-08-07T08:08:58Z</time>
      </trkpt>
      <trkpt lat="45.62768" lon="6.78291">
        <ele>905.8</ele>
        <time>2020-08-07T08:09:00Z</time>
      </trkpt>
      <trkpt lat="45.62769" lon="6.78299">
        <ele>906.2</ele>
        <time>2020-08-07T08:09:01Z</time>
      </trkpt>
      <trkpt lat="45.6277" lon="6.78305">
        <ele>906.5</ele>
        <time>2020-08-07T08:09:02Z</time>
      </trkpt>
      <trkpt lat="45.62771" lon="6.78311">
        <ele>906.8</ele>
        <time>2020-08-07T08:09:03Z</time>
      </trkpt>
      <trkpt lat="45.62772" lon="6.78317">
        <ele>907</ele>
        <time>2020-08-07T08:09:05Z</time>
      </trkpt>
      <trkpt lat="45.62773" lon="6.78322">
        <ele>907.2</ele>
        <time>2020-08-07T08:09:07Z</time>
      </trkpt>
      <trkpt lat="45.62773" lon="6.78327">
        <ele>907.3</ele>
        <time>2020-08-07T08:09:08Z</time>
      </trkpt>
      <trkpt lat="45.62775" lon="6.78342">
        <ele>907.7</ele>
        <time>2020-08-07T08:09:10Z</time>
      </trkpt>
      <trkpt lat="45.62776" lon="6.78349">
        <ele>908</ele>
        <time>2020-08-07T08:09:13Z</time>
      </trkpt>
      <trkpt lat="45.62779" lon="6.78363">
        <ele>908.5</ele>
        <time>2020-08-07T08:09:15Z</time>
      </trkpt>
      <trkpt lat="45.62781" lon="6.78369">
        <ele>908.7</ele>
        <time>2020-08-07T08:09:17Z</time>
      </trkpt>
      <trkpt lat="45.62786" lon="6.78378">
        <ele>909.1</ele>
        <time>2020-08-07T08:09:19Z</time>
      </trkpt>
      <trkpt lat="45.62789" lon="6.78384">
        <ele>909.3</ele>
        <time>2020-08-07T08:09:21Z</time>
      </trkpt>
      <trkpt lat="45.62795" lon="6.78391">
        <ele>909.7</ele>
        <time>2020-08-07T08:09:23Z</time>
      </trkpt>
      <trkpt lat="45.62798" lon="6.78394">
        <ele>909.8</ele>
        <time>2020-08-07T08:09:24Z</time>
      </trkpt>
      <trkpt lat="45.62801" lon="6.78397">
        <ele>910</ele>
        <time>2020-08-07T08:09:25Z</time>
      </trkpt>
      <trkpt lat="45.62809" lon="6.78406">
        <ele>910.4</ele>
        <time>2020-08-07T08:09:28Z</time>
      </trkpt>
      <trkpt lat="45.62812" lon="6.78409">
        <ele>910.5</ele>
        <time>2020-08-07T08:09:29Z</time>
      </trkpt>
      <trkpt lat="45.62816" lon="6.78413">
        <ele>910.7</ele>
        <time>2020-08-07T08:09:31Z</time>
      </trkpt>
      <trkpt lat="45.62822" lon="6.78421">
        <ele>910.9</ele>
        <time>2020-08-07T08:09:33Z</time>
      </trkpt>
      <trkpt lat="45.62824" lon="6.78426">
        <ele>911.1</ele>
        <time>2020-08-07T08:09:34Z</time>
      </trkpt>
      <trkpt lat="45.62826" lon="6.7843">
        <ele>911.2</ele>
        <time>2020-08-07T08:09:35Z</time>
      </trkpt>
      <trkpt lat="45.62829" lon="6.78435">
        <ele>911.3</ele>
        <time>2020-08-07T08:09:37Z</time>
      </trkpt>
      <trkpt lat="45.6283" lon="6.78439">
        <ele>911.4</ele>
        <time>2020-08-07T08:09:38Z</time>
      </trkpt>
      <trkpt lat="45.62832" lon="6.78442">
        <ele>911.5</ele>
        <time>2020-08-07T08:09:40Z</time>
      </trkpt>
      <trkpt lat="45.62833" lon="6.78446">
        <ele>911.6</ele>
        <time>2020-08-07T08:09:41Z</time>
      </trkpt>
      <trkpt lat="45.62837" lon="6.78454">
        <ele>911.8</ele>
        <time>2020-08-07T08:09:42Z</time>
      </trkpt>
      <trkpt lat="45.62841" lon="6.78462">
        <ele>912.1</ele>
        <time>2020-08-07T08:09:44Z</time>
      </trkpt>
      <trkpt lat="45.62844" lon="6.78466">
        <ele>912.2</ele>
        <time>2020-08-07T08:09:46Z</time>
      </trkpt>
      <trkpt lat="45.62846" lon="6.7847">
        <ele>912.3</ele>
        <time>2020-08-07T08:09:47Z</time>
      </trkpt>
      <trkpt lat="45.6285" lon="6.78477">
        <ele>912.6</ele>
        <time>2020-08-07T08:09:48Z</time>
      </trkpt>
      <trkpt lat="45.62853" lon="6.78481">
        <ele>912.8</ele>
        <time>2020-08-07T08:09:49Z</time>
      </trkpt>
      <trkpt lat="45.6286" lon="6.78488">
        <ele>913.2</ele>
        <time>2020-08-07T08:09:51Z</time>
      </trkpt>
      <trkpt lat="45.62864" lon="6.78492">
        <ele>913.4</ele>
        <time>2020-08-07T08:09:53Z</time>
      </trkpt>
      <trkpt lat="45.62867" lon="6.78495">
        <ele>913.6</ele>
        <time>2020-08-07T08:09:55Z</time>
      </trkpt>
      <trkpt lat="45.62873" lon="6.78501">
        <ele>913.9</ele>
        <time>2020-08-07T08:09:56Z</time>
      </trkpt>
      <trkpt lat="45.62876" lon="6.78504">
        <ele>914.1</ele>
        <time>2020-08-07T08:09:57Z</time>
      </trkpt>
      <trkpt lat="45.62879" lon="6.78507">
        <ele>914.2</ele>
        <time>2020-08-07T08:09:59Z</time>
      </trkpt>
      <trkpt lat="45.62883" lon="6.78511">
        <ele>914.5</ele>
        <time>2020-08-07T08:10:01Z</time>
      </trkpt>
      <trkpt lat="45.62888" lon="6.78517">
        <ele>914.8</ele>
        <time>2020-08-07T08:10:02Z</time>
      </trkpt>
      <trkpt lat="45.6289" lon="6.7852">
        <ele>914.9</ele>
        <time>2020-08-07T08:10:03Z</time>
      </trkpt>
      <trkpt lat="45.62895" lon="6.78525">
        <ele>915.2</ele>
        <time>2020-08-07T08:10:05Z</time>
      </trkpt>
      <trkpt lat="45.62897" lon="6.78527">
        <ele>915.4</ele>
        <time>2020-08-07T08:10:06Z</time>
      </trkpt>
      <trkpt lat="45.62903" lon="6.78532">
        <ele>915.6</ele>
        <time>2020-08-07T08:10:09Z</time>
      </trkpt>
      <trkpt lat="45.62907" lon="6.78534">
        <ele>915.8</ele>
        <time>2020-08-07T08:10:10Z</time>
      </trkpt>
      <trkpt lat="45.6291" lon="6.78535">
        <ele>915.9</ele>
        <time>2020-08-07T08:10:11Z</time>
      </trkpt>
      <trkpt lat="45.62913" lon="6.78536">
        <ele>916</ele>
        <time>2020-08-07T08:10:12Z</time>
      </trkpt>
      <trkpt lat="45.6292" lon="6.78539">
        <ele>916.3</ele>
        <time>2020-08-07T08:10:14Z</time>
      </trkpt>
      <trkpt lat="45.62925" lon="6.78541">
        <ele>916.5</ele>
        <time>2020-08-07T08:10:15Z</time>
      </trkpt>
      <trkpt lat="45.62932" lon="6.78541">
        <ele>916.7</ele>
        <time>2020-08-07T08:10:17Z</time>
      </trkpt>
      <trkpt lat="45.62936" lon="6.78542">
        <ele>916.9</ele>
        <time>2020-08-07T08:10:19Z</time>
      </trkpt>
      <trkpt lat="45.62944" lon="6.78543">
        <ele>917.2</ele>
        <time>2020-08-07T08:10:20Z</time>
      </trkpt>
      <trkpt lat="45.62949" lon="6.78544">
        <ele>917.4</ele>
        <time>2020-08-07T08:10:23Z</time>
      </trkpt>
      <trkpt lat="45.62952" lon="6.78545">
        <ele>917.6</ele>
        <time>2020-08-07T08:10:24Z</time>
      </trkpt>
      <trkpt lat="45.62958" lon="6.78546">
        <ele>917.9</ele>
        <time>2020-08-07T08:10:25Z</time>
      </trkpt>
      <trkpt lat="45.62966" lon="6.7855">
        <ele>918.3</ele>
        <time>2020-08-07T08:10:27Z</time>
      </trkpt>
      <trkpt lat="45.62971" lon="6.78553">
        <ele>918.5</ele>
        <time>2020-08-07T08:10:30Z</time>
      </trkpt>
      <trkpt lat="45.62973" lon="6.78555">
        <ele>918.7</ele>
        <time>2020-08-07T08:10:31Z</time>
      </trkpt>
      <trkpt lat="45.62976" lon="6.78557">
        <ele>918.9</ele>
        <time>2020-08-07T08:10:32Z</time>
      </trkpt>
      <trkpt lat="45.62982" lon="6.78562">
        <ele>919.2</ele>
        <time>2020-08-07T08:10:34Z</time>
      </trkpt>
      <trkpt lat="45.62986" lon="6.78566">
        <ele>919.5</ele>
        <time>2020-08-07T08:10:35Z</time>
      </trkpt>
      <trkpt lat="45.6299" lon="6.78568">
        <ele>919.7</ele>
        <time>2020-08-07T08:10:37Z</time>
      </trkpt>
      <trkpt lat="45.63001" lon="6.78568">
        <ele>920.3</ele>
        <time>2020-08-07T08:10:39Z</time>
      </trkpt>
      <trkpt lat="45.63005" lon="6.78563">
        <ele>920.7</ele>
        <time>2020-08-07T08:10:41Z</time>
      </trkpt>
      <trkpt lat="45.63006" lon="6.78557">
        <ele>920.9</ele>
        <time>2020-08-07T08:10:42Z</time>
      </trkpt>
      <trkpt lat="45.63004" lon="6.78546">
        <ele>921.3</ele>
        <time>2020-08-07T08:10:44Z</time>
      </trkpt>
      <trkpt lat="45.63" lon="6.78541">
        <ele>921.5</ele>
        <time>2020-08-07T08:10:46Z</time>
      </trkpt>
      <trkpt lat="45.62996" lon="6.78538">
        <ele>921.6</ele>
        <time>2020-08-07T08:10:48Z</time>
      </trkpt>
      <trkpt lat="45.62987" lon="6.78532">
        <ele>921.8</ele>
        <time>2020-08-07T08:10:49Z</time>
      </trkpt>
      <trkpt lat="45.62983" lon="6.7853">
        <ele>921.9</ele>
        <time>2020-08-07T08:10:51Z</time>
      </trkpt>
      <trkpt lat="45.62977" lon="6.78527">
        <ele>922.2</ele>
        <time>2020-08-07T08:10:52Z</time>
      </trkpt>
      <trkpt lat="45.62973" lon="6.78525">
        <ele>922.5</ele>
        <time>2020-08-07T08:10:54Z</time>
      </trkpt>
      <trkpt lat="45.62968" lon="6.78522">
        <ele>922.7</ele>
        <time>2020-08-07T08:10:55Z</time>
      </trkpt>
      <trkpt lat="45.62959" lon="6.78516">
        <ele>923.3</ele>
        <time>2020-08-07T08:10:57Z</time>
      </trkpt>
      <trkpt lat="45.62955" lon="6.78514">
        <ele>923.6</ele>
        <time>2020-08-07T08:10:59Z</time>
      </trkpt>
      <trkpt lat="45.62951" lon="6.78512">
        <ele>923.8</ele>
        <time>2020-08-07T08:11:01Z</time>
      </trkpt>
      <trkpt lat="45.62947" lon="6.78509">
        <ele>924.1</ele>
        <time>2020-08-07T08:11:02Z</time>
      </trkpt>
      <trkpt lat="45.6294" lon="6.78505">
        <ele>924.5</ele>
        <time>2020-08-07T08:11:03Z</time>
      </trkpt>
      <trkpt lat="45.62937" lon="6.78502">
        <ele>924.8</ele>
        <time>2020-08-07T08:11:05Z</time>
      </trkpt>
      <trkpt lat="45.62928" lon="6.78497">
        <ele>925.4</ele>
        <time>2020-08-07T08:11:06Z</time>
      </trkpt>
      <trkpt lat="45.62924" lon="6.78494">
        <ele>925.8</ele>
        <time>2020-08-07T08:11:08Z</time>
      </trkpt>
      <trkpt lat="45.62919" lon="6.7849">
        <ele>926.1</ele>
        <time>2020-08-07T08:11:10Z</time>
      </trkpt>
      <trkpt lat="45.62912" lon="6.78486">
        <ele>926.6</ele>
        <time>2020-08-07T08:11:11Z</time>
      </trkpt>
      <trkpt lat="45.62908" lon="6.78482">
        <ele>927</ele>
        <time>2020-08-07T08:11:13Z</time>
      </trkpt>
      <trkpt lat="45.62905" lon="6.78479">
        <ele>927.3</ele>
        <time>2020-08-07T08:11:14Z</time>
      </trkpt>
      <trkpt lat="45.62899" lon="6.78473">
        <ele>927.8</ele>
        <time>2020-08-07T08:11:15Z</time>
      </trkpt>
      <trkpt lat="45.62896" lon="6.78469">
        <ele>928.1</ele>
        <time>2020-08-07T08:11:17Z</time>
      </trkpt>
      <trkpt lat="45.62892" lon="6.7846">
        <ele>928.6</ele>
        <time>2020-08-07T08:11:19Z</time>
      </trkpt>
      <trkpt lat="45.62889" lon="6.78451">
        <ele>929.2</ele>
        <time>2020-08-07T08:11:20Z</time>
      </trkpt>
      <trkpt lat="45.62887" lon="6.7844">
        <ele>929.8</ele>
        <time>2020-08-07T08:11:22Z</time>
      </trkpt>
      <trkpt lat="45.62886" lon="6.78434">
        <ele>930.1</ele>
        <time>2020-08-07T08:11:24Z</time>
      </trkpt>
      <trkpt lat="45.62885" lon="6.78429">
        <ele>930.4</ele>
        <time>2020-08-07T08:11:25Z</time>
      </trkpt>
      <trkpt lat="45.62884" lon="6.78417">
        <ele>931.1</ele>
        <time>2020-08-07T08:11:27Z</time>
      </trkpt>
      <trkpt lat="45.62883" lon="6.78408">
        <ele>931.6</ele>
        <time>2020-08-07T08:11:30Z</time>
      </trkpt>
      <trkpt lat="45.62882" lon="6.78399">
        <ele>932.1</ele>
        <time>2020-08-07T08:11:31Z</time>
      </trkpt>
      <trkpt lat="45.62881" lon="6.78394">
        <ele>932.4</ele>
        <time>2020-08-07T08:11:32Z</time>
      </trkpt>
      <trkpt lat="45.62881" lon="6.78388">
        <ele>932.7</ele>
        <time>2020-08-07T08:11:34Z</time>
      </trkpt>
      <trkpt lat="45.6288" lon="6.78382">
        <ele>933</ele>
        <time>2020-08-07T08:11:35Z</time>
      </trkpt>
      <trkpt lat="45.6288" lon="6.78377">
        <ele>933.3</ele>
        <time>2020-08-07T08:11:36Z</time>
      </trkpt>
      <trkpt lat="45.62879" lon="6.78373">
        <ele>933.6</ele>
        <time>2020-08-07T08:11:37Z</time>
      </trkpt>
      <trkpt lat="45.62878" lon="6.78365">
        <ele>934.1</ele>
        <time>2020-08-07T08:11:38Z</time>
      </trkpt>
      <trkpt lat="45.62879" lon="6.78352">
        <ele>934.9</ele>
        <time>2020-08-07T08:11:40Z</time>
      </trkpt>
      <trkpt lat="45.62879" lon="6.78345">
        <ele>935.3</ele>
        <time>2020-08-07T08:11:42Z</time>
      </trkpt>
      <trkpt lat="45.62879" lon="6.78338">
        <ele>935.7</ele>
        <time>2020-08-07T08:11:43Z</time>
      </trkpt>
      <trkpt lat="45.6288" lon="6.78332">
        <ele>936.5</ele>
        <time>2020-08-07T08:11:45Z</time>
      </trkpt>
      <trkpt lat="45.62882" lon="6.78327">
        <ele>937.5</ele>
        <time>2020-08-07T08:11:46Z</time>
      </trkpt>
      <trkpt lat="45.62884" lon="6.78322">
        <ele>938.5</ele>
        <time>2020-08-07T08:11:47Z</time>
      </trkpt>
      <trkpt lat="45.62886" lon="6.78319">
        <ele>939.4</ele>
        <time>2020-08-07T08:11:49Z</time>
      </trkpt>
      <trkpt lat="45.62897" lon="6.78308">
        <ele>942.8</ele>
        <time>2020-08-07T08:11:51Z</time>
      </trkpt>
      <trkpt lat="45.62901" lon="6.78304">
        <ele>944</ele>
        <time>2020-08-07T08:11:53Z</time>
      </trkpt>
      <trkpt lat="45.62909" lon="6.78299">
        <ele>945.6</ele>
        <time>2020-08-07T08:11:55Z</time>
      </trkpt>
      <trkpt lat="45.62914" lon="6.78298">
        <ele>946.1</ele>
        <time>2020-08-07T08:11:57Z</time>
      </trkpt>
      <trkpt lat="45.62917" lon="6.783">
        <ele>946.4</ele>
        <time>2020-08-07T08:11:59Z</time>
      </trkpt>
      <trkpt lat="45.6292" lon="6.78302">
        <ele>946.7</ele>
        <time>2020-08-07T08:12:00Z</time>
      </trkpt>
      <trkpt lat="45.62925" lon="6.78306">
        <ele>947.3</ele>
        <time>2020-08-07T08:12:01Z</time>
      </trkpt>
      <trkpt lat="45.62928" lon="6.78309">
        <ele>947.7</ele>
        <time>2020-08-07T08:12:03Z</time>
      </trkpt>
      <trkpt lat="45.62936" lon="6.78318">
        <ele>948.2</ele>
        <time>2020-08-07T08:12:05Z</time>
      </trkpt>
      <trkpt lat="45.62939" lon="6.78322">
        <ele>948.3</ele>
        <time>2020-08-07T08:12:07Z</time>
      </trkpt>
      <trkpt lat="45.62945" lon="6.78328">
        <ele>948.5</ele>
        <time>2020-08-07T08:12:09Z</time>
      </trkpt>
      <trkpt lat="45.62949" lon="6.78331">
        <ele>948.6</ele>
        <time>2020-08-07T08:12:10Z</time>
      </trkpt>
      <trkpt lat="45.62953" lon="6.78335">
        <ele>948.8</ele>
        <time>2020-08-07T08:12:12Z</time>
      </trkpt>
      <trkpt lat="45.62958" lon="6.78339">
        <ele>949</ele>
        <time>2020-08-07T08:12:14Z</time>
      </trkpt>
      <trkpt lat="45.62962" lon="6.78343">
        <ele>949.2</ele>
        <time>2020-08-07T08:12:15Z</time>
      </trkpt>
      <trkpt lat="45.62966" lon="6.78347">
        <ele>949.3</ele>
        <time>2020-08-07T08:12:18Z</time>
      </trkpt>
      <trkpt lat="45.62969" lon="6.7835">
        <ele>949.5</ele>
        <time>2020-08-07T08:12:19Z</time>
      </trkpt>
      <trkpt lat="45.62973" lon="6.78354">
        <ele>949.7</ele>
        <time>2020-08-07T08:12:20Z</time>
      </trkpt>
      <trkpt lat="45.62976" lon="6.78356">
        <ele>949.8</ele>
        <time>2020-08-07T08:12:21Z</time>
      </trkpt>
      <trkpt lat="45.62978" lon="6.78359">
        <ele>949.9</ele>
        <time>2020-08-07T08:12:22Z</time>
      </trkpt>
      <trkpt lat="45.62981" lon="6.78362">
        <ele>950</ele>
        <time>2020-08-07T08:12:23Z</time>
      </trkpt>
      <trkpt lat="45.62986" lon="6.78367">
        <ele>950.2</ele>
        <time>2020-08-07T08:12:25Z</time>
      </trkpt>
      <trkpt lat="45.6299" lon="6.78369">
        <ele>950.4</ele>
        <time>2020-08-07T08:12:26Z</time>
      </trkpt>
      <trkpt lat="45.62994" lon="6.78372">
        <ele>950.6</ele>
        <time>2020-08-07T08:12:27Z</time>
      </trkpt>
      <trkpt lat="45.63001" lon="6.78378">
        <ele>950.9</ele>
        <time>2020-08-07T08:12:30Z</time>
      </trkpt>
      <trkpt lat="45.63004" lon="6.7838">
        <ele>951</ele>
        <time>2020-08-07T08:12:31Z</time>
      </trkpt>
      <trkpt lat="45.63009" lon="6.78383">
        <ele>951.2</ele>
        <time>2020-08-07T08:12:33Z</time>
      </trkpt>
      <trkpt lat="45.63015" lon="6.78387">
        <ele>951.4</ele>
        <time>2020-08-07T08:12:34Z</time>
      </trkpt>
      <trkpt lat="45.6302" lon="6.78389">
        <ele>951.5</ele>
        <time>2020-08-07T08:12:35Z</time>
      </trkpt>
      <trkpt lat="45.63026" lon="6.78392">
        <ele>951.6</ele>
        <time>2020-08-07T08:12:37Z</time>
      </trkpt>
      <trkpt lat="45.63031" lon="6.78395">
        <ele>951.8</ele>
        <time>2020-08-07T08:12:39Z</time>
      </trkpt>
      <trkpt lat="45.63034" lon="6.78397">
        <ele>951.9</ele>
        <time>2020-08-07T08:12:40Z</time>
      </trkpt>
      <trkpt lat="45.63039" lon="6.78399">
        <ele>952</ele>
        <time>2020-08-07T08:12:41Z</time>
      </trkpt>
      <trkpt lat="45.63045" lon="6.78403">
        <ele>952.2</ele>
        <time>2020-08-07T08:12:42Z</time>
      </trkpt>
      <trkpt lat="45.63052" lon="6.78406">
        <ele>952.4</ele>
        <time>2020-08-07T08:12:43Z</time>
      </trkpt>
      <trkpt lat="45.63058" lon="6.78408">
        <ele>952.5</ele>
        <time>2020-08-07T08:12:45Z</time>
      </trkpt>
      <trkpt lat="45.63068" lon="6.78413">
        <ele>952.8</ele>
        <time>2020-08-07T08:12:47Z</time>
      </trkpt>
      <trkpt lat="45.63073" lon="6.78415">
        <ele>952.9</ele>
        <time>2020-08-07T08:12:48Z</time>
      </trkpt>
      <trkpt lat="45.63077" lon="6.78417">
        <ele>952.9</ele>
        <time>2020-08-07T08:12:50Z</time>
      </trkpt>
      <trkpt lat="45.63082" lon="6.78419">
        <ele>953</ele>
        <time>2020-08-07T08:12:51Z</time>
      </trkpt>
      <trkpt lat="45.63087" lon="6.7842">
        <ele>953.1</ele>
        <time>2020-08-07T08:12:53Z</time>
      </trkpt>
      <trkpt lat="45.63093" lon="6.78421">
        <ele>953.2</ele>
        <time>2020-08-07T08:12:54Z</time>
      </trkpt>
      <trkpt lat="45.63103" lon="6.78424">
        <ele>953.4</ele>
        <time>2020-08-07T08:12:56Z</time>
      </trkpt>
      <trkpt lat="45.63111" lon="6.78428">
        <ele>953.5</ele>
        <time>2020-08-07T08:12:58Z</time>
      </trkpt>
      <trkpt lat="45.63117" lon="6.78431">
        <ele>953.6</ele>
        <time>2020-08-07T08:12:59Z</time>
      </trkpt>
      <trkpt lat="45.63125" lon="6.78429">
        <ele>953.7</ele>
        <time>2020-08-07T08:13:01Z</time>
      </trkpt>
      <trkpt lat="45.63134" lon="6.78429">
        <ele>953.9</ele>
        <time>2020-08-07T08:13:03Z</time>
      </trkpt>
      <trkpt lat="45.63144" lon="6.78427">
        <ele>954</ele>
        <time>2020-08-07T08:13:05Z</time>
      </trkpt>
      <trkpt lat="45.63148" lon="6.78427">
        <ele>954</ele>
        <time>2020-08-07T08:13:06Z</time>
      </trkpt>
      <trkpt lat="45.63153" lon="6.78426">
        <ele>954.2</ele>
        <time>2020-08-07T08:13:07Z</time>
      </trkpt>
      <trkpt lat="45.63162" lon="6.78426">
        <ele>955</ele>
        <time>2020-08-07T08:13:09Z</time>
      </trkpt>
      <trkpt lat="45.63168" lon="6.78425">
        <ele>955.4</ele>
        <time>2020-08-07T08:13:10Z</time>
      </trkpt>
      <trkpt lat="45.63178" lon="6.78423">
        <ele>956</ele>
        <time>2020-08-07T08:13:12Z</time>
      </trkpt>
      <trkpt lat="45.63189" lon="6.78421">
        <ele>956.5</ele>
        <time>2020-08-07T08:13:14Z</time>
      </trkpt>
      <trkpt lat="45.632" lon="6.78419">
        <ele>957.1</ele>
        <time>2020-08-07T08:13:16Z</time>
      </trkpt>
      <trkpt lat="45.63205" lon="6.78419">
        <ele>957.4</ele>
        <time>2020-08-07T08:13:17Z</time>
      </trkpt>
      <trkpt lat="45.63216" lon="6.78419">
        <ele>957.9</ele>
        <time>2020-08-07T08:13:19Z</time>
      </trkpt>
      <trkpt lat="45.63222" lon="6.7842">
        <ele>958.2</ele>
        <time>2020-08-07T08:13:20Z</time>
      </trkpt>
      <trkpt lat="45.63233" lon="6.78422">
        <ele>958.7</ele>
        <time>2020-08-07T08:13:22Z</time>
      </trkpt>
      <trkpt lat="45.63246" lon="6.78428">
        <ele>959.1</ele>
        <time>2020-08-07T08:13:24Z</time>
      </trkpt>
      <trkpt lat="45.63252" lon="6.78434">
        <ele>959.4</ele>
        <time>2020-08-07T08:13:25Z</time>
      </trkpt>
      <trkpt lat="45.63264" lon="6.78447">
        <ele>959.8</ele>
        <time>2020-08-07T08:13:27Z</time>
      </trkpt>
      <trkpt lat="45.63276" lon="6.78462">
        <ele>960.3</ele>
        <time>2020-08-07T08:13:29Z</time>
      </trkpt>
      <trkpt lat="45.63282" lon="6.78468">
        <ele>960.6</ele>
        <time>2020-08-07T08:13:30Z</time>
      </trkpt>
      <trkpt lat="45.63289" lon="6.78473">
        <ele>960.9</ele>
        <time>2020-08-07T08:13:31Z</time>
      </trkpt>
      <trkpt lat="45.63303" lon="6.78483">
        <ele>961.5</ele>
        <time>2020-08-07T08:13:33Z</time>
      </trkpt>
      <trkpt lat="45.6331" lon="6.78488">
        <ele>961.9</ele>
        <time>2020-08-07T08:13:34Z</time>
      </trkpt>
      <trkpt lat="45.63323" lon="6.78498">
        <ele>962.7</ele>
        <time>2020-08-07T08:13:36Z</time>
      </trkpt>
      <trkpt lat="45.63337" lon="6.78506">
        <ele>963.6</ele>
        <time>2020-08-07T08:13:38Z</time>
      </trkpt>
      <trkpt lat="45.63351" lon="6.78511">
        <ele>964.5</ele>
        <time>2020-08-07T08:13:40Z</time>
      </trkpt>
      <trkpt lat="45.63357" lon="6.78514">
        <ele>965</ele>
        <time>2020-08-07T08:13:41Z</time>
      </trkpt>
      <trkpt lat="45.6337" lon="6.78523">
        <ele>966.2</ele>
        <time>2020-08-07T08:13:43Z</time>
      </trkpt>
      <trkpt lat="45.63381" lon="6.78532">
        <ele>967.3</ele>
        <time>2020-08-07T08:13:45Z</time>
      </trkpt>
      <trkpt lat="45.63387" lon="6.78537">
        <ele>967.8</ele>
        <time>2020-08-07T08:13:46Z</time>
      </trkpt>
      <trkpt lat="45.63396" lon="6.78546">
        <ele>968.7</ele>
        <time>2020-08-07T08:13:48Z</time>
      </trkpt>
      <trkpt lat="45.63407" lon="6.78552">
        <ele>969.5</ele>
        <time>2020-08-07T08:13:50Z</time>
      </trkpt>
      <trkpt lat="45.63418" lon="6.78554">
        <ele>970.3</ele>
        <time>2020-08-07T08:13:52Z</time>
      </trkpt>
      <trkpt lat="45.63423" lon="6.78554">
        <ele>970.7</ele>
        <time>2020-08-07T08:13:53Z</time>
      </trkpt>
      <trkpt lat="45.63429" lon="6.78554">
        <ele>971.1</ele>
        <time>2020-08-07T08:13:54Z</time>
      </trkpt>
      <trkpt lat="45.63434" lon="6.78553">
        <ele>971.4</ele>
        <time>2020-08-07T08:13:55Z</time>
      </trkpt>
      <trkpt lat="45.63445" lon="6.7855">
        <ele>972</ele>
        <time>2020-08-07T08:13:57Z</time>
      </trkpt>
      <trkpt lat="45.6345" lon="6.78548">
        <ele>972.3</ele>
        <time>2020-08-07T08:13:58Z</time>
      </trkpt>
      <trkpt lat="45.63456" lon="6.78546">
        <ele>972.5</ele>
        <time>2020-08-07T08:13:59Z</time>
      </trkpt>
      <trkpt lat="45.63461" lon="6.78545">
        <ele>972.6</ele>
        <time>2020-08-07T08:14:00Z</time>
      </trkpt>
      <trkpt lat="45.63467" lon="6.78545">
        <ele>972.7</ele>
        <time>2020-08-07T08:14:01Z</time>
      </trkpt>
      <trkpt lat="45.63481" lon="6.7855">
        <ele>972.9</ele>
        <time>2020-08-07T08:14:03Z</time>
      </trkpt>
      <trkpt lat="45.63495" lon="6.78554">
        <ele>973.2</ele>
        <time>2020-08-07T08:14:05Z</time>
      </trkpt>
      <trkpt lat="45.6351" lon="6.78555">
        <ele>973.7</ele>
        <time>2020-08-07T08:14:07Z</time>
      </trkpt>
      <trkpt lat="45.63517" lon="6.78556">
        <ele>973.9</ele>
        <time>2020-08-07T08:14:08Z</time>
      </trkpt>
      <trkpt lat="45.63531" lon="6.78558">
        <ele>974.5</ele>
        <time>2020-08-07T08:14:10Z</time>
      </trkpt>
      <trkpt lat="45.63545" lon="6.7856">
        <ele>975.2</ele>
        <time>2020-08-07T08:14:12Z</time>
      </trkpt>
      <trkpt lat="45.63551" lon="6.78561">
        <ele>975.6</ele>
        <time>2020-08-07T08:14:13Z</time>
      </trkpt>
      <trkpt lat="45.63565" lon="6.7856">
        <ele>976.4</ele>
        <time>2020-08-07T08:14:15Z</time>
      </trkpt>
      <trkpt lat="45.63571" lon="6.78558">
        <ele>976.8</ele>
        <time>2020-08-07T08:14:16Z</time>
      </trkpt>
      <trkpt lat="45.63578" lon="6.78556">
        <ele>977.2</ele>
        <time>2020-08-07T08:14:17Z</time>
      </trkpt>
      <trkpt lat="45.63589" lon="6.7855">
        <ele>978.1</ele>
        <time>2020-08-07T08:14:19Z</time>
      </trkpt>
      <trkpt lat="45.63599" lon="6.78545">
        <ele>979.1</ele>
        <time>2020-08-07T08:14:21Z</time>
      </trkpt>
      <trkpt lat="45.63608" lon="6.7854">
        <ele>980</ele>
        <time>2020-08-07T08:14:23Z</time>
      </trkpt>
      <trkpt lat="45.63617" lon="6.78539">
        <ele>980.9</ele>
        <time>2020-08-07T08:14:25Z</time>
      </trkpt>
      <trkpt lat="45.63621" lon="6.78538">
        <ele>981.2</ele>
        <time>2020-08-07T08:14:26Z</time>
      </trkpt>
      <trkpt lat="45.6363" lon="6.78538">
        <ele>982.1</ele>
        <time>2020-08-07T08:14:28Z</time>
      </trkpt>
      <trkpt lat="45.6364" lon="6.78536">
        <ele>983</ele>
        <time>2020-08-07T08:14:30Z</time>
      </trkpt>
      <trkpt lat="45.63645" lon="6.78535">
        <ele>983.4</ele>
        <time>2020-08-07T08:14:31Z</time>
      </trkpt>
      <trkpt lat="45.63649" lon="6.78534">
        <ele>983.8</ele>
        <time>2020-08-07T08:14:32Z</time>
      </trkpt>
      <trkpt lat="45.63658" lon="6.78529">
        <ele>984.6</ele>
        <time>2020-08-07T08:14:34Z</time>
      </trkpt>
      <trkpt lat="45.63662" lon="6.78524">
        <ele>985</ele>
        <time>2020-08-07T08:14:36Z</time>
      </trkpt>
      <trkpt lat="45.63665" lon="6.7852">
        <ele>985.4</ele>
        <time>2020-08-07T08:14:37Z</time>
      </trkpt>
      <trkpt lat="45.63675" lon="6.78509">
        <ele>986.2</ele>
        <time>2020-08-07T08:14:39Z</time>
      </trkpt>
      <trkpt lat="45.63684" lon="6.78501">
        <ele>986.8</ele>
        <time>2020-08-07T08:14:41Z</time>
      </trkpt>
      <trkpt lat="45.63693" lon="6.78495">
        <ele>987.3</ele>
        <time>2020-08-07T08:14:43Z</time>
      </trkpt>
      <trkpt lat="45.63698" lon="6.78493">
        <ele>987.5</ele>
        <time>2020-08-07T08:14:44Z</time>
      </trkpt>
      <trkpt lat="45.63703" lon="6.7849">
        <ele>987.8</ele>
        <time>2020-08-07T08:14:45Z</time>
      </trkpt>
      <trkpt lat="45.63708" lon="6.78487">
        <ele>987.9</ele>
        <time>2020-08-07T08:14:46Z</time>
      </trkpt>
      <trkpt lat="45.63718" lon="6.78482">
        <ele>987.9</ele>
        <time>2020-08-07T08:14:48Z</time>
      </trkpt>
      <trkpt lat="45.63728" lon="6.78477">
        <ele>987.9</ele>
        <time>2020-08-07T08:14:50Z</time>
      </trkpt>
      <trkpt lat="45.63739" lon="6.78472">
        <ele>987.9</ele>
        <time>2020-08-07T08:14:52Z</time>
      </trkpt>
      <trkpt lat="45.63745" lon="6.7847">
        <ele>987.9</ele>
        <time>2020-08-07T08:14:53Z</time>
      </trkpt>
      <trkpt lat="45.63757" lon="6.78466">
        <ele>988</ele>
        <time>2020-08-07T08:14:55Z</time>
      </trkpt>
      <trkpt lat="45.63769" lon="6.78463">
        <ele>988.2</ele>
        <time>2020-08-07T08:14:57Z</time>
      </trkpt>
      <trkpt lat="45.63775" lon="6.78461">
        <ele>988.3</ele>
        <time>2020-08-07T08:14:58Z</time>
      </trkpt>
      <trkpt lat="45.63787" lon="6.78458">
        <ele>988.6</ele>
        <time>2020-08-07T08:15:00Z</time>
      </trkpt>
      <trkpt lat="45.63792" lon="6.78456">
        <ele>988.7</ele>
        <time>2020-08-07T08:15:01Z</time>
      </trkpt>
      <trkpt lat="45.63798" lon="6.78455">
        <ele>988.9</ele>
        <time>2020-08-07T08:15:02Z</time>
      </trkpt>
      <trkpt lat="45.63809" lon="6.78457">
        <ele>989.1</ele>
        <time>2020-08-07T08:15:04Z</time>
      </trkpt>
      <trkpt lat="45.63814" lon="6.78459">
        <ele>989.2</ele>
        <time>2020-08-07T08:15:05Z</time>
      </trkpt>
      <trkpt lat="45.63824" lon="6.78463">
        <ele>989.4</ele>
        <time>2020-08-07T08:15:07Z</time>
      </trkpt>
      <trkpt lat="45.63834" lon="6.78463">
        <ele>989.5</ele>
        <time>2020-08-07T08:15:09Z</time>
      </trkpt>
      <trkpt lat="45.63845" lon="6.78462">
        <ele>989.7</ele>
        <time>2020-08-07T08:15:11Z</time>
      </trkpt>
      <trkpt lat="45.6385" lon="6.78462">
        <ele>989.8</ele>
        <time>2020-08-07T08:15:12Z</time>
      </trkpt>
      <trkpt lat="45.63855" lon="6.78461">
        <ele>989.9</ele>
        <time>2020-08-07T08:15:13Z</time>
      </trkpt>
      <trkpt lat="45.63866" lon="6.78458">
        <ele>990</ele>
        <time>2020-08-07T08:15:15Z</time>
      </trkpt>
      <trkpt lat="45.63876" lon="6.78454">
        <ele>990.2</ele>
        <time>2020-08-07T08:15:17Z</time>
      </trkpt>
      <trkpt lat="45.6388" lon="6.78452">
        <ele>990.3</ele>
        <time>2020-08-07T08:15:18Z</time>
      </trkpt>
      <trkpt lat="45.6389" lon="6.7845">
        <ele>990.4</ele>
        <time>2020-08-07T08:15:20Z</time>
      </trkpt>
      <trkpt lat="45.639" lon="6.78449">
        <ele>990.4</ele>
        <time>2020-08-07T08:15:22Z</time>
      </trkpt>
      <trkpt lat="45.63905" lon="6.7845">
        <ele>990.3</ele>
        <time>2020-08-07T08:15:23Z</time>
      </trkpt>
      <trkpt lat="45.63915" lon="6.78456">
        <ele>990.1</ele>
        <time>2020-08-07T08:15:25Z</time>
      </trkpt>
      <trkpt lat="45.6392" lon="6.78461">
        <ele>989.9</ele>
        <time>2020-08-07T08:15:26Z</time>
      </trkpt>
      <trkpt lat="45.6393" lon="6.78472">
        <ele>989.4</ele>
        <time>2020-08-07T08:15:28Z</time>
      </trkpt>
      <trkpt lat="45.63935" lon="6.78478">
        <ele>989.1</ele>
        <time>2020-08-07T08:15:29Z</time>
      </trkpt>
      <trkpt lat="45.63949" lon="6.78487">
        <ele>988.3</ele>
        <time>2020-08-07T08:15:31Z</time>
      </trkpt>
      <trkpt lat="45.63964" lon="6.78496">
        <ele>987.8</ele>
        <time>2020-08-07T08:15:33Z</time>
      </trkpt>
      <trkpt lat="45.63972" lon="6.78501">
        <ele>988.2</ele>
        <time>2020-08-07T08:15:34Z</time>
      </trkpt>
      <trkpt lat="45.63989" lon="6.7851">
        <ele>986.2</ele>
        <time>2020-08-07T08:15:36Z</time>
      </trkpt>
      <trkpt lat="45.63997" lon="6.78513">
        <ele>986</ele>
        <time>2020-08-07T08:15:37Z</time>
      </trkpt>
      <trkpt lat="45.64006" lon="6.78514">
        <ele>985.9</ele>
        <time>2020-08-07T08:15:38Z</time>
      </trkpt>
      <trkpt lat="45.64023" lon="6.78513">
        <ele>986</ele>
        <time>2020-08-07T08:15:40Z</time>
      </trkpt>
      <trkpt lat="45.6404" lon="6.78514">
        <ele>986.3</ele>
        <time>2020-08-07T08:15:42Z</time>
      </trkpt>
      <trkpt lat="45.64049" lon="6.78517">
        <ele>986.5</ele>
        <time>2020-08-07T08:15:43Z</time>
      </trkpt>
      <trkpt lat="45.64064" lon="6.78526">
        <ele>986.8</ele>
        <time>2020-08-07T08:15:45Z</time>
      </trkpt>
      <trkpt lat="45.64079" lon="6.78535">
        <ele>987.2</ele>
        <time>2020-08-07T08:15:47Z</time>
      </trkpt>
      <trkpt lat="45.64093" lon="6.78544">
        <ele>987.5</ele>
        <time>2020-08-07T08:15:49Z</time>
      </trkpt>
      <trkpt lat="45.64107" lon="6.78552">
        <ele>987.9</ele>
        <time>2020-08-07T08:15:51Z</time>
      </trkpt>
      <trkpt lat="45.64114" lon="6.78556">
        <ele>988.2</ele>
        <time>2020-08-07T08:15:52Z</time>
      </trkpt>
      <trkpt lat="45.64127" lon="6.78567">
        <ele>988.6</ele>
        <time>2020-08-07T08:15:54Z</time>
      </trkpt>
      <trkpt lat="45.64138" lon="6.78579">
        <ele>989.2</ele>
        <time>2020-08-07T08:15:56Z</time>
      </trkpt>
      <trkpt lat="45.64143" lon="6.78585">
        <ele>989.5</ele>
        <time>2020-08-07T08:15:57Z</time>
      </trkpt>
      <trkpt lat="45.64153" lon="6.78597">
        <ele>990</ele>
        <time>2020-08-07T08:15:59Z</time>
      </trkpt>
      <trkpt lat="45.64159" lon="6.78602">
        <ele>990.4</ele>
        <time>2020-08-07T08:16:00Z</time>
      </trkpt>
      <trkpt lat="45.64169" lon="6.78612">
        <ele>990.9</ele>
        <time>2020-08-07T08:16:02Z</time>
      </trkpt>
      <trkpt lat="45.64179" lon="6.78619">
        <ele>991.5</ele>
        <time>2020-08-07T08:16:04Z</time>
      </trkpt>
      <trkpt lat="45.64184" lon="6.78622">
        <ele>991.8</ele>
        <time>2020-08-07T08:16:05Z</time>
      </trkpt>
      <trkpt lat="45.64189" lon="6.78625">
        <ele>992</ele>
        <time>2020-08-07T08:16:06Z</time>
      </trkpt>
      <trkpt lat="45.64199" lon="6.78629">
        <ele>992.5</ele>
        <time>2020-08-07T08:16:08Z</time>
      </trkpt>
      <trkpt lat="45.6421" lon="6.7863">
        <ele>993</ele>
        <time>2020-08-07T08:16:10Z</time>
      </trkpt>
      <trkpt lat="45.64222" lon="6.7863">
        <ele>993.6</ele>
        <time>2020-08-07T08:16:12Z</time>
      </trkpt>
      <trkpt lat="45.64233" lon="6.7863">
        <ele>994.1</ele>
        <time>2020-08-07T08:16:14Z</time>
      </trkpt>
      <trkpt lat="45.64239" lon="6.7863">
        <ele>994.4</ele>
        <time>2020-08-07T08:16:15Z</time>
      </trkpt>
      <trkpt lat="45.64252" lon="6.78629">
        <ele>995</ele>
        <time>2020-08-07T08:16:17Z</time>
      </trkpt>
      <trkpt lat="45.64258" lon="6.78629">
        <ele>995.3</ele>
        <time>2020-08-07T08:16:18Z</time>
      </trkpt>
      <trkpt lat="45.64264" lon="6.78628">
        <ele>995.6</ele>
        <time>2020-08-07T08:16:19Z</time>
      </trkpt>
      <trkpt lat="45.64275" lon="6.78627">
        <ele>996.1</ele>
        <time>2020-08-07T08:16:21Z</time>
      </trkpt>
      <trkpt lat="45.64286" lon="6.78627">
        <ele>996.6</ele>
        <time>2020-08-07T08:16:23Z</time>
      </trkpt>
      <trkpt lat="45.64292" lon="6.78626">
        <ele>996.8</ele>
        <time>2020-08-07T08:16:24Z</time>
      </trkpt>
      <trkpt lat="45.64304" lon="6.78626">
        <ele>997.3</ele>
        <time>2020-08-07T08:16:26Z</time>
      </trkpt>
      <trkpt lat="45.64316" lon="6.78626">
        <ele>997.7</ele>
        <time>2020-08-07T08:16:28Z</time>
      </trkpt>
      <trkpt lat="45.64328" lon="6.78628">
        <ele>998.3</ele>
        <time>2020-08-07T08:16:30Z</time>
      </trkpt>
      <trkpt lat="45.64339" lon="6.7863">
        <ele>998.8</ele>
        <time>2020-08-07T08:16:32Z</time>
      </trkpt>
      <trkpt lat="45.64344" lon="6.78631">
        <ele>999.1</ele>
        <time>2020-08-07T08:16:33Z</time>
      </trkpt>
      <trkpt lat="45.64356" lon="6.7863">
        <ele>999.6</ele>
        <time>2020-08-07T08:16:35Z</time>
      </trkpt>
      <trkpt lat="45.64362" lon="6.78629">
        <ele>999.9</ele>
        <time>2020-08-07T08:16:36Z</time>
      </trkpt>
      <trkpt lat="45.64373" lon="6.78628">
        <ele>1000.5</ele>
        <time>2020-08-07T08:16:38Z</time>
      </trkpt>
      <trkpt lat="45.64378" lon="6.78628">
        <ele>1000.7</ele>
        <time>2020-08-07T08:16:39Z</time>
      </trkpt>
      <trkpt lat="45.64388" lon="6.78628">
        <ele>1001.2</ele>
        <time>2020-08-07T08:16:41Z</time>
      </trkpt>
      <trkpt lat="45.64393" lon="6.78628">
        <ele>1001.4</ele>
        <time>2020-08-07T08:16:42Z</time>
      </trkpt>
      <trkpt lat="45.64398" lon="6.78628">
        <ele>1001.6</ele>
        <time>2020-08-07T08:16:43Z</time>
      </trkpt>
      <trkpt lat="45.64409" lon="6.78627">
        <ele>1002</ele>
        <time>2020-08-07T08:16:45Z</time>
      </trkpt>
      <trkpt lat="45.64414" lon="6.78627">
        <ele>1002.2</ele>
        <time>2020-08-07T08:16:46Z</time>
      </trkpt>
      <trkpt lat="45.6442" lon="6.78626">
        <ele>1002.5</ele>
        <time>2020-08-07T08:16:47Z</time>
      </trkpt>
      <trkpt lat="45.64431" lon="6.78624">
        <ele>1002.9</ele>
        <time>2020-08-07T08:16:49Z</time>
      </trkpt>
      <trkpt lat="45.64437" lon="6.78622">
        <ele>1003.2</ele>
        <time>2020-08-07T08:16:50Z</time>
      </trkpt>
      <trkpt lat="45.64443" lon="6.7862">
        <ele>1003.4</ele>
        <time>2020-08-07T08:16:51Z</time>
      </trkpt>
      <trkpt lat="45.64455" lon="6.78616">
        <ele>1003.9</ele>
        <time>2020-08-07T08:16:53Z</time>
      </trkpt>
      <trkpt lat="45.64466" lon="6.78612">
        <ele>1004.3</ele>
        <time>2020-08-07T08:16:55Z</time>
      </trkpt>
      <trkpt lat="45.64477" lon="6.7861">
        <ele>1004.7</ele>
        <time>2020-08-07T08:16:57Z</time>
      </trkpt>
      <trkpt lat="45.64483" lon="6.7861">
        <ele>1004.9</ele>
        <time>2020-08-07T08:16:58Z</time>
      </trkpt>
      <trkpt lat="45.64488" lon="6.7861">
        <ele>1005</ele>
        <time>2020-08-07T08:16:59Z</time>
      </trkpt>
      <trkpt lat="45.64498" lon="6.7861">
        <ele>1005.3</ele>
        <time>2020-08-07T08:17:01Z</time>
      </trkpt>
      <trkpt lat="45.64508" lon="6.78609">
        <ele>1005.7</ele>
        <time>2020-08-07T08:17:03Z</time>
      </trkpt>
      <trkpt lat="45.64514" lon="6.78609">
        <ele>1005.9</ele>
        <time>2020-08-07T08:17:04Z</time>
      </trkpt>
      <trkpt lat="45.64523" lon="6.7861">
        <ele>1006.1</ele>
        <time>2020-08-07T08:17:06Z</time>
      </trkpt>
      <trkpt lat="45.64533" lon="6.7861">
        <ele>1006.4</ele>
        <time>2020-08-07T08:17:08Z</time>
      </trkpt>
      <trkpt lat="45.64543" lon="6.78607">
        <ele>1006.7</ele>
        <time>2020-08-07T08:17:10Z</time>
      </trkpt>
      <trkpt lat="45.64554" lon="6.78606">
        <ele>1007</ele>
        <time>2020-08-07T08:17:12Z</time>
      </trkpt>
      <trkpt lat="45.64565" lon="6.78607">
        <ele>1007.3</ele>
        <time>2020-08-07T08:17:14Z</time>
      </trkpt>
      <trkpt lat="45.64575" lon="6.7861">
        <ele>1007.6</ele>
        <time>2020-08-07T08:17:16Z</time>
      </trkpt>
      <trkpt lat="45.6458" lon="6.78612">
        <ele>1007.7</ele>
        <time>2020-08-07T08:17:17Z</time>
      </trkpt>
      <trkpt lat="45.64585" lon="6.78614">
        <ele>1007.9</ele>
        <time>2020-08-07T08:17:18Z</time>
      </trkpt>
      <trkpt lat="45.64591" lon="6.78615">
        <ele>1008</ele>
        <time>2020-08-07T08:17:19Z</time>
      </trkpt>
      <trkpt lat="45.64603" lon="6.78617">
        <ele>1008.2</ele>
        <time>2020-08-07T08:17:21Z</time>
      </trkpt>
      <trkpt lat="45.64609" lon="6.78617">
        <ele>1008.3</ele>
        <time>2020-08-07T08:17:22Z</time>
      </trkpt>
      <trkpt lat="45.64621" lon="6.78621">
        <ele>1008.4</ele>
        <time>2020-08-07T08:17:24Z</time>
      </trkpt>
      <trkpt lat="45.64633" lon="6.78624">
        <ele>1008.6</ele>
        <time>2020-08-07T08:17:26Z</time>
      </trkpt>
      <trkpt lat="45.64645" lon="6.78626">
        <ele>1008.8</ele>
        <time>2020-08-07T08:17:28Z</time>
      </trkpt>
      <trkpt lat="45.64657" lon="6.78626">
        <ele>1009.1</ele>
        <time>2020-08-07T08:17:30Z</time>
      </trkpt>
      <trkpt lat="45.64663" lon="6.78626">
        <ele>1009.2</ele>
        <time>2020-08-07T08:17:31Z</time>
      </trkpt>
      <trkpt lat="45.64668" lon="6.78625">
        <ele>1009.4</ele>
        <time>2020-08-07T08:17:32Z</time>
      </trkpt>
      <trkpt lat="45.6468" lon="6.78624">
        <ele>1009.8</ele>
        <time>2020-08-07T08:17:34Z</time>
      </trkpt>
      <trkpt lat="45.64686" lon="6.78622">
        <ele>1010</ele>
        <time>2020-08-07T08:17:35Z</time>
      </trkpt>
      <trkpt lat="45.64698" lon="6.78622">
        <ele>1010.5</ele>
        <time>2020-08-07T08:17:37Z</time>
      </trkpt>
      <trkpt lat="45.6471" lon="6.78624">
        <ele>1011.1</ele>
        <time>2020-08-07T08:17:39Z</time>
      </trkpt>
      <trkpt lat="45.64721" lon="6.78626">
        <ele>1011.8</ele>
        <time>2020-08-07T08:17:41Z</time>
      </trkpt>
      <trkpt lat="45.6473" lon="6.7863">
        <ele>1012.4</ele>
        <time>2020-08-07T08:17:43Z</time>
      </trkpt>
      <trkpt lat="45.64735" lon="6.7863">
        <ele>1012.7</ele>
        <time>2020-08-07T08:17:44Z</time>
      </trkpt>
      <trkpt lat="45.64745" lon="6.78632">
        <ele>1013.3</ele>
        <time>2020-08-07T08:17:46Z</time>
      </trkpt>
      <trkpt lat="45.64754" lon="6.78636">
        <ele>1013.9</ele>
        <time>2020-08-07T08:17:48Z</time>
      </trkpt>
      <trkpt lat="45.64763" lon="6.7864">
        <ele>1014.5</ele>
        <time>2020-08-07T08:17:50Z</time>
      </trkpt>
      <trkpt lat="45.64772" lon="6.78644">
        <ele>1015</ele>
        <time>2020-08-07T08:17:52Z</time>
      </trkpt>
      <trkpt lat="45.6478" lon="6.78647">
        <ele>1015.5</ele>
        <time>2020-08-07T08:17:54Z</time>
      </trkpt>
      <trkpt lat="45.64784" lon="6.78649">
        <ele>1015.8</ele>
        <time>2020-08-07T08:17:55Z</time>
      </trkpt>
      <trkpt lat="45.64792" lon="6.78654">
        <ele>1016.3</ele>
        <time>2020-08-07T08:17:57Z</time>
      </trkpt>
      <trkpt lat="45.648" lon="6.78655">
        <ele>1016.8</ele>
        <time>2020-08-07T08:17:58Z</time>
      </trkpt>
      <trkpt lat="45.64803" lon="6.78654">
        <ele>1017</ele>
        <time>2020-08-07T08:17:59Z</time>
      </trkpt>
      <trkpt lat="45.64807" lon="6.78655">
        <ele>1017.4</ele>
        <time>2020-08-07T08:18:01Z</time>
      </trkpt>
      <trkpt lat="45.64816" lon="6.78659">
        <ele>1018</ele>
        <time>2020-08-07T08:18:03Z</time>
      </trkpt>
      <trkpt lat="45.64822" lon="6.78662">
        <ele>1018.5</ele>
        <time>2020-08-07T08:18:05Z</time>
      </trkpt>
      <trkpt lat="45.64828" lon="6.78667">
        <ele>1019.1</ele>
        <time>2020-08-07T08:18:07Z</time>
      </trkpt>
      <trkpt lat="45.64831" lon="6.78669">
        <ele>1019.4</ele>
        <time>2020-08-07T08:18:09Z</time>
      </trkpt>
      <trkpt lat="45.64832" lon="6.7867">
        <ele>1019.5</ele>
        <time>2020-08-07T08:18:10Z</time>
      </trkpt>
      <trkpt lat="45.64835" lon="6.78672">
        <ele>1019.7</ele>
        <time>2020-08-07T08:18:11Z</time>
      </trkpt>
      <trkpt lat="45.64836" lon="6.78673">
        <ele>1019.9</ele>
        <time>2020-08-07T08:18:12Z</time>
      </trkpt>
      <trkpt lat="45.64837" lon="6.78675">
        <ele>1020</ele>
        <time>2020-08-07T08:18:13Z</time>
      </trkpt>
      <trkpt lat="45.6484" lon="6.78678">
        <ele>1020.3</ele>
        <time>2020-08-07T08:18:15Z</time>
      </trkpt>
      <trkpt lat="45.64847" lon="6.78684">
        <ele>1020.8</ele>
        <time>2020-08-07T08:18:17Z</time>
      </trkpt>
      <trkpt lat="45.64851" lon="6.78687">
        <ele>1021.1</ele>
        <time>2020-08-07T08:18:19Z</time>
      </trkpt>
      <trkpt lat="45.64855" lon="6.7869">
        <ele>1021.4</ele>
        <time>2020-08-07T08:18:21Z</time>
      </trkpt>
      <trkpt lat="45.64857" lon="6.78691">
        <ele>1021.6</ele>
        <time>2020-08-07T08:18:22Z</time>
      </trkpt>
      <trkpt lat="45.64859" lon="6.78693">
        <ele>1021.7</ele>
        <time>2020-08-07T08:18:23Z</time>
      </trkpt>
      <trkpt lat="45.64863" lon="6.78696">
        <ele>1022</ele>
        <time>2020-08-07T08:18:25Z</time>
      </trkpt>
      <trkpt lat="45.64865" lon="6.78698">
        <ele>1022.2</ele>
        <time>2020-08-07T08:18:26Z</time>
      </trkpt>
      <trkpt lat="45.6487" lon="6.78702">
        <ele>1022.5</ele>
        <time>2020-08-07T08:18:29Z</time>
      </trkpt>
      <trkpt lat="45.64872" lon="6.78704">
        <ele>1022.7</ele>
        <time>2020-08-07T08:18:30Z</time>
      </trkpt>
      <trkpt lat="45.64877" lon="6.78708">
        <ele>1023.1</ele>
        <time>2020-08-07T08:18:31Z</time>
      </trkpt>
      <trkpt lat="45.64883" lon="6.78714">
        <ele>1023.7</ele>
        <time>2020-08-07T08:18:34Z</time>
      </trkpt>
      <trkpt lat="45.64887" lon="6.78718">
        <ele>1024.1</ele>
        <time>2020-08-07T08:18:36Z</time>
      </trkpt>
      <trkpt lat="45.6489" lon="6.78722">
        <ele>1024.5</ele>
        <time>2020-08-07T08:18:37Z</time>
      </trkpt>
      <trkpt lat="45.64894" lon="6.78725">
        <ele>1024.8</ele>
        <time>2020-08-07T08:18:39Z</time>
      </trkpt>
      <trkpt lat="45.64898" lon="6.7873">
        <ele>1025.2</ele>
        <time>2020-08-07T08:18:41Z</time>
      </trkpt>
      <trkpt lat="45.64937" lon="6.78757">
        <ele>1027</ele>
        <time>2020-08-07T08:18:43Z</time>
      </trkpt>
      <trkpt lat="45.64938" lon="6.78757">
        <ele>1027.1</ele>
        <time>2020-08-07T08:18:44Z</time>
      </trkpt>
      <trkpt lat="45.6494" lon="6.78757">
        <ele>1027.2</ele>
        <time>2020-08-07T08:18:45Z</time>
      </trkpt>
      <trkpt lat="45.64943" lon="6.78759">
        <ele>1027.3</ele>
        <time>2020-08-07T08:18:47Z</time>
      </trkpt>
      <trkpt lat="45.64943" lon="6.78761">
        <ele>1027.3</ele>
        <time>2020-08-07T08:18:48Z</time>
      </trkpt>
      <trkpt lat="45.64944" lon="6.78763">
        <ele>1027.4</ele>
        <time>2020-08-07T08:18:49Z</time>
      </trkpt>
      <trkpt lat="45.64946" lon="6.78765">
        <ele>1027.5</ele>
        <time>2020-08-07T08:18:50Z</time>
      </trkpt>
      <trkpt lat="45.64949" lon="6.78768">
        <ele>1027.6</ele>
        <time>2020-08-07T08:18:53Z</time>
      </trkpt>
      <trkpt lat="45.64957" lon="6.7877">
        <ele>1028</ele>
        <time>2020-08-07T08:18:54Z</time>
      </trkpt>
      <trkpt lat="45.64965" lon="6.78776">
        <ele>1028.4</ele>
        <time>2020-08-07T08:18:56Z</time>
      </trkpt>
      <trkpt lat="45.6497" lon="6.78778">
        <ele>1028.6</ele>
        <time>2020-08-07T08:18:57Z</time>
      </trkpt>
      <trkpt lat="45.64975" lon="6.78782">
        <ele>1028.9</ele>
        <time>2020-08-07T08:18:58Z</time>
      </trkpt>
      <trkpt lat="45.6498" lon="6.78785">
        <ele>1029.1</ele>
        <time>2020-08-07T08:18:59Z</time>
      </trkpt>
      <trkpt lat="45.64984" lon="6.78785">
        <ele>1029.4</ele>
        <time>2020-08-07T08:19:00Z</time>
      </trkpt>
      <trkpt lat="45.64988" lon="6.78787">
        <ele>1030</ele>
        <time>2020-08-07T08:19:02Z</time>
      </trkpt>
      <trkpt lat="45.64995" lon="6.78789">
        <ele>1030.8</ele>
        <time>2020-08-07T08:19:04Z</time>
      </trkpt>
      <trkpt lat="45.64998" lon="6.7879">
        <ele>1031.1</ele>
        <time>2020-08-07T08:19:05Z</time>
      </trkpt>
      <trkpt lat="45.65004" lon="6.78792">
        <ele>1031.9</ele>
        <time>2020-08-07T08:19:07Z</time>
      </trkpt>
      <trkpt lat="45.6501" lon="6.78794">
        <ele>1032.7</ele>
        <time>2020-08-07T08:19:09Z</time>
      </trkpt>
      <trkpt lat="45.65016" lon="6.78794">
        <ele>1033.5</ele>
        <time>2020-08-07T08:19:11Z</time>
      </trkpt>
      <trkpt lat="45.65018" lon="6.78794">
        <ele>1033.8</ele>
        <time>2020-08-07T08:19:12Z</time>
      </trkpt>
      <trkpt lat="45.65021" lon="6.78793">
        <ele>1034.2</ele>
        <time>2020-08-07T08:19:13Z</time>
      </trkpt>
      <trkpt lat="45.65027" lon="6.78793">
        <ele>1034.9</ele>
        <time>2020-08-07T08:19:14Z</time>
      </trkpt>
      <trkpt lat="45.65034" lon="6.78793">
        <ele>1035.8</ele>
        <time>2020-08-07T08:19:17Z</time>
      </trkpt>
      <trkpt lat="45.65037" lon="6.78793">
        <ele>1036.2</ele>
        <time>2020-08-07T08:19:18Z</time>
      </trkpt>
      <trkpt lat="45.6504" lon="6.78793">
        <ele>1036.6</ele>
        <time>2020-08-07T08:19:20Z</time>
      </trkpt>
      <trkpt lat="45.65044" lon="6.78793">
        <ele>1037.2</ele>
        <time>2020-08-07T08:19:21Z</time>
      </trkpt>
      <trkpt lat="45.65048" lon="6.78793">
        <ele>1037.6</ele>
        <time>2020-08-07T08:19:22Z</time>
      </trkpt>
      <trkpt lat="45.65051" lon="6.78792">
        <ele>1038</ele>
        <time>2020-08-07T08:19:23Z</time>
      </trkpt>
      <trkpt lat="45.65052" lon="6.78792">
        <ele>1038.2</ele>
        <time>2020-08-07T08:19:24Z</time>
      </trkpt>
      <trkpt lat="45.65056" lon="6.78792">
        <ele>1038.7</ele>
        <time>2020-08-07T08:19:25Z</time>
      </trkpt>
      <trkpt lat="45.65058" lon="6.78792">
        <ele>1038.9</ele>
        <time>2020-08-07T08:19:28Z</time>
      </trkpt>
      <trkpt lat="45.6506" lon="6.78792">
        <ele>1039.2</ele>
        <time>2020-08-07T08:19:29Z</time>
      </trkpt>
      <trkpt lat="45.65061" lon="6.78792">
        <ele>1039.4</ele>
        <time>2020-08-07T08:19:30Z</time>
      </trkpt>
      <trkpt lat="45.65063" lon="6.78792">
        <ele>1039.6</ele>
        <time>2020-08-07T08:19:31Z</time>
      </trkpt>
      <trkpt lat="45.65069" lon="6.78791">
        <ele>1040.3</ele>
        <time>2020-08-07T08:19:33Z</time>
      </trkpt>
      <trkpt lat="45.65071" lon="6.78791">
        <ele>1040.6</ele>
        <time>2020-08-07T08:19:34Z</time>
      </trkpt>
      <trkpt lat="45.65073" lon="6.78791">
        <ele>1040.8</ele>
        <time>2020-08-07T08:19:35Z</time>
      </trkpt>
      <trkpt lat="45.65077" lon="6.78791">
        <ele>1041.3</ele>
        <time>2020-08-07T08:19:37Z</time>
      </trkpt>
      <trkpt lat="45.65078" lon="6.78791">
        <ele>1041.4</ele>
        <time>2020-08-07T08:19:38Z</time>
      </trkpt>
      <trkpt lat="45.65083" lon="6.7879">
        <ele>1042</ele>
        <time>2020-08-07T08:19:39Z</time>
      </trkpt>
      <trkpt lat="45.65087" lon="6.7879">
        <ele>1042.5</ele>
        <time>2020-08-07T08:19:40Z</time>
      </trkpt>
      <trkpt lat="45.65095" lon="6.7879">
        <ele>1043.6</ele>
        <time>2020-08-07T08:19:43Z</time>
      </trkpt>
      <trkpt lat="45.65098" lon="6.78789">
        <ele>1044.1</ele>
        <time>2020-08-07T08:19:44Z</time>
      </trkpt>
      <trkpt lat="45.65103" lon="6.78789">
        <ele>1044.7</ele>
        <time>2020-08-07T08:19:46Z</time>
      </trkpt>
      <trkpt lat="45.65107" lon="6.78788">
        <ele>1045.3</ele>
        <time>2020-08-07T08:19:47Z</time>
      </trkpt>
      <trkpt lat="45.6511" lon="6.78787">
        <ele>1045.8</ele>
        <time>2020-08-07T08:19:48Z</time>
      </trkpt>
      <trkpt lat="45.65114" lon="6.78785">
        <ele>1046.3</ele>
        <time>2020-08-07T08:19:50Z</time>
      </trkpt>
      <trkpt lat="45.65119" lon="6.78784">
        <ele>1047</ele>
        <time>2020-08-07T08:19:51Z</time>
      </trkpt>
      <trkpt lat="45.65127" lon="6.78782">
        <ele>1048.3</ele>
        <time>2020-08-07T08:19:52Z</time>
      </trkpt>
      <trkpt lat="45.65134" lon="6.7878">
        <ele>1049.4</ele>
        <time>2020-08-07T08:19:54Z</time>
      </trkpt>
      <trkpt lat="45.65139" lon="6.78778">
        <ele>1050.1</ele>
        <time>2020-08-07T08:19:56Z</time>
      </trkpt>
      <trkpt lat="45.65144" lon="6.78776">
        <ele>1051</ele>
        <time>2020-08-07T08:19:57Z</time>
      </trkpt>
      <trkpt lat="45.65147" lon="6.78774">
        <ele>1051.5</ele>
        <time>2020-08-07T08:19:58Z</time>
      </trkpt>
      <trkpt lat="45.65152" lon="6.78772">
        <ele>1052.3</ele>
        <time>2020-08-07T08:20:00Z</time>
      </trkpt>
      <trkpt lat="45.65154" lon="6.7877">
        <ele>1052.8</ele>
        <time>2020-08-07T08:20:02Z</time>
      </trkpt>
      <trkpt lat="45.65157" lon="6.78768">
        <ele>1053.2</ele>
        <time>2020-08-07T08:20:03Z</time>
      </trkpt>
      <trkpt lat="45.65159" lon="6.78766">
        <ele>1053.7</ele>
        <time>2020-08-07T08:20:05Z</time>
      </trkpt>
      <trkpt lat="45.65164" lon="6.78762">
        <ele>1054.7</ele>
        <time>2020-08-07T08:20:07Z</time>
      </trkpt>
      <trkpt lat="45.65166" lon="6.7876">
        <ele>1055</ele>
        <time>2020-08-07T08:20:08Z</time>
      </trkpt>
      <trkpt lat="45.65169" lon="6.78758">
        <ele>1055.5</ele>
        <time>2020-08-07T08:20:11Z</time>
      </trkpt>
      <trkpt lat="45.65174" lon="6.78754">
        <ele>1056.8</ele>
        <time>2020-08-07T08:20:12Z</time>
      </trkpt>
      <trkpt lat="45.65176" lon="6.78752">
        <ele>1057.4</ele>
        <time>2020-08-07T08:20:14Z</time>
      </trkpt>
      <trkpt lat="45.65179" lon="6.78751">
        <ele>1058.1</ele>
        <time>2020-08-07T08:20:15Z</time>
      </trkpt>
      <trkpt lat="45.65181" lon="6.78749">
        <ele>1058.6</ele>
        <time>2020-08-07T08:20:16Z</time>
      </trkpt>
      <trkpt lat="45.65187" lon="6.78746">
        <ele>1059.8</ele>
        <time>2020-08-07T08:20:19Z</time>
      </trkpt>
      <trkpt lat="45.6519" lon="6.78744">
        <ele>1060.6</ele>
        <time>2020-08-07T08:20:21Z</time>
      </trkpt>
      <trkpt lat="45.65194" lon="6.78741">
        <ele>1061.5</ele>
        <time>2020-08-07T08:20:23Z</time>
      </trkpt>
      <trkpt lat="45.65201" lon="6.78739">
        <ele>1062.9</ele>
        <time>2020-08-07T08:20:25Z</time>
      </trkpt>
      <trkpt lat="45.65204" lon="6.78737">
        <ele>1063.6</ele>
        <time>2020-08-07T08:20:28Z</time>
      </trkpt>
      <trkpt lat="45.65212" lon="6.78733">
        <ele>1065.5</ele>
        <time>2020-08-07T08:20:30Z</time>
      </trkpt>
      <trkpt lat="45.65215" lon="6.78732">
        <ele>1066.2</ele>
        <time>2020-08-07T08:20:32Z</time>
      </trkpt>
      <trkpt lat="45.65219" lon="6.78731">
        <ele>1067</ele>
        <time>2020-08-07T08:20:34Z</time>
      </trkpt>
      <trkpt lat="45.65223" lon="6.78729">
        <ele>1068</ele>
        <time>2020-08-07T08:20:35Z</time>
      </trkpt>
      <trkpt lat="45.6523" lon="6.78724">
        <ele>1069.4</ele>
        <time>2020-08-07T08:20:37Z</time>
      </trkpt>
      <trkpt lat="45.65238" lon="6.78721">
        <ele>1069.8</ele>
        <time>2020-08-07T08:20:40Z</time>
      </trkpt>
      <trkpt lat="45.65241" lon="6.7872">
        <ele>1070</ele>
        <time>2020-08-07T08:20:41Z</time>
      </trkpt>
      <trkpt lat="45.65245" lon="6.78719">
        <ele>1070.1</ele>
        <time>2020-08-07T08:20:43Z</time>
      </trkpt>
      <trkpt lat="45.65247" lon="6.78717">
        <ele>1070.3</ele>
        <time>2020-08-07T08:20:44Z</time>
      </trkpt>
      <trkpt lat="45.65251" lon="6.78715">
        <ele>1070.5</ele>
        <time>2020-08-07T08:20:45Z</time>
      </trkpt>
      <trkpt lat="45.65254" lon="6.78714">
        <ele>1070.6</ele>
        <time>2020-08-07T08:20:46Z</time>
      </trkpt>
      <trkpt lat="45.65257" lon="6.78713">
        <ele>1070.8</ele>
        <time>2020-08-07T08:20:47Z</time>
      </trkpt>
      <trkpt lat="45.65261" lon="6.78711">
        <ele>1071</ele>
        <time>2020-08-07T08:20:49Z</time>
      </trkpt>
      <trkpt lat="45.65268" lon="6.78709">
        <ele>1071.3</ele>
        <time>2020-08-07T08:20:51Z</time>
      </trkpt>
      <trkpt lat="45.65271" lon="6.78708">
        <ele>1071.4</ele>
        <time>2020-08-07T08:20:53Z</time>
      </trkpt>
      <trkpt lat="45.65271" lon="6.78708">
        <ele>1071.4</ele>
        <time>2020-08-07T08:20:55Z</time>
      </trkpt>
      <trkpt lat="45.65279" lon="6.78708">
        <ele>1071.8</ele>
        <time>2020-08-07T08:20:57Z</time>
      </trkpt>
      <trkpt lat="45.65282" lon="6.78708">
        <ele>1071.9</ele>
        <time>2020-08-07T08:20:59Z</time>
      </trkpt>
      <trkpt lat="45.65286" lon="6.78707">
        <ele>1072.1</ele>
        <time>2020-08-07T08:21:01Z</time>
      </trkpt>
      <trkpt lat="45.65287" lon="6.78707">
        <ele>1072.1</ele>
        <time>2020-08-07T08:21:02Z</time>
      </trkpt>
      <trkpt lat="45.65289" lon="6.78707">
        <ele>1072.2</ele>
        <time>2020-08-07T08:21:03Z</time>
      </trkpt>
      <trkpt lat="45.65291" lon="6.78707">
        <ele>1072.2</ele>
        <time>2020-08-07T08:21:04Z</time>
      </trkpt>
      <trkpt lat="45.65296" lon="6.78707">
        <ele>1072.4</ele>
        <time>2020-08-07T08:21:05Z</time>
      </trkpt>
      <trkpt lat="45.65303" lon="6.78705">
        <ele>1072.6</ele>
        <time>2020-08-07T08:21:08Z</time>
      </trkpt>
      <trkpt lat="45.65306" lon="6.78704">
        <ele>1072.8</ele>
        <time>2020-08-07T08:21:09Z</time>
      </trkpt>
      <trkpt lat="45.65309" lon="6.78703">
        <ele>1072.9</ele>
        <time>2020-08-07T08:21:10Z</time>
      </trkpt>
      <trkpt lat="45.65312" lon="6.78702">
        <ele>1073</ele>
        <time>2020-08-07T08:21:13Z</time>
      </trkpt>
      <trkpt lat="45.65317" lon="6.78699">
        <ele>1073.3</ele>
        <time>2020-08-07T08:21:15Z</time>
      </trkpt>
      <trkpt lat="45.65322" lon="6.78698">
        <ele>1073.5</ele>
        <time>2020-08-07T08:21:17Z</time>
      </trkpt>
      <trkpt lat="45.65326" lon="6.78696">
        <ele>1073.7</ele>
        <time>2020-08-07T08:21:18Z</time>
      </trkpt>
      <trkpt lat="45.6533" lon="6.78695">
        <ele>1073.9</ele>
        <time>2020-08-07T08:21:20Z</time>
      </trkpt>
      <trkpt lat="45.65334" lon="6.78693">
        <ele>1074.1</ele>
        <time>2020-08-07T08:21:22Z</time>
      </trkpt>
      <trkpt lat="45.65339" lon="6.78691">
        <ele>1074.3</ele>
        <time>2020-08-07T08:21:24Z</time>
      </trkpt>
      <trkpt lat="45.65342" lon="6.7869">
        <ele>1074.5</ele>
        <time>2020-08-07T08:21:25Z</time>
      </trkpt>
      <trkpt lat="45.65347" lon="6.78688">
        <ele>1074.7</ele>
        <time>2020-08-07T08:21:27Z</time>
      </trkpt>
      <trkpt lat="45.6535" lon="6.78687">
        <ele>1074.8</ele>
        <time>2020-08-07T08:21:28Z</time>
      </trkpt>
      <trkpt lat="45.65353" lon="6.78686">
        <ele>1075</ele>
        <time>2020-08-07T08:21:29Z</time>
      </trkpt>
      <trkpt lat="45.65371" lon="6.78677">
        <ele>1075.9</ele>
        <time>2020-08-07T08:21:30Z</time>
      </trkpt>
      <trkpt lat="45.65379" lon="6.78671">
        <ele>1076.3</ele>
        <time>2020-08-07T08:21:32Z</time>
      </trkpt>
      <trkpt lat="45.65385" lon="6.78666">
        <ele>1076.6</ele>
        <time>2020-08-07T08:21:33Z</time>
      </trkpt>
      <trkpt lat="45.65404" lon="6.78663">
        <ele>1077.2</ele>
        <time>2020-08-07T08:21:34Z</time>
      </trkpt>
      <trkpt lat="45.65405" lon="6.78659">
        <ele>1077.3</ele>
        <time>2020-08-07T08:21:35Z</time>
      </trkpt>
      <trkpt lat="45.65408" lon="6.78656">
        <ele>1077.4</ele>
        <time>2020-08-07T08:21:38Z</time>
      </trkpt>
      <trkpt lat="45.6541" lon="6.78652">
        <ele>1077.6</ele>
        <time>2020-08-07T08:21:39Z</time>
      </trkpt>
      <trkpt lat="45.65414" lon="6.78647">
        <ele>1077.7</ele>
        <time>2020-08-07T08:21:41Z</time>
      </trkpt>
      <trkpt lat="45.6542" lon="6.78643">
        <ele>1077.9</ele>
        <time>2020-08-07T08:21:43Z</time>
      </trkpt>
      <trkpt lat="45.65424" lon="6.7864">
        <ele>1078</ele>
        <time>2020-08-07T08:21:45Z</time>
      </trkpt>
      <trkpt lat="45.65426" lon="6.78638">
        <ele>1078.1</ele>
        <time>2020-08-07T08:21:46Z</time>
      </trkpt>
      <trkpt lat="45.65432" lon="6.78631">
        <ele>1078.3</ele>
        <time>2020-08-07T08:21:49Z</time>
      </trkpt>
      <trkpt lat="45.6544" lon="6.78624">
        <ele>1078.6</ele>
        <time>2020-08-07T08:21:52Z</time>
      </trkpt>
      <trkpt lat="45.65443" lon="6.78621">
        <ele>1078.8</ele>
        <time>2020-08-07T08:21:54Z</time>
      </trkpt>
      <trkpt lat="45.65446" lon="6.78618">
        <ele>1078.9</ele>
        <time>2020-08-07T08:21:56Z</time>
      </trkpt>
      <trkpt lat="45.65452" lon="6.78613">
        <ele>1079.1</ele>
        <time>2020-08-07T08:21:57Z</time>
      </trkpt>
      <trkpt lat="45.65466" lon="6.78596">
        <ele>1079.8</ele>
        <time>2020-08-07T08:21:59Z</time>
      </trkpt>
      <trkpt lat="45.65476" lon="6.78591">
        <ele>1080.2</ele>
        <time>2020-08-07T08:22:01Z</time>
      </trkpt>
      <trkpt lat="45.65488" lon="6.78577">
        <ele>1080.5</ele>
        <time>2020-08-07T08:22:03Z</time>
      </trkpt>
      <trkpt lat="45.65493" lon="6.7857">
        <ele>1080.6</ele>
        <time>2020-08-07T08:22:05Z</time>
      </trkpt>
      <trkpt lat="45.65505" lon="6.78555">
        <ele>1080.8</ele>
        <time>2020-08-07T08:22:07Z</time>
      </trkpt>
      <trkpt lat="45.65519" lon="6.78539">
        <ele>1081.1</ele>
        <time>2020-08-07T08:22:10Z</time>
      </trkpt>
      <trkpt lat="45.65524" lon="6.78534">
        <ele>1081.2</ele>
        <time>2020-08-07T08:22:12Z</time>
      </trkpt>
      <trkpt lat="45.65528" lon="6.7853">
        <ele>1081.3</ele>
        <time>2020-08-07T08:22:14Z</time>
      </trkpt>
      <trkpt lat="45.65534" lon="6.78524">
        <ele>1081.5</ele>
        <time>2020-08-07T08:22:16Z</time>
      </trkpt>
      <trkpt lat="45.65537" lon="6.78521">
        <ele>1081.6</ele>
        <time>2020-08-07T08:22:17Z</time>
      </trkpt>
      <trkpt lat="45.65541" lon="6.78517">
        <ele>1081.8</ele>
        <time>2020-08-07T08:22:18Z</time>
      </trkpt>
      <trkpt lat="45.65548" lon="6.78512">
        <ele>1082.1</ele>
        <time>2020-08-07T08:22:20Z</time>
      </trkpt>
      <trkpt lat="45.65551" lon="6.78509">
        <ele>1082.2</ele>
        <time>2020-08-07T08:22:22Z</time>
      </trkpt>
      <trkpt lat="45.65554" lon="6.78506">
        <ele>1082.4</ele>
        <time>2020-08-07T08:22:23Z</time>
      </trkpt>
      <trkpt lat="45.65559" lon="6.78501">
        <ele>1082.7</ele>
        <time>2020-08-07T08:22:25Z</time>
      </trkpt>
      <trkpt lat="45.65563" lon="6.78497">
        <ele>1082.8</ele>
        <time>2020-08-07T08:22:27Z</time>
      </trkpt>
      <trkpt lat="45.65566" lon="6.78495">
        <ele>1083</ele>
        <time>2020-08-07T08:22:29Z</time>
      </trkpt>
      <trkpt lat="45.65568" lon="6.78492">
        <ele>1083.1</ele>
        <time>2020-08-07T08:22:30Z</time>
      </trkpt>
      <trkpt lat="45.65573" lon="6.78487">
        <ele>1083.4</ele>
        <time>2020-08-07T08:22:31Z</time>
      </trkpt>
      <trkpt lat="45.65576" lon="6.78484">
        <ele>1083.5</ele>
        <time>2020-08-07T08:22:33Z</time>
      </trkpt>
      <trkpt lat="45.65582" lon="6.78478">
        <ele>1083.9</ele>
        <time>2020-08-07T08:22:35Z</time>
      </trkpt>
      <trkpt lat="45.65586" lon="6.78474">
        <ele>1084.1</ele>
        <time>2020-08-07T08:22:37Z</time>
      </trkpt>
      <trkpt lat="45.6559" lon="6.7847">
        <ele>1084.3</ele>
        <time>2020-08-07T08:22:39Z</time>
      </trkpt>
      <trkpt lat="45.65593" lon="6.78466">
        <ele>1084.5</ele>
        <time>2020-08-07T08:22:41Z</time>
      </trkpt>
      <trkpt lat="45.65595" lon="6.78464">
        <ele>1084.6</ele>
        <time>2020-08-07T08:22:42Z</time>
      </trkpt>
      <trkpt lat="45.65597" lon="6.78461">
        <ele>1084.7</ele>
        <time>2020-08-07T08:22:43Z</time>
      </trkpt>
      <trkpt lat="45.65601" lon="6.78455">
        <ele>1085</ele>
        <time>2020-08-07T08:22:44Z</time>
      </trkpt>
      <trkpt lat="45.65603" lon="6.78452">
        <ele>1085.2</ele>
        <time>2020-08-07T08:22:46Z</time>
      </trkpt>
      <trkpt lat="45.65606" lon="6.78448">
        <ele>1085.5</ele>
        <time>2020-08-07T08:22:47Z</time>
      </trkpt>
      <trkpt lat="45.65609" lon="6.78445">
        <ele>1085.7</ele>
        <time>2020-08-07T08:22:48Z</time>
      </trkpt>
      <trkpt lat="45.65614" lon="6.78439">
        <ele>1086.1</ele>
        <time>2020-08-07T08:22:50Z</time>
      </trkpt>
      <trkpt lat="45.65617" lon="6.78435">
        <ele>1086.3</ele>
        <time>2020-08-07T08:22:52Z</time>
      </trkpt>
      <trkpt lat="45.65621" lon="6.78431">
        <ele>1086.6</ele>
        <time>2020-08-07T08:22:54Z</time>
      </trkpt>
      <trkpt lat="45.65623" lon="6.78427">
        <ele>1086.7</ele>
        <time>2020-08-07T08:22:56Z</time>
      </trkpt>
      <trkpt lat="45.65624" lon="6.78427">
        <ele>1086.7</ele>
        <time>2020-08-07T08:22:57Z</time>
      </trkpt>
      <trkpt lat="45.65626" lon="6.78424">
        <ele>1086.9</ele>
        <time>2020-08-07T08:22:58Z</time>
      </trkpt>
      <trkpt lat="45.65627" lon="6.78422">
        <ele>1086.9</ele>
        <time>2020-08-07T08:22:59Z</time>
      </trkpt>
      <trkpt lat="45.6563" lon="6.78418">
        <ele>1087.3</ele>
        <time>2020-08-07T08:23:02Z</time>
      </trkpt>
      <trkpt lat="45.65635" lon="6.78414">
        <ele>1088</ele>
        <time>2020-08-07T08:23:05Z</time>
      </trkpt>
      <trkpt lat="45.65636" lon="6.78413">
        <ele>1088.2</ele>
        <time>2020-08-07T08:23:06Z</time>
      </trkpt>
      <trkpt lat="45.65638" lon="6.78412">
        <ele>1088.4</ele>
        <time>2020-08-07T08:23:07Z</time>
      </trkpt>
      <trkpt lat="45.65643" lon="6.78408">
        <ele>1088.9</ele>
        <time>2020-08-07T08:23:09Z</time>
      </trkpt>
      <trkpt lat="45.65646" lon="6.78406">
        <ele>1089.2</ele>
        <time>2020-08-07T08:23:11Z</time>
      </trkpt>
      <trkpt lat="45.65649" lon="6.78404">
        <ele>1089.4</ele>
        <time>2020-08-07T08:23:12Z</time>
      </trkpt>
      <trkpt lat="45.65652" lon="6.78401">
        <ele>1089.8</ele>
        <time>2020-08-07T08:23:14Z</time>
      </trkpt>
      <trkpt lat="45.65656" lon="6.78399">
        <ele>1090.1</ele>
        <time>2020-08-07T08:23:16Z</time>
      </trkpt>
      <trkpt lat="45.65663" lon="6.78394">
        <ele>1090.6</ele>
        <time>2020-08-07T08:23:18Z</time>
      </trkpt>
      <trkpt lat="45.65666" lon="6.7839">
        <ele>1090.9</ele>
        <time>2020-08-07T08:23:20Z</time>
      </trkpt>
      <trkpt lat="45.6567" lon="6.78387">
        <ele>1091.3</ele>
        <time>2020-08-07T08:23:21Z</time>
      </trkpt>
      <trkpt lat="45.65672" lon="6.78385">
        <ele>1091.4</ele>
        <time>2020-08-07T08:23:22Z</time>
      </trkpt>
      <trkpt lat="45.65675" lon="6.78383">
        <ele>1091.6</ele>
        <time>2020-08-07T08:23:23Z</time>
      </trkpt>
      <trkpt lat="45.65678" lon="6.78381">
        <ele>1091.9</ele>
        <time>2020-08-07T08:23:24Z</time>
      </trkpt>
      <trkpt lat="45.65681" lon="6.78379">
        <ele>1092.1</ele>
        <time>2020-08-07T08:23:26Z</time>
      </trkpt>
      <trkpt lat="45.65685" lon="6.78376">
        <ele>1092.5</ele>
        <time>2020-08-07T08:23:27Z</time>
      </trkpt>
      <trkpt lat="45.65688" lon="6.78374">
        <ele>1092.7</ele>
        <time>2020-08-07T08:23:29Z</time>
      </trkpt>
      <trkpt lat="45.65691" lon="6.7837">
        <ele>1093</ele>
        <time>2020-08-07T08:23:30Z</time>
      </trkpt>
      <trkpt lat="45.65697" lon="6.78365">
        <ele>1093.6</ele>
        <time>2020-08-07T08:23:33Z</time>
      </trkpt>
      <trkpt lat="45.657" lon="6.78363">
        <ele>1093.8</ele>
        <time>2020-08-07T08:23:34Z</time>
      </trkpt>
      <trkpt lat="45.65706" lon="6.78358">
        <ele>1094.4</ele>
        <time>2020-08-07T08:23:37Z</time>
      </trkpt>
      <trkpt lat="45.65708" lon="6.78356">
        <ele>1094.6</ele>
        <time>2020-08-07T08:23:38Z</time>
      </trkpt>
      <trkpt lat="45.6571" lon="6.78355">
        <ele>1094.8</ele>
        <time>2020-08-07T08:23:39Z</time>
      </trkpt>
      <trkpt lat="45.65714" lon="6.78351">
        <ele>1095.3</ele>
        <time>2020-08-07T08:23:41Z</time>
      </trkpt>
      <trkpt lat="45.65718" lon="6.78349">
        <ele>1095.6</ele>
        <time>2020-08-07T08:23:43Z</time>
      </trkpt>
      <trkpt lat="45.65721" lon="6.78347">
        <ele>1096</ele>
        <time>2020-08-07T08:23:45Z</time>
      </trkpt>
      <trkpt lat="45.65727" lon="6.78343">
        <ele>1096.5</ele>
        <time>2020-08-07T08:23:46Z</time>
      </trkpt>
      <trkpt lat="45.6573" lon="6.78341">
        <ele>1096.8</ele>
        <time>2020-08-07T08:23:47Z</time>
      </trkpt>
      <trkpt lat="45.65732" lon="6.7834">
        <ele>1097.1</ele>
        <time>2020-08-07T08:23:48Z</time>
      </trkpt>
      <trkpt lat="45.6574" lon="6.78335">
        <ele>1097.9</ele>
        <time>2020-08-07T08:23:51Z</time>
      </trkpt>
      <trkpt lat="45.65742" lon="6.78333">
        <ele>1098.2</ele>
        <time>2020-08-07T08:23:52Z</time>
      </trkpt>
      <trkpt lat="45.65748" lon="6.78329">
        <ele>1098.9</ele>
        <time>2020-08-07T08:23:55Z</time>
      </trkpt>
      <trkpt lat="45.65752" lon="6.78327">
        <ele>1099.3</ele>
        <time>2020-08-07T08:23:57Z</time>
      </trkpt>
      <trkpt lat="45.65758" lon="6.78325">
        <ele>1100</ele>
        <time>2020-08-07T08:23:59Z</time>
      </trkpt>
      <trkpt lat="45.6576" lon="6.78323">
        <ele>1100.3</ele>
        <time>2020-08-07T08:24:00Z</time>
      </trkpt>
      <trkpt lat="45.65769" lon="6.78321">
        <ele>1101.3</ele>
        <time>2020-08-07T08:24:03Z</time>
      </trkpt>
      <trkpt lat="45.65772" lon="6.7832">
        <ele>1101.7</ele>
        <time>2020-08-07T08:24:04Z</time>
      </trkpt>
      <trkpt lat="45.6578" lon="6.78319">
        <ele>1102.7</ele>
        <time>2020-08-07T08:24:07Z</time>
      </trkpt>
      <trkpt lat="45.65783" lon="6.78318">
        <ele>1103.1</ele>
        <time>2020-08-07T08:24:08Z</time>
      </trkpt>
      <trkpt lat="45.65786" lon="6.78317">
        <ele>1103.5</ele>
        <time>2020-08-07T08:24:09Z</time>
      </trkpt>
      <trkpt lat="45.6579" lon="6.78316">
        <ele>1104.1</ele>
        <time>2020-08-07T08:24:11Z</time>
      </trkpt>
      <trkpt lat="45.65794" lon="6.78315">
        <ele>1104.5</ele>
        <time>2020-08-07T08:24:12Z</time>
      </trkpt>
      <trkpt lat="45.65797" lon="6.78314">
        <ele>1104.9</ele>
        <time>2020-08-07T08:24:14Z</time>
      </trkpt>
      <trkpt lat="45.65804" lon="6.7831">
        <ele>1105.9</ele>
        <time>2020-08-07T08:24:16Z</time>
      </trkpt>
      <trkpt lat="45.65807" lon="6.78309">
        <ele>1106.3</ele>
        <time>2020-08-07T08:24:17Z</time>
      </trkpt>
      <trkpt lat="45.65809" lon="6.78307">
        <ele>1106.7</ele>
        <time>2020-08-07T08:24:18Z</time>
      </trkpt>
      <trkpt lat="45.65815" lon="6.78304">
        <ele>1107.5</ele>
        <time>2020-08-07T08:24:20Z</time>
      </trkpt>
      <trkpt lat="45.65819" lon="6.78302">
        <ele>1108</ele>
        <time>2020-08-07T08:24:22Z</time>
      </trkpt>
      <trkpt lat="45.65824" lon="6.783">
        <ele>1108.8</ele>
        <time>2020-08-07T08:24:24Z</time>
      </trkpt>
      <trkpt lat="45.65826" lon="6.78299">
        <ele>1109.1</ele>
        <time>2020-08-07T08:24:25Z</time>
      </trkpt>
      <trkpt lat="45.65829" lon="6.78298">
        <ele>1109.4</ele>
        <time>2020-08-07T08:24:26Z</time>
      </trkpt>
      <trkpt lat="45.65832" lon="6.78296">
        <ele>1109.9</ele>
        <time>2020-08-07T08:24:28Z</time>
      </trkpt>
      <trkpt lat="45.65839" lon="6.78292">
        <ele>1110.8</ele>
        <time>2020-08-07T08:24:29Z</time>
      </trkpt>
      <trkpt lat="45.65843" lon="6.7829">
        <ele>1111.5</ele>
        <time>2020-08-07T08:24:31Z</time>
      </trkpt>
      <trkpt lat="45.65847" lon="6.78287">
        <ele>1112</ele>
        <time>2020-08-07T08:24:33Z</time>
      </trkpt>
      <trkpt lat="45.65853" lon="6.78284">
        <ele>1112.8</ele>
        <time>2020-08-07T08:24:35Z</time>
      </trkpt>
      <trkpt lat="45.65855" lon="6.78282">
        <ele>1113.2</ele>
        <time>2020-08-07T08:24:36Z</time>
      </trkpt>
      <trkpt lat="45.65859" lon="6.78279">
        <ele>1113.8</ele>
        <time>2020-08-07T08:24:38Z</time>
      </trkpt>
      <trkpt lat="45.65863" lon="6.78276">
        <ele>1114.3</ele>
        <time>2020-08-07T08:24:40Z</time>
      </trkpt>
      <trkpt lat="45.65867" lon="6.78274">
        <ele>1114.9</ele>
        <time>2020-08-07T08:24:41Z</time>
      </trkpt>
      <trkpt lat="45.6587" lon="6.78271">
        <ele>1115.3</ele>
        <time>2020-08-07T08:24:42Z</time>
      </trkpt>
      <trkpt lat="45.65876" lon="6.78264">
        <ele>1116.3</ele>
        <time>2020-08-07T08:24:45Z</time>
      </trkpt>
      <trkpt lat="45.6588" lon="6.7826">
        <ele>1116.9</ele>
        <time>2020-08-07T08:24:47Z</time>
      </trkpt>
      <trkpt lat="45.65885" lon="6.78254">
        <ele>1117.7</ele>
        <time>2020-08-07T08:24:48Z</time>
      </trkpt>
      <trkpt lat="45.65889" lon="6.78248">
        <ele>1118.4</ele>
        <time>2020-08-07T08:24:50Z</time>
      </trkpt>
      <trkpt lat="45.65893" lon="6.78244">
        <ele>1118.9</ele>
        <time>2020-08-07T08:24:52Z</time>
      </trkpt>
      <trkpt lat="45.65895" lon="6.78241">
        <ele>1119.3</ele>
        <time>2020-08-07T08:24:53Z</time>
      </trkpt>
      <trkpt lat="45.659" lon="6.78235">
        <ele>1119.9</ele>
        <time>2020-08-07T08:24:54Z</time>
      </trkpt>
      <trkpt lat="45.65904" lon="6.7823">
        <ele>1120.5</ele>
        <time>2020-08-07T08:24:55Z</time>
      </trkpt>
      <trkpt lat="45.65907" lon="6.78225">
        <ele>1121</ele>
        <time>2020-08-07T08:24:56Z</time>
      </trkpt>
      <trkpt lat="45.65909" lon="6.78222">
        <ele>1121.3</ele>
        <time>2020-08-07T08:24:58Z</time>
      </trkpt>
      <trkpt lat="45.65911" lon="6.78219">
        <ele>1121.7</ele>
        <time>2020-08-07T08:24:59Z</time>
      </trkpt>
      <trkpt lat="45.65914" lon="6.78215">
        <ele>1122.1</ele>
        <time>2020-08-07T08:25:00Z</time>
      </trkpt>
      <trkpt lat="45.65916" lon="6.78212">
        <ele>1122.4</ele>
        <time>2020-08-07T08:25:01Z</time>
      </trkpt>
      <trkpt lat="45.65919" lon="6.78209">
        <ele>1122.8</ele>
        <time>2020-08-07T08:25:03Z</time>
      </trkpt>
      <trkpt lat="45.65922" lon="6.78205">
        <ele>1123.2</ele>
        <time>2020-08-07T08:25:04Z</time>
      </trkpt>
      <trkpt lat="45.65924" lon="6.78202">
        <ele>1123.6</ele>
        <time>2020-08-07T08:25:05Z</time>
      </trkpt>
      <trkpt lat="45.65927" lon="6.78198">
        <ele>1124</ele>
        <time>2020-08-07T08:25:08Z</time>
      </trkpt>
      <trkpt lat="45.65931" lon="6.78194">
        <ele>1124.5</ele>
        <time>2020-08-07T08:25:09Z</time>
      </trkpt>
      <trkpt lat="45.65936" lon="6.78191">
        <ele>1125.2</ele>
        <time>2020-08-07T08:25:11Z</time>
      </trkpt>
      <trkpt lat="45.65939" lon="6.7819">
        <ele>1125.5</ele>
        <time>2020-08-07T08:25:13Z</time>
      </trkpt>
      <trkpt lat="45.65941" lon="6.78189">
        <ele>1125.8</ele>
        <time>2020-08-07T08:25:14Z</time>
      </trkpt>
      <trkpt lat="45.65945" lon="6.78188">
        <ele>1126.2</ele>
        <time>2020-08-07T08:25:17Z</time>
      </trkpt>
      <trkpt lat="45.6595" lon="6.78185">
        <ele>1126.7</ele>
        <time>2020-08-07T08:25:18Z</time>
      </trkpt>
      <trkpt lat="45.65953" lon="6.78183">
        <ele>1127.1</ele>
        <time>2020-08-07T08:25:19Z</time>
      </trkpt>
      <trkpt lat="45.65957" lon="6.78181">
        <ele>1127.5</ele>
        <time>2020-08-07T08:25:20Z</time>
      </trkpt>
      <trkpt lat="45.6596" lon="6.7818">
        <ele>1127.8</ele>
        <time>2020-08-07T08:25:22Z</time>
      </trkpt>
      <trkpt lat="45.65968" lon="6.78178">
        <ele>1128.6</ele>
        <time>2020-08-07T08:25:24Z</time>
      </trkpt>
      <trkpt lat="45.65969" lon="6.78178">
        <ele>1128.7</ele>
        <time>2020-08-07T08:25:25Z</time>
      </trkpt>
      <trkpt lat="45.65976" lon="6.78176">
        <ele>1129.4</ele>
        <time>2020-08-07T08:25:28Z</time>
      </trkpt>
      <trkpt lat="45.65978" lon="6.78176">
        <ele>1129.6</ele>
        <time>2020-08-07T08:25:29Z</time>
      </trkpt>
      <trkpt lat="45.6598" lon="6.78176">
        <ele>1129.8</ele>
        <time>2020-08-07T08:25:30Z</time>
      </trkpt>
      <trkpt lat="45.65985" lon="6.78177">
        <ele>1130.3</ele>
        <time>2020-08-07T08:25:32Z</time>
      </trkpt>
      <trkpt lat="45.65989" lon="6.78179">
        <ele>1130.7</ele>
        <time>2020-08-07T08:25:33Z</time>
      </trkpt>
      <trkpt lat="45.65997" lon="6.78181">
        <ele>1131.5</ele>
        <time>2020-08-07T08:25:36Z</time>
      </trkpt>
      <trkpt lat="45.66" lon="6.78182">
        <ele>1131.8</ele>
        <time>2020-08-07T08:25:37Z</time>
      </trkpt>
      <trkpt lat="45.66005" lon="6.78183">
        <ele>1132.3</ele>
        <time>2020-08-07T08:25:39Z</time>
      </trkpt>
      <trkpt lat="45.66009" lon="6.78183">
        <ele>1132.6</ele>
        <time>2020-08-07T08:25:40Z</time>
      </trkpt>
      <trkpt lat="45.66016" lon="6.78183">
        <ele>1133.3</ele>
        <time>2020-08-07T08:25:42Z</time>
      </trkpt>
      <trkpt lat="45.66019" lon="6.78182">
        <ele>1133.6</ele>
        <time>2020-08-07T08:25:43Z</time>
      </trkpt>
      <trkpt lat="45.66024" lon="6.78182">
        <ele>1134.1</ele>
        <time>2020-08-07T08:25:46Z</time>
      </trkpt>
      <trkpt lat="45.66027" lon="6.7818">
        <ele>1134.4</ele>
        <time>2020-08-07T08:25:47Z</time>
      </trkpt>
      <trkpt lat="45.66031" lon="6.78178">
        <ele>1134.8</ele>
        <time>2020-08-07T08:25:48Z</time>
      </trkpt>
      <trkpt lat="45.66034" lon="6.78176">
        <ele>1135.1</ele>
        <time>2020-08-07T08:25:50Z</time>
      </trkpt>
      <trkpt lat="45.66037" lon="6.78173">
        <ele>1135.4</ele>
        <time>2020-08-07T08:25:51Z</time>
      </trkpt>
      <trkpt lat="45.66039" lon="6.78171">
        <ele>1135.6</ele>
        <time>2020-08-07T08:25:52Z</time>
      </trkpt>
      <trkpt lat="45.66042" lon="6.78169">
        <ele>1135.9</ele>
        <time>2020-08-07T08:25:53Z</time>
      </trkpt>
      <trkpt lat="45.6605" lon="6.78161">
        <ele>1136.8</ele>
        <time>2020-08-07T08:25:55Z</time>
      </trkpt>
      <trkpt lat="45.66052" lon="6.78158">
        <ele>1137</ele>
        <time>2020-08-07T08:25:57Z</time>
      </trkpt>
      <trkpt lat="45.66057" lon="6.78151">
        <ele>1137.6</ele>
        <time>2020-08-07T08:25:59Z</time>
      </trkpt>
      <trkpt lat="45.66059" lon="6.78148">
        <ele>1137.9</ele>
        <time>2020-08-07T08:26:01Z</time>
      </trkpt>
      <trkpt lat="45.66061" lon="6.78145">
        <ele>1138.1</ele>
        <time>2020-08-07T08:26:02Z</time>
      </trkpt>
      <trkpt lat="45.66062" lon="6.78142">
        <ele>1138.3</ele>
        <time>2020-08-07T08:26:04Z</time>
      </trkpt>
      <trkpt lat="45.66067" lon="6.78134">
        <ele>1139</ele>
        <time>2020-08-07T08:26:06Z</time>
      </trkpt>
      <trkpt lat="45.66073" lon="6.78124">
        <ele>1139.9</ele>
        <time>2020-08-07T08:26:07Z</time>
      </trkpt>
      <trkpt lat="45.66075" lon="6.7812">
        <ele>1140.3</ele>
        <time>2020-08-07T08:26:08Z</time>
      </trkpt>
      <trkpt lat="45.66078" lon="6.78115">
        <ele>1140.7</ele>
        <time>2020-08-07T08:26:09Z</time>
      </trkpt>
      <trkpt lat="45.66081" lon="6.78111">
        <ele>1141.2</ele>
        <time>2020-08-07T08:26:11Z</time>
      </trkpt>
      <trkpt lat="45.66083" lon="6.78106">
        <ele>1141.5</ele>
        <time>2020-08-07T08:26:13Z</time>
      </trkpt>
      <trkpt lat="45.66085" lon="6.78103">
        <ele>1141.7</ele>
        <time>2020-08-07T08:26:14Z</time>
      </trkpt>
      <trkpt lat="45.66088" lon="6.78097">
        <ele>1142.1</ele>
        <time>2020-08-07T08:26:16Z</time>
      </trkpt>
      <trkpt lat="45.66092" lon="6.78093">
        <ele>1142.4</ele>
        <time>2020-08-07T08:26:17Z</time>
      </trkpt>
      <trkpt lat="45.66093" lon="6.78091">
        <ele>1142.5</ele>
        <time>2020-08-07T08:26:18Z</time>
      </trkpt>
      <trkpt lat="45.66095" lon="6.78088">
        <ele>1142.7</ele>
        <time>2020-08-07T08:26:20Z</time>
      </trkpt>
      <trkpt lat="45.66097" lon="6.78085">
        <ele>1142.9</ele>
        <time>2020-08-07T08:26:21Z</time>
      </trkpt>
      <trkpt lat="45.66102" lon="6.7808">
        <ele>1143.3</ele>
        <time>2020-08-07T08:26:23Z</time>
      </trkpt>
      <trkpt lat="45.66104" lon="6.78078">
        <ele>1143.5</ele>
        <time>2020-08-07T08:26:25Z</time>
      </trkpt>
      <trkpt lat="45.66108" lon="6.78075">
        <ele>1143.8</ele>
        <time>2020-08-07T08:26:27Z</time>
      </trkpt>
      <trkpt lat="45.66111" lon="6.78073">
        <ele>1144.1</ele>
        <time>2020-08-07T08:26:30Z</time>
      </trkpt>
      <trkpt lat="45.66115" lon="6.78071">
        <ele>1144.4</ele>
        <time>2020-08-07T08:26:31Z</time>
      </trkpt>
      <trkpt lat="45.66116" lon="6.78069">
        <ele>1144.5</ele>
        <time>2020-08-07T08:26:32Z</time>
      </trkpt>
      <trkpt lat="45.66122" lon="6.78067">
        <ele>1145</ele>
        <time>2020-08-07T08:26:35Z</time>
      </trkpt>
      <trkpt lat="45.66124" lon="6.78065">
        <ele>1145.1</ele>
        <time>2020-08-07T08:26:37Z</time>
      </trkpt>
      <trkpt lat="45.66126" lon="6.78063">
        <ele>1145.3</ele>
        <time>2020-08-07T08:26:39Z</time>
      </trkpt>
      <trkpt lat="45.66133" lon="6.78057">
        <ele>1146</ele>
        <time>2020-08-07T08:26:41Z</time>
      </trkpt>
      <trkpt lat="45.66135" lon="6.78055">
        <ele>1146.2</ele>
        <time>2020-08-07T08:26:43Z</time>
      </trkpt>
      <trkpt lat="45.66139" lon="6.78052">
        <ele>1146.5</ele>
        <time>2020-08-07T08:26:44Z</time>
      </trkpt>
      <trkpt lat="45.66143" lon="6.78048">
        <ele>1146.9</ele>
        <time>2020-08-07T08:26:46Z</time>
      </trkpt>
      <trkpt lat="45.66147" lon="6.78044">
        <ele>1147.3</ele>
        <time>2020-08-07T08:26:48Z</time>
      </trkpt>
      <trkpt lat="45.6615" lon="6.78042">
        <ele>1147.6</ele>
        <time>2020-08-07T08:26:49Z</time>
      </trkpt>
      <trkpt lat="45.66156" lon="6.78039">
        <ele>1148.1</ele>
        <time>2020-08-07T08:26:52Z</time>
      </trkpt>
      <trkpt lat="45.66158" lon="6.78038">
        <ele>1148.3</ele>
        <time>2020-08-07T08:26:53Z</time>
      </trkpt>
      <trkpt lat="45.6616" lon="6.78036">
        <ele>1148.5</ele>
        <time>2020-08-07T08:26:54Z</time>
      </trkpt>
      <trkpt lat="45.66162" lon="6.78035">
        <ele>1148.7</ele>
        <time>2020-08-07T08:26:55Z</time>
      </trkpt>
      <trkpt lat="45.66165" lon="6.78033">
        <ele>1148.9</ele>
        <time>2020-08-07T08:26:56Z</time>
      </trkpt>
      <trkpt lat="45.6617" lon="6.78028">
        <ele>1149.4</ele>
        <time>2020-08-07T08:26:59Z</time>
      </trkpt>
      <trkpt lat="45.66173" lon="6.78025">
        <ele>1149.7</ele>
        <time>2020-08-07T08:27:00Z</time>
      </trkpt>
      <trkpt lat="45.66176" lon="6.78021">
        <ele>1150.1</ele>
        <time>2020-08-07T08:27:02Z</time>
      </trkpt>
      <trkpt lat="45.66179" lon="6.78017">
        <ele>1150.3</ele>
        <time>2020-08-07T08:27:04Z</time>
      </trkpt>
      <trkpt lat="45.66182" lon="6.78013">
        <ele>1150.7</ele>
        <time>2020-08-07T08:27:05Z</time>
      </trkpt>
      <trkpt lat="45.66184" lon="6.78011">
        <ele>1151</ele>
        <time>2020-08-07T08:27:06Z</time>
      </trkpt>
      <trkpt lat="45.66188" lon="6.78008">
        <ele>1151.3</ele>
        <time>2020-08-07T08:27:07Z</time>
      </trkpt>
      <trkpt lat="45.6619" lon="6.78005">
        <ele>1151.6</ele>
        <time>2020-08-07T08:27:08Z</time>
      </trkpt>
      <trkpt lat="45.66196" lon="6.77997">
        <ele>1152.2</ele>
        <time>2020-08-07T08:27:11Z</time>
      </trkpt>
      <trkpt lat="45.66198" lon="6.77994">
        <ele>1152.5</ele>
        <time>2020-08-07T08:27:12Z</time>
      </trkpt>
      <trkpt lat="45.66203" lon="6.77988">
        <ele>1153</ele>
        <time>2020-08-07T08:27:14Z</time>
      </trkpt>
      <trkpt lat="45.66217" lon="6.77971">
        <ele>1154.5</ele>
        <time>2020-08-07T08:27:16Z</time>
      </trkpt>
      <trkpt lat="45.66231" lon="6.77952">
        <ele>1156.1</ele>
        <time>2020-08-07T08:27:18Z</time>
      </trkpt>
      <trkpt lat="45.66234" lon="6.77949">
        <ele>1156.5</ele>
        <time>2020-08-07T08:27:20Z</time>
      </trkpt>
      <trkpt lat="45.66236" lon="6.77947">
        <ele>1156.7</ele>
        <time>2020-08-07T08:27:21Z</time>
      </trkpt>
      <trkpt lat="45.6624" lon="6.77945">
        <ele>1157</ele>
        <time>2020-08-07T08:27:23Z</time>
      </trkpt>
      <trkpt lat="45.66243" lon="6.77942">
        <ele>1157.3</ele>
        <time>2020-08-07T08:27:25Z</time>
      </trkpt>
      <trkpt lat="45.66245" lon="6.77941">
        <ele>1157.5</ele>
        <time>2020-08-07T08:27:26Z</time>
      </trkpt>
      <trkpt lat="45.66247" lon="6.7794">
        <ele>1157.7</ele>
        <time>2020-08-07T08:27:28Z</time>
      </trkpt>
      <trkpt lat="45.66251" lon="6.77937">
        <ele>1158</ele>
        <time>2020-08-07T08:27:29Z</time>
      </trkpt>
      <trkpt lat="45.66255" lon="6.77937">
        <ele>1158.4</ele>
        <time>2020-08-07T08:27:32Z</time>
      </trkpt>
      <trkpt lat="45.66258" lon="6.77936">
        <ele>1158.7</ele>
        <time>2020-08-07T08:27:33Z</time>
      </trkpt>
      <trkpt lat="45.66262" lon="6.77936">
        <ele>1158.9</ele>
        <time>2020-08-07T08:27:34Z</time>
      </trkpt>
      <trkpt lat="45.66266" lon="6.77935">
        <ele>1159.3</ele>
        <time>2020-08-07T08:27:36Z</time>
      </trkpt>
      <trkpt lat="45.66271" lon="6.77933">
        <ele>1159.8</ele>
        <time>2020-08-07T08:27:38Z</time>
      </trkpt>
      <trkpt lat="45.6628" lon="6.77931">
        <ele>1160.4</ele>
        <time>2020-08-07T08:27:41Z</time>
      </trkpt>
      <trkpt lat="45.66289" lon="6.77928">
        <ele>1161.1</ele>
        <time>2020-08-07T08:27:44Z</time>
      </trkpt>
      <trkpt lat="45.66298" lon="6.77924">
        <ele>1161.7</ele>
        <time>2020-08-07T08:27:47Z</time>
      </trkpt>
      <trkpt lat="45.66301" lon="6.77923">
        <ele>1162</ele>
        <time>2020-08-07T08:27:48Z</time>
      </trkpt>
      <trkpt lat="45.66305" lon="6.77919">
        <ele>1162.4</ele>
        <time>2020-08-07T08:27:50Z</time>
      </trkpt>
      <trkpt lat="45.66317" lon="6.77908">
        <ele>1163.6</ele>
        <time>2020-08-07T08:27:52Z</time>
      </trkpt>
      <trkpt lat="45.66328" lon="6.77894">
        <ele>1164.7</ele>
        <time>2020-08-07T08:27:55Z</time>
      </trkpt>
      <trkpt lat="45.66333" lon="6.77888">
        <ele>1165.1</ele>
        <time>2020-08-07T08:27:57Z</time>
      </trkpt>
      <trkpt lat="45.66337" lon="6.77882">
        <ele>1165.5</ele>
        <time>2020-08-07T08:27:58Z</time>
      </trkpt>
      <trkpt lat="45.6634" lon="6.77877">
        <ele>1165.9</ele>
        <time>2020-08-07T08:27:59Z</time>
      </trkpt>
      <trkpt lat="45.66343" lon="6.77873">
        <ele>1166.1</ele>
        <time>2020-08-07T08:28:00Z</time>
      </trkpt>
      <trkpt lat="45.66349" lon="6.77863">
        <ele>1166.7</ele>
        <time>2020-08-07T08:28:03Z</time>
      </trkpt>
      <trkpt lat="45.66352" lon="6.77859">
        <ele>1166.9</ele>
        <time>2020-08-07T08:28:05Z</time>
      </trkpt>
      <trkpt lat="45.66354" lon="6.77857">
        <ele>1167.1</ele>
        <time>2020-08-07T08:28:06Z</time>
      </trkpt>
      <trkpt lat="45.66357" lon="6.77853">
        <ele>1167.3</ele>
        <time>2020-08-07T08:28:08Z</time>
      </trkpt>
      <trkpt lat="45.66361" lon="6.77847">
        <ele>1167.7</ele>
        <time>2020-08-07T08:28:09Z</time>
      </trkpt>
      <trkpt lat="45.66363" lon="6.77844">
        <ele>1167.9</ele>
        <time>2020-08-07T08:28:10Z</time>
      </trkpt>
      <trkpt lat="45.66369" lon="6.77839">
        <ele>1168.3</ele>
        <time>2020-08-07T08:28:12Z</time>
      </trkpt>
      <trkpt lat="45.66372" lon="6.77837">
        <ele>1168.5</ele>
        <time>2020-08-07T08:28:13Z</time>
      </trkpt>
      <trkpt lat="45.66377" lon="6.77828">
        <ele>1169</ele>
        <time>2020-08-07T08:28:15Z</time>
      </trkpt>
      <trkpt lat="45.6638" lon="6.77819">
        <ele>1169.4</ele>
        <time>2020-08-07T08:28:18Z</time>
      </trkpt>
      <trkpt lat="45.66382" lon="6.77816">
        <ele>1169.7</ele>
        <time>2020-08-07T08:28:19Z</time>
      </trkpt>
      <trkpt lat="45.66386" lon="6.77813">
        <ele>1170</ele>
        <time>2020-08-07T08:28:21Z</time>
      </trkpt>
      <trkpt lat="45.66388" lon="6.77811">
        <ele>1170.2</ele>
        <time>2020-08-07T08:28:22Z</time>
      </trkpt>
      <trkpt lat="45.66393" lon="6.77809">
        <ele>1170.5</ele>
        <time>2020-08-07T08:28:23Z</time>
      </trkpt>
      <trkpt lat="45.66396" lon="6.77807">
        <ele>1170.8</ele>
        <time>2020-08-07T08:28:24Z</time>
      </trkpt>
      <trkpt lat="45.66397" lon="6.77806">
        <ele>1170.9</ele>
        <time>2020-08-07T08:28:25Z</time>
      </trkpt>
      <trkpt lat="45.664" lon="6.77804">
        <ele>1171.1</ele>
        <time>2020-08-07T08:28:27Z</time>
      </trkpt>
      <trkpt lat="45.66404" lon="6.77802">
        <ele>1171.5</ele>
        <time>2020-08-07T08:28:29Z</time>
      </trkpt>
      <trkpt lat="45.66406" lon="6.778">
        <ele>1171.7</ele>
        <time>2020-08-07T08:28:31Z</time>
      </trkpt>
      <trkpt lat="45.66407" lon="6.77799">
        <ele>1171.8</ele>
        <time>2020-08-07T08:28:32Z</time>
      </trkpt>
      <trkpt lat="45.6641" lon="6.77796">
        <ele>1172</ele>
        <time>2020-08-07T08:28:33Z</time>
      </trkpt>
      <trkpt lat="45.66416" lon="6.77791">
        <ele>1172.5</ele>
        <time>2020-08-07T08:28:35Z</time>
      </trkpt>
      <trkpt lat="45.66423" lon="6.77785">
        <ele>1173.1</ele>
        <time>2020-08-07T08:28:36Z</time>
      </trkpt>
      <trkpt lat="45.66429" lon="6.77779">
        <ele>1173.6</ele>
        <time>2020-08-07T08:28:37Z</time>
      </trkpt>
      <trkpt lat="45.66438" lon="6.7777">
        <ele>1174.5</ele>
        <time>2020-08-07T08:28:40Z</time>
      </trkpt>
      <trkpt lat="45.66442" lon="6.77766">
        <ele>1174.9</ele>
        <time>2020-08-07T08:28:41Z</time>
      </trkpt>
      <trkpt lat="45.66446" lon="6.77762">
        <ele>1175.2</ele>
        <time>2020-08-07T08:28:44Z</time>
      </trkpt>
      <trkpt lat="45.6645" lon="6.77758">
        <ele>1175.7</ele>
        <time>2020-08-07T08:28:45Z</time>
      </trkpt>
      <trkpt lat="45.66453" lon="6.77755">
        <ele>1176</ele>
        <time>2020-08-07T08:28:46Z</time>
      </trkpt>
      <trkpt lat="45.66457" lon="6.77752">
        <ele>1176.4</ele>
        <time>2020-08-07T08:28:48Z</time>
      </trkpt>
      <trkpt lat="45.66462" lon="6.77748">
        <ele>1176.8</ele>
        <time>2020-08-07T08:28:49Z</time>
      </trkpt>
      <trkpt lat="45.66466" lon="6.77745">
        <ele>1177.3</ele>
        <time>2020-08-07T08:28:51Z</time>
      </trkpt>
      <trkpt lat="45.66471" lon="6.7774">
        <ele>1177.7</ele>
        <time>2020-08-07T08:28:53Z</time>
      </trkpt>
      <trkpt lat="45.66474" lon="6.77737">
        <ele>1178</ele>
        <time>2020-08-07T08:28:54Z</time>
      </trkpt>
      <trkpt lat="45.66477" lon="6.77735">
        <ele>1178.3</ele>
        <time>2020-08-07T08:28:56Z</time>
      </trkpt>
      <trkpt lat="45.66482" lon="6.77731">
        <ele>1179.3</ele>
        <time>2020-08-07T08:28:57Z</time>
      </trkpt>
      <trkpt lat="45.66488" lon="6.77724">
        <ele>1181.4</ele>
        <time>2020-08-07T08:28:59Z</time>
      </trkpt>
      <trkpt lat="45.66491" lon="6.77719">
        <ele>1182.4</ele>
        <time>2020-08-07T08:29:01Z</time>
      </trkpt>
      <trkpt lat="45.66494" lon="6.77715">
        <ele>1183</ele>
        <time>2020-08-07T08:29:03Z</time>
      </trkpt>
      <trkpt lat="45.66499" lon="6.77707">
        <ele>1183.9</ele>
        <time>2020-08-07T08:29:04Z</time>
      </trkpt>
      <trkpt lat="45.66501" lon="6.77701">
        <ele>1184.4</ele>
        <time>2020-08-07T08:29:07Z</time>
      </trkpt>
      <trkpt lat="45.66503" lon="6.77696">
        <ele>1184.7</ele>
        <time>2020-08-07T08:29:08Z</time>
      </trkpt>
      <trkpt lat="45.66505" lon="6.77689">
        <ele>1185.2</ele>
        <time>2020-08-07T08:29:09Z</time>
      </trkpt>
      <trkpt lat="45.66507" lon="6.77682">
        <ele>1185.6</ele>
        <time>2020-08-07T08:29:10Z</time>
      </trkpt>
      <trkpt lat="45.66509" lon="6.77677">
        <ele>1185.9</ele>
        <time>2020-08-07T08:29:12Z</time>
      </trkpt>
      <trkpt lat="45.66512" lon="6.77665">
        <ele>1186.5</ele>
        <time>2020-08-07T08:29:14Z</time>
      </trkpt>
      <trkpt lat="45.66513" lon="6.7766">
        <ele>1186.7</ele>
        <time>2020-08-07T08:29:15Z</time>
      </trkpt>
      <trkpt lat="45.66515" lon="6.77656">
        <ele>1186.9</ele>
        <time>2020-08-07T08:29:16Z</time>
      </trkpt>
      <trkpt lat="45.66517" lon="6.77646">
        <ele>1187.4</ele>
        <time>2020-08-07T08:29:19Z</time>
      </trkpt>
      <trkpt lat="45.66518" lon="6.77641">
        <ele>1187.7</ele>
        <time>2020-08-07T08:29:20Z</time>
      </trkpt>
      <trkpt lat="45.66519" lon="6.77638">
        <ele>1187.9</ele>
        <time>2020-08-07T08:29:22Z</time>
      </trkpt>
      <trkpt lat="45.66521" lon="6.77631">
        <ele>1188.2</ele>
        <time>2020-08-07T08:29:23Z</time>
      </trkpt>
      <trkpt lat="45.66522" lon="6.77626">
        <ele>1188.5</ele>
        <time>2020-08-07T08:29:25Z</time>
      </trkpt>
      <trkpt lat="45.66525" lon="6.77618">
        <ele>1189</ele>
        <time>2020-08-07T08:29:26Z</time>
      </trkpt>
      <trkpt lat="45.66527" lon="6.77612">
        <ele>1189.3</ele>
        <time>2020-08-07T08:29:27Z</time>
      </trkpt>
      <trkpt lat="45.66528" lon="6.77606">
        <ele>1189.6</ele>
        <time>2020-08-07T08:29:29Z</time>
      </trkpt>
      <trkpt lat="45.66531" lon="6.77597">
        <ele>1190.1</ele>
        <time>2020-08-07T08:29:31Z</time>
      </trkpt>
      <trkpt lat="45.66532" lon="6.77592">
        <ele>1190.4</ele>
        <time>2020-08-07T08:29:32Z</time>
      </trkpt>
      <trkpt lat="45.66535" lon="6.77582">
        <ele>1190.9</ele>
        <time>2020-08-07T08:29:35Z</time>
      </trkpt>
      <trkpt lat="45.66536" lon="6.77576">
        <ele>1191.3</ele>
        <time>2020-08-07T08:29:37Z</time>
      </trkpt>
      <trkpt lat="45.66538" lon="6.77572">
        <ele>1191.6</ele>
        <time>2020-08-07T08:29:38Z</time>
      </trkpt>
      <trkpt lat="45.66539" lon="6.77567">
        <ele>1191.9</ele>
        <time>2020-08-07T08:29:40Z</time>
      </trkpt>
      <trkpt lat="45.66541" lon="6.77559">
        <ele>1192.3</ele>
        <time>2020-08-07T08:29:41Z</time>
      </trkpt>
      <trkpt lat="45.66543" lon="6.77555">
        <ele>1192.6</ele>
        <time>2020-08-07T08:29:43Z</time>
      </trkpt>
      <trkpt lat="45.66544" lon="6.77551">
        <ele>1192.8</ele>
        <time>2020-08-07T08:29:44Z</time>
      </trkpt>
      <trkpt lat="45.66547" lon="6.77544">
        <ele>1193.3</ele>
        <time>2020-08-07T08:29:45Z</time>
      </trkpt>
      <trkpt lat="45.66549" lon="6.77538">
        <ele>1193.6</ele>
        <time>2020-08-07T08:29:46Z</time>
      </trkpt>
      <trkpt lat="45.66551" lon="6.77534">
        <ele>1193.9</ele>
        <time>2020-08-07T08:29:47Z</time>
      </trkpt>
      <trkpt lat="45.66556" lon="6.77524">
        <ele>1194.6</ele>
        <time>2020-08-07T08:29:50Z</time>
      </trkpt>
      <trkpt lat="45.66559" lon="6.77518">
        <ele>1195</ele>
        <time>2020-08-07T08:29:52Z</time>
      </trkpt>
      <trkpt lat="45.66561" lon="6.77515">
        <ele>1195.3</ele>
        <time>2020-08-07T08:29:54Z</time>
      </trkpt>
      <trkpt lat="45.66563" lon="6.77511">
        <ele>1195.5</ele>
        <time>2020-08-07T08:29:55Z</time>
      </trkpt>
      <trkpt lat="45.66565" lon="6.77507">
        <ele>1195.8</ele>
        <time>2020-08-07T08:29:56Z</time>
      </trkpt>
      <trkpt lat="45.6657" lon="6.77501">
        <ele>1196.2</ele>
        <time>2020-08-07T08:29:58Z</time>
      </trkpt>
      <trkpt lat="45.66575" lon="6.7749">
        <ele>1196.8</ele>
        <time>2020-08-07T08:30:00Z</time>
      </trkpt>
      <trkpt lat="45.66578" lon="6.77484">
        <ele>1197.2</ele>
        <time>2020-08-07T08:30:02Z</time>
      </trkpt>
      <trkpt lat="45.66583" lon="6.77476">
        <ele>1197.7</ele>
        <time>2020-08-07T08:30:04Z</time>
      </trkpt>
      <trkpt lat="45.66586" lon="6.7747">
        <ele>1198.1</ele>
        <time>2020-08-07T08:30:06Z</time>
      </trkpt>
      <trkpt lat="45.66589" lon="6.77463">
        <ele>1198.5</ele>
        <time>2020-08-07T08:30:08Z</time>
      </trkpt>
      <trkpt lat="45.66591" lon="6.77459">
        <ele>1198.8</ele>
        <time>2020-08-07T08:30:09Z</time>
      </trkpt>
      <trkpt lat="45.66596" lon="6.77448">
        <ele>1199.6</ele>
        <time>2020-08-07T08:30:11Z</time>
      </trkpt>
      <trkpt lat="45.66599" lon="6.77444">
        <ele>1200</ele>
        <time>2020-08-07T08:30:13Z</time>
      </trkpt>
      <trkpt lat="45.66602" lon="6.77439">
        <ele>1200.4</ele>
        <time>2020-08-07T08:30:15Z</time>
      </trkpt>
      <trkpt lat="45.66605" lon="6.77437">
        <ele>1200.7</ele>
        <time>2020-08-07T08:30:16Z</time>
      </trkpt>
      <trkpt lat="45.66612" lon="6.77436">
        <ele>1201.4</ele>
        <time>2020-08-07T08:30:17Z</time>
      </trkpt>
      <trkpt lat="45.66616" lon="6.77438">
        <ele>1201.9</ele>
        <time>2020-08-07T08:30:19Z</time>
      </trkpt>
      <trkpt lat="45.6662" lon="6.77443">
        <ele>1202.4</ele>
        <time>2020-08-07T08:30:20Z</time>
      </trkpt>
      <trkpt lat="45.66622" lon="6.77452">
        <ele>1202.9</ele>
        <time>2020-08-07T08:30:23Z</time>
      </trkpt>
      <trkpt lat="45.66621" lon="6.77457">
        <ele>1203.2</ele>
        <time>2020-08-07T08:30:24Z</time>
      </trkpt>
      <trkpt lat="45.66618" lon="6.77467">
        <ele>1203.7</ele>
        <time>2020-08-07T08:30:25Z</time>
      </trkpt>
      <trkpt lat="45.66614" lon="6.77476">
        <ele>1204.1</ele>
        <time>2020-08-07T08:30:27Z</time>
      </trkpt>
      <trkpt lat="45.66613" lon="6.77481">
        <ele>1204.2</ele>
        <time>2020-08-07T08:30:29Z</time>
      </trkpt>
      <trkpt lat="45.66611" lon="6.77486">
        <ele>1204.4</ele>
        <time>2020-08-07T08:30:30Z</time>
      </trkpt>
      <trkpt lat="45.6661" lon="6.77494">
        <ele>1204.7</ele>
        <time>2020-08-07T08:30:31Z</time>
      </trkpt>
      <trkpt lat="45.66609" lon="6.77501">
        <ele>1204.9</ele>
        <time>2020-08-07T08:30:33Z</time>
      </trkpt>
      <trkpt lat="45.6661" lon="6.77512">
        <ele>1205.2</ele>
        <time>2020-08-07T08:30:34Z</time>
      </trkpt>
      <trkpt lat="45.66617" lon="6.77525">
        <ele>1205.8</ele>
        <time>2020-08-07T08:30:37Z</time>
      </trkpt>
      <trkpt lat="45.66621" lon="6.7753">
        <ele>1206.1</ele>
        <time>2020-08-07T08:30:39Z</time>
      </trkpt>
      <trkpt lat="45.66626" lon="6.77535">
        <ele>1206.3</ele>
        <time>2020-08-07T08:30:40Z</time>
      </trkpt>
      <trkpt lat="45.6663" lon="6.7754">
        <ele>1206.6</ele>
        <time>2020-08-07T08:30:42Z</time>
      </trkpt>
      <trkpt lat="45.66633" lon="6.77544">
        <ele>1206.9</ele>
        <time>2020-08-07T08:30:43Z</time>
      </trkpt>
      <trkpt lat="45.66635" lon="6.77547">
        <ele>1207.1</ele>
        <time>2020-08-07T08:30:44Z</time>
      </trkpt>
      <trkpt lat="45.6664" lon="6.77556">
        <ele>1207.6</ele>
        <time>2020-08-07T08:30:46Z</time>
      </trkpt>
      <trkpt lat="45.66643" lon="6.77562">
        <ele>1208.1</ele>
        <time>2020-08-07T08:30:48Z</time>
      </trkpt>
      <trkpt lat="45.66645" lon="6.77567">
        <ele>1208.5</ele>
        <time>2020-08-07T08:30:50Z</time>
      </trkpt>
      <trkpt lat="45.66646" lon="6.77575">
        <ele>1209</ele>
        <time>2020-08-07T08:30:51Z</time>
      </trkpt>
      <trkpt lat="45.66645" lon="6.77584">
        <ele>1209.7</ele>
        <time>2020-08-07T08:30:53Z</time>
      </trkpt>
      <trkpt lat="45.66645" lon="6.77588">
        <ele>1210.1</ele>
        <time>2020-08-07T08:30:54Z</time>
      </trkpt>
      <trkpt lat="45.66643" lon="6.77594">
        <ele>1210.6</ele>
        <time>2020-08-07T08:30:55Z</time>
      </trkpt>
      <trkpt lat="45.66642" lon="6.77599">
        <ele>1211.2</ele>
        <time>2020-08-07T08:30:57Z</time>
      </trkpt>
      <trkpt lat="45.66646" lon="6.77609">
        <ele>1212.1</ele>
        <time>2020-08-07T08:30:58Z</time>
      </trkpt>
      <trkpt lat="45.6665" lon="6.77611">
        <ele>1212.7</ele>
        <time>2020-08-07T08:31:00Z</time>
      </trkpt>
      <trkpt lat="45.66654" lon="6.77608">
        <ele>1213.1</ele>
        <time>2020-08-07T08:31:02Z</time>
      </trkpt>
      <trkpt lat="45.66657" lon="6.77605">
        <ele>1213.3</ele>
        <time>2020-08-07T08:31:03Z</time>
      </trkpt>
      <trkpt lat="45.66661" lon="6.77598">
        <ele>1213.7</ele>
        <time>2020-08-07T08:31:04Z</time>
      </trkpt>
      <trkpt lat="45.66664" lon="6.77591">
        <ele>1213.9</ele>
        <time>2020-08-07T08:31:06Z</time>
      </trkpt>
      <trkpt lat="45.66664" lon="6.77587">
        <ele>1214</ele>
        <time>2020-08-07T08:31:08Z</time>
      </trkpt>
      <trkpt lat="45.66666" lon="6.77579">
        <ele>1214.1</ele>
        <time>2020-08-07T08:31:10Z</time>
      </trkpt>
      <trkpt lat="45.66668" lon="6.77573">
        <ele>1214.2</ele>
        <time>2020-08-07T08:31:11Z</time>
      </trkpt>
      <trkpt lat="45.66669" lon="6.77568">
        <ele>1214.3</ele>
        <time>2020-08-07T08:31:12Z</time>
      </trkpt>
      <trkpt lat="45.66673" lon="6.77555">
        <ele>1214.6</ele>
        <time>2020-08-07T08:31:15Z</time>
      </trkpt>
      <trkpt lat="45.66674" lon="6.7755">
        <ele>1214.8</ele>
        <time>2020-08-07T08:31:17Z</time>
      </trkpt>
      <trkpt lat="45.66677" lon="6.77543">
        <ele>1215.1</ele>
        <time>2020-08-07T08:31:20Z</time>
      </trkpt>
      <trkpt lat="45.66678" lon="6.77539">
        <ele>1215.2</ele>
        <time>2020-08-07T08:31:21Z</time>
      </trkpt>
      <trkpt lat="45.6668" lon="6.77533">
        <ele>1215.5</ele>
        <time>2020-08-07T08:31:22Z</time>
      </trkpt>
      <trkpt lat="45.66683" lon="6.77528">
        <ele>1215.8</ele>
        <time>2020-08-07T08:31:24Z</time>
      </trkpt>
      <trkpt lat="45.66684" lon="6.77526">
        <ele>1216</ele>
        <time>2020-08-07T08:31:25Z</time>
      </trkpt>
      <trkpt lat="45.66687" lon="6.77518">
        <ele>1216.5</ele>
        <time>2020-08-07T08:31:27Z</time>
      </trkpt>
      <trkpt lat="45.66689" lon="6.77514">
        <ele>1216.8</ele>
        <time>2020-08-07T08:31:28Z</time>
      </trkpt>
      <trkpt lat="45.66692" lon="6.7751">
        <ele>1217.2</ele>
        <time>2020-08-07T08:31:31Z</time>
      </trkpt>
      <trkpt lat="45.66694" lon="6.77506">
        <ele>1217.5</ele>
        <time>2020-08-07T08:31:32Z</time>
      </trkpt>
      <trkpt lat="45.66697" lon="6.775">
        <ele>1218</ele>
        <time>2020-08-07T08:31:33Z</time>
      </trkpt>
      <trkpt lat="45.667" lon="6.77493">
        <ele>1218.5</ele>
        <time>2020-08-07T08:31:35Z</time>
      </trkpt>
      <trkpt lat="45.66702" lon="6.77489">
        <ele>1218.8</ele>
        <time>2020-08-07T08:31:37Z</time>
      </trkpt>
      <trkpt lat="45.66704" lon="6.77486">
        <ele>1219</ele>
        <time>2020-08-07T08:31:38Z</time>
      </trkpt>
      <trkpt lat="45.66706" lon="6.7748">
        <ele>1219.5</ele>
        <time>2020-08-07T08:31:41Z</time>
      </trkpt>
      <trkpt lat="45.66707" lon="6.77477">
        <ele>1219.7</ele>
        <time>2020-08-07T08:31:42Z</time>
      </trkpt>
      <trkpt lat="45.66707" lon="6.77475">
        <ele>1219.9</ele>
        <time>2020-08-07T08:31:43Z</time>
      </trkpt>
      <trkpt lat="45.66709" lon="6.77469">
        <ele>1220.2</ele>
        <time>2020-08-07T08:31:46Z</time>
      </trkpt>
      <trkpt lat="45.6671" lon="6.77464">
        <ele>1220.6</ele>
        <time>2020-08-07T08:31:47Z</time>
      </trkpt>
      <trkpt lat="45.6671" lon="6.77462">
        <ele>1220.7</ele>
        <time>2020-08-07T08:31:48Z</time>
      </trkpt>
      <trkpt lat="45.6671" lon="6.77457">
        <ele>1221</ele>
        <time>2020-08-07T08:31:50Z</time>
      </trkpt>
      <trkpt lat="45.6671" lon="6.77455">
        <ele>1221.2</ele>
        <time>2020-08-07T08:31:51Z</time>
      </trkpt>
      <trkpt lat="45.66711" lon="6.7745">
        <ele>1221.5</ele>
        <time>2020-08-07T08:31:53Z</time>
      </trkpt>
      <trkpt lat="45.6671" lon="6.77441">
        <ele>1222</ele>
        <time>2020-08-07T08:31:55Z</time>
      </trkpt>
      <trkpt lat="45.66709" lon="6.77437">
        <ele>1222.3</ele>
        <time>2020-08-07T08:31:56Z</time>
      </trkpt>
      <trkpt lat="45.66708" lon="6.77428">
        <ele>1222.8</ele>
        <time>2020-08-07T08:31:59Z</time>
      </trkpt>
      <trkpt lat="45.66707" lon="6.77424">
        <ele>1223.1</ele>
        <time>2020-08-07T08:32:00Z</time>
      </trkpt>
      <trkpt lat="45.66706" lon="6.7742">
        <ele>1223.4</ele>
        <time>2020-08-07T08:32:03Z</time>
      </trkpt>
      <trkpt lat="45.66705" lon="6.77415">
        <ele>1223.7</ele>
        <time>2020-08-07T08:32:04Z</time>
      </trkpt>
      <trkpt lat="45.66702" lon="6.77407">
        <ele>1224.2</ele>
        <time>2020-08-07T08:32:06Z</time>
      </trkpt>
      <trkpt lat="45.66698" lon="6.77398">
        <ele>1224.9</ele>
        <time>2020-08-07T08:32:08Z</time>
      </trkpt>
      <trkpt lat="45.66696" lon="6.77393">
        <ele>1225.3</ele>
        <time>2020-08-07T08:32:09Z</time>
      </trkpt>
      <trkpt lat="45.66694" lon="6.77387">
        <ele>1225.7</ele>
        <time>2020-08-07T08:32:11Z</time>
      </trkpt>
      <trkpt lat="45.66692" lon="6.77382">
        <ele>1226</ele>
        <time>2020-08-07T08:32:12Z</time>
      </trkpt>
      <trkpt lat="45.6669" lon="6.77374">
        <ele>1226.6</ele>
        <time>2020-08-07T08:32:14Z</time>
      </trkpt>
      <trkpt lat="45.66688" lon="6.77368">
        <ele>1227</ele>
        <time>2020-08-07T08:32:15Z</time>
      </trkpt>
      <trkpt lat="45.66684" lon="6.77352">
        <ele>1228</ele>
        <time>2020-08-07T08:32:16Z</time>
      </trkpt>
      <trkpt lat="45.66683" lon="6.77341">
        <ele>1228.7</ele>
        <time>2020-08-07T08:32:19Z</time>
      </trkpt>
      <trkpt lat="45.66682" lon="6.77333">
        <ele>1229.1</ele>
        <time>2020-08-07T08:32:20Z</time>
      </trkpt>
      <trkpt lat="45.66683" lon="6.77327">
        <ele>1229.4</ele>
        <time>2020-08-07T08:32:21Z</time>
      </trkpt>
      <trkpt lat="45.66683" lon="6.7732">
        <ele>1229.8</ele>
        <time>2020-08-07T08:32:23Z</time>
      </trkpt>
      <trkpt lat="45.66684" lon="6.77316">
        <ele>1229.9</ele>
        <time>2020-08-07T08:32:25Z</time>
      </trkpt>
      <trkpt lat="45.66685" lon="6.77312">
        <ele>1230.1</ele>
        <time>2020-08-07T08:32:26Z</time>
      </trkpt>
      <trkpt lat="45.66686" lon="6.77307">
        <ele>1230.4</ele>
        <time>2020-08-07T08:32:27Z</time>
      </trkpt>
      <trkpt lat="45.66688" lon="6.77302">
        <ele>1230.6</ele>
        <time>2020-08-07T08:32:29Z</time>
      </trkpt>
      <trkpt lat="45.66691" lon="6.77296">
        <ele>1230.9</ele>
        <time>2020-08-07T08:32:31Z</time>
      </trkpt>
      <trkpt lat="45.66693" lon="6.77291">
        <ele>1231.2</ele>
        <time>2020-08-07T08:32:32Z</time>
      </trkpt>
      <trkpt lat="45.66695" lon="6.77287">
        <ele>1231.4</ele>
        <time>2020-08-07T08:32:33Z</time>
      </trkpt>
      <trkpt lat="45.66697" lon="6.77281">
        <ele>1231.8</ele>
        <time>2020-08-07T08:32:34Z</time>
      </trkpt>
      <trkpt lat="45.66698" lon="6.77277">
        <ele>1232</ele>
        <time>2020-08-07T08:32:35Z</time>
      </trkpt>
      <trkpt lat="45.66701" lon="6.77265">
        <ele>1232.7</ele>
        <time>2020-08-07T08:32:38Z</time>
      </trkpt>
      <trkpt lat="45.66701" lon="6.7726">
        <ele>1233</ele>
        <time>2020-08-07T08:32:39Z</time>
      </trkpt>
      <trkpt lat="45.66703" lon="6.77254">
        <ele>1233.5</ele>
        <time>2020-08-07T08:32:41Z</time>
      </trkpt>
      <trkpt lat="45.66704" lon="6.77242">
        <ele>1235</ele>
        <time>2020-08-07T08:32:43Z</time>
      </trkpt>
      <trkpt lat="45.66704" lon="6.77235">
        <ele>1235.2</ele>
        <time>2020-08-07T08:32:45Z</time>
      </trkpt>
      <trkpt lat="45.66704" lon="6.77226">
        <ele>1235.5</ele>
        <time>2020-08-07T08:32:47Z</time>
      </trkpt>
      <trkpt lat="45.66704" lon="6.77222">
        <ele>1235.8</ele>
        <time>2020-08-07T08:32:48Z</time>
      </trkpt>
      <trkpt lat="45.66704" lon="6.77217">
        <ele>1236</ele>
        <time>2020-08-07T08:32:49Z</time>
      </trkpt>
      <trkpt lat="45.66708" lon="6.77214">
        <ele>1237</ele>
        <time>2020-08-07T08:32:51Z</time>
      </trkpt>
      <trkpt lat="45.6671" lon="6.77215">
        <ele>1237.9</ele>
        <time>2020-08-07T08:32:52Z</time>
      </trkpt>
      <trkpt lat="45.66711" lon="6.77216">
        <ele>1238.1</ele>
        <time>2020-08-07T08:32:53Z</time>
      </trkpt>
      <trkpt lat="45.66709" lon="6.77227">
        <ele>1238.7</ele>
        <time>2020-08-07T08:32:56Z</time>
      </trkpt>
      <trkpt lat="45.66708" lon="6.77232">
        <ele>1238.9</ele>
        <time>2020-08-07T08:32:57Z</time>
      </trkpt>
      <trkpt lat="45.66707" lon="6.77238">
        <ele>1239.1</ele>
        <time>2020-08-07T08:32:59Z</time>
      </trkpt>
      <trkpt lat="45.66706" lon="6.77243">
        <ele>1239.2</ele>
        <time>2020-08-07T08:33:00Z</time>
      </trkpt>
      <trkpt lat="45.66707" lon="6.77259">
        <ele>1239.7</ele>
        <time>2020-08-07T08:33:02Z</time>
      </trkpt>
      <trkpt lat="45.66708" lon="6.77266">
        <ele>1240</ele>
        <time>2020-08-07T08:33:05Z</time>
      </trkpt>
      <trkpt lat="45.66708" lon="6.77271">
        <ele>1240.1</ele>
        <time>2020-08-07T08:33:06Z</time>
      </trkpt>
      <trkpt lat="45.6671" lon="6.77278">
        <ele>1240.4</ele>
        <time>2020-08-07T08:33:07Z</time>
      </trkpt>
      <trkpt lat="45.66712" lon="6.77283">
        <ele>1240.7</ele>
        <time>2020-08-07T08:33:08Z</time>
      </trkpt>
      <trkpt lat="45.66715" lon="6.77289">
        <ele>1241.1</ele>
        <time>2020-08-07T08:33:10Z</time>
      </trkpt>
      <trkpt lat="45.6672" lon="6.77294">
        <ele>1241.5</ele>
        <time>2020-08-07T08:33:12Z</time>
      </trkpt>
      <trkpt lat="45.66723" lon="6.77297">
        <ele>1241.8</ele>
        <time>2020-08-07T08:33:14Z</time>
      </trkpt>
      <trkpt lat="45.6673" lon="6.77305">
        <ele>1242.6</ele>
        <time>2020-08-07T08:33:16Z</time>
      </trkpt>
      <trkpt lat="45.66733" lon="6.77308">
        <ele>1242.9</ele>
        <time>2020-08-07T08:33:18Z</time>
      </trkpt>
      <trkpt lat="45.66734" lon="6.77312">
        <ele>1243.2</ele>
        <time>2020-08-07T08:33:19Z</time>
      </trkpt>
      <trkpt lat="45.66737" lon="6.77318">
        <ele>1243.6</ele>
        <time>2020-08-07T08:33:21Z</time>
      </trkpt>
      <trkpt lat="45.66737" lon="6.77322">
        <ele>1243.9</ele>
        <time>2020-08-07T08:33:23Z</time>
      </trkpt>
      <trkpt lat="45.66737" lon="6.77326">
        <ele>1244.1</ele>
        <time>2020-08-07T08:33:24Z</time>
      </trkpt>
      <trkpt lat="45.66737" lon="6.77332">
        <ele>1244.4</ele>
        <time>2020-08-07T08:33:26Z</time>
      </trkpt>
      <trkpt lat="45.66735" lon="6.77339">
        <ele>1244.8</ele>
        <time>2020-08-07T08:33:28Z</time>
      </trkpt>
      <trkpt lat="45.66734" lon="6.77343">
        <ele>1244.9</ele>
        <time>2020-08-07T08:33:29Z</time>
      </trkpt>
      <trkpt lat="45.66733" lon="6.77351">
        <ele>1245.3</ele>
        <time>2020-08-07T08:33:30Z</time>
      </trkpt>
      <trkpt lat="45.66732" lon="6.77355">
        <ele>1245.5</ele>
        <time>2020-08-07T08:33:32Z</time>
      </trkpt>
      <trkpt lat="45.66732" lon="6.77364">
        <ele>1245.9</ele>
        <time>2020-08-07T08:33:34Z</time>
      </trkpt>
      <trkpt lat="45.66733" lon="6.77371">
        <ele>1246.2</ele>
        <time>2020-08-07T08:33:36Z</time>
      </trkpt>
      <trkpt lat="45.66734" lon="6.77377">
        <ele>1246.5</ele>
        <time>2020-08-07T08:33:37Z</time>
      </trkpt>
      <trkpt lat="45.66736" lon="6.7738">
        <ele>1246.7</ele>
        <time>2020-08-07T08:33:38Z</time>
      </trkpt>
      <trkpt lat="45.66738" lon="6.77384">
        <ele>1246.9</ele>
        <time>2020-08-07T08:33:40Z</time>
      </trkpt>
      <trkpt lat="45.66741" lon="6.77389">
        <ele>1247.2</ele>
        <time>2020-08-07T08:33:42Z</time>
      </trkpt>
      <trkpt lat="45.66742" lon="6.77392">
        <ele>1247.4</ele>
        <time>2020-08-07T08:33:43Z</time>
      </trkpt>
      <trkpt lat="45.66745" lon="6.77397">
        <ele>1247.7</ele>
        <time>2020-08-07T08:33:44Z</time>
      </trkpt>
      <trkpt lat="45.6675" lon="6.77405">
        <ele>1248.1</ele>
        <time>2020-08-07T08:33:46Z</time>
      </trkpt>
      <trkpt lat="45.66752" lon="6.7741">
        <ele>1248.4</ele>
        <time>2020-08-07T08:33:48Z</time>
      </trkpt>
      <trkpt lat="45.66754" lon="6.77412">
        <ele>1248.6</ele>
        <time>2020-08-07T08:33:49Z</time>
      </trkpt>
      <trkpt lat="45.66756" lon="6.77415">
        <ele>1248.7</ele>
        <time>2020-08-07T08:33:51Z</time>
      </trkpt>
      <trkpt lat="45.6676" lon="6.77422">
        <ele>1249.1</ele>
        <time>2020-08-07T08:33:52Z</time>
      </trkpt>
      <trkpt lat="45.66763" lon="6.77427">
        <ele>1249.6</ele>
        <time>2020-08-07T08:33:54Z</time>
      </trkpt>
      <trkpt lat="45.66765" lon="6.7743">
        <ele>1250</ele>
        <time>2020-08-07T08:33:55Z</time>
      </trkpt>
      <trkpt lat="45.66767" lon="6.77434">
        <ele>1250.4</ele>
        <time>2020-08-07T08:33:56Z</time>
      </trkpt>
      <trkpt lat="45.66769" lon="6.77439">
        <ele>1250.9</ele>
        <time>2020-08-07T08:33:58Z</time>
      </trkpt>
      <trkpt lat="45.6677" lon="6.77445">
        <ele>1251.4</ele>
        <time>2020-08-07T08:33:59Z</time>
      </trkpt>
      <trkpt lat="45.66771" lon="6.77448">
        <ele>1251.7</ele>
        <time>2020-08-07T08:34:01Z</time>
      </trkpt>
      <trkpt lat="45.66772" lon="6.77453">
        <ele>1252</ele>
        <time>2020-08-07T08:34:02Z</time>
      </trkpt>
      <trkpt lat="45.66773" lon="6.77457">
        <ele>1252.3</ele>
        <time>2020-08-07T08:34:03Z</time>
      </trkpt>
      <trkpt lat="45.66774" lon="6.77464">
        <ele>1252.8</ele>
        <time>2020-08-07T08:34:04Z</time>
      </trkpt>
      <trkpt lat="45.66776" lon="6.77472">
        <ele>1253.4</ele>
        <time>2020-08-07T08:34:06Z</time>
      </trkpt>
      <trkpt lat="45.66777" lon="6.77477">
        <ele>1253.7</ele>
        <time>2020-08-07T08:34:07Z</time>
      </trkpt>
      <trkpt lat="45.66778" lon="6.77489">
        <ele>1254.5</ele>
        <time>2020-08-07T08:34:10Z</time>
      </trkpt>
      <trkpt lat="45.66782" lon="6.77496">
        <ele>1255.1</ele>
        <time>2020-08-07T08:34:13Z</time>
      </trkpt>
      <trkpt lat="45.66787" lon="6.77495">
        <ele>1255.4</ele>
        <time>2020-08-07T08:34:15Z</time>
      </trkpt>
      <trkpt lat="45.66789" lon="6.7749">
        <ele>1255.5</ele>
        <time>2020-08-07T08:34:17Z</time>
      </trkpt>
      <trkpt lat="45.66789" lon="6.77479">
        <ele>1255.8</ele>
        <time>2020-08-07T08:34:18Z</time>
      </trkpt>
      <trkpt lat="45.66787" lon="6.77471">
        <ele>1256</ele>
        <time>2020-08-07T08:34:20Z</time>
      </trkpt>
      <trkpt lat="45.66784" lon="6.77458">
        <ele>1256.2</ele>
        <time>2020-08-07T08:34:22Z</time>
      </trkpt>
      <trkpt lat="45.66783" lon="6.77452">
        <ele>1256.4</ele>
        <time>2020-08-07T08:34:23Z</time>
      </trkpt>
      <trkpt lat="45.66781" lon="6.77441">
        <ele>1256.6</ele>
        <time>2020-08-07T08:34:26Z</time>
      </trkpt>
      <trkpt lat="45.66781" lon="6.77437">
        <ele>1256.8</ele>
        <time>2020-08-07T08:34:27Z</time>
      </trkpt>
      <trkpt lat="45.6678" lon="6.77431">
        <ele>1257</ele>
        <time>2020-08-07T08:34:29Z</time>
      </trkpt>
      <trkpt lat="45.66778" lon="6.77421">
        <ele>1257.4</ele>
        <time>2020-08-07T08:34:30Z</time>
      </trkpt>
      <trkpt lat="45.66777" lon="6.77415">
        <ele>1257.6</ele>
        <time>2020-08-07T08:34:32Z</time>
      </trkpt>
      <trkpt lat="45.66776" lon="6.77409">
        <ele>1258</ele>
        <time>2020-08-07T08:34:33Z</time>
      </trkpt>
      <trkpt lat="45.66775" lon="6.77405">
        <ele>1258.2</ele>
        <time>2020-08-07T08:34:34Z</time>
      </trkpt>
      <trkpt lat="45.66773" lon="6.77398">
        <ele>1258.6</ele>
        <time>2020-08-07T08:34:37Z</time>
      </trkpt>
      <trkpt lat="45.66772" lon="6.77394">
        <ele>1258.8</ele>
        <time>2020-08-07T08:34:38Z</time>
      </trkpt>
      <trkpt lat="45.66771" lon="6.77387">
        <ele>1259.2</ele>
        <time>2020-08-07T08:34:39Z</time>
      </trkpt>
      <trkpt lat="45.6677" lon="6.77378">
        <ele>1259.8</ele>
        <time>2020-08-07T08:34:41Z</time>
      </trkpt>
      <trkpt lat="45.66769" lon="6.77374">
        <ele>1260.1</ele>
        <time>2020-08-07T08:34:42Z</time>
      </trkpt>
      <trkpt lat="45.66769" lon="6.77368">
        <ele>1260.5</ele>
        <time>2020-08-07T08:34:45Z</time>
      </trkpt>
      <trkpt lat="45.66768" lon="6.77361">
        <ele>1260.9</ele>
        <time>2020-08-07T08:34:46Z</time>
      </trkpt>
      <trkpt lat="45.66767" lon="6.77356">
        <ele>1261.2</ele>
        <time>2020-08-07T08:34:47Z</time>
      </trkpt>
      <trkpt lat="45.66767" lon="6.77349">
        <ele>1261.6</ele>
        <time>2020-08-07T08:34:49Z</time>
      </trkpt>
      <trkpt lat="45.66766" lon="6.7734">
        <ele>1262.1</ele>
        <time>2020-08-07T08:34:52Z</time>
      </trkpt>
      <trkpt lat="45.66766" lon="6.77334">
        <ele>1262.5</ele>
        <time>2020-08-07T08:34:53Z</time>
      </trkpt>
      <trkpt lat="45.66766" lon="6.77328">
        <ele>1262.9</ele>
        <time>2020-08-07T08:34:55Z</time>
      </trkpt>
      <trkpt lat="45.66766" lon="6.77311">
        <ele>1264</ele>
        <time>2020-08-07T08:34:57Z</time>
      </trkpt>
      <trkpt lat="45.66767" lon="6.77305">
        <ele>1264.5</ele>
        <time>2020-08-07T08:35:00Z</time>
      </trkpt>
      <trkpt lat="45.66767" lon="6.77301">
        <ele>1264.8</ele>
        <time>2020-08-07T08:35:01Z</time>
      </trkpt>
      <trkpt lat="45.66768" lon="6.77293">
        <ele>1265.3</ele>
        <time>2020-08-07T08:35:02Z</time>
      </trkpt>
      <trkpt lat="45.66769" lon="6.77289">
        <ele>1265.7</ele>
        <time>2020-08-07T08:35:03Z</time>
      </trkpt>
      <trkpt lat="45.66769" lon="6.77285">
        <ele>1266</ele>
        <time>2020-08-07T08:35:04Z</time>
      </trkpt>
      <trkpt lat="45.66769" lon="6.77276">
        <ele>1266.7</ele>
        <time>2020-08-07T08:35:06Z</time>
      </trkpt>
      <trkpt lat="45.66769" lon="6.77272">
        <ele>1267</ele>
        <time>2020-08-07T08:35:07Z</time>
      </trkpt>
      <trkpt lat="45.66767" lon="6.77268">
        <ele>1267.4</ele>
        <time>2020-08-07T08:35:09Z</time>
      </trkpt>
      <trkpt lat="45.66765" lon="6.77263">
        <ele>1267.9</ele>
        <time>2020-08-07T08:35:10Z</time>
      </trkpt>
      <trkpt lat="45.66763" lon="6.77253">
        <ele>1268.6</ele>
        <time>2020-08-07T08:35:12Z</time>
      </trkpt>
      <trkpt lat="45.66763" lon="6.77248">
        <ele>1268.9</ele>
        <time>2020-08-07T08:35:14Z</time>
      </trkpt>
      <trkpt lat="45.66763" lon="6.77244">
        <ele>1269.1</ele>
        <time>2020-08-07T08:35:15Z</time>
      </trkpt>
      <trkpt lat="45.66766" lon="6.77238">
        <ele>1269.5</ele>
        <time>2020-08-07T08:35:16Z</time>
      </trkpt>
      <trkpt lat="45.66769" lon="6.77235">
        <ele>1269.8</ele>
        <time>2020-08-07T08:35:18Z</time>
      </trkpt>
      <trkpt lat="45.66771" lon="6.77233">
        <ele>1270</ele>
        <time>2020-08-07T08:35:19Z</time>
      </trkpt>
      <trkpt lat="45.66774" lon="6.77232">
        <ele>1270.2</ele>
        <time>2020-08-07T08:35:20Z</time>
      </trkpt>
      <trkpt lat="45.66778" lon="6.77231">
        <ele>1270.5</ele>
        <time>2020-08-07T08:35:21Z</time>
      </trkpt>
      <trkpt lat="45.66782" lon="6.77231">
        <ele>1270.8</ele>
        <time>2020-08-07T08:35:23Z</time>
      </trkpt>
      <trkpt lat="45.66787" lon="6.77233">
        <ele>1271.2</ele>
        <time>2020-08-07T08:35:25Z</time>
      </trkpt>
      <trkpt lat="45.66789" lon="6.77234">
        <ele>1271.3</ele>
        <time>2020-08-07T08:35:26Z</time>
      </trkpt>
      <trkpt lat="45.66791" lon="6.77235">
        <ele>1271.5</ele>
        <time>2020-08-07T08:35:27Z</time>
      </trkpt>
      <trkpt lat="45.66794" lon="6.77234">
        <ele>1271.6</ele>
        <time>2020-08-07T08:35:28Z</time>
      </trkpt>
      <trkpt lat="45.66797" lon="6.77233">
        <ele>1271.8</ele>
        <time>2020-08-07T08:35:30Z</time>
      </trkpt>
      <trkpt lat="45.66802" lon="6.77225">
        <ele>1272.4</ele>
        <time>2020-08-07T08:35:32Z</time>
      </trkpt>
      <trkpt lat="45.66805" lon="6.77221">
        <ele>1272.7</ele>
        <time>2020-08-07T08:35:33Z</time>
      </trkpt>
      <trkpt lat="45.66806" lon="6.77216">
        <ele>1273</ele>
        <time>2020-08-07T08:35:35Z</time>
      </trkpt>
      <trkpt lat="45.66806" lon="6.7721">
        <ele>1273.4</ele>
        <time>2020-08-07T08:35:37Z</time>
      </trkpt>
      <trkpt lat="45.66806" lon="6.77206">
        <ele>1273.7</ele>
        <time>2020-08-07T08:35:38Z</time>
      </trkpt>
      <trkpt lat="45.66807" lon="6.772">
        <ele>1274.1</ele>
        <time>2020-08-07T08:35:39Z</time>
      </trkpt>
      <trkpt lat="45.66807" lon="6.77198">
        <ele>1274.3</ele>
        <time>2020-08-07T08:35:40Z</time>
      </trkpt>
      <trkpt lat="45.66808" lon="6.7719">
        <ele>1274.9</ele>
        <time>2020-08-07T08:35:41Z</time>
      </trkpt>
      <trkpt lat="45.66808" lon="6.77183">
        <ele>1275.4</ele>
        <time>2020-08-07T08:35:43Z</time>
      </trkpt>
      <trkpt lat="45.66808" lon="6.77177">
        <ele>1275.8</ele>
        <time>2020-08-07T08:35:44Z</time>
      </trkpt>
      <trkpt lat="45.6681" lon="6.77171">
        <ele>1276.2</ele>
        <time>2020-08-07T08:35:46Z</time>
      </trkpt>
      <trkpt lat="45.66814" lon="6.77169">
        <ele>1276.5</ele>
        <time>2020-08-07T08:35:48Z</time>
      </trkpt>
      <trkpt lat="45.66817" lon="6.77174">
        <ele>1276.8</ele>
        <time>2020-08-07T08:35:50Z</time>
      </trkpt>
      <trkpt lat="45.66816" lon="6.77181">
        <ele>1277</ele>
        <time>2020-08-07T08:35:51Z</time>
      </trkpt>
      <trkpt lat="45.66815" lon="6.77185">
        <ele>1277.1</ele>
        <time>2020-08-07T08:35:53Z</time>
      </trkpt>
      <trkpt lat="45.66815" lon="6.77193">
        <ele>1277.4</ele>
        <time>2020-08-07T08:35:55Z</time>
      </trkpt>
      <trkpt lat="45.66816" lon="6.77202">
        <ele>1277.6</ele>
        <time>2020-08-07T08:35:57Z</time>
      </trkpt>
      <trkpt lat="45.66816" lon="6.77207">
        <ele>1277.8</ele>
        <time>2020-08-07T08:35:58Z</time>
      </trkpt>
      <trkpt lat="45.66817" lon="6.77216">
        <ele>1278.2</ele>
        <time>2020-08-07T08:36:00Z</time>
      </trkpt>
      <trkpt lat="45.66817" lon="6.77228">
        <ele>1278.8</ele>
        <time>2020-08-07T08:36:02Z</time>
      </trkpt>
      <trkpt lat="45.66815" lon="6.77232">
        <ele>1279</ele>
        <time>2020-08-07T08:36:04Z</time>
      </trkpt>
      <trkpt lat="45.66815" lon="6.77237">
        <ele>1279.3</ele>
        <time>2020-08-07T08:36:05Z</time>
      </trkpt>
      <trkpt lat="45.66814" lon="6.77242">
        <ele>1279.6</ele>
        <time>2020-08-07T08:36:07Z</time>
      </trkpt>
      <trkpt lat="45.66812" lon="6.77245">
        <ele>1279.9</ele>
        <time>2020-08-07T08:36:08Z</time>
      </trkpt>
      <trkpt lat="45.66805" lon="6.77249">
        <ele>1280.4</ele>
        <time>2020-08-07T08:36:10Z</time>
      </trkpt>
      <trkpt lat="45.66801" lon="6.77252">
        <ele>1280.8</ele>
        <time>2020-08-07T08:36:13Z</time>
      </trkpt>
      <trkpt lat="45.66798" lon="6.77256">
        <ele>1281.1</ele>
        <time>2020-08-07T08:36:14Z</time>
      </trkpt>
      <trkpt lat="45.66796" lon="6.77267">
        <ele>1281.6</ele>
        <time>2020-08-07T08:36:16Z</time>
      </trkpt>
      <trkpt lat="45.66797" lon="6.77273">
        <ele>1281.8</ele>
        <time>2020-08-07T08:36:18Z</time>
      </trkpt>
      <trkpt lat="45.66798" lon="6.77281">
        <ele>1282</ele>
        <time>2020-08-07T08:36:20Z</time>
      </trkpt>
      <trkpt lat="45.66799" lon="6.77286">
        <ele>1282.2</ele>
        <time>2020-08-07T08:36:22Z</time>
      </trkpt>
      <trkpt lat="45.66801" lon="6.77295">
        <ele>1282.4</ele>
        <time>2020-08-07T08:36:23Z</time>
      </trkpt>
      <trkpt lat="45.66805" lon="6.77305">
        <ele>1282.7</ele>
        <time>2020-08-07T08:36:26Z</time>
      </trkpt>
      <trkpt lat="45.66806" lon="6.77308">
        <ele>1282.8</ele>
        <time>2020-08-07T08:36:27Z</time>
      </trkpt>
      <trkpt lat="45.6681" lon="6.77314">
        <ele>1283.1</ele>
        <time>2020-08-07T08:36:29Z</time>
      </trkpt>
      <trkpt lat="45.66814" lon="6.77323">
        <ele>1283.5</ele>
        <time>2020-08-07T08:36:31Z</time>
      </trkpt>
      <trkpt lat="45.66817" lon="6.77329">
        <ele>1283.8</ele>
        <time>2020-08-07T08:36:34Z</time>
      </trkpt>
      <trkpt lat="45.66818" lon="6.77332">
        <ele>1284</ele>
        <time>2020-08-07T08:36:35Z</time>
      </trkpt>
      <trkpt lat="45.6682" lon="6.77336">
        <ele>1284.2</ele>
        <time>2020-08-07T08:36:36Z</time>
      </trkpt>
      <trkpt lat="45.6682" lon="6.77345">
        <ele>1284.7</ele>
        <time>2020-08-07T08:36:37Z</time>
      </trkpt>
      <trkpt lat="45.66821" lon="6.77352">
        <ele>1285.1</ele>
        <time>2020-08-07T08:36:40Z</time>
      </trkpt>
      <trkpt lat="45.66821" lon="6.77358">
        <ele>1285.5</ele>
        <time>2020-08-07T08:36:41Z</time>
      </trkpt>
      <trkpt lat="45.66821" lon="6.77368">
        <ele>1286.1</ele>
        <time>2020-08-07T08:36:43Z</time>
      </trkpt>
      <trkpt lat="45.66822" lon="6.77378">
        <ele>1286.7</ele>
        <time>2020-08-07T08:36:46Z</time>
      </trkpt>
      <trkpt lat="45.66822" lon="6.77384">
        <ele>1287.1</ele>
        <time>2020-08-07T08:36:48Z</time>
      </trkpt>
      <trkpt lat="45.66822" lon="6.77389">
        <ele>1287.5</ele>
        <time>2020-08-07T08:36:50Z</time>
      </trkpt>
      <trkpt lat="45.66823" lon="6.77397">
        <ele>1288.1</ele>
        <time>2020-08-07T08:36:51Z</time>
      </trkpt>
      <trkpt lat="45.66824" lon="6.77406">
        <ele>1288.7</ele>
        <time>2020-08-07T08:36:53Z</time>
      </trkpt>
      <trkpt lat="45.66825" lon="6.77412">
        <ele>1289.2</ele>
        <time>2020-08-07T08:36:54Z</time>
      </trkpt>
      <trkpt lat="45.66826" lon="6.77416">
        <ele>1289.5</ele>
        <time>2020-08-07T08:36:56Z</time>
      </trkpt>
      <trkpt lat="45.66828" lon="6.77422">
        <ele>1290</ele>
        <time>2020-08-07T08:36:57Z</time>
      </trkpt>
      <trkpt lat="45.66829" lon="6.77428">
        <ele>1290.4</ele>
        <time>2020-08-07T08:36:58Z</time>
      </trkpt>
      <trkpt lat="45.6683" lon="6.77432">
        <ele>1290.7</ele>
        <time>2020-08-07T08:37:00Z</time>
      </trkpt>
      <trkpt lat="45.66833" lon="6.77439">
        <ele>1291.4</ele>
        <time>2020-08-07T08:37:02Z</time>
      </trkpt>
      <trkpt lat="45.66835" lon="6.77443">
        <ele>1291.7</ele>
        <time>2020-08-07T08:37:03Z</time>
      </trkpt>
      <trkpt lat="45.66837" lon="6.77447">
        <ele>1292.1</ele>
        <time>2020-08-07T08:37:05Z</time>
      </trkpt>
      <trkpt lat="45.6684" lon="6.77451">
        <ele>1292.5</ele>
        <time>2020-08-07T08:37:07Z</time>
      </trkpt>
      <trkpt lat="45.66843" lon="6.77455">
        <ele>1293</ele>
        <time>2020-08-07T08:37:08Z</time>
      </trkpt>
      <trkpt lat="45.66846" lon="6.77458">
        <ele>1293.3</ele>
        <time>2020-08-07T08:37:09Z</time>
      </trkpt>
      <trkpt lat="45.66848" lon="6.7746">
        <ele>1293.7</ele>
        <time>2020-08-07T08:37:11Z</time>
      </trkpt>
      <trkpt lat="45.66851" lon="6.77464">
        <ele>1294.1</ele>
        <time>2020-08-07T08:37:12Z</time>
      </trkpt>
      <trkpt lat="45.66857" lon="6.7747">
        <ele>1294.8</ele>
        <time>2020-08-07T08:37:14Z</time>
      </trkpt>
      <trkpt lat="45.66859" lon="6.77473">
        <ele>1295.1</ele>
        <time>2020-08-07T08:37:16Z</time>
      </trkpt>
      <trkpt lat="45.66862" lon="6.7748">
        <ele>1295.6</ele>
        <time>2020-08-07T08:37:18Z</time>
      </trkpt>
      <trkpt lat="45.66863" lon="6.77485">
        <ele>1296</ele>
        <time>2020-08-07T08:37:21Z</time>
      </trkpt>
      <trkpt lat="45.66862" lon="6.77487">
        <ele>1296.1</ele>
        <time>2020-08-07T08:37:22Z</time>
      </trkpt>
      <trkpt lat="45.66861" lon="6.77492">
        <ele>1296.6</ele>
        <time>2020-08-07T08:37:23Z</time>
      </trkpt>
      <trkpt lat="45.6686" lon="6.77497">
        <ele>1296.9</ele>
        <time>2020-08-07T08:37:24Z</time>
      </trkpt>
      <trkpt lat="45.66859" lon="6.77502">
        <ele>1297.3</ele>
        <time>2020-08-07T08:37:26Z</time>
      </trkpt>
      <trkpt lat="45.66858" lon="6.77505">
        <ele>1297.6</ele>
        <time>2020-08-07T08:37:27Z</time>
      </trkpt>
      <trkpt lat="45.66856" lon="6.77511">
        <ele>1298.2</ele>
        <time>2020-08-07T08:37:28Z</time>
      </trkpt>
      <trkpt lat="45.66854" lon="6.77515">
        <ele>1298.6</ele>
        <time>2020-08-07T08:37:29Z</time>
      </trkpt>
      <trkpt lat="45.66851" lon="6.77524">
        <ele>1299.4</ele>
        <time>2020-08-07T08:37:31Z</time>
      </trkpt>
      <trkpt lat="45.6685" lon="6.7753">
        <ele>1299.9</ele>
        <time>2020-08-07T08:37:32Z</time>
      </trkpt>
      <trkpt lat="45.66852" lon="6.77543">
        <ele>1300.9</ele>
        <time>2020-08-07T08:37:35Z</time>
      </trkpt>
      <trkpt lat="45.66857" lon="6.77543">
        <ele>1301.2</ele>
        <time>2020-08-07T08:37:37Z</time>
      </trkpt>
      <trkpt lat="45.66863" lon="6.77536">
        <ele>1301.6</ele>
        <time>2020-08-07T08:37:39Z</time>
      </trkpt>
      <trkpt lat="45.66865" lon="6.77529">
        <ele>1301.8</ele>
        <time>2020-08-07T08:37:42Z</time>
      </trkpt>
      <trkpt lat="45.66866" lon="6.77522">
        <ele>1302</ele>
        <time>2020-08-07T08:37:43Z</time>
      </trkpt>
      <trkpt lat="45.66869" lon="6.77514">
        <ele>1302.2</ele>
        <time>2020-08-07T08:37:45Z</time>
      </trkpt>
      <trkpt lat="45.66873" lon="6.77503">
        <ele>1302.6</ele>
        <time>2020-08-07T08:37:48Z</time>
      </trkpt>
      <trkpt lat="45.66874" lon="6.77501">
        <ele>1302.7</ele>
        <time>2020-08-07T08:37:49Z</time>
      </trkpt>
      <trkpt lat="45.66877" lon="6.77492">
        <ele>1303.2</ele>
        <time>2020-08-07T08:37:52Z</time>
      </trkpt>
      <trkpt lat="45.66879" lon="6.77488">
        <ele>1303.5</ele>
        <time>2020-08-07T08:37:53Z</time>
      </trkpt>
      <trkpt lat="45.6688" lon="6.77484">
        <ele>1303.7</ele>
        <time>2020-08-07T08:37:55Z</time>
      </trkpt>
      <trkpt lat="45.66881" lon="6.7748">
        <ele>1304</ele>
        <time>2020-08-07T08:37:57Z</time>
      </trkpt>
      <trkpt lat="45.66883" lon="6.77474">
        <ele>1304.3</ele>
        <time>2020-08-07T08:37:58Z</time>
      </trkpt>
      <trkpt lat="45.66884" lon="6.7747">
        <ele>1304.6</ele>
        <time>2020-08-07T08:37:59Z</time>
      </trkpt>
      <trkpt lat="45.66884" lon="6.77462">
        <ele>1305.1</ele>
        <time>2020-08-07T08:38:01Z</time>
      </trkpt>
      <trkpt lat="45.66883" lon="6.77457">
        <ele>1305.4</ele>
        <time>2020-08-07T08:38:02Z</time>
      </trkpt>
      <trkpt lat="45.66882" lon="6.77451">
        <ele>1305.8</ele>
        <time>2020-08-07T08:38:05Z</time>
      </trkpt>
      <trkpt lat="45.66878" lon="6.77447">
        <ele>1306.2</ele>
        <time>2020-08-07T08:38:06Z</time>
      </trkpt>
      <trkpt lat="45.66875" lon="6.77444">
        <ele>1306.5</ele>
        <time>2020-08-07T08:38:07Z</time>
      </trkpt>
      <trkpt lat="45.6687" lon="6.7744">
        <ele>1306.9</ele>
        <time>2020-08-07T08:38:09Z</time>
      </trkpt>
      <trkpt lat="45.66868" lon="6.77438">
        <ele>1307.1</ele>
        <time>2020-08-07T08:38:10Z</time>
      </trkpt>
      <trkpt lat="45.66865" lon="6.77433">
        <ele>1307.3</ele>
        <time>2020-08-07T08:38:12Z</time>
      </trkpt>
      <trkpt lat="45.66864" lon="6.77429">
        <ele>1307.5</ele>
        <time>2020-08-07T08:38:13Z</time>
      </trkpt>
      <trkpt lat="45.66862" lon="6.77418">
        <ele>1307.8</ele>
        <time>2020-08-07T08:38:14Z</time>
      </trkpt>
      <trkpt lat="45.66863" lon="6.77412">
        <ele>1308</ele>
        <time>2020-08-07T08:38:16Z</time>
      </trkpt>
      <trkpt lat="45.66866" lon="6.774">
        <ele>1308.3</ele>
        <time>2020-08-07T08:38:18Z</time>
      </trkpt>
      <trkpt lat="45.66867" lon="6.77394">
        <ele>1308.5</ele>
        <time>2020-08-07T08:38:21Z</time>
      </trkpt>
      <trkpt lat="45.66869" lon="6.77385">
        <ele>1308.8</ele>
        <time>2020-08-07T08:38:23Z</time>
      </trkpt>
      <trkpt lat="45.6687" lon="6.77376">
        <ele>1309.1</ele>
        <time>2020-08-07T08:38:25Z</time>
      </trkpt>
      <trkpt lat="45.6687" lon="6.77369">
        <ele>1309.3</ele>
        <time>2020-08-07T08:38:26Z</time>
      </trkpt>
      <trkpt lat="45.66871" lon="6.77364">
        <ele>1309.6</ele>
        <time>2020-08-07T08:38:27Z</time>
      </trkpt>
      <trkpt lat="45.66871" lon="6.77359">
        <ele>1309.8</ele>
        <time>2020-08-07T08:38:28Z</time>
      </trkpt>
      <trkpt lat="45.66871" lon="6.77353">
        <ele>1310.1</ele>
        <time>2020-08-07T08:38:29Z</time>
      </trkpt>
      <trkpt lat="45.6687" lon="6.77341">
        <ele>1310.8</ele>
        <time>2020-08-07T08:38:32Z</time>
      </trkpt>
      <trkpt lat="45.66869" lon="6.77336">
        <ele>1311.1</ele>
        <time>2020-08-07T08:38:34Z</time>
      </trkpt>
      <trkpt lat="45.66869" lon="6.77331">
        <ele>1311.4</ele>
        <time>2020-08-07T08:38:35Z</time>
      </trkpt>
      <trkpt lat="45.66869" lon="6.77322">
        <ele>1311.9</ele>
        <time>2020-08-07T08:38:37Z</time>
      </trkpt>
      <trkpt lat="45.66868" lon="6.77312">
        <ele>1312.5</ele>
        <time>2020-08-07T08:38:39Z</time>
      </trkpt>
      <trkpt lat="45.66868" lon="6.77308">
        <ele>1312.7</ele>
        <time>2020-08-07T08:38:41Z</time>
      </trkpt>
      <trkpt lat="45.66868" lon="6.77304">
        <ele>1313</ele>
        <time>2020-08-07T08:38:42Z</time>
      </trkpt>
      <trkpt lat="45.66868" lon="6.77298">
        <ele>1313.3</ele>
        <time>2020-08-07T08:38:44Z</time>
      </trkpt>
      <trkpt lat="45.66869" lon="6.77295">
        <ele>1313.6</ele>
        <time>2020-08-07T08:38:46Z</time>
      </trkpt>
      <trkpt lat="45.66869" lon="6.77289">
        <ele>1313.9</ele>
        <time>2020-08-07T08:38:47Z</time>
      </trkpt>
      <trkpt lat="45.6687" lon="6.77285">
        <ele>1314.2</ele>
        <time>2020-08-07T08:38:48Z</time>
      </trkpt>
      <trkpt lat="45.66873" lon="6.77276">
        <ele>1314.9</ele>
        <time>2020-08-07T08:38:50Z</time>
      </trkpt>
      <trkpt lat="45.66875" lon="6.7727">
        <ele>1315.2</ele>
        <time>2020-08-07T08:38:53Z</time>
      </trkpt>
      <trkpt lat="45.66875" lon="6.77265">
        <ele>1315.6</ele>
        <time>2020-08-07T08:38:54Z</time>
      </trkpt>
      <trkpt lat="45.66876" lon="6.7726">
        <ele>1316</ele>
        <time>2020-08-07T08:38:55Z</time>
      </trkpt>
      <trkpt lat="45.66877" lon="6.77254">
        <ele>1316.4</ele>
        <time>2020-08-07T08:38:57Z</time>
      </trkpt>
      <trkpt lat="45.66879" lon="6.77245">
        <ele>1317</ele>
        <time>2020-08-07T08:38:59Z</time>
      </trkpt>
      <trkpt lat="45.66879" lon="6.77241">
        <ele>1317.3</ele>
        <time>2020-08-07T08:39:00Z</time>
      </trkpt>
      <trkpt lat="45.6688" lon="6.77234">
        <ele>1317.8</ele>
        <time>2020-08-07T08:39:02Z</time>
      </trkpt>
      <trkpt lat="45.66881" lon="6.77224">
        <ele>1318.5</ele>
        <time>2020-08-07T08:39:04Z</time>
      </trkpt>
      <trkpt lat="45.66882" lon="6.77218">
        <ele>1318.9</ele>
        <time>2020-08-07T08:39:07Z</time>
      </trkpt>
      <trkpt lat="45.66882" lon="6.77212">
        <ele>1319.4</ele>
        <time>2020-08-07T08:39:08Z</time>
      </trkpt>
      <trkpt lat="45.66883" lon="6.77203">
        <ele>1320.1</ele>
        <time>2020-08-07T08:39:11Z</time>
      </trkpt>
      <trkpt lat="45.66883" lon="6.77198">
        <ele>1320.5</ele>
        <time>2020-08-07T08:39:12Z</time>
      </trkpt>
      <trkpt lat="45.66883" lon="6.77191">
        <ele>1321.2</ele>
        <time>2020-08-07T08:39:13Z</time>
      </trkpt>
      <trkpt lat="45.66884" lon="6.77186">
        <ele>1321.7</ele>
        <time>2020-08-07T08:39:15Z</time>
      </trkpt>
      <trkpt lat="45.66887" lon="6.77183">
        <ele>1323.2</ele>
        <time>2020-08-07T08:39:16Z</time>
      </trkpt>
      <trkpt lat="45.6689" lon="6.77183">
        <ele>1323.5</ele>
        <time>2020-08-07T08:39:17Z</time>
      </trkpt>
      <trkpt lat="45.66893" lon="6.77193">
        <ele>1324.3</ele>
        <time>2020-08-07T08:39:19Z</time>
      </trkpt>
      <trkpt lat="45.66892" lon="6.77196">
        <ele>1324.5</ele>
        <time>2020-08-07T08:39:20Z</time>
      </trkpt>
      <trkpt lat="45.66891" lon="6.77201">
        <ele>1324.7</ele>
        <time>2020-08-07T08:39:23Z</time>
      </trkpt>
      <trkpt lat="45.66891" lon="6.77208">
        <ele>1324.9</ele>
        <time>2020-08-07T08:39:24Z</time>
      </trkpt>
      <trkpt lat="45.66892" lon="6.77216">
        <ele>1325.1</ele>
        <time>2020-08-07T08:39:26Z</time>
      </trkpt>
      <trkpt lat="45.66892" lon="6.77221">
        <ele>1325.2</ele>
        <time>2020-08-07T08:39:27Z</time>
      </trkpt>
      <trkpt lat="45.66892" lon="6.77229">
        <ele>1325.3</ele>
        <time>2020-08-07T08:39:30Z</time>
      </trkpt>
      <trkpt lat="45.66892" lon="6.77231">
        <ele>1325.3</ele>
        <time>2020-08-07T08:39:31Z</time>
      </trkpt>
      <trkpt lat="45.66892" lon="6.77234">
        <ele>1325.4</ele>
        <time>2020-08-07T08:39:32Z</time>
      </trkpt>
      <trkpt lat="45.66892" lon="6.7724">
        <ele>1325.5</ele>
        <time>2020-08-07T08:39:33Z</time>
      </trkpt>
      <trkpt lat="45.66892" lon="6.77246">
        <ele>1325.6</ele>
        <time>2020-08-07T08:39:35Z</time>
      </trkpt>
      <trkpt lat="45.66893" lon="6.77258">
        <ele>1325.8</ele>
        <time>2020-08-07T08:39:37Z</time>
      </trkpt>
      <trkpt lat="45.66893" lon="6.77261">
        <ele>1325.9</ele>
        <time>2020-08-07T08:39:38Z</time>
      </trkpt>
      <trkpt lat="45.66895" lon="6.77267">
        <ele>1326.1</ele>
        <time>2020-08-07T08:39:40Z</time>
      </trkpt>
      <trkpt lat="45.66895" lon="6.77273">
        <ele>1326.3</ele>
        <time>2020-08-07T08:39:42Z</time>
      </trkpt>
      <trkpt lat="45.66895" lon="6.77277">
        <ele>1326.5</ele>
        <time>2020-08-07T08:39:43Z</time>
      </trkpt>
      <trkpt lat="45.66895" lon="6.77284">
        <ele>1326.7</ele>
        <time>2020-08-07T08:39:44Z</time>
      </trkpt>
      <trkpt lat="45.66895" lon="6.77286">
        <ele>1326.8</ele>
        <time>2020-08-07T08:39:45Z</time>
      </trkpt>
      <trkpt lat="45.66896" lon="6.77295">
        <ele>1327.3</ele>
        <time>2020-08-07T08:39:48Z</time>
      </trkpt>
      <trkpt lat="45.66897" lon="6.773">
        <ele>1327.5</ele>
        <time>2020-08-07T08:39:49Z</time>
      </trkpt>
      <trkpt lat="45.66898" lon="6.77309">
        <ele>1328</ele>
        <time>2020-08-07T08:39:51Z</time>
      </trkpt>
      <trkpt lat="45.66899" lon="6.77313">
        <ele>1328.2</ele>
        <time>2020-08-07T08:39:53Z</time>
      </trkpt>
      <trkpt lat="45.669" lon="6.77317">
        <ele>1328.5</ele>
        <time>2020-08-07T08:39:54Z</time>
      </trkpt>
      <trkpt lat="45.66901" lon="6.77322">
        <ele>1328.9</ele>
        <time>2020-08-07T08:39:56Z</time>
      </trkpt>
      <trkpt lat="45.66903" lon="6.77329">
        <ele>1329.3</ele>
        <time>2020-08-07T08:39:58Z</time>
      </trkpt>
      <trkpt lat="45.66905" lon="6.77337">
        <ele>1329.9</ele>
        <time>2020-08-07T08:40:00Z</time>
      </trkpt>
      <trkpt lat="45.66907" lon="6.77343">
        <ele>1330.3</ele>
        <time>2020-08-07T08:40:01Z</time>
      </trkpt>
      <trkpt lat="45.66908" lon="6.77351">
        <ele>1330.8</ele>
        <time>2020-08-07T08:40:03Z</time>
      </trkpt>
      <trkpt lat="45.6691" lon="6.77357">
        <ele>1331.2</ele>
        <time>2020-08-07T08:40:04Z</time>
      </trkpt>
      <trkpt lat="45.66911" lon="6.77362">
        <ele>1331.6</ele>
        <time>2020-08-07T08:40:06Z</time>
      </trkpt>
      <trkpt lat="45.66914" lon="6.77368">
        <ele>1332.1</ele>
        <time>2020-08-07T08:40:07Z</time>
      </trkpt>
      <trkpt lat="45.66917" lon="6.77374">
        <ele>1332.6</ele>
        <time>2020-08-07T08:40:09Z</time>
      </trkpt>
      <trkpt lat="45.6692" lon="6.77384">
        <ele>1333.5</ele>
        <time>2020-08-07T08:40:11Z</time>
      </trkpt>
      <trkpt lat="45.6692" lon="6.77393">
        <ele>1334.4</ele>
        <time>2020-08-07T08:40:14Z</time>
      </trkpt>
      <trkpt lat="45.66919" lon="6.77397">
        <ele>1334.7</ele>
        <time>2020-08-07T08:40:15Z</time>
      </trkpt>
      <trkpt lat="45.66918" lon="6.77401">
        <ele>1335.2</ele>
        <time>2020-08-07T08:40:16Z</time>
      </trkpt>
      <trkpt lat="45.66918" lon="6.77409">
        <ele>1336</ele>
        <time>2020-08-07T08:40:18Z</time>
      </trkpt>
      <trkpt lat="45.66921" lon="6.77415">
        <ele>1336.9</ele>
        <time>2020-08-07T08:40:19Z</time>
      </trkpt>
      <trkpt lat="45.66925" lon="6.77416">
        <ele>1337.5</ele>
        <time>2020-08-07T08:40:20Z</time>
      </trkpt>
      <trkpt lat="45.66929" lon="6.77413">
        <ele>1338.1</ele>
        <time>2020-08-07T08:40:22Z</time>
      </trkpt>
      <trkpt lat="45.66932" lon="6.77405">
        <ele>1338.8</ele>
        <time>2020-08-07T08:40:23Z</time>
      </trkpt>
      <trkpt lat="45.66933" lon="6.77396">
        <ele>1339.2</ele>
        <time>2020-08-07T08:40:26Z</time>
      </trkpt>
      <trkpt lat="45.66933" lon="6.77388">
        <ele>1339.4</ele>
        <time>2020-08-07T08:40:27Z</time>
      </trkpt>
      <trkpt lat="45.66933" lon="6.77381">
        <ele>1339.5</ele>
        <time>2020-08-07T08:40:28Z</time>
      </trkpt>
      <trkpt lat="45.66933" lon="6.77374">
        <ele>1339.6</ele>
        <time>2020-08-07T08:40:31Z</time>
      </trkpt>
      <trkpt lat="45.66933" lon="6.77366">
        <ele>1339.7</ele>
        <time>2020-08-07T08:40:32Z</time>
      </trkpt>
      <trkpt lat="45.66933" lon="6.77362">
        <ele>1339.8</ele>
        <time>2020-08-07T08:40:34Z</time>
      </trkpt>
      <trkpt lat="45.66933" lon="6.77358">
        <ele>1339.8</ele>
        <time>2020-08-07T08:40:35Z</time>
      </trkpt>
      <trkpt lat="45.66932" lon="6.77345">
        <ele>1340</ele>
        <time>2020-08-07T08:40:37Z</time>
      </trkpt>
      <trkpt lat="45.66931" lon="6.77341">
        <ele>1340.1</ele>
        <time>2020-08-07T08:40:38Z</time>
      </trkpt>
      <trkpt lat="45.66931" lon="6.77335">
        <ele>1340.3</ele>
        <time>2020-08-07T08:40:40Z</time>
      </trkpt>
      <trkpt lat="45.66931" lon="6.77329">
        <ele>1340.4</ele>
        <time>2020-08-07T08:40:42Z</time>
      </trkpt>
      <trkpt lat="45.6693" lon="6.77325">
        <ele>1340.6</ele>
        <time>2020-08-07T08:40:43Z</time>
      </trkpt>
      <trkpt lat="45.6693" lon="6.77316">
        <ele>1340.9</ele>
        <time>2020-08-07T08:40:45Z</time>
      </trkpt>
      <trkpt lat="45.6693" lon="6.7731">
        <ele>1341.1</ele>
        <time>2020-08-07T08:40:47Z</time>
      </trkpt>
      <trkpt lat="45.66931" lon="6.773">
        <ele>1341.6</ele>
        <time>2020-08-07T08:40:49Z</time>
      </trkpt>
      <trkpt lat="45.66931" lon="6.77294">
        <ele>1341.9</ele>
        <time>2020-08-07T08:40:52Z</time>
      </trkpt>
      <trkpt lat="45.66931" lon="6.77288">
        <ele>1342.2</ele>
        <time>2020-08-07T08:40:53Z</time>
      </trkpt>
      <trkpt lat="45.66932" lon="6.77279">
        <ele>1342.8</ele>
        <time>2020-08-07T08:40:56Z</time>
      </trkpt>
      <trkpt lat="45.66932" lon="6.77275">
        <ele>1343</ele>
        <time>2020-08-07T08:40:57Z</time>
      </trkpt>
      <trkpt lat="45.66935" lon="6.77262">
        <ele>1343.8</ele>
        <time>2020-08-07T08:40:59Z</time>
      </trkpt>
      <trkpt lat="45.66935" lon="6.77256">
        <ele>1344.2</ele>
        <time>2020-08-07T08:41:01Z</time>
      </trkpt>
      <trkpt lat="45.66936" lon="6.7725">
        <ele>1344.6</ele>
        <time>2020-08-07T08:41:03Z</time>
      </trkpt>
      <trkpt lat="45.66936" lon="6.77247">
        <ele>1344.8</ele>
        <time>2020-08-07T08:41:04Z</time>
      </trkpt>
      <trkpt lat="45.66937" lon="6.77235">
        <ele>1345.5</ele>
        <time>2020-08-07T08:41:06Z</time>
      </trkpt>
      <trkpt lat="45.66938" lon="6.77231">
        <ele>1345.7</ele>
        <time>2020-08-07T08:41:07Z</time>
      </trkpt>
      <trkpt lat="45.66938" lon="6.77228">
        <ele>1345.9</ele>
        <time>2020-08-07T08:41:08Z</time>
      </trkpt>
      <trkpt lat="45.6694" lon="6.77223">
        <ele>1346.2</ele>
        <time>2020-08-07T08:41:11Z</time>
      </trkpt>
      <trkpt lat="45.66943" lon="6.77218">
        <ele>1346.6</ele>
        <time>2020-08-07T08:41:12Z</time>
      </trkpt>
      <trkpt lat="45.66946" lon="6.77214">
        <ele>1346.9</ele>
        <time>2020-08-07T08:41:14Z</time>
      </trkpt>
      <trkpt lat="45.66946" lon="6.77213">
        <ele>1347</ele>
        <time>2020-08-07T08:41:15Z</time>
      </trkpt>
      <trkpt lat="45.6695" lon="6.77206">
        <ele>1347.5</ele>
        <time>2020-08-07T08:41:17Z</time>
      </trkpt>
      <trkpt lat="45.66952" lon="6.77201">
        <ele>1347.9</ele>
        <time>2020-08-07T08:41:18Z</time>
      </trkpt>
      <trkpt lat="45.66954" lon="6.77196">
        <ele>1348.3</ele>
        <time>2020-08-07T08:41:20Z</time>
      </trkpt>
      <trkpt lat="45.66955" lon="6.77192">
        <ele>1348.6</ele>
        <time>2020-08-07T08:41:21Z</time>
      </trkpt>
      <trkpt lat="45.66957" lon="6.77185">
        <ele>1349.2</ele>
        <time>2020-08-07T08:41:22Z</time>
      </trkpt>
      <trkpt lat="45.66958" lon="6.7718">
        <ele>1349.6</ele>
        <time>2020-08-07T08:41:24Z</time>
      </trkpt>
      <trkpt lat="45.66959" lon="6.77176">
        <ele>1350</ele>
        <time>2020-08-07T08:41:25Z</time>
      </trkpt>
      <trkpt lat="45.66961" lon="6.77169">
        <ele>1350.8</ele>
        <time>2020-08-07T08:41:26Z</time>
      </trkpt>
      <trkpt lat="45.66963" lon="6.77165">
        <ele>1351.2</ele>
        <time>2020-08-07T08:41:28Z</time>
      </trkpt>
      <trkpt lat="45.66968" lon="6.77164">
        <ele>1352</ele>
        <time>2020-08-07T08:41:29Z</time>
      </trkpt>
      <trkpt lat="45.6697" lon="6.77169">
        <ele>1352.6</ele>
        <time>2020-08-07T08:41:31Z</time>
      </trkpt>
      <trkpt lat="45.6697" lon="6.77174">
        <ele>1353.1</ele>
        <time>2020-08-07T08:41:32Z</time>
      </trkpt>
      <trkpt lat="45.66968" lon="6.77181">
        <ele>1353.7</ele>
        <time>2020-08-07T08:41:34Z</time>
      </trkpt>
      <trkpt lat="45.66967" lon="6.77183">
        <ele>1353.9</ele>
        <time>2020-08-07T08:41:35Z</time>
      </trkpt>
      <trkpt lat="45.66967" lon="6.77185">
        <ele>1354.1</ele>
        <time>2020-08-07T08:41:36Z</time>
      </trkpt>
      <trkpt lat="45.66965" lon="6.77191">
        <ele>1354.5</ele>
        <time>2020-08-07T08:41:38Z</time>
      </trkpt>
      <trkpt lat="45.66964" lon="6.77197">
        <ele>1354.7</ele>
        <time>2020-08-07T08:41:39Z</time>
      </trkpt>
      <trkpt lat="45.66963" lon="6.77203">
        <ele>1355</ele>
        <time>2020-08-07T08:41:41Z</time>
      </trkpt>
      <trkpt lat="45.66962" lon="6.7721">
        <ele>1355.2</ele>
        <time>2020-08-07T08:41:42Z</time>
      </trkpt>
      <trkpt lat="45.66962" lon="6.77214">
        <ele>1355.3</ele>
        <time>2020-08-07T08:41:43Z</time>
      </trkpt>
      <trkpt lat="45.66962" lon="6.77221">
        <ele>1355.4</ele>
        <time>2020-08-07T08:41:44Z</time>
      </trkpt>
      <trkpt lat="45.66963" lon="6.77233">
        <ele>1355.7</ele>
        <time>2020-08-07T08:41:47Z</time>
      </trkpt>
      <trkpt lat="45.66963" lon="6.77237">
        <ele>1355.8</ele>
        <time>2020-08-07T08:41:49Z</time>
      </trkpt>
      <trkpt lat="45.66964" lon="6.77242">
        <ele>1355.9</ele>
        <time>2020-08-07T08:41:51Z</time>
      </trkpt>
      <trkpt lat="45.66965" lon="6.77249">
        <ele>1356.1</ele>
        <time>2020-08-07T08:41:52Z</time>
      </trkpt>
      <trkpt lat="45.66965" lon="6.77252">
        <ele>1356.2</ele>
        <time>2020-08-07T08:41:53Z</time>
      </trkpt>
      <trkpt lat="45.66965" lon="6.77257">
        <ele>1356.4</ele>
        <time>2020-08-07T08:41:54Z</time>
      </trkpt>
      <trkpt lat="45.66965" lon="6.77262">
        <ele>1356.5</ele>
        <time>2020-08-07T08:41:55Z</time>
      </trkpt>
      <trkpt lat="45.66966" lon="6.77273">
        <ele>1356.9</ele>
        <time>2020-08-07T08:41:58Z</time>
      </trkpt>
      <trkpt lat="45.66967" lon="6.77278">
        <ele>1357</ele>
        <time>2020-08-07T08:42:00Z</time>
      </trkpt>
      <trkpt lat="45.66967" lon="6.77283">
        <ele>1357.2</ele>
        <time>2020-08-07T08:42:01Z</time>
      </trkpt>
      <trkpt lat="45.66968" lon="6.77291">
        <ele>1357.5</ele>
        <time>2020-08-07T08:42:03Z</time>
      </trkpt>
      <trkpt lat="45.66969" lon="6.77296">
        <ele>1357.7</ele>
        <time>2020-08-07T08:42:04Z</time>
      </trkpt>
      <trkpt lat="45.6697" lon="6.773">
        <ele>1357.9</ele>
        <time>2020-08-07T08:42:05Z</time>
      </trkpt>
      <trkpt lat="45.6697" lon="6.77307">
        <ele>1358.2</ele>
        <time>2020-08-07T08:42:08Z</time>
      </trkpt>
      <trkpt lat="45.6697" lon="6.77314">
        <ele>1358.6</ele>
        <time>2020-08-07T08:42:09Z</time>
      </trkpt>
      <trkpt lat="45.66972" lon="6.77324">
        <ele>1359.1</ele>
        <time>2020-08-07T08:42:11Z</time>
      </trkpt>
      <trkpt lat="45.66973" lon="6.7733">
        <ele>1359.5</ele>
        <time>2020-08-07T08:42:14Z</time>
      </trkpt>
      <trkpt lat="45.66974" lon="6.77336">
        <ele>1359.8</ele>
        <time>2020-08-07T08:42:15Z</time>
      </trkpt>
      <trkpt lat="45.66974" lon="6.77341">
        <ele>1360.1</ele>
        <time>2020-08-07T08:42:17Z</time>
      </trkpt>
      <trkpt lat="45.66975" lon="6.77345">
        <ele>1360.3</ele>
        <time>2020-08-07T08:42:18Z</time>
      </trkpt>
      <trkpt lat="45.66976" lon="6.77352">
        <ele>1360.7</ele>
        <time>2020-08-07T08:42:19Z</time>
      </trkpt>
      <trkpt lat="45.66977" lon="6.77362">
        <ele>1361.2</ele>
        <time>2020-08-07T08:42:21Z</time>
      </trkpt>
      <trkpt lat="45.66978" lon="6.77374">
        <ele>1361.9</ele>
        <time>2020-08-07T08:42:24Z</time>
      </trkpt>
      <trkpt lat="45.66978" lon="6.77378">
        <ele>1362.2</ele>
        <time>2020-08-07T08:42:26Z</time>
      </trkpt>
      <trkpt lat="45.66978" lon="6.77383">
        <ele>1362.5</ele>
        <time>2020-08-07T08:42:27Z</time>
      </trkpt>
      <trkpt lat="45.66978" lon="6.77389">
        <ele>1362.9</ele>
        <time>2020-08-07T08:42:29Z</time>
      </trkpt>
      <trkpt lat="45.66978" lon="6.77393">
        <ele>1363.1</ele>
        <time>2020-08-07T08:42:31Z</time>
      </trkpt>
      <trkpt lat="45.66978" lon="6.77399">
        <ele>1363.5</ele>
        <time>2020-08-07T08:42:32Z</time>
      </trkpt>
      <trkpt lat="45.66977" lon="6.77406">
        <ele>1364.1</ele>
        <time>2020-08-07T08:42:33Z</time>
      </trkpt>
      <trkpt lat="45.66977" lon="6.77412">
        <ele>1364.6</ele>
        <time>2020-08-07T08:42:35Z</time>
      </trkpt>
      <trkpt lat="45.66976" lon="6.77416">
        <ele>1364.9</ele>
        <time>2020-08-07T08:42:37Z</time>
      </trkpt>
      <trkpt lat="45.66973" lon="6.7743">
        <ele>1366.2</ele>
        <time>2020-08-07T08:42:39Z</time>
      </trkpt>
      <trkpt lat="45.66972" lon="6.77435">
        <ele>1366.7</ele>
        <time>2020-08-07T08:42:41Z</time>
      </trkpt>
      <trkpt lat="45.66972" lon="6.7744">
        <ele>1367.2</ele>
        <time>2020-08-07T08:42:42Z</time>
      </trkpt>
      <trkpt lat="45.66973" lon="6.77445">
        <ele>1367.8</ele>
        <time>2020-08-07T08:42:43Z</time>
      </trkpt>
      <trkpt lat="45.66976" lon="6.7745">
        <ele>1368.5</ele>
        <time>2020-08-07T08:42:45Z</time>
      </trkpt>
      <trkpt lat="45.66978" lon="6.77451">
        <ele>1368.9</ele>
        <time>2020-08-07T08:42:46Z</time>
      </trkpt>
      <trkpt lat="45.66981" lon="6.77451">
        <ele>1369.4</ele>
        <time>2020-08-07T08:42:47Z</time>
      </trkpt>
      <trkpt lat="45.66984" lon="6.77448">
        <ele>1370.1</ele>
        <time>2020-08-07T08:42:48Z</time>
      </trkpt>
      <trkpt lat="45.66985" lon="6.77438">
        <ele>1371.3</ele>
        <time>2020-08-07T08:42:51Z</time>
      </trkpt>
      <trkpt lat="45.66986" lon="6.77433">
        <ele>1371.8</ele>
        <time>2020-08-07T08:42:52Z</time>
      </trkpt>
      <trkpt lat="45.66986" lon="6.77426">
        <ele>1372.4</ele>
        <time>2020-08-07T08:42:54Z</time>
      </trkpt>
      <trkpt lat="45.66986" lon="6.77421">
        <ele>1372.7</ele>
        <time>2020-08-07T08:42:55Z</time>
      </trkpt>
      <trkpt lat="45.66987" lon="6.77415">
        <ele>1373</ele>
        <time>2020-08-07T08:42:56Z</time>
      </trkpt>
      <trkpt lat="45.66989" lon="6.77408">
        <ele>1373.3</ele>
        <time>2020-08-07T08:42:57Z</time>
      </trkpt>
      <trkpt lat="45.66991" lon="6.77403">
        <ele>1373.6</ele>
        <time>2020-08-07T08:42:59Z</time>
      </trkpt>
      <trkpt lat="45.66995" lon="6.77392">
        <ele>1374.1</ele>
        <time>2020-08-07T08:43:01Z</time>
      </trkpt>
      <trkpt lat="45.66997" lon="6.77388">
        <ele>1374.3</ele>
        <time>2020-08-07T08:43:02Z</time>
      </trkpt>
      <trkpt lat="45.66998" lon="6.77384">
        <ele>1374.5</ele>
        <time>2020-08-07T08:43:04Z</time>
      </trkpt>
      <trkpt lat="45.67001" lon="6.7738">
        <ele>1374.8</ele>
        <time>2020-08-07T08:43:06Z</time>
      </trkpt>
      <trkpt lat="45.67002" lon="6.77376">
        <ele>1374.9</ele>
        <time>2020-08-07T08:43:08Z</time>
      </trkpt>
      <trkpt lat="45.67006" lon="6.77364">
        <ele>1375.6</ele>
        <time>2020-08-07T08:43:10Z</time>
      </trkpt>
      <trkpt lat="45.67007" lon="6.7736">
        <ele>1375.8</ele>
        <time>2020-08-07T08:43:12Z</time>
      </trkpt>
      <trkpt lat="45.67008" lon="6.77355">
        <ele>1376</ele>
        <time>2020-08-07T08:43:13Z</time>
      </trkpt>
      <trkpt lat="45.67009" lon="6.7735">
        <ele>1376.3</ele>
        <time>2020-08-07T08:43:15Z</time>
      </trkpt>
      <trkpt lat="45.6701" lon="6.77346">
        <ele>1376.5</ele>
        <time>2020-08-07T08:43:16Z</time>
      </trkpt>
      <trkpt lat="45.67012" lon="6.77337">
        <ele>1377</ele>
        <time>2020-08-07T08:43:18Z</time>
      </trkpt>
      <trkpt lat="45.67012" lon="6.77334">
        <ele>1377.2</ele>
        <time>2020-08-07T08:43:20Z</time>
      </trkpt>
      <trkpt lat="45.67012" lon="6.77329">
        <ele>1377.4</ele>
        <time>2020-08-07T08:43:22Z</time>
      </trkpt>
      <trkpt lat="45.67011" lon="6.77323">
        <ele>1377.8</ele>
        <time>2020-08-07T08:43:23Z</time>
      </trkpt>
      <trkpt lat="45.67012" lon="6.77319">
        <ele>1378</ele>
        <time>2020-08-07T08:43:24Z</time>
      </trkpt>
      <trkpt lat="45.67014" lon="6.77312">
        <ele>1378.3</ele>
        <time>2020-08-07T08:43:26Z</time>
      </trkpt>
      <trkpt lat="45.67014" lon="6.77309">
        <ele>1378.5</ele>
        <time>2020-08-07T08:43:27Z</time>
      </trkpt>
      <trkpt lat="45.67015" lon="6.77297">
        <ele>1379.1</ele>
        <time>2020-08-07T08:43:30Z</time>
      </trkpt>
      <trkpt lat="45.67016" lon="6.77293">
        <ele>1379.3</ele>
        <time>2020-08-07T08:43:32Z</time>
      </trkpt>
      <trkpt lat="45.67016" lon="6.77287">
        <ele>1379.6</ele>
        <time>2020-08-07T08:43:34Z</time>
      </trkpt>
      <trkpt lat="45.67016" lon="6.77278">
        <ele>1380.1</ele>
        <time>2020-08-07T08:43:36Z</time>
      </trkpt>
      <trkpt lat="45.67016" lon="6.77268">
        <ele>1380.6</ele>
        <time>2020-08-07T08:43:39Z</time>
      </trkpt>
      <trkpt lat="45.67016" lon="6.77263">
        <ele>1380.8</ele>
        <time>2020-08-07T08:43:40Z</time>
      </trkpt>
      <trkpt lat="45.67016" lon="6.77257">
        <ele>1381.1</ele>
        <time>2020-08-07T08:43:43Z</time>
      </trkpt>
      <trkpt lat="45.67016" lon="6.7725">
        <ele>1381.5</ele>
        <time>2020-08-07T08:43:44Z</time>
      </trkpt>
      <trkpt lat="45.67015" lon="6.77247">
        <ele>1381.7</ele>
        <time>2020-08-07T08:43:45Z</time>
      </trkpt>
      <trkpt lat="45.67015" lon="6.77243">
        <ele>1382</ele>
        <time>2020-08-07T08:43:47Z</time>
      </trkpt>
      <trkpt lat="45.67014" lon="6.77234">
        <ele>1382.5</ele>
        <time>2020-08-07T08:43:48Z</time>
      </trkpt>
      <trkpt lat="45.67013" lon="6.77227">
        <ele>1382.9</ele>
        <time>2020-08-07T08:43:51Z</time>
      </trkpt>
      <trkpt lat="45.67013" lon="6.77222">
        <ele>1383.3</ele>
        <time>2020-08-07T08:43:52Z</time>
      </trkpt>
      <trkpt lat="45.67013" lon="6.77216">
        <ele>1383.6</ele>
        <time>2020-08-07T08:43:53Z</time>
      </trkpt>
      <trkpt lat="45.67013" lon="6.77211">
        <ele>1383.9</ele>
        <time>2020-08-07T08:43:54Z</time>
      </trkpt>
      <trkpt lat="45.67014" lon="6.77202">
        <ele>1384.5</ele>
        <time>2020-08-07T08:43:57Z</time>
      </trkpt>
      <trkpt lat="45.67014" lon="6.77199">
        <ele>1384.7</ele>
        <time>2020-08-07T08:43:58Z</time>
      </trkpt>
      <trkpt lat="45.67013" lon="6.77193">
        <ele>1385.1</ele>
        <time>2020-08-07T08:44:01Z</time>
      </trkpt>
      <trkpt lat="45.67014" lon="6.77187">
        <ele>1385.5</ele>
        <time>2020-08-07T08:44:02Z</time>
      </trkpt>
      <trkpt lat="45.67015" lon="6.7718">
        <ele>1385.9</ele>
        <time>2020-08-07T08:44:04Z</time>
      </trkpt>
      <trkpt lat="45.67015" lon="6.77177">
        <ele>1386.2</ele>
        <time>2020-08-07T08:44:05Z</time>
      </trkpt>
      <trkpt lat="45.67017" lon="6.77167">
        <ele>1386.9</ele>
        <time>2020-08-07T08:44:07Z</time>
      </trkpt>
      <trkpt lat="45.67018" lon="6.77162">
        <ele>1387.3</ele>
        <time>2020-08-07T08:44:09Z</time>
      </trkpt>
      <trkpt lat="45.6702" lon="6.77155">
        <ele>1387.9</ele>
        <time>2020-08-07T08:44:11Z</time>
      </trkpt>
      <trkpt lat="45.67021" lon="6.77153">
        <ele>1388.1</ele>
        <time>2020-08-07T08:44:12Z</time>
      </trkpt>
      <trkpt lat="45.67022" lon="6.77151">
        <ele>1388.3</ele>
        <time>2020-08-07T08:44:13Z</time>
      </trkpt>
      <trkpt lat="45.67024" lon="6.77146">
        <ele>1388.7</ele>
        <time>2020-08-07T08:44:14Z</time>
      </trkpt>
      <trkpt lat="45.67024" lon="6.77145">
        <ele>1388.8</ele>
        <time>2020-08-07T08:44:15Z</time>
      </trkpt>
      <trkpt lat="45.67025" lon="6.77142">
        <ele>1389</ele>
        <time>2020-08-07T08:44:16Z</time>
      </trkpt>
      <trkpt lat="45.67025" lon="6.7714">
        <ele>1389.2</ele>
        <time>2020-08-07T08:44:17Z</time>
      </trkpt>
      <trkpt lat="45.67026" lon="6.77133">
        <ele>1389.8</ele>
        <time>2020-08-07T08:44:19Z</time>
      </trkpt>
      <trkpt lat="45.67026" lon="6.77131">
        <ele>1390</ele>
        <time>2020-08-07T08:44:20Z</time>
      </trkpt>
      <trkpt lat="45.67027" lon="6.77128">
        <ele>1390.2</ele>
        <time>2020-08-07T08:44:21Z</time>
      </trkpt>
      <trkpt lat="45.67027" lon="6.77124">
        <ele>1390.5</ele>
        <time>2020-08-07T08:44:23Z</time>
      </trkpt>
      <trkpt lat="45.67028" lon="6.77122">
        <ele>1390.7</ele>
        <time>2020-08-07T08:44:24Z</time>
      </trkpt>
      <trkpt lat="45.67031" lon="6.77114">
        <ele>1391.4</ele>
        <time>2020-08-07T08:44:26Z</time>
      </trkpt>
      <trkpt lat="45.67035" lon="6.77107">
        <ele>1392</ele>
        <time>2020-08-07T08:44:29Z</time>
      </trkpt>
      <trkpt lat="45.67038" lon="6.77104">
        <ele>1392.4</ele>
        <time>2020-08-07T08:44:30Z</time>
      </trkpt>
      <trkpt lat="45.67039" lon="6.77102">
        <ele>1392.5</ele>
        <time>2020-08-07T08:44:31Z</time>
      </trkpt>
      <trkpt lat="45.67041" lon="6.77094">
        <ele>1393.1</ele>
        <time>2020-08-07T08:44:34Z</time>
      </trkpt>
      <trkpt lat="45.67042" lon="6.7709">
        <ele>1393.3</ele>
        <time>2020-08-07T08:44:35Z</time>
      </trkpt>
      <trkpt lat="45.67042" lon="6.77084">
        <ele>1392.1</ele>
        <time>2020-08-07T08:44:38Z</time>
      </trkpt>
      <trkpt lat="45.67041" lon="6.77081">
        <ele>1391.7</ele>
        <time>2020-08-07T08:44:39Z</time>
      </trkpt>
      <trkpt lat="45.67038" lon="6.77074">
        <ele>1392.2</ele>
        <time>2020-08-07T08:44:41Z</time>
      </trkpt>
      <trkpt lat="45.67035" lon="6.77071">
        <ele>1392.6</ele>
        <time>2020-08-07T08:44:42Z</time>
      </trkpt>
      <trkpt lat="45.67028" lon="6.77061">
        <ele>1393.8</ele>
        <time>2020-08-07T08:44:44Z</time>
      </trkpt>
      <trkpt lat="45.67025" lon="6.77055">
        <ele>1394.4</ele>
        <time>2020-08-07T08:44:46Z</time>
      </trkpt>
      <trkpt lat="45.67023" lon="6.77041">
        <ele>1395.4</ele>
        <time>2020-08-07T08:44:48Z</time>
      </trkpt>
      <trkpt lat="45.67023" lon="6.77034">
        <ele>1395.9</ele>
        <time>2020-08-07T08:44:51Z</time>
      </trkpt>
      <trkpt lat="45.67024" lon="6.77026">
        <ele>1396.3</ele>
        <time>2020-08-07T08:44:52Z</time>
      </trkpt>
      <trkpt lat="45.67025" lon="6.77022">
        <ele>1396.5</ele>
        <time>2020-08-07T08:44:53Z</time>
      </trkpt>
      <trkpt lat="45.67027" lon="6.77016">
        <ele>1396.8</ele>
        <time>2020-08-07T08:44:55Z</time>
      </trkpt>
      <trkpt lat="45.6703" lon="6.77009">
        <ele>1397.1</ele>
        <time>2020-08-07T08:44:56Z</time>
      </trkpt>
      <trkpt lat="45.67034" lon="6.77004">
        <ele>1397.4</ele>
        <time>2020-08-07T08:44:58Z</time>
      </trkpt>
      <trkpt lat="45.67037" lon="6.77">
        <ele>1397.6</ele>
        <time>2020-08-07T08:44:59Z</time>
      </trkpt>
      <trkpt lat="45.6704" lon="6.76995">
        <ele>1398</ele>
        <time>2020-08-07T08:45:01Z</time>
      </trkpt>
      <trkpt lat="45.67044" lon="6.76989">
        <ele>1398.3</ele>
        <time>2020-08-07T08:45:03Z</time>
      </trkpt>
      <trkpt lat="45.67046" lon="6.76986">
        <ele>1398.5</ele>
        <time>2020-08-07T08:45:04Z</time>
      </trkpt>
      <trkpt lat="45.67048" lon="6.76982">
        <ele>1398.7</ele>
        <time>2020-08-07T08:45:06Z</time>
      </trkpt>
      <trkpt lat="45.67051" lon="6.76976">
        <ele>1399.1</ele>
        <time>2020-08-07T08:45:08Z</time>
      </trkpt>
      <trkpt lat="45.67053" lon="6.76972">
        <ele>1399.3</ele>
        <time>2020-08-07T08:45:09Z</time>
      </trkpt>
      <trkpt lat="45.67056" lon="6.76966">
        <ele>1399.8</ele>
        <time>2020-08-07T08:45:12Z</time>
      </trkpt>
      <trkpt lat="45.67057" lon="6.76965">
        <ele>1399.9</ele>
        <time>2020-08-07T08:45:13Z</time>
      </trkpt>
      <trkpt lat="45.67059" lon="6.76962">
        <ele>1400.1</ele>
        <time>2020-08-07T08:45:16Z</time>
      </trkpt>
      <trkpt lat="45.67062" lon="6.76956">
        <ele>1400.6</ele>
        <time>2020-08-07T08:45:18Z</time>
      </trkpt>
      <trkpt lat="45.67065" lon="6.7695">
        <ele>1401.1</ele>
        <time>2020-08-07T08:45:21Z</time>
      </trkpt>
      <trkpt lat="45.67067" lon="6.76946">
        <ele>1401.4</ele>
        <time>2020-08-07T08:45:24Z</time>
      </trkpt>
      <trkpt lat="45.6707" lon="6.76941">
        <ele>1401.9</ele>
        <time>2020-08-07T08:45:25Z</time>
      </trkpt>
      <trkpt lat="45.67072" lon="6.76938">
        <ele>1402.2</ele>
        <time>2020-08-07T08:45:27Z</time>
      </trkpt>
      <trkpt lat="45.67072" lon="6.76936">
        <ele>1402.3</ele>
        <time>2020-08-07T08:45:28Z</time>
      </trkpt>
      <trkpt lat="45.67075" lon="6.76932">
        <ele>1402.8</ele>
        <time>2020-08-07T08:45:30Z</time>
      </trkpt>
      <trkpt lat="45.67076" lon="6.76928">
        <ele>1403.1</ele>
        <time>2020-08-07T08:45:31Z</time>
      </trkpt>
      <trkpt lat="45.67078" lon="6.76922">
        <ele>1403.6</ele>
        <time>2020-08-07T08:45:33Z</time>
      </trkpt>
      <trkpt lat="45.67079" lon="6.7692">
        <ele>1403.8</ele>
        <time>2020-08-07T08:45:35Z</time>
      </trkpt>
      <trkpt lat="45.67079" lon="6.76918">
        <ele>1404</ele>
        <time>2020-08-07T08:45:36Z</time>
      </trkpt>
      <trkpt lat="45.67081" lon="6.76914">
        <ele>1404.4</ele>
        <time>2020-08-07T08:45:37Z</time>
      </trkpt>
      <trkpt lat="45.67082" lon="6.7691">
        <ele>1404.7</ele>
        <time>2020-08-07T08:45:38Z</time>
      </trkpt>
      <trkpt lat="45.67085" lon="6.76906">
        <ele>1405.2</ele>
        <time>2020-08-07T08:45:40Z</time>
      </trkpt>
      <trkpt lat="45.67086" lon="6.76902">
        <ele>1405.6</ele>
        <time>2020-08-07T08:45:41Z</time>
      </trkpt>
      <trkpt lat="45.67087" lon="6.76897">
        <ele>1406.1</ele>
        <time>2020-08-07T08:45:44Z</time>
      </trkpt>
      <trkpt lat="45.67088" lon="6.76891">
        <ele>1406.6</ele>
        <time>2020-08-07T08:45:45Z</time>
      </trkpt>
      <trkpt lat="45.67089" lon="6.76887">
        <ele>1407</ele>
        <time>2020-08-07T08:45:46Z</time>
      </trkpt>
      <trkpt lat="45.67091" lon="6.76879">
        <ele>1407.7</ele>
        <time>2020-08-07T08:45:48Z</time>
      </trkpt>
      <trkpt lat="45.67091" lon="6.76874">
        <ele>1408.1</ele>
        <time>2020-08-07T08:45:49Z</time>
      </trkpt>
      <trkpt lat="45.67092" lon="6.76871">
        <ele>1408.4</ele>
        <time>2020-08-07T08:45:50Z</time>
      </trkpt>
      <trkpt lat="45.67093" lon="6.76866">
        <ele>1408.9</ele>
        <time>2020-08-07T08:45:53Z</time>
      </trkpt>
      <trkpt lat="45.67094" lon="6.7686">
        <ele>1409.4</ele>
        <time>2020-08-07T08:45:54Z</time>
      </trkpt>
      <trkpt lat="45.67095" lon="6.7685">
        <ele>1410.2</ele>
        <time>2020-08-07T08:45:56Z</time>
      </trkpt>
      <trkpt lat="45.67096" lon="6.76846">
        <ele>1410.7</ele>
        <time>2020-08-07T08:45:59Z</time>
      </trkpt>
      <trkpt lat="45.67096" lon="6.76841">
        <ele>1411.1</ele>
        <time>2020-08-07T08:46:00Z</time>
      </trkpt>
      <trkpt lat="45.67097" lon="6.76837">
        <ele>1411.4</ele>
        <time>2020-08-07T08:46:01Z</time>
      </trkpt>
      <trkpt lat="45.671" lon="6.76827">
        <ele>1412.4</ele>
        <time>2020-08-07T08:46:03Z</time>
      </trkpt>
      <trkpt lat="45.67101" lon="6.76822">
        <ele>1412.9</ele>
        <time>2020-08-07T08:46:05Z</time>
      </trkpt>
      <trkpt lat="45.67103" lon="6.76817">
        <ele>1413.4</ele>
        <time>2020-08-07T08:46:06Z</time>
      </trkpt>
      <trkpt lat="45.67104" lon="6.76812">
        <ele>1413.8</ele>
        <time>2020-08-07T08:46:08Z</time>
      </trkpt>
      <trkpt lat="45.67106" lon="6.76802">
        <ele>1414.6</ele>
        <time>2020-08-07T08:46:09Z</time>
      </trkpt>
      <trkpt lat="45.67106" lon="6.76796">
        <ele>1415.1</ele>
        <time>2020-08-07T08:46:11Z</time>
      </trkpt>
      <trkpt lat="45.67106" lon="6.76791">
        <ele>1415.6</ele>
        <time>2020-08-07T08:46:12Z</time>
      </trkpt>
      <trkpt lat="45.67106" lon="6.76788">
        <ele>1415.9</ele>
        <time>2020-08-07T08:46:13Z</time>
      </trkpt>
      <trkpt lat="45.67106" lon="6.76784">
        <ele>1416.2</ele>
        <time>2020-08-07T08:46:15Z</time>
      </trkpt>
      <trkpt lat="45.67106" lon="6.7678">
        <ele>1416.6</ele>
        <time>2020-08-07T08:46:17Z</time>
      </trkpt>
      <trkpt lat="45.67106" lon="6.76773">
        <ele>1417.1</ele>
        <time>2020-08-07T08:46:18Z</time>
      </trkpt>
      <trkpt lat="45.67107" lon="6.76769">
        <ele>1417.5</ele>
        <time>2020-08-07T08:46:20Z</time>
      </trkpt>
      <trkpt lat="45.67106" lon="6.7676">
        <ele>1418.3</ele>
        <time>2020-08-07T08:46:22Z</time>
      </trkpt>
      <trkpt lat="45.67106" lon="6.76756">
        <ele>1418.6</ele>
        <time>2020-08-07T08:46:23Z</time>
      </trkpt>
      <trkpt lat="45.67104" lon="6.76746">
        <ele>1419.3</ele>
        <time>2020-08-07T08:46:26Z</time>
      </trkpt>
      <trkpt lat="45.67104" lon="6.7674">
        <ele>1419.7</ele>
        <time>2020-08-07T08:46:28Z</time>
      </trkpt>
      <trkpt lat="45.67103" lon="6.76732">
        <ele>1420.3</ele>
        <time>2020-08-07T08:46:30Z</time>
      </trkpt>
      <trkpt lat="45.67103" lon="6.76727">
        <ele>1420.7</ele>
        <time>2020-08-07T08:46:31Z</time>
      </trkpt>
      <trkpt lat="45.67103" lon="6.76721">
        <ele>1421.1</ele>
        <time>2020-08-07T08:46:33Z</time>
      </trkpt>
      <trkpt lat="45.67104" lon="6.76712">
        <ele>1421.7</ele>
        <time>2020-08-07T08:46:35Z</time>
      </trkpt>
      <trkpt lat="45.67105" lon="6.76706">
        <ele>1422.2</ele>
        <time>2020-08-07T08:46:38Z</time>
      </trkpt>
      <trkpt lat="45.67106" lon="6.767">
        <ele>1422.6</ele>
        <time>2020-08-07T08:46:39Z</time>
      </trkpt>
      <trkpt lat="45.67108" lon="6.76689">
        <ele>1423.4</ele>
        <time>2020-08-07T08:46:41Z</time>
      </trkpt>
      <trkpt lat="45.67109" lon="6.76678">
        <ele>1424.2</ele>
        <time>2020-08-07T08:46:43Z</time>
      </trkpt>
      <trkpt lat="45.67111" lon="6.76661">
        <ele>1425.3</ele>
        <time>2020-08-07T08:46:44Z</time>
      </trkpt>
      <trkpt lat="45.67111" lon="6.76656">
        <ele>1425.6</ele>
        <time>2020-08-07T08:46:45Z</time>
      </trkpt>
      <trkpt lat="45.67112" lon="6.76651">
        <ele>1426</ele>
        <time>2020-08-07T08:46:46Z</time>
      </trkpt>
      <trkpt lat="45.67112" lon="6.76647">
        <ele>1426.2</ele>
        <time>2020-08-07T08:46:47Z</time>
      </trkpt>
      <trkpt lat="45.67112" lon="6.76643">
        <ele>1426.5</ele>
        <time>2020-08-07T08:46:48Z</time>
      </trkpt>
      <trkpt lat="45.67111" lon="6.76639">
        <ele>1426.7</ele>
        <time>2020-08-07T08:46:49Z</time>
      </trkpt>
      <trkpt lat="45.67111" lon="6.76636">
        <ele>1426.9</ele>
        <time>2020-08-07T08:46:51Z</time>
      </trkpt>
      <trkpt lat="45.67111" lon="6.76633">
        <ele>1427.2</ele>
        <time>2020-08-07T08:46:52Z</time>
      </trkpt>
      <trkpt lat="45.67111" lon="6.7663">
        <ele>1427.4</ele>
        <time>2020-08-07T08:46:54Z</time>
      </trkpt>
      <trkpt lat="45.67111" lon="6.76626">
        <ele>1427.7</ele>
        <time>2020-08-07T08:46:55Z</time>
      </trkpt>
      <trkpt lat="45.67112" lon="6.7662">
        <ele>1428.1</ele>
        <time>2020-08-07T08:46:58Z</time>
      </trkpt>
      <trkpt lat="45.67112" lon="6.76614">
        <ele>1428.5</ele>
        <time>2020-08-07T08:47:00Z</time>
      </trkpt>
      <trkpt lat="45.67113" lon="6.7661">
        <ele>1428.9</ele>
        <time>2020-08-07T08:47:01Z</time>
      </trkpt>
      <trkpt lat="45.67113" lon="6.76597">
        <ele>1429.8</ele>
        <time>2020-08-07T08:47:03Z</time>
      </trkpt>
      <trkpt lat="45.67114" lon="6.76589">
        <ele>1430.5</ele>
        <time>2020-08-07T08:47:05Z</time>
      </trkpt>
      <trkpt lat="45.67115" lon="6.76578">
        <ele>1431.4</ele>
        <time>2020-08-07T08:47:08Z</time>
      </trkpt>
      <trkpt lat="45.67115" lon="6.76569">
        <ele>1432.1</ele>
        <time>2020-08-07T08:47:09Z</time>
      </trkpt>
      <trkpt lat="45.67115" lon="6.76564">
        <ele>1432.6</ele>
        <time>2020-08-07T08:47:11Z</time>
      </trkpt>
      <trkpt lat="45.67116" lon="6.76555">
        <ele>1433.3</ele>
        <time>2020-08-07T08:47:13Z</time>
      </trkpt>
      <trkpt lat="45.67116" lon="6.76548">
        <ele>1434</ele>
        <time>2020-08-07T08:47:15Z</time>
      </trkpt>
      <trkpt lat="45.67115" lon="6.76541">
        <ele>1434.5</ele>
        <time>2020-08-07T08:47:16Z</time>
      </trkpt>
      <trkpt lat="45.67116" lon="6.76536">
        <ele>1435</ele>
        <time>2020-08-07T08:47:18Z</time>
      </trkpt>
      <trkpt lat="45.67117" lon="6.76529">
        <ele>1435.6</ele>
        <time>2020-08-07T08:47:19Z</time>
      </trkpt>
      <trkpt lat="45.67119" lon="6.7652">
        <ele>1436.4</ele>
        <time>2020-08-07T08:47:21Z</time>
      </trkpt>
      <trkpt lat="45.6712" lon="6.76516">
        <ele>1436.8</ele>
        <time>2020-08-07T08:47:22Z</time>
      </trkpt>
      <trkpt lat="45.67122" lon="6.76506">
        <ele>1437.6</ele>
        <time>2020-08-07T08:47:25Z</time>
      </trkpt>
      <trkpt lat="45.67123" lon="6.76504">
        <ele>1437.8</ele>
        <time>2020-08-07T08:47:26Z</time>
      </trkpt>
      <trkpt lat="45.67125" lon="6.765">
        <ele>1438.2</ele>
        <time>2020-08-07T08:47:28Z</time>
      </trkpt>
      <trkpt lat="45.67128" lon="6.76495">
        <ele>1438.7</ele>
        <time>2020-08-07T08:47:30Z</time>
      </trkpt>
      <trkpt lat="45.67129" lon="6.76491">
        <ele>1439.1</ele>
        <time>2020-08-07T08:47:31Z</time>
      </trkpt>
      <trkpt lat="45.67129" lon="6.7649">
        <ele>1439.2</ele>
        <time>2020-08-07T08:47:32Z</time>
      </trkpt>
      <trkpt lat="45.6713" lon="6.76487">
        <ele>1439.5</ele>
        <time>2020-08-07T08:47:34Z</time>
      </trkpt>
      <trkpt lat="45.6713" lon="6.76485">
        <ele>1439.7</ele>
        <time>2020-08-07T08:47:36Z</time>
      </trkpt>
      <trkpt lat="45.6713" lon="6.7648">
        <ele>1440.1</ele>
        <time>2020-08-07T08:47:37Z</time>
      </trkpt>
      <trkpt lat="45.67129" lon="6.76478">
        <ele>1440.3</ele>
        <time>2020-08-07T08:47:38Z</time>
      </trkpt>
      <trkpt lat="45.67128" lon="6.76473">
        <ele>1440.7</ele>
        <time>2020-08-07T08:47:40Z</time>
      </trkpt>
      <trkpt lat="45.67127" lon="6.76466">
        <ele>1441.3</ele>
        <time>2020-08-07T08:47:42Z</time>
      </trkpt>
      <trkpt lat="45.67126" lon="6.76462">
        <ele>1441.6</ele>
        <time>2020-08-07T08:47:44Z</time>
      </trkpt>
      <trkpt lat="45.67124" lon="6.76456">
        <ele>1442</ele>
        <time>2020-08-07T08:47:46Z</time>
      </trkpt>
      <trkpt lat="45.67124" lon="6.76453">
        <ele>1442.2</ele>
        <time>2020-08-07T08:47:48Z</time>
      </trkpt>
      <trkpt lat="45.67124" lon="6.76449">
        <ele>1442.5</ele>
        <time>2020-08-07T08:47:50Z</time>
      </trkpt>
      <trkpt lat="45.67123" lon="6.76444">
        <ele>1442.9</ele>
        <time>2020-08-07T08:47:51Z</time>
      </trkpt>
      <trkpt lat="45.67123" lon="6.76435">
        <ele>1443.4</ele>
        <time>2020-08-07T08:47:53Z</time>
      </trkpt>
      <trkpt lat="45.67123" lon="6.76432">
        <ele>1443.7</ele>
        <time>2020-08-07T08:47:55Z</time>
      </trkpt>
      <trkpt lat="45.67123" lon="6.76428">
        <ele>1443.9</ele>
        <time>2020-08-07T08:47:56Z</time>
      </trkpt>
      <trkpt lat="45.67123" lon="6.76424">
        <ele>1444.2</ele>
        <time>2020-08-07T08:47:59Z</time>
      </trkpt>
      <trkpt lat="45.67121" lon="6.76413">
        <ele>1444.9</ele>
        <time>2020-08-07T08:48:01Z</time>
      </trkpt>
      <trkpt lat="45.6712" lon="6.7641">
        <ele>1445.2</ele>
        <time>2020-08-07T08:48:03Z</time>
      </trkpt>
      <trkpt lat="45.67119" lon="6.76406">
        <ele>1445.5</ele>
        <time>2020-08-07T08:48:05Z</time>
      </trkpt>
      <trkpt lat="45.67118" lon="6.76402">
        <ele>1445.9</ele>
        <time>2020-08-07T08:48:06Z</time>
      </trkpt>
      <trkpt lat="45.67117" lon="6.76397">
        <ele>1446.3</ele>
        <time>2020-08-07T08:48:07Z</time>
      </trkpt>
      <trkpt lat="45.67116" lon="6.76396">
        <ele>1446.5</ele>
        <time>2020-08-07T08:48:08Z</time>
      </trkpt>
      <trkpt lat="45.67115" lon="6.76388">
        <ele>1447.2</ele>
        <time>2020-08-07T08:48:10Z</time>
      </trkpt>
      <trkpt lat="45.67115" lon="6.76383">
        <ele>1447.7</ele>
        <time>2020-08-07T08:48:13Z</time>
      </trkpt>
      <trkpt lat="45.67115" lon="6.76377">
        <ele>1448</ele>
        <time>2020-08-07T08:48:14Z</time>
      </trkpt>
      <trkpt lat="45.67116" lon="6.76373">
        <ele>1448.3</ele>
        <time>2020-08-07T08:48:15Z</time>
      </trkpt>
      <trkpt lat="45.67116" lon="6.76369">
        <ele>1448.5</ele>
        <time>2020-08-07T08:48:16Z</time>
      </trkpt>
      <trkpt lat="45.67116" lon="6.76351">
        <ele>1449.4</ele>
        <time>2020-08-07T08:48:18Z</time>
      </trkpt>
      <trkpt lat="45.67116" lon="6.76339">
        <ele>1449.8</ele>
        <time>2020-08-07T08:48:20Z</time>
      </trkpt>
      <trkpt lat="45.67118" lon="6.7633">
        <ele>1450.1</ele>
        <time>2020-08-07T08:48:21Z</time>
      </trkpt>
      <trkpt lat="45.67119" lon="6.7632">
        <ele>1450.4</ele>
        <time>2020-08-07T08:48:23Z</time>
      </trkpt>
      <trkpt lat="45.6712" lon="6.76314">
        <ele>1450.6</ele>
        <time>2020-08-07T08:48:24Z</time>
      </trkpt>
      <trkpt lat="45.67122" lon="6.76309">
        <ele>1450.8</ele>
        <time>2020-08-07T08:48:27Z</time>
      </trkpt>
      <trkpt lat="45.67123" lon="6.76306">
        <ele>1450.9</ele>
        <time>2020-08-07T08:48:28Z</time>
      </trkpt>
      <trkpt lat="45.67125" lon="6.76295">
        <ele>1451.2</ele>
        <time>2020-08-07T08:48:30Z</time>
      </trkpt>
      <trkpt lat="45.67125" lon="6.76288">
        <ele>1451.4</ele>
        <time>2020-08-07T08:48:32Z</time>
      </trkpt>
      <trkpt lat="45.67126" lon="6.76286">
        <ele>1451.5</ele>
        <time>2020-08-07T08:48:33Z</time>
      </trkpt>
      <trkpt lat="45.67126" lon="6.76284">
        <ele>1451.6</ele>
        <time>2020-08-07T08:48:34Z</time>
      </trkpt>
      <trkpt lat="45.67127" lon="6.76274">
        <ele>1452</ele>
        <time>2020-08-07T08:48:36Z</time>
      </trkpt>
      <trkpt lat="45.67128" lon="6.76269">
        <ele>1452.2</ele>
        <time>2020-08-07T08:48:39Z</time>
      </trkpt>
      <trkpt lat="45.67128" lon="6.76263">
        <ele>1452.4</ele>
        <time>2020-08-07T08:48:40Z</time>
      </trkpt>
      <trkpt lat="45.67129" lon="6.76258">
        <ele>1452.6</ele>
        <time>2020-08-07T08:48:41Z</time>
      </trkpt>
      <trkpt lat="45.67129" lon="6.76256">
        <ele>1452.7</ele>
        <time>2020-08-07T08:48:42Z</time>
      </trkpt>
      <trkpt lat="45.67129" lon="6.76252">
        <ele>1452.8</ele>
        <time>2020-08-07T08:48:43Z</time>
      </trkpt>
      <trkpt lat="45.6713" lon="6.76248">
        <ele>1453</ele>
        <time>2020-08-07T08:48:44Z</time>
      </trkpt>
      <trkpt lat="45.6713" lon="6.76243">
        <ele>1453.2</ele>
        <time>2020-08-07T08:48:46Z</time>
      </trkpt>
      <trkpt lat="45.6713" lon="6.76241">
        <ele>1453.2</ele>
        <time>2020-08-07T08:48:47Z</time>
      </trkpt>
      <trkpt lat="45.67131" lon="6.76235">
        <ele>1453.5</ele>
        <time>2020-08-07T08:48:48Z</time>
      </trkpt>
      <trkpt lat="45.67131" lon="6.76232">
        <ele>1453.6</ele>
        <time>2020-08-07T08:48:49Z</time>
      </trkpt>
      <trkpt lat="45.67131" lon="6.76227">
        <ele>1453.8</ele>
        <time>2020-08-07T08:48:50Z</time>
      </trkpt>
      <trkpt lat="45.67131" lon="6.76225">
        <ele>1453.9</ele>
        <time>2020-08-07T08:48:51Z</time>
      </trkpt>
      <trkpt lat="45.67131" lon="6.76218">
        <ele>1454.2</ele>
        <time>2020-08-07T08:48:53Z</time>
      </trkpt>
      <trkpt lat="45.67131" lon="6.76216">
        <ele>1454.3</ele>
        <time>2020-08-07T08:48:54Z</time>
      </trkpt>
      <trkpt lat="45.67131" lon="6.76211">
        <ele>1454.5</ele>
        <time>2020-08-07T08:48:56Z</time>
      </trkpt>
      <trkpt lat="45.67131" lon="6.76208">
        <ele>1454.6</ele>
        <time>2020-08-07T08:48:57Z</time>
      </trkpt>
      <trkpt lat="45.67132" lon="6.762">
        <ele>1455</ele>
        <time>2020-08-07T08:48:58Z</time>
      </trkpt>
      <trkpt lat="45.67132" lon="6.76194">
        <ele>1455.2</ele>
        <time>2020-08-07T08:49:00Z</time>
      </trkpt>
      <trkpt lat="45.67131" lon="6.76186">
        <ele>1455.4</ele>
        <time>2020-08-07T08:49:02Z</time>
      </trkpt>
      <trkpt lat="45.67131" lon="6.76182">
        <ele>1455.5</ele>
        <time>2020-08-07T08:49:03Z</time>
      </trkpt>
      <trkpt lat="45.67131" lon="6.76176">
        <ele>1455.7</ele>
        <time>2020-08-07T08:49:05Z</time>
      </trkpt>
      <trkpt lat="45.67131" lon="6.76171">
        <ele>1456</ele>
        <time>2020-08-07T08:49:06Z</time>
      </trkpt>
      <trkpt lat="45.6713" lon="6.76161">
        <ele>1456.7</ele>
        <time>2020-08-07T08:49:09Z</time>
      </trkpt>
      <trkpt lat="45.67129" lon="6.76156">
        <ele>1457</ele>
        <time>2020-08-07T08:49:11Z</time>
      </trkpt>
      <trkpt lat="45.67129" lon="6.7615">
        <ele>1457.3</ele>
        <time>2020-08-07T08:49:12Z</time>
      </trkpt>
      <trkpt lat="45.67129" lon="6.76148">
        <ele>1457.5</ele>
        <time>2020-08-07T08:49:13Z</time>
      </trkpt>
      <trkpt lat="45.67129" lon="6.76143">
        <ele>1457.8</ele>
        <time>2020-08-07T08:49:15Z</time>
      </trkpt>
      <trkpt lat="45.6713" lon="6.76142">
        <ele>1457.9</ele>
        <time>2020-08-07T08:49:16Z</time>
      </trkpt>
      <trkpt lat="45.6713" lon="6.76138">
        <ele>1458.1</ele>
        <time>2020-08-07T08:49:18Z</time>
      </trkpt>
      <trkpt lat="45.6713" lon="6.76133">
        <ele>1458.4</ele>
        <time>2020-08-07T08:49:19Z</time>
      </trkpt>
      <trkpt lat="45.6713" lon="6.76129">
        <ele>1458.7</ele>
        <time>2020-08-07T08:49:20Z</time>
      </trkpt>
      <trkpt lat="45.6713" lon="6.76127">
        <ele>1458.8</ele>
        <time>2020-08-07T08:49:21Z</time>
      </trkpt>
      <trkpt lat="45.6713" lon="6.76122">
        <ele>1459.1</ele>
        <time>2020-08-07T08:49:23Z</time>
      </trkpt>
      <trkpt lat="45.6713" lon="6.7612">
        <ele>1459.2</ele>
        <time>2020-08-07T08:49:24Z</time>
      </trkpt>
      <trkpt lat="45.6713" lon="6.76113">
        <ele>1459.8</ele>
        <time>2020-08-07T08:49:25Z</time>
      </trkpt>
      <trkpt lat="45.67131" lon="6.76103">
        <ele>1460.4</ele>
        <time>2020-08-07T08:49:27Z</time>
      </trkpt>
      <trkpt lat="45.67131" lon="6.76099">
        <ele>1460.7</ele>
        <time>2020-08-07T08:49:29Z</time>
      </trkpt>
      <trkpt lat="45.67131" lon="6.76095">
        <ele>1461</ele>
        <time>2020-08-07T08:49:30Z</time>
      </trkpt>
      <trkpt lat="45.6713" lon="6.76085">
        <ele>1461.6</ele>
        <time>2020-08-07T08:49:33Z</time>
      </trkpt>
      <trkpt lat="45.6713" lon="6.76082">
        <ele>1461.9</ele>
        <time>2020-08-07T08:49:34Z</time>
      </trkpt>
      <trkpt lat="45.67129" lon="6.76078">
        <ele>1462.2</ele>
        <time>2020-08-07T08:49:36Z</time>
      </trkpt>
      <trkpt lat="45.67127" lon="6.76069">
        <ele>1462.8</ele>
        <time>2020-08-07T08:49:38Z</time>
      </trkpt>
      <trkpt lat="45.67125" lon="6.76063">
        <ele>1463.2</ele>
        <time>2020-08-07T08:49:40Z</time>
      </trkpt>
      <trkpt lat="45.67122" lon="6.76059">
        <ele>1463.6</ele>
        <time>2020-08-07T08:49:41Z</time>
      </trkpt>
      <trkpt lat="45.67121" lon="6.76057">
        <ele>1463.8</ele>
        <time>2020-08-07T08:49:42Z</time>
      </trkpt>
      <trkpt lat="45.67119" lon="6.76054">
        <ele>1464</ele>
        <time>2020-08-07T08:49:43Z</time>
      </trkpt>
      <trkpt lat="45.67116" lon="6.76049">
        <ele>1464.5</ele>
        <time>2020-08-07T08:49:45Z</time>
      </trkpt>
      <trkpt lat="45.67115" lon="6.76048">
        <ele>1464.6</ele>
        <time>2020-08-07T08:49:46Z</time>
      </trkpt>
      <trkpt lat="45.67114" lon="6.76046">
        <ele>1464.8</ele>
        <time>2020-08-07T08:49:47Z</time>
      </trkpt>
      <trkpt lat="45.67113" lon="6.76041">
        <ele>1465.1</ele>
        <time>2020-08-07T08:49:48Z</time>
      </trkpt>
      <trkpt lat="45.67112" lon="6.7604">
        <ele>1465.2</ele>
        <time>2020-08-07T08:49:49Z</time>
      </trkpt>
      <trkpt lat="45.67111" lon="6.76034">
        <ele>1465.6</ele>
        <time>2020-08-07T08:49:50Z</time>
      </trkpt>
      <trkpt lat="45.67111" lon="6.76032">
        <ele>1465.7</ele>
        <time>2020-08-07T08:49:51Z</time>
      </trkpt>
      <trkpt lat="45.67111" lon="6.76027">
        <ele>1466</ele>
        <time>2020-08-07T08:49:53Z</time>
      </trkpt>
      <trkpt lat="45.67112" lon="6.76018">
        <ele>1466.5</ele>
        <time>2020-08-07T08:49:55Z</time>
      </trkpt>
      <trkpt lat="45.67112" lon="6.76012">
        <ele>1466.8</ele>
        <time>2020-08-07T08:49:57Z</time>
      </trkpt>
      <trkpt lat="45.67112" lon="6.76008">
        <ele>1467</ele>
        <time>2020-08-07T08:49:58Z</time>
      </trkpt>
      <trkpt lat="45.6711" lon="6.76">
        <ele>1467.3</ele>
        <time>2020-08-07T08:50:00Z</time>
      </trkpt>
      <trkpt lat="45.67109" lon="6.75996">
        <ele>1467.5</ele>
        <time>2020-08-07T08:50:01Z</time>
      </trkpt>
      <trkpt lat="45.67107" lon="6.75991">
        <ele>1467.8</ele>
        <time>2020-08-07T08:50:03Z</time>
      </trkpt>
      <trkpt lat="45.67106" lon="6.75986">
        <ele>1468</ele>
        <time>2020-08-07T08:50:05Z</time>
      </trkpt>
      <trkpt lat="45.67105" lon="6.75984">
        <ele>1468.1</ele>
        <time>2020-08-07T08:50:06Z</time>
      </trkpt>
      <trkpt lat="45.67103" lon="6.75979">
        <ele>1468.4</ele>
        <time>2020-08-07T08:50:07Z</time>
      </trkpt>
      <trkpt lat="45.67101" lon="6.75975">
        <ele>1468.6</ele>
        <time>2020-08-07T08:50:08Z</time>
      </trkpt>
      <trkpt lat="45.67099" lon="6.75972">
        <ele>1468.8</ele>
        <time>2020-08-07T08:50:10Z</time>
      </trkpt>
      <trkpt lat="45.67098" lon="6.75969">
        <ele>1469</ele>
        <time>2020-08-07T08:50:11Z</time>
      </trkpt>
      <trkpt lat="45.67095" lon="6.75965">
        <ele>1469.2</ele>
        <time>2020-08-07T08:50:12Z</time>
      </trkpt>
      <trkpt lat="45.67092" lon="6.75962">
        <ele>1469.4</ele>
        <time>2020-08-07T08:50:14Z</time>
      </trkpt>
      <trkpt lat="45.67089" lon="6.75958">
        <ele>1469.7</ele>
        <time>2020-08-07T08:50:16Z</time>
      </trkpt>
      <trkpt lat="45.67083" lon="6.75952">
        <ele>1470.2</ele>
        <time>2020-08-07T08:50:18Z</time>
      </trkpt>
      <trkpt lat="45.6708" lon="6.75949">
        <ele>1470.4</ele>
        <time>2020-08-07T08:50:21Z</time>
      </trkpt>
      <trkpt lat="45.67076" lon="6.75945">
        <ele>1470.8</ele>
        <time>2020-08-07T08:50:22Z</time>
      </trkpt>
      <trkpt lat="45.67074" lon="6.75942">
        <ele>1471</ele>
        <time>2020-08-07T08:50:23Z</time>
      </trkpt>
      <trkpt lat="45.6707" lon="6.75938">
        <ele>1471.3</ele>
        <time>2020-08-07T08:50:25Z</time>
      </trkpt>
      <trkpt lat="45.67068" lon="6.75936">
        <ele>1471.4</ele>
        <time>2020-08-07T08:50:26Z</time>
      </trkpt>
      <trkpt lat="45.67066" lon="6.75932">
        <ele>1471.7</ele>
        <time>2020-08-07T08:50:27Z</time>
      </trkpt>
      <trkpt lat="45.67063" lon="6.75929">
        <ele>1471.9</ele>
        <time>2020-08-07T08:50:29Z</time>
      </trkpt>
      <trkpt lat="45.67058" lon="6.75922">
        <ele>1472.3</ele>
        <time>2020-08-07T08:50:31Z</time>
      </trkpt>
      <trkpt lat="45.67055" lon="6.75918">
        <ele>1472.5</ele>
        <time>2020-08-07T08:50:33Z</time>
      </trkpt>
      <trkpt lat="45.67052" lon="6.75911">
        <ele>1472.9</ele>
        <time>2020-08-07T08:50:35Z</time>
      </trkpt>
      <trkpt lat="45.67051" lon="6.75906">
        <ele>1473</ele>
        <time>2020-08-07T08:50:36Z</time>
      </trkpt>
      <trkpt lat="45.6705" lon="6.75902">
        <ele>1473.2</ele>
        <time>2020-08-07T08:50:38Z</time>
      </trkpt>
      <trkpt lat="45.6705" lon="6.75892">
        <ele>1473.4</ele>
        <time>2020-08-07T08:50:40Z</time>
      </trkpt>
      <trkpt lat="45.67052" lon="6.75887">
        <ele>1473.5</ele>
        <time>2020-08-07T08:50:43Z</time>
      </trkpt>
      <trkpt lat="45.67056" lon="6.75881">
        <ele>1473.6</ele>
        <time>2020-08-07T08:50:45Z</time>
      </trkpt>
      <trkpt lat="45.67058" lon="6.75878">
        <ele>1473.7</ele>
        <time>2020-08-07T08:50:46Z</time>
      </trkpt>
      <trkpt lat="45.67062" lon="6.75872">
        <ele>1473.8</ele>
        <time>2020-08-07T08:50:48Z</time>
      </trkpt>
      <trkpt lat="45.67067" lon="6.75862">
        <ele>1473.8</ele>
        <time>2020-08-07T08:50:49Z</time>
      </trkpt>
      <trkpt lat="45.6707" lon="6.75858">
        <ele>1473.8</ele>
        <time>2020-08-07T08:50:50Z</time>
      </trkpt>
      <trkpt lat="45.67073" lon="6.75852">
        <ele>1473.8</ele>
        <time>2020-08-07T08:50:52Z</time>
      </trkpt>
      <trkpt lat="45.67079" lon="6.75843">
        <ele>1473.8</ele>
        <time>2020-08-07T08:50:54Z</time>
      </trkpt>
      <trkpt lat="45.67084" lon="6.75831">
        <ele>1473.7</ele>
        <time>2020-08-07T08:50:56Z</time>
      </trkpt>
      <trkpt lat="45.67088" lon="6.7583">
        <ele>1473.6</ele>
        <time>2020-08-07T08:50:57Z</time>
      </trkpt>
      <trkpt lat="45.67091" lon="6.75818">
        <ele>1473.6</ele>
        <time>2020-08-07T08:50:59Z</time>
      </trkpt>
      <trkpt lat="45.67096" lon="6.75803">
        <ele>1473.4</ele>
        <time>2020-08-07T08:51:01Z</time>
      </trkpt>
      <trkpt lat="45.67099" lon="6.75795">
        <ele>1473.4</ele>
        <time>2020-08-07T08:51:02Z</time>
      </trkpt>
      <trkpt lat="45.67104" lon="6.75782">
        <ele>1473.3</ele>
        <time>2020-08-07T08:51:04Z</time>
      </trkpt>
      <trkpt lat="45.67108" lon="6.75776">
        <ele>1473.2</ele>
        <time>2020-08-07T08:51:05Z</time>
      </trkpt>
      <trkpt lat="45.67115" lon="6.75764">
        <ele>1473.2</ele>
        <time>2020-08-07T08:51:07Z</time>
      </trkpt>
      <trkpt lat="45.67119" lon="6.75759">
        <ele>1473.1</ele>
        <time>2020-08-07T08:51:08Z</time>
      </trkpt>
      <trkpt lat="45.67129" lon="6.75751">
        <ele>1473</ele>
        <time>2020-08-07T08:51:10Z</time>
      </trkpt>
      <trkpt lat="45.67134" lon="6.7575">
        <ele>1473</ele>
        <time>2020-08-07T08:51:11Z</time>
      </trkpt>
      <trkpt lat="45.67146" lon="6.75752">
        <ele>1472.8</ele>
        <time>2020-08-07T08:51:13Z</time>
      </trkpt>
      <trkpt lat="45.67157" lon="6.75757">
        <ele>1473</ele>
        <time>2020-08-07T08:51:15Z</time>
      </trkpt>
      <trkpt lat="45.67163" lon="6.75759">
        <ele>1473.1</ele>
        <time>2020-08-07T08:51:16Z</time>
      </trkpt>
      <trkpt lat="45.67168" lon="6.75759">
        <ele>1473.1</ele>
        <time>2020-08-07T08:51:17Z</time>
      </trkpt>
      <trkpt lat="45.6718" lon="6.75757">
        <ele>1473.2</ele>
        <time>2020-08-07T08:51:19Z</time>
      </trkpt>
      <trkpt lat="45.67185" lon="6.75755">
        <ele>1473.3</ele>
        <time>2020-08-07T08:51:20Z</time>
      </trkpt>
      <trkpt lat="45.6719" lon="6.75751">
        <ele>1473.3</ele>
        <time>2020-08-07T08:51:21Z</time>
      </trkpt>
      <trkpt lat="45.672" lon="6.75744">
        <ele>1473.4</ele>
        <time>2020-08-07T08:51:23Z</time>
      </trkpt>
      <trkpt lat="45.67211" lon="6.75739">
        <ele>1473.4</ele>
        <time>2020-08-07T08:51:25Z</time>
      </trkpt>
      <trkpt lat="45.67217" lon="6.75738">
        <ele>1473.5</ele>
        <time>2020-08-07T08:51:26Z</time>
      </trkpt>
      <trkpt lat="45.67224" lon="6.75735">
        <ele>1473.5</ele>
        <time>2020-08-07T08:51:27Z</time>
      </trkpt>
      <trkpt lat="45.6723" lon="6.75732">
        <ele>1473.5</ele>
        <time>2020-08-07T08:51:28Z</time>
      </trkpt>
      <trkpt lat="45.6724" lon="6.75722">
        <ele>1473.6</ele>
        <time>2020-08-07T08:51:30Z</time>
      </trkpt>
      <trkpt lat="45.67244" lon="6.75715">
        <ele>1473.6</ele>
        <time>2020-08-07T08:51:31Z</time>
      </trkpt>
      <trkpt lat="45.67253" lon="6.75701">
        <ele>1473.8</ele>
        <time>2020-08-07T08:51:33Z</time>
      </trkpt>
      <trkpt lat="45.67257" lon="6.75693">
        <ele>1473.9</ele>
        <time>2020-08-07T08:51:34Z</time>
      </trkpt>
      <trkpt lat="45.67262" lon="6.75686">
        <ele>1473.9</ele>
        <time>2020-08-07T08:51:35Z</time>
      </trkpt>
      <trkpt lat="45.67272" lon="6.75672">
        <ele>1474.1</ele>
        <time>2020-08-07T08:51:37Z</time>
      </trkpt>
      <trkpt lat="45.67284" lon="6.7566">
        <ele>1474.2</ele>
        <time>2020-08-07T08:51:39Z</time>
      </trkpt>
      <trkpt lat="45.6729" lon="6.75653">
        <ele>1474.3</ele>
        <time>2020-08-07T08:51:40Z</time>
      </trkpt>
      <trkpt lat="45.67295" lon="6.75647">
        <ele>1474.4</ele>
        <time>2020-08-07T08:51:41Z</time>
      </trkpt>
      <trkpt lat="45.67303" lon="6.7563">
        <ele>1474.6</ele>
        <time>2020-08-07T08:51:43Z</time>
      </trkpt>
      <trkpt lat="45.67306" lon="6.7562">
        <ele>1474.6</ele>
        <time>2020-08-07T08:51:44Z</time>
      </trkpt>
      <trkpt lat="45.67309" lon="6.75611">
        <ele>1474.6</ele>
        <time>2020-08-07T08:51:45Z</time>
      </trkpt>
      <trkpt lat="45.67313" lon="6.75592">
        <ele>1474.8</ele>
        <time>2020-08-07T08:51:47Z</time>
      </trkpt>
      <trkpt lat="45.67316" lon="6.75582">
        <ele>1474.9</ele>
        <time>2020-08-07T08:51:48Z</time>
      </trkpt>
      <trkpt lat="45.67321" lon="6.75563">
        <ele>1475.1</ele>
        <time>2020-08-07T08:51:50Z</time>
      </trkpt>
      <trkpt lat="45.67328" lon="6.75544">
        <ele>1475.2</ele>
        <time>2020-08-07T08:51:52Z</time>
      </trkpt>
      <trkpt lat="45.67337" lon="6.75527">
        <ele>1475.3</ele>
        <time>2020-08-07T08:51:54Z</time>
      </trkpt>
      <trkpt lat="45.67347" lon="6.75513">
        <ele>1475.5</ele>
        <time>2020-08-07T08:51:56Z</time>
      </trkpt>
      <trkpt lat="45.67353" lon="6.75506">
        <ele>1475.6</ele>
        <time>2020-08-07T08:51:57Z</time>
      </trkpt>
      <trkpt lat="45.67359" lon="6.75499">
        <ele>1475.7</ele>
        <time>2020-08-07T08:51:58Z</time>
      </trkpt>
      <trkpt lat="45.6737" lon="6.75484">
        <ele>1475.8</ele>
        <time>2020-08-07T08:52:00Z</time>
      </trkpt>
      <trkpt lat="45.67381" lon="6.75469">
        <ele>1476</ele>
        <time>2020-08-07T08:52:02Z</time>
      </trkpt>
      <trkpt lat="45.67386" lon="6.75462">
        <ele>1476.2</ele>
        <time>2020-08-07T08:52:03Z</time>
      </trkpt>
      <trkpt lat="45.67395" lon="6.75445">
        <ele>1476.5</ele>
        <time>2020-08-07T08:52:05Z</time>
      </trkpt>
      <trkpt lat="45.67404" lon="6.75428">
        <ele>1476.7</ele>
        <time>2020-08-07T08:52:07Z</time>
      </trkpt>
      <trkpt lat="45.67411" lon="6.75409">
        <ele>1476.9</ele>
        <time>2020-08-07T08:52:09Z</time>
      </trkpt>
      <trkpt lat="45.67415" lon="6.75399">
        <ele>1477.1</ele>
        <time>2020-08-07T08:52:10Z</time>
      </trkpt>
      <trkpt lat="45.67421" lon="6.75379">
        <ele>1477.3</ele>
        <time>2020-08-07T08:52:12Z</time>
      </trkpt>
      <trkpt lat="45.67424" lon="6.75358">
        <ele>1477.4</ele>
        <time>2020-08-07T08:52:14Z</time>
      </trkpt>
      <trkpt lat="45.67424" lon="6.75347">
        <ele>1477.5</ele>
        <time>2020-08-07T08:52:15Z</time>
      </trkpt>
      <trkpt lat="45.67424" lon="6.75335">
        <ele>1477.6</ele>
        <time>2020-08-07T08:52:16Z</time>
      </trkpt>
      <trkpt lat="45.67422" lon="6.75312">
        <ele>1477.7</ele>
        <time>2020-08-07T08:52:18Z</time>
      </trkpt>
      <trkpt lat="45.6742" lon="6.753">
        <ele>1477.8</ele>
        <time>2020-08-07T08:52:19Z</time>
      </trkpt>
      <trkpt lat="45.67418" lon="6.75288">
        <ele>1477.9</ele>
        <time>2020-08-07T08:52:20Z</time>
      </trkpt>
      <trkpt lat="45.67416" lon="6.75265">
        <ele>1478.1</ele>
        <time>2020-08-07T08:52:22Z</time>
      </trkpt>
      <trkpt lat="45.67416" lon="6.75253">
        <ele>1478.1</ele>
        <time>2020-08-07T08:52:23Z</time>
      </trkpt>
      <trkpt lat="45.67416" lon="6.75241">
        <ele>1478.2</ele>
        <time>2020-08-07T08:52:24Z</time>
      </trkpt>
      <trkpt lat="45.67418" lon="6.75217">
        <ele>1478.3</ele>
        <time>2020-08-07T08:52:26Z</time>
      </trkpt>
      <trkpt lat="45.67418" lon="6.75206">
        <ele>1478.5</ele>
        <time>2020-08-07T08:52:27Z</time>
      </trkpt>
      <trkpt lat="45.6742" lon="6.75185">
        <ele>1478.7</ele>
        <time>2020-08-07T08:52:29Z</time>
      </trkpt>
      <trkpt lat="45.67422" lon="6.75174">
        <ele>1478.8</ele>
        <time>2020-08-07T08:52:30Z</time>
      </trkpt>
      <trkpt lat="45.67428" lon="6.75155">
        <ele>1479</ele>
        <time>2020-08-07T08:52:32Z</time>
      </trkpt>
      <trkpt lat="45.67437" lon="6.75137">
        <ele>1479.1</ele>
        <time>2020-08-07T08:52:34Z</time>
      </trkpt>
      <trkpt lat="45.67449" lon="6.75123">
        <ele>1479.2</ele>
        <time>2020-08-07T08:52:36Z</time>
      </trkpt>
      <trkpt lat="45.6746" lon="6.75107">
        <ele>1479.3</ele>
        <time>2020-08-07T08:52:38Z</time>
      </trkpt>
      <trkpt lat="45.67471" lon="6.7509">
        <ele>1479.4</ele>
        <time>2020-08-07T08:52:40Z</time>
      </trkpt>
      <trkpt lat="45.67482" lon="6.75073">
        <ele>1479.6</ele>
        <time>2020-08-07T08:52:42Z</time>
      </trkpt>
      <trkpt lat="45.67494" lon="6.7506">
        <ele>1480</ele>
        <time>2020-08-07T08:52:44Z</time>
      </trkpt>
      <trkpt lat="45.675" lon="6.75054">
        <ele>1480.1</ele>
        <time>2020-08-07T08:52:45Z</time>
      </trkpt>
      <trkpt lat="45.67512" lon="6.75044">
        <ele>1480.3</ele>
        <time>2020-08-07T08:52:47Z</time>
      </trkpt>
      <trkpt lat="45.67523" lon="6.75032">
        <ele>1480.5</ele>
        <time>2020-08-07T08:52:49Z</time>
      </trkpt>
      <trkpt lat="45.67529" lon="6.75025">
        <ele>1480.6</ele>
        <time>2020-08-07T08:52:50Z</time>
      </trkpt>
      <trkpt lat="45.67539" lon="6.7501">
        <ele>1481.1</ele>
        <time>2020-08-07T08:52:52Z</time>
      </trkpt>
      <trkpt lat="45.67548" lon="6.74994">
        <ele>1481.5</ele>
        <time>2020-08-07T08:52:54Z</time>
      </trkpt>
      <trkpt lat="45.67552" lon="6.74985">
        <ele>1481.8</ele>
        <time>2020-08-07T08:52:55Z</time>
      </trkpt>
      <trkpt lat="45.67556" lon="6.74976">
        <ele>1482</ele>
        <time>2020-08-07T08:52:56Z</time>
      </trkpt>
      <trkpt lat="45.67558" lon="6.74966">
        <ele>1482.3</ele>
        <time>2020-08-07T08:52:57Z</time>
      </trkpt>
      <trkpt lat="45.67563" lon="6.74947">
        <ele>1482.9</ele>
        <time>2020-08-07T08:52:59Z</time>
      </trkpt>
      <trkpt lat="45.67567" lon="6.74928">
        <ele>1483.6</ele>
        <time>2020-08-07T08:53:01Z</time>
      </trkpt>
      <trkpt lat="45.67569" lon="6.74919">
        <ele>1483.9</ele>
        <time>2020-08-07T08:53:02Z</time>
      </trkpt>
      <trkpt lat="45.6757" lon="6.7491">
        <ele>1484.2</ele>
        <time>2020-08-07T08:53:03Z</time>
      </trkpt>
      <trkpt lat="45.67571" lon="6.74891">
        <ele>1484.9</ele>
        <time>2020-08-07T08:53:05Z</time>
      </trkpt>
      <trkpt lat="45.67572" lon="6.74873">
        <ele>1485.6</ele>
        <time>2020-08-07T08:53:07Z</time>
      </trkpt>
      <trkpt lat="45.67573" lon="6.74864">
        <ele>1486</ele>
        <time>2020-08-07T08:53:08Z</time>
      </trkpt>
      <trkpt lat="45.67575" lon="6.74848">
        <ele>1486.8</ele>
        <time>2020-08-07T08:53:10Z</time>
      </trkpt>
      <trkpt lat="45.67579" lon="6.74834">
        <ele>1487.5</ele>
        <time>2020-08-07T08:53:12Z</time>
      </trkpt>
      <trkpt lat="45.67582" lon="6.74828">
        <ele>1487.9</ele>
        <time>2020-08-07T08:53:13Z</time>
      </trkpt>
      <trkpt lat="45.67589" lon="6.74817">
        <ele>1488.8</ele>
        <time>2020-08-07T08:53:15Z</time>
      </trkpt>
      <trkpt lat="45.67596" lon="6.74805">
        <ele>1489.6</ele>
        <time>2020-08-07T08:53:17Z</time>
      </trkpt>
      <trkpt lat="45.67601" lon="6.74794">
        <ele>1490.3</ele>
        <time>2020-08-07T08:53:19Z</time>
      </trkpt>
      <trkpt lat="45.67603" lon="6.74791">
        <ele>1490.4</ele>
        <time>2020-08-07T08:53:20Z</time>
      </trkpt>
      <trkpt lat="45.67607" lon="6.74781">
        <ele>1490.8</ele>
        <time>2020-08-07T08:53:22Z</time>
      </trkpt>
      <trkpt lat="45.67609" lon="6.74774">
        <ele>1491</ele>
        <time>2020-08-07T08:53:23Z</time>
      </trkpt>
      <trkpt lat="45.67611" lon="6.74768">
        <ele>1491.2</ele>
        <time>2020-08-07T08:53:24Z</time>
      </trkpt>
      <trkpt lat="45.6761" lon="6.74753">
        <ele>1491.7</ele>
        <time>2020-08-07T08:53:26Z</time>
      </trkpt>
      <trkpt lat="45.67614" lon="6.74743">
        <ele>1492.1</ele>
        <time>2020-08-07T08:53:29Z</time>
      </trkpt>
      <trkpt lat="45.67619" lon="6.74732">
        <ele>1492.7</ele>
        <time>2020-08-07T08:53:30Z</time>
      </trkpt>
      <trkpt lat="45.67624" lon="6.74724">
        <ele>1492.7</ele>
        <time>2020-08-07T08:53:32Z</time>
      </trkpt>
      <trkpt lat="45.67627" lon="6.74719">
        <ele>1492.7</ele>
        <time>2020-08-07T08:53:34Z</time>
      </trkpt>
      <trkpt lat="45.6763" lon="6.74715">
        <ele>1492.7</ele>
        <time>2020-08-07T08:53:35Z</time>
      </trkpt>
      <trkpt lat="45.67633" lon="6.74711">
        <ele>1492.7</ele>
        <time>2020-08-07T08:53:36Z</time>
      </trkpt>
      <trkpt lat="45.67639" lon="6.74705">
        <ele>1492.6</ele>
        <time>2020-08-07T08:53:37Z</time>
      </trkpt>
      <trkpt lat="45.67643" lon="6.74702">
        <ele>1492.5</ele>
        <time>2020-08-07T08:53:39Z</time>
      </trkpt>
      <trkpt lat="45.67651" lon="6.74697">
        <ele>1492.5</ele>
        <time>2020-08-07T08:53:41Z</time>
      </trkpt>
      <trkpt lat="45.67657" lon="6.74692">
        <ele>1492.5</ele>
        <time>2020-08-07T08:53:42Z</time>
      </trkpt>
      <trkpt lat="45.67661" lon="6.74689">
        <ele>1492.4</ele>
        <time>2020-08-07T08:53:44Z</time>
      </trkpt>
      <trkpt lat="45.67669" lon="6.74684">
        <ele>1492.4</ele>
        <time>2020-08-07T08:53:45Z</time>
      </trkpt>
      <trkpt lat="45.67673" lon="6.74682">
        <ele>1492.4</ele>
        <time>2020-08-07T08:53:47Z</time>
      </trkpt>
      <trkpt lat="45.67678" lon="6.74677">
        <ele>1492.3</ele>
        <time>2020-08-07T08:53:48Z</time>
      </trkpt>
      <trkpt lat="45.67683" lon="6.74674">
        <ele>1492.3</ele>
        <time>2020-08-07T08:53:50Z</time>
      </trkpt>
      <trkpt lat="45.67689" lon="6.74667">
        <ele>1492.3</ele>
        <time>2020-08-07T08:53:51Z</time>
      </trkpt>
      <trkpt lat="45.67694" lon="6.74661">
        <ele>1492.3</ele>
        <time>2020-08-07T08:53:52Z</time>
      </trkpt>
      <trkpt lat="45.67699" lon="6.74657">
        <ele>1492.3</ele>
        <time>2020-08-07T08:53:55Z</time>
      </trkpt>
      <trkpt lat="45.6771" lon="6.74642">
        <ele>1492.3</ele>
        <time>2020-08-07T08:53:57Z</time>
      </trkpt>
      <trkpt lat="45.67713" lon="6.74637">
        <ele>1492.3</ele>
        <time>2020-08-07T08:53:59Z</time>
      </trkpt>
      <trkpt lat="45.67717" lon="6.74631">
        <ele>1492.3</ele>
        <time>2020-08-07T08:54:00Z</time>
      </trkpt>
      <trkpt lat="45.67721" lon="6.74626">
        <ele>1492.3</ele>
        <time>2020-08-07T08:54:01Z</time>
      </trkpt>
      <trkpt lat="45.67723" lon="6.74622">
        <ele>1492.2</ele>
        <time>2020-08-07T08:54:02Z</time>
      </trkpt>
      <trkpt lat="45.67731" lon="6.74609">
        <ele>1492.1</ele>
        <time>2020-08-07T08:54:05Z</time>
      </trkpt>
      <trkpt lat="45.67734" lon="6.74602">
        <ele>1492.1</ele>
        <time>2020-08-07T08:54:07Z</time>
      </trkpt>
      <trkpt lat="45.67736" lon="6.74596">
        <ele>1492</ele>
        <time>2020-08-07T08:54:09Z</time>
      </trkpt>
      <trkpt lat="45.6774" lon="6.74586">
        <ele>1491.9</ele>
        <time>2020-08-07T08:54:11Z</time>
      </trkpt>
      <trkpt lat="45.67742" lon="6.74581">
        <ele>1491.9</ele>
        <time>2020-08-07T08:54:12Z</time>
      </trkpt>
      <trkpt lat="45.67746" lon="6.74573">
        <ele>1491.8</ele>
        <time>2020-08-07T08:54:13Z</time>
      </trkpt>
      <trkpt lat="45.67748" lon="6.74566">
        <ele>1491.8</ele>
        <time>2020-08-07T08:54:14Z</time>
      </trkpt>
      <trkpt lat="45.6775" lon="6.74559">
        <ele>1491.8</ele>
        <time>2020-08-07T08:54:16Z</time>
      </trkpt>
      <trkpt lat="45.67753" lon="6.74551">
        <ele>1491.8</ele>
        <time>2020-08-07T08:54:17Z</time>
      </trkpt>
      <trkpt lat="45.67755" lon="6.74544">
        <ele>1491.8</ele>
        <time>2020-08-07T08:54:20Z</time>
      </trkpt>
      <trkpt lat="45.67757" lon="6.74539">
        <ele>1491.8</ele>
        <time>2020-08-07T08:54:21Z</time>
      </trkpt>
      <trkpt lat="45.6776" lon="6.7453">
        <ele>1491.7</ele>
        <time>2020-08-07T08:54:22Z</time>
      </trkpt>
      <trkpt lat="45.67763" lon="6.74522">
        <ele>1491.7</ele>
        <time>2020-08-07T08:54:24Z</time>
      </trkpt>
      <trkpt lat="45.67766" lon="6.74515">
        <ele>1491.9</ele>
        <time>2020-08-07T08:54:25Z</time>
      </trkpt>
      <trkpt lat="45.67768" lon="6.74508">
        <ele>1492.2</ele>
        <time>2020-08-07T08:54:26Z</time>
      </trkpt>
      <trkpt lat="45.67772" lon="6.74495">
        <ele>1492.8</ele>
        <time>2020-08-07T08:54:29Z</time>
      </trkpt>
      <trkpt lat="45.67775" lon="6.74487">
        <ele>1493.2</ele>
        <time>2020-08-07T08:54:31Z</time>
      </trkpt>
      <trkpt lat="45.67777" lon="6.74482">
        <ele>1493.5</ele>
        <time>2020-08-07T08:54:33Z</time>
      </trkpt>
      <trkpt lat="45.67784" lon="6.74465">
        <ele>1494.6</ele>
        <time>2020-08-07T08:54:35Z</time>
      </trkpt>
      <trkpt lat="45.67786" lon="6.7446">
        <ele>1494.9</ele>
        <time>2020-08-07T08:54:36Z</time>
      </trkpt>
      <trkpt lat="45.67791" lon="6.74445">
        <ele>1496</ele>
        <time>2020-08-07T08:54:39Z</time>
      </trkpt>
      <trkpt lat="45.67794" lon="6.74438">
        <ele>1496.4</ele>
        <time>2020-08-07T08:54:42Z</time>
      </trkpt>
      <trkpt lat="45.67797" lon="6.7443">
        <ele>1497</ele>
        <time>2020-08-07T08:54:44Z</time>
      </trkpt>
      <trkpt lat="45.67799" lon="6.74425">
        <ele>1497.4</ele>
        <time>2020-08-07T08:54:45Z</time>
      </trkpt>
      <trkpt lat="45.678" lon="6.74421">
        <ele>1497.7</ele>
        <time>2020-08-07T08:54:46Z</time>
      </trkpt>
      <trkpt lat="45.67803" lon="6.74413">
        <ele>1498.2</ele>
        <time>2020-08-07T08:54:47Z</time>
      </trkpt>
      <trkpt lat="45.67807" lon="6.74402">
        <ele>1499.1</ele>
        <time>2020-08-07T08:54:49Z</time>
      </trkpt>
      <trkpt lat="45.67813" lon="6.74386">
        <ele>1500.2</ele>
        <time>2020-08-07T08:54:52Z</time>
      </trkpt>
      <trkpt lat="45.67817" lon="6.74376">
        <ele>1501</ele>
        <time>2020-08-07T08:54:55Z</time>
      </trkpt>
      <trkpt lat="45.67818" lon="6.74372">
        <ele>1501.2</ele>
        <time>2020-08-07T08:54:56Z</time>
      </trkpt>
      <trkpt lat="45.67821" lon="6.74367">
        <ele>1501.6</ele>
        <time>2020-08-07T08:54:58Z</time>
      </trkpt>
      <trkpt lat="45.67825" lon="6.74357">
        <ele>1502.4</ele>
        <time>2020-08-07T08:55:00Z</time>
      </trkpt>
      <trkpt lat="45.67827" lon="6.74353">
        <ele>1502.7</ele>
        <time>2020-08-07T08:55:01Z</time>
      </trkpt>
      <trkpt lat="45.67834" lon="6.7434">
        <ele>1503.7</ele>
        <time>2020-08-07T08:55:03Z</time>
      </trkpt>
      <trkpt lat="45.67836" lon="6.74336">
        <ele>1504</ele>
        <time>2020-08-07T08:55:04Z</time>
      </trkpt>
      <trkpt lat="45.6784" lon="6.74329">
        <ele>1504.6</ele>
        <time>2020-08-07T08:55:06Z</time>
      </trkpt>
      <trkpt lat="45.67842" lon="6.74325">
        <ele>1504.9</ele>
        <time>2020-08-07T08:55:08Z</time>
      </trkpt>
      <trkpt lat="45.67846" lon="6.74318">
        <ele>1505.5</ele>
        <time>2020-08-07T08:55:09Z</time>
      </trkpt>
      <trkpt lat="45.67849" lon="6.74313">
        <ele>1506</ele>
        <time>2020-08-07T08:55:10Z</time>
      </trkpt>
      <trkpt lat="45.67853" lon="6.74309">
        <ele>1506.5</ele>
        <time>2020-08-07T08:55:12Z</time>
      </trkpt>
      <trkpt lat="45.6786" lon="6.74299">
        <ele>1507.3</ele>
        <time>2020-08-07T08:55:14Z</time>
      </trkpt>
      <trkpt lat="45.67864" lon="6.74293">
        <ele>1508</ele>
        <time>2020-08-07T08:55:16Z</time>
      </trkpt>
      <trkpt lat="45.6787" lon="6.74286">
        <ele>1508.7</ele>
        <time>2020-08-07T08:55:18Z</time>
      </trkpt>
      <trkpt lat="45.67873" lon="6.74282">
        <ele>1509.1</ele>
        <time>2020-08-07T08:55:19Z</time>
      </trkpt>
      <trkpt lat="45.67877" lon="6.74278">
        <ele>1509.5</ele>
        <time>2020-08-07T08:55:21Z</time>
      </trkpt>
      <trkpt lat="45.6788" lon="6.74274">
        <ele>1510</ele>
        <time>2020-08-07T08:55:22Z</time>
      </trkpt>
      <trkpt lat="45.67885" lon="6.74269">
        <ele>1510.5</ele>
        <time>2020-08-07T08:55:24Z</time>
      </trkpt>
      <trkpt lat="45.6789" lon="6.74263">
        <ele>1511.1</ele>
        <time>2020-08-07T08:55:25Z</time>
      </trkpt>
      <trkpt lat="45.67893" lon="6.74259">
        <ele>1511.5</ele>
        <time>2020-08-07T08:55:27Z</time>
      </trkpt>
      <trkpt lat="45.67899" lon="6.74253">
        <ele>1512.1</ele>
        <time>2020-08-07T08:55:29Z</time>
      </trkpt>
      <trkpt lat="45.67901" lon="6.7425">
        <ele>1512.4</ele>
        <time>2020-08-07T08:55:30Z</time>
      </trkpt>
      <trkpt lat="45.67908" lon="6.74241">
        <ele>1513.3</ele>
        <time>2020-08-07T08:55:32Z</time>
      </trkpt>
      <trkpt lat="45.67912" lon="6.74237">
        <ele>1513.7</ele>
        <time>2020-08-07T08:55:34Z</time>
      </trkpt>
      <trkpt lat="45.67917" lon="6.74231">
        <ele>1514.2</ele>
        <time>2020-08-07T08:55:36Z</time>
      </trkpt>
      <trkpt lat="45.67921" lon="6.74226">
        <ele>1514.6</ele>
        <time>2020-08-07T08:55:38Z</time>
      </trkpt>
      <trkpt lat="45.67926" lon="6.7422">
        <ele>1515.2</ele>
        <time>2020-08-07T08:55:40Z</time>
      </trkpt>
      <trkpt lat="45.67928" lon="6.74217">
        <ele>1515.6</ele>
        <time>2020-08-07T08:55:41Z</time>
      </trkpt>
      <trkpt lat="45.67934" lon="6.74211">
        <ele>1516.2</ele>
        <time>2020-08-07T08:55:43Z</time>
      </trkpt>
      <trkpt lat="45.67939" lon="6.74205">
        <ele>1516.8</ele>
        <time>2020-08-07T08:55:44Z</time>
      </trkpt>
      <trkpt lat="45.67942" lon="6.742">
        <ele>1517.2</ele>
        <time>2020-08-07T08:55:46Z</time>
      </trkpt>
      <trkpt lat="45.67951" lon="6.74189">
        <ele>1518.3</ele>
        <time>2020-08-07T08:55:48Z</time>
      </trkpt>
      <trkpt lat="45.67955" lon="6.74184">
        <ele>1518.7</ele>
        <time>2020-08-07T08:55:49Z</time>
      </trkpt>
      <trkpt lat="45.67959" lon="6.7418">
        <ele>1519.2</ele>
        <time>2020-08-07T08:55:52Z</time>
      </trkpt>
      <trkpt lat="45.67962" lon="6.74176">
        <ele>1519.5</ele>
        <time>2020-08-07T08:55:53Z</time>
      </trkpt>
      <trkpt lat="45.67966" lon="6.74171">
        <ele>1520</ele>
        <time>2020-08-07T08:55:54Z</time>
      </trkpt>
      <trkpt lat="45.67971" lon="6.74166">
        <ele>1520.5</ele>
        <time>2020-08-07T08:55:55Z</time>
      </trkpt>
      <trkpt lat="45.67979" lon="6.74155">
        <ele>1521.5</ele>
        <time>2020-08-07T08:55:58Z</time>
      </trkpt>
      <trkpt lat="45.67983" lon="6.74151">
        <ele>1521.8</ele>
        <time>2020-08-07T08:56:00Z</time>
      </trkpt>
      <trkpt lat="45.67986" lon="6.74147">
        <ele>1522.2</ele>
        <time>2020-08-07T08:56:02Z</time>
      </trkpt>
      <trkpt lat="45.67989" lon="6.74144">
        <ele>1522.5</ele>
        <time>2020-08-07T08:56:03Z</time>
      </trkpt>
      <trkpt lat="45.67996" lon="6.74135">
        <ele>1523.2</ele>
        <time>2020-08-07T08:56:04Z</time>
      </trkpt>
      <trkpt lat="45.68" lon="6.7413">
        <ele>1523.7</ele>
        <time>2020-08-07T08:56:06Z</time>
      </trkpt>
      <trkpt lat="45.68007" lon="6.74123">
        <ele>1524.4</ele>
        <time>2020-08-07T08:56:08Z</time>
      </trkpt>
      <trkpt lat="45.6801" lon="6.74119">
        <ele>1524.8</ele>
        <time>2020-08-07T08:56:10Z</time>
      </trkpt>
      <trkpt lat="45.68017" lon="6.74109">
        <ele>1525.8</ele>
        <time>2020-08-07T08:56:12Z</time>
      </trkpt>
      <trkpt lat="45.68022" lon="6.74104">
        <ele>1526.4</ele>
        <time>2020-08-07T08:56:15Z</time>
      </trkpt>
      <trkpt lat="45.68031" lon="6.74094">
        <ele>1527.6</ele>
        <time>2020-08-07T08:56:17Z</time>
      </trkpt>
      <trkpt lat="45.68034" lon="6.7409">
        <ele>1528</ele>
        <time>2020-08-07T08:56:18Z</time>
      </trkpt>
      <trkpt lat="45.68039" lon="6.74085">
        <ele>1528.7</ele>
        <time>2020-08-07T08:56:21Z</time>
      </trkpt>
      <trkpt lat="45.68044" lon="6.7408">
        <ele>1529.4</ele>
        <time>2020-08-07T08:56:23Z</time>
      </trkpt>
      <trkpt lat="45.68048" lon="6.74075">
        <ele>1530</ele>
        <time>2020-08-07T08:56:24Z</time>
      </trkpt>
      <trkpt lat="45.68051" lon="6.74072">
        <ele>1530.5</ele>
        <time>2020-08-07T08:56:26Z</time>
      </trkpt>
      <trkpt lat="45.6806" lon="6.74063">
        <ele>1531.7</ele>
        <time>2020-08-07T08:56:28Z</time>
      </trkpt>
      <trkpt lat="45.68066" lon="6.74057">
        <ele>1532.6</ele>
        <time>2020-08-07T08:56:31Z</time>
      </trkpt>
      <trkpt lat="45.68068" lon="6.74055">
        <ele>1533</ele>
        <time>2020-08-07T08:56:33Z</time>
      </trkpt>
      <trkpt lat="45.68076" lon="6.74048">
        <ele>1534</ele>
        <time>2020-08-07T08:56:35Z</time>
      </trkpt>
      <trkpt lat="45.68084" lon="6.74039">
        <ele>1534.5</ele>
        <time>2020-08-07T08:56:38Z</time>
      </trkpt>
      <trkpt lat="45.6809" lon="6.74032">
        <ele>1534.8</ele>
        <time>2020-08-07T08:56:41Z</time>
      </trkpt>
      <trkpt lat="45.68093" lon="6.74029">
        <ele>1534.9</ele>
        <time>2020-08-07T08:56:42Z</time>
      </trkpt>
      <trkpt lat="45.68095" lon="6.74026">
        <ele>1535</ele>
        <time>2020-08-07T08:56:44Z</time>
      </trkpt>
      <trkpt lat="45.68098" lon="6.74023">
        <ele>1535.2</ele>
        <time>2020-08-07T08:56:45Z</time>
      </trkpt>
      <trkpt lat="45.68103" lon="6.74018">
        <ele>1535.3</ele>
        <time>2020-08-07T08:56:46Z</time>
      </trkpt>
      <trkpt lat="45.68106" lon="6.74014">
        <ele>1535.5</ele>
        <time>2020-08-07T08:56:48Z</time>
      </trkpt>
      <trkpt lat="45.68111" lon="6.74008">
        <ele>1535.7</ele>
        <time>2020-08-07T08:56:49Z</time>
      </trkpt>
      <trkpt lat="45.68114" lon="6.74004">
        <ele>1535.9</ele>
        <time>2020-08-07T08:56:51Z</time>
      </trkpt>
      <trkpt lat="45.68117" lon="6.74001">
        <ele>1536</ele>
        <time>2020-08-07T08:56:52Z</time>
      </trkpt>
      <trkpt lat="45.68122" lon="6.73996">
        <ele>1536.3</ele>
        <time>2020-08-07T08:56:53Z</time>
      </trkpt>
      <trkpt lat="45.68131" lon="6.73989">
        <ele>1536.7</ele>
        <time>2020-08-07T08:56:55Z</time>
      </trkpt>
      <trkpt lat="45.68135" lon="6.73987">
        <ele>1536.8</ele>
        <time>2020-08-07T08:56:57Z</time>
      </trkpt>
      <trkpt lat="45.68139" lon="6.73984">
        <ele>1536.8</ele>
        <time>2020-08-07T08:56:59Z</time>
      </trkpt>
      <trkpt lat="45.68142" lon="6.73982">
        <ele>1536.3</ele>
        <time>2020-08-07T08:57:00Z</time>
      </trkpt>
      <trkpt lat="45.68148" lon="6.73979">
        <ele>1534.7</ele>
        <time>2020-08-07T08:57:02Z</time>
      </trkpt>
      <trkpt lat="45.68154" lon="6.73977">
        <ele>1534.7</ele>
        <time>2020-08-07T08:57:03Z</time>
      </trkpt>
      <trkpt lat="45.68158" lon="6.73975">
        <ele>1534.7</ele>
        <time>2020-08-07T08:57:05Z</time>
      </trkpt>
      <trkpt lat="45.68165" lon="6.73971">
        <ele>1534.8</ele>
        <time>2020-08-07T08:57:06Z</time>
      </trkpt>
      <trkpt lat="45.68169" lon="6.73969">
        <ele>1534.9</ele>
        <time>2020-08-07T08:57:07Z</time>
      </trkpt>
      <trkpt lat="45.68173" lon="6.73967">
        <ele>1534.9</ele>
        <time>2020-08-07T08:57:10Z</time>
      </trkpt>
      <trkpt lat="45.68177" lon="6.73965">
        <ele>1535</ele>
        <time>2020-08-07T08:57:11Z</time>
      </trkpt>
      <trkpt lat="45.6818" lon="6.73964">
        <ele>1535.1</ele>
        <time>2020-08-07T08:57:12Z</time>
      </trkpt>
      <trkpt lat="45.68188" lon="6.7396">
        <ele>1535.3</ele>
        <time>2020-08-07T08:57:13Z</time>
      </trkpt>
      <trkpt lat="45.68192" lon="6.73957">
        <ele>1535.4</ele>
        <time>2020-08-07T08:57:15Z</time>
      </trkpt>
      <trkpt lat="45.68198" lon="6.73954">
        <ele>1535.6</ele>
        <time>2020-08-07T08:57:17Z</time>
      </trkpt>
      <trkpt lat="45.68201" lon="6.73952">
        <ele>1535.6</ele>
        <time>2020-08-07T08:57:18Z</time>
      </trkpt>
      <trkpt lat="45.68206" lon="6.73949">
        <ele>1535.8</ele>
        <time>2020-08-07T08:57:19Z</time>
      </trkpt>
      <trkpt lat="45.68211" lon="6.73944">
        <ele>1535.8</ele>
        <time>2020-08-07T08:57:21Z</time>
      </trkpt>
      <trkpt lat="45.68214" lon="6.73941">
        <ele>1535.9</ele>
        <time>2020-08-07T08:57:23Z</time>
      </trkpt>
      <trkpt lat="45.68217" lon="6.73938">
        <ele>1535.9</ele>
        <time>2020-08-07T08:57:24Z</time>
      </trkpt>
      <trkpt lat="45.68221" lon="6.73932">
        <ele>1535.9</ele>
        <time>2020-08-07T08:57:25Z</time>
      </trkpt>
      <trkpt lat="45.68225" lon="6.73927">
        <ele>1536</ele>
        <time>2020-08-07T08:57:27Z</time>
      </trkpt>
      <trkpt lat="45.6823" lon="6.73917">
        <ele>1535.9</ele>
        <time>2020-08-07T08:57:28Z</time>
      </trkpt>
      <trkpt lat="45.68233" lon="6.73911">
        <ele>1535.9</ele>
        <time>2020-08-07T08:57:31Z</time>
      </trkpt>
      <trkpt lat="45.68239" lon="6.739">
        <ele>1535.9</ele>
        <time>2020-08-07T08:57:32Z</time>
      </trkpt>
      <trkpt lat="45.68242" lon="6.73894">
        <ele>1535.9</ele>
        <time>2020-08-07T08:57:34Z</time>
      </trkpt>
      <trkpt lat="45.68245" lon="6.73887">
        <ele>1535.8</ele>
        <time>2020-08-07T08:57:36Z</time>
      </trkpt>
      <trkpt lat="45.68249" lon="6.73881">
        <ele>1535.8</ele>
        <time>2020-08-07T08:57:37Z</time>
      </trkpt>
      <trkpt lat="45.68255" lon="6.7387">
        <ele>1535.6</ele>
        <time>2020-08-07T08:57:39Z</time>
      </trkpt>
      <trkpt lat="45.68261" lon="6.73859">
        <ele>1535.4</ele>
        <time>2020-08-07T08:57:41Z</time>
      </trkpt>
      <trkpt lat="45.68267" lon="6.73848">
        <ele>1535.2</ele>
        <time>2020-08-07T08:57:43Z</time>
      </trkpt>
      <trkpt lat="45.6827" lon="6.73843">
        <ele>1535.1</ele>
        <time>2020-08-07T08:57:44Z</time>
      </trkpt>
      <trkpt lat="45.68276" lon="6.73831">
        <ele>1534.9</ele>
        <time>2020-08-07T08:57:46Z</time>
      </trkpt>
      <trkpt lat="45.68282" lon="6.7382">
        <ele>1534.6</ele>
        <time>2020-08-07T08:57:48Z</time>
      </trkpt>
      <trkpt lat="45.68285" lon="6.73814">
        <ele>1534.4</ele>
        <time>2020-08-07T08:57:49Z</time>
      </trkpt>
      <trkpt lat="45.68289" lon="6.73808">
        <ele>1534.3</ele>
        <time>2020-08-07T08:57:50Z</time>
      </trkpt>
      <trkpt lat="45.68296" lon="6.73796">
        <ele>1533.9</ele>
        <time>2020-08-07T08:57:52Z</time>
      </trkpt>
      <trkpt lat="45.683" lon="6.73791">
        <ele>1533.8</ele>
        <time>2020-08-07T08:57:53Z</time>
      </trkpt>
      <trkpt lat="45.68305" lon="6.73785">
        <ele>1533.6</ele>
        <time>2020-08-07T08:57:54Z</time>
      </trkpt>
      <trkpt lat="45.68315" lon="6.73776">
        <ele>1533.2</ele>
        <time>2020-08-07T08:57:56Z</time>
      </trkpt>
      <trkpt lat="45.6832" lon="6.73772">
        <ele>1533</ele>
        <time>2020-08-07T08:57:57Z</time>
      </trkpt>
      <trkpt lat="45.68325" lon="6.73768">
        <ele>1532.8</ele>
        <time>2020-08-07T08:57:58Z</time>
      </trkpt>
      <trkpt lat="45.68337" lon="6.73762">
        <ele>1532.4</ele>
        <time>2020-08-07T08:58:00Z</time>
      </trkpt>
      <trkpt lat="45.68349" lon="6.73757">
        <ele>1532</ele>
        <time>2020-08-07T08:58:02Z</time>
      </trkpt>
      <trkpt lat="45.68362" lon="6.73754">
        <ele>1531.7</ele>
        <time>2020-08-07T08:58:04Z</time>
      </trkpt>
      <trkpt lat="45.68374" lon="6.7375">
        <ele>1531.5</ele>
        <time>2020-08-07T08:58:06Z</time>
      </trkpt>
      <trkpt lat="45.6838" lon="6.73749">
        <ele>1531.4</ele>
        <time>2020-08-07T08:58:07Z</time>
      </trkpt>
      <trkpt lat="45.68387" lon="6.73747">
        <ele>1531.2</ele>
        <time>2020-08-07T08:58:08Z</time>
      </trkpt>
      <trkpt lat="45.68399" lon="6.73743">
        <ele>1531.1</ele>
        <time>2020-08-07T08:58:10Z</time>
      </trkpt>
      <trkpt lat="45.68412" lon="6.7374">
        <ele>1531</ele>
        <time>2020-08-07T08:58:12Z</time>
      </trkpt>
      <trkpt lat="45.68424" lon="6.73736">
        <ele>1530.8</ele>
        <time>2020-08-07T08:58:14Z</time>
      </trkpt>
      <trkpt lat="45.6843" lon="6.73734">
        <ele>1530.7</ele>
        <time>2020-08-07T08:58:15Z</time>
      </trkpt>
      <trkpt lat="45.68436" lon="6.73732">
        <ele>1530.6</ele>
        <time>2020-08-07T08:58:16Z</time>
      </trkpt>
      <trkpt lat="45.68447" lon="6.73728">
        <ele>1530.4</ele>
        <time>2020-08-07T08:58:18Z</time>
      </trkpt>
      <trkpt lat="45.68453" lon="6.73726">
        <ele>1530.3</ele>
        <time>2020-08-07T08:58:19Z</time>
      </trkpt>
      <trkpt lat="45.68464" lon="6.73719">
        <ele>1530.2</ele>
        <time>2020-08-07T08:58:21Z</time>
      </trkpt>
      <trkpt lat="45.68476" lon="6.73712">
        <ele>1529.9</ele>
        <time>2020-08-07T08:58:23Z</time>
      </trkpt>
      <trkpt lat="45.68487" lon="6.73704">
        <ele>1529.7</ele>
        <time>2020-08-07T08:58:25Z</time>
      </trkpt>
      <trkpt lat="45.68493" lon="6.737">
        <ele>1529.7</ele>
        <time>2020-08-07T08:58:26Z</time>
      </trkpt>
      <trkpt lat="45.68504" lon="6.73691">
        <ele>1529.4</ele>
        <time>2020-08-07T08:58:28Z</time>
      </trkpt>
      <trkpt lat="45.68513" lon="6.7368">
        <ele>1528.6</ele>
        <time>2020-08-07T08:58:30Z</time>
      </trkpt>
      <trkpt lat="45.68522" lon="6.73668">
        <ele>1528.4</ele>
        <time>2020-08-07T08:58:32Z</time>
      </trkpt>
      <trkpt lat="45.68529" lon="6.73656">
        <ele>1529</ele>
        <time>2020-08-07T08:58:34Z</time>
      </trkpt>
      <trkpt lat="45.68537" lon="6.73643">
        <ele>1529.7</ele>
        <time>2020-08-07T08:58:36Z</time>
      </trkpt>
      <trkpt lat="45.68544" lon="6.73631">
        <ele>1530.4</ele>
        <time>2020-08-07T08:58:38Z</time>
      </trkpt>
      <trkpt lat="45.68548" lon="6.73625">
        <ele>1530.8</ele>
        <time>2020-08-07T08:58:39Z</time>
      </trkpt>
      <trkpt lat="45.68555" lon="6.73613">
        <ele>1531.5</ele>
        <time>2020-08-07T08:58:41Z</time>
      </trkpt>
      <trkpt lat="45.68558" lon="6.73606">
        <ele>1531.9</ele>
        <time>2020-08-07T08:58:42Z</time>
      </trkpt>
      <trkpt lat="45.68561" lon="6.73599">
        <ele>1532.3</ele>
        <time>2020-08-07T08:58:43Z</time>
      </trkpt>
      <trkpt lat="45.68567" lon="6.73586">
        <ele>1533</ele>
        <time>2020-08-07T08:58:45Z</time>
      </trkpt>
      <trkpt lat="45.68573" lon="6.73572">
        <ele>1533.9</ele>
        <time>2020-08-07T08:58:47Z</time>
      </trkpt>
      <trkpt lat="45.68578" lon="6.73558">
        <ele>1534.8</ele>
        <time>2020-08-07T08:58:49Z</time>
      </trkpt>
      <trkpt lat="45.6858" lon="6.73552">
        <ele>1535.2</ele>
        <time>2020-08-07T08:58:50Z</time>
      </trkpt>
      <trkpt lat="45.68584" lon="6.73538">
        <ele>1536</ele>
        <time>2020-08-07T08:58:52Z</time>
      </trkpt>
      <trkpt lat="45.68586" lon="6.73531">
        <ele>1536.4</ele>
        <time>2020-08-07T08:58:53Z</time>
      </trkpt>
      <trkpt lat="45.68588" lon="6.73518">
        <ele>1537.2</ele>
        <time>2020-08-07T08:58:55Z</time>
      </trkpt>
      <trkpt lat="45.68588" lon="6.73505">
        <ele>1538</ele>
        <time>2020-08-07T08:58:57Z</time>
      </trkpt>
      <trkpt lat="45.68589" lon="6.73498">
        <ele>1538.4</ele>
        <time>2020-08-07T08:58:58Z</time>
      </trkpt>
      <trkpt lat="45.68589" lon="6.73491">
        <ele>1538.8</ele>
        <time>2020-08-07T08:58:59Z</time>
      </trkpt>
      <trkpt lat="45.68589" lon="6.73478">
        <ele>1539.6</ele>
        <time>2020-08-07T08:59:01Z</time>
      </trkpt>
      <trkpt lat="45.68589" lon="6.73471">
        <ele>1540.1</ele>
        <time>2020-08-07T08:59:02Z</time>
      </trkpt>
      <trkpt lat="45.68589" lon="6.73465">
        <ele>1540.5</ele>
        <time>2020-08-07T08:59:03Z</time>
      </trkpt>
      <trkpt lat="45.68589" lon="6.73458">
        <ele>1540.9</ele>
        <time>2020-08-07T08:59:04Z</time>
      </trkpt>
      <trkpt lat="45.68589" lon="6.73444">
        <ele>1541.9</ele>
        <time>2020-08-07T08:59:06Z</time>
      </trkpt>
      <trkpt lat="45.68589" lon="6.73437">
        <ele>1542.4</ele>
        <time>2020-08-07T08:59:07Z</time>
      </trkpt>
      <trkpt lat="45.6859" lon="6.73424">
        <ele>1543.4</ele>
        <time>2020-08-07T08:59:09Z</time>
      </trkpt>
      <trkpt lat="45.6859" lon="6.73417">
        <ele>1542.4</ele>
        <time>2020-08-07T08:59:10Z</time>
      </trkpt>
      <trkpt lat="45.68592" lon="6.73402">
        <ele>1539.4</ele>
        <time>2020-08-07T08:59:12Z</time>
      </trkpt>
      <trkpt lat="45.68595" lon="6.73389">
        <ele>1540.1</ele>
        <time>2020-08-07T08:59:14Z</time>
      </trkpt>
      <trkpt lat="45.68596" lon="6.73383">
        <ele>1540.5</ele>
        <time>2020-08-07T08:59:15Z</time>
      </trkpt>
      <trkpt lat="45.68598" lon="6.73377">
        <ele>1540.8</ele>
        <time>2020-08-07T08:59:16Z</time>
      </trkpt>
      <trkpt lat="45.68599" lon="6.73373">
        <ele>1541.1</ele>
        <time>2020-08-07T08:59:17Z</time>
      </trkpt>
      <trkpt lat="45.68603" lon="6.73364">
        <ele>1541.7</ele>
        <time>2020-08-07T08:59:19Z</time>
      </trkpt>
      <trkpt lat="45.68606" lon="6.7336">
        <ele>1542</ele>
        <time>2020-08-07T08:59:20Z</time>
      </trkpt>
      <trkpt lat="45.68614" lon="6.73348">
        <ele>1543</ele>
        <time>2020-08-07T08:59:22Z</time>
      </trkpt>
      <trkpt lat="45.68617" lon="6.73345">
        <ele>1543.4</ele>
        <time>2020-08-07T08:59:23Z</time>
      </trkpt>
      <trkpt lat="45.68621" lon="6.73341">
        <ele>1543.7</ele>
        <time>2020-08-07T08:59:24Z</time>
      </trkpt>
      <trkpt lat="45.68624" lon="6.73337">
        <ele>1544.1</ele>
        <time>2020-08-07T08:59:26Z</time>
      </trkpt>
      <trkpt lat="45.68627" lon="6.73333">
        <ele>1544.4</ele>
        <time>2020-08-07T08:59:27Z</time>
      </trkpt>
      <trkpt lat="45.68631" lon="6.7333">
        <ele>1544.8</ele>
        <time>2020-08-07T08:59:28Z</time>
      </trkpt>
      <trkpt lat="45.68636" lon="6.73327">
        <ele>1545.2</ele>
        <time>2020-08-07T08:59:30Z</time>
      </trkpt>
      <trkpt lat="45.68641" lon="6.73324">
        <ele>1545.6</ele>
        <time>2020-08-07T08:59:31Z</time>
      </trkpt>
      <trkpt lat="45.68645" lon="6.73321">
        <ele>1545.9</ele>
        <time>2020-08-07T08:59:33Z</time>
      </trkpt>
      <trkpt lat="45.68649" lon="6.73319">
        <ele>1546.2</ele>
        <time>2020-08-07T08:59:35Z</time>
      </trkpt>
      <trkpt lat="45.68657" lon="6.73316">
        <ele>1546.7</ele>
        <time>2020-08-07T08:59:36Z</time>
      </trkpt>
      <trkpt lat="45.68665" lon="6.73315">
        <ele>1547.2</ele>
        <time>2020-08-07T08:59:39Z</time>
      </trkpt>
      <trkpt lat="45.68667" lon="6.73314">
        <ele>1547.4</ele>
        <time>2020-08-07T08:59:40Z</time>
      </trkpt>
      <trkpt lat="45.68671" lon="6.73313">
        <ele>1547.6</ele>
        <time>2020-08-07T08:59:41Z</time>
      </trkpt>
      <trkpt lat="45.68675" lon="6.73312">
        <ele>1547.8</ele>
        <time>2020-08-07T08:59:43Z</time>
      </trkpt>
      <trkpt lat="45.68681" lon="6.73311">
        <ele>1548.2</ele>
        <time>2020-08-07T08:59:45Z</time>
      </trkpt>
      <trkpt lat="45.68684" lon="6.73311">
        <ele>1548.4</ele>
        <time>2020-08-07T08:59:46Z</time>
      </trkpt>
      <trkpt lat="45.68688" lon="6.7331">
        <ele>1548.7</ele>
        <time>2020-08-07T08:59:49Z</time>
      </trkpt>
      <trkpt lat="45.68695" lon="6.73307">
        <ele>1549.1</ele>
        <time>2020-08-07T08:59:51Z</time>
      </trkpt>
      <trkpt lat="45.68699" lon="6.73306">
        <ele>1549.4</ele>
        <time>2020-08-07T08:59:53Z</time>
      </trkpt>
      <trkpt lat="45.68703" lon="6.73305">
        <ele>1549.7</ele>
        <time>2020-08-07T08:59:55Z</time>
      </trkpt>
      <trkpt lat="45.68708" lon="6.73304">
        <ele>1550</ele>
        <time>2020-08-07T08:59:56Z</time>
      </trkpt>
      <trkpt lat="45.68711" lon="6.73303">
        <ele>1550.3</ele>
        <time>2020-08-07T08:59:57Z</time>
      </trkpt>
      <trkpt lat="45.68713" lon="6.73302">
        <ele>1550.5</ele>
        <time>2020-08-07T08:59:58Z</time>
      </trkpt>
      <trkpt lat="45.6872" lon="6.73301">
        <ele>1551</ele>
        <time>2020-08-07T09:00:00Z</time>
      </trkpt>
      <trkpt lat="45.68727" lon="6.73299">
        <ele>1551.5</ele>
        <time>2020-08-07T09:00:03Z</time>
      </trkpt>
      <trkpt lat="45.6873" lon="6.73298">
        <ele>1551.8</ele>
        <time>2020-08-07T09:00:05Z</time>
      </trkpt>
      <trkpt lat="45.68733" lon="6.73298">
        <ele>1552</ele>
        <time>2020-08-07T09:00:06Z</time>
      </trkpt>
      <trkpt lat="45.68736" lon="6.73298">
        <ele>1552.2</ele>
        <time>2020-08-07T09:00:07Z</time>
      </trkpt>
      <trkpt lat="45.68739" lon="6.73297">
        <ele>1552.5</ele>
        <time>2020-08-07T09:00:08Z</time>
      </trkpt>
      <trkpt lat="45.68744" lon="6.73295">
        <ele>1552.9</ele>
        <time>2020-08-07T09:00:10Z</time>
      </trkpt>
      <trkpt lat="45.68746" lon="6.73294">
        <ele>1553</ele>
        <time>2020-08-07T09:00:11Z</time>
      </trkpt>
      <trkpt lat="45.68748" lon="6.73293">
        <ele>1553.1</ele>
        <time>2020-08-07T09:00:12Z</time>
      </trkpt>
      <trkpt lat="45.68754" lon="6.73292">
        <ele>1553.7</ele>
        <time>2020-08-07T09:00:15Z</time>
      </trkpt>
      <trkpt lat="45.68756" lon="6.73291">
        <ele>1553.8</ele>
        <time>2020-08-07T09:00:16Z</time>
      </trkpt>
      <trkpt lat="45.68759" lon="6.7329">
        <ele>1554</ele>
        <time>2020-08-07T09:00:17Z</time>
      </trkpt>
      <trkpt lat="45.68765" lon="6.73288">
        <ele>1554.5</ele>
        <time>2020-08-07T09:00:19Z</time>
      </trkpt>
      <trkpt lat="45.68769" lon="6.73287">
        <ele>1554.8</ele>
        <time>2020-08-07T09:00:21Z</time>
      </trkpt>
      <trkpt lat="45.68773" lon="6.73286">
        <ele>1555.1</ele>
        <time>2020-08-07T09:00:23Z</time>
      </trkpt>
      <trkpt lat="45.68777" lon="6.73285">
        <ele>1555.5</ele>
        <time>2020-08-07T09:00:24Z</time>
      </trkpt>
      <trkpt lat="45.6878" lon="6.73284">
        <ele>1555.8</ele>
        <time>2020-08-07T09:00:26Z</time>
      </trkpt>
      <trkpt lat="45.68787" lon="6.73283">
        <ele>1556.4</ele>
        <time>2020-08-07T09:00:27Z</time>
      </trkpt>
      <trkpt lat="45.68791" lon="6.73282">
        <ele>1556.7</ele>
        <time>2020-08-07T09:00:29Z</time>
      </trkpt>
      <trkpt lat="45.68795" lon="6.73282">
        <ele>1557.1</ele>
        <time>2020-08-07T09:00:31Z</time>
      </trkpt>
      <trkpt lat="45.68798" lon="6.73282">
        <ele>1557.3</ele>
        <time>2020-08-07T09:00:32Z</time>
      </trkpt>
      <trkpt lat="45.68802" lon="6.73282">
        <ele>1557.7</ele>
        <time>2020-08-07T09:00:33Z</time>
      </trkpt>
      <trkpt lat="45.68809" lon="6.73282">
        <ele>1558.2</ele>
        <time>2020-08-07T09:00:36Z</time>
      </trkpt>
      <trkpt lat="45.68812" lon="6.73283">
        <ele>1558.5</ele>
        <time>2020-08-07T09:00:37Z</time>
      </trkpt>
      <trkpt lat="45.68815" lon="6.73283">
        <ele>1558.8</ele>
        <time>2020-08-07T09:00:38Z</time>
      </trkpt>
      <trkpt lat="45.68818" lon="6.73284">
        <ele>1559</ele>
        <time>2020-08-07T09:00:40Z</time>
      </trkpt>
      <trkpt lat="45.68823" lon="6.73286">
        <ele>1559.4</ele>
        <time>2020-08-07T09:00:41Z</time>
      </trkpt>
      <trkpt lat="45.68829" lon="6.73289">
        <ele>1559.9</ele>
        <time>2020-08-07T09:00:44Z</time>
      </trkpt>
      <trkpt lat="45.68831" lon="6.7329">
        <ele>1560.1</ele>
        <time>2020-08-07T09:00:45Z</time>
      </trkpt>
      <trkpt lat="45.68834" lon="6.7329">
        <ele>1560.3</ele>
        <time>2020-08-07T09:00:46Z</time>
      </trkpt>
      <trkpt lat="45.68839" lon="6.73293">
        <ele>1560.8</ele>
        <time>2020-08-07T09:00:48Z</time>
      </trkpt>
      <trkpt lat="45.68842" lon="6.73294">
        <ele>1561</ele>
        <time>2020-08-07T09:00:49Z</time>
      </trkpt>
      <trkpt lat="45.68847" lon="6.73296">
        <ele>1561.5</ele>
        <time>2020-08-07T09:00:51Z</time>
      </trkpt>
      <trkpt lat="45.6885" lon="6.73297">
        <ele>1561.7</ele>
        <time>2020-08-07T09:00:53Z</time>
      </trkpt>
      <trkpt lat="45.68852" lon="6.73298">
        <ele>1562</ele>
        <time>2020-08-07T09:00:54Z</time>
      </trkpt>
      <trkpt lat="45.68858" lon="6.73299">
        <ele>1562.5</ele>
        <time>2020-08-07T09:00:56Z</time>
      </trkpt>
      <trkpt lat="45.68863" lon="6.73302">
        <ele>1562.9</ele>
        <time>2020-08-07T09:00:57Z</time>
      </trkpt>
      <trkpt lat="45.68866" lon="6.73303">
        <ele>1563.3</ele>
        <time>2020-08-07T09:00:59Z</time>
      </trkpt>
      <trkpt lat="45.68869" lon="6.73305">
        <ele>1563.6</ele>
        <time>2020-08-07T09:01:01Z</time>
      </trkpt>
      <trkpt lat="45.68872" lon="6.73306">
        <ele>1563.9</ele>
        <time>2020-08-07T09:01:02Z</time>
      </trkpt>
      <trkpt lat="45.68877" lon="6.73308">
        <ele>1564.4</ele>
        <time>2020-08-07T09:01:03Z</time>
      </trkpt>
      <trkpt lat="45.68879" lon="6.73309">
        <ele>1564.6</ele>
        <time>2020-08-07T09:01:04Z</time>
      </trkpt>
      <trkpt lat="45.68884" lon="6.73311">
        <ele>1565.1</ele>
        <time>2020-08-07T09:01:05Z</time>
      </trkpt>
      <trkpt lat="45.68888" lon="6.73311">
        <ele>1565.5</ele>
        <time>2020-08-07T09:01:07Z</time>
      </trkpt>
      <trkpt lat="45.6889" lon="6.73311">
        <ele>1565.7</ele>
        <time>2020-08-07T09:01:09Z</time>
      </trkpt>
      <trkpt lat="45.68892" lon="6.73312">
        <ele>1565.9</ele>
        <time>2020-08-07T09:01:10Z</time>
      </trkpt>
      <trkpt lat="45.68896" lon="6.73312">
        <ele>1566.3</ele>
        <time>2020-08-07T09:01:11Z</time>
      </trkpt>
      <trkpt lat="45.68899" lon="6.73311">
        <ele>1566.6</ele>
        <time>2020-08-07T09:01:13Z</time>
      </trkpt>
      <trkpt lat="45.68905" lon="6.73311">
        <ele>1567</ele>
        <time>2020-08-07T09:01:14Z</time>
      </trkpt>
      <trkpt lat="45.6891" lon="6.73311">
        <ele>1567.4</ele>
        <time>2020-08-07T09:01:16Z</time>
      </trkpt>
      <trkpt lat="45.68913" lon="6.7331">
        <ele>1567.7</ele>
        <time>2020-08-07T09:01:17Z</time>
      </trkpt>
      <trkpt lat="45.68916" lon="6.73309">
        <ele>1568</ele>
        <time>2020-08-07T09:01:18Z</time>
      </trkpt>
      <trkpt lat="45.68923" lon="6.73307">
        <ele>1568.6</ele>
        <time>2020-08-07T09:01:21Z</time>
      </trkpt>
      <trkpt lat="45.68927" lon="6.73307">
        <ele>1568.8</ele>
        <time>2020-08-07T09:01:23Z</time>
      </trkpt>
      <trkpt lat="45.68933" lon="6.73306">
        <ele>1569.3</ele>
        <time>2020-08-07T09:01:25Z</time>
      </trkpt>
      <trkpt lat="45.68937" lon="6.73306">
        <ele>1569.6</ele>
        <time>2020-08-07T09:01:27Z</time>
      </trkpt>
      <trkpt lat="45.68941" lon="6.73305">
        <ele>1569.8</ele>
        <time>2020-08-07T09:01:29Z</time>
      </trkpt>
      <trkpt lat="45.68945" lon="6.73304">
        <ele>1570.2</ele>
        <time>2020-08-07T09:01:30Z</time>
      </trkpt>
      <trkpt lat="45.6895" lon="6.73303">
        <ele>1570.5</ele>
        <time>2020-08-07T09:01:31Z</time>
      </trkpt>
      <trkpt lat="45.68954" lon="6.73302">
        <ele>1570.7</ele>
        <time>2020-08-07T09:01:32Z</time>
      </trkpt>
      <trkpt lat="45.68961" lon="6.73299">
        <ele>1571.3</ele>
        <time>2020-08-07T09:01:35Z</time>
      </trkpt>
      <trkpt lat="45.68963" lon="6.73298">
        <ele>1571.4</ele>
        <time>2020-08-07T09:01:36Z</time>
      </trkpt>
      <trkpt lat="45.68967" lon="6.73297">
        <ele>1571.7</ele>
        <time>2020-08-07T09:01:38Z</time>
      </trkpt>
      <trkpt lat="45.68971" lon="6.73296">
        <ele>1572</ele>
        <time>2020-08-07T09:01:39Z</time>
      </trkpt>
      <trkpt lat="45.68975" lon="6.73296">
        <ele>1572.3</ele>
        <time>2020-08-07T09:01:41Z</time>
      </trkpt>
      <trkpt lat="45.68979" lon="6.73295">
        <ele>1572.6</ele>
        <time>2020-08-07T09:01:43Z</time>
      </trkpt>
      <trkpt lat="45.68984" lon="6.73294">
        <ele>1573</ele>
        <time>2020-08-07T09:01:44Z</time>
      </trkpt>
      <trkpt lat="45.68988" lon="6.73293">
        <ele>1573.3</ele>
        <time>2020-08-07T09:01:45Z</time>
      </trkpt>
      <trkpt lat="45.68994" lon="6.73293">
        <ele>1573.7</ele>
        <time>2020-08-07T09:01:47Z</time>
      </trkpt>
      <trkpt lat="45.68997" lon="6.73293">
        <ele>1573.9</ele>
        <time>2020-08-07T09:01:48Z</time>
      </trkpt>
      <trkpt lat="45.69001" lon="6.73293">
        <ele>1574.3</ele>
        <time>2020-08-07T09:01:50Z</time>
      </trkpt>
      <trkpt lat="45.69005" lon="6.73293">
        <ele>1574.5</ele>
        <time>2020-08-07T09:01:52Z</time>
      </trkpt>
      <trkpt lat="45.69011" lon="6.73291">
        <ele>1575</ele>
        <time>2020-08-07T09:01:54Z</time>
      </trkpt>
      <trkpt lat="45.69015" lon="6.7329">
        <ele>1575.3</ele>
        <time>2020-08-07T09:01:55Z</time>
      </trkpt>
      <trkpt lat="45.69018" lon="6.7329">
        <ele>1575.5</ele>
        <time>2020-08-07T09:01:57Z</time>
      </trkpt>
      <trkpt lat="45.69022" lon="6.73289">
        <ele>1575.8</ele>
        <time>2020-08-07T09:01:58Z</time>
      </trkpt>
      <trkpt lat="45.69027" lon="6.73286">
        <ele>1576.3</ele>
        <time>2020-08-07T09:02:00Z</time>
      </trkpt>
      <trkpt lat="45.69029" lon="6.73284">
        <ele>1576.5</ele>
        <time>2020-08-07T09:02:01Z</time>
      </trkpt>
      <trkpt lat="45.69031" lon="6.73283">
        <ele>1576.7</ele>
        <time>2020-08-07T09:02:02Z</time>
      </trkpt>
      <trkpt lat="45.69035" lon="6.73281">
        <ele>1576.9</ele>
        <time>2020-08-07T09:02:03Z</time>
      </trkpt>
      <trkpt lat="45.69038" lon="6.7328">
        <ele>1577.2</ele>
        <time>2020-08-07T09:02:04Z</time>
      </trkpt>
      <trkpt lat="45.69041" lon="6.73278">
        <ele>1577.5</ele>
        <time>2020-08-07T09:02:06Z</time>
      </trkpt>
      <trkpt lat="45.69044" lon="6.73277">
        <ele>1577.8</ele>
        <time>2020-08-07T09:02:08Z</time>
      </trkpt>
      <trkpt lat="45.69048" lon="6.73275">
        <ele>1578.1</ele>
        <time>2020-08-07T09:02:09Z</time>
      </trkpt>
      <trkpt lat="45.69051" lon="6.73273">
        <ele>1578.4</ele>
        <time>2020-08-07T09:02:10Z</time>
      </trkpt>
      <trkpt lat="45.69055" lon="6.73272">
        <ele>1578.7</ele>
        <time>2020-08-07T09:02:12Z</time>
      </trkpt>
      <trkpt lat="45.69056" lon="6.73271">
        <ele>1578.8</ele>
        <time>2020-08-07T09:02:13Z</time>
      </trkpt>
      <trkpt lat="45.6906" lon="6.7327">
        <ele>1579.2</ele>
        <time>2020-08-07T09:02:14Z</time>
      </trkpt>
      <trkpt lat="45.69064" lon="6.73271">
        <ele>1579.5</ele>
        <time>2020-08-07T09:02:15Z</time>
      </trkpt>
      <trkpt lat="45.69067" lon="6.7327">
        <ele>1579.8</ele>
        <time>2020-08-07T09:02:16Z</time>
      </trkpt>
      <trkpt lat="45.69074" lon="6.73268">
        <ele>1580.3</ele>
        <time>2020-08-07T09:02:19Z</time>
      </trkpt>
      <trkpt lat="45.6908" lon="6.73267">
        <ele>1580.8</ele>
        <time>2020-08-07T09:02:21Z</time>
      </trkpt>
      <trkpt lat="45.69083" lon="6.73266">
        <ele>1581</ele>
        <time>2020-08-07T09:02:22Z</time>
      </trkpt>
      <trkpt lat="45.6909" lon="6.73265">
        <ele>1581.7</ele>
        <time>2020-08-07T09:02:25Z</time>
      </trkpt>
      <trkpt lat="45.69098" lon="6.73264">
        <ele>1582.5</ele>
        <time>2020-08-07T09:02:28Z</time>
      </trkpt>
      <trkpt lat="45.69101" lon="6.73263">
        <ele>1582.8</ele>
        <time>2020-08-07T09:02:29Z</time>
      </trkpt>
      <trkpt lat="45.69105" lon="6.73263">
        <ele>1583.2</ele>
        <time>2020-08-07T09:02:32Z</time>
      </trkpt>
      <trkpt lat="45.6911" lon="6.73262">
        <ele>1583.7</ele>
        <time>2020-08-07T09:02:33Z</time>
      </trkpt>
      <trkpt lat="45.69113" lon="6.73262">
        <ele>1584</ele>
        <time>2020-08-07T09:02:35Z</time>
      </trkpt>
      <trkpt lat="45.69118" lon="6.73262">
        <ele>1584.4</ele>
        <time>2020-08-07T09:02:36Z</time>
      </trkpt>
      <trkpt lat="45.69124" lon="6.73263">
        <ele>1585.1</ele>
        <time>2020-08-07T09:02:38Z</time>
      </trkpt>
      <trkpt lat="45.69127" lon="6.73263">
        <ele>1585.4</ele>
        <time>2020-08-07T09:02:40Z</time>
      </trkpt>
      <trkpt lat="45.6913" lon="6.73263">
        <ele>1585.7</ele>
        <time>2020-08-07T09:02:41Z</time>
      </trkpt>
      <trkpt lat="45.69133" lon="6.73263">
        <ele>1586</ele>
        <time>2020-08-07T09:02:43Z</time>
      </trkpt>
      <trkpt lat="45.69136" lon="6.73263">
        <ele>1586.2</ele>
        <time>2020-08-07T09:02:44Z</time>
      </trkpt>
      <trkpt lat="45.69141" lon="6.73263">
        <ele>1586.7</ele>
        <time>2020-08-07T09:02:46Z</time>
      </trkpt>
      <trkpt lat="45.69146" lon="6.73263">
        <ele>1587.1</ele>
        <time>2020-08-07T09:02:47Z</time>
      </trkpt>
      <trkpt lat="45.6915" lon="6.73263">
        <ele>1587.4</ele>
        <time>2020-08-07T09:02:49Z</time>
      </trkpt>
      <trkpt lat="45.69155" lon="6.73263">
        <ele>1587.9</ele>
        <time>2020-08-07T09:02:51Z</time>
      </trkpt>
      <trkpt lat="45.69161" lon="6.73263">
        <ele>1588.3</ele>
        <time>2020-08-07T09:02:53Z</time>
      </trkpt>
      <trkpt lat="45.69167" lon="6.73262">
        <ele>1588.9</ele>
        <time>2020-08-07T09:02:55Z</time>
      </trkpt>
      <trkpt lat="45.69172" lon="6.73261">
        <ele>1589.3</ele>
        <time>2020-08-07T09:02:56Z</time>
      </trkpt>
      <trkpt lat="45.69176" lon="6.7326">
        <ele>1589.7</ele>
        <time>2020-08-07T09:02:58Z</time>
      </trkpt>
      <trkpt lat="45.69183" lon="6.73258">
        <ele>1590.2</ele>
        <time>2020-08-07T09:02:59Z</time>
      </trkpt>
      <trkpt lat="45.69187" lon="6.73258">
        <ele>1590.5</ele>
        <time>2020-08-07T09:03:01Z</time>
      </trkpt>
      <trkpt lat="45.69193" lon="6.73256">
        <ele>1591.1</ele>
        <time>2020-08-07T09:03:03Z</time>
      </trkpt>
      <trkpt lat="45.69197" lon="6.73256">
        <ele>1591.4</ele>
        <time>2020-08-07T09:03:04Z</time>
      </trkpt>
      <trkpt lat="45.69204" lon="6.73254">
        <ele>1592</ele>
        <time>2020-08-07T09:03:07Z</time>
      </trkpt>
      <trkpt lat="45.69207" lon="6.73254">
        <ele>1592.2</ele>
        <time>2020-08-07T09:03:08Z</time>
      </trkpt>
      <trkpt lat="45.69214" lon="6.73251">
        <ele>1592.7</ele>
        <time>2020-08-07T09:03:10Z</time>
      </trkpt>
      <trkpt lat="45.69218" lon="6.7325">
        <ele>1593.1</ele>
        <time>2020-08-07T09:03:11Z</time>
      </trkpt>
      <trkpt lat="45.69222" lon="6.73249">
        <ele>1593.4</ele>
        <time>2020-08-07T09:03:13Z</time>
      </trkpt>
      <trkpt lat="45.69228" lon="6.73247">
        <ele>1593.9</ele>
        <time>2020-08-07T09:03:15Z</time>
      </trkpt>
      <trkpt lat="45.69232" lon="6.73245">
        <ele>1594.1</ele>
        <time>2020-08-07T09:03:16Z</time>
      </trkpt>
      <trkpt lat="45.69236" lon="6.73245">
        <ele>1594.4</ele>
        <time>2020-08-07T09:03:18Z</time>
      </trkpt>
      <trkpt lat="45.69244" lon="6.73243">
        <ele>1595.1</ele>
        <time>2020-08-07T09:03:20Z</time>
      </trkpt>
      <trkpt lat="45.69251" lon="6.73242">
        <ele>1595.6</ele>
        <time>2020-08-07T09:03:23Z</time>
      </trkpt>
      <trkpt lat="45.69254" lon="6.73241">
        <ele>1595.9</ele>
        <time>2020-08-07T09:03:24Z</time>
      </trkpt>
      <trkpt lat="45.69261" lon="6.7324">
        <ele>1596.4</ele>
        <time>2020-08-07T09:03:27Z</time>
      </trkpt>
      <trkpt lat="45.69265" lon="6.73239">
        <ele>1596.6</ele>
        <time>2020-08-07T09:03:28Z</time>
      </trkpt>
      <trkpt lat="45.69268" lon="6.73239">
        <ele>1596.8</ele>
        <time>2020-08-07T09:03:29Z</time>
      </trkpt>
      <trkpt lat="45.69275" lon="6.73237">
        <ele>1597.4</ele>
        <time>2020-08-07T09:03:32Z</time>
      </trkpt>
      <trkpt lat="45.69277" lon="6.73237">
        <ele>1597.6</ele>
        <time>2020-08-07T09:03:33Z</time>
      </trkpt>
      <trkpt lat="45.6928" lon="6.73236">
        <ele>1597.8</ele>
        <time>2020-08-07T09:03:34Z</time>
      </trkpt>
      <trkpt lat="45.69286" lon="6.73233">
        <ele>1598.3</ele>
        <time>2020-08-07T09:03:36Z</time>
      </trkpt>
      <trkpt lat="45.69288" lon="6.73231">
        <ele>1598.6</ele>
        <time>2020-08-07T09:03:37Z</time>
      </trkpt>
      <trkpt lat="45.69294" lon="6.73227">
        <ele>1599.1</ele>
        <time>2020-08-07T09:03:39Z</time>
      </trkpt>
      <trkpt lat="45.69297" lon="6.73225">
        <ele>1599.4</ele>
        <time>2020-08-07T09:03:40Z</time>
      </trkpt>
      <trkpt lat="45.69305" lon="6.73221">
        <ele>1600.1</ele>
        <time>2020-08-07T09:03:42Z</time>
      </trkpt>
      <trkpt lat="45.69312" lon="6.73216">
        <ele>1600.7</ele>
        <time>2020-08-07T09:03:45Z</time>
      </trkpt>
      <trkpt lat="45.69315" lon="6.73215">
        <ele>1601</ele>
        <time>2020-08-07T09:03:46Z</time>
      </trkpt>
      <trkpt lat="45.6932" lon="6.73213">
        <ele>1601.4</ele>
        <time>2020-08-07T09:03:48Z</time>
      </trkpt>
      <trkpt lat="45.69323" lon="6.73211">
        <ele>1601.7</ele>
        <time>2020-08-07T09:03:49Z</time>
      </trkpt>
      <trkpt lat="45.69326" lon="6.73209">
        <ele>1602.1</ele>
        <time>2020-08-07T09:03:50Z</time>
      </trkpt>
      <trkpt lat="45.6933" lon="6.73207">
        <ele>1602.4</ele>
        <time>2020-08-07T09:03:51Z</time>
      </trkpt>
      <trkpt lat="45.69333" lon="6.73205">
        <ele>1602.7</ele>
        <time>2020-08-07T09:03:53Z</time>
      </trkpt>
      <trkpt lat="45.69336" lon="6.73202">
        <ele>1603</ele>
        <time>2020-08-07T09:03:55Z</time>
      </trkpt>
      <trkpt lat="45.69338" lon="6.73199">
        <ele>1603.2</ele>
        <time>2020-08-07T09:03:56Z</time>
      </trkpt>
      <trkpt lat="45.6934" lon="6.73195">
        <ele>1603.5</ele>
        <time>2020-08-07T09:03:57Z</time>
      </trkpt>
      <trkpt lat="45.69343" lon="6.73188">
        <ele>1603.8</ele>
        <time>2020-08-07T09:03:58Z</time>
      </trkpt>
      <trkpt lat="45.69344" lon="6.73183">
        <ele>1604</ele>
        <time>2020-08-07T09:04:00Z</time>
      </trkpt>
      <trkpt lat="45.69344" lon="6.73178">
        <ele>1604.2</ele>
        <time>2020-08-07T09:04:01Z</time>
      </trkpt>
      <trkpt lat="45.69343" lon="6.73165">
        <ele>1604.7</ele>
        <time>2020-08-07T09:04:02Z</time>
      </trkpt>
      <trkpt lat="45.69342" lon="6.73156">
        <ele>1605</ele>
        <time>2020-08-07T09:04:05Z</time>
      </trkpt>
      <trkpt lat="45.6934" lon="6.73147">
        <ele>1605.4</ele>
        <time>2020-08-07T09:04:06Z</time>
      </trkpt>
      <trkpt lat="45.69339" lon="6.73136">
        <ele>1605.8</ele>
        <time>2020-08-07T09:04:07Z</time>
      </trkpt>
      <trkpt lat="45.69339" lon="6.73131">
        <ele>1606.1</ele>
        <time>2020-08-07T09:04:08Z</time>
      </trkpt>
      <trkpt lat="45.69338" lon="6.73124">
        <ele>1606.4</ele>
        <time>2020-08-07T09:04:10Z</time>
      </trkpt>
      <trkpt lat="45.69337" lon="6.73116">
        <ele>1606.9</ele>
        <time>2020-08-07T09:04:12Z</time>
      </trkpt>
      <trkpt lat="45.69336" lon="6.73107">
        <ele>1607.5</ele>
        <time>2020-08-07T09:04:14Z</time>
      </trkpt>
      <trkpt lat="45.69336" lon="6.73098">
        <ele>1608</ele>
        <time>2020-08-07T09:04:15Z</time>
      </trkpt>
      <trkpt lat="45.69337" lon="6.73093">
        <ele>1608.3</ele>
        <time>2020-08-07T09:04:17Z</time>
      </trkpt>
      <trkpt lat="45.69337" lon="6.73089">
        <ele>1608.6</ele>
        <time>2020-08-07T09:04:18Z</time>
      </trkpt>
      <trkpt lat="45.69338" lon="6.73083">
        <ele>1609</ele>
        <time>2020-08-07T09:04:19Z</time>
      </trkpt>
      <trkpt lat="45.69339" lon="6.73079">
        <ele>1609.3</ele>
        <time>2020-08-07T09:04:21Z</time>
      </trkpt>
      <trkpt lat="45.6934" lon="6.73075">
        <ele>1609.5</ele>
        <time>2020-08-07T09:04:22Z</time>
      </trkpt>
      <trkpt lat="45.69341" lon="6.73069">
        <ele>1609.8</ele>
        <time>2020-08-07T09:04:23Z</time>
      </trkpt>
      <trkpt lat="45.69342" lon="6.73065">
        <ele>1610.1</ele>
        <time>2020-08-07T09:04:25Z</time>
      </trkpt>
      <trkpt lat="45.69343" lon="6.73058">
        <ele>1610.5</ele>
        <time>2020-08-07T09:04:26Z</time>
      </trkpt>
      <trkpt lat="45.69345" lon="6.7305">
        <ele>1611.1</ele>
        <time>2020-08-07T09:04:28Z</time>
      </trkpt>
      <trkpt lat="45.69346" lon="6.73045">
        <ele>1611.4</ele>
        <time>2020-08-07T09:04:29Z</time>
      </trkpt>
      <trkpt lat="45.69348" lon="6.73037">
        <ele>1612</ele>
        <time>2020-08-07T09:04:32Z</time>
      </trkpt>
      <trkpt lat="45.69348" lon="6.73033">
        <ele>1612.2</ele>
        <time>2020-08-07T09:04:33Z</time>
      </trkpt>
      <trkpt lat="45.69349" lon="6.73029">
        <ele>1612.5</ele>
        <time>2020-08-07T09:04:34Z</time>
      </trkpt>
      <trkpt lat="45.6935" lon="6.73024">
        <ele>1612.8</ele>
        <time>2020-08-07T09:04:36Z</time>
      </trkpt>
      <trkpt lat="45.6935" lon="6.7302">
        <ele>1613.1</ele>
        <time>2020-08-07T09:04:38Z</time>
      </trkpt>
      <trkpt lat="45.69351" lon="6.73014">
        <ele>1613.5</ele>
        <time>2020-08-07T09:04:39Z</time>
      </trkpt>
      <trkpt lat="45.69352" lon="6.73009">
        <ele>1613.8</ele>
        <time>2020-08-07T09:04:41Z</time>
      </trkpt>
      <trkpt lat="45.69353" lon="6.73003">
        <ele>1614.3</ele>
        <time>2020-08-07T09:04:42Z</time>
      </trkpt>
      <trkpt lat="45.69354" lon="6.72998">
        <ele>1614.6</ele>
        <time>2020-08-07T09:04:43Z</time>
      </trkpt>
      <trkpt lat="45.69355" lon="6.72993">
        <ele>1614.9</ele>
        <time>2020-08-07T09:04:44Z</time>
      </trkpt>
      <trkpt lat="45.69355" lon="6.72992">
        <ele>1615</ele>
        <time>2020-08-07T09:04:45Z</time>
      </trkpt>
      <trkpt lat="45.69356" lon="6.72989">
        <ele>1615.2</ele>
        <time>2020-08-07T09:04:46Z</time>
      </trkpt>
      <trkpt lat="45.69357" lon="6.72985">
        <ele>1615.5</ele>
        <time>2020-08-07T09:04:48Z</time>
      </trkpt>
      <trkpt lat="45.69358" lon="6.7298">
        <ele>1615.8</ele>
        <time>2020-08-07T09:04:49Z</time>
      </trkpt>
      <trkpt lat="45.69359" lon="6.72971">
        <ele>1616.4</ele>
        <time>2020-08-07T09:04:52Z</time>
      </trkpt>
      <trkpt lat="45.6936" lon="6.72968">
        <ele>1616.6</ele>
        <time>2020-08-07T09:04:53Z</time>
      </trkpt>
      <trkpt lat="45.6936" lon="6.72963">
        <ele>1616.9</ele>
        <time>2020-08-07T09:04:55Z</time>
      </trkpt>
      <trkpt lat="45.69361" lon="6.72954">
        <ele>1617.5</ele>
        <time>2020-08-07T09:04:57Z</time>
      </trkpt>
      <trkpt lat="45.69362" lon="6.72949">
        <ele>1617.8</ele>
        <time>2020-08-07T09:04:58Z</time>
      </trkpt>
      <trkpt lat="45.69363" lon="6.72944">
        <ele>1618.2</ele>
        <time>2020-08-07T09:05:00Z</time>
      </trkpt>
      <trkpt lat="45.69363" lon="6.72942">
        <ele>1618.3</ele>
        <time>2020-08-07T09:05:01Z</time>
      </trkpt>
      <trkpt lat="45.69364" lon="6.72935">
        <ele>1618.8</ele>
        <time>2020-08-07T09:05:03Z</time>
      </trkpt>
      <trkpt lat="45.69364" lon="6.72927">
        <ele>1619.4</ele>
        <time>2020-08-07T09:05:05Z</time>
      </trkpt>
      <trkpt lat="45.69364" lon="6.72922">
        <ele>1619.7</ele>
        <time>2020-08-07T09:05:06Z</time>
      </trkpt>
      <trkpt lat="45.69365" lon="6.72913">
        <ele>1620.3</ele>
        <time>2020-08-07T09:05:09Z</time>
      </trkpt>
      <trkpt lat="45.69365" lon="6.72908">
        <ele>1620.6</ele>
        <time>2020-08-07T09:05:10Z</time>
      </trkpt>
      <trkpt lat="45.69365" lon="6.72903">
        <ele>1621</ele>
        <time>2020-08-07T09:05:12Z</time>
      </trkpt>
      <trkpt lat="45.69365" lon="6.72898">
        <ele>1621.4</ele>
        <time>2020-08-07T09:05:13Z</time>
      </trkpt>
      <trkpt lat="45.69366" lon="6.72889">
        <ele>1621.9</ele>
        <time>2020-08-07T09:05:15Z</time>
      </trkpt>
      <trkpt lat="45.69367" lon="6.72885">
        <ele>1622.2</ele>
        <time>2020-08-07T09:05:17Z</time>
      </trkpt>
      <trkpt lat="45.69367" lon="6.72881">
        <ele>1622.5</ele>
        <time>2020-08-07T09:05:18Z</time>
      </trkpt>
      <trkpt lat="45.69368" lon="6.72875">
        <ele>1622.9</ele>
        <time>2020-08-07T09:05:20Z</time>
      </trkpt>
      <trkpt lat="45.69369" lon="6.72869">
        <ele>1623.3</ele>
        <time>2020-08-07T09:05:22Z</time>
      </trkpt>
      <trkpt lat="45.69369" lon="6.72863">
        <ele>1623.7</ele>
        <time>2020-08-07T09:05:24Z</time>
      </trkpt>
      <trkpt lat="45.69371" lon="6.72853">
        <ele>1624.4</ele>
        <time>2020-08-07T09:05:26Z</time>
      </trkpt>
      <trkpt lat="45.69372" lon="6.72849">
        <ele>1624.7</ele>
        <time>2020-08-07T09:05:27Z</time>
      </trkpt>
      <trkpt lat="45.69372" lon="6.72845">
        <ele>1625</ele>
        <time>2020-08-07T09:05:28Z</time>
      </trkpt>
      <trkpt lat="45.69374" lon="6.72836">
        <ele>1625.7</ele>
        <time>2020-08-07T09:05:31Z</time>
      </trkpt>
      <trkpt lat="45.69375" lon="6.72831">
        <ele>1626</ele>
        <time>2020-08-07T09:05:33Z</time>
      </trkpt>
      <trkpt lat="45.69377" lon="6.72824">
        <ele>1626.5</ele>
        <time>2020-08-07T09:05:35Z</time>
      </trkpt>
      <trkpt lat="45.69378" lon="6.72819">
        <ele>1626.9</ele>
        <time>2020-08-07T09:05:37Z</time>
      </trkpt>
      <trkpt lat="45.69379" lon="6.72815">
        <ele>1627.3</ele>
        <time>2020-08-07T09:05:39Z</time>
      </trkpt>
      <trkpt lat="45.6938" lon="6.72808">
        <ele>1627.8</ele>
        <time>2020-08-07T09:05:40Z</time>
      </trkpt>
      <trkpt lat="45.69381" lon="6.72803">
        <ele>1628.1</ele>
        <time>2020-08-07T09:05:41Z</time>
      </trkpt>
      <trkpt lat="45.69382" lon="6.728">
        <ele>1628.4</ele>
        <time>2020-08-07T09:05:43Z</time>
      </trkpt>
      <trkpt lat="45.69383" lon="6.72795">
        <ele>1628.7</ele>
        <time>2020-08-07T09:05:45Z</time>
      </trkpt>
      <trkpt lat="45.69385" lon="6.72787">
        <ele>1629.3</ele>
        <time>2020-08-07T09:05:47Z</time>
      </trkpt>
      <trkpt lat="45.69386" lon="6.72781">
        <ele>1629.7</ele>
        <time>2020-08-07T09:05:48Z</time>
      </trkpt>
      <trkpt lat="45.69387" lon="6.72775">
        <ele>1630.2</ele>
        <time>2020-08-07T09:05:50Z</time>
      </trkpt>
      <trkpt lat="45.69389" lon="6.72766">
        <ele>1630.9</ele>
        <time>2020-08-07T09:05:52Z</time>
      </trkpt>
      <trkpt lat="45.6939" lon="6.72761">
        <ele>1631.3</ele>
        <time>2020-08-07T09:05:54Z</time>
      </trkpt>
      <trkpt lat="45.69391" lon="6.72757">
        <ele>1631.6</ele>
        <time>2020-08-07T09:05:56Z</time>
      </trkpt>
      <trkpt lat="45.69392" lon="6.7275">
        <ele>1632.1</ele>
        <time>2020-08-07T09:05:57Z</time>
      </trkpt>
      <trkpt lat="45.69393" lon="6.72743">
        <ele>1632.7</ele>
        <time>2020-08-07T09:05:59Z</time>
      </trkpt>
      <trkpt lat="45.69394" lon="6.72739">
        <ele>1633</ele>
        <time>2020-08-07T09:06:00Z</time>
      </trkpt>
      <trkpt lat="45.69396" lon="6.7273">
        <ele>1633.7</ele>
        <time>2020-08-07T09:06:02Z</time>
      </trkpt>
      <trkpt lat="45.69396" lon="6.72725">
        <ele>1634.1</ele>
        <time>2020-08-07T09:06:03Z</time>
      </trkpt>
      <trkpt lat="45.69397" lon="6.72721">
        <ele>1634.5</ele>
        <time>2020-08-07T09:06:05Z</time>
      </trkpt>
      <trkpt lat="45.69398" lon="6.72715">
        <ele>1634.9</ele>
        <time>2020-08-07T09:06:07Z</time>
      </trkpt>
      <trkpt lat="45.69399" lon="6.72709">
        <ele>1635.5</ele>
        <time>2020-08-07T09:06:08Z</time>
      </trkpt>
      <trkpt lat="45.69401" lon="6.72703">
        <ele>1635.9</ele>
        <time>2020-08-07T09:06:10Z</time>
      </trkpt>
      <trkpt lat="45.69401" lon="6.727">
        <ele>1636.1</ele>
        <time>2020-08-07T09:06:11Z</time>
      </trkpt>
      <trkpt lat="45.69403" lon="6.72691">
        <ele>1636.9</ele>
        <time>2020-08-07T09:06:13Z</time>
      </trkpt>
      <trkpt lat="45.69403" lon="6.72687">
        <ele>1637.4</ele>
        <time>2020-08-07T09:06:14Z</time>
      </trkpt>
      <trkpt lat="45.69404" lon="6.72678">
        <ele>1638.3</ele>
        <time>2020-08-07T09:06:17Z</time>
      </trkpt>
      <trkpt lat="45.69404" lon="6.72675">
        <ele>1638.6</ele>
        <time>2020-08-07T09:06:18Z</time>
      </trkpt>
      <trkpt lat="45.69405" lon="6.72672">
        <ele>1639</ele>
        <time>2020-08-07T09:06:19Z</time>
      </trkpt>
      <trkpt lat="45.69406" lon="6.72666">
        <ele>1639.6</ele>
        <time>2020-08-07T09:06:21Z</time>
      </trkpt>
      <trkpt lat="45.69406" lon="6.72664">
        <ele>1639.9</ele>
        <time>2020-08-07T09:06:22Z</time>
      </trkpt>
      <trkpt lat="45.69406" lon="6.7266">
        <ele>1640.3</ele>
        <time>2020-08-07T09:06:23Z</time>
      </trkpt>
      <trkpt lat="45.69407" lon="6.72648">
        <ele>1641.6</ele>
        <time>2020-08-07T09:06:25Z</time>
      </trkpt>
      <trkpt lat="45.69407" lon="6.72643">
        <ele>1642.1</ele>
        <time>2020-08-07T09:06:27Z</time>
      </trkpt>
      <trkpt lat="45.69408" lon="6.72635">
        <ele>1643</ele>
        <time>2020-08-07T09:06:29Z</time>
      </trkpt>
      <trkpt lat="45.69409" lon="6.72625">
        <ele>1644.1</ele>
        <time>2020-08-07T09:06:32Z</time>
      </trkpt>
      <trkpt lat="45.69409" lon="6.72621">
        <ele>1644.6</ele>
        <time>2020-08-07T09:06:33Z</time>
      </trkpt>
      <trkpt lat="45.69409" lon="6.72617">
        <ele>1645.1</ele>
        <time>2020-08-07T09:06:34Z</time>
      </trkpt>
      <trkpt lat="45.69409" lon="6.72609">
        <ele>1645.9</ele>
        <time>2020-08-07T09:06:36Z</time>
      </trkpt>
      <trkpt lat="45.69409" lon="6.72606">
        <ele>1646.2</ele>
        <time>2020-08-07T09:06:37Z</time>
      </trkpt>
      <trkpt lat="45.6941" lon="6.72603">
        <ele>1646.6</ele>
        <time>2020-08-07T09:06:38Z</time>
      </trkpt>
      <trkpt lat="45.69409" lon="6.72594">
        <ele>1647.5</ele>
        <time>2020-08-07T09:06:41Z</time>
      </trkpt>
      <trkpt lat="45.69409" lon="6.7259">
        <ele>1647.9</ele>
        <time>2020-08-07T09:06:42Z</time>
      </trkpt>
      <trkpt lat="45.69409" lon="6.72586">
        <ele>1648.4</ele>
        <time>2020-08-07T09:06:43Z</time>
      </trkpt>
      <trkpt lat="45.69408" lon="6.72582">
        <ele>1648.9</ele>
        <time>2020-08-07T09:06:44Z</time>
      </trkpt>
      <trkpt lat="45.69408" lon="6.72576">
        <ele>1649.5</ele>
        <time>2020-08-07T09:06:46Z</time>
      </trkpt>
      <trkpt lat="45.69408" lon="6.72572">
        <ele>1650</ele>
        <time>2020-08-07T09:06:47Z</time>
      </trkpt>
      <trkpt lat="45.69408" lon="6.72568">
        <ele>1650.5</ele>
        <time>2020-08-07T09:06:48Z</time>
      </trkpt>
      <trkpt lat="45.69408" lon="6.7256">
        <ele>1651.3</ele>
        <time>2020-08-07T09:06:50Z</time>
      </trkpt>
      <trkpt lat="45.69408" lon="6.72557">
        <ele>1651.7</ele>
        <time>2020-08-07T09:06:51Z</time>
      </trkpt>
      <trkpt lat="45.69408" lon="6.72552">
        <ele>1652.3</ele>
        <time>2020-08-07T09:06:52Z</time>
      </trkpt>
      <trkpt lat="45.69408" lon="6.7255">
        <ele>1652.5</ele>
        <time>2020-08-07T09:06:53Z</time>
      </trkpt>
      <trkpt lat="45.69408" lon="6.72546">
        <ele>1653</ele>
        <time>2020-08-07T09:06:54Z</time>
      </trkpt>
      <trkpt lat="45.69408" lon="6.72542">
        <ele>1653.4</ele>
        <time>2020-08-07T09:06:56Z</time>
      </trkpt>
      <trkpt lat="45.69407" lon="6.72536">
        <ele>1654</ele>
        <time>2020-08-07T09:06:58Z</time>
      </trkpt>
      <trkpt lat="45.69407" lon="6.72531">
        <ele>1654.7</ele>
        <time>2020-08-07T09:06:59Z</time>
      </trkpt>
      <trkpt lat="45.69407" lon="6.72526">
        <ele>1655.2</ele>
        <time>2020-08-07T09:07:01Z</time>
      </trkpt>
      <trkpt lat="45.69406" lon="6.72519">
        <ele>1656</ele>
        <time>2020-08-07T09:07:02Z</time>
      </trkpt>
      <trkpt lat="45.69406" lon="6.72516">
        <ele>1656.3</ele>
        <time>2020-08-07T09:07:03Z</time>
      </trkpt>
      <trkpt lat="45.69406" lon="6.7251">
        <ele>1657</ele>
        <time>2020-08-07T09:07:05Z</time>
      </trkpt>
      <trkpt lat="45.69405" lon="6.725">
        <ele>1658.1</ele>
        <time>2020-08-07T09:07:07Z</time>
      </trkpt>
      <trkpt lat="45.69404" lon="6.72495">
        <ele>1658.7</ele>
        <time>2020-08-07T09:07:10Z</time>
      </trkpt>
      <trkpt lat="45.69403" lon="6.72484">
        <ele>1659.9</ele>
        <time>2020-08-07T09:07:12Z</time>
      </trkpt>
      <trkpt lat="45.69402" lon="6.7248">
        <ele>1660.5</ele>
        <time>2020-08-07T09:07:14Z</time>
      </trkpt>
      <trkpt lat="45.69401" lon="6.72472">
        <ele>1661.4</ele>
        <time>2020-08-07T09:07:16Z</time>
      </trkpt>
      <trkpt lat="45.69401" lon="6.72467">
        <ele>1661.9</ele>
        <time>2020-08-07T09:07:17Z</time>
      </trkpt>
      <trkpt lat="45.694" lon="6.72456">
        <ele>1663.2</ele>
        <time>2020-08-07T09:07:20Z</time>
      </trkpt>
      <trkpt lat="45.69399" lon="6.72452">
        <ele>1663.7</ele>
        <time>2020-08-07T09:07:22Z</time>
      </trkpt>
      <trkpt lat="45.69398" lon="6.72448">
        <ele>1664.2</ele>
        <time>2020-08-07T09:07:23Z</time>
      </trkpt>
      <trkpt lat="45.69397" lon="6.72443">
        <ele>1664.8</ele>
        <time>2020-08-07T09:07:24Z</time>
      </trkpt>
      <trkpt lat="45.69397" lon="6.7244">
        <ele>1665.1</ele>
        <time>2020-08-07T09:07:25Z</time>
      </trkpt>
      <trkpt lat="45.69396" lon="6.72435">
        <ele>1665.7</ele>
        <time>2020-08-07T09:07:28Z</time>
      </trkpt>
      <trkpt lat="45.69395" lon="6.7243">
        <ele>1666.3</ele>
        <time>2020-08-07T09:07:29Z</time>
      </trkpt>
      <trkpt lat="45.69395" lon="6.72425">
        <ele>1666.8</ele>
        <time>2020-08-07T09:07:30Z</time>
      </trkpt>
      <trkpt lat="45.69394" lon="6.72421">
        <ele>1667.2</ele>
        <time>2020-08-07T09:07:32Z</time>
      </trkpt>
      <trkpt lat="45.69394" lon="6.72417">
        <ele>1667.7</ele>
        <time>2020-08-07T09:07:33Z</time>
      </trkpt>
      <trkpt lat="45.69394" lon="6.7241">
        <ele>1668.4</ele>
        <time>2020-08-07T09:07:34Z</time>
      </trkpt>
      <trkpt lat="45.69394" lon="6.72404">
        <ele>1668.9</ele>
        <time>2020-08-07T09:07:35Z</time>
      </trkpt>
      <trkpt lat="45.69394" lon="6.72402">
        <ele>1669.1</ele>
        <time>2020-08-07T09:07:36Z</time>
      </trkpt>
      <trkpt lat="45.69393" lon="6.72395">
        <ele>1669.9</ele>
        <time>2020-08-07T09:07:38Z</time>
      </trkpt>
      <trkpt lat="45.69393" lon="6.72391">
        <ele>1670.2</ele>
        <time>2020-08-07T09:07:39Z</time>
      </trkpt>
      <trkpt lat="45.69392" lon="6.72388">
        <ele>1670.5</ele>
        <time>2020-08-07T09:07:40Z</time>
      </trkpt>
      <trkpt lat="45.69392" lon="6.72378">
        <ele>1671.4</ele>
        <time>2020-08-07T09:07:42Z</time>
      </trkpt>
      <trkpt lat="45.69392" lon="6.72372">
        <ele>1672</ele>
        <time>2020-08-07T09:07:45Z</time>
      </trkpt>
      <trkpt lat="45.69393" lon="6.72365">
        <ele>1672.6</ele>
        <time>2020-08-07T09:07:46Z</time>
      </trkpt>
      <trkpt lat="45.69395" lon="6.72355">
        <ele>1673.6</ele>
        <time>2020-08-07T09:07:48Z</time>
      </trkpt>
      <trkpt lat="45.69396" lon="6.7235">
        <ele>1674.2</ele>
        <time>2020-08-07T09:07:50Z</time>
      </trkpt>
      <trkpt lat="45.69398" lon="6.7234">
        <ele>1675.2</ele>
        <time>2020-08-07T09:07:52Z</time>
      </trkpt>
      <trkpt lat="45.694" lon="6.7233">
        <ele>1676.3</ele>
        <time>2020-08-07T09:07:55Z</time>
      </trkpt>
      <trkpt lat="45.69402" lon="6.72325">
        <ele>1676.7</ele>
        <time>2020-08-07T09:07:56Z</time>
      </trkpt>
      <trkpt lat="45.69404" lon="6.7232">
        <ele>1677.3</ele>
        <time>2020-08-07T09:07:58Z</time>
      </trkpt>
      <trkpt lat="45.69407" lon="6.72315">
        <ele>1677.9</ele>
        <time>2020-08-07T09:08:00Z</time>
      </trkpt>
      <trkpt lat="45.69411" lon="6.72308">
        <ele>1678.8</ele>
        <time>2020-08-07T09:08:02Z</time>
      </trkpt>
      <trkpt lat="45.69413" lon="6.72305">
        <ele>1679.1</ele>
        <time>2020-08-07T09:08:03Z</time>
      </trkpt>
      <trkpt lat="45.69415" lon="6.72302">
        <ele>1679.5</ele>
        <time>2020-08-07T09:08:04Z</time>
      </trkpt>
      <trkpt lat="45.69418" lon="6.72292">
        <ele>1681.2</ele>
        <time>2020-08-07T09:08:07Z</time>
      </trkpt>
      <trkpt lat="45.69421" lon="6.72284">
        <ele>1683.5</ele>
        <time>2020-08-07T09:08:09Z</time>
      </trkpt>
      <trkpt lat="45.69425" lon="6.72274">
        <ele>1686.4</ele>
        <time>2020-08-07T09:08:12Z</time>
      </trkpt>
      <trkpt lat="45.69427" lon="6.7227">
        <ele>1687.6</ele>
        <time>2020-08-07T09:08:13Z</time>
      </trkpt>
      <trkpt lat="45.69428" lon="6.72266">
        <ele>1688.5</ele>
        <time>2020-08-07T09:08:15Z</time>
      </trkpt>
      <trkpt lat="45.69432" lon="6.72259">
        <ele>1690.9</ele>
        <time>2020-08-07T09:08:17Z</time>
      </trkpt>
      <trkpt lat="45.69434" lon="6.72255">
        <ele>1691.9</ele>
        <time>2020-08-07T09:08:18Z</time>
      </trkpt>
      <trkpt lat="45.69438" lon="6.72248">
        <ele>1694.2</ele>
        <time>2020-08-07T09:08:21Z</time>
      </trkpt>
      <trkpt lat="45.6944" lon="6.72245">
        <ele>1695.2</ele>
        <time>2020-08-07T09:08:22Z</time>
      </trkpt>
      <trkpt lat="45.69442" lon="6.72241">
        <ele>1696.4</ele>
        <time>2020-08-07T09:08:24Z</time>
      </trkpt>
      <trkpt lat="45.69445" lon="6.72238">
        <ele>1697.8</ele>
        <time>2020-08-07T09:08:25Z</time>
      </trkpt>
      <trkpt lat="45.69447" lon="6.72235">
        <ele>1698.9</ele>
        <time>2020-08-07T09:08:26Z</time>
      </trkpt>
      <trkpt lat="45.69451" lon="6.7223">
        <ele>1700.8</ele>
        <time>2020-08-07T09:08:28Z</time>
      </trkpt>
      <trkpt lat="45.69452" lon="6.72228">
        <ele>1701.5</ele>
        <time>2020-08-07T09:08:30Z</time>
      </trkpt>
      <trkpt lat="45.69454" lon="6.72226">
        <ele>1702.2</ele>
        <time>2020-08-07T09:08:31Z</time>
      </trkpt>
      <trkpt lat="45.69458" lon="6.72221">
        <ele>1704.1</ele>
        <time>2020-08-07T09:08:33Z</time>
      </trkpt>
      <trkpt lat="45.6946" lon="6.72219">
        <ele>1704.8</ele>
        <time>2020-08-07T09:08:34Z</time>
      </trkpt>
      <trkpt lat="45.69462" lon="6.72218">
        <ele>1705.5</ele>
        <time>2020-08-07T09:08:35Z</time>
      </trkpt>
      <trkpt lat="45.69466" lon="6.72213">
        <ele>1707.4</ele>
        <time>2020-08-07T09:08:37Z</time>
      </trkpt>
      <trkpt lat="45.69468" lon="6.72212">
        <ele>1708.4</ele>
        <time>2020-08-07T09:08:38Z</time>
      </trkpt>
      <trkpt lat="45.6947" lon="6.72211">
        <ele>1707.7</ele>
        <time>2020-08-07T09:08:39Z</time>
      </trkpt>
      <trkpt lat="45.69472" lon="6.72209">
        <ele>1706.9</ele>
        <time>2020-08-07T09:08:40Z</time>
      </trkpt>
      <trkpt lat="45.69474" lon="6.72208">
        <ele>1706.4</ele>
        <time>2020-08-07T09:08:42Z</time>
      </trkpt>
      <trkpt lat="45.69477" lon="6.72208">
        <ele>1706.5</ele>
        <time>2020-08-07T09:08:43Z</time>
      </trkpt>
      <trkpt lat="45.69484" lon="6.72207">
        <ele>1706.8</ele>
        <time>2020-08-07T09:08:44Z</time>
      </trkpt>
      <trkpt lat="45.69491" lon="6.72209">
        <ele>1707</ele>
        <time>2020-08-07T09:08:47Z</time>
      </trkpt>
      <trkpt lat="45.69494" lon="6.72211">
        <ele>1707.1</ele>
        <time>2020-08-07T09:08:48Z</time>
      </trkpt>
      <trkpt lat="45.69498" lon="6.72214">
        <ele>1707.1</ele>
        <time>2020-08-07T09:08:50Z</time>
      </trkpt>
      <trkpt lat="45.69502" lon="6.72218">
        <ele>1707.2</ele>
        <time>2020-08-07T09:08:52Z</time>
      </trkpt>
      <trkpt lat="45.69504" lon="6.72221">
        <ele>1707.2</ele>
        <time>2020-08-07T09:08:53Z</time>
      </trkpt>
      <trkpt lat="45.69508" lon="6.72227">
        <ele>1707.3</ele>
        <time>2020-08-07T09:08:54Z</time>
      </trkpt>
      <trkpt lat="45.69511" lon="6.72232">
        <ele>1707.4</ele>
        <time>2020-08-07T09:08:56Z</time>
      </trkpt>
      <trkpt lat="45.69514" lon="6.72236">
        <ele>1707.4</ele>
        <time>2020-08-07T09:08:58Z</time>
      </trkpt>
      <trkpt lat="45.69519" lon="6.72244">
        <ele>1707.5</ele>
        <time>2020-08-07T09:08:59Z</time>
      </trkpt>
      <trkpt lat="45.69521" lon="6.72252">
        <ele>1707.5</ele>
        <time>2020-08-07T09:09:01Z</time>
      </trkpt>
      <trkpt lat="45.69522" lon="6.72256">
        <ele>1707.5</ele>
        <time>2020-08-07T09:09:02Z</time>
      </trkpt>
      <trkpt lat="45.69523" lon="6.72262">
        <ele>1707.6</ele>
        <time>2020-08-07T09:09:04Z</time>
      </trkpt>
      <trkpt lat="45.69524" lon="6.72273">
        <ele>1707.6</ele>
        <time>2020-08-07T09:09:05Z</time>
      </trkpt>
      <trkpt lat="45.69525" lon="6.72282">
        <ele>1707.6</ele>
        <time>2020-08-07T09:09:07Z</time>
      </trkpt>
      <trkpt lat="45.69526" lon="6.72289">
        <ele>1707.6</ele>
        <time>2020-08-07T09:09:09Z</time>
      </trkpt>
      <trkpt lat="45.69528" lon="6.72298">
        <ele>1707.7</ele>
        <time>2020-08-07T09:09:10Z</time>
      </trkpt>
      <trkpt lat="45.6953" lon="6.72311">
        <ele>1707.8</ele>
        <time>2020-08-07T09:09:12Z</time>
      </trkpt>
      <trkpt lat="45.69531" lon="6.72319">
        <ele>1707.9</ele>
        <time>2020-08-07T09:09:14Z</time>
      </trkpt>
      <trkpt lat="45.69532" lon="6.72332">
        <ele>1708.1</ele>
        <time>2020-08-07T09:09:16Z</time>
      </trkpt>
      <trkpt lat="45.69532" lon="6.7234">
        <ele>1708.2</ele>
        <time>2020-08-07T09:09:18Z</time>
      </trkpt>
      <trkpt lat="45.69531" lon="6.72347">
        <ele>1708.3</ele>
        <time>2020-08-07T09:09:20Z</time>
      </trkpt>
      <trkpt lat="45.69529" lon="6.72352">
        <ele>1708.4</ele>
        <time>2020-08-07T09:09:21Z</time>
      </trkpt>
      <trkpt lat="45.69527" lon="6.72359">
        <ele>1708.5</ele>
        <time>2020-08-07T09:09:22Z</time>
      </trkpt>
      <trkpt lat="45.69526" lon="6.72365">
        <ele>1708.6</ele>
        <time>2020-08-07T09:09:23Z</time>
      </trkpt>
      <trkpt lat="45.69523" lon="6.72377">
        <ele>1708.8</ele>
        <time>2020-08-07T09:09:25Z</time>
      </trkpt>
      <trkpt lat="45.69522" lon="6.72382">
        <ele>1708.9</ele>
        <time>2020-08-07T09:09:26Z</time>
      </trkpt>
      <trkpt lat="45.6952" lon="6.72389">
        <ele>1709</ele>
        <time>2020-08-07T09:09:28Z</time>
      </trkpt>
      <trkpt lat="45.69519" lon="6.72395">
        <ele>1709</ele>
        <time>2020-08-07T09:09:29Z</time>
      </trkpt>
      <trkpt lat="45.69518" lon="6.72402">
        <ele>1709.1</ele>
        <time>2020-08-07T09:09:32Z</time>
      </trkpt>
      <trkpt lat="45.69517" lon="6.72406">
        <ele>1709.1</ele>
        <time>2020-08-07T09:09:33Z</time>
      </trkpt>
      <trkpt lat="45.69517" lon="6.72411">
        <ele>1709.1</ele>
        <time>2020-08-07T09:09:34Z</time>
      </trkpt>
      <trkpt lat="45.69519" lon="6.7242">
        <ele>1709.1</ele>
        <time>2020-08-07T09:09:35Z</time>
      </trkpt>
      <trkpt lat="45.69521" lon="6.72427">
        <ele>1709</ele>
        <time>2020-08-07T09:09:37Z</time>
      </trkpt>
      <trkpt lat="45.69525" lon="6.72436">
        <ele>1708.9</ele>
        <time>2020-08-07T09:09:38Z</time>
      </trkpt>
      <trkpt lat="45.69527" lon="6.72441">
        <ele>1708.9</ele>
        <time>2020-08-07T09:09:40Z</time>
      </trkpt>
      <trkpt lat="45.69529" lon="6.72444">
        <ele>1708.8</ele>
        <time>2020-08-07T09:09:41Z</time>
      </trkpt>
      <trkpt lat="45.69534" lon="6.72453">
        <ele>1708.6</ele>
        <time>2020-08-07T09:09:42Z</time>
      </trkpt>
      <trkpt lat="45.69538" lon="6.72457">
        <ele>1708.5</ele>
        <time>2020-08-07T09:09:44Z</time>
      </trkpt>
      <trkpt lat="45.6954" lon="6.72462">
        <ele>1708.4</ele>
        <time>2020-08-07T09:09:46Z</time>
      </trkpt>
      <trkpt lat="45.69543" lon="6.72466">
        <ele>1708.3</ele>
        <time>2020-08-07T09:09:47Z</time>
      </trkpt>
      <trkpt lat="45.69549" lon="6.72477">
        <ele>1708.1</ele>
        <time>2020-08-07T09:09:48Z</time>
      </trkpt>
      <trkpt lat="45.69553" lon="6.72483">
        <ele>1708</ele>
        <time>2020-08-07T09:09:49Z</time>
      </trkpt>
      <trkpt lat="45.69558" lon="6.72493">
        <ele>1707.8</ele>
        <time>2020-08-07T09:09:52Z</time>
      </trkpt>
      <trkpt lat="45.69563" lon="6.72506">
        <ele>1707.6</ele>
        <time>2020-08-07T09:09:54Z</time>
      </trkpt>
      <trkpt lat="45.69568" lon="6.72518">
        <ele>1707.5</ele>
        <time>2020-08-07T09:09:56Z</time>
      </trkpt>
      <trkpt lat="45.69571" lon="6.72524">
        <ele>1707.4</ele>
        <time>2020-08-07T09:09:57Z</time>
      </trkpt>
      <trkpt lat="45.69573" lon="6.7253">
        <ele>1707.3</ele>
        <time>2020-08-07T09:09:58Z</time>
      </trkpt>
      <trkpt lat="45.69575" lon="6.72536">
        <ele>1707.3</ele>
        <time>2020-08-07T09:09:59Z</time>
      </trkpt>
      <trkpt lat="45.69579" lon="6.72548">
        <ele>1707.2</ele>
        <time>2020-08-07T09:10:01Z</time>
      </trkpt>
      <trkpt lat="45.69581" lon="6.72554">
        <ele>1707.2</ele>
        <time>2020-08-07T09:10:02Z</time>
      </trkpt>
      <trkpt lat="45.69585" lon="6.72567">
        <ele>1707.1</ele>
        <time>2020-08-07T09:10:04Z</time>
      </trkpt>
      <trkpt lat="45.69586" lon="6.72573">
        <ele>1707.1</ele>
        <time>2020-08-07T09:10:05Z</time>
      </trkpt>
      <trkpt lat="45.6959" lon="6.72585">
        <ele>1707</ele>
        <time>2020-08-07T09:10:07Z</time>
      </trkpt>
      <trkpt lat="45.69592" lon="6.72591">
        <ele>1707</ele>
        <time>2020-08-07T09:10:08Z</time>
      </trkpt>
      <trkpt lat="45.69594" lon="6.72597">
        <ele>1707</ele>
        <time>2020-08-07T09:10:09Z</time>
      </trkpt>
      <trkpt lat="45.69597" lon="6.7261">
        <ele>1706.9</ele>
        <time>2020-08-07T09:10:11Z</time>
      </trkpt>
      <trkpt lat="45.69598" lon="6.72617">
        <ele>1706.9</ele>
        <time>2020-08-07T09:10:12Z</time>
      </trkpt>
      <trkpt lat="45.696" lon="6.72629">
        <ele>1706.9</ele>
        <time>2020-08-07T09:10:14Z</time>
      </trkpt>
      <trkpt lat="45.69601" lon="6.72636">
        <ele>1706.9</ele>
        <time>2020-08-07T09:10:15Z</time>
      </trkpt>
      <trkpt lat="45.69602" lon="6.72649">
        <ele>1706.9</ele>
        <time>2020-08-07T09:10:17Z</time>
      </trkpt>
      <trkpt lat="45.69603" lon="6.72655">
        <ele>1707</ele>
        <time>2020-08-07T09:10:18Z</time>
      </trkpt>
      <trkpt lat="45.69605" lon="6.72665">
        <ele>1707</ele>
        <time>2020-08-07T09:10:20Z</time>
      </trkpt>
      <trkpt lat="45.69607" lon="6.72671">
        <ele>1707.1</ele>
        <time>2020-08-07T09:10:21Z</time>
      </trkpt>
      <trkpt lat="45.6961" lon="6.72676">
        <ele>1707.1</ele>
        <time>2020-08-07T09:10:22Z</time>
      </trkpt>
      <trkpt lat="45.69619" lon="6.72681">
        <ele>1707.1</ele>
        <time>2020-08-07T09:10:24Z</time>
      </trkpt>
      <trkpt lat="45.69628" lon="6.72676">
        <ele>1707.1</ele>
        <time>2020-08-07T09:10:26Z</time>
      </trkpt>
      <trkpt lat="45.69636" lon="6.72666">
        <ele>1707</ele>
        <time>2020-08-07T09:10:28Z</time>
      </trkpt>
      <trkpt lat="45.69638" lon="6.7266">
        <ele>1706.9</ele>
        <time>2020-08-07T09:10:29Z</time>
      </trkpt>
      <trkpt lat="45.6964" lon="6.72647">
        <ele>1706.8</ele>
        <time>2020-08-07T09:10:31Z</time>
      </trkpt>
      <trkpt lat="45.6964" lon="6.72643">
        <ele>1706.8</ele>
        <time>2020-08-07T09:10:32Z</time>
      </trkpt>
      <trkpt lat="45.69638" lon="6.72626">
        <ele>1706.9</ele>
        <time>2020-08-07T09:10:34Z</time>
      </trkpt>
      <trkpt lat="45.69636" lon="6.72617">
        <ele>1706.9</ele>
        <time>2020-08-07T09:10:37Z</time>
      </trkpt>
      <trkpt lat="45.69634" lon="6.72609">
        <ele>1707</ele>
        <time>2020-08-07T09:10:38Z</time>
      </trkpt>
      <trkpt lat="45.69633" lon="6.726">
        <ele>1707.1</ele>
        <time>2020-08-07T09:10:39Z</time>
      </trkpt>
      <trkpt lat="45.69631" lon="6.72595">
        <ele>1707.1</ele>
        <time>2020-08-07T09:10:41Z</time>
      </trkpt>
      <trkpt lat="45.69629" lon="6.72584">
        <ele>1707</ele>
        <time>2020-08-07T09:10:43Z</time>
      </trkpt>
      <trkpt lat="45.69627" lon="6.72578">
        <ele>1706.8</ele>
        <time>2020-08-07T09:10:44Z</time>
      </trkpt>
      <trkpt lat="45.69625" lon="6.72572">
        <ele>1706.6</ele>
        <time>2020-08-07T09:10:47Z</time>
      </trkpt>
      <trkpt lat="45.69622" lon="6.72566">
        <ele>1707</ele>
        <time>2020-08-07T09:10:48Z</time>
      </trkpt>
      <trkpt lat="45.69621" lon="6.72561">
        <ele>1707.4</ele>
        <time>2020-08-07T09:10:49Z</time>
      </trkpt>
      <trkpt lat="45.6962" lon="6.72556">
        <ele>1707.7</ele>
        <time>2020-08-07T09:10:51Z</time>
      </trkpt>
      <trkpt lat="45.69619" lon="6.72552">
        <ele>1708</ele>
        <time>2020-08-07T09:10:52Z</time>
      </trkpt>
      <trkpt lat="45.69618" lon="6.72545">
        <ele>1708.4</ele>
        <time>2020-08-07T09:10:54Z</time>
      </trkpt>
      <trkpt lat="45.69617" lon="6.7254">
        <ele>1708.7</ele>
        <time>2020-08-07T09:10:55Z</time>
      </trkpt>
      <trkpt lat="45.69616" lon="6.72532">
        <ele>1709.3</ele>
        <time>2020-08-07T09:10:57Z</time>
      </trkpt>
      <trkpt lat="45.69616" lon="6.72523">
        <ele>1709.8</ele>
        <time>2020-08-07T09:10:59Z</time>
      </trkpt>
      <trkpt lat="45.69616" lon="6.72513">
        <ele>1710.5</ele>
        <time>2020-08-07T09:11:01Z</time>
      </trkpt>
      <trkpt lat="45.69616" lon="6.72505">
        <ele>1711</ele>
        <time>2020-08-07T09:11:02Z</time>
      </trkpt>
      <trkpt lat="45.69615" lon="6.72494">
        <ele>1711.6</ele>
        <time>2020-08-07T09:11:04Z</time>
      </trkpt>
      <trkpt lat="45.69614" lon="6.72489">
        <ele>1712</ele>
        <time>2020-08-07T09:11:05Z</time>
      </trkpt>
      <trkpt lat="45.69614" lon="6.72483">
        <ele>1712.4</ele>
        <time>2020-08-07T09:11:07Z</time>
      </trkpt>
      <trkpt lat="45.69614" lon="6.72474">
        <ele>1713</ele>
        <time>2020-08-07T09:11:09Z</time>
      </trkpt>
      <trkpt lat="45.69613" lon="6.72469">
        <ele>1713.4</ele>
        <time>2020-08-07T09:11:10Z</time>
      </trkpt>
      <trkpt lat="45.69613" lon="6.7246">
        <ele>1714</ele>
        <time>2020-08-07T09:11:13Z</time>
      </trkpt>
      <trkpt lat="45.69613" lon="6.72457">
        <ele>1714.2</ele>
        <time>2020-08-07T09:11:14Z</time>
      </trkpt>
      <trkpt lat="45.69612" lon="6.72454">
        <ele>1714.4</ele>
        <time>2020-08-07T09:11:15Z</time>
      </trkpt>
      <trkpt lat="45.69613" lon="6.72448">
        <ele>1714.8</ele>
        <time>2020-08-07T09:11:17Z</time>
      </trkpt>
      <trkpt lat="45.69613" lon="6.7244">
        <ele>1715.4</ele>
        <time>2020-08-07T09:11:18Z</time>
      </trkpt>
      <trkpt lat="45.69613" lon="6.72434">
        <ele>1715.8</ele>
        <time>2020-08-07T09:11:20Z</time>
      </trkpt>
      <trkpt lat="45.69613" lon="6.72429">
        <ele>1716.1</ele>
        <time>2020-08-07T09:11:22Z</time>
      </trkpt>
      <trkpt lat="45.69614" lon="6.72425">
        <ele>1716.4</ele>
        <time>2020-08-07T09:11:23Z</time>
      </trkpt>
      <trkpt lat="45.69614" lon="6.72418">
        <ele>1716.9</ele>
        <time>2020-08-07T09:11:24Z</time>
      </trkpt>
      <trkpt lat="45.69614" lon="6.72415">
        <ele>1717.1</ele>
        <time>2020-08-07T09:11:25Z</time>
      </trkpt>
      <trkpt lat="45.69614" lon="6.72411">
        <ele>1717.4</ele>
        <time>2020-08-07T09:11:26Z</time>
      </trkpt>
      <trkpt lat="45.69614" lon="6.72402">
        <ele>1718.1</ele>
        <time>2020-08-07T09:11:28Z</time>
      </trkpt>
      <trkpt lat="45.69614" lon="6.72398">
        <ele>1718.4</ele>
        <time>2020-08-07T09:11:29Z</time>
      </trkpt>
      <trkpt lat="45.69614" lon="6.72389">
        <ele>1719.1</ele>
        <time>2020-08-07T09:11:32Z</time>
      </trkpt>
      <trkpt lat="45.69614" lon="6.72385">
        <ele>1719.4</ele>
        <time>2020-08-07T09:11:33Z</time>
      </trkpt>
      <trkpt lat="45.69615" lon="6.72375">
        <ele>1720.1</ele>
        <time>2020-08-07T09:11:35Z</time>
      </trkpt>
      <trkpt lat="45.69615" lon="6.7237">
        <ele>1720.5</ele>
        <time>2020-08-07T09:11:38Z</time>
      </trkpt>
      <trkpt lat="45.69615" lon="6.72358">
        <ele>1721.4</ele>
        <time>2020-08-07T09:11:40Z</time>
      </trkpt>
      <trkpt lat="45.69614" lon="6.72352">
        <ele>1722</ele>
        <time>2020-08-07T09:11:42Z</time>
      </trkpt>
      <trkpt lat="45.69613" lon="6.72346">
        <ele>1722.5</ele>
        <time>2020-08-07T09:11:44Z</time>
      </trkpt>
      <trkpt lat="45.69613" lon="6.72343">
        <ele>1722.8</ele>
        <time>2020-08-07T09:11:45Z</time>
      </trkpt>
      <trkpt lat="45.69612" lon="6.72338">
        <ele>1723.2</ele>
        <time>2020-08-07T09:11:46Z</time>
      </trkpt>
      <trkpt lat="45.69611" lon="6.72333">
        <ele>1723.7</ele>
        <time>2020-08-07T09:11:48Z</time>
      </trkpt>
      <trkpt lat="45.69611" lon="6.72329">
        <ele>1724</ele>
        <time>2020-08-07T09:11:50Z</time>
      </trkpt>
      <trkpt lat="45.69609" lon="6.72324">
        <ele>1724.6</ele>
        <time>2020-08-07T09:11:51Z</time>
      </trkpt>
      <trkpt lat="45.69608" lon="6.72319">
        <ele>1725.1</ele>
        <time>2020-08-07T09:11:53Z</time>
      </trkpt>
      <trkpt lat="45.69606" lon="6.72314">
        <ele>1725.7</ele>
        <time>2020-08-07T09:11:55Z</time>
      </trkpt>
      <trkpt lat="45.69602" lon="6.72308">
        <ele>1726.5</ele>
        <time>2020-08-07T09:11:56Z</time>
      </trkpt>
      <trkpt lat="45.69599" lon="6.72299">
        <ele>1727.5</ele>
        <time>2020-08-07T09:11:59Z</time>
      </trkpt>
      <trkpt lat="45.69597" lon="6.72295">
        <ele>1727.9</ele>
        <time>2020-08-07T09:12:01Z</time>
      </trkpt>
      <trkpt lat="45.69595" lon="6.72292">
        <ele>1728.4</ele>
        <time>2020-08-07T09:12:02Z</time>
      </trkpt>
      <trkpt lat="45.69593" lon="6.72288">
        <ele>1728.9</ele>
        <time>2020-08-07T09:12:04Z</time>
      </trkpt>
      <trkpt lat="45.69591" lon="6.72285">
        <ele>1729.2</ele>
        <time>2020-08-07T09:12:06Z</time>
      </trkpt>
      <trkpt lat="45.69588" lon="6.72275">
        <ele>1730.1</ele>
        <time>2020-08-07T09:12:08Z</time>
      </trkpt>
      <trkpt lat="45.69587" lon="6.72271">
        <ele>1730.5</ele>
        <time>2020-08-07T09:12:10Z</time>
      </trkpt>
      <trkpt lat="45.69588" lon="6.72263">
        <ele>1731.2</ele>
        <time>2020-08-07T09:12:12Z</time>
      </trkpt>
      <trkpt lat="45.69592" lon="6.72258">
        <ele>1731.7</ele>
        <time>2020-08-07T09:12:14Z</time>
      </trkpt>
      <trkpt lat="45.69594" lon="6.72258">
        <ele>1731.9</ele>
        <time>2020-08-07T09:12:16Z</time>
      </trkpt>
      <trkpt lat="45.69596" lon="6.72257">
        <ele>1732.1</ele>
        <time>2020-08-07T09:12:17Z</time>
      </trkpt>
      <trkpt lat="45.696" lon="6.7226">
        <ele>1732.4</ele>
        <time>2020-08-07T09:12:19Z</time>
      </trkpt>
      <trkpt lat="45.69605" lon="6.72268">
        <ele>1732.7</ele>
        <time>2020-08-07T09:12:21Z</time>
      </trkpt>
      <trkpt lat="45.69609" lon="6.72275">
        <ele>1732.9</ele>
        <time>2020-08-07T09:12:23Z</time>
      </trkpt>
      <trkpt lat="45.69611" lon="6.72278">
        <ele>1733</ele>
        <time>2020-08-07T09:12:24Z</time>
      </trkpt>
      <trkpt lat="45.69614" lon="6.72284">
        <ele>1733.2</ele>
        <time>2020-08-07T09:12:25Z</time>
      </trkpt>
      <trkpt lat="45.69617" lon="6.7229">
        <ele>1733.4</ele>
        <time>2020-08-07T09:12:26Z</time>
      </trkpt>
      <trkpt lat="45.69621" lon="6.72298">
        <ele>1733.6</ele>
        <time>2020-08-07T09:12:29Z</time>
      </trkpt>
      <trkpt lat="45.69622" lon="6.72301">
        <ele>1733.7</ele>
        <time>2020-08-07T09:12:30Z</time>
      </trkpt>
      <trkpt lat="45.69625" lon="6.72305">
        <ele>1733.9</ele>
        <time>2020-08-07T09:12:32Z</time>
      </trkpt>
      <trkpt lat="45.69627" lon="6.72309">
        <ele>1734</ele>
        <time>2020-08-07T09:12:33Z</time>
      </trkpt>
      <trkpt lat="45.69631" lon="6.72319">
        <ele>1734.4</ele>
        <time>2020-08-07T09:12:35Z</time>
      </trkpt>
      <trkpt lat="45.69633" lon="6.72323">
        <ele>1734.5</ele>
        <time>2020-08-07T09:12:37Z</time>
      </trkpt>
      <trkpt lat="45.69635" lon="6.72326">
        <ele>1734.7</ele>
        <time>2020-08-07T09:12:39Z</time>
      </trkpt>
      <trkpt lat="45.69637" lon="6.72331">
        <ele>1734.9</ele>
        <time>2020-08-07T09:12:40Z</time>
      </trkpt>
      <trkpt lat="45.69638" lon="6.72335">
        <ele>1735.2</ele>
        <time>2020-08-07T09:12:42Z</time>
      </trkpt>
      <trkpt lat="45.69641" lon="6.72342">
        <ele>1735.5</ele>
        <time>2020-08-07T09:12:43Z</time>
      </trkpt>
      <trkpt lat="45.69644" lon="6.72347">
        <ele>1735.8</ele>
        <time>2020-08-07T09:12:45Z</time>
      </trkpt>
      <trkpt lat="45.69646" lon="6.72352">
        <ele>1736.2</ele>
        <time>2020-08-07T09:12:47Z</time>
      </trkpt>
      <trkpt lat="45.69648" lon="6.72358">
        <ele>1736.6</ele>
        <time>2020-08-07T09:12:49Z</time>
      </trkpt>
      <trkpt lat="45.69652" lon="6.72365">
        <ele>1737.2</ele>
        <time>2020-08-07T09:12:51Z</time>
      </trkpt>
      <trkpt lat="45.69654" lon="6.72371">
        <ele>1737.7</ele>
        <time>2020-08-07T09:12:53Z</time>
      </trkpt>
      <trkpt lat="45.69655" lon="6.72373">
        <ele>1737.8</ele>
        <time>2020-08-07T09:12:54Z</time>
      </trkpt>
      <trkpt lat="45.69656" lon="6.72374">
        <ele>1738</ele>
        <time>2020-08-07T09:12:55Z</time>
      </trkpt>
      <trkpt lat="45.69658" lon="6.72378">
        <ele>1738.3</ele>
        <time>2020-08-07T09:12:56Z</time>
      </trkpt>
      <trkpt lat="45.6966" lon="6.72383">
        <ele>1738.7</ele>
        <time>2020-08-07T09:12:57Z</time>
      </trkpt>
      <trkpt lat="45.69661" lon="6.72384">
        <ele>1738.9</ele>
        <time>2020-08-07T09:12:58Z</time>
      </trkpt>
      <trkpt lat="45.69663" lon="6.7239">
        <ele>1739.4</ele>
        <time>2020-08-07T09:13:00Z</time>
      </trkpt>
      <trkpt lat="45.69664" lon="6.72391">
        <ele>1739.5</ele>
        <time>2020-08-07T09:13:02Z</time>
      </trkpt>
      <trkpt lat="45.69665" lon="6.72393">
        <ele>1739.7</ele>
        <time>2020-08-07T09:13:03Z</time>
      </trkpt>
      <trkpt lat="45.69667" lon="6.72398">
        <ele>1740.2</ele>
        <time>2020-08-07T09:13:04Z</time>
      </trkpt>
      <trkpt lat="45.69669" lon="6.72403">
        <ele>1740.7</ele>
        <time>2020-08-07T09:13:06Z</time>
      </trkpt>
      <trkpt lat="45.69671" lon="6.72406">
        <ele>1741</ele>
        <time>2020-08-07T09:13:07Z</time>
      </trkpt>
      <trkpt lat="45.69673" lon="6.72411">
        <ele>1741.5</ele>
        <time>2020-08-07T09:13:09Z</time>
      </trkpt>
      <trkpt lat="45.69673" lon="6.72414">
        <ele>1741.7</ele>
        <time>2020-08-07T09:13:10Z</time>
      </trkpt>
      <trkpt lat="45.69676" lon="6.72421">
        <ele>1742.3</ele>
        <time>2020-08-07T09:13:12Z</time>
      </trkpt>
      <trkpt lat="45.69679" lon="6.72426">
        <ele>1742.9</ele>
        <time>2020-08-07T09:13:15Z</time>
      </trkpt>
      <trkpt lat="45.6968" lon="6.72429">
        <ele>1743.2</ele>
        <time>2020-08-07T09:13:16Z</time>
      </trkpt>
      <trkpt lat="45.69684" lon="6.72439">
        <ele>1744.3</ele>
        <time>2020-08-07T09:13:18Z</time>
      </trkpt>
      <trkpt lat="45.69687" lon="6.72443">
        <ele>1744.8</ele>
        <time>2020-08-07T09:13:20Z</time>
      </trkpt>
      <trkpt lat="45.69687" lon="6.72445">
        <ele>1744.9</ele>
        <time>2020-08-07T09:13:21Z</time>
      </trkpt>
      <trkpt lat="45.6969" lon="6.72451">
        <ele>1745.6</ele>
        <time>2020-08-07T09:13:23Z</time>
      </trkpt>
      <trkpt lat="45.69691" lon="6.72453">
        <ele>1745.9</ele>
        <time>2020-08-07T09:13:24Z</time>
      </trkpt>
      <trkpt lat="45.69691" lon="6.72455">
        <ele>1746.1</ele>
        <time>2020-08-07T09:13:25Z</time>
      </trkpt>
      <trkpt lat="45.69693" lon="6.7246">
        <ele>1746.5</ele>
        <time>2020-08-07T09:13:27Z</time>
      </trkpt>
      <trkpt lat="45.69695" lon="6.72464">
        <ele>1747</ele>
        <time>2020-08-07T09:13:28Z</time>
      </trkpt>
      <trkpt lat="45.69696" lon="6.72467">
        <ele>1747.3</ele>
        <time>2020-08-07T09:13:29Z</time>
      </trkpt>
      <trkpt lat="45.69696" lon="6.7247">
        <ele>1747.6</ele>
        <time>2020-08-07T09:13:31Z</time>
      </trkpt>
      <trkpt lat="45.69698" lon="6.72474">
        <ele>1748.1</ele>
        <time>2020-08-07T09:13:32Z</time>
      </trkpt>
      <trkpt lat="45.69698" lon="6.72476">
        <ele>1748.2</ele>
        <time>2020-08-07T09:13:33Z</time>
      </trkpt>
      <trkpt lat="45.697" lon="6.72482">
        <ele>1748.9</ele>
        <time>2020-08-07T09:13:34Z</time>
      </trkpt>
      <trkpt lat="45.69701" lon="6.72487">
        <ele>1749.4</ele>
        <time>2020-08-07T09:13:35Z</time>
      </trkpt>
      <trkpt lat="45.69703" lon="6.72492">
        <ele>1749.9</ele>
        <time>2020-08-07T09:13:37Z</time>
      </trkpt>
      <trkpt lat="45.69704" lon="6.72494">
        <ele>1750.1</ele>
        <time>2020-08-07T09:13:38Z</time>
      </trkpt>
      <trkpt lat="45.69705" lon="6.72498">
        <ele>1750.5</ele>
        <time>2020-08-07T09:13:39Z</time>
      </trkpt>
      <trkpt lat="45.69709" lon="6.72504">
        <ele>1751.2</ele>
        <time>2020-08-07T09:13:42Z</time>
      </trkpt>
      <trkpt lat="45.69712" lon="6.72507">
        <ele>1751.6</ele>
        <time>2020-08-07T09:13:43Z</time>
      </trkpt>
      <trkpt lat="45.69714" lon="6.7251">
        <ele>1751.9</ele>
        <time>2020-08-07T09:13:44Z</time>
      </trkpt>
      <trkpt lat="45.69717" lon="6.72513">
        <ele>1752.2</ele>
        <time>2020-08-07T09:13:47Z</time>
      </trkpt>
      <trkpt lat="45.6972" lon="6.72515">
        <ele>1752.5</ele>
        <time>2020-08-07T09:13:48Z</time>
      </trkpt>
      <trkpt lat="45.69724" lon="6.72516">
        <ele>1752.9</ele>
        <time>2020-08-07T09:13:50Z</time>
      </trkpt>
      <trkpt lat="45.69728" lon="6.72518">
        <ele>1753.2</ele>
        <time>2020-08-07T09:13:51Z</time>
      </trkpt>
      <trkpt lat="45.69729" lon="6.72519">
        <ele>1753.3</ele>
        <time>2020-08-07T09:13:52Z</time>
      </trkpt>
      <trkpt lat="45.69734" lon="6.72522">
        <ele>1753.7</ele>
        <time>2020-08-07T09:13:53Z</time>
      </trkpt>
      <trkpt lat="45.69736" lon="6.72523">
        <ele>1753.9</ele>
        <time>2020-08-07T09:13:54Z</time>
      </trkpt>
      <trkpt lat="45.69742" lon="6.72524">
        <ele>1754.4</ele>
        <time>2020-08-07T09:13:56Z</time>
      </trkpt>
      <trkpt lat="45.69746" lon="6.72526">
        <ele>1754.6</ele>
        <time>2020-08-07T09:13:57Z</time>
      </trkpt>
      <trkpt lat="45.6975" lon="6.72527">
        <ele>1755</ele>
        <time>2020-08-07T09:14:00Z</time>
      </trkpt>
      <trkpt lat="45.69753" lon="6.72527">
        <ele>1755.3</ele>
        <time>2020-08-07T09:14:01Z</time>
      </trkpt>
      <trkpt lat="45.69758" lon="6.72527">
        <ele>1755.7</ele>
        <time>2020-08-07T09:14:02Z</time>
      </trkpt>
      <trkpt lat="45.69761" lon="6.72528">
        <ele>1756</ele>
        <time>2020-08-07T09:14:04Z</time>
      </trkpt>
      <trkpt lat="45.69766" lon="6.7253">
        <ele>1756.4</ele>
        <time>2020-08-07T09:14:05Z</time>
      </trkpt>
      <trkpt lat="45.6977" lon="6.72532">
        <ele>1756.8</ele>
        <time>2020-08-07T09:14:06Z</time>
      </trkpt>
      <trkpt lat="45.69771" lon="6.72532">
        <ele>1757</ele>
        <time>2020-08-07T09:14:07Z</time>
      </trkpt>
      <trkpt lat="45.69773" lon="6.72533">
        <ele>1757.2</ele>
        <time>2020-08-07T09:14:08Z</time>
      </trkpt>
      <trkpt lat="45.69778" lon="6.72534">
        <ele>1757.7</ele>
        <time>2020-08-07T09:14:09Z</time>
      </trkpt>
      <trkpt lat="45.6978" lon="6.72535">
        <ele>1757.9</ele>
        <time>2020-08-07T09:14:10Z</time>
      </trkpt>
      <trkpt lat="45.69783" lon="6.72534">
        <ele>1758.3</ele>
        <time>2020-08-07T09:14:12Z</time>
      </trkpt>
      <trkpt lat="45.69787" lon="6.72534">
        <ele>1758.6</ele>
        <time>2020-08-07T09:14:13Z</time>
      </trkpt>
      <trkpt lat="45.69792" lon="6.72534">
        <ele>1759.2</ele>
        <time>2020-08-07T09:14:15Z</time>
      </trkpt>
      <trkpt lat="45.69796" lon="6.72533">
        <ele>1759.6</ele>
        <time>2020-08-07T09:14:17Z</time>
      </trkpt>
      <trkpt lat="45.69802" lon="6.72527">
        <ele>1760.4</ele>
        <time>2020-08-07T09:14:18Z</time>
      </trkpt>
      <trkpt lat="45.69805" lon="6.72525">
        <ele>1760.6</ele>
        <time>2020-08-07T09:14:19Z</time>
      </trkpt>
      <trkpt lat="45.69808" lon="6.72522">
        <ele>1761</ele>
        <time>2020-08-07T09:14:21Z</time>
      </trkpt>
      <trkpt lat="45.69811" lon="6.72514">
        <ele>1761.5</ele>
        <time>2020-08-07T09:14:23Z</time>
      </trkpt>
      <trkpt lat="45.69812" lon="6.7251">
        <ele>1761.8</ele>
        <time>2020-08-07T09:14:24Z</time>
      </trkpt>
      <trkpt lat="45.69813" lon="6.72505">
        <ele>1762.1</ele>
        <time>2020-08-07T09:14:26Z</time>
      </trkpt>
      <trkpt lat="45.69814" lon="6.72498">
        <ele>1762.4</ele>
        <time>2020-08-07T09:14:27Z</time>
      </trkpt>
      <trkpt lat="45.69812" lon="6.72485">
        <ele>1762.8</ele>
        <time>2020-08-07T09:14:29Z</time>
      </trkpt>
      <trkpt lat="45.6981" lon="6.72477">
        <ele>1762.9</ele>
        <time>2020-08-07T09:14:31Z</time>
      </trkpt>
      <trkpt lat="45.69806" lon="6.7247">
        <ele>1763</ele>
        <time>2020-08-07T09:14:33Z</time>
      </trkpt>
      <trkpt lat="45.698" lon="6.72461">
        <ele>1763.3</ele>
        <time>2020-08-07T09:14:35Z</time>
      </trkpt>
      <trkpt lat="45.69796" lon="6.72453">
        <ele>1763.4</ele>
        <time>2020-08-07T09:14:37Z</time>
      </trkpt>
      <trkpt lat="45.69792" lon="6.72448">
        <ele>1763.6</ele>
        <time>2020-08-07T09:14:39Z</time>
      </trkpt>
      <trkpt lat="45.69787" lon="6.72442">
        <ele>1763.8</ele>
        <time>2020-08-07T09:14:40Z</time>
      </trkpt>
      <trkpt lat="45.69783" lon="6.72437">
        <ele>1764</ele>
        <time>2020-08-07T09:14:42Z</time>
      </trkpt>
      <trkpt lat="45.69776" lon="6.7243">
        <ele>1764.3</ele>
        <time>2020-08-07T09:14:43Z</time>
      </trkpt>
      <trkpt lat="45.69772" lon="6.72426">
        <ele>1764.5</ele>
        <time>2020-08-07T09:14:45Z</time>
      </trkpt>
      <trkpt lat="45.69768" lon="6.72422">
        <ele>1764.7</ele>
        <time>2020-08-07T09:14:47Z</time>
      </trkpt>
      <trkpt lat="45.69766" lon="6.72418">
        <ele>1764.9</ele>
        <time>2020-08-07T09:14:48Z</time>
      </trkpt>
      <trkpt lat="45.69763" lon="6.72415">
        <ele>1765.1</ele>
        <time>2020-08-07T09:14:49Z</time>
      </trkpt>
      <trkpt lat="45.69758" lon="6.72409">
        <ele>1765.4</ele>
        <time>2020-08-07T09:14:50Z</time>
      </trkpt>
      <trkpt lat="45.69753" lon="6.72403">
        <ele>1765.7</ele>
        <time>2020-08-07T09:14:51Z</time>
      </trkpt>
      <trkpt lat="45.69751" lon="6.72398">
        <ele>1765.9</ele>
        <time>2020-08-07T09:14:53Z</time>
      </trkpt>
      <trkpt lat="45.69748" lon="6.72392">
        <ele>1766.1</ele>
        <time>2020-08-07T09:14:54Z</time>
      </trkpt>
      <trkpt lat="45.69747" lon="6.72384">
        <ele>1766.3</ele>
        <time>2020-08-07T09:14:55Z</time>
      </trkpt>
      <trkpt lat="45.69745" lon="6.72377">
        <ele>1766.5</ele>
        <time>2020-08-07T09:14:58Z</time>
      </trkpt>
      <trkpt lat="45.69744" lon="6.72364">
        <ele>1766.8</ele>
        <time>2020-08-07T09:14:59Z</time>
      </trkpt>
      <trkpt lat="45.69744" lon="6.72356">
        <ele>1766.9</ele>
        <time>2020-08-07T09:15:01Z</time>
      </trkpt>
      <trkpt lat="45.69746" lon="6.72341">
        <ele>1767.2</ele>
        <time>2020-08-07T09:15:03Z</time>
      </trkpt>
      <trkpt lat="45.69751" lon="6.72328">
        <ele>1767.3</ele>
        <time>2020-08-07T09:15:06Z</time>
      </trkpt>
      <trkpt lat="45.69756" lon="6.72315">
        <ele>1767.5</ele>
        <time>2020-08-07T09:15:08Z</time>
      </trkpt>
      <trkpt lat="45.69761" lon="6.72303">
        <ele>1767.7</ele>
        <time>2020-08-07T09:15:10Z</time>
      </trkpt>
      <trkpt lat="45.69764" lon="6.72296">
        <ele>1767.8</ele>
        <time>2020-08-07T09:15:11Z</time>
      </trkpt>
      <trkpt lat="45.69766" lon="6.7229">
        <ele>1767.9</ele>
        <time>2020-08-07T09:15:12Z</time>
      </trkpt>
      <trkpt lat="45.69771" lon="6.72278">
        <ele>1768</ele>
        <time>2020-08-07T09:15:14Z</time>
      </trkpt>
      <trkpt lat="45.69774" lon="6.72266">
        <ele>1768.2</ele>
        <time>2020-08-07T09:15:16Z</time>
      </trkpt>
      <trkpt lat="45.69775" lon="6.72259">
        <ele>1768.2</ele>
        <time>2020-08-07T09:15:17Z</time>
      </trkpt>
      <trkpt lat="45.69775" lon="6.72245">
        <ele>1768.5</ele>
        <time>2020-08-07T09:15:19Z</time>
      </trkpt>
      <trkpt lat="45.69775" lon="6.72238">
        <ele>1768.6</ele>
        <time>2020-08-07T09:15:20Z</time>
      </trkpt>
      <trkpt lat="45.69774" lon="6.7223">
        <ele>1768.8</ele>
        <time>2020-08-07T09:15:21Z</time>
      </trkpt>
      <trkpt lat="45.69771" lon="6.72217">
        <ele>1769.3</ele>
        <time>2020-08-07T09:15:23Z</time>
      </trkpt>
      <trkpt lat="45.69767" lon="6.72205">
        <ele>1769.8</ele>
        <time>2020-08-07T09:15:25Z</time>
      </trkpt>
      <trkpt lat="45.69765" lon="6.72201">
        <ele>1770.1</ele>
        <time>2020-08-07T09:15:26Z</time>
      </trkpt>
      <trkpt lat="45.69762" lon="6.72196">
        <ele>1770.3</ele>
        <time>2020-08-07T09:15:27Z</time>
      </trkpt>
      <trkpt lat="45.69755" lon="6.72186">
        <ele>1771.1</ele>
        <time>2020-08-07T09:15:29Z</time>
      </trkpt>
      <trkpt lat="45.69744" lon="6.72181">
        <ele>1771.9</ele>
        <time>2020-08-07T09:15:31Z</time>
      </trkpt>
      <trkpt lat="45.69741" lon="6.72176">
        <ele>1772.3</ele>
        <time>2020-08-07T09:15:32Z</time>
      </trkpt>
      <trkpt lat="45.69734" lon="6.72161">
        <ele>1773.2</ele>
        <time>2020-08-07T09:15:35Z</time>
      </trkpt>
      <trkpt lat="45.69732" lon="6.72154">
        <ele>1773.5</ele>
        <time>2020-08-07T09:15:37Z</time>
      </trkpt>
      <trkpt lat="45.6973" lon="6.72148">
        <ele>1773.8</ele>
        <time>2020-08-07T09:15:38Z</time>
      </trkpt>
      <trkpt lat="45.6973" lon="6.72138">
        <ele>1774.2</ele>
        <time>2020-08-07T09:15:40Z</time>
      </trkpt>
      <trkpt lat="45.6973" lon="6.7213">
        <ele>1774.4</ele>
        <time>2020-08-07T09:15:42Z</time>
      </trkpt>
      <trkpt lat="45.69732" lon="6.72116">
        <ele>1774.9</ele>
        <time>2020-08-07T09:15:44Z</time>
      </trkpt>
      <trkpt lat="45.69733" lon="6.72109">
        <ele>1775.1</ele>
        <time>2020-08-07T09:15:47Z</time>
      </trkpt>
      <trkpt lat="45.69733" lon="6.72104">
        <ele>1775.3</ele>
        <time>2020-08-07T09:15:48Z</time>
      </trkpt>
      <trkpt lat="45.69734" lon="6.72094">
        <ele>1775.5</ele>
        <time>2020-08-07T09:15:49Z</time>
      </trkpt>
      <trkpt lat="45.69735" lon="6.72087">
        <ele>1775.7</ele>
        <time>2020-08-07T09:15:50Z</time>
      </trkpt>
      <trkpt lat="45.69736" lon="6.72082">
        <ele>1775.9</ele>
        <time>2020-08-07T09:15:51Z</time>
      </trkpt>
      <trkpt lat="45.69737" lon="6.72074">
        <ele>1776.1</ele>
        <time>2020-08-07T09:15:54Z</time>
      </trkpt>
      <trkpt lat="45.69738" lon="6.72065">
        <ele>1776.4</ele>
        <time>2020-08-07T09:15:55Z</time>
      </trkpt>
      <trkpt lat="45.69738" lon="6.72059">
        <ele>1776.6</ele>
        <time>2020-08-07T09:15:57Z</time>
      </trkpt>
      <trkpt lat="45.69739" lon="6.72053">
        <ele>1776.8</ele>
        <time>2020-08-07T09:15:58Z</time>
      </trkpt>
      <trkpt lat="45.69741" lon="6.72043">
        <ele>1777.2</ele>
        <time>2020-08-07T09:15:59Z</time>
      </trkpt>
      <trkpt lat="45.69742" lon="6.7203">
        <ele>1777.7</ele>
        <time>2020-08-07T09:16:01Z</time>
      </trkpt>
      <trkpt lat="45.69742" lon="6.72022">
        <ele>1778</ele>
        <time>2020-08-07T09:16:03Z</time>
      </trkpt>
      <trkpt lat="45.69743" lon="6.72015">
        <ele>1778.4</ele>
        <time>2020-08-07T09:16:05Z</time>
      </trkpt>
      <trkpt lat="45.69743" lon="6.72009">
        <ele>1778.6</ele>
        <time>2020-08-07T09:16:06Z</time>
      </trkpt>
      <trkpt lat="45.69743" lon="6.72">
        <ele>1779</ele>
        <time>2020-08-07T09:16:07Z</time>
      </trkpt>
      <trkpt lat="45.69744" lon="6.71993">
        <ele>1779.3</ele>
        <time>2020-08-07T09:16:09Z</time>
      </trkpt>
      <trkpt lat="45.69744" lon="6.71987">
        <ele>1779.6</ele>
        <time>2020-08-07T09:16:10Z</time>
      </trkpt>
      <trkpt lat="45.69743" lon="6.71982">
        <ele>1779.8</ele>
        <time>2020-08-07T09:16:11Z</time>
      </trkpt>
      <trkpt lat="45.69743" lon="6.71974">
        <ele>1780.2</ele>
        <time>2020-08-07T09:16:12Z</time>
      </trkpt>
      <trkpt lat="45.69741" lon="6.71966">
        <ele>1780.5</ele>
        <time>2020-08-07T09:16:14Z</time>
      </trkpt>
      <trkpt lat="45.6974" lon="6.71961">
        <ele>1780.7</ele>
        <time>2020-08-07T09:16:15Z</time>
      </trkpt>
      <trkpt lat="45.69737" lon="6.71953">
        <ele>1781.1</ele>
        <time>2020-08-07T09:16:16Z</time>
      </trkpt>
      <trkpt lat="45.69735" lon="6.71948">
        <ele>1781.4</ele>
        <time>2020-08-07T09:16:18Z</time>
      </trkpt>
      <trkpt lat="45.6973" lon="6.71939">
        <ele>1781.8</ele>
        <time>2020-08-07T09:16:19Z</time>
      </trkpt>
      <trkpt lat="45.69726" lon="6.71935">
        <ele>1782.1</ele>
        <time>2020-08-07T09:16:20Z</time>
      </trkpt>
      <trkpt lat="45.69723" lon="6.71932">
        <ele>1782.3</ele>
        <time>2020-08-07T09:16:22Z</time>
      </trkpt>
      <trkpt lat="45.69719" lon="6.71929">
        <ele>1782.6</ele>
        <time>2020-08-07T09:16:24Z</time>
      </trkpt>
      <trkpt lat="45.69712" lon="6.71924">
        <ele>1783</ele>
        <time>2020-08-07T09:16:25Z</time>
      </trkpt>
      <trkpt lat="45.69706" lon="6.71921">
        <ele>1783.4</ele>
        <time>2020-08-07T09:16:28Z</time>
      </trkpt>
      <trkpt lat="45.69698" lon="6.71917">
        <ele>1783.9</ele>
        <time>2020-08-07T09:16:29Z</time>
      </trkpt>
      <trkpt lat="45.6969" lon="6.71912">
        <ele>1784.4</ele>
        <time>2020-08-07T09:16:32Z</time>
      </trkpt>
      <trkpt lat="45.69681" lon="6.71906">
        <ele>1785</ele>
        <time>2020-08-07T09:16:35Z</time>
      </trkpt>
      <trkpt lat="45.69677" lon="6.71903">
        <ele>1785.3</ele>
        <time>2020-08-07T09:16:36Z</time>
      </trkpt>
      <trkpt lat="45.6967" lon="6.71899">
        <ele>1785.8</ele>
        <time>2020-08-07T09:16:39Z</time>
      </trkpt>
      <trkpt lat="45.69667" lon="6.71897">
        <ele>1786</ele>
        <time>2020-08-07T09:16:40Z</time>
      </trkpt>
      <trkpt lat="45.69663" lon="6.71895">
        <ele>1786.3</ele>
        <time>2020-08-07T09:16:41Z</time>
      </trkpt>
      <trkpt lat="45.69656" lon="6.71891">
        <ele>1786.8</ele>
        <time>2020-08-07T09:16:43Z</time>
      </trkpt>
      <trkpt lat="45.69651" lon="6.71887">
        <ele>1787.1</ele>
        <time>2020-08-07T09:16:45Z</time>
      </trkpt>
      <trkpt lat="45.69647" lon="6.71883">
        <ele>1787.4</ele>
        <time>2020-08-07T09:16:47Z</time>
      </trkpt>
      <trkpt lat="45.69644" lon="6.71882">
        <ele>1787.7</ele>
        <time>2020-08-07T09:16:48Z</time>
      </trkpt>
      <trkpt lat="45.69638" lon="6.71878">
        <ele>1788.1</ele>
        <time>2020-08-07T09:16:49Z</time>
      </trkpt>
      <trkpt lat="45.69634" lon="6.71876">
        <ele>1788.4</ele>
        <time>2020-08-07T09:16:51Z</time>
      </trkpt>
      <trkpt lat="45.69626" lon="6.71871">
        <ele>1788.9</ele>
        <time>2020-08-07T09:16:52Z</time>
      </trkpt>
      <trkpt lat="45.69621" lon="6.71868">
        <ele>1789.3</ele>
        <time>2020-08-07T09:16:54Z</time>
      </trkpt>
      <trkpt lat="45.69613" lon="6.71863">
        <ele>1789.8</ele>
        <time>2020-08-07T09:16:56Z</time>
      </trkpt>
      <trkpt lat="45.69609" lon="6.71861">
        <ele>1790.1</ele>
        <time>2020-08-07T09:16:58Z</time>
      </trkpt>
      <trkpt lat="45.69606" lon="6.71858">
        <ele>1790.2</ele>
        <time>2020-08-07T09:17:00Z</time>
      </trkpt>
      <trkpt lat="45.69603" lon="6.71856">
        <ele>1790.4</ele>
        <time>2020-08-07T09:17:01Z</time>
      </trkpt>
      <trkpt lat="45.696" lon="6.71854">
        <ele>1790.6</ele>
        <time>2020-08-07T09:17:02Z</time>
      </trkpt>
      <trkpt lat="45.69598" lon="6.71851">
        <ele>1790.8</ele>
        <time>2020-08-07T09:17:03Z</time>
      </trkpt>
      <trkpt lat="45.69594" lon="6.71846">
        <ele>1791.1</ele>
        <time>2020-08-07T09:17:04Z</time>
      </trkpt>
      <trkpt lat="45.69588" lon="6.71837">
        <ele>1791.6</ele>
        <time>2020-08-07T09:17:06Z</time>
      </trkpt>
      <trkpt lat="45.69585" lon="6.71832">
        <ele>1791.9</ele>
        <time>2020-08-07T09:17:07Z</time>
      </trkpt>
      <trkpt lat="45.69583" lon="6.71827">
        <ele>1792.1</ele>
        <time>2020-08-07T09:17:09Z</time>
      </trkpt>
      <trkpt lat="45.69581" lon="6.71822">
        <ele>1792.4</ele>
        <time>2020-08-07T09:17:10Z</time>
      </trkpt>
      <trkpt lat="45.69579" lon="6.71816">
        <ele>1792.7</ele>
        <time>2020-08-07T09:17:11Z</time>
      </trkpt>
      <trkpt lat="45.69577" lon="6.71809">
        <ele>1792.9</ele>
        <time>2020-08-07T09:17:13Z</time>
      </trkpt>
      <trkpt lat="45.69576" lon="6.71804">
        <ele>1793.3</ele>
        <time>2020-08-07T09:17:14Z</time>
      </trkpt>
      <trkpt lat="45.69575" lon="6.71799">
        <ele>1793.4</ele>
        <time>2020-08-07T09:17:16Z</time>
      </trkpt>
      <trkpt lat="45.69574" lon="6.7179">
        <ele>1793.7</ele>
        <time>2020-08-07T09:17:17Z</time>
      </trkpt>
      <trkpt lat="45.69573" lon="6.71782">
        <ele>1794</ele>
        <time>2020-08-07T09:17:19Z</time>
      </trkpt>
      <trkpt lat="45.69573" lon="6.71777">
        <ele>1794.1</ele>
        <time>2020-08-07T09:17:20Z</time>
      </trkpt>
      <trkpt lat="45.69572" lon="6.71769">
        <ele>1794.3</ele>
        <time>2020-08-07T09:17:21Z</time>
      </trkpt>
      <trkpt lat="45.69572" lon="6.71763">
        <ele>1794.5</ele>
        <time>2020-08-07T09:17:23Z</time>
      </trkpt>
      <trkpt lat="45.69572" lon="6.71755">
        <ele>1794.8</ele>
        <time>2020-08-07T09:17:24Z</time>
      </trkpt>
      <trkpt lat="45.69572" lon="6.71748">
        <ele>1795</ele>
        <time>2020-08-07T09:17:26Z</time>
      </trkpt>
      <trkpt lat="45.69572" lon="6.7174">
        <ele>1795.2</ele>
        <time>2020-08-07T09:17:27Z</time>
      </trkpt>
      <trkpt lat="45.69573" lon="6.71733">
        <ele>1795.4</ele>
        <time>2020-08-07T09:17:29Z</time>
      </trkpt>
      <trkpt lat="45.69574" lon="6.71725">
        <ele>1795.7</ele>
        <time>2020-08-07T09:17:30Z</time>
      </trkpt>
      <trkpt lat="45.69577" lon="6.71719">
        <ele>1795.9</ele>
        <time>2020-08-07T09:17:31Z</time>
      </trkpt>
      <trkpt lat="45.6958" lon="6.7171">
        <ele>1796.3</ele>
        <time>2020-08-07T09:17:34Z</time>
      </trkpt>
      <trkpt lat="45.69583" lon="6.71704">
        <ele>1796.5</ele>
        <time>2020-08-07T09:17:35Z</time>
      </trkpt>
      <trkpt lat="45.69586" lon="6.71698">
        <ele>1796.8</ele>
        <time>2020-08-07T09:17:37Z</time>
      </trkpt>
      <trkpt lat="45.69588" lon="6.71689">
        <ele>1797.1</ele>
        <time>2020-08-07T09:17:38Z</time>
      </trkpt>
      <trkpt lat="45.6959" lon="6.71682">
        <ele>1797.3</ele>
        <time>2020-08-07T09:17:40Z</time>
      </trkpt>
      <trkpt lat="45.69591" lon="6.71672">
        <ele>1797.6</ele>
        <time>2020-08-07T09:17:41Z</time>
      </trkpt>
      <trkpt lat="45.6959" lon="6.71666">
        <ele>1797.8</ele>
        <time>2020-08-07T09:17:43Z</time>
      </trkpt>
      <trkpt lat="45.69589" lon="6.71659">
        <ele>1798</ele>
        <time>2020-08-07T09:17:44Z</time>
      </trkpt>
      <trkpt lat="45.69582" lon="6.71646">
        <ele>1798.4</ele>
        <time>2020-08-07T09:17:46Z</time>
      </trkpt>
      <trkpt lat="45.69578" lon="6.71641">
        <ele>1798.7</ele>
        <time>2020-08-07T09:17:47Z</time>
      </trkpt>
      <trkpt lat="45.69572" lon="6.71636">
        <ele>1798.9</ele>
        <time>2020-08-07T09:17:49Z</time>
      </trkpt>
      <trkpt lat="45.69566" lon="6.71634">
        <ele>1799.2</ele>
        <time>2020-08-07T09:17:50Z</time>
      </trkpt>
      <trkpt lat="45.69562" lon="6.71631">
        <ele>1799.4</ele>
        <time>2020-08-07T09:17:51Z</time>
      </trkpt>
      <trkpt lat="45.69557" lon="6.71628">
        <ele>1799.7</ele>
        <time>2020-08-07T09:17:53Z</time>
      </trkpt>
      <trkpt lat="45.69552" lon="6.71628">
        <ele>1799.9</ele>
        <time>2020-08-07T09:17:54Z</time>
      </trkpt>
      <trkpt lat="45.69547" lon="6.71628">
        <ele>1800.1</ele>
        <time>2020-08-07T09:17:55Z</time>
      </trkpt>
      <trkpt lat="45.69542" lon="6.71629">
        <ele>1800.4</ele>
        <time>2020-08-07T09:17:57Z</time>
      </trkpt>
      <trkpt lat="45.69534" lon="6.71632">
        <ele>1800.9</ele>
        <time>2020-08-07T09:17:59Z</time>
      </trkpt>
      <trkpt lat="45.69529" lon="6.71635">
        <ele>1801.1</ele>
        <time>2020-08-07T09:18:01Z</time>
      </trkpt>
      <trkpt lat="45.69524" lon="6.71637">
        <ele>1801.4</ele>
        <time>2020-08-07T09:18:03Z</time>
      </trkpt>
      <trkpt lat="45.69519" lon="6.71639">
        <ele>1801.8</ele>
        <time>2020-08-07T09:18:04Z</time>
      </trkpt>
      <trkpt lat="45.6951" lon="6.71645">
        <ele>1802.4</ele>
        <time>2020-08-07T09:18:06Z</time>
      </trkpt>
      <trkpt lat="45.69503" lon="6.71649">
        <ele>1802.9</ele>
        <time>2020-08-07T09:18:09Z</time>
      </trkpt>
      <trkpt lat="45.69501" lon="6.71651">
        <ele>1803.1</ele>
        <time>2020-08-07T09:18:10Z</time>
      </trkpt>
      <trkpt lat="45.69497" lon="6.71653">
        <ele>1803.4</ele>
        <time>2020-08-07T09:18:12Z</time>
      </trkpt>
      <trkpt lat="45.6949" lon="6.71657">
        <ele>1803.8</ele>
        <time>2020-08-07T09:18:14Z</time>
      </trkpt>
      <trkpt lat="45.69484" lon="6.71659">
        <ele>1804.2</ele>
        <time>2020-08-07T09:18:15Z</time>
      </trkpt>
      <trkpt lat="45.69481" lon="6.7166">
        <ele>1804.5</ele>
        <time>2020-08-07T09:18:16Z</time>
      </trkpt>
      <trkpt lat="45.69476" lon="6.71661">
        <ele>1804.7</ele>
        <time>2020-08-07T09:18:18Z</time>
      </trkpt>
      <trkpt lat="45.69471" lon="6.7166">
        <ele>1805.1</ele>
        <time>2020-08-07T09:18:19Z</time>
      </trkpt>
      <trkpt lat="45.69464" lon="6.71656">
        <ele>1805.5</ele>
        <time>2020-08-07T09:18:21Z</time>
      </trkpt>
      <trkpt lat="45.69458" lon="6.71652">
        <ele>1805.8</ele>
        <time>2020-08-07T09:18:23Z</time>
      </trkpt>
      <trkpt lat="45.69454" lon="6.71646">
        <ele>1806.1</ele>
        <time>2020-08-07T09:18:25Z</time>
      </trkpt>
      <trkpt lat="45.69451" lon="6.71642">
        <ele>1806.4</ele>
        <time>2020-08-07T09:18:27Z</time>
      </trkpt>
      <trkpt lat="45.69447" lon="6.71636">
        <ele>1806.7</ele>
        <time>2020-08-07T09:18:28Z</time>
      </trkpt>
      <trkpt lat="45.69441" lon="6.71625">
        <ele>1807.1</ele>
        <time>2020-08-07T09:18:30Z</time>
      </trkpt>
      <trkpt lat="45.69439" lon="6.71619">
        <ele>1807.2</ele>
        <time>2020-08-07T09:18:32Z</time>
      </trkpt>
      <trkpt lat="45.69435" lon="6.71607">
        <ele>1807.6</ele>
        <time>2020-08-07T09:18:34Z</time>
      </trkpt>
      <trkpt lat="45.69434" lon="6.716">
        <ele>1807.8</ele>
        <time>2020-08-07T09:18:36Z</time>
      </trkpt>
      <trkpt lat="45.69434" lon="6.71595">
        <ele>1807.9</ele>
        <time>2020-08-07T09:18:37Z</time>
      </trkpt>
      <trkpt lat="45.69434" lon="6.71588">
        <ele>1808.1</ele>
        <time>2020-08-07T09:18:38Z</time>
      </trkpt>
      <trkpt lat="45.69435" lon="6.71581">
        <ele>1808.3</ele>
        <time>2020-08-07T09:18:39Z</time>
      </trkpt>
      <trkpt lat="45.69437" lon="6.71574">
        <ele>1808.5</ele>
        <time>2020-08-07T09:18:42Z</time>
      </trkpt>
      <trkpt lat="45.6944" lon="6.71564">
        <ele>1808.8</ele>
        <time>2020-08-07T09:18:43Z</time>
      </trkpt>
      <trkpt lat="45.69442" lon="6.71556">
        <ele>1808.9</ele>
        <time>2020-08-07T09:18:45Z</time>
      </trkpt>
      <trkpt lat="45.69444" lon="6.71551">
        <ele>1808.9</ele>
        <time>2020-08-07T09:18:47Z</time>
      </trkpt>
      <trkpt lat="45.69445" lon="6.71546">
        <ele>1809</ele>
        <time>2020-08-07T09:18:48Z</time>
      </trkpt>
      <trkpt lat="45.69448" lon="6.71537">
        <ele>1809.1</ele>
        <time>2020-08-07T09:18:50Z</time>
      </trkpt>
      <trkpt lat="45.69449" lon="6.71529">
        <ele>1809.3</ele>
        <time>2020-08-07T09:18:51Z</time>
      </trkpt>
      <trkpt lat="45.69451" lon="6.71516">
        <ele>1809.5</ele>
        <time>2020-08-07T09:18:53Z</time>
      </trkpt>
      <trkpt lat="45.69451" lon="6.71508">
        <ele>1809.7</ele>
        <time>2020-08-07T09:18:56Z</time>
      </trkpt>
      <trkpt lat="45.69452" lon="6.71499">
        <ele>1809.9</ele>
        <time>2020-08-07T09:18:57Z</time>
      </trkpt>
      <trkpt lat="45.69451" lon="6.7149">
        <ele>1810.1</ele>
        <time>2020-08-07T09:18:59Z</time>
      </trkpt>
      <trkpt lat="45.69451" lon="6.71482">
        <ele>1810.3</ele>
        <time>2020-08-07T09:19:01Z</time>
      </trkpt>
      <trkpt lat="45.6945" lon="6.71473">
        <ele>1810.5</ele>
        <time>2020-08-07T09:19:03Z</time>
      </trkpt>
      <trkpt lat="45.69449" lon="6.71468">
        <ele>1810.7</ele>
        <time>2020-08-07T09:19:04Z</time>
      </trkpt>
      <trkpt lat="45.69447" lon="6.71455">
        <ele>1811.1</ele>
        <time>2020-08-07T09:19:05Z</time>
      </trkpt>
      <trkpt lat="45.69446" lon="6.7145">
        <ele>1811.2</ele>
        <time>2020-08-07T09:19:06Z</time>
      </trkpt>
      <trkpt lat="45.69445" lon="6.71444">
        <ele>1811.4</ele>
        <time>2020-08-07T09:19:07Z</time>
      </trkpt>
      <trkpt lat="45.69442" lon="6.71431">
        <ele>1811.8</ele>
        <time>2020-08-07T09:19:10Z</time>
      </trkpt>
      <trkpt lat="45.69441" lon="6.71425">
        <ele>1812</ele>
        <time>2020-08-07T09:19:11Z</time>
      </trkpt>
      <trkpt lat="45.69436" lon="6.71411">
        <ele>1812.5</ele>
        <time>2020-08-07T09:19:14Z</time>
      </trkpt>
      <trkpt lat="45.69434" lon="6.71405">
        <ele>1812.7</ele>
        <time>2020-08-07T09:19:16Z</time>
      </trkpt>
      <trkpt lat="45.69433" lon="6.71401">
        <ele>1812.9</ele>
        <time>2020-08-07T09:19:18Z</time>
      </trkpt>
      <trkpt lat="45.69431" lon="6.71396">
        <ele>1813</ele>
        <time>2020-08-07T09:19:19Z</time>
      </trkpt>
      <trkpt lat="45.69428" lon="6.71389">
        <ele>1813.3</ele>
        <time>2020-08-07T09:19:20Z</time>
      </trkpt>
      <trkpt lat="45.69426" lon="6.71385">
        <ele>1813.5</ele>
        <time>2020-08-07T09:19:21Z</time>
      </trkpt>
      <trkpt lat="45.69423" lon="6.71376">
        <ele>1813.9</ele>
        <time>2020-08-07T09:19:23Z</time>
      </trkpt>
      <trkpt lat="45.6942" lon="6.71369">
        <ele>1814.2</ele>
        <time>2020-08-07T09:19:25Z</time>
      </trkpt>
      <trkpt lat="45.69419" lon="6.71364">
        <ele>1814.4</ele>
        <time>2020-08-07T09:19:26Z</time>
      </trkpt>
      <trkpt lat="45.69418" lon="6.71361">
        <ele>1814.5</ele>
        <time>2020-08-07T09:19:27Z</time>
      </trkpt>
      <trkpt lat="45.69416" lon="6.71356">
        <ele>1814.8</ele>
        <time>2020-08-07T09:19:28Z</time>
      </trkpt>
      <trkpt lat="45.69412" lon="6.71345">
        <ele>1815.2</ele>
        <time>2020-08-07T09:19:31Z</time>
      </trkpt>
      <trkpt lat="45.69409" lon="6.71337">
        <ele>1815.6</ele>
        <time>2020-08-07T09:19:33Z</time>
      </trkpt>
      <trkpt lat="45.69408" lon="6.71332">
        <ele>1815.8</ele>
        <time>2020-08-07T09:19:34Z</time>
      </trkpt>
      <trkpt lat="45.69407" lon="6.71328">
        <ele>1816</ele>
        <time>2020-08-07T09:19:35Z</time>
      </trkpt>
      <trkpt lat="45.69406" lon="6.71325">
        <ele>1816.2</ele>
        <time>2020-08-07T09:19:36Z</time>
      </trkpt>
      <trkpt lat="45.69404" lon="6.71321">
        <ele>1816.4</ele>
        <time>2020-08-07T09:19:37Z</time>
      </trkpt>
      <trkpt lat="45.69403" lon="6.71317">
        <ele>1816.5</ele>
        <time>2020-08-07T09:19:39Z</time>
      </trkpt>
      <trkpt lat="45.69402" lon="6.71313">
        <ele>1816.7</ele>
        <time>2020-08-07T09:19:40Z</time>
      </trkpt>
      <trkpt lat="45.69401" lon="6.71309">
        <ele>1816.9</ele>
        <time>2020-08-07T09:19:41Z</time>
      </trkpt>
      <trkpt lat="45.694" lon="6.71305">
        <ele>1817.1</ele>
        <time>2020-08-07T09:19:42Z</time>
      </trkpt>
      <trkpt lat="45.69399" lon="6.71301">
        <ele>1817.3</ele>
        <time>2020-08-07T09:19:43Z</time>
      </trkpt>
      <trkpt lat="45.69398" lon="6.71297">
        <ele>1817.4</ele>
        <time>2020-08-07T09:19:44Z</time>
      </trkpt>
      <trkpt lat="45.69398" lon="6.71293">
        <ele>1817.6</ele>
        <time>2020-08-07T09:19:45Z</time>
      </trkpt>
      <trkpt lat="45.69397" lon="6.71287">
        <ele>1817.8</ele>
        <time>2020-08-07T09:19:46Z</time>
      </trkpt>
      <trkpt lat="45.69394" lon="6.71276">
        <ele>1818.3</ele>
        <time>2020-08-07T09:19:49Z</time>
      </trkpt>
      <trkpt lat="45.69394" lon="6.7127">
        <ele>1818.5</ele>
        <time>2020-08-07T09:19:51Z</time>
      </trkpt>
      <trkpt lat="45.69393" lon="6.71264">
        <ele>1818.8</ele>
        <time>2020-08-07T09:19:53Z</time>
      </trkpt>
      <trkpt lat="45.69392" lon="6.71257">
        <ele>1819.1</ele>
        <time>2020-08-07T09:19:54Z</time>
      </trkpt>
      <trkpt lat="45.69391" lon="6.71251">
        <ele>1819.3</ele>
        <time>2020-08-07T09:19:56Z</time>
      </trkpt>
      <trkpt lat="45.6939" lon="6.71242">
        <ele>1819.7</ele>
        <time>2020-08-07T09:19:57Z</time>
      </trkpt>
      <trkpt lat="45.6939" lon="6.71235">
        <ele>1820</ele>
        <time>2020-08-07T09:19:58Z</time>
      </trkpt>
      <trkpt lat="45.69388" lon="6.71223">
        <ele>1820.5</ele>
        <time>2020-08-07T09:20:01Z</time>
      </trkpt>
      <trkpt lat="45.69387" lon="6.71216">
        <ele>1820.7</ele>
        <time>2020-08-07T09:20:03Z</time>
      </trkpt>
      <trkpt lat="45.69386" lon="6.71209">
        <ele>1821</ele>
        <time>2020-08-07T09:20:05Z</time>
      </trkpt>
      <trkpt lat="45.69386" lon="6.712">
        <ele>1821.4</ele>
        <time>2020-08-07T09:20:07Z</time>
      </trkpt>
      <trkpt lat="45.69385" lon="6.71193">
        <ele>1821.6</ele>
        <time>2020-08-07T09:20:08Z</time>
      </trkpt>
      <trkpt lat="45.69384" lon="6.71187">
        <ele>1821.9</ele>
        <time>2020-08-07T09:20:10Z</time>
      </trkpt>
      <trkpt lat="45.69383" lon="6.71183">
        <ele>1822.1</ele>
        <time>2020-08-07T09:20:11Z</time>
      </trkpt>
      <trkpt lat="45.69383" lon="6.71176">
        <ele>1822.4</ele>
        <time>2020-08-07T09:20:12Z</time>
      </trkpt>
      <trkpt lat="45.69382" lon="6.71171">
        <ele>1822.6</ele>
        <time>2020-08-07T09:20:14Z</time>
      </trkpt>
      <trkpt lat="45.69381" lon="6.71167">
        <ele>1822.8</ele>
        <time>2020-08-07T09:20:15Z</time>
      </trkpt>
      <trkpt lat="45.69381" lon="6.71162">
        <ele>1823</ele>
        <time>2020-08-07T09:20:16Z</time>
      </trkpt>
      <trkpt lat="45.6938" lon="6.71156">
        <ele>1823.3</ele>
        <time>2020-08-07T09:20:17Z</time>
      </trkpt>
      <trkpt lat="45.69379" lon="6.71145">
        <ele>1823.8</ele>
        <time>2020-08-07T09:20:19Z</time>
      </trkpt>
      <trkpt lat="45.69378" lon="6.71139">
        <ele>1824.1</ele>
        <time>2020-08-07T09:20:21Z</time>
      </trkpt>
      <trkpt lat="45.69377" lon="6.71134">
        <ele>1824.4</ele>
        <time>2020-08-07T09:20:22Z</time>
      </trkpt>
      <trkpt lat="45.69377" lon="6.71128">
        <ele>1824.7</ele>
        <time>2020-08-07T09:20:24Z</time>
      </trkpt>
      <trkpt lat="45.69376" lon="6.71122">
        <ele>1825</ele>
        <time>2020-08-07T09:20:25Z</time>
      </trkpt>
      <trkpt lat="45.69375" lon="6.71117">
        <ele>1825.3</ele>
        <time>2020-08-07T09:20:27Z</time>
      </trkpt>
      <trkpt lat="45.69375" lon="6.71112">
        <ele>1825.6</ele>
        <time>2020-08-07T09:20:28Z</time>
      </trkpt>
      <trkpt lat="45.69375" lon="6.7111">
        <ele>1825.7</ele>
        <time>2020-08-07T09:20:29Z</time>
      </trkpt>
      <trkpt lat="45.69375" lon="6.71106">
        <ele>1825.9</ele>
        <time>2020-08-07T09:20:30Z</time>
      </trkpt>
      <trkpt lat="45.69374" lon="6.71103">
        <ele>1826.1</ele>
        <time>2020-08-07T09:20:31Z</time>
      </trkpt>
      <trkpt lat="45.69374" lon="6.71098">
        <ele>1826.3</ele>
        <time>2020-08-07T09:20:33Z</time>
      </trkpt>
      <trkpt lat="45.69374" lon="6.71095">
        <ele>1826.6</ele>
        <time>2020-08-07T09:20:34Z</time>
      </trkpt>
      <trkpt lat="45.69372" lon="6.71086">
        <ele>1827</ele>
        <time>2020-08-07T09:20:35Z</time>
      </trkpt>
      <trkpt lat="45.69372" lon="6.71081">
        <ele>1827.3</ele>
        <time>2020-08-07T09:20:37Z</time>
      </trkpt>
      <trkpt lat="45.69372" lon="6.71076">
        <ele>1827.6</ele>
        <time>2020-08-07T09:20:38Z</time>
      </trkpt>
      <trkpt lat="45.69371" lon="6.7107">
        <ele>1828</ele>
        <time>2020-08-07T09:20:39Z</time>
      </trkpt>
      <trkpt lat="45.6937" lon="6.7106">
        <ele>1828.5</ele>
        <time>2020-08-07T09:20:42Z</time>
      </trkpt>
      <trkpt lat="45.69369" lon="6.71056">
        <ele>1828.8</ele>
        <time>2020-08-07T09:20:43Z</time>
      </trkpt>
      <trkpt lat="45.69369" lon="6.71051">
        <ele>1829.1</ele>
        <time>2020-08-07T09:20:45Z</time>
      </trkpt>
      <trkpt lat="45.69368" lon="6.7104">
        <ele>1829.8</ele>
        <time>2020-08-07T09:20:47Z</time>
      </trkpt>
      <trkpt lat="45.69368" lon="6.71034">
        <ele>1830.2</ele>
        <time>2020-08-07T09:20:49Z</time>
      </trkpt>
      <trkpt lat="45.69366" lon="6.71025">
        <ele>1830.8</ele>
        <time>2020-08-07T09:20:51Z</time>
      </trkpt>
      <trkpt lat="45.69366" lon="6.71019">
        <ele>1831.2</ele>
        <time>2020-08-07T09:20:53Z</time>
      </trkpt>
      <trkpt lat="45.69365" lon="6.71014">
        <ele>1831.5</ele>
        <time>2020-08-07T09:20:55Z</time>
      </trkpt>
      <trkpt lat="45.69364" lon="6.71008">
        <ele>1831.9</ele>
        <time>2020-08-07T09:20:56Z</time>
      </trkpt>
      <trkpt lat="45.69362" lon="6.70997">
        <ele>1832.7</ele>
        <time>2020-08-07T09:20:58Z</time>
      </trkpt>
      <trkpt lat="45.69362" lon="6.70991">
        <ele>1833</ele>
        <time>2020-08-07T09:21:00Z</time>
      </trkpt>
      <trkpt lat="45.69361" lon="6.70987">
        <ele>1833.3</ele>
        <time>2020-08-07T09:21:02Z</time>
      </trkpt>
      <trkpt lat="45.6936" lon="6.70974">
        <ele>1834.1</ele>
        <time>2020-08-07T09:21:04Z</time>
      </trkpt>
      <trkpt lat="45.69359" lon="6.70968">
        <ele>1834.5</ele>
        <time>2020-08-07T09:21:06Z</time>
      </trkpt>
      <trkpt lat="45.69358" lon="6.70959">
        <ele>1835.1</ele>
        <time>2020-08-07T09:21:08Z</time>
      </trkpt>
      <trkpt lat="45.69357" lon="6.70955">
        <ele>1835.4</ele>
        <time>2020-08-07T09:21:09Z</time>
      </trkpt>
      <trkpt lat="45.69356" lon="6.70951">
        <ele>1835.6</ele>
        <time>2020-08-07T09:21:11Z</time>
      </trkpt>
      <trkpt lat="45.69355" lon="6.70947">
        <ele>1835.9</ele>
        <time>2020-08-07T09:21:12Z</time>
      </trkpt>
      <trkpt lat="45.69355" lon="6.70942">
        <ele>1836.3</ele>
        <time>2020-08-07T09:21:13Z</time>
      </trkpt>
      <trkpt lat="45.69354" lon="6.7094">
        <ele>1836.4</ele>
        <time>2020-08-07T09:21:14Z</time>
      </trkpt>
      <trkpt lat="45.69354" lon="6.70936">
        <ele>1836.7</ele>
        <time>2020-08-07T09:21:15Z</time>
      </trkpt>
      <trkpt lat="45.69354" lon="6.70932">
        <ele>1836.9</ele>
        <time>2020-08-07T09:21:16Z</time>
      </trkpt>
      <trkpt lat="45.69353" lon="6.70924">
        <ele>1837.5</ele>
        <time>2020-08-07T09:21:18Z</time>
      </trkpt>
      <trkpt lat="45.69352" lon="6.70918">
        <ele>1837.8</ele>
        <time>2020-08-07T09:21:19Z</time>
      </trkpt>
      <trkpt lat="45.69352" lon="6.70917">
        <ele>1837.9</ele>
        <time>2020-08-07T09:21:20Z</time>
      </trkpt>
      <trkpt lat="45.69352" lon="6.70913">
        <ele>1838.2</ele>
        <time>2020-08-07T09:21:21Z</time>
      </trkpt>
      <trkpt lat="45.69351" lon="6.7091">
        <ele>1838.4</ele>
        <time>2020-08-07T09:21:22Z</time>
      </trkpt>
      <trkpt lat="45.69351" lon="6.70905">
        <ele>1838.7</ele>
        <time>2020-08-07T09:21:25Z</time>
      </trkpt>
      <trkpt lat="45.6935" lon="6.70899">
        <ele>1839.1</ele>
        <time>2020-08-07T09:21:26Z</time>
      </trkpt>
      <trkpt lat="45.69349" lon="6.70891">
        <ele>1839.6</ele>
        <time>2020-08-07T09:21:28Z</time>
      </trkpt>
      <trkpt lat="45.69348" lon="6.70887">
        <ele>1839.9</ele>
        <time>2020-08-07T09:21:30Z</time>
      </trkpt>
      <trkpt lat="45.69348" lon="6.70882">
        <ele>1840.2</ele>
        <time>2020-08-07T09:21:31Z</time>
      </trkpt>
      <trkpt lat="45.69348" lon="6.70875">
        <ele>1840.6</ele>
        <time>2020-08-07T09:21:33Z</time>
      </trkpt>
      <trkpt lat="45.69347" lon="6.70868">
        <ele>1841.1</ele>
        <time>2020-08-07T09:21:35Z</time>
      </trkpt>
      <trkpt lat="45.69346" lon="6.70864">
        <ele>1841.4</ele>
        <time>2020-08-07T09:21:36Z</time>
      </trkpt>
      <trkpt lat="45.69345" lon="6.7086">
        <ele>1841.6</ele>
        <time>2020-08-07T09:21:37Z</time>
      </trkpt>
      <trkpt lat="45.69345" lon="6.70856">
        <ele>1841.9</ele>
        <time>2020-08-07T09:21:38Z</time>
      </trkpt>
      <trkpt lat="45.69344" lon="6.70851">
        <ele>1842.2</ele>
        <time>2020-08-07T09:21:40Z</time>
      </trkpt>
      <trkpt lat="45.69344" lon="6.70846">
        <ele>1842.5</ele>
        <time>2020-08-07T09:21:42Z</time>
      </trkpt>
      <trkpt lat="45.69344" lon="6.70841">
        <ele>1842.8</ele>
        <time>2020-08-07T09:21:43Z</time>
      </trkpt>
      <trkpt lat="45.69342" lon="6.70832">
        <ele>1843.4</ele>
        <time>2020-08-07T09:21:45Z</time>
      </trkpt>
      <trkpt lat="45.69342" lon="6.70824">
        <ele>1843.9</ele>
        <time>2020-08-07T09:21:47Z</time>
      </trkpt>
      <trkpt lat="45.69342" lon="6.70821">
        <ele>1844.1</ele>
        <time>2020-08-07T09:21:49Z</time>
      </trkpt>
      <trkpt lat="45.69341" lon="6.70818">
        <ele>1844.3</ele>
        <time>2020-08-07T09:21:50Z</time>
      </trkpt>
      <trkpt lat="45.6934" lon="6.70809">
        <ele>1844.8</ele>
        <time>2020-08-07T09:21:52Z</time>
      </trkpt>
      <trkpt lat="45.6934" lon="6.70805">
        <ele>1845</ele>
        <time>2020-08-07T09:21:53Z</time>
      </trkpt>
      <trkpt lat="45.69339" lon="6.708">
        <ele>1845.3</ele>
        <time>2020-08-07T09:21:56Z</time>
      </trkpt>
      <trkpt lat="45.69339" lon="6.70796">
        <ele>1845.5</ele>
        <time>2020-08-07T09:21:57Z</time>
      </trkpt>
      <trkpt lat="45.69338" lon="6.70789">
        <ele>1845.9</ele>
        <time>2020-08-07T09:21:58Z</time>
      </trkpt>
      <trkpt lat="45.69337" lon="6.70785">
        <ele>1846.1</ele>
        <time>2020-08-07T09:21:59Z</time>
      </trkpt>
      <trkpt lat="45.69336" lon="6.70777">
        <ele>1846.6</ele>
        <time>2020-08-07T09:22:01Z</time>
      </trkpt>
      <trkpt lat="45.69336" lon="6.70773">
        <ele>1846.8</ele>
        <time>2020-08-07T09:22:02Z</time>
      </trkpt>
      <trkpt lat="45.69336" lon="6.70769">
        <ele>1847</ele>
        <time>2020-08-07T09:22:03Z</time>
      </trkpt>
      <trkpt lat="45.69335" lon="6.70758">
        <ele>1847.6</ele>
        <time>2020-08-07T09:22:06Z</time>
      </trkpt>
      <trkpt lat="45.69334" lon="6.70754">
        <ele>1847.8</ele>
        <time>2020-08-07T09:22:07Z</time>
      </trkpt>
      <trkpt lat="45.69333" lon="6.70749">
        <ele>1848.1</ele>
        <time>2020-08-07T09:22:09Z</time>
      </trkpt>
      <trkpt lat="45.69332" lon="6.7074">
        <ele>1848.6</ele>
        <time>2020-08-07T09:22:11Z</time>
      </trkpt>
      <trkpt lat="45.69331" lon="6.70735">
        <ele>1848.8</ele>
        <time>2020-08-07T09:22:13Z</time>
      </trkpt>
      <trkpt lat="45.69331" lon="6.7073">
        <ele>1849</ele>
        <time>2020-08-07T09:22:14Z</time>
      </trkpt>
      <trkpt lat="45.6933" lon="6.70724">
        <ele>1849.3</ele>
        <time>2020-08-07T09:22:16Z</time>
      </trkpt>
      <trkpt lat="45.6933" lon="6.70718">
        <ele>1849.6</ele>
        <time>2020-08-07T09:22:17Z</time>
      </trkpt>
      <trkpt lat="45.69329" lon="6.7071">
        <ele>1849.9</ele>
        <time>2020-08-07T09:22:19Z</time>
      </trkpt>
      <trkpt lat="45.69328" lon="6.70706">
        <ele>1850.1</ele>
        <time>2020-08-07T09:22:21Z</time>
      </trkpt>
      <trkpt lat="45.69328" lon="6.70702">
        <ele>1850.3</ele>
        <time>2020-08-07T09:22:22Z</time>
      </trkpt>
      <trkpt lat="45.69327" lon="6.70698">
        <ele>1850.5</ele>
        <time>2020-08-07T09:22:23Z</time>
      </trkpt>
      <trkpt lat="45.69326" lon="6.70692">
        <ele>1850.7</ele>
        <time>2020-08-07T09:22:25Z</time>
      </trkpt>
      <trkpt lat="45.69325" lon="6.70682">
        <ele>1851.1</ele>
        <time>2020-08-07T09:22:27Z</time>
      </trkpt>
      <trkpt lat="45.69325" lon="6.70678">
        <ele>1851.3</ele>
        <time>2020-08-07T09:22:29Z</time>
      </trkpt>
      <trkpt lat="45.69324" lon="6.7067">
        <ele>1851.7</ele>
        <time>2020-08-07T09:22:31Z</time>
      </trkpt>
      <trkpt lat="45.69323" lon="6.70664">
        <ele>1851.9</ele>
        <time>2020-08-07T09:22:33Z</time>
      </trkpt>
      <trkpt lat="45.69322" lon="6.70653">
        <ele>1852.4</ele>
        <time>2020-08-07T09:22:35Z</time>
      </trkpt>
      <trkpt lat="45.69321" lon="6.70648">
        <ele>1852.7</ele>
        <time>2020-08-07T09:22:38Z</time>
      </trkpt>
      <trkpt lat="45.6932" lon="6.70641">
        <ele>1852.9</ele>
        <time>2020-08-07T09:22:39Z</time>
      </trkpt>
      <trkpt lat="45.69319" lon="6.70629">
        <ele>1853.4</ele>
        <time>2020-08-07T09:22:41Z</time>
      </trkpt>
      <trkpt lat="45.69319" lon="6.70625">
        <ele>1853.5</ele>
        <time>2020-08-07T09:22:43Z</time>
      </trkpt>
      <trkpt lat="45.69318" lon="6.70621">
        <ele>1853.7</ele>
        <time>2020-08-07T09:22:44Z</time>
      </trkpt>
      <trkpt lat="45.69317" lon="6.70616">
        <ele>1853.9</ele>
        <time>2020-08-07T09:22:46Z</time>
      </trkpt>
      <trkpt lat="45.69317" lon="6.70612">
        <ele>1854</ele>
        <time>2020-08-07T09:22:47Z</time>
      </trkpt>
      <trkpt lat="45.69316" lon="6.70602">
        <ele>1854.4</ele>
        <time>2020-08-07T09:22:48Z</time>
      </trkpt>
      <trkpt lat="45.69315" lon="6.70595">
        <ele>1854.6</ele>
        <time>2020-08-07T09:22:50Z</time>
      </trkpt>
      <trkpt lat="45.69314" lon="6.7059">
        <ele>1854.8</ele>
        <time>2020-08-07T09:22:51Z</time>
      </trkpt>
      <trkpt lat="45.69314" lon="6.70585">
        <ele>1855</ele>
        <time>2020-08-07T09:22:53Z</time>
      </trkpt>
      <trkpt lat="45.69312" lon="6.70573">
        <ele>1855.4</ele>
        <time>2020-08-07T09:22:54Z</time>
      </trkpt>
      <trkpt lat="45.69312" lon="6.70567">
        <ele>1855.5</ele>
        <time>2020-08-07T09:22:55Z</time>
      </trkpt>
      <trkpt lat="45.69311" lon="6.70562">
        <ele>1855.7</ele>
        <time>2020-08-07T09:22:56Z</time>
      </trkpt>
      <trkpt lat="45.6931" lon="6.70555">
        <ele>1855.9</ele>
        <time>2020-08-07T09:22:58Z</time>
      </trkpt>
      <trkpt lat="45.6931" lon="6.70549">
        <ele>1856.1</ele>
        <time>2020-08-07T09:22:59Z</time>
      </trkpt>
      <trkpt lat="45.69309" lon="6.70537">
        <ele>1856.4</ele>
        <time>2020-08-07T09:23:02Z</time>
      </trkpt>
      <trkpt lat="45.69308" lon="6.70533">
        <ele>1856.5</ele>
        <time>2020-08-07T09:23:03Z</time>
      </trkpt>
      <trkpt lat="45.69308" lon="6.70527">
        <ele>1856.6</ele>
        <time>2020-08-07T09:23:05Z</time>
      </trkpt>
      <trkpt lat="45.69307" lon="6.70522">
        <ele>1856.8</ele>
        <time>2020-08-07T09:23:06Z</time>
      </trkpt>
      <trkpt lat="45.69306" lon="6.70513">
        <ele>1857</ele>
        <time>2020-08-07T09:23:07Z</time>
      </trkpt>
      <trkpt lat="45.69305" lon="6.70507">
        <ele>1857.2</ele>
        <time>2020-08-07T09:23:09Z</time>
      </trkpt>
      <trkpt lat="45.69303" lon="6.70495">
        <ele>1857.6</ele>
        <time>2020-08-07T09:23:10Z</time>
      </trkpt>
      <trkpt lat="45.69302" lon="6.70486">
        <ele>1857.9</ele>
        <time>2020-08-07T09:23:13Z</time>
      </trkpt>
      <trkpt lat="45.693" lon="6.70475">
        <ele>1858.3</ele>
        <time>2020-08-07T09:23:15Z</time>
      </trkpt>
      <trkpt lat="45.69299" lon="6.70466">
        <ele>1858.6</ele>
        <time>2020-08-07T09:23:16Z</time>
      </trkpt>
      <trkpt lat="45.69298" lon="6.7046">
        <ele>1858.9</ele>
        <time>2020-08-07T09:23:18Z</time>
      </trkpt>
      <trkpt lat="45.69296" lon="6.70451">
        <ele>1859.4</ele>
        <time>2020-08-07T09:23:19Z</time>
      </trkpt>
      <trkpt lat="45.69294" lon="6.70441">
        <ele>1859.9</ele>
        <time>2020-08-07T09:23:21Z</time>
      </trkpt>
      <trkpt lat="45.69293" lon="6.70436">
        <ele>1860.2</ele>
        <time>2020-08-07T09:23:23Z</time>
      </trkpt>
      <trkpt lat="45.69292" lon="6.7043">
        <ele>1860.5</ele>
        <time>2020-08-07T09:23:24Z</time>
      </trkpt>
      <trkpt lat="45.69289" lon="6.70417">
        <ele>1861.2</ele>
        <time>2020-08-07T09:23:25Z</time>
      </trkpt>
      <trkpt lat="45.69288" lon="6.70411">
        <ele>1861.6</ele>
        <time>2020-08-07T09:23:27Z</time>
      </trkpt>
      <trkpt lat="45.69286" lon="6.70404">
        <ele>1862.1</ele>
        <time>2020-08-07T09:23:29Z</time>
      </trkpt>
      <trkpt lat="45.69284" lon="6.70398">
        <ele>1862.5</ele>
        <time>2020-08-07T09:23:30Z</time>
      </trkpt>
      <trkpt lat="45.69282" lon="6.70389">
        <ele>1863.1</ele>
        <time>2020-08-07T09:23:32Z</time>
      </trkpt>
      <trkpt lat="45.6928" lon="6.70385">
        <ele>1863.3</ele>
        <time>2020-08-07T09:23:33Z</time>
      </trkpt>
      <trkpt lat="45.69279" lon="6.70378">
        <ele>1863.8</ele>
        <time>2020-08-07T09:23:34Z</time>
      </trkpt>
      <trkpt lat="45.69276" lon="6.70369">
        <ele>1864.5</ele>
        <time>2020-08-07T09:23:37Z</time>
      </trkpt>
      <trkpt lat="45.69275" lon="6.70365">
        <ele>1864.8</ele>
        <time>2020-08-07T09:23:38Z</time>
      </trkpt>
      <trkpt lat="45.69272" lon="6.70358">
        <ele>1865.3</ele>
        <time>2020-08-07T09:23:40Z</time>
      </trkpt>
      <trkpt lat="45.69269" lon="6.70347">
        <ele>1866.3</ele>
        <time>2020-08-07T09:23:42Z</time>
      </trkpt>
      <trkpt lat="45.69268" lon="6.70341">
        <ele>1866.7</ele>
        <time>2020-08-07T09:23:44Z</time>
      </trkpt>
      <trkpt lat="45.69267" lon="6.70335">
        <ele>1867.2</ele>
        <time>2020-08-07T09:23:45Z</time>
      </trkpt>
      <trkpt lat="45.69266" lon="6.7033">
        <ele>1867.5</ele>
        <time>2020-08-07T09:23:47Z</time>
      </trkpt>
      <trkpt lat="45.69264" lon="6.70324">
        <ele>1867.9</ele>
        <time>2020-08-07T09:23:48Z</time>
      </trkpt>
      <trkpt lat="45.69263" lon="6.70321">
        <ele>1868.1</ele>
        <time>2020-08-07T09:23:49Z</time>
      </trkpt>
      <trkpt lat="45.69261" lon="6.70316">
        <ele>1868.3</ele>
        <time>2020-08-07T09:23:51Z</time>
      </trkpt>
      <trkpt lat="45.69259" lon="6.70311">
        <ele>1868.7</ele>
        <time>2020-08-07T09:23:52Z</time>
      </trkpt>
      <trkpt lat="45.69258" lon="6.70307">
        <ele>1868.9</ele>
        <time>2020-08-07T09:23:53Z</time>
      </trkpt>
      <trkpt lat="45.69257" lon="6.70303">
        <ele>1869.2</ele>
        <time>2020-08-07T09:23:54Z</time>
      </trkpt>
      <trkpt lat="45.69256" lon="6.70299">
        <ele>1869.5</ele>
        <time>2020-08-07T09:23:56Z</time>
      </trkpt>
      <trkpt lat="45.69254" lon="6.70295">
        <ele>1869.8</ele>
        <time>2020-08-07T09:23:57Z</time>
      </trkpt>
      <trkpt lat="45.69253" lon="6.70291">
        <ele>1870.1</ele>
        <time>2020-08-07T09:23:58Z</time>
      </trkpt>
      <trkpt lat="45.69251" lon="6.70287">
        <ele>1870.3</ele>
        <time>2020-08-07T09:24:00Z</time>
      </trkpt>
      <trkpt lat="45.6925" lon="6.70284">
        <ele>1870.5</ele>
        <time>2020-08-07T09:24:01Z</time>
      </trkpt>
      <trkpt lat="45.69248" lon="6.70275">
        <ele>1871.2</ele>
        <time>2020-08-07T09:24:03Z</time>
      </trkpt>
      <trkpt lat="45.69246" lon="6.70271">
        <ele>1871.4</ele>
        <time>2020-08-07T09:24:06Z</time>
      </trkpt>
      <trkpt lat="45.69245" lon="6.70266">
        <ele>1871.8</ele>
        <time>2020-08-07T09:24:07Z</time>
      </trkpt>
      <trkpt lat="45.69242" lon="6.70259">
        <ele>1872.3</ele>
        <time>2020-08-07T09:24:09Z</time>
      </trkpt>
      <trkpt lat="45.69241" lon="6.70256">
        <ele>1872.6</ele>
        <time>2020-08-07T09:24:10Z</time>
      </trkpt>
      <trkpt lat="45.6924" lon="6.70252">
        <ele>1872.9</ele>
        <time>2020-08-07T09:24:12Z</time>
      </trkpt>
      <trkpt lat="45.69238" lon="6.70247">
        <ele>1873.3</ele>
        <time>2020-08-07T09:24:13Z</time>
      </trkpt>
      <trkpt lat="45.69237" lon="6.70244">
        <ele>1873.5</ele>
        <time>2020-08-07T09:24:14Z</time>
      </trkpt>
      <trkpt lat="45.69236" lon="6.70241">
        <ele>1873.8</ele>
        <time>2020-08-07T09:24:15Z</time>
      </trkpt>
      <trkpt lat="45.69234" lon="6.70236">
        <ele>1874.2</ele>
        <time>2020-08-07T09:24:17Z</time>
      </trkpt>
      <trkpt lat="45.69234" lon="6.70235">
        <ele>1874.3</ele>
        <time>2020-08-07T09:24:18Z</time>
      </trkpt>
      <trkpt lat="45.69232" lon="6.70231">
        <ele>1874.6</ele>
        <time>2020-08-07T09:24:19Z</time>
      </trkpt>
      <trkpt lat="45.69232" lon="6.7023">
        <ele>1874.7</ele>
        <time>2020-08-07T09:24:20Z</time>
      </trkpt>
      <trkpt lat="45.69231" lon="6.70227">
        <ele>1875</ele>
        <time>2020-08-07T09:24:21Z</time>
      </trkpt>
      <trkpt lat="45.6923" lon="6.70224">
        <ele>1875.2</ele>
        <time>2020-08-07T09:24:23Z</time>
      </trkpt>
      <trkpt lat="45.69228" lon="6.70218">
        <ele>1875.7</ele>
        <time>2020-08-07T09:24:24Z</time>
      </trkpt>
      <trkpt lat="45.69227" lon="6.70215">
        <ele>1875.9</ele>
        <time>2020-08-07T09:24:25Z</time>
      </trkpt>
      <trkpt lat="45.69226" lon="6.70212">
        <ele>1876.2</ele>
        <time>2020-08-07T09:24:26Z</time>
      </trkpt>
      <trkpt lat="45.69225" lon="6.70207">
        <ele>1876.5</ele>
        <time>2020-08-07T09:24:27Z</time>
      </trkpt>
      <trkpt lat="45.69224" lon="6.70206">
        <ele>1876.7</ele>
        <time>2020-08-07T09:24:28Z</time>
      </trkpt>
      <trkpt lat="45.69222" lon="6.70202">
        <ele>1877</ele>
        <time>2020-08-07T09:24:30Z</time>
      </trkpt>
      <trkpt lat="45.69222" lon="6.70199">
        <ele>1877.2</ele>
        <time>2020-08-07T09:24:31Z</time>
      </trkpt>
      <trkpt lat="45.69222" lon="6.70196">
        <ele>1877.5</ele>
        <time>2020-08-07T09:24:33Z</time>
      </trkpt>
      <trkpt lat="45.6922" lon="6.70189">
        <ele>1878</ele>
        <time>2020-08-07T09:24:34Z</time>
      </trkpt>
      <trkpt lat="45.69219" lon="6.70183">
        <ele>1878.5</ele>
        <time>2020-08-07T09:24:36Z</time>
      </trkpt>
      <trkpt lat="45.69218" lon="6.70178">
        <ele>1878.9</ele>
        <time>2020-08-07T09:24:38Z</time>
      </trkpt>
      <trkpt lat="45.69217" lon="6.70175">
        <ele>1879.1</ele>
        <time>2020-08-07T09:24:39Z</time>
      </trkpt>
      <trkpt lat="45.69216" lon="6.7017">
        <ele>1879.5</ele>
        <time>2020-08-07T09:24:40Z</time>
      </trkpt>
      <trkpt lat="45.69216" lon="6.70168">
        <ele>1879.6</ele>
        <time>2020-08-07T09:24:41Z</time>
      </trkpt>
      <trkpt lat="45.69216" lon="6.70162">
        <ele>1880.1</ele>
        <time>2020-08-07T09:24:43Z</time>
      </trkpt>
      <trkpt lat="45.69215" lon="6.70158">
        <ele>1880.4</ele>
        <time>2020-08-07T09:24:44Z</time>
      </trkpt>
      <trkpt lat="45.69215" lon="6.70157">
        <ele>1880.5</ele>
        <time>2020-08-07T09:24:45Z</time>
      </trkpt>
      <trkpt lat="45.69215" lon="6.70154">
        <ele>1880.7</ele>
        <time>2020-08-07T09:24:46Z</time>
      </trkpt>
      <trkpt lat="45.69215" lon="6.70151">
        <ele>1881</ele>
        <time>2020-08-07T09:24:48Z</time>
      </trkpt>
      <trkpt lat="45.69215" lon="6.70146">
        <ele>1881.3</ele>
        <time>2020-08-07T09:24:49Z</time>
      </trkpt>
      <trkpt lat="45.69215" lon="6.70145">
        <ele>1881.5</ele>
        <time>2020-08-07T09:24:50Z</time>
      </trkpt>
      <trkpt lat="45.69215" lon="6.70138">
        <ele>1882</ele>
        <time>2020-08-07T09:24:52Z</time>
      </trkpt>
      <trkpt lat="45.69215" lon="6.70131">
        <ele>1882.5</ele>
        <time>2020-08-07T09:24:53Z</time>
      </trkpt>
      <trkpt lat="45.69215" lon="6.70126">
        <ele>1882.9</ele>
        <time>2020-08-07T09:24:54Z</time>
      </trkpt>
      <trkpt lat="45.69215" lon="6.70124">
        <ele>1883.1</ele>
        <time>2020-08-07T09:24:55Z</time>
      </trkpt>
      <trkpt lat="45.69215" lon="6.70121">
        <ele>1883.3</ele>
        <time>2020-08-07T09:24:56Z</time>
      </trkpt>
      <trkpt lat="45.69215" lon="6.70116">
        <ele>1883.7</ele>
        <time>2020-08-07T09:24:59Z</time>
      </trkpt>
      <trkpt lat="45.69216" lon="6.70111">
        <ele>1884.1</ele>
        <time>2020-08-07T09:25:00Z</time>
      </trkpt>
      <trkpt lat="45.69216" lon="6.70108">
        <ele>1884.3</ele>
        <time>2020-08-07T09:25:01Z</time>
      </trkpt>
      <trkpt lat="45.69216" lon="6.70103">
        <ele>1884.6</ele>
        <time>2020-08-07T09:25:02Z</time>
      </trkpt>
      <trkpt lat="45.69217" lon="6.70102">
        <ele>1884.7</ele>
        <time>2020-08-07T09:25:03Z</time>
      </trkpt>
      <trkpt lat="45.69217" lon="6.70096">
        <ele>1885.1</ele>
        <time>2020-08-07T09:25:05Z</time>
      </trkpt>
      <trkpt lat="45.69218" lon="6.7009">
        <ele>1885.6</ele>
        <time>2020-08-07T09:25:07Z</time>
      </trkpt>
      <trkpt lat="45.69219" lon="6.70087">
        <ele>1885.8</ele>
        <time>2020-08-07T09:25:08Z</time>
      </trkpt>
      <trkpt lat="45.6922" lon="6.70081">
        <ele>1886.2</ele>
        <time>2020-08-07T09:25:11Z</time>
      </trkpt>
      <trkpt lat="45.6922" lon="6.70078">
        <ele>1886.4</ele>
        <time>2020-08-07T09:25:12Z</time>
      </trkpt>
      <trkpt lat="45.69222" lon="6.70071">
        <ele>1886.8</ele>
        <time>2020-08-07T09:25:14Z</time>
      </trkpt>
      <trkpt lat="45.69223" lon="6.70066">
        <ele>1887.2</ele>
        <time>2020-08-07T09:25:15Z</time>
      </trkpt>
      <trkpt lat="45.69225" lon="6.70058">
        <ele>1887.8</ele>
        <time>2020-08-07T09:25:17Z</time>
      </trkpt>
      <trkpt lat="45.69226" lon="6.70055">
        <ele>1888</ele>
        <time>2020-08-07T09:25:18Z</time>
      </trkpt>
      <trkpt lat="45.69227" lon="6.7005">
        <ele>1888.3</ele>
        <time>2020-08-07T09:25:21Z</time>
      </trkpt>
      <trkpt lat="45.6923" lon="6.70044">
        <ele>1888.8</ele>
        <time>2020-08-07T09:25:22Z</time>
      </trkpt>
      <trkpt lat="45.69231" lon="6.70039">
        <ele>1889.1</ele>
        <time>2020-08-07T09:25:24Z</time>
      </trkpt>
      <trkpt lat="45.69233" lon="6.70035">
        <ele>1889.4</ele>
        <time>2020-08-07T09:25:26Z</time>
      </trkpt>
      <trkpt lat="45.69234" lon="6.70033">
        <ele>1889.5</ele>
        <time>2020-08-07T09:25:27Z</time>
      </trkpt>
      <trkpt lat="45.69237" lon="6.70027">
        <ele>1889.9</ele>
        <time>2020-08-07T09:25:28Z</time>
      </trkpt>
      <trkpt lat="45.69238" lon="6.70024">
        <ele>1890.1</ele>
        <time>2020-08-07T09:25:29Z</time>
      </trkpt>
      <trkpt lat="45.6924" lon="6.7002">
        <ele>1890.4</ele>
        <time>2020-08-07T09:25:31Z</time>
      </trkpt>
      <trkpt lat="45.69241" lon="6.70015">
        <ele>1890.7</ele>
        <time>2020-08-07T09:25:32Z</time>
      </trkpt>
      <trkpt lat="45.69243" lon="6.70011">
        <ele>1891</ele>
        <time>2020-08-07T09:25:34Z</time>
      </trkpt>
      <trkpt lat="45.69245" lon="6.70007">
        <ele>1891.3</ele>
        <time>2020-08-07T09:25:36Z</time>
      </trkpt>
      <trkpt lat="45.69247" lon="6.70004">
        <ele>1891.5</ele>
        <time>2020-08-07T09:25:37Z</time>
      </trkpt>
      <trkpt lat="45.69248" lon="6.7">
        <ele>1891.7</ele>
        <time>2020-08-07T09:25:39Z</time>
      </trkpt>
      <trkpt lat="45.6925" lon="6.69994">
        <ele>1892.1</ele>
        <time>2020-08-07T09:25:40Z</time>
      </trkpt>
      <trkpt lat="45.69252" lon="6.69989">
        <ele>1892.4</ele>
        <time>2020-08-07T09:25:41Z</time>
      </trkpt>
      <trkpt lat="45.69254" lon="6.69986">
        <ele>1892.7</ele>
        <time>2020-08-07T09:25:42Z</time>
      </trkpt>
      <trkpt lat="45.69256" lon="6.69982">
        <ele>1893</ele>
        <time>2020-08-07T09:25:44Z</time>
      </trkpt>
      <trkpt lat="45.69258" lon="6.69977">
        <ele>1893.3</ele>
        <time>2020-08-07T09:25:45Z</time>
      </trkpt>
      <trkpt lat="45.69258" lon="6.69976">
        <ele>1893.4</ele>
        <time>2020-08-07T09:25:46Z</time>
      </trkpt>
      <trkpt lat="45.6926" lon="6.69972">
        <ele>1893.7</ele>
        <time>2020-08-07T09:25:47Z</time>
      </trkpt>
      <trkpt lat="45.69261" lon="6.6997">
        <ele>1893.8</ele>
        <time>2020-08-07T09:25:48Z</time>
      </trkpt>
      <trkpt lat="45.69263" lon="6.69965">
        <ele>1894.1</ele>
        <time>2020-08-07T09:25:49Z</time>
      </trkpt>
      <trkpt lat="45.69265" lon="6.6996">
        <ele>1894.4</ele>
        <time>2020-08-07T09:25:52Z</time>
      </trkpt>
      <trkpt lat="45.69267" lon="6.69955">
        <ele>1894.8</ele>
        <time>2020-08-07T09:25:53Z</time>
      </trkpt>
      <trkpt lat="45.69269" lon="6.69952">
        <ele>1895</ele>
        <time>2020-08-07T09:25:54Z</time>
      </trkpt>
      <trkpt lat="45.69271" lon="6.69949">
        <ele>1895.3</ele>
        <time>2020-08-07T09:25:55Z</time>
      </trkpt>
      <trkpt lat="45.69272" lon="6.69945">
        <ele>1895.5</ele>
        <time>2020-08-07T09:25:56Z</time>
      </trkpt>
      <trkpt lat="45.69274" lon="6.69942">
        <ele>1895.7</ele>
        <time>2020-08-07T09:25:57Z</time>
      </trkpt>
      <trkpt lat="45.69277" lon="6.69934">
        <ele>1896.2</ele>
        <time>2020-08-07T09:25:59Z</time>
      </trkpt>
      <trkpt lat="45.69279" lon="6.69928">
        <ele>1896.7</ele>
        <time>2020-08-07T09:26:01Z</time>
      </trkpt>
      <trkpt lat="45.6928" lon="6.69926">
        <ele>1896.8</ele>
        <time>2020-08-07T09:26:02Z</time>
      </trkpt>
      <trkpt lat="45.69281" lon="6.69924">
        <ele>1897</ele>
        <time>2020-08-07T09:26:03Z</time>
      </trkpt>
      <trkpt lat="45.69283" lon="6.69919">
        <ele>1897.3</ele>
        <time>2020-08-07T09:26:04Z</time>
      </trkpt>
      <trkpt lat="45.69284" lon="6.69916">
        <ele>1897.6</ele>
        <time>2020-08-07T09:26:06Z</time>
      </trkpt>
      <trkpt lat="45.69286" lon="6.69911">
        <ele>1897.9</ele>
        <time>2020-08-07T09:26:08Z</time>
      </trkpt>
      <trkpt lat="45.69289" lon="6.69904">
        <ele>1898.4</ele>
        <time>2020-08-07T09:26:09Z</time>
      </trkpt>
      <trkpt lat="45.6929" lon="6.69901">
        <ele>1898.7</ele>
        <time>2020-08-07T09:26:10Z</time>
      </trkpt>
      <trkpt lat="45.69293" lon="6.69895">
        <ele>1899.1</ele>
        <time>2020-08-07T09:26:12Z</time>
      </trkpt>
      <trkpt lat="45.69296" lon="6.69887">
        <ele>1899.7</ele>
        <time>2020-08-07T09:26:14Z</time>
      </trkpt>
      <trkpt lat="45.69297" lon="6.69884">
        <ele>1899.9</ele>
        <time>2020-08-07T09:26:15Z</time>
      </trkpt>
      <trkpt lat="45.69299" lon="6.6988">
        <ele>1900.2</ele>
        <time>2020-08-07T09:26:16Z</time>
      </trkpt>
      <trkpt lat="45.69301" lon="6.69876">
        <ele>1900.5</ele>
        <time>2020-08-07T09:26:17Z</time>
      </trkpt>
      <trkpt lat="45.69302" lon="6.69874">
        <ele>1900.7</ele>
        <time>2020-08-07T09:26:18Z</time>
      </trkpt>
      <trkpt lat="45.69303" lon="6.6987">
        <ele>1901</ele>
        <time>2020-08-07T09:26:19Z</time>
      </trkpt>
      <trkpt lat="45.69304" lon="6.69868">
        <ele>1901.1</ele>
        <time>2020-08-07T09:26:20Z</time>
      </trkpt>
      <trkpt lat="45.69306" lon="6.69863">
        <ele>1901.4</ele>
        <time>2020-08-07T09:26:23Z</time>
      </trkpt>
      <trkpt lat="45.69307" lon="6.6986">
        <ele>1901.7</ele>
        <time>2020-08-07T09:26:24Z</time>
      </trkpt>
      <trkpt lat="45.69309" lon="6.69855">
        <ele>1902.1</ele>
        <time>2020-08-07T09:26:25Z</time>
      </trkpt>
      <trkpt lat="45.69311" lon="6.6985">
        <ele>1902.4</ele>
        <time>2020-08-07T09:26:27Z</time>
      </trkpt>
      <trkpt lat="45.69313" lon="6.69845">
        <ele>1902.8</ele>
        <time>2020-08-07T09:26:28Z</time>
      </trkpt>
      <trkpt lat="45.69314" lon="6.6984">
        <ele>1903.2</ele>
        <time>2020-08-07T09:26:29Z</time>
      </trkpt>
      <trkpt lat="45.69315" lon="6.69838">
        <ele>1903.3</ele>
        <time>2020-08-07T09:26:30Z</time>
      </trkpt>
      <trkpt lat="45.69317" lon="6.69834">
        <ele>1903.7</ele>
        <time>2020-08-07T09:26:31Z</time>
      </trkpt>
      <trkpt lat="45.69318" lon="6.69832">
        <ele>1903.8</ele>
        <time>2020-08-07T09:26:32Z</time>
      </trkpt>
      <trkpt lat="45.69319" lon="6.69828">
        <ele>1904.1</ele>
        <time>2020-08-07T09:26:33Z</time>
      </trkpt>
      <trkpt lat="45.69321" lon="6.69825">
        <ele>1904.4</ele>
        <time>2020-08-07T09:26:34Z</time>
      </trkpt>
      <trkpt lat="45.69324" lon="6.69818">
        <ele>1904.9</ele>
        <time>2020-08-07T09:26:36Z</time>
      </trkpt>
      <trkpt lat="45.69326" lon="6.69814">
        <ele>1905.2</ele>
        <time>2020-08-07T09:26:37Z</time>
      </trkpt>
      <trkpt lat="45.69328" lon="6.69809">
        <ele>1905.5</ele>
        <time>2020-08-07T09:26:38Z</time>
      </trkpt>
      <trkpt lat="45.69329" lon="6.69807">
        <ele>1905.7</ele>
        <time>2020-08-07T09:26:39Z</time>
      </trkpt>
      <trkpt lat="45.69331" lon="6.69804">
        <ele>1906</ele>
        <time>2020-08-07T09:26:40Z</time>
      </trkpt>
      <trkpt lat="45.69333" lon="6.69799">
        <ele>1906.3</ele>
        <time>2020-08-07T09:26:42Z</time>
      </trkpt>
      <trkpt lat="45.69334" lon="6.69798">
        <ele>1906.4</ele>
        <time>2020-08-07T09:26:43Z</time>
      </trkpt>
      <trkpt lat="45.69336" lon="6.69794">
        <ele>1906.6</ele>
        <time>2020-08-07T09:26:45Z</time>
      </trkpt>
      <trkpt lat="45.69338" lon="6.69789">
        <ele>1906.9</ele>
        <time>2020-08-07T09:26:46Z</time>
      </trkpt>
      <trkpt lat="45.6934" lon="6.69784">
        <ele>1907.2</ele>
        <time>2020-08-07T09:26:47Z</time>
      </trkpt>
      <trkpt lat="45.69341" lon="6.69782">
        <ele>1907.4</ele>
        <time>2020-08-07T09:26:48Z</time>
      </trkpt>
      <trkpt lat="45.69343" lon="6.69779">
        <ele>1907.6</ele>
        <time>2020-08-07T09:26:50Z</time>
      </trkpt>
      <trkpt lat="45.69346" lon="6.69771">
        <ele>1908.2</ele>
        <time>2020-08-07T09:26:52Z</time>
      </trkpt>
      <trkpt lat="45.69348" lon="6.69767">
        <ele>1908.4</ele>
        <time>2020-08-07T09:26:54Z</time>
      </trkpt>
      <trkpt lat="45.6935" lon="6.69761">
        <ele>1908.8</ele>
        <time>2020-08-07T09:26:55Z</time>
      </trkpt>
      <trkpt lat="45.69351" lon="6.69756">
        <ele>1909.1</ele>
        <time>2020-08-07T09:26:57Z</time>
      </trkpt>
      <trkpt lat="45.69353" lon="6.69752">
        <ele>1909.4</ele>
        <time>2020-08-07T09:26:59Z</time>
      </trkpt>
      <trkpt lat="45.69354" lon="6.69748">
        <ele>1909.7</ele>
        <time>2020-08-07T09:27:00Z</time>
      </trkpt>
      <trkpt lat="45.69356" lon="6.69742">
        <ele>1910.1</ele>
        <time>2020-08-07T09:27:02Z</time>
      </trkpt>
      <trkpt lat="45.69358" lon="6.69734">
        <ele>1910.7</ele>
        <time>2020-08-07T09:27:03Z</time>
      </trkpt>
      <trkpt lat="45.69359" lon="6.6973">
        <ele>1911</ele>
        <time>2020-08-07T09:27:04Z</time>
      </trkpt>
      <trkpt lat="45.69362" lon="6.6972">
        <ele>1911.6</ele>
        <time>2020-08-07T09:27:07Z</time>
      </trkpt>
      <trkpt lat="45.69363" lon="6.69714">
        <ele>1912</ele>
        <time>2020-08-07T09:27:09Z</time>
      </trkpt>
      <trkpt lat="45.69364" lon="6.6971">
        <ele>1912.4</ele>
        <time>2020-08-07T09:27:11Z</time>
      </trkpt>
      <trkpt lat="45.69365" lon="6.69706">
        <ele>1912.6</ele>
        <time>2020-08-07T09:27:12Z</time>
      </trkpt>
      <trkpt lat="45.69367" lon="6.69699">
        <ele>1913.1</ele>
        <time>2020-08-07T09:27:13Z</time>
      </trkpt>
      <trkpt lat="45.69368" lon="6.69696">
        <ele>1913.4</ele>
        <time>2020-08-07T09:27:14Z</time>
      </trkpt>
      <trkpt lat="45.69369" lon="6.69692">
        <ele>1913.6</ele>
        <time>2020-08-07T09:27:15Z</time>
      </trkpt>
      <trkpt lat="45.69371" lon="6.69683">
        <ele>1914.3</ele>
        <time>2020-08-07T09:27:17Z</time>
      </trkpt>
      <trkpt lat="45.69373" lon="6.69677">
        <ele>1914.8</ele>
        <time>2020-08-07T09:27:19Z</time>
      </trkpt>
      <trkpt lat="45.69375" lon="6.69668">
        <ele>1915.5</ele>
        <time>2020-08-07T09:27:21Z</time>
      </trkpt>
      <trkpt lat="45.69375" lon="6.69664">
        <ele>1915.8</ele>
        <time>2020-08-07T09:27:22Z</time>
      </trkpt>
      <trkpt lat="45.69377" lon="6.69658">
        <ele>1916.3</ele>
        <time>2020-08-07T09:27:24Z</time>
      </trkpt>
      <trkpt lat="45.69378" lon="6.69649">
        <ele>1917</ele>
        <time>2020-08-07T09:27:26Z</time>
      </trkpt>
      <trkpt lat="45.6938" lon="6.6964">
        <ele>1917.8</ele>
        <time>2020-08-07T09:27:29Z</time>
      </trkpt>
      <trkpt lat="45.6938" lon="6.69637">
        <ele>1918.1</ele>
        <time>2020-08-07T09:27:30Z</time>
      </trkpt>
      <trkpt lat="45.69381" lon="6.69631">
        <ele>1918.6</ele>
        <time>2020-08-07T09:27:31Z</time>
      </trkpt>
      <trkpt lat="45.69383" lon="6.69621">
        <ele>1919.4</ele>
        <time>2020-08-07T09:27:34Z</time>
      </trkpt>
      <trkpt lat="45.69383" lon="6.69616">
        <ele>1919.8</ele>
        <time>2020-08-07T09:27:35Z</time>
      </trkpt>
      <trkpt lat="45.69383" lon="6.69611">
        <ele>1920.2</ele>
        <time>2020-08-07T09:27:37Z</time>
      </trkpt>
      <trkpt lat="45.69384" lon="6.69603">
        <ele>1920.9</ele>
        <time>2020-08-07T09:27:39Z</time>
      </trkpt>
      <trkpt lat="45.69385" lon="6.69598">
        <ele>1921.3</ele>
        <time>2020-08-07T09:27:40Z</time>
      </trkpt>
      <trkpt lat="45.69385" lon="6.69593">
        <ele>1921.6</ele>
        <time>2020-08-07T09:27:42Z</time>
      </trkpt>
      <trkpt lat="45.69386" lon="6.69584">
        <ele>1922.3</ele>
        <time>2020-08-07T09:27:44Z</time>
      </trkpt>
      <trkpt lat="45.69387" lon="6.6958">
        <ele>1922.6</ele>
        <time>2020-08-07T09:27:46Z</time>
      </trkpt>
      <trkpt lat="45.69387" lon="6.69575">
        <ele>1923.1</ele>
        <time>2020-08-07T09:27:47Z</time>
      </trkpt>
      <trkpt lat="45.69387" lon="6.69571">
        <ele>1923.4</ele>
        <time>2020-08-07T09:27:48Z</time>
      </trkpt>
      <trkpt lat="45.69388" lon="6.69566">
        <ele>1923.8</ele>
        <time>2020-08-07T09:27:50Z</time>
      </trkpt>
      <trkpt lat="45.69389" lon="6.69561">
        <ele>1924.2</ele>
        <time>2020-08-07T09:27:51Z</time>
      </trkpt>
      <trkpt lat="45.6939" lon="6.69553">
        <ele>1924.9</ele>
        <time>2020-08-07T09:27:53Z</time>
      </trkpt>
      <trkpt lat="45.69391" lon="6.69547">
        <ele>1925.5</ele>
        <time>2020-08-07T09:27:55Z</time>
      </trkpt>
      <trkpt lat="45.69391" lon="6.69542">
        <ele>1925.8</ele>
        <time>2020-08-07T09:27:56Z</time>
      </trkpt>
      <trkpt lat="45.69392" lon="6.6953">
        <ele>1926.8</ele>
        <time>2020-08-07T09:27:59Z</time>
      </trkpt>
      <trkpt lat="45.69392" lon="6.69524">
        <ele>1927.3</ele>
        <time>2020-08-07T09:28:01Z</time>
      </trkpt>
      <trkpt lat="45.69392" lon="6.6952">
        <ele>1927.6</ele>
        <time>2020-08-07T09:28:02Z</time>
      </trkpt>
      <trkpt lat="45.69392" lon="6.69514">
        <ele>1928.1</ele>
        <time>2020-08-07T09:28:04Z</time>
      </trkpt>
      <trkpt lat="45.69393" lon="6.69505">
        <ele>1928.9</ele>
        <time>2020-08-07T09:28:06Z</time>
      </trkpt>
      <trkpt lat="45.69393" lon="6.69501">
        <ele>1929.2</ele>
        <time>2020-08-07T09:28:08Z</time>
      </trkpt>
      <trkpt lat="45.69393" lon="6.69495">
        <ele>1929.7</ele>
        <time>2020-08-07T09:28:10Z</time>
      </trkpt>
      <trkpt lat="45.69392" lon="6.69484">
        <ele>1930.5</ele>
        <time>2020-08-07T09:28:12Z</time>
      </trkpt>
      <trkpt lat="45.69392" lon="6.69477">
        <ele>1931</ele>
        <time>2020-08-07T09:28:15Z</time>
      </trkpt>
      <trkpt lat="45.69392" lon="6.69474">
        <ele>1931.2</ele>
        <time>2020-08-07T09:28:16Z</time>
      </trkpt>
      <trkpt lat="45.69392" lon="6.69472">
        <ele>1931.4</ele>
        <time>2020-08-07T09:28:17Z</time>
      </trkpt>
      <trkpt lat="45.69392" lon="6.69465">
        <ele>1931.9</ele>
        <time>2020-08-07T09:28:18Z</time>
      </trkpt>
      <trkpt lat="45.69391" lon="6.69462">
        <ele>1932.2</ele>
        <time>2020-08-07T09:28:19Z</time>
      </trkpt>
      <trkpt lat="45.69391" lon="6.69454">
        <ele>1932.8</ele>
        <time>2020-08-07T09:28:21Z</time>
      </trkpt>
      <trkpt lat="45.69391" lon="6.69451">
        <ele>1933.1</ele>
        <time>2020-08-07T09:28:22Z</time>
      </trkpt>
      <trkpt lat="45.6939" lon="6.69448">
        <ele>1933.3</ele>
        <time>2020-08-07T09:28:23Z</time>
      </trkpt>
      <trkpt lat="45.6939" lon="6.69442">
        <ele>1933.8</ele>
        <time>2020-08-07T09:28:24Z</time>
      </trkpt>
      <trkpt lat="45.6939" lon="6.6944">
        <ele>1933.9</ele>
        <time>2020-08-07T09:28:25Z</time>
      </trkpt>
      <trkpt lat="45.69389" lon="6.69435">
        <ele>1934.3</ele>
        <time>2020-08-07T09:28:26Z</time>
      </trkpt>
      <trkpt lat="45.69389" lon="6.69434">
        <ele>1934.5</ele>
        <time>2020-08-07T09:28:27Z</time>
      </trkpt>
      <trkpt lat="45.69388" lon="6.69428">
        <ele>1935</ele>
        <time>2020-08-07T09:28:28Z</time>
      </trkpt>
      <trkpt lat="45.69388" lon="6.69426">
        <ele>1935.1</ele>
        <time>2020-08-07T09:28:29Z</time>
      </trkpt>
      <trkpt lat="45.69386" lon="6.69417">
        <ele>1935.8</ele>
        <time>2020-08-07T09:28:31Z</time>
      </trkpt>
      <trkpt lat="45.69384" lon="6.69412">
        <ele>1936.3</ele>
        <time>2020-08-07T09:28:32Z</time>
      </trkpt>
      <trkpt lat="45.69383" lon="6.69406">
        <ele>1936.7</ele>
        <time>2020-08-07T09:28:35Z</time>
      </trkpt>
      <trkpt lat="45.69381" lon="6.69398">
        <ele>1937.4</ele>
        <time>2020-08-07T09:28:37Z</time>
      </trkpt>
      <trkpt lat="45.69378" lon="6.6939">
        <ele>1938</ele>
        <time>2020-08-07T09:28:38Z</time>
      </trkpt>
      <trkpt lat="45.69377" lon="6.69386">
        <ele>1938.3</ele>
        <time>2020-08-07T09:28:40Z</time>
      </trkpt>
      <trkpt lat="45.69375" lon="6.69382">
        <ele>1938.6</ele>
        <time>2020-08-07T09:28:41Z</time>
      </trkpt>
      <trkpt lat="45.69372" lon="6.69372">
        <ele>1939.4</ele>
        <time>2020-08-07T09:28:42Z</time>
      </trkpt>
      <trkpt lat="45.69369" lon="6.69366">
        <ele>1939.9</ele>
        <time>2020-08-07T09:28:44Z</time>
      </trkpt>
      <trkpt lat="45.69365" lon="6.69357">
        <ele>1940.8</ele>
        <time>2020-08-07T09:28:46Z</time>
      </trkpt>
      <trkpt lat="45.6936" lon="6.69349">
        <ele>1941.5</ele>
        <time>2020-08-07T09:28:49Z</time>
      </trkpt>
      <trkpt lat="45.69359" lon="6.69346">
        <ele>1941.8</ele>
        <time>2020-08-07T09:28:50Z</time>
      </trkpt>
      <trkpt lat="45.69356" lon="6.69341">
        <ele>1942.2</ele>
        <time>2020-08-07T09:28:52Z</time>
      </trkpt>
      <trkpt lat="45.69354" lon="6.69336">
        <ele>1942.7</ele>
        <time>2020-08-07T09:28:53Z</time>
      </trkpt>
      <trkpt lat="45.69349" lon="6.69326">
        <ele>1943.5</ele>
        <time>2020-08-07T09:28:55Z</time>
      </trkpt>
      <trkpt lat="45.69346" lon="6.69321">
        <ele>1944.1</ele>
        <time>2020-08-07T09:28:57Z</time>
      </trkpt>
      <trkpt lat="45.69342" lon="6.69311">
        <ele>1944.9</ele>
        <time>2020-08-07T09:28:59Z</time>
      </trkpt>
      <trkpt lat="45.69339" lon="6.69307">
        <ele>1945.4</ele>
        <time>2020-08-07T09:29:01Z</time>
      </trkpt>
      <trkpt lat="45.69337" lon="6.69301">
        <ele>1945.9</ele>
        <time>2020-08-07T09:29:03Z</time>
      </trkpt>
      <trkpt lat="45.69333" lon="6.69295">
        <ele>1946.6</ele>
        <time>2020-08-07T09:29:04Z</time>
      </trkpt>
      <trkpt lat="45.69331" lon="6.69291">
        <ele>1947</ele>
        <time>2020-08-07T09:29:05Z</time>
      </trkpt>
      <trkpt lat="45.69329" lon="6.69287">
        <ele>1947.4</ele>
        <time>2020-08-07T09:29:06Z</time>
      </trkpt>
      <trkpt lat="45.69325" lon="6.69282">
        <ele>1948</ele>
        <time>2020-08-07T09:29:08Z</time>
      </trkpt>
      <trkpt lat="45.69319" lon="6.69273">
        <ele>1949.1</ele>
        <time>2020-08-07T09:29:10Z</time>
      </trkpt>
      <trkpt lat="45.69315" lon="6.69269">
        <ele>1949.6</ele>
        <time>2020-08-07T09:29:12Z</time>
      </trkpt>
      <trkpt lat="45.69312" lon="6.69266">
        <ele>1950</ele>
        <time>2020-08-07T09:29:14Z</time>
      </trkpt>
      <trkpt lat="45.69308" lon="6.69261">
        <ele>1950.7</ele>
        <time>2020-08-07T09:29:15Z</time>
      </trkpt>
      <trkpt lat="45.693" lon="6.69255">
        <ele>1951.7</ele>
        <time>2020-08-07T09:29:17Z</time>
      </trkpt>
      <trkpt lat="45.69296" lon="6.69253">
        <ele>1952.3</ele>
        <time>2020-08-07T09:29:19Z</time>
      </trkpt>
      <trkpt lat="45.69293" lon="6.69251">
        <ele>1952.6</ele>
        <time>2020-08-07T09:29:20Z</time>
      </trkpt>
      <trkpt lat="45.69289" lon="6.69249">
        <ele>1953.2</ele>
        <time>2020-08-07T09:29:21Z</time>
      </trkpt>
      <trkpt lat="45.69286" lon="6.69248">
        <ele>1953.7</ele>
        <time>2020-08-07T09:29:23Z</time>
      </trkpt>
      <trkpt lat="45.69283" lon="6.69247">
        <ele>1954.1</ele>
        <time>2020-08-07T09:29:25Z</time>
      </trkpt>
      <trkpt lat="45.69277" lon="6.69246">
        <ele>1954.7</ele>
        <time>2020-08-07T09:29:26Z</time>
      </trkpt>
      <trkpt lat="45.69274" lon="6.69245">
        <ele>1955.2</ele>
        <time>2020-08-07T09:29:27Z</time>
      </trkpt>
      <trkpt lat="45.69271" lon="6.69245">
        <ele>1955.6</ele>
        <time>2020-08-07T09:29:29Z</time>
      </trkpt>
      <trkpt lat="45.69266" lon="6.69245">
        <ele>1956.2</ele>
        <time>2020-08-07T09:29:30Z</time>
      </trkpt>
      <trkpt lat="45.69262" lon="6.69244">
        <ele>1956.7</ele>
        <time>2020-08-07T09:29:31Z</time>
      </trkpt>
      <trkpt lat="45.69255" lon="6.69243">
        <ele>1957.6</ele>
        <time>2020-08-07T09:29:34Z</time>
      </trkpt>
      <trkpt lat="45.69252" lon="6.69243">
        <ele>1957.9</ele>
        <time>2020-08-07T09:29:35Z</time>
      </trkpt>
      <trkpt lat="45.69248" lon="6.69243">
        <ele>1958.5</ele>
        <time>2020-08-07T09:29:37Z</time>
      </trkpt>
      <trkpt lat="45.69244" lon="6.69243">
        <ele>1958.9</ele>
        <time>2020-08-07T09:29:39Z</time>
      </trkpt>
      <trkpt lat="45.69236" lon="6.69243">
        <ele>1960</ele>
        <time>2020-08-07T09:29:41Z</time>
      </trkpt>
      <trkpt lat="45.69233" lon="6.69243">
        <ele>1960.4</ele>
        <time>2020-08-07T09:29:42Z</time>
      </trkpt>
      <trkpt lat="45.6923" lon="6.69242">
        <ele>1960.7</ele>
        <time>2020-08-07T09:29:44Z</time>
      </trkpt>
      <trkpt lat="45.69226" lon="6.69243">
        <ele>1961.2</ele>
        <time>2020-08-07T09:29:45Z</time>
      </trkpt>
      <trkpt lat="45.69222" lon="6.69243">
        <ele>1961.6</ele>
        <time>2020-08-07T09:29:47Z</time>
      </trkpt>
      <trkpt lat="45.69216" lon="6.69242">
        <ele>1962.3</ele>
        <time>2020-08-07T09:29:49Z</time>
      </trkpt>
      <trkpt lat="45.69211" lon="6.69241">
        <ele>1962.8</ele>
        <time>2020-08-07T09:29:51Z</time>
      </trkpt>
      <trkpt lat="45.69208" lon="6.69241">
        <ele>1963.1</ele>
        <time>2020-08-07T09:29:52Z</time>
      </trkpt>
      <trkpt lat="45.69203" lon="6.6924">
        <ele>1963.6</ele>
        <time>2020-08-07T09:29:53Z</time>
      </trkpt>
      <trkpt lat="45.69201" lon="6.69239">
        <ele>1963.9</ele>
        <time>2020-08-07T09:29:54Z</time>
      </trkpt>
      <trkpt lat="45.69198" lon="6.69237">
        <ele>1964.3</ele>
        <time>2020-08-07T09:29:57Z</time>
      </trkpt>
      <trkpt lat="45.69194" lon="6.69234">
        <ele>1964.8</ele>
        <time>2020-08-07T09:29:58Z</time>
      </trkpt>
      <trkpt lat="45.69191" lon="6.69233">
        <ele>1965.1</ele>
        <time>2020-08-07T09:29:59Z</time>
      </trkpt>
      <trkpt lat="45.69187" lon="6.69229">
        <ele>1965.6</ele>
        <time>2020-08-07T09:30:00Z</time>
      </trkpt>
      <trkpt lat="45.69183" lon="6.69226">
        <ele>1966.1</ele>
        <time>2020-08-07T09:30:03Z</time>
      </trkpt>
      <trkpt lat="45.69179" lon="6.69222">
        <ele>1966.6</ele>
        <time>2020-08-07T09:30:04Z</time>
      </trkpt>
      <trkpt lat="45.69176" lon="6.69217">
        <ele>1967.1</ele>
        <time>2020-08-07T09:30:06Z</time>
      </trkpt>
      <trkpt lat="45.69174" lon="6.69213">
        <ele>1967.5</ele>
        <time>2020-08-07T09:30:08Z</time>
      </trkpt>
      <trkpt lat="45.6917" lon="6.69205">
        <ele>1968.2</ele>
        <time>2020-08-07T09:30:09Z</time>
      </trkpt>
      <trkpt lat="45.69167" lon="6.69196">
        <ele>1968.9</ele>
        <time>2020-08-07T09:30:11Z</time>
      </trkpt>
      <trkpt lat="45.69165" lon="6.69191">
        <ele>1969.3</ele>
        <time>2020-08-07T09:30:13Z</time>
      </trkpt>
      <trkpt lat="45.69163" lon="6.69186">
        <ele>1969.6</ele>
        <time>2020-08-07T09:30:14Z</time>
      </trkpt>
      <trkpt lat="45.69159" lon="6.69174">
        <ele>1970.4</ele>
        <time>2020-08-07T09:30:17Z</time>
      </trkpt>
      <trkpt lat="45.69157" lon="6.69169">
        <ele>1970.8</ele>
        <time>2020-08-07T09:30:18Z</time>
      </trkpt>
      <trkpt lat="45.69154" lon="6.6916">
        <ele>1971.4</ele>
        <time>2020-08-07T09:30:21Z</time>
      </trkpt>
      <trkpt lat="45.69152" lon="6.69149">
        <ele>1972</ele>
        <time>2020-08-07T09:30:23Z</time>
      </trkpt>
      <trkpt lat="45.6915" lon="6.69135">
        <ele>1972.7</ele>
        <time>2020-08-07T09:30:24Z</time>
      </trkpt>
      <trkpt lat="45.69149" lon="6.69124">
        <ele>1973.3</ele>
        <time>2020-08-07T09:30:26Z</time>
      </trkpt>
      <trkpt lat="45.69147" lon="6.69117">
        <ele>1973.5</ele>
        <time>2020-08-07T09:30:28Z</time>
      </trkpt>
      <trkpt lat="45.69146" lon="6.69111">
        <ele>1973.4</ele>
        <time>2020-08-07T09:30:29Z</time>
      </trkpt>
      <trkpt lat="45.69145" lon="6.69101">
        <ele>1973.3</ele>
        <time>2020-08-07T09:30:30Z</time>
      </trkpt>
      <trkpt lat="45.69143" lon="6.69095">
        <ele>1973.2</ele>
        <time>2020-08-07T09:30:32Z</time>
      </trkpt>
      <trkpt lat="45.69139" lon="6.6908">
        <ele>1973</ele>
        <time>2020-08-07T09:30:33Z</time>
      </trkpt>
      <trkpt lat="45.69137" lon="6.69072">
        <ele>1972.7</ele>
        <time>2020-08-07T09:30:35Z</time>
      </trkpt>
      <trkpt lat="45.69136" lon="6.69065">
        <ele>1972.5</ele>
        <time>2020-08-07T09:30:37Z</time>
      </trkpt>
      <trkpt lat="45.69136" lon="6.69059">
        <ele>1972.3</ele>
        <time>2020-08-07T09:30:38Z</time>
      </trkpt>
      <trkpt lat="45.69135" lon="6.69051">
        <ele>1972.3</ele>
        <time>2020-08-07T09:30:39Z</time>
      </trkpt>
      <trkpt lat="45.69134" lon="6.69044">
        <ele>1972.2</ele>
        <time>2020-08-07T09:30:41Z</time>
      </trkpt>
      <trkpt lat="45.69131" lon="6.6903">
        <ele>1972.1</ele>
        <time>2020-08-07T09:30:43Z</time>
      </trkpt>
      <trkpt lat="45.6913" lon="6.69024">
        <ele>1972</ele>
        <time>2020-08-07T09:30:44Z</time>
      </trkpt>
      <trkpt lat="45.69129" lon="6.69017">
        <ele>1971.9</ele>
        <time>2020-08-07T09:30:47Z</time>
      </trkpt>
      <trkpt lat="45.69129" lon="6.69013">
        <ele>1971.9</ele>
        <time>2020-08-07T09:30:48Z</time>
      </trkpt>
      <trkpt lat="45.69128" lon="6.69007">
        <ele>1971.8</ele>
        <time>2020-08-07T09:30:49Z</time>
      </trkpt>
      <trkpt lat="45.69127" lon="6.69006">
        <ele>1971.8</ele>
        <time>2020-08-07T09:30:50Z</time>
      </trkpt>
      <trkpt lat="45.69126" lon="6.68998">
        <ele>1971.7</ele>
        <time>2020-08-07T09:30:52Z</time>
      </trkpt>
      <trkpt lat="45.69125" lon="6.6899">
        <ele>1971.6</ele>
        <time>2020-08-07T09:30:54Z</time>
      </trkpt>
      <trkpt lat="45.69124" lon="6.68982">
        <ele>1971.4</ele>
        <time>2020-08-07T09:30:56Z</time>
      </trkpt>
      <trkpt lat="45.69124" lon="6.68974">
        <ele>1971.3</ele>
        <time>2020-08-07T09:30:58Z</time>
      </trkpt>
      <trkpt lat="45.6912" lon="6.68975">
        <ele>1971.2</ele>
        <time>2020-08-07T09:30:59Z</time>
      </trkpt>
      <trkpt lat="45.6912" lon="6.68983">
        <ele>1971.1</ele>
        <time>2020-08-07T09:31:01Z</time>
      </trkpt>
      <trkpt lat="45.69121" lon="6.68987">
        <ele>1971</ele>
        <time>2020-08-07T09:31:02Z</time>
      </trkpt>
      <trkpt lat="45.69123" lon="6.68998">
        <ele>1971.3</ele>
        <time>2020-08-07T09:31:04Z</time>
      </trkpt>
      <trkpt lat="45.69124" lon="6.69004">
        <ele>1971.4</ele>
        <time>2020-08-07T09:31:06Z</time>
      </trkpt>
      <trkpt lat="45.69125" lon="6.69008">
        <ele>1971.5</ele>
        <time>2020-08-07T09:31:07Z</time>
      </trkpt>
      <trkpt lat="45.69125" lon="6.69014">
        <ele>1971.6</ele>
        <time>2020-08-07T09:31:09Z</time>
      </trkpt>
      <trkpt lat="45.69125" lon="6.69021">
        <ele>1971.8</ele>
        <time>2020-08-07T09:31:10Z</time>
      </trkpt>
      <trkpt lat="45.69126" lon="6.69026">
        <ele>1971.9</ele>
        <time>2020-08-07T09:31:12Z</time>
      </trkpt>
      <trkpt lat="45.69127" lon="6.69034">
        <ele>1972</ele>
        <time>2020-08-07T09:31:14Z</time>
      </trkpt>
      <trkpt lat="45.69128" lon="6.69044">
        <ele>1972.1</ele>
        <time>2020-08-07T09:31:16Z</time>
      </trkpt>
      <trkpt lat="45.69128" lon="6.69051">
        <ele>1972.2</ele>
        <time>2020-08-07T09:31:18Z</time>
      </trkpt>
      <trkpt lat="45.69129" lon="6.69057">
        <ele>1972.3</ele>
        <time>2020-08-07T09:31:20Z</time>
      </trkpt>
      <trkpt lat="45.69129" lon="6.69064">
        <ele>1972.4</ele>
        <time>2020-08-07T09:31:21Z</time>
      </trkpt>
      <trkpt lat="45.6913" lon="6.69071">
        <ele>1972.6</ele>
        <time>2020-08-07T09:31:23Z</time>
      </trkpt>
      <trkpt lat="45.6913" lon="6.69077">
        <ele>1972.8</ele>
        <time>2020-08-07T09:31:24Z</time>
      </trkpt>
      <trkpt lat="45.69131" lon="6.69084">
        <ele>1973</ele>
        <time>2020-08-07T09:31:26Z</time>
      </trkpt>
      <trkpt lat="45.69131" lon="6.6909">
        <ele>1973.1</ele>
        <time>2020-08-07T10:43:12Z</time>
      </trkpt>
      <trkpt lat="45.69132" lon="6.69097">
        <ele>1973.2</ele>
        <time>2020-08-07T10:43:13Z</time>
      </trkpt>
      <trkpt lat="45.69131" lon="6.69108">
        <ele>1973.3</ele>
        <time>2020-08-07T10:43:15Z</time>
      </trkpt>
      <trkpt lat="45.69133" lon="6.69115">
        <ele>1973.4</ele>
        <time>2020-08-07T10:43:16Z</time>
      </trkpt>
      <trkpt lat="45.69135" lon="6.69131">
        <ele>1973.3</ele>
        <time>2020-08-07T10:43:18Z</time>
      </trkpt>
      <trkpt lat="45.69141" lon="6.6915">
        <ele>1972.3</ele>
        <time>2020-08-07T10:43:20Z</time>
      </trkpt>
      <trkpt lat="45.69143" lon="6.69159">
        <ele>1971.7</ele>
        <time>2020-08-07T10:43:21Z</time>
      </trkpt>
      <trkpt lat="45.69146" lon="6.69169">
        <ele>1971.2</ele>
        <time>2020-08-07T10:43:22Z</time>
      </trkpt>
      <trkpt lat="45.69149" lon="6.69178">
        <ele>1970.6</ele>
        <time>2020-08-07T10:43:23Z</time>
      </trkpt>
      <trkpt lat="45.69156" lon="6.69196">
        <ele>1969.3</ele>
        <time>2020-08-07T10:43:25Z</time>
      </trkpt>
      <trkpt lat="45.6916" lon="6.69206">
        <ele>1968.5</ele>
        <time>2020-08-07T10:43:26Z</time>
      </trkpt>
      <trkpt lat="45.69172" lon="6.69225">
        <ele>1966.6</ele>
        <time>2020-08-07T10:43:28Z</time>
      </trkpt>
      <trkpt lat="45.6919" lon="6.6924">
        <ele>1964.4</ele>
        <time>2020-08-07T10:43:30Z</time>
      </trkpt>
      <trkpt lat="45.69212" lon="6.69248">
        <ele>1961.9</ele>
        <time>2020-08-07T10:43:32Z</time>
      </trkpt>
      <trkpt lat="45.69223" lon="6.69249">
        <ele>1960.6</ele>
        <time>2020-08-07T10:43:33Z</time>
      </trkpt>
      <trkpt lat="45.69234" lon="6.69249">
        <ele>1959.3</ele>
        <time>2020-08-07T10:43:34Z</time>
      </trkpt>
      <trkpt lat="45.69257" lon="6.69248">
        <ele>1956.4</ele>
        <time>2020-08-07T10:43:36Z</time>
      </trkpt>
      <trkpt lat="45.69282" lon="6.69251">
        <ele>1953.2</ele>
        <time>2020-08-07T10:43:38Z</time>
      </trkpt>
      <trkpt lat="45.69307" lon="6.69263">
        <ele>1950</ele>
        <time>2020-08-07T10:43:40Z</time>
      </trkpt>
      <trkpt lat="45.69329" lon="6.69291">
        <ele>1946.5</ele>
        <time>2020-08-07T10:43:42Z</time>
      </trkpt>
      <trkpt lat="45.69345" lon="6.69331">
        <ele>1942.9</ele>
        <time>2020-08-07T10:43:44Z</time>
      </trkpt>
      <trkpt lat="45.69362" lon="6.6937">
        <ele>1939.5</ele>
        <time>2020-08-07T10:43:46Z</time>
      </trkpt>
      <trkpt lat="45.6937" lon="6.6939">
        <ele>1937.9</ele>
        <time>2020-08-07T10:43:47Z</time>
      </trkpt>
      <trkpt lat="45.69376" lon="6.69411">
        <ele>1936.1</ele>
        <time>2020-08-07T10:43:48Z</time>
      </trkpt>
      <trkpt lat="45.69384" lon="6.69456">
        <ele>1932.4</ele>
        <time>2020-08-07T10:43:50Z</time>
      </trkpt>
      <trkpt lat="45.69385" lon="6.69478">
        <ele>1930.7</ele>
        <time>2020-08-07T10:43:51Z</time>
      </trkpt>
      <trkpt lat="45.69385" lon="6.69523">
        <ele>1927.2</ele>
        <time>2020-08-07T10:43:53Z</time>
      </trkpt>
      <trkpt lat="45.69383" lon="6.69547">
        <ele>1925.2</ele>
        <time>2020-08-07T10:43:54Z</time>
      </trkpt>
      <trkpt lat="45.6938" lon="6.6957">
        <ele>1923.3</ele>
        <time>2020-08-07T10:43:55Z</time>
      </trkpt>
      <trkpt lat="45.69374" lon="6.69619">
        <ele>1919.3</ele>
        <time>2020-08-07T10:43:57Z</time>
      </trkpt>
      <trkpt lat="45.69371" lon="6.69644">
        <ele>1917.2</ele>
        <time>2020-08-07T10:43:58Z</time>
      </trkpt>
      <trkpt lat="45.69361" lon="6.69694">
        <ele>1913.3</ele>
        <time>2020-08-07T10:44:00Z</time>
      </trkpt>
      <trkpt lat="45.69349" lon="6.69742">
        <ele>1909.9</ele>
        <time>2020-08-07T10:44:02Z</time>
      </trkpt>
      <trkpt lat="45.69334" lon="6.69788">
        <ele>1906.8</ele>
        <time>2020-08-07T10:44:04Z</time>
      </trkpt>
      <trkpt lat="45.69316" lon="6.69831">
        <ele>1903.7</ele>
        <time>2020-08-07T10:44:06Z</time>
      </trkpt>
      <trkpt lat="45.69306" lon="6.69855">
        <ele>1902</ele>
        <time>2020-08-07T10:44:07Z</time>
      </trkpt>
      <trkpt lat="45.69296" lon="6.69878">
        <ele>1900.2</ele>
        <time>2020-08-07T10:44:08Z</time>
      </trkpt>
      <trkpt lat="45.69286" lon="6.69901">
        <ele>1898.5</ele>
        <time>2020-08-07T10:44:09Z</time>
      </trkpt>
      <trkpt lat="45.69277" lon="6.69924">
        <ele>1896.8</ele>
        <time>2020-08-07T10:44:10Z</time>
      </trkpt>
      <trkpt lat="45.69257" lon="6.69969">
        <ele>1893.8</ele>
        <time>2020-08-07T10:44:12Z</time>
      </trkpt>
      <trkpt lat="45.69239" lon="6.70011">
        <ele>1891</ele>
        <time>2020-08-07T10:44:14Z</time>
      </trkpt>
      <trkpt lat="45.69224" lon="6.70049">
        <ele>1888.4</ele>
        <time>2020-08-07T10:44:16Z</time>
      </trkpt>
      <trkpt lat="45.69217" lon="6.70069">
        <ele>1887</ele>
        <time>2020-08-07T10:44:17Z</time>
      </trkpt>
      <trkpt lat="45.69211" lon="6.70111">
        <ele>1884.1</ele>
        <time>2020-08-07T10:44:19Z</time>
      </trkpt>
      <trkpt lat="45.69211" lon="6.70156">
        <ele>1880.6</ele>
        <time>2020-08-07T10:44:21Z</time>
      </trkpt>
      <trkpt lat="45.69213" lon="6.70182">
        <ele>1878.7</ele>
        <time>2020-08-07T10:44:22Z</time>
      </trkpt>
      <trkpt lat="45.69224" lon="6.70228">
        <ele>1875</ele>
        <time>2020-08-07T10:44:24Z</time>
      </trkpt>
      <trkpt lat="45.69242" lon="6.70275">
        <ele>1871.3</ele>
        <time>2020-08-07T10:44:26Z</time>
      </trkpt>
      <trkpt lat="45.6926" lon="6.70325">
        <ele>1868</ele>
        <time>2020-08-07T10:44:28Z</time>
      </trkpt>
      <trkpt lat="45.69274" lon="6.70377">
        <ele>1864.1</ele>
        <time>2020-08-07T10:44:30Z</time>
      </trkpt>
      <trkpt lat="45.69281" lon="6.70403">
        <ele>1862.3</ele>
        <time>2020-08-07T10:44:31Z</time>
      </trkpt>
      <trkpt lat="45.69287" lon="6.7043">
        <ele>1860.7</ele>
        <time>2020-08-07T10:44:32Z</time>
      </trkpt>
      <trkpt lat="45.69297" lon="6.70483">
        <ele>1858.1</ele>
        <time>2020-08-07T10:44:34Z</time>
      </trkpt>
      <trkpt lat="45.693" lon="6.7051">
        <ele>1857.2</ele>
        <time>2020-08-07T10:44:35Z</time>
      </trkpt>
      <trkpt lat="45.69306" lon="6.70563">
        <ele>1855.7</ele>
        <time>2020-08-07T10:44:37Z</time>
      </trkpt>
      <trkpt lat="45.69313" lon="6.70616">
        <ele>1854</ele>
        <time>2020-08-07T10:44:39Z</time>
      </trkpt>
      <trkpt lat="45.69316" lon="6.70643">
        <ele>1852.9</ele>
        <time>2020-08-07T10:44:40Z</time>
      </trkpt>
      <trkpt lat="45.69322" lon="6.70697">
        <ele>1850.6</ele>
        <time>2020-08-07T10:44:42Z</time>
      </trkpt>
      <trkpt lat="45.69329" lon="6.70753">
        <ele>1847.9</ele>
        <time>2020-08-07T10:44:44Z</time>
      </trkpt>
      <trkpt lat="45.69333" lon="6.70782">
        <ele>1846.4</ele>
        <time>2020-08-07T10:44:45Z</time>
      </trkpt>
      <trkpt lat="45.69339" lon="6.70839">
        <ele>1843</ele>
        <time>2020-08-07T10:44:47Z</time>
      </trkpt>
      <trkpt lat="45.69346" lon="6.70898">
        <ele>1839.2</ele>
        <time>2020-08-07T10:44:49Z</time>
      </trkpt>
      <trkpt lat="45.69349" lon="6.70928">
        <ele>1837.3</ele>
        <time>2020-08-07T10:44:50Z</time>
      </trkpt>
      <trkpt lat="45.69356" lon="6.70987">
        <ele>1833.3</ele>
        <time>2020-08-07T10:44:52Z</time>
      </trkpt>
      <trkpt lat="45.6936" lon="6.71018">
        <ele>1831.3</ele>
        <time>2020-08-07T10:44:53Z</time>
      </trkpt>
      <trkpt lat="45.69364" lon="6.71048">
        <ele>1829.3</ele>
        <time>2020-08-07T10:44:54Z</time>
      </trkpt>
      <trkpt lat="45.69372" lon="6.71108">
        <ele>1825.8</ele>
        <time>2020-08-07T10:44:56Z</time>
      </trkpt>
      <trkpt lat="45.69375" lon="6.71138">
        <ele>1824.2</ele>
        <time>2020-08-07T10:44:57Z</time>
      </trkpt>
      <trkpt lat="45.69382" lon="6.71198">
        <ele>1821.4</ele>
        <time>2020-08-07T10:44:59Z</time>
      </trkpt>
      <trkpt lat="45.69388" lon="6.71256">
        <ele>1819.1</ele>
        <time>2020-08-07T10:45:01Z</time>
      </trkpt>
      <trkpt lat="45.69392" lon="6.71283">
        <ele>1818</ele>
        <time>2020-08-07T10:45:02Z</time>
      </trkpt>
      <trkpt lat="45.69404" lon="6.71333">
        <ele>1815.8</ele>
        <time>2020-08-07T10:45:04Z</time>
      </trkpt>
      <trkpt lat="45.69412" lon="6.71356">
        <ele>1814.7</ele>
        <time>2020-08-07T10:45:05Z</time>
      </trkpt>
      <trkpt lat="45.6942" lon="6.71379">
        <ele>1813.7</ele>
        <time>2020-08-07T10:45:06Z</time>
      </trkpt>
      <trkpt lat="45.69435" lon="6.71423">
        <ele>1812</ele>
        <time>2020-08-07T10:45:08Z</time>
      </trkpt>
      <trkpt lat="45.6944" lon="6.71445">
        <ele>1811.4</ele>
        <time>2020-08-07T10:45:09Z</time>
      </trkpt>
      <trkpt lat="45.69446" lon="6.71488">
        <ele>1810.1</ele>
        <time>2020-08-07T10:45:11Z</time>
      </trkpt>
      <trkpt lat="45.69444" lon="6.7153">
        <ele>1809.2</ele>
        <time>2020-08-07T10:45:13Z</time>
      </trkpt>
      <trkpt lat="45.69436" lon="6.71568">
        <ele>1808.7</ele>
        <time>2020-08-07T10:45:15Z</time>
      </trkpt>
      <trkpt lat="45.69429" lon="6.71601">
        <ele>1807.8</ele>
        <time>2020-08-07T10:45:17Z</time>
      </trkpt>
      <trkpt lat="45.69438" lon="6.71634">
        <ele>1806.8</ele>
        <time>2020-08-07T10:45:19Z</time>
      </trkpt>
      <trkpt lat="45.69457" lon="6.71659">
        <ele>1805.5</ele>
        <time>2020-08-07T10:45:21Z</time>
      </trkpt>
      <trkpt lat="45.69468" lon="6.71667">
        <ele>1804.8</ele>
        <time>2020-08-07T10:45:22Z</time>
      </trkpt>
      <trkpt lat="45.6949" lon="6.71666">
        <ele>1803.4</ele>
        <time>2020-08-07T10:45:24Z</time>
      </trkpt>
      <trkpt lat="45.69513" lon="6.71651">
        <ele>1801.8</ele>
        <time>2020-08-07T10:45:26Z</time>
      </trkpt>
      <trkpt lat="45.69524" lon="6.71644">
        <ele>1801</ele>
        <time>2020-08-07T10:45:27Z</time>
      </trkpt>
      <trkpt lat="45.69549" lon="6.71634">
        <ele>1799.7</ele>
        <time>2020-08-07T10:45:29Z</time>
      </trkpt>
      <trkpt lat="45.69574" lon="6.71644">
        <ele>1798.6</ele>
        <time>2020-08-07T10:45:31Z</time>
      </trkpt>
      <trkpt lat="45.69588" lon="6.71673">
        <ele>1797.6</ele>
        <time>2020-08-07T10:45:33Z</time>
      </trkpt>
      <trkpt lat="45.69588" lon="6.71689">
        <ele>1797.2</ele>
        <time>2020-08-07T10:45:34Z</time>
      </trkpt>
      <trkpt lat="45.69574" lon="6.71719">
        <ele>1796</ele>
        <time>2020-08-07T10:45:36Z</time>
      </trkpt>
      <trkpt lat="45.69565" lon="6.71754">
        <ele>1794.8</ele>
        <time>2020-08-07T10:45:38Z</time>
      </trkpt>
      <trkpt lat="45.69568" lon="6.71793">
        <ele>1793.7</ele>
        <time>2020-08-07T10:45:40Z</time>
      </trkpt>
      <trkpt lat="45.69572" lon="6.71813">
        <ele>1793</ele>
        <time>2020-08-07T10:45:41Z</time>
      </trkpt>
      <trkpt lat="45.69577" lon="6.71832">
        <ele>1792.1</ele>
        <time>2020-08-07T10:45:42Z</time>
      </trkpt>
      <trkpt lat="45.69595" lon="6.71863">
        <ele>1790.5</ele>
        <time>2020-08-07T10:45:44Z</time>
      </trkpt>
      <trkpt lat="45.69607" lon="6.71873">
        <ele>1789.7</ele>
        <time>2020-08-07T10:45:45Z</time>
      </trkpt>
      <trkpt lat="45.69636" lon="6.71888">
        <ele>1787.7</ele>
        <time>2020-08-07T10:45:47Z</time>
      </trkpt>
      <trkpt lat="45.6965" lon="6.71896">
        <ele>1786.8</ele>
        <time>2020-08-07T10:45:48Z</time>
      </trkpt>
      <trkpt lat="45.69678" lon="6.71912">
        <ele>1784.8</ele>
        <time>2020-08-07T10:45:50Z</time>
      </trkpt>
      <trkpt lat="45.69693" lon="6.7192">
        <ele>1783.9</ele>
        <time>2020-08-07T10:45:51Z</time>
      </trkpt>
      <trkpt lat="45.6972" lon="6.71937">
        <ele>1782.1</ele>
        <time>2020-08-07T10:45:53Z</time>
      </trkpt>
      <trkpt lat="45.69738" lon="6.71968">
        <ele>1780.5</ele>
        <time>2020-08-07T10:45:55Z</time>
      </trkpt>
      <trkpt lat="45.6974" lon="6.72009">
        <ele>1778.7</ele>
        <time>2020-08-07T10:45:57Z</time>
      </trkpt>
      <trkpt lat="45.69737" lon="6.7203">
        <ele>1777.8</ele>
        <time>2020-08-07T10:45:58Z</time>
      </trkpt>
      <trkpt lat="45.69733" lon="6.72071">
        <ele>1776.3</ele>
        <time>2020-08-07T10:46:00Z</time>
      </trkpt>
      <trkpt lat="45.6973" lon="6.72092">
        <ele>1775.7</ele>
        <time>2020-08-07T10:46:01Z</time>
      </trkpt>
      <trkpt lat="45.69728" lon="6.72112">
        <ele>1775.1</ele>
        <time>2020-08-07T10:46:02Z</time>
      </trkpt>
      <trkpt lat="45.69725" lon="6.72146">
        <ele>1774</ele>
        <time>2020-08-07T10:46:04Z</time>
      </trkpt>
      <trkpt lat="45.69727" lon="6.72161">
        <ele>1773.3</ele>
        <time>2020-08-07T10:46:05Z</time>
      </trkpt>
      <trkpt lat="45.69733" lon="6.72175">
        <ele>1772.5</ele>
        <time>2020-08-07T10:46:06Z</time>
      </trkpt>
      <trkpt lat="45.69753" lon="6.72196">
        <ele>1770.6</ele>
        <time>2020-08-07T10:46:08Z</time>
      </trkpt>
      <trkpt lat="45.69768" lon="6.72226">
        <ele>1769.1</ele>
        <time>2020-08-07T10:46:10Z</time>
      </trkpt>
      <trkpt lat="45.6977" lon="6.72245">
        <ele>1768.5</ele>
        <time>2020-08-07T10:46:11Z</time>
      </trkpt>
      <trkpt lat="45.69765" lon="6.72282">
        <ele>1768</ele>
        <time>2020-08-07T10:46:13Z</time>
      </trkpt>
      <trkpt lat="45.69758" lon="6.72299">
        <ele>1767.8</ele>
        <time>2020-08-07T10:46:14Z</time>
      </trkpt>
      <trkpt lat="45.69744" lon="6.7233">
        <ele>1767.4</ele>
        <time>2020-08-07T10:46:16Z</time>
      </trkpt>
      <trkpt lat="45.69739" lon="6.72345">
        <ele>1767.2</ele>
        <time>2020-08-07T10:46:17Z</time>
      </trkpt>
      <trkpt lat="45.69737" lon="6.72361">
        <ele>1766.9</ele>
        <time>2020-08-07T10:46:18Z</time>
      </trkpt>
      <trkpt lat="45.69742" lon="6.72394">
        <ele>1766.2</ele>
        <time>2020-08-07T10:46:20Z</time>
      </trkpt>
      <trkpt lat="45.69749" lon="6.72409">
        <ele>1765.6</ele>
        <time>2020-08-07T10:46:21Z</time>
      </trkpt>
      <trkpt lat="45.69758" lon="6.72421">
        <ele>1765</ele>
        <time>2020-08-07T10:46:22Z</time>
      </trkpt>
      <trkpt lat="45.69778" lon="6.72442">
        <ele>1764</ele>
        <time>2020-08-07T10:46:24Z</time>
      </trkpt>
      <trkpt lat="45.69794" lon="6.72462">
        <ele>1763.3</ele>
        <time>2020-08-07T10:46:26Z</time>
      </trkpt>
      <trkpt lat="45.69805" lon="6.72483">
        <ele>1762.9</ele>
        <time>2020-08-07T10:46:28Z</time>
      </trkpt>
      <trkpt lat="45.69808" lon="6.72495">
        <ele>1762.6</ele>
        <time>2020-08-07T10:46:29Z</time>
      </trkpt>
      <trkpt lat="45.69804" lon="6.72519">
        <ele>1761.2</ele>
        <time>2020-08-07T10:46:31Z</time>
      </trkpt>
      <trkpt lat="45.69787" lon="6.72534">
        <ele>1759.3</ele>
        <time>2020-08-07T10:46:33Z</time>
      </trkpt>
      <trkpt lat="45.69777" lon="6.72535">
        <ele>1758.2</ele>
        <time>2020-08-07T10:46:34Z</time>
      </trkpt>
      <trkpt lat="45.69756" lon="6.72526">
        <ele>1756.1</ele>
        <time>2020-08-07T10:46:36Z</time>
      </trkpt>
      <trkpt lat="45.69745" lon="6.72523">
        <ele>1755.1</ele>
        <time>2020-08-07T10:46:37Z</time>
      </trkpt>
      <trkpt lat="45.69725" lon="6.72516">
        <ele>1753.5</ele>
        <time>2020-08-07T10:46:39Z</time>
      </trkpt>
      <trkpt lat="45.69707" lon="6.725">
        <ele>1751.7</ele>
        <time>2020-08-07T10:46:41Z</time>
      </trkpt>
      <trkpt lat="45.69696" lon="6.7247">
        <ele>1748.8</ele>
        <time>2020-08-07T10:46:43Z</time>
      </trkpt>
      <trkpt lat="45.69683" lon="6.72436">
        <ele>1745</ele>
        <time>2020-08-07T10:46:45Z</time>
      </trkpt>
      <trkpt lat="45.69667" lon="6.724">
        <ele>1741.4</ele>
        <time>2020-08-07T10:46:47Z</time>
      </trkpt>
      <trkpt lat="45.69659" lon="6.72381">
        <ele>1739.6</ele>
        <time>2020-08-07T10:46:48Z</time>
      </trkpt>
      <trkpt lat="45.69651" lon="6.72362">
        <ele>1737.9</ele>
        <time>2020-08-07T10:46:49Z</time>
      </trkpt>
      <trkpt lat="45.69635" lon="6.72323">
        <ele>1735.2</ele>
        <time>2020-08-07T10:46:51Z</time>
      </trkpt>
      <trkpt lat="45.69619" lon="6.72288">
        <ele>1733.7</ele>
        <time>2020-08-07T10:46:53Z</time>
      </trkpt>
      <trkpt lat="45.69612" lon="6.72274">
        <ele>1733.3</ele>
        <time>2020-08-07T10:46:54Z</time>
      </trkpt>
      <trkpt lat="45.696" lon="6.72255">
        <ele>1732.7</ele>
        <time>2020-08-07T10:46:56Z</time>
      </trkpt>
      <trkpt lat="45.69593" lon="6.72252">
        <ele>1732.4</ele>
        <time>2020-08-07T10:46:57Z</time>
      </trkpt>
      <trkpt lat="45.69581" lon="6.72264">
        <ele>1731.2</ele>
        <time>2020-08-07T10:46:59Z</time>
      </trkpt>
      <trkpt lat="45.69584" lon="6.72287">
        <ele>1729.2</ele>
        <time>2020-08-07T10:47:01Z</time>
      </trkpt>
      <trkpt lat="45.6959" lon="6.72297">
        <ele>1727.9</ele>
        <time>2020-08-07T10:47:02Z</time>
      </trkpt>
      <trkpt lat="45.69603" lon="6.72323">
        <ele>1724.7</ele>
        <time>2020-08-07T10:47:04Z</time>
      </trkpt>
      <trkpt lat="45.69609" lon="6.72361">
        <ele>1721.3</ele>
        <time>2020-08-07T10:47:06Z</time>
      </trkpt>
      <trkpt lat="45.69609" lon="6.72382">
        <ele>1719.7</ele>
        <time>2020-08-07T10:47:07Z</time>
      </trkpt>
      <trkpt lat="45.69608" lon="6.72425">
        <ele>1716.6</ele>
        <time>2020-08-07T10:47:09Z</time>
      </trkpt>
      <trkpt lat="45.69608" lon="6.72469">
        <ele>1713.6</ele>
        <time>2020-08-07T10:47:11Z</time>
      </trkpt>
      <trkpt lat="45.69609" lon="6.72491">
        <ele>1712</ele>
        <time>2020-08-07T10:47:12Z</time>
      </trkpt>
      <trkpt lat="45.69609" lon="6.72514">
        <ele>1710.5</ele>
        <time>2020-08-07T10:47:13Z</time>
      </trkpt>
      <trkpt lat="45.69612" lon="6.72538">
        <ele>1709.1</ele>
        <time>2020-08-07T10:47:14Z</time>
      </trkpt>
      <trkpt lat="45.69622" lon="6.7258">
        <ele>1706.6</ele>
        <time>2020-08-07T10:47:16Z</time>
      </trkpt>
      <trkpt lat="45.69631" lon="6.72617">
        <ele>1707</ele>
        <time>2020-08-07T10:47:18Z</time>
      </trkpt>
      <trkpt lat="45.69634" lon="6.72649">
        <ele>1706.8</ele>
        <time>2020-08-07T10:47:20Z</time>
      </trkpt>
      <trkpt lat="45.69633" lon="6.72662">
        <ele>1706.9</ele>
        <time>2020-08-07T10:47:21Z</time>
      </trkpt>
      <trkpt lat="45.6962" lon="6.72678">
        <ele>1707.1</ele>
        <time>2020-08-07T10:47:23Z</time>
      </trkpt>
      <trkpt lat="45.69605" lon="6.72666">
        <ele>1707.1</ele>
        <time>2020-08-07T10:47:25Z</time>
      </trkpt>
      <trkpt lat="45.69602" lon="6.72653">
        <ele>1707</ele>
        <time>2020-08-07T10:47:26Z</time>
      </trkpt>
      <trkpt lat="45.69601" lon="6.72639">
        <ele>1707</ele>
        <time>2020-08-07T10:47:27Z</time>
      </trkpt>
      <trkpt lat="45.69597" lon="6.72611">
        <ele>1706.9</ele>
        <time>2020-08-07T10:47:29Z</time>
      </trkpt>
      <trkpt lat="45.69594" lon="6.72597">
        <ele>1706.9</ele>
        <time>2020-08-07T10:47:30Z</time>
      </trkpt>
      <trkpt lat="45.6959" lon="6.72583">
        <ele>1707</ele>
        <time>2020-08-07T10:47:31Z</time>
      </trkpt>
      <trkpt lat="45.69585" lon="6.72569">
        <ele>1707.1</ele>
        <time>2020-08-07T10:47:32Z</time>
      </trkpt>
      <trkpt lat="45.69576" lon="6.7254">
        <ele>1707.2</ele>
        <time>2020-08-07T10:47:34Z</time>
      </trkpt>
      <trkpt lat="45.69565" lon="6.72511">
        <ele>1707.4</ele>
        <time>2020-08-07T10:47:36Z</time>
      </trkpt>
      <trkpt lat="45.69558" lon="6.72497">
        <ele>1707.6</ele>
        <time>2020-08-07T10:47:37Z</time>
      </trkpt>
      <trkpt lat="45.69551" lon="6.72483">
        <ele>1707.9</ele>
        <time>2020-08-07T10:47:38Z</time>
      </trkpt>
      <trkpt lat="45.69537" lon="6.72456">
        <ele>1708.4</ele>
        <time>2020-08-07T10:47:40Z</time>
      </trkpt>
      <trkpt lat="45.6953" lon="6.72444">
        <ele>1708.7</ele>
        <time>2020-08-07T10:47:41Z</time>
      </trkpt>
      <trkpt lat="45.69524" lon="6.72431">
        <ele>1708.9</ele>
        <time>2020-08-07T10:47:42Z</time>
      </trkpt>
      <trkpt lat="45.69518" lon="6.72402">
        <ele>1709.1</ele>
        <time>2020-08-07T10:47:44Z</time>
      </trkpt>
      <trkpt lat="45.69519" lon="6.72387">
        <ele>1709</ele>
        <time>2020-08-07T10:47:45Z</time>
      </trkpt>
      <trkpt lat="45.69527" lon="6.72356">
        <ele>1708.6</ele>
        <time>2020-08-07T10:47:47Z</time>
      </trkpt>
      <trkpt lat="45.69532" lon="6.72323">
        <ele>1708.1</ele>
        <time>2020-08-07T10:47:49Z</time>
      </trkpt>
      <trkpt lat="45.6953" lon="6.72305">
        <ele>1707.9</ele>
        <time>2020-08-07T10:47:50Z</time>
      </trkpt>
      <trkpt lat="45.69527" lon="6.72287">
        <ele>1707.7</ele>
        <time>2020-08-07T10:47:51Z</time>
      </trkpt>
      <trkpt lat="45.69519" lon="6.72254">
        <ele>1707.5</ele>
        <time>2020-08-07T10:47:53Z</time>
      </trkpt>
      <trkpt lat="45.69515" lon="6.72238">
        <ele>1707.5</ele>
        <time>2020-08-07T10:47:54Z</time>
      </trkpt>
      <trkpt lat="45.695" lon="6.72214">
        <ele>1707.2</ele>
        <time>2020-08-07T10:47:56Z</time>
      </trkpt>
      <trkpt lat="45.6948" lon="6.72201">
        <ele>1706.8</ele>
        <time>2020-08-07T10:47:58Z</time>
      </trkpt>
      <trkpt lat="45.69458" lon="6.7221">
        <ele>1705.1</ele>
        <time>2020-08-07T10:48:00Z</time>
      </trkpt>
      <trkpt lat="45.69438" lon="6.72234">
        <ele>1696.5</ele>
        <time>2020-08-07T10:48:02Z</time>
      </trkpt>
      <trkpt lat="45.69421" lon="6.72266">
        <ele>1687.1</ele>
        <time>2020-08-07T10:48:04Z</time>
      </trkpt>
      <trkpt lat="45.69406" lon="6.723">
        <ele>1678.9</ele>
        <time>2020-08-07T10:48:06Z</time>
      </trkpt>
      <trkpt lat="45.69399" lon="6.72318">
        <ele>1677</ele>
        <time>2020-08-07T10:48:07Z</time>
      </trkpt>
      <trkpt lat="45.69388" lon="6.72355">
        <ele>1673.2</ele>
        <time>2020-08-07T10:48:09Z</time>
      </trkpt>
      <trkpt lat="45.69387" lon="6.72374">
        <ele>1671.3</ele>
        <time>2020-08-07T10:48:10Z</time>
      </trkpt>
      <trkpt lat="45.69389" lon="6.72416">
        <ele>1667.4</ele>
        <time>2020-08-07T10:48:12Z</time>
      </trkpt>
      <trkpt lat="45.69395" lon="6.72459">
        <ele>1662.4</ele>
        <time>2020-08-07T10:48:14Z</time>
      </trkpt>
      <trkpt lat="45.69397" lon="6.72482">
        <ele>1659.8</ele>
        <time>2020-08-07T10:48:15Z</time>
      </trkpt>
      <trkpt lat="45.69401" lon="6.72528">
        <ele>1654.6</ele>
        <time>2020-08-07T10:48:17Z</time>
      </trkpt>
      <trkpt lat="45.69402" lon="6.72553">
        <ele>1651.8</ele>
        <time>2020-08-07T10:48:18Z</time>
      </trkpt>
      <trkpt lat="45.69403" lon="6.72603">
        <ele>1646.3</ele>
        <time>2020-08-07T10:48:20Z</time>
      </trkpt>
      <trkpt lat="45.69401" lon="6.72653">
        <ele>1640.8</ele>
        <time>2020-08-07T10:48:22Z</time>
      </trkpt>
      <trkpt lat="45.69394" lon="6.72706">
        <ele>1635.5</ele>
        <time>2020-08-07T10:48:24Z</time>
      </trkpt>
      <trkpt lat="45.69384" lon="6.7276">
        <ele>1631.2</ele>
        <time>2020-08-07T10:48:26Z</time>
      </trkpt>
      <trkpt lat="45.69379" lon="6.72788">
        <ele>1629.1</ele>
        <time>2020-08-07T10:48:27Z</time>
      </trkpt>
      <trkpt lat="45.69368" lon="6.72843">
        <ele>1625</ele>
        <time>2020-08-07T10:48:29Z</time>
      </trkpt>
      <trkpt lat="45.6936" lon="6.72901">
        <ele>1621</ele>
        <time>2020-08-07T10:48:31Z</time>
      </trkpt>
      <trkpt lat="45.69358" lon="6.72931">
        <ele>1618.9</ele>
        <time>2020-08-07T10:48:32Z</time>
      </trkpt>
      <trkpt lat="45.6935" lon="6.72988">
        <ele>1615.2</ele>
        <time>2020-08-07T10:48:34Z</time>
      </trkpt>
      <trkpt lat="45.69346" lon="6.73015">
        <ele>1613.3</ele>
        <time>2020-08-07T10:48:35Z</time>
      </trkpt>
      <trkpt lat="45.69341" lon="6.7304">
        <ele>1611.6</ele>
        <time>2020-08-07T10:48:36Z</time>
      </trkpt>
      <trkpt lat="45.69336" lon="6.73063">
        <ele>1610.1</ele>
        <time>2020-08-07T10:48:37Z</time>
      </trkpt>
      <trkpt lat="45.69332" lon="6.73084">
        <ele>1608.8</ele>
        <time>2020-08-07T10:48:38Z</time>
      </trkpt>
      <trkpt lat="45.69332" lon="6.73124">
        <ele>1606.3</ele>
        <time>2020-08-07T10:48:40Z</time>
      </trkpt>
      <trkpt lat="45.69336" lon="6.7316">
        <ele>1604.8</ele>
        <time>2020-08-07T10:48:42Z</time>
      </trkpt>
      <trkpt lat="45.69337" lon="6.73174">
        <ele>1604.3</ele>
        <time>2020-08-07T10:48:43Z</time>
      </trkpt>
      <trkpt lat="45.69332" lon="6.73197">
        <ele>1603.3</ele>
        <time>2020-08-07T10:48:45Z</time>
      </trkpt>
      <trkpt lat="45.69323" lon="6.73206">
        <ele>1602.5</ele>
        <time>2020-08-07T10:48:46Z</time>
      </trkpt>
      <trkpt lat="45.69312" lon="6.73212">
        <ele>1601.4</ele>
        <time>2020-08-07T10:48:47Z</time>
      </trkpt>
      <trkpt lat="45.69288" lon="6.73224">
        <ele>1599.2</ele>
        <time>2020-08-07T10:48:49Z</time>
      </trkpt>
      <trkpt lat="45.69276" lon="6.7323">
        <ele>1598.1</ele>
        <time>2020-08-07T10:48:50Z</time>
      </trkpt>
      <trkpt lat="45.69252" lon="6.7324">
        <ele>1596.2</ele>
        <time>2020-08-07T10:48:52Z</time>
      </trkpt>
      <trkpt lat="45.69238" lon="6.73243">
        <ele>1595.2</ele>
        <time>2020-08-07T10:48:53Z</time>
      </trkpt>
      <trkpt lat="45.6921" lon="6.73248">
        <ele>1593</ele>
        <time>2020-08-07T10:48:55Z</time>
      </trkpt>
      <trkpt lat="45.69181" lon="6.73256">
        <ele>1590.6</ele>
        <time>2020-08-07T10:48:57Z</time>
      </trkpt>
      <trkpt lat="45.69166" lon="6.73259">
        <ele>1589.4</ele>
        <time>2020-08-07T10:48:58Z</time>
      </trkpt>
      <trkpt lat="45.69136" lon="6.73264">
        <ele>1586.8</ele>
        <time>2020-08-07T10:49:00Z</time>
      </trkpt>
      <trkpt lat="45.6912" lon="6.73264">
        <ele>1585.3</ele>
        <time>2020-08-07T10:49:01Z</time>
      </trkpt>
      <trkpt lat="45.69089" lon="6.73265">
        <ele>1582.1</ele>
        <time>2020-08-07T10:49:03Z</time>
      </trkpt>
      <trkpt lat="45.69072" lon="6.73267">
        <ele>1580.7</ele>
        <time>2020-08-07T10:49:04Z</time>
      </trkpt>
      <trkpt lat="45.69056" lon="6.73271">
        <ele>1579.3</ele>
        <time>2020-08-07T10:49:05Z</time>
      </trkpt>
      <trkpt lat="45.69039" lon="6.73277">
        <ele>1577.9</ele>
        <time>2020-08-07T10:49:06Z</time>
      </trkpt>
      <trkpt lat="45.69006" lon="6.73289">
        <ele>1575.1</ele>
        <time>2020-08-07T10:49:08Z</time>
      </trkpt>
      <trkpt lat="45.68971" lon="6.73295">
        <ele>1572.4</ele>
        <time>2020-08-07T10:49:10Z</time>
      </trkpt>
      <trkpt lat="45.68937" lon="6.73303">
        <ele>1570</ele>
        <time>2020-08-07T10:49:12Z</time>
      </trkpt>
      <trkpt lat="45.6892" lon="6.73306">
        <ele>1568.8</ele>
        <time>2020-08-07T10:49:13Z</time>
      </trkpt>
      <trkpt lat="45.6889" lon="6.73309">
        <ele>1566.2</ele>
        <time>2020-08-07T10:49:15Z</time>
      </trkpt>
      <trkpt lat="45.68874" lon="6.73306">
        <ele>1564.7</ele>
        <time>2020-08-07T10:49:16Z</time>
      </trkpt>
      <trkpt lat="45.68844" lon="6.73293">
        <ele>1561.8</ele>
        <time>2020-08-07T10:49:18Z</time>
      </trkpt>
      <trkpt lat="45.68829" lon="6.73286">
        <ele>1560.4</ele>
        <time>2020-08-07T10:49:19Z</time>
      </trkpt>
      <trkpt lat="45.68796" lon="6.7328">
        <ele>1557.7</ele>
        <time>2020-08-07T10:49:21Z</time>
      </trkpt>
      <trkpt lat="45.68779" lon="6.7328">
        <ele>1556.2</ele>
        <time>2020-08-07T10:49:22Z</time>
      </trkpt>
      <trkpt lat="45.68763" lon="6.73284">
        <ele>1554.8</ele>
        <time>2020-08-07T10:49:23Z</time>
      </trkpt>
      <trkpt lat="45.68729" lon="6.73294">
        <ele>1552.1</ele>
        <time>2020-08-07T10:49:25Z</time>
      </trkpt>
      <trkpt lat="45.68713" lon="6.733">
        <ele>1550.8</ele>
        <time>2020-08-07T10:49:26Z</time>
      </trkpt>
      <trkpt lat="45.6868" lon="6.73308">
        <ele>1548.5</ele>
        <time>2020-08-07T10:49:28Z</time>
      </trkpt>
      <trkpt lat="45.68648" lon="6.73317">
        <ele>1546.4</ele>
        <time>2020-08-07T10:49:30Z</time>
      </trkpt>
      <trkpt lat="45.68632" lon="6.73326">
        <ele>1545.2</ele>
        <time>2020-08-07T10:49:31Z</time>
      </trkpt>
      <trkpt lat="45.68605" lon="6.73352">
        <ele>1542.6</ele>
        <time>2020-08-07T10:49:33Z</time>
      </trkpt>
      <trkpt lat="45.68596" lon="6.73371">
        <ele>1541.2</ele>
        <time>2020-08-07T10:49:34Z</time>
      </trkpt>
      <trkpt lat="45.68584" lon="6.73413">
        <ele>1541.6</ele>
        <time>2020-08-07T10:49:36Z</time>
      </trkpt>
      <trkpt lat="45.68582" lon="6.73435">
        <ele>1542.5</ele>
        <time>2020-08-07T10:49:37Z</time>
      </trkpt>
      <trkpt lat="45.68583" lon="6.73477">
        <ele>1539.7</ele>
        <time>2020-08-07T10:49:39Z</time>
      </trkpt>
      <trkpt lat="45.6858" lon="6.73518">
        <ele>1537.1</ele>
        <time>2020-08-07T10:49:41Z</time>
      </trkpt>
      <trkpt lat="45.68577" lon="6.73538">
        <ele>1535.9</ele>
        <time>2020-08-07T10:49:42Z</time>
      </trkpt>
      <trkpt lat="45.68564" lon="6.73577">
        <ele>1533.5</ele>
        <time>2020-08-07T10:49:44Z</time>
      </trkpt>
      <trkpt lat="45.68548" lon="6.73612">
        <ele>1531.4</ele>
        <time>2020-08-07T10:49:46Z</time>
      </trkpt>
      <trkpt lat="45.68539" lon="6.73629">
        <ele>1530.4</ele>
        <time>2020-08-07T10:49:47Z</time>
      </trkpt>
      <trkpt lat="45.68529" lon="6.73645">
        <ele>1529.4</ele>
        <time>2020-08-07T10:49:48Z</time>
      </trkpt>
      <trkpt lat="45.6851" lon="6.73674">
        <ele>1528.6</ele>
        <time>2020-08-07T10:49:50Z</time>
      </trkpt>
      <trkpt lat="45.685" lon="6.73687">
        <ele>1529.4</ele>
        <time>2020-08-07T10:49:51Z</time>
      </trkpt>
      <trkpt lat="45.68477" lon="6.73706">
        <ele>1529.8</ele>
        <time>2020-08-07T10:49:53Z</time>
      </trkpt>
      <trkpt lat="45.68464" lon="6.73714">
        <ele>1530.1</ele>
        <time>2020-08-07T10:49:54Z</time>
      </trkpt>
      <trkpt lat="45.68439" lon="6.73726">
        <ele>1530.5</ele>
        <time>2020-08-07T10:49:56Z</time>
      </trkpt>
      <trkpt lat="45.68414" lon="6.73734">
        <ele>1530.9</ele>
        <time>2020-08-07T10:49:58Z</time>
      </trkpt>
      <trkpt lat="45.68389" lon="6.73741">
        <ele>1531.2</ele>
        <time>2020-08-07T10:50:00Z</time>
      </trkpt>
      <trkpt lat="45.68363" lon="6.73747">
        <ele>1531.6</ele>
        <time>2020-08-07T10:50:02Z</time>
      </trkpt>
      <trkpt lat="45.68351" lon="6.73751">
        <ele>1531.9</ele>
        <time>2020-08-07T10:50:03Z</time>
      </trkpt>
      <trkpt lat="45.68339" lon="6.73755">
        <ele>1532.3</ele>
        <time>2020-08-07T10:50:04Z</time>
      </trkpt>
      <trkpt lat="45.68327" lon="6.7376">
        <ele>1532.6</ele>
        <time>2020-08-07T10:50:05Z</time>
      </trkpt>
      <trkpt lat="45.68316" lon="6.73766">
        <ele>1533</ele>
        <time>2020-08-07T10:50:06Z</time>
      </trkpt>
      <trkpt lat="45.68306" lon="6.73775">
        <ele>1533.4</ele>
        <time>2020-08-07T10:50:07Z</time>
      </trkpt>
      <trkpt lat="45.68297" lon="6.73784">
        <ele>1533.8</ele>
        <time>2020-08-07T10:50:08Z</time>
      </trkpt>
      <trkpt lat="45.68281" lon="6.73805">
        <ele>1534.4</ele>
        <time>2020-08-07T10:50:10Z</time>
      </trkpt>
      <trkpt lat="45.68268" lon="6.7383">
        <ele>1535.1</ele>
        <time>2020-08-07T10:50:12Z</time>
      </trkpt>
      <trkpt lat="45.68255" lon="6.73855">
        <ele>1535.5</ele>
        <time>2020-08-07T10:50:14Z</time>
      </trkpt>
      <trkpt lat="45.68243" lon="6.73879">
        <ele>1535.8</ele>
        <time>2020-08-07T10:50:16Z</time>
      </trkpt>
      <trkpt lat="45.68231" lon="6.73901">
        <ele>1535.9</ele>
        <time>2020-08-07T10:50:18Z</time>
      </trkpt>
      <trkpt lat="45.68225" lon="6.73913">
        <ele>1535.9</ele>
        <time>2020-08-07T10:50:19Z</time>
      </trkpt>
      <trkpt lat="45.68212" lon="6.73933">
        <ele>1535.9</ele>
        <time>2020-08-07T10:50:21Z</time>
      </trkpt>
      <trkpt lat="45.68204" lon="6.73942">
        <ele>1535.8</ele>
        <time>2020-08-07T10:50:22Z</time>
      </trkpt>
      <trkpt lat="45.68195" lon="6.7395">
        <ele>1535.5</ele>
        <time>2020-08-07T10:50:23Z</time>
      </trkpt>
      <trkpt lat="45.68175" lon="6.7396">
        <ele>1535</ele>
        <time>2020-08-07T10:50:25Z</time>
      </trkpt>
      <trkpt lat="45.68164" lon="6.73964">
        <ele>1534.8</ele>
        <time>2020-08-07T10:50:26Z</time>
      </trkpt>
      <trkpt lat="45.68143" lon="6.73975">
        <ele>1535.6</ele>
        <time>2020-08-07T10:50:28Z</time>
      </trkpt>
      <trkpt lat="45.68122" lon="6.73988">
        <ele>1536.4</ele>
        <time>2020-08-07T10:50:30Z</time>
      </trkpt>
      <trkpt lat="45.68111" lon="6.73997">
        <ele>1535.8</ele>
        <time>2020-08-07T10:50:31Z</time>
      </trkpt>
      <trkpt lat="45.68091" lon="6.74019">
        <ele>1535</ele>
        <time>2020-08-07T10:50:33Z</time>
      </trkpt>
      <trkpt lat="45.68071" lon="6.74041">
        <ele>1534</ele>
        <time>2020-08-07T10:50:35Z</time>
      </trkpt>
      <trkpt lat="45.6805" lon="6.74062">
        <ele>1530.8</ele>
        <time>2020-08-07T10:50:37Z</time>
      </trkpt>
      <trkpt lat="45.68029" lon="6.74084">
        <ele>1527.8</ele>
        <time>2020-08-07T10:50:39Z</time>
      </trkpt>
      <trkpt lat="45.68007" lon="6.74108">
        <ele>1525</ele>
        <time>2020-08-07T10:50:41Z</time>
      </trkpt>
      <trkpt lat="45.67984" lon="6.74135">
        <ele>1522.5</ele>
        <time>2020-08-07T10:50:43Z</time>
      </trkpt>
      <trkpt lat="45.67963" lon="6.74163">
        <ele>1520.1</ele>
        <time>2020-08-07T10:50:45Z</time>
      </trkpt>
      <trkpt lat="45.67941" lon="6.7419">
        <ele>1517.6</ele>
        <time>2020-08-07T10:50:47Z</time>
      </trkpt>
      <trkpt lat="45.6793" lon="6.74204">
        <ele>1516.3</ele>
        <time>2020-08-07T10:50:48Z</time>
      </trkpt>
      <trkpt lat="45.67909" lon="6.7423">
        <ele>1513.8</ele>
        <time>2020-08-07T10:50:50Z</time>
      </trkpt>
      <trkpt lat="45.67898" lon="6.74243">
        <ele>1512.6</ele>
        <time>2020-08-07T10:50:51Z</time>
      </trkpt>
      <trkpt lat="45.67887" lon="6.74256">
        <ele>1511.3</ele>
        <time>2020-08-07T10:50:52Z</time>
      </trkpt>
      <trkpt lat="45.67864" lon="6.74281">
        <ele>1508.6</ele>
        <time>2020-08-07T10:50:54Z</time>
      </trkpt>
      <trkpt lat="45.67843" lon="6.74309">
        <ele>1505.9</ele>
        <time>2020-08-07T10:50:56Z</time>
      </trkpt>
      <trkpt lat="45.67833" lon="6.74325">
        <ele>1504.5</ele>
        <time>2020-08-07T10:50:57Z</time>
      </trkpt>
      <trkpt lat="45.67815" lon="6.74358">
        <ele>1501.8</ele>
        <time>2020-08-07T10:50:59Z</time>
      </trkpt>
      <trkpt lat="45.678" lon="6.74393">
        <ele>1499.2</ele>
        <time>2020-08-07T10:51:01Z</time>
      </trkpt>
      <trkpt lat="45.67793" lon="6.74413">
        <ele>1497.8</ele>
        <time>2020-08-07T10:51:02Z</time>
      </trkpt>
      <trkpt lat="45.67786" lon="6.74432">
        <ele>1496.4</ele>
        <time>2020-08-07T10:51:03Z</time>
      </trkpt>
      <trkpt lat="45.67779" lon="6.74451">
        <ele>1495.1</ele>
        <time>2020-08-07T10:51:04Z</time>
      </trkpt>
      <trkpt lat="45.67765" lon="6.74489">
        <ele>1492.8</ele>
        <time>2020-08-07T10:51:06Z</time>
      </trkpt>
      <trkpt lat="45.67758" lon="6.74509">
        <ele>1491.9</ele>
        <time>2020-08-07T10:51:07Z</time>
      </trkpt>
      <trkpt lat="45.67745" lon="6.74547">
        <ele>1491.8</ele>
        <time>2020-08-07T10:51:09Z</time>
      </trkpt>
      <trkpt lat="45.67731" lon="6.74583">
        <ele>1492</ele>
        <time>2020-08-07T10:51:11Z</time>
      </trkpt>
      <trkpt lat="45.67716" lon="6.74619">
        <ele>1492.2</ele>
        <time>2020-08-07T10:51:13Z</time>
      </trkpt>
      <trkpt lat="45.67697" lon="6.74649">
        <ele>1492.3</ele>
        <time>2020-08-07T10:51:15Z</time>
      </trkpt>
      <trkpt lat="45.67673" lon="6.74673">
        <ele>1492.3</ele>
        <time>2020-08-07T10:51:17Z</time>
      </trkpt>
      <trkpt lat="45.6766" lon="6.74682">
        <ele>1492.4</ele>
        <time>2020-08-07T10:51:18Z</time>
      </trkpt>
      <trkpt lat="45.67636" lon="6.74698">
        <ele>1492.6</ele>
        <time>2020-08-07T10:51:20Z</time>
      </trkpt>
      <trkpt lat="45.67626" lon="6.74709">
        <ele>1492.7</ele>
        <time>2020-08-07T10:51:21Z</time>
      </trkpt>
      <trkpt lat="45.67608" lon="6.74738">
        <ele>1492.1</ele>
        <time>2020-08-07T10:51:23Z</time>
      </trkpt>
      <trkpt lat="45.67596" lon="6.74773">
        <ele>1490.8</ele>
        <time>2020-08-07T10:51:25Z</time>
      </trkpt>
      <trkpt lat="45.67589" lon="6.7479">
        <ele>1490</ele>
        <time>2020-08-07T10:51:26Z</time>
      </trkpt>
      <trkpt lat="45.67575" lon="6.74823">
        <ele>1487.9</ele>
        <time>2020-08-07T10:51:28Z</time>
      </trkpt>
      <trkpt lat="45.67568" lon="6.74841">
        <ele>1486.8</ele>
        <time>2020-08-07T10:51:29Z</time>
      </trkpt>
      <trkpt lat="45.67564" lon="6.7486">
        <ele>1485.8</ele>
        <time>2020-08-07T10:51:30Z</time>
      </trkpt>
      <trkpt lat="45.6756" lon="6.749">
        <ele>1484.3</ele>
        <time>2020-08-07T10:51:32Z</time>
      </trkpt>
      <trkpt lat="45.67559" lon="6.7492">
        <ele>1483.6</ele>
        <time>2020-08-07T10:51:33Z</time>
      </trkpt>
      <trkpt lat="45.67556" lon="6.7494">
        <ele>1483</ele>
        <time>2020-08-07T10:51:34Z</time>
      </trkpt>
      <trkpt lat="45.67547" lon="6.74975">
        <ele>1481.9</ele>
        <time>2020-08-07T10:51:36Z</time>
      </trkpt>
      <trkpt lat="45.6754" lon="6.74992">
        <ele>1481.4</ele>
        <time>2020-08-07T10:51:37Z</time>
      </trkpt>
      <trkpt lat="45.67524" lon="6.75021">
        <ele>1480.6</ele>
        <time>2020-08-07T10:51:39Z</time>
      </trkpt>
      <trkpt lat="45.67504" lon="6.75044">
        <ele>1480.2</ele>
        <time>2020-08-07T10:51:41Z</time>
      </trkpt>
      <trkpt lat="45.67483" lon="6.75063">
        <ele>1479.8</ele>
        <time>2020-08-07T10:51:43Z</time>
      </trkpt>
      <trkpt lat="45.67465" lon="6.75085">
        <ele>1479.4</ele>
        <time>2020-08-07T10:51:45Z</time>
      </trkpt>
      <trkpt lat="45.67457" lon="6.75097">
        <ele>1479.3</ele>
        <time>2020-08-07T10:51:46Z</time>
      </trkpt>
      <trkpt lat="45.67441" lon="6.75121">
        <ele>1479.1</ele>
        <time>2020-08-07T10:51:48Z</time>
      </trkpt>
      <trkpt lat="45.67434" lon="6.75132">
        <ele>1479.1</ele>
        <time>2020-08-07T10:51:49Z</time>
      </trkpt>
      <trkpt lat="45.67426" lon="6.75144">
        <ele>1479</ele>
        <time>2020-08-07T10:51:50Z</time>
      </trkpt>
      <trkpt lat="45.67414" lon="6.75171">
        <ele>1478.8</ele>
        <time>2020-08-07T10:51:52Z</time>
      </trkpt>
      <trkpt lat="45.67411" lon="6.75185">
        <ele>1478.6</ele>
        <time>2020-08-07T10:51:53Z</time>
      </trkpt>
      <trkpt lat="45.67408" lon="6.75216">
        <ele>1478.3</ele>
        <time>2020-08-07T10:51:55Z</time>
      </trkpt>
      <trkpt lat="45.67407" lon="6.75245">
        <ele>1478.1</ele>
        <time>2020-08-07T10:51:57Z</time>
      </trkpt>
      <trkpt lat="45.67406" lon="6.7526">
        <ele>1478.1</ele>
        <time>2020-08-07T10:51:58Z</time>
      </trkpt>
      <trkpt lat="45.67406" lon="6.75274">
        <ele>1478</ele>
        <time>2020-08-07T10:51:59Z</time>
      </trkpt>
      <trkpt lat="45.6741" lon="6.75301">
        <ele>1477.7</ele>
        <time>2020-08-07T10:52:01Z</time>
      </trkpt>
      <trkpt lat="45.67413" lon="6.75329">
        <ele>1477.6</ele>
        <time>2020-08-07T10:52:03Z</time>
      </trkpt>
      <trkpt lat="45.67414" lon="6.75343">
        <ele>1477.5</ele>
        <time>2020-08-07T10:52:04Z</time>
      </trkpt>
      <trkpt lat="45.67413" lon="6.75356">
        <ele>1477.4</ele>
        <time>2020-08-07T10:52:05Z</time>
      </trkpt>
      <trkpt lat="45.67409" lon="6.75382">
        <ele>1477.1</ele>
        <time>2020-08-07T10:52:07Z</time>
      </trkpt>
      <trkpt lat="45.67405" lon="6.75395">
        <ele>1477</ele>
        <time>2020-08-07T10:52:08Z</time>
      </trkpt>
      <trkpt lat="45.67397" lon="6.75419">
        <ele>1476.7</ele>
        <time>2020-08-07T10:52:10Z</time>
      </trkpt>
      <trkpt lat="45.67392" lon="6.7543">
        <ele>1476.6</ele>
        <time>2020-08-07T10:52:11Z</time>
      </trkpt>
      <trkpt lat="45.67383" lon="6.75452">
        <ele>1476.2</ele>
        <time>2020-08-07T10:52:13Z</time>
      </trkpt>
      <trkpt lat="45.67377" lon="6.75462">
        <ele>1476.1</ele>
        <time>2020-08-07T10:52:14Z</time>
      </trkpt>
      <trkpt lat="45.67372" lon="6.75471">
        <ele>1475.9</ele>
        <time>2020-08-07T10:52:15Z</time>
      </trkpt>
      <trkpt lat="45.67358" lon="6.75486">
        <ele>1475.7</ele>
        <time>2020-08-07T10:52:17Z</time>
      </trkpt>
      <trkpt lat="45.67351" lon="6.75494">
        <ele>1475.6</ele>
        <time>2020-08-07T10:52:18Z</time>
      </trkpt>
      <trkpt lat="45.67338" lon="6.7551">
        <ele>1475.4</ele>
        <time>2020-08-07T10:52:20Z</time>
      </trkpt>
      <trkpt lat="45.67332" lon="6.75518">
        <ele>1475.3</ele>
        <time>2020-08-07T10:52:21Z</time>
      </trkpt>
      <trkpt lat="45.67326" lon="6.75527">
        <ele>1475.3</ele>
        <time>2020-08-07T10:52:22Z</time>
      </trkpt>
      <trkpt lat="45.67317" lon="6.75547">
        <ele>1475.2</ele>
        <time>2020-08-07T10:52:24Z</time>
      </trkpt>
      <trkpt lat="45.67309" lon="6.75569">
        <ele>1475</ele>
        <time>2020-08-07T10:52:26Z</time>
      </trkpt>
      <trkpt lat="45.67303" lon="6.7559">
        <ele>1474.7</ele>
        <time>2020-08-07T10:52:28Z</time>
      </trkpt>
      <trkpt lat="45.67298" lon="6.75613">
        <ele>1474.6</ele>
        <time>2020-08-07T10:52:30Z</time>
      </trkpt>
      <trkpt lat="45.67295" lon="6.75624">
        <ele>1474.5</ele>
        <time>2020-08-07T10:52:31Z</time>
      </trkpt>
      <trkpt lat="45.67286" lon="6.75644">
        <ele>1474.3</ele>
        <time>2020-08-07T10:52:33Z</time>
      </trkpt>
      <trkpt lat="45.67274" lon="6.7566">
        <ele>1474.1</ele>
        <time>2020-08-07T10:52:35Z</time>
      </trkpt>
      <trkpt lat="45.67261" lon="6.75675">
        <ele>1474</ele>
        <time>2020-08-07T10:52:37Z</time>
      </trkpt>
      <trkpt lat="45.67255" lon="6.75683">
        <ele>1473.9</ele>
        <time>2020-08-07T10:52:38Z</time>
      </trkpt>
      <trkpt lat="45.67244" lon="6.75701">
        <ele>1473.7</ele>
        <time>2020-08-07T10:52:40Z</time>
      </trkpt>
      <trkpt lat="45.67238" lon="6.7571">
        <ele>1473.6</ele>
        <time>2020-08-07T10:52:41Z</time>
      </trkpt>
      <trkpt lat="45.67226" lon="6.75725">
        <ele>1473.5</ele>
        <time>2020-08-07T10:52:43Z</time>
      </trkpt>
      <trkpt lat="45.67211" lon="6.75734">
        <ele>1473.5</ele>
        <time>2020-08-07T10:52:45Z</time>
      </trkpt>
      <trkpt lat="45.67196" lon="6.7574">
        <ele>1473.4</ele>
        <time>2020-08-07T10:52:47Z</time>
      </trkpt>
      <trkpt lat="45.67188" lon="6.75744">
        <ele>1473.3</ele>
        <time>2020-08-07T10:52:48Z</time>
      </trkpt>
      <trkpt lat="45.67173" lon="6.75753">
        <ele>1473.2</ele>
        <time>2020-08-07T10:52:50Z</time>
      </trkpt>
      <trkpt lat="45.67165" lon="6.75755">
        <ele>1473.1</ele>
        <time>2020-08-07T10:52:51Z</time>
      </trkpt>
      <trkpt lat="45.67157" lon="6.75755">
        <ele>1473</ele>
        <time>2020-08-07T10:52:52Z</time>
      </trkpt>
      <trkpt lat="45.67149" lon="6.75752">
        <ele>1472.9</ele>
        <time>2020-08-07T10:52:53Z</time>
      </trkpt>
      <trkpt lat="45.67133" lon="6.75745">
        <ele>1473</ele>
        <time>2020-08-07T10:52:55Z</time>
      </trkpt>
      <trkpt lat="45.67118" lon="6.7575">
        <ele>1473.1</ele>
        <time>2020-08-07T10:52:57Z</time>
      </trkpt>
      <trkpt lat="45.67106" lon="6.75766">
        <ele>1473.2</ele>
        <time>2020-08-07T10:52:59Z</time>
      </trkpt>
      <trkpt lat="45.67101" lon="6.75775">
        <ele>1473.3</ele>
        <time>2020-08-07T10:53:00Z</time>
      </trkpt>
      <trkpt lat="45.67096" lon="6.75785">
        <ele>1473.4</ele>
        <time>2020-08-07T10:53:01Z</time>
      </trkpt>
      <trkpt lat="45.67087" lon="6.75806">
        <ele>1473.5</ele>
        <time>2020-08-07T10:53:03Z</time>
      </trkpt>
      <trkpt lat="45.67078" lon="6.75827">
        <ele>1473.7</ele>
        <time>2020-08-07T10:53:05Z</time>
      </trkpt>
      <trkpt lat="45.67074" lon="6.75837">
        <ele>1473.8</ele>
        <time>2020-08-07T10:53:06Z</time>
      </trkpt>
      <trkpt lat="45.67064" lon="6.75856">
        <ele>1473.8</ele>
        <time>2020-08-07T10:53:08Z</time>
      </trkpt>
      <trkpt lat="45.67055" lon="6.75873">
        <ele>1473.7</ele>
        <time>2020-08-07T10:53:10Z</time>
      </trkpt>
      <trkpt lat="45.67045" lon="6.7589">
        <ele>1473.3</ele>
        <time>2020-08-07T10:53:12Z</time>
      </trkpt>
      <trkpt lat="45.67042" lon="6.75911">
        <ele>1472.6</ele>
        <time>2020-08-07T10:53:14Z</time>
      </trkpt>
      <trkpt lat="45.67054" lon="6.75933">
        <ele>1471.5</ele>
        <time>2020-08-07T10:53:16Z</time>
      </trkpt>
      <trkpt lat="45.67062" lon="6.75942">
        <ele>1470.8</ele>
        <time>2020-08-07T10:53:17Z</time>
      </trkpt>
      <trkpt lat="45.67071" lon="6.75951">
        <ele>1470.1</ele>
        <time>2020-08-07T10:53:18Z</time>
      </trkpt>
      <trkpt lat="45.67089" lon="6.7597">
        <ele>1468.6</ele>
        <time>2020-08-07T10:53:20Z</time>
      </trkpt>
      <trkpt lat="45.67102" lon="6.75996">
        <ele>1467.2</ele>
        <time>2020-08-07T10:53:22Z</time>
      </trkpt>
      <trkpt lat="45.67105" lon="6.76011">
        <ele>1466.5</ele>
        <time>2020-08-07T10:53:23Z</time>
      </trkpt>
      <trkpt lat="45.67105" lon="6.76027">
        <ele>1465.6</ele>
        <time>2020-08-07T10:53:24Z</time>
      </trkpt>
      <trkpt lat="45.67108" lon="6.76057">
        <ele>1463.7</ele>
        <time>2020-08-07T10:53:26Z</time>
      </trkpt>
      <trkpt lat="45.67119" lon="6.76087">
        <ele>1461.4</ele>
        <time>2020-08-07T10:53:28Z</time>
      </trkpt>
      <trkpt lat="45.67122" lon="6.76105">
        <ele>1460.2</ele>
        <time>2020-08-07T10:53:29Z</time>
      </trkpt>
      <trkpt lat="45.67122" lon="6.76124">
        <ele>1459</ele>
        <time>2020-08-07T10:53:30Z</time>
      </trkpt>
      <trkpt lat="45.67122" lon="6.76143">
        <ele>1457.8</ele>
        <time>2020-08-07T10:53:31Z</time>
      </trkpt>
      <trkpt lat="45.67122" lon="6.76184">
        <ele>1455.4</ele>
        <time>2020-08-07T10:53:33Z</time>
      </trkpt>
      <trkpt lat="45.67123" lon="6.76226">
        <ele>1453.9</ele>
        <time>2020-08-07T10:53:35Z</time>
      </trkpt>
      <trkpt lat="45.67122" lon="6.76268">
        <ele>1452.4</ele>
        <time>2020-08-07T10:53:37Z</time>
      </trkpt>
      <trkpt lat="45.67116" lon="6.76309">
        <ele>1450.9</ele>
        <time>2020-08-07T10:53:39Z</time>
      </trkpt>
      <trkpt lat="45.67107" lon="6.76342">
        <ele>1449.9</ele>
        <time>2020-08-07T10:53:41Z</time>
      </trkpt>
      <trkpt lat="45.67104" lon="6.76354">
        <ele>1449.5</ele>
        <time>2020-08-07T10:53:42Z</time>
      </trkpt>
      <trkpt lat="45.67104" lon="6.76379">
        <ele>1448.3</ele>
        <time>2020-08-07T10:53:44Z</time>
      </trkpt>
      <trkpt lat="45.67109" lon="6.76408">
        <ele>1445.6</ele>
        <time>2020-08-07T10:53:46Z</time>
      </trkpt>
      <trkpt lat="45.67114" lon="6.76442">
        <ele>1443.2</ele>
        <time>2020-08-07T10:53:48Z</time>
      </trkpt>
      <trkpt lat="45.67117" lon="6.76458">
        <ele>1442.1</ele>
        <time>2020-08-07T10:53:49Z</time>
      </trkpt>
      <trkpt lat="45.67122" lon="6.76487">
        <ele>1439.8</ele>
        <time>2020-08-07T10:53:51Z</time>
      </trkpt>
      <trkpt lat="45.67115" lon="6.76517">
        <ele>1437.2</ele>
        <time>2020-08-07T10:53:53Z</time>
      </trkpt>
      <trkpt lat="45.67104" lon="6.76547">
        <ele>1434.4</ele>
        <time>2020-08-07T10:53:55Z</time>
      </trkpt>
      <trkpt lat="45.67105" lon="6.76584">
        <ele>1431.3</ele>
        <time>2020-08-07T10:53:57Z</time>
      </trkpt>
      <trkpt lat="45.67106" lon="6.76603">
        <ele>1429.8</ele>
        <time>2020-08-07T10:53:58Z</time>
      </trkpt>
      <trkpt lat="45.67106" lon="6.76621">
        <ele>1428.4</ele>
        <time>2020-08-07T10:53:59Z</time>
      </trkpt>
      <trkpt lat="45.67104" lon="6.76659">
        <ele>1425.9</ele>
        <time>2020-08-07T10:54:01Z</time>
      </trkpt>
      <trkpt lat="45.67101" lon="6.76678">
        <ele>1424.7</ele>
        <time>2020-08-07T10:54:02Z</time>
      </trkpt>
      <trkpt lat="45.67099" lon="6.76695">
        <ele>1423.5</ele>
        <time>2020-08-07T10:54:03Z</time>
      </trkpt>
      <trkpt lat="45.67096" lon="6.76728">
        <ele>1421.2</ele>
        <time>2020-08-07T10:54:05Z</time>
      </trkpt>
      <trkpt lat="45.671" lon="6.76764">
        <ele>1418.6</ele>
        <time>2020-08-07T10:54:07Z</time>
      </trkpt>
      <trkpt lat="45.67101" lon="6.768">
        <ele>1415.7</ele>
        <time>2020-08-07T10:54:09Z</time>
      </trkpt>
      <trkpt lat="45.67094" lon="6.76836">
        <ele>1412.6</ele>
        <time>2020-08-07T10:54:11Z</time>
      </trkpt>
      <trkpt lat="45.67089" lon="6.76875">
        <ele>1409.1</ele>
        <time>2020-08-07T10:54:13Z</time>
      </trkpt>
      <trkpt lat="45.67085" lon="6.76896">
        <ele>1407.3</ele>
        <time>2020-08-07T10:54:14Z</time>
      </trkpt>
      <trkpt lat="45.67071" lon="6.76934">
        <ele>1403.6</ele>
        <time>2020-08-07T10:54:16Z</time>
      </trkpt>
      <trkpt lat="45.67061" lon="6.76952">
        <ele>1401.9</ele>
        <time>2020-08-07T10:54:17Z</time>
      </trkpt>
      <trkpt lat="45.67051" lon="6.76969">
        <ele>1400.4</ele>
        <time>2020-08-07T10:54:18Z</time>
      </trkpt>
      <trkpt lat="45.6703" lon="6.76998">
        <ele>1398.2</ele>
        <time>2020-08-07T10:54:20Z</time>
      </trkpt>
      <trkpt lat="45.67015" lon="6.77021">
        <ele>1396.9</ele>
        <time>2020-08-07T10:54:22Z</time>
      </trkpt>
      <trkpt lat="45.67012" lon="6.77047">
        <ele>1395.7</ele>
        <time>2020-08-07T10:54:24Z</time>
      </trkpt>
      <trkpt lat="45.67015" lon="6.77059">
        <ele>1394.8</ele>
        <time>2020-08-07T10:54:25Z</time>
      </trkpt>
      <trkpt lat="45.67029" lon="6.77076">
        <ele>1392.7</ele>
        <time>2020-08-07T10:54:27Z</time>
      </trkpt>
      <trkpt lat="45.67038" lon="6.77093">
        <ele>1393.5</ele>
        <time>2020-08-07T10:54:29Z</time>
      </trkpt>
      <trkpt lat="45.67035" lon="6.77104">
        <ele>1392.8</ele>
        <time>2020-08-07T10:54:30Z</time>
      </trkpt>
      <trkpt lat="45.67019" lon="6.77127">
        <ele>1390.4</ele>
        <time>2020-08-07T10:54:32Z</time>
      </trkpt>
      <trkpt lat="45.6701" lon="6.77157">
        <ele>1387.8</ele>
        <time>2020-08-07T10:54:34Z</time>
      </trkpt>
      <trkpt lat="45.67006" lon="6.77176">
        <ele>1386.4</ele>
        <time>2020-08-07T10:54:35Z</time>
      </trkpt>
      <trkpt lat="45.67003" lon="6.77215">
        <ele>1383.8</ele>
        <time>2020-08-07T10:54:37Z</time>
      </trkpt>
      <trkpt lat="45.67006" lon="6.77255">
        <ele>1381.3</ele>
        <time>2020-08-07T10:54:39Z</time>
      </trkpt>
      <trkpt lat="45.67007" lon="6.77276">
        <ele>1380.2</ele>
        <time>2020-08-07T10:54:40Z</time>
      </trkpt>
      <trkpt lat="45.67007" lon="6.77297">
        <ele>1379.1</ele>
        <time>2020-08-07T10:54:41Z</time>
      </trkpt>
      <trkpt lat="45.67004" lon="6.77338">
        <ele>1377</ele>
        <time>2020-08-07T10:54:43Z</time>
      </trkpt>
      <trkpt lat="45.67001" lon="6.77358">
        <ele>1375.9</ele>
        <time>2020-08-07T10:54:44Z</time>
      </trkpt>
      <trkpt lat="45.66991" lon="6.77392">
        <ele>1374.2</ele>
        <time>2020-08-07T10:54:46Z</time>
      </trkpt>
      <trkpt lat="45.66984" lon="6.77416">
        <ele>1373.1</ele>
        <time>2020-08-07T10:54:48Z</time>
      </trkpt>
      <trkpt lat="45.66983" lon="6.77425">
        <ele>1372.6</ele>
        <time>2020-08-07T10:54:49Z</time>
      </trkpt>
      <trkpt lat="45.66983" lon="6.7744">
        <ele>1371.3</ele>
        <time>2020-08-07T10:54:51Z</time>
      </trkpt>
      <trkpt lat="45.66981" lon="6.77442">
        <ele>1371</ele>
        <time>2020-08-07T10:54:52Z</time>
      </trkpt>
      <trkpt lat="45.66972" lon="6.77433">
        <ele>1369</ele>
        <time>2020-08-07T10:54:54Z</time>
      </trkpt>
      <trkpt lat="45.66974" lon="6.77403">
        <ele>1365.7</ele>
        <time>2020-08-07T10:54:56Z</time>
      </trkpt>
      <trkpt lat="45.66976" lon="6.77388">
        <ele>1364.4</ele>
        <time>2020-08-07T10:54:57Z</time>
      </trkpt>
      <trkpt lat="45.66976" lon="6.77373">
        <ele>1363.3</ele>
        <time>2020-08-07T10:54:58Z</time>
      </trkpt>
      <trkpt lat="45.66975" lon="6.77343">
        <ele>1361.4</ele>
        <time>2020-08-07T10:55:00Z</time>
      </trkpt>
      <trkpt lat="45.66972" lon="6.77326">
        <ele>1360.4</ele>
        <time>2020-08-07T10:55:01Z</time>
      </trkpt>
      <trkpt lat="45.66969" lon="6.77308">
        <ele>1359.4</ele>
        <time>2020-08-07T10:55:02Z</time>
      </trkpt>
      <trkpt lat="45.66966" lon="6.7729">
        <ele>1358.4</ele>
        <time>2020-08-07T10:55:03Z</time>
      </trkpt>
      <trkpt lat="45.66964" lon="6.77272">
        <ele>1357.5</ele>
        <time>2020-08-07T10:55:04Z</time>
      </trkpt>
      <trkpt lat="45.6696" lon="6.77234">
        <ele>1356.3</ele>
        <time>2020-08-07T10:55:06Z</time>
      </trkpt>
      <trkpt lat="45.66959" lon="6.77217">
        <ele>1355.8</ele>
        <time>2020-08-07T10:55:07Z</time>
      </trkpt>
      <trkpt lat="45.66958" lon="6.77188">
        <ele>1355.5</ele>
        <time>2020-08-07T10:55:09Z</time>
      </trkpt>
      <trkpt lat="45.6696" lon="6.77174">
        <ele>1353.6</ele>
        <time>2020-08-07T10:55:10Z</time>
      </trkpt>
      <trkpt lat="45.66964" lon="6.77159">
        <ele>1353.3</ele>
        <time>2020-08-07T10:55:12Z</time>
      </trkpt>
      <trkpt lat="45.66958" lon="6.7715">
        <ele>1352.1</ele>
        <time>2020-08-07T10:55:14Z</time>
      </trkpt>
      <trkpt lat="45.66947" lon="6.77169">
        <ele>1349.7</ele>
        <time>2020-08-07T10:55:16Z</time>
      </trkpt>
      <trkpt lat="45.66942" lon="6.77194">
        <ele>1347.8</ele>
        <time>2020-08-07T10:55:18Z</time>
      </trkpt>
      <trkpt lat="45.66934" lon="6.77221">
        <ele>1346.2</ele>
        <time>2020-08-07T10:55:20Z</time>
      </trkpt>
      <trkpt lat="45.66928" lon="6.77235">
        <ele>1345.3</ele>
        <time>2020-08-07T10:55:21Z</time>
      </trkpt>
      <trkpt lat="45.66924" lon="6.77266">
        <ele>1343.4</ele>
        <time>2020-08-07T10:55:23Z</time>
      </trkpt>
      <trkpt lat="45.66923" lon="6.77284">
        <ele>1342.4</ele>
        <time>2020-08-07T10:55:24Z</time>
      </trkpt>
      <trkpt lat="45.66923" lon="6.77302">
        <ele>1341.4</ele>
        <time>2020-08-07T10:55:25Z</time>
      </trkpt>
      <trkpt lat="45.66924" lon="6.77321">
        <ele>1340.7</ele>
        <time>2020-08-07T10:55:26Z</time>
      </trkpt>
      <trkpt lat="45.66924" lon="6.77359">
        <ele>1339.8</ele>
        <time>2020-08-07T10:55:28Z</time>
      </trkpt>
      <trkpt lat="45.66925" lon="6.77388">
        <ele>1339.4</ele>
        <time>2020-08-07T10:55:30Z</time>
      </trkpt>
      <trkpt lat="45.66927" lon="6.77408">
        <ele>1338.8</ele>
        <time>2020-08-07T10:55:32Z</time>
      </trkpt>
      <trkpt lat="45.66923" lon="6.77419">
        <ele>1337.8</ele>
        <time>2020-08-07T10:55:34Z</time>
      </trkpt>
      <trkpt lat="45.66918" lon="6.77417">
        <ele>1337</ele>
        <time>2020-08-07T10:55:35Z</time>
      </trkpt>
      <trkpt lat="45.6691" lon="6.77388">
        <ele>1333.9</ele>
        <time>2020-08-07T10:55:37Z</time>
      </trkpt>
      <trkpt lat="45.66907" lon="6.7736">
        <ele>1331.7</ele>
        <time>2020-08-07T10:55:39Z</time>
      </trkpt>
      <trkpt lat="45.66903" lon="6.77346">
        <ele>1330.8</ele>
        <time>2020-08-07T10:55:40Z</time>
      </trkpt>
      <trkpt lat="45.66896" lon="6.77318">
        <ele>1328.9</ele>
        <time>2020-08-07T10:55:42Z</time>
      </trkpt>
      <trkpt lat="45.66889" lon="6.77285">
        <ele>1327.1</ele>
        <time>2020-08-07T10:55:44Z</time>
      </trkpt>
      <trkpt lat="45.66887" lon="6.77249">
        <ele>1325.8</ele>
        <time>2020-08-07T10:55:46Z</time>
      </trkpt>
      <trkpt lat="45.66887" lon="6.7723">
        <ele>1325.4</ele>
        <time>2020-08-07T10:55:47Z</time>
      </trkpt>
      <trkpt lat="45.66887" lon="6.77198">
        <ele>1324.9</ele>
        <time>2020-08-07T10:55:49Z</time>
      </trkpt>
      <trkpt lat="45.66887" lon="6.77179">
        <ele>1324.1</ele>
        <time>2020-08-07T10:55:51Z</time>
      </trkpt>
      <trkpt lat="45.66878" lon="6.77172">
        <ele>1323</ele>
        <time>2020-08-07T10:55:53Z</time>
      </trkpt>
      <trkpt lat="45.6687" lon="6.77194">
        <ele>1320.4</ele>
        <time>2020-08-07T10:55:55Z</time>
      </trkpt>
      <trkpt lat="45.6687" lon="6.77207">
        <ele>1319.3</ele>
        <time>2020-08-07T10:55:56Z</time>
      </trkpt>
      <trkpt lat="45.66871" lon="6.77219">
        <ele>1318.4</ele>
        <time>2020-08-07T10:55:57Z</time>
      </trkpt>
      <trkpt lat="45.66869" lon="6.77247">
        <ele>1316.5</ele>
        <time>2020-08-07T10:55:59Z</time>
      </trkpt>
      <trkpt lat="45.66862" lon="6.7728">
        <ele>1314.2</ele>
        <time>2020-08-07T10:56:01Z</time>
      </trkpt>
      <trkpt lat="45.66859" lon="6.77318">
        <ele>1311.9</ele>
        <time>2020-08-07T10:56:03Z</time>
      </trkpt>
      <trkpt lat="45.66862" lon="6.77356">
        <ele>1309.8</ele>
        <time>2020-08-07T10:56:05Z</time>
      </trkpt>
      <trkpt lat="45.66863" lon="6.77374">
        <ele>1309</ele>
        <time>2020-08-07T10:56:06Z</time>
      </trkpt>
      <trkpt lat="45.66859" lon="6.77407">
        <ele>1308.1</ele>
        <time>2020-08-07T10:56:08Z</time>
      </trkpt>
      <trkpt lat="45.66856" lon="6.7743">
        <ele>1307.3</ele>
        <time>2020-08-07T10:56:10Z</time>
      </trkpt>
      <trkpt lat="45.66865" lon="6.77454">
        <ele>1306</ele>
        <time>2020-08-07T10:56:12Z</time>
      </trkpt>
      <trkpt lat="45.66879" lon="6.77473">
        <ele>1304.3</ele>
        <time>2020-08-07T10:56:14Z</time>
      </trkpt>
      <trkpt lat="45.66879" lon="6.77488">
        <ele>1303.5</ele>
        <time>2020-08-07T10:56:15Z</time>
      </trkpt>
      <trkpt lat="45.66865" lon="6.77516">
        <ele>1302.1</ele>
        <time>2020-08-07T10:56:17Z</time>
      </trkpt>
      <trkpt lat="45.6686" lon="6.77527">
        <ele>1301.8</ele>
        <time>2020-08-07T10:56:18Z</time>
      </trkpt>
      <trkpt lat="45.66855" lon="6.77542">
        <ele>1301.2</ele>
        <time>2020-08-07T10:56:20Z</time>
      </trkpt>
      <trkpt lat="45.66852" lon="6.77543">
        <ele>1301</ele>
        <time>2020-08-07T10:56:21Z</time>
      </trkpt>
      <trkpt lat="45.66847" lon="6.77527">
        <ele>1299.8</ele>
        <time>2020-08-07T10:56:23Z</time>
      </trkpt>
      <trkpt lat="45.66854" lon="6.775">
        <ele>1297.3</ele>
        <time>2020-08-07T10:56:25Z</time>
      </trkpt>
      <trkpt lat="45.66857" lon="6.77487">
        <ele>1296.3</ele>
        <time>2020-08-07T10:56:26Z</time>
      </trkpt>
      <trkpt lat="45.66856" lon="6.77462">
        <ele>1294.6</ele>
        <time>2020-08-07T10:56:28Z</time>
      </trkpt>
      <trkpt lat="45.6684" lon="6.77441">
        <ele>1292.3</ele>
        <time>2020-08-07T10:56:30Z</time>
      </trkpt>
      <trkpt lat="45.66824" lon="6.77419">
        <ele>1289.9</ele>
        <time>2020-08-07T10:56:32Z</time>
      </trkpt>
      <trkpt lat="45.66817" lon="6.77384">
        <ele>1287.3</ele>
        <time>2020-08-07T10:56:34Z</time>
      </trkpt>
      <trkpt lat="45.66816" lon="6.77347">
        <ele>1285</ele>
        <time>2020-08-07T10:56:36Z</time>
      </trkpt>
      <trkpt lat="45.66809" lon="6.77313">
        <ele>1283.2</ele>
        <time>2020-08-07T10:56:38Z</time>
      </trkpt>
      <trkpt lat="45.66802" lon="6.77297">
        <ele>1282.6</ele>
        <time>2020-08-07T10:56:39Z</time>
      </trkpt>
      <trkpt lat="45.6679" lon="6.7727">
        <ele>1281.8</ele>
        <time>2020-08-07T10:56:41Z</time>
      </trkpt>
      <trkpt lat="45.66795" lon="6.77247">
        <ele>1280.7</ele>
        <time>2020-08-07T10:56:43Z</time>
      </trkpt>
      <trkpt lat="45.66811" lon="6.77228">
        <ele>1279.1</ele>
        <time>2020-08-07T10:56:45Z</time>
      </trkpt>
      <trkpt lat="45.66816" lon="6.77215">
        <ele>1278.3</ele>
        <time>2020-08-07T10:56:46Z</time>
      </trkpt>
      <trkpt lat="45.66817" lon="6.77188">
        <ele>1277.3</ele>
        <time>2020-08-07T10:56:48Z</time>
      </trkpt>
      <trkpt lat="45.66813" lon="6.7717">
        <ele>1276.7</ele>
        <time>2020-08-07T10:56:50Z</time>
      </trkpt>
      <trkpt lat="45.66808" lon="6.77166">
        <ele>1276.4</ele>
        <time>2020-08-07T10:56:51Z</time>
      </trkpt>
      <trkpt lat="45.66797" lon="6.7718">
        <ele>1275</ele>
        <time>2020-08-07T10:56:53Z</time>
      </trkpt>
      <trkpt lat="45.66796" lon="6.77193">
        <ele>1274.1</ele>
        <time>2020-08-07T10:56:54Z</time>
      </trkpt>
      <trkpt lat="45.66792" lon="6.77218">
        <ele>1272.4</ele>
        <time>2020-08-07T10:56:56Z</time>
      </trkpt>
      <trkpt lat="45.66785" lon="6.77227">
        <ele>1271.7</ele>
        <time>2020-08-07T10:56:57Z</time>
      </trkpt>
      <trkpt lat="45.66775" lon="6.77231">
        <ele>1271.1</ele>
        <time>2020-08-07T10:56:58Z</time>
      </trkpt>
      <trkpt lat="45.66757" lon="6.7723">
        <ele>1269.7</ele>
        <time>2020-08-07T10:57:00Z</time>
      </trkpt>
      <trkpt lat="45.6675" lon="6.77236">
        <ele>1269</ele>
        <time>2020-08-07T10:57:01Z</time>
      </trkpt>
      <trkpt lat="45.66749" lon="6.77262">
        <ele>1267.3</ele>
        <time>2020-08-07T10:57:03Z</time>
      </trkpt>
      <trkpt lat="45.66754" lon="6.77277">
        <ele>1265.9</ele>
        <time>2020-08-07T10:57:04Z</time>
      </trkpt>
      <trkpt lat="45.66757" lon="6.77294">
        <ele>1264.6</ele>
        <time>2020-08-07T10:57:05Z</time>
      </trkpt>
      <trkpt lat="45.66756" lon="6.77328">
        <ele>1262.3</ele>
        <time>2020-08-07T10:57:07Z</time>
      </trkpt>
      <trkpt lat="45.66759" lon="6.77364">
        <ele>1260.2</ele>
        <time>2020-08-07T10:57:09Z</time>
      </trkpt>
      <trkpt lat="45.66763" lon="6.774">
        <ele>1258</ele>
        <time>2020-08-07T10:57:11Z</time>
      </trkpt>
      <trkpt lat="45.66767" lon="6.77418">
        <ele>1254.2</ele>
        <time>2020-08-07T10:57:12Z</time>
      </trkpt>
      <trkpt lat="45.6677" lon="6.77436">
        <ele>1250.6</ele>
        <time>2020-08-07T10:57:13Z</time>
      </trkpt>
      <trkpt lat="45.66775" lon="6.77465">
        <ele>1252.8</ele>
        <time>2020-08-07T10:57:15Z</time>
      </trkpt>
      <trkpt lat="45.66776" lon="6.77475">
        <ele>1253.8</ele>
        <time>2020-08-07T10:57:16Z</time>
      </trkpt>
      <trkpt lat="45.66781" lon="6.77486">
        <ele>1253.4</ele>
        <time>2020-08-07T10:57:18Z</time>
      </trkpt>
      <trkpt lat="45.66777" lon="6.77493">
        <ele>1253.1</ele>
        <time>2020-08-07T10:57:20Z</time>
      </trkpt>
      <trkpt lat="45.66766" lon="6.77477">
        <ele>1252.3</ele>
        <time>2020-08-07T10:57:22Z</time>
      </trkpt>
      <trkpt lat="45.66763" lon="6.7745">
        <ele>1251.2</ele>
        <time>2020-08-07T10:57:24Z</time>
      </trkpt>
      <trkpt lat="45.66761" lon="6.77436">
        <ele>1250.6</ele>
        <time>2020-08-07T10:57:25Z</time>
      </trkpt>
      <trkpt lat="45.66749" lon="6.77409">
        <ele>1248.3</ele>
        <time>2020-08-07T10:57:27Z</time>
      </trkpt>
      <trkpt lat="45.66741" lon="6.77396">
        <ele>1247.6</ele>
        <time>2020-08-07T10:57:28Z</time>
      </trkpt>
      <trkpt lat="45.66734" lon="6.77384">
        <ele>1246.9</ele>
        <time>2020-08-07T10:57:29Z</time>
      </trkpt>
      <trkpt lat="45.66723" lon="6.7736">
        <ele>1245.5</ele>
        <time>2020-08-07T10:57:31Z</time>
      </trkpt>
      <trkpt lat="45.66722" lon="6.77347">
        <ele>1245</ele>
        <time>2020-08-07T10:57:32Z</time>
      </trkpt>
      <trkpt lat="45.66725" lon="6.77331">
        <ele>1244.2</ele>
        <time>2020-08-07T10:57:33Z</time>
      </trkpt>
      <trkpt lat="45.66726" lon="6.77317">
        <ele>1243.4</ele>
        <time>2020-08-07T10:57:34Z</time>
      </trkpt>
      <trkpt lat="45.66725" lon="6.77305">
        <ele>1242.7</ele>
        <time>2020-08-07T10:57:35Z</time>
      </trkpt>
      <trkpt lat="45.66713" lon="6.77284">
        <ele>1241.1</ele>
        <time>2020-08-07T10:57:37Z</time>
      </trkpt>
      <trkpt lat="45.66705" lon="6.77255">
        <ele>1239.8</ele>
        <time>2020-08-07T10:57:39Z</time>
      </trkpt>
      <trkpt lat="45.66705" lon="6.77241">
        <ele>1239.3</ele>
        <time>2020-08-07T10:57:40Z</time>
      </trkpt>
      <trkpt lat="45.66709" lon="6.7722">
        <ele>1238.6</ele>
        <time>2020-08-07T10:57:42Z</time>
      </trkpt>
      <trkpt lat="45.6671" lon="6.7721">
        <ele>1238.2</ele>
        <time>2020-08-07T10:57:44Z</time>
      </trkpt>
      <trkpt lat="45.66698" lon="6.77214">
        <ele>1237</ele>
        <time>2020-08-07T10:57:46Z</time>
      </trkpt>
      <trkpt lat="45.66693" lon="6.77226">
        <ele>1235.8</ele>
        <time>2020-08-07T10:57:47Z</time>
      </trkpt>
      <trkpt lat="45.66691" lon="6.77257">
        <ele>1233.4</ele>
        <time>2020-08-07T10:57:49Z</time>
      </trkpt>
      <trkpt lat="45.6669" lon="6.77272">
        <ele>1232.4</ele>
        <time>2020-08-07T10:57:50Z</time>
      </trkpt>
      <trkpt lat="45.66682" lon="6.77301">
        <ele>1230.9</ele>
        <time>2020-08-07T10:57:52Z</time>
      </trkpt>
      <trkpt lat="45.66678" lon="6.77316">
        <ele>1230.2</ele>
        <time>2020-08-07T10:57:53Z</time>
      </trkpt>
      <trkpt lat="45.66675" lon="6.7733">
        <ele>1229.5</ele>
        <time>2020-08-07T10:57:54Z</time>
      </trkpt>
      <trkpt lat="45.66677" lon="6.77356">
        <ele>1228.1</ele>
        <time>2020-08-07T10:57:56Z</time>
      </trkpt>
      <trkpt lat="45.66682" lon="6.77368">
        <ele>1227.2</ele>
        <time>2020-08-07T10:57:57Z</time>
      </trkpt>
      <trkpt lat="45.66697" lon="6.77389">
        <ele>1225.3</ele>
        <time>2020-08-07T10:57:59Z</time>
      </trkpt>
      <trkpt lat="45.66703" lon="6.77401">
        <ele>1224.4</ele>
        <time>2020-08-07T10:58:00Z</time>
      </trkpt>
      <trkpt lat="45.6671" lon="6.77431">
        <ele>1222.4</ele>
        <time>2020-08-07T10:58:02Z</time>
      </trkpt>
      <trkpt lat="45.66707" lon="6.77464">
        <ele>1220.4</ele>
        <time>2020-08-07T10:58:04Z</time>
      </trkpt>
      <trkpt lat="45.667" lon="6.7748">
        <ele>1219.2</ele>
        <time>2020-08-07T10:58:05Z</time>
      </trkpt>
      <trkpt lat="45.6668" lon="6.77511">
        <ele>1216.6</ele>
        <time>2020-08-07T10:58:07Z</time>
      </trkpt>
      <trkpt lat="45.66665" lon="6.77547">
        <ele>1214.6</ele>
        <time>2020-08-07T10:58:09Z</time>
      </trkpt>
      <trkpt lat="45.66654" lon="6.77582">
        <ele>1213.9</ele>
        <time>2020-08-07T10:58:11Z</time>
      </trkpt>
      <trkpt lat="45.66649" lon="6.77603">
        <ele>1213.2</ele>
        <time>2020-08-07T10:58:13Z</time>
      </trkpt>
      <trkpt lat="45.66647" lon="6.77608">
        <ele>1212.8</ele>
        <time>2020-08-07T10:58:14Z</time>
      </trkpt>
      <trkpt lat="45.66644" lon="6.7761">
        <ele>1212.4</ele>
        <time>2020-08-07T10:58:15Z</time>
      </trkpt>
      <trkpt lat="45.66636" lon="6.77593">
        <ele>1210.7</ele>
        <time>2020-08-07T10:58:17Z</time>
      </trkpt>
      <trkpt lat="45.66636" lon="6.77567">
        <ele>1208.5</ele>
        <time>2020-08-07T10:58:19Z</time>
      </trkpt>
      <trkpt lat="45.66634" lon="6.77553">
        <ele>1207.7</ele>
        <time>2020-08-07T10:58:20Z</time>
      </trkpt>
      <trkpt lat="45.6663" lon="6.77539">
        <ele>1206.9</ele>
        <time>2020-08-07T10:58:21Z</time>
      </trkpt>
      <trkpt lat="45.66616" lon="6.77515">
        <ele>1205.8</ele>
        <time>2020-08-07T10:58:23Z</time>
      </trkpt>
      <trkpt lat="45.66607" lon="6.77489">
        <ele>1204.8</ele>
        <time>2020-08-07T10:58:25Z</time>
      </trkpt>
      <trkpt lat="45.66608" lon="6.77476">
        <ele>1204.4</ele>
        <time>2020-08-07T10:58:26Z</time>
      </trkpt>
      <trkpt lat="45.66616" lon="6.77452">
        <ele>1203.5</ele>
        <time>2020-08-07T10:58:28Z</time>
      </trkpt>
      <trkpt lat="45.66617" lon="6.77442">
        <ele>1203</ele>
        <time>2020-08-07T10:58:29Z</time>
      </trkpt>
      <trkpt lat="45.66608" lon="6.77425">
        <ele>1201.6</ele>
        <time>2020-08-07T10:58:31Z</time>
      </trkpt>
      <trkpt lat="45.66591" lon="6.77437">
        <ele>1199.8</ele>
        <time>2020-08-07T10:58:33Z</time>
      </trkpt>
      <trkpt lat="45.66584" lon="6.77451">
        <ele>1198.7</ele>
        <time>2020-08-07T10:58:34Z</time>
      </trkpt>
      <trkpt lat="45.66572" lon="6.77478">
        <ele>1197.1</ele>
        <time>2020-08-07T10:58:36Z</time>
      </trkpt>
      <trkpt lat="45.66559" lon="6.77503">
        <ele>1195.6</ele>
        <time>2020-08-07T10:58:38Z</time>
      </trkpt>
      <trkpt lat="45.66545" lon="6.7753">
        <ele>1193.7</ele>
        <time>2020-08-07T10:58:40Z</time>
      </trkpt>
      <trkpt lat="45.66538" lon="6.77545">
        <ele>1192.7</ele>
        <time>2020-08-07T10:58:41Z</time>
      </trkpt>
      <trkpt lat="45.66533" lon="6.77561">
        <ele>1191.8</ele>
        <time>2020-08-07T10:58:42Z</time>
      </trkpt>
      <trkpt lat="45.66523" lon="6.77595">
        <ele>1189.8</ele>
        <time>2020-08-07T10:58:44Z</time>
      </trkpt>
      <trkpt lat="45.66518" lon="6.77613">
        <ele>1188.8</ele>
        <time>2020-08-07T10:58:45Z</time>
      </trkpt>
      <trkpt lat="45.66509" lon="6.77649">
        <ele>1186.9</ele>
        <time>2020-08-07T10:58:47Z</time>
      </trkpt>
      <trkpt lat="45.66504" lon="6.77668">
        <ele>1186</ele>
        <time>2020-08-07T10:58:48Z</time>
      </trkpt>
      <trkpt lat="45.66491" lon="6.77704">
        <ele>1183.6</ele>
        <time>2020-08-07T10:58:50Z</time>
      </trkpt>
      <trkpt lat="45.66482" lon="6.7772">
        <ele>1181.2</ele>
        <time>2020-08-07T10:58:51Z</time>
      </trkpt>
      <trkpt lat="45.66458" lon="6.77744">
        <ele>1176.7</ele>
        <time>2020-08-07T10:58:53Z</time>
      </trkpt>
      <trkpt lat="45.66433" lon="6.77764">
        <ele>1174.3</ele>
        <time>2020-08-07T10:58:55Z</time>
      </trkpt>
      <trkpt lat="45.66406" lon="6.77786">
        <ele>1172.1</ele>
        <time>2020-08-07T10:58:57Z</time>
      </trkpt>
      <trkpt lat="45.66379" lon="6.77811">
        <ele>1169.7</ele>
        <time>2020-08-07T10:58:59Z</time>
      </trkpt>
      <trkpt lat="45.66367" lon="6.77824">
        <ele>1168.7</ele>
        <time>2020-08-07T10:59:00Z</time>
      </trkpt>
      <trkpt lat="45.66344" lon="6.77855">
        <ele>1166.8</ele>
        <time>2020-08-07T10:59:02Z</time>
      </trkpt>
      <trkpt lat="45.66327" lon="6.77887">
        <ele>1165</ele>
        <time>2020-08-07T10:59:04Z</time>
      </trkpt>
      <trkpt lat="45.66319" lon="6.77901">
        <ele>1164.2</ele>
        <time>2020-08-07T10:59:05Z</time>
      </trkpt>
      <trkpt lat="45.663" lon="6.7792">
        <ele>1162.3</ele>
        <time>2020-08-07T10:59:07Z</time>
      </trkpt>
      <trkpt lat="45.66274" lon="6.77922">
        <ele>1160.4</ele>
        <time>2020-08-07T10:59:09Z</time>
      </trkpt>
      <trkpt lat="45.66251" lon="6.7792">
        <ele>1158.6</ele>
        <time>2020-08-07T10:59:11Z</time>
      </trkpt>
      <trkpt lat="45.66241" lon="6.77925">
        <ele>1157.7</ele>
        <time>2020-08-07T10:59:12Z</time>
      </trkpt>
      <trkpt lat="45.66224" lon="6.77948">
        <ele>1155.8</ele>
        <time>2020-08-07T10:59:14Z</time>
      </trkpt>
      <trkpt lat="45.66217" lon="6.77961">
        <ele>1154.8</ele>
        <time>2020-08-07T10:59:15Z</time>
      </trkpt>
      <trkpt lat="45.66209" lon="6.77974">
        <ele>1153.9</ele>
        <time>2020-08-07T10:59:16Z</time>
      </trkpt>
      <trkpt lat="45.6619" lon="6.77998">
        <ele>1151.8</ele>
        <time>2020-08-07T10:59:18Z</time>
      </trkpt>
      <trkpt lat="45.66166" lon="6.78017">
        <ele>1149.6</ele>
        <time>2020-08-07T10:59:20Z</time>
      </trkpt>
      <trkpt lat="45.6614" lon="6.78035">
        <ele>1147.3</ele>
        <time>2020-08-07T10:59:22Z</time>
      </trkpt>
      <trkpt lat="45.66114" lon="6.78051">
        <ele>1145</ele>
        <time>2020-08-07T10:59:24Z</time>
      </trkpt>
      <trkpt lat="45.661" lon="6.7806">
        <ele>1143.9</ele>
        <time>2020-08-07T10:59:25Z</time>
      </trkpt>
      <trkpt lat="45.66088" lon="6.78071">
        <ele>1142.9</ele>
        <time>2020-08-07T10:59:26Z</time>
      </trkpt>
      <trkpt lat="45.66068" lon="6.78101">
        <ele>1140.8</ele>
        <time>2020-08-07T10:59:28Z</time>
      </trkpt>
      <trkpt lat="45.66049" lon="6.78134">
        <ele>1137.9</ele>
        <time>2020-08-07T10:59:30Z</time>
      </trkpt>
      <trkpt lat="45.66029" lon="6.78162">
        <ele>1135.5</ele>
        <time>2020-08-07T10:59:32Z</time>
      </trkpt>
      <trkpt lat="45.66001" lon="6.78169">
        <ele>1132.8</ele>
        <time>2020-08-07T10:59:34Z</time>
      </trkpt>
      <trkpt lat="45.65986" lon="6.78165">
        <ele>1131.4</ele>
        <time>2020-08-07T10:59:35Z</time>
      </trkpt>
      <trkpt lat="45.65958" lon="6.78163">
        <ele>1128.6</ele>
        <time>2020-08-07T10:59:37Z</time>
      </trkpt>
      <trkpt lat="45.65931" lon="6.78173">
        <ele>1125.8</ele>
        <time>2020-08-07T10:59:39Z</time>
      </trkpt>
      <trkpt lat="45.65919" lon="6.78183">
        <ele>1124.2</ele>
        <time>2020-08-07T10:59:40Z</time>
      </trkpt>
      <trkpt lat="45.65898" lon="6.78214">
        <ele>1121</ele>
        <time>2020-08-07T10:59:42Z</time>
      </trkpt>
      <trkpt lat="45.65879" lon="6.78246">
        <ele>1117.7</ele>
        <time>2020-08-07T10:59:44Z</time>
      </trkpt>
      <trkpt lat="45.65855" lon="6.78271">
        <ele>1114.1</ele>
        <time>2020-08-07T10:59:46Z</time>
      </trkpt>
      <trkpt lat="45.65824" lon="6.78282">
        <ele>1109.9</ele>
        <time>2020-08-07T10:59:48Z</time>
      </trkpt>
      <trkpt lat="45.6579" lon="6.7829">
        <ele>1105.4</ele>
        <time>2020-08-07T10:59:50Z</time>
      </trkpt>
      <trkpt lat="45.65774" lon="6.78296">
        <ele>1103.3</ele>
        <time>2020-08-07T10:59:51Z</time>
      </trkpt>
      <trkpt lat="45.65741" lon="6.78311">
        <ele>1099.1</ele>
        <time>2020-08-07T10:59:53Z</time>
      </trkpt>
      <trkpt lat="45.65709" lon="6.78331">
        <ele>1095.7</ele>
        <time>2020-08-07T10:59:55Z</time>
      </trkpt>
      <trkpt lat="45.65678" lon="6.78353">
        <ele>1092.8</ele>
        <time>2020-08-07T10:59:57Z</time>
      </trkpt>
      <trkpt lat="45.65663" lon="6.78365">
        <ele>1091.5</ele>
        <time>2020-08-07T10:59:58Z</time>
      </trkpt>
      <trkpt lat="45.65635" lon="6.78387">
        <ele>1089.2</ele>
        <time>2020-08-07T11:00:00Z</time>
      </trkpt>
      <trkpt lat="45.65609" lon="6.78416">
        <ele>1086.4</ele>
        <time>2020-08-07T11:00:02Z</time>
      </trkpt>
      <trkpt lat="45.65583" lon="6.7845">
        <ele>1084.5</ele>
        <time>2020-08-07T11:00:04Z</time>
      </trkpt>
      <trkpt lat="45.65569" lon="6.78466">
        <ele>1083.6</ele>
        <time>2020-08-07T11:00:05Z</time>
      </trkpt>
      <trkpt lat="45.65541" lon="6.78499">
        <ele>1082.1</ele>
        <time>2020-08-07T11:00:07Z</time>
      </trkpt>
      <trkpt lat="45.65511" lon="6.78528">
        <ele>1081.1</ele>
        <time>2020-08-07T11:00:09Z</time>
      </trkpt>
      <trkpt lat="45.65483" lon="6.78557">
        <ele>1080.6</ele>
        <time>2020-08-07T11:00:11Z</time>
      </trkpt>
      <trkpt lat="45.65456" lon="6.78588">
        <ele>1079.6</ele>
        <time>2020-08-07T11:00:13Z</time>
      </trkpt>
      <trkpt lat="45.65428" lon="6.78617">
        <ele>1078.4</ele>
        <time>2020-08-07T11:00:15Z</time>
      </trkpt>
      <trkpt lat="45.65415" lon="6.7863">
        <ele>1078</ele>
        <time>2020-08-07T11:00:16Z</time>
      </trkpt>
      <trkpt lat="45.65401" lon="6.78642">
        <ele>1077.5</ele>
        <time>2020-08-07T11:00:17Z</time>
      </trkpt>
      <trkpt lat="45.65373" lon="6.78666">
        <ele>1076.3</ele>
        <time>2020-08-07T11:00:19Z</time>
      </trkpt>
      <trkpt lat="45.6536" lon="6.78677">
        <ele>1075.6</ele>
        <time>2020-08-07T11:00:20Z</time>
      </trkpt>
      <trkpt lat="45.65334" lon="6.7869">
        <ele>1074.3</ele>
        <time>2020-08-07T11:00:22Z</time>
      </trkpt>
      <trkpt lat="45.6532" lon="6.78692">
        <ele>1073.7</ele>
        <time>2020-08-07T11:00:23Z</time>
      </trkpt>
      <trkpt lat="45.65294" lon="6.78689">
        <ele>1072.5</ele>
        <time>2020-08-07T11:00:25Z</time>
      </trkpt>
      <trkpt lat="45.6528" lon="6.78687">
        <ele>1072.1</ele>
        <time>2020-08-07T11:00:26Z</time>
      </trkpt>
      <trkpt lat="45.65253" lon="6.78689">
        <ele>1070.9</ele>
        <time>2020-08-07T11:00:28Z</time>
      </trkpt>
      <trkpt lat="45.65229" lon="6.78701">
        <ele>1069.6</ele>
        <time>2020-08-07T11:00:30Z</time>
      </trkpt>
      <trkpt lat="45.65217" lon="6.78708">
        <ele>1067.8</ele>
        <time>2020-08-07T11:00:31Z</time>
      </trkpt>
      <trkpt lat="45.65204" lon="6.78714">
        <ele>1065</ele>
        <time>2020-08-07T11:00:32Z</time>
      </trkpt>
      <trkpt lat="45.65181" lon="6.78727">
        <ele>1059.8</ele>
        <time>2020-08-07T11:00:34Z</time>
      </trkpt>
      <trkpt lat="45.65158" lon="6.78742">
        <ele>1054.7</ele>
        <time>2020-08-07T11:00:36Z</time>
      </trkpt>
      <trkpt lat="45.65137" lon="6.78757">
        <ele>1050.7</ele>
        <time>2020-08-07T11:00:38Z</time>
      </trkpt>
      <trkpt lat="45.65112" lon="6.78768">
        <ele>1046.6</ele>
        <time>2020-08-07T11:00:40Z</time>
      </trkpt>
      <trkpt lat="45.65099" lon="6.78772">
        <ele>1044.5</ele>
        <time>2020-08-07T11:00:41Z</time>
      </trkpt>
      <trkpt lat="45.65084" lon="6.78772">
        <ele>1042.5</ele>
        <time>2020-08-07T11:00:42Z</time>
      </trkpt>
      <trkpt lat="45.65052" lon="6.78771">
        <ele>1038.3</ele>
        <time>2020-08-07T11:00:44Z</time>
      </trkpt>
      <trkpt lat="45.65035" lon="6.78771">
        <ele>1036</ele>
        <time>2020-08-07T11:00:45Z</time>
      </trkpt>
      <trkpt lat="45.65003" lon="6.78773">
        <ele>1031.7</ele>
        <time>2020-08-07T11:00:47Z</time>
      </trkpt>
      <trkpt lat="45.64974" lon="6.78767">
        <ele>1028.7</ele>
        <time>2020-08-07T11:00:49Z</time>
      </trkpt>
      <trkpt lat="45.64959" lon="6.7876">
        <ele>1027.9</ele>
        <time>2020-08-07T11:00:50Z</time>
      </trkpt>
      <trkpt lat="45.64946" lon="6.78752">
        <ele>1027.3</ele>
        <time>2020-08-07T11:00:51Z</time>
      </trkpt>
      <trkpt lat="45.64918" lon="6.78731">
        <ele>1026.6</ele>
        <time>2020-08-07T11:00:53Z</time>
      </trkpt>
      <trkpt lat="45.64903" lon="6.78721">
        <ele>1025.4</ele>
        <time>2020-08-07T11:00:54Z</time>
      </trkpt>
      <trkpt lat="45.64889" lon="6.78711">
        <ele>1024.1</ele>
        <time>2020-08-07T11:00:55Z</time>
      </trkpt>
      <trkpt lat="45.64861" lon="6.78689">
        <ele>1021.8</ele>
        <time>2020-08-07T11:00:57Z</time>
      </trkpt>
      <trkpt lat="45.64847" lon="6.78678">
        <ele>1020.7</ele>
        <time>2020-08-07T11:00:58Z</time>
      </trkpt>
      <trkpt lat="45.64834" lon="6.78667">
        <ele>1019.5</ele>
        <time>2020-08-07T11:00:59Z</time>
      </trkpt>
      <trkpt lat="45.64807" lon="6.78646">
        <ele>1017.1</ele>
        <time>2020-08-07T11:01:01Z</time>
      </trkpt>
      <trkpt lat="45.64779" lon="6.7863">
        <ele>1015.2</ele>
        <time>2020-08-07T11:01:03Z</time>
      </trkpt>
      <trkpt lat="45.64751" lon="6.78617">
        <ele>1013.5</ele>
        <time>2020-08-07T11:01:05Z</time>
      </trkpt>
      <trkpt lat="45.64737" lon="6.78612">
        <ele>1012.6</ele>
        <time>2020-08-07T11:01:06Z</time>
      </trkpt>
      <trkpt lat="45.64707" lon="6.78606">
        <ele>1010.8</ele>
        <time>2020-08-07T11:01:08Z</time>
      </trkpt>
      <trkpt lat="45.64692" lon="6.78606">
        <ele>1010.1</ele>
        <time>2020-08-07T11:01:09Z</time>
      </trkpt>
      <trkpt lat="45.64661" lon="6.78612">
        <ele>1009.1</ele>
        <time>2020-08-07T11:01:11Z</time>
      </trkpt>
      <trkpt lat="45.64646" lon="6.78613">
        <ele>1008.8</ele>
        <time>2020-08-07T11:01:12Z</time>
      </trkpt>
      <trkpt lat="45.64619" lon="6.78607">
        <ele>1008.4</ele>
        <time>2020-08-07T11:01:14Z</time>
      </trkpt>
      <trkpt lat="45.64605" lon="6.78602">
        <ele>1008.2</ele>
        <time>2020-08-07T11:01:15Z</time>
      </trkpt>
      <trkpt lat="45.64592" lon="6.78598">
        <ele>1007.9</ele>
        <time>2020-08-07T11:01:16Z</time>
      </trkpt>
      <trkpt lat="45.64566" lon="6.78589">
        <ele>1007.2</ele>
        <time>2020-08-07T11:01:18Z</time>
      </trkpt>
      <trkpt lat="45.64539" lon="6.78586">
        <ele>1006.5</ele>
        <time>2020-08-07T11:01:20Z</time>
      </trkpt>
      <trkpt lat="45.64512" lon="6.78591">
        <ele>1005.7</ele>
        <time>2020-08-07T11:01:22Z</time>
      </trkpt>
      <trkpt lat="45.64486" lon="6.78594">
        <ele>1004.8</ele>
        <time>2020-08-07T11:01:24Z</time>
      </trkpt>
      <trkpt lat="45.64472" lon="6.78595">
        <ele>1004.4</ele>
        <time>2020-08-07T11:01:25Z</time>
      </trkpt>
      <trkpt lat="45.64445" lon="6.78597">
        <ele>1003.4</ele>
        <time>2020-08-07T11:01:27Z</time>
      </trkpt>
      <trkpt lat="45.64419" lon="6.78605">
        <ele>1002.3</ele>
        <time>2020-08-07T11:01:29Z</time>
      </trkpt>
      <trkpt lat="45.64406" lon="6.78609">
        <ele>1001.7</ele>
        <time>2020-08-07T11:01:30Z</time>
      </trkpt>
      <trkpt lat="45.64392" lon="6.78612">
        <ele>1001.2</ele>
        <time>2020-08-07T11:01:31Z</time>
      </trkpt>
      <trkpt lat="45.64365" lon="6.78616">
        <ele>999.9</ele>
        <time>2020-08-07T11:01:33Z</time>
      </trkpt>
      <trkpt lat="45.64352" lon="6.78618">
        <ele>999.2</ele>
        <time>2020-08-07T11:01:34Z</time>
      </trkpt>
      <trkpt lat="45.64327" lon="6.78617">
        <ele>998</ele>
        <time>2020-08-07T11:01:36Z</time>
      </trkpt>
      <trkpt lat="45.64314" lon="6.78615">
        <ele>997.5</ele>
        <time>2020-08-07T11:01:37Z</time>
      </trkpt>
      <trkpt lat="45.64289" lon="6.78614">
        <ele>996.5</ele>
        <time>2020-08-07T11:01:39Z</time>
      </trkpt>
      <trkpt lat="45.64265" lon="6.78618">
        <ele>995.5</ele>
        <time>2020-08-07T11:01:41Z</time>
      </trkpt>
      <trkpt lat="45.64253" lon="6.78619">
        <ele>994.9</ele>
        <time>2020-08-07T11:01:42Z</time>
      </trkpt>
      <trkpt lat="45.64227" lon="6.7862">
        <ele>993.6</ele>
        <time>2020-08-07T11:01:44Z</time>
      </trkpt>
      <trkpt lat="45.64214" lon="6.78619">
        <ele>993.1</ele>
        <time>2020-08-07T11:01:45Z</time>
      </trkpt>
      <trkpt lat="45.64189" lon="6.78613">
        <ele>991.8</ele>
        <time>2020-08-07T11:01:47Z</time>
      </trkpt>
      <trkpt lat="45.64176" lon="6.78607">
        <ele>991.2</ele>
        <time>2020-08-07T11:01:48Z</time>
      </trkpt>
      <trkpt lat="45.64153" lon="6.78591">
        <ele>989.9</ele>
        <time>2020-08-07T11:01:50Z</time>
      </trkpt>
      <trkpt lat="45.64141" lon="6.78582">
        <ele>989.3</ele>
        <time>2020-08-07T11:01:51Z</time>
      </trkpt>
      <trkpt lat="45.64119" lon="6.78561">
        <ele>988.4</ele>
        <time>2020-08-07T11:01:53Z</time>
      </trkpt>
      <trkpt lat="45.64109" lon="6.78552">
        <ele>988</ele>
        <time>2020-08-07T11:01:54Z</time>
      </trkpt>
      <trkpt lat="45.64097" lon="6.78544">
        <ele>987.6</ele>
        <time>2020-08-07T11:01:55Z</time>
      </trkpt>
      <trkpt lat="45.64076" lon="6.7853">
        <ele>987.1</ele>
        <time>2020-08-07T11:01:57Z</time>
      </trkpt>
      <trkpt lat="45.64065" lon="6.78523">
        <ele>986.9</ele>
        <time>2020-08-07T11:01:58Z</time>
      </trkpt>
      <trkpt lat="45.64054" lon="6.78517">
        <ele>986.6</ele>
        <time>2020-08-07T11:01:59Z</time>
      </trkpt>
      <trkpt lat="45.64032" lon="6.78505">
        <ele>986.1</ele>
        <time>2020-08-07T11:02:01Z</time>
      </trkpt>
      <trkpt lat="45.64008" lon="6.78505">
        <ele>985.9</ele>
        <time>2020-08-07T11:02:03Z</time>
      </trkpt>
      <trkpt lat="45.63996" lon="6.78507">
        <ele>986.1</ele>
        <time>2020-08-07T11:02:04Z</time>
      </trkpt>
      <trkpt lat="45.63972" lon="6.785">
        <ele>988.2</ele>
        <time>2020-08-07T11:02:06Z</time>
      </trkpt>
      <trkpt lat="45.63952" lon="6.78486">
        <ele>988.2</ele>
        <time>2020-08-07T11:02:08Z</time>
      </trkpt>
      <trkpt lat="45.63933" lon="6.78471">
        <ele>989.3</ele>
        <time>2020-08-07T11:02:10Z</time>
      </trkpt>
      <trkpt lat="45.63925" lon="6.78463">
        <ele>989.7</ele>
        <time>2020-08-07T11:02:11Z</time>
      </trkpt>
      <trkpt lat="45.63918" lon="6.78454">
        <ele>990</ele>
        <time>2020-08-07T11:02:12Z</time>
      </trkpt>
      <trkpt lat="45.6391" lon="6.78446">
        <ele>990.3</ele>
        <time>2020-08-07T11:02:13Z</time>
      </trkpt>
      <trkpt lat="45.63893" lon="6.7844">
        <ele>990.4</ele>
        <time>2020-08-07T11:02:15Z</time>
      </trkpt>
      <trkpt lat="45.63873" lon="6.78446">
        <ele>990.1</ele>
        <time>2020-08-07T11:02:17Z</time>
      </trkpt>
      <trkpt lat="45.63853" lon="6.78453">
        <ele>989.8</ele>
        <time>2020-08-07T11:02:19Z</time>
      </trkpt>
      <trkpt lat="45.63842" lon="6.78454">
        <ele>989.7</ele>
        <time>2020-08-07T11:02:20Z</time>
      </trkpt>
      <trkpt lat="45.63821" lon="6.78455">
        <ele>989.3</ele>
        <time>2020-08-07T11:02:22Z</time>
      </trkpt>
      <trkpt lat="45.63811" lon="6.78454">
        <ele>989.1</ele>
        <time>2020-08-07T11:02:23Z</time>
      </trkpt>
      <trkpt lat="45.63789" lon="6.78449">
        <ele>988.6</ele>
        <time>2020-08-07T11:02:25Z</time>
      </trkpt>
      <trkpt lat="45.63767" lon="6.78455">
        <ele>988.1</ele>
        <time>2020-08-07T11:02:27Z</time>
      </trkpt>
      <trkpt lat="45.63745" lon="6.78464">
        <ele>987.9</ele>
        <time>2020-08-07T11:02:29Z</time>
      </trkpt>
      <trkpt lat="45.63733" lon="6.78469">
        <ele>987.9</ele>
        <time>2020-08-07T11:02:30Z</time>
      </trkpt>
      <trkpt lat="45.63722" lon="6.78472">
        <ele>987.9</ele>
        <time>2020-08-07T11:02:31Z</time>
      </trkpt>
      <trkpt lat="45.637" lon="6.78479">
        <ele>987.8</ele>
        <time>2020-08-07T11:02:33Z</time>
      </trkpt>
      <trkpt lat="45.6369" lon="6.78485">
        <ele>987.3</ele>
        <time>2020-08-07T11:02:34Z</time>
      </trkpt>
      <trkpt lat="45.6368" lon="6.78492">
        <ele>986.8</ele>
        <time>2020-08-07T11:02:35Z</time>
      </trkpt>
      <trkpt lat="45.63671" lon="6.78499">
        <ele>986.2</ele>
        <time>2020-08-07T11:02:36Z</time>
      </trkpt>
      <trkpt lat="45.63655" lon="6.78516">
        <ele>984.8</ele>
        <time>2020-08-07T11:02:38Z</time>
      </trkpt>
      <trkpt lat="45.63647" lon="6.78524">
        <ele>984</ele>
        <time>2020-08-07T11:02:39Z</time>
      </trkpt>
      <trkpt lat="45.63628" lon="6.78532">
        <ele>982.2</ele>
        <time>2020-08-07T11:02:41Z</time>
      </trkpt>
      <trkpt lat="45.63617" lon="6.78534">
        <ele>981.2</ele>
        <time>2020-08-07T11:02:42Z</time>
      </trkpt>
      <trkpt lat="45.63607" lon="6.78537">
        <ele>980.1</ele>
        <time>2020-08-07T11:02:43Z</time>
      </trkpt>
      <trkpt lat="45.63586" lon="6.78544">
        <ele>978.2</ele>
        <time>2020-08-07T11:02:45Z</time>
      </trkpt>
      <trkpt lat="45.63565" lon="6.78555">
        <ele>976.6</ele>
        <time>2020-08-07T11:02:47Z</time>
      </trkpt>
      <trkpt lat="45.63542" lon="6.78562">
        <ele>975.3</ele>
        <time>2020-08-07T11:02:49Z</time>
      </trkpt>
      <trkpt lat="45.6353" lon="6.7856">
        <ele>974.6</ele>
        <time>2020-08-07T11:02:50Z</time>
      </trkpt>
      <trkpt lat="45.63518" lon="6.78558">
        <ele>974.1</ele>
        <time>2020-08-07T11:02:51Z</time>
      </trkpt>
      <trkpt lat="45.63496" lon="6.78552">
        <ele>973.3</ele>
        <time>2020-08-07T11:02:53Z</time>
      </trkpt>
      <trkpt lat="45.63475" lon="6.78545">
        <ele>972.8</ele>
        <time>2020-08-07T11:02:55Z</time>
      </trkpt>
      <trkpt lat="45.63465" lon="6.78541">
        <ele>972.7</ele>
        <time>2020-08-07T11:02:56Z</time>
      </trkpt>
      <trkpt lat="45.63445" lon="6.78542">
        <ele>972.2</ele>
        <time>2020-08-07T11:02:58Z</time>
      </trkpt>
      <trkpt lat="45.63436" lon="6.78545">
        <ele>971.7</ele>
        <time>2020-08-07T11:02:59Z</time>
      </trkpt>
      <trkpt lat="45.63419" lon="6.78549">
        <ele>970.6</ele>
        <time>2020-08-07T11:03:01Z</time>
      </trkpt>
      <trkpt lat="45.63408" lon="6.78548">
        <ele>969.8</ele>
        <time>2020-08-07T11:03:02Z</time>
      </trkpt>
      <trkpt lat="45.63389" lon="6.78541">
        <ele>968.3</ele>
        <time>2020-08-07T11:03:04Z</time>
      </trkpt>
      <trkpt lat="45.63379" lon="6.78534">
        <ele>967.4</ele>
        <time>2020-08-07T11:03:05Z</time>
      </trkpt>
      <trkpt lat="45.63361" lon="6.78518">
        <ele>965.7</ele>
        <time>2020-08-07T11:03:07Z</time>
      </trkpt>
      <trkpt lat="45.63351" lon="6.78512">
        <ele>964.8</ele>
        <time>2020-08-07T11:03:08Z</time>
      </trkpt>
      <trkpt lat="45.63329" lon="6.78504">
        <ele>963.3</ele>
        <time>2020-08-07T11:03:10Z</time>
      </trkpt>
      <trkpt lat="45.63308" lon="6.78492">
        <ele>962.1</ele>
        <time>2020-08-07T11:03:12Z</time>
      </trkpt>
      <trkpt lat="45.63299" lon="6.78484">
        <ele>961.5</ele>
        <time>2020-08-07T11:03:13Z</time>
      </trkpt>
      <trkpt lat="45.63289" lon="6.78476">
        <ele>961</ele>
        <time>2020-08-07T11:03:14Z</time>
      </trkpt>
      <trkpt lat="45.63271" lon="6.7846">
        <ele>960.3</ele>
        <time>2020-08-07T11:03:16Z</time>
      </trkpt>
      <trkpt lat="45.63263" lon="6.7845">
        <ele>959.9</ele>
        <time>2020-08-07T11:03:17Z</time>
      </trkpt>
      <trkpt lat="45.63248" lon="6.78431">
        <ele>959.4</ele>
        <time>2020-08-07T11:03:19Z</time>
      </trkpt>
      <trkpt lat="45.63241" lon="6.78422">
        <ele>959.1</ele>
        <time>2020-08-07T11:03:20Z</time>
      </trkpt>
      <trkpt lat="45.63226" lon="6.78411">
        <ele>958.5</ele>
        <time>2020-08-07T11:03:22Z</time>
      </trkpt>
      <trkpt lat="45.63207" lon="6.78411">
        <ele>957.5</ele>
        <time>2020-08-07T11:03:24Z</time>
      </trkpt>
      <trkpt lat="45.63197" lon="6.78413">
        <ele>957</ele>
        <time>2020-08-07T11:03:25Z</time>
      </trkpt>
      <trkpt lat="45.63187" lon="6.78414">
        <ele>956.5</ele>
        <time>2020-08-07T11:03:26Z</time>
      </trkpt>
      <trkpt lat="45.63168" lon="6.78417">
        <ele>955.5</ele>
        <time>2020-08-07T11:03:28Z</time>
      </trkpt>
      <trkpt lat="45.63159" lon="6.78418">
        <ele>954.8</ele>
        <time>2020-08-07T11:03:29Z</time>
      </trkpt>
      <trkpt lat="45.6315" lon="6.78419">
        <ele>954.1</ele>
        <time>2020-08-07T11:03:30Z</time>
      </trkpt>
      <trkpt lat="45.6314" lon="6.7842">
        <ele>953.9</ele>
        <time>2020-08-07T11:03:31Z</time>
      </trkpt>
      <trkpt lat="45.63121" lon="6.78422">
        <ele>953.7</ele>
        <time>2020-08-07T11:03:33Z</time>
      </trkpt>
      <trkpt lat="45.63102" lon="6.7842">
        <ele>953.4</ele>
        <time>2020-08-07T11:03:35Z</time>
      </trkpt>
      <trkpt lat="45.63092" lon="6.78418">
        <ele>953.2</ele>
        <time>2020-08-07T11:03:36Z</time>
      </trkpt>
      <trkpt lat="45.63073" lon="6.78412">
        <ele>952.9</ele>
        <time>2020-08-07T11:03:38Z</time>
      </trkpt>
      <trkpt lat="45.63064" lon="6.78408">
        <ele>952.7</ele>
        <time>2020-08-07T11:03:39Z</time>
      </trkpt>
      <trkpt lat="45.63045" lon="6.784">
        <ele>952.2</ele>
        <time>2020-08-07T11:03:41Z</time>
      </trkpt>
      <trkpt lat="45.63035" lon="6.78395">
        <ele>951.9</ele>
        <time>2020-08-07T11:03:42Z</time>
      </trkpt>
      <trkpt lat="45.63025" lon="6.78391">
        <ele>951.6</ele>
        <time>2020-08-07T11:03:43Z</time>
      </trkpt>
      <trkpt lat="45.63015" lon="6.78386">
        <ele>951.4</ele>
        <time>2020-08-07T11:03:44Z</time>
      </trkpt>
      <trkpt lat="45.62995" lon="6.78374">
        <ele>950.7</ele>
        <time>2020-08-07T11:03:46Z</time>
      </trkpt>
      <trkpt lat="45.62986" lon="6.78367">
        <ele>950.3</ele>
        <time>2020-08-07T11:03:47Z</time>
      </trkpt>
      <trkpt lat="45.62977" lon="6.78358">
        <ele>949.9</ele>
        <time>2020-08-07T11:03:48Z</time>
      </trkpt>
      <trkpt lat="45.6296" lon="6.7834">
        <ele>949.1</ele>
        <time>2020-08-07T11:03:50Z</time>
      </trkpt>
      <trkpt lat="45.62951" lon="6.7833">
        <ele>948.7</ele>
        <time>2020-08-07T11:03:51Z</time>
      </trkpt>
      <trkpt lat="45.62941" lon="6.78321">
        <ele>948.3</ele>
        <time>2020-08-07T11:03:52Z</time>
      </trkpt>
      <trkpt lat="45.62923" lon="6.78304">
        <ele>947.1</ele>
        <time>2020-08-07T11:03:54Z</time>
      </trkpt>
      <trkpt lat="45.62908" lon="6.78294">
        <ele>945.4</ele>
        <time>2020-08-07T11:03:56Z</time>
      </trkpt>
      <trkpt lat="45.62893" lon="6.78299">
        <ele>942.5</ele>
        <time>2020-08-07T11:03:58Z</time>
      </trkpt>
      <trkpt lat="45.62886" lon="6.78306">
        <ele>940.7</ele>
        <time>2020-08-07T11:03:59Z</time>
      </trkpt>
      <trkpt lat="45.6288" lon="6.78314">
        <ele>938.9</ele>
        <time>2020-08-07T11:04:00Z</time>
      </trkpt>
      <trkpt lat="45.62872" lon="6.78335">
        <ele>935.7</ele>
        <time>2020-08-07T11:04:02Z</time>
      </trkpt>
      <trkpt lat="45.62871" lon="6.78362">
        <ele>934.1</ele>
        <time>2020-08-07T11:04:04Z</time>
      </trkpt>
      <trkpt lat="45.62873" lon="6.78376">
        <ele>933.3</ele>
        <time>2020-08-07T11:04:05Z</time>
      </trkpt>
      <trkpt lat="45.62875" lon="6.78391">
        <ele>932.5</ele>
        <time>2020-08-07T11:04:06Z</time>
      </trkpt>
      <trkpt lat="45.62879" lon="6.78421">
        <ele>930.8</ele>
        <time>2020-08-07T11:04:08Z</time>
      </trkpt>
      <trkpt lat="45.62881" lon="6.78436">
        <ele>930</ele>
        <time>2020-08-07T11:04:09Z</time>
      </trkpt>
      <trkpt lat="45.62889" lon="6.78463">
        <ele>928.5</ele>
        <time>2020-08-07T11:04:11Z</time>
      </trkpt>
      <trkpt lat="45.62894" lon="6.78475">
        <ele>927.8</ele>
        <time>2020-08-07T11:04:12Z</time>
      </trkpt>
      <trkpt lat="45.62902" lon="6.78485">
        <ele>927.1</ele>
        <time>2020-08-07T11:04:13Z</time>
      </trkpt>
      <trkpt lat="45.6292" lon="6.78499">
        <ele>925.7</ele>
        <time>2020-08-07T11:04:15Z</time>
      </trkpt>
      <trkpt lat="45.62929" lon="6.78506">
        <ele>925</ele>
        <time>2020-08-07T11:04:16Z</time>
      </trkpt>
      <trkpt lat="45.6295" lon="6.78518">
        <ele>923.7</ele>
        <time>2020-08-07T11:04:18Z</time>
      </trkpt>
      <trkpt lat="45.6296" lon="6.78525">
        <ele>923.1</ele>
        <time>2020-08-07T11:04:19Z</time>
      </trkpt>
      <trkpt lat="45.6298" lon="6.78535">
        <ele>921.9</ele>
        <time>2020-08-07T11:04:21Z</time>
      </trkpt>
      <trkpt lat="45.62996" lon="6.78542">
        <ele>921.6</ele>
        <time>2020-08-07T11:04:23Z</time>
      </trkpt>
      <trkpt lat="45.63" lon="6.78548">
        <ele>921.5</ele>
        <time>2020-08-07T11:04:24Z</time>
      </trkpt>
      <trkpt lat="45.62998" lon="6.78564">
        <ele>920.9</ele>
        <time>2020-08-07T11:04:26Z</time>
      </trkpt>
      <trkpt lat="45.62991" lon="6.78567">
        <ele>920.4</ele>
        <time>2020-08-07T11:04:27Z</time>
      </trkpt>
      <trkpt lat="45.62975" lon="6.78557">
        <ele>919.4</ele>
        <time>2020-08-07T11:04:29Z</time>
      </trkpt>
      <trkpt lat="45.6296" lon="6.78544">
        <ele>918.4</ele>
        <time>2020-08-07T11:04:31Z</time>
      </trkpt>
      <trkpt lat="45.62951" lon="6.7854">
        <ele>917.9</ele>
        <time>2020-08-07T11:04:32Z</time>
      </trkpt>
      <trkpt lat="45.62931" lon="6.78536">
        <ele>917</ele>
        <time>2020-08-07T11:04:34Z</time>
      </trkpt>
      <trkpt lat="45.62921" lon="6.78534">
        <ele>916.6</ele>
        <time>2020-08-07T11:04:35Z</time>
      </trkpt>
      <trkpt lat="45.62901" lon="6.78527">
        <ele>915.8</ele>
        <time>2020-08-07T11:04:37Z</time>
      </trkpt>
      <trkpt lat="45.62892" lon="6.7852">
        <ele>915.4</ele>
        <time>2020-08-07T11:04:38Z</time>
      </trkpt>
      <trkpt lat="45.62874" lon="6.78502">
        <ele>914.3</ele>
        <time>2020-08-07T11:04:40Z</time>
      </trkpt>
      <trkpt lat="45.62856" lon="6.78483">
        <ele>913.2</ele>
        <time>2020-08-07T11:04:42Z</time>
      </trkpt>
      <trkpt lat="45.62848" lon="6.78473">
        <ele>912.7</ele>
        <time>2020-08-07T11:04:43Z</time>
      </trkpt>
      <trkpt lat="45.62833" lon="6.78447">
        <ele>911.7</ele>
        <time>2020-08-07T11:04:45Z</time>
      </trkpt>
      <trkpt lat="45.62827" lon="6.78432">
        <ele>911.3</ele>
        <time>2020-08-07T11:04:46Z</time>
      </trkpt>
      <trkpt lat="45.62819" lon="6.78418">
        <ele>911</ele>
        <time>2020-08-07T11:04:47Z</time>
      </trkpt>
      <trkpt lat="45.6281" lon="6.78406">
        <ele>910.5</ele>
        <time>2020-08-07T11:04:48Z</time>
      </trkpt>
      <trkpt lat="45.62793" lon="6.78385">
        <ele>909.6</ele>
        <time>2020-08-07T11:04:50Z</time>
      </trkpt>
      <trkpt lat="45.62785" lon="6.78373">
        <ele>909.1</ele>
        <time>2020-08-07T11:04:51Z</time>
      </trkpt>
      <trkpt lat="45.62775" lon="6.78348">
        <ele>908</ele>
        <time>2020-08-07T11:04:53Z</time>
      </trkpt>
      <trkpt lat="45.6277" lon="6.78317">
        <ele>907</ele>
        <time>2020-08-07T11:04:55Z</time>
      </trkpt>
      <trkpt lat="45.62767" lon="6.78301">
        <ele>906.3</ele>
        <time>2020-08-07T11:04:56Z</time>
      </trkpt>
      <trkpt lat="45.62765" lon="6.78284">
        <ele>905.4</ele>
        <time>2020-08-07T11:04:57Z</time>
      </trkpt>
      <trkpt lat="45.6276" lon="6.78251">
        <ele>903.7</ele>
        <time>2020-08-07T11:04:59Z</time>
      </trkpt>
      <trkpt lat="45.62757" lon="6.78234">
        <ele>902.9</ele>
        <time>2020-08-07T11:05:00Z</time>
      </trkpt>
      <trkpt lat="45.6275" lon="6.78202">
        <ele>901.3</ele>
        <time>2020-08-07T11:05:02Z</time>
      </trkpt>
      <trkpt lat="45.62746" lon="6.78187">
        <ele>900.5</ele>
        <time>2020-08-07T11:05:03Z</time>
      </trkpt>
      <trkpt lat="45.62741" lon="6.78171">
        <ele>899.7</ele>
        <time>2020-08-07T11:05:04Z</time>
      </trkpt>
      <trkpt lat="45.62727" lon="6.78142">
        <ele>898.3</ele>
        <time>2020-08-07T11:05:06Z</time>
      </trkpt>
      <trkpt lat="45.62719" lon="6.78128">
        <ele>897.8</ele>
        <time>2020-08-07T11:05:07Z</time>
      </trkpt>
      <trkpt lat="45.62703" lon="6.78099">
        <ele>896.8</ele>
        <time>2020-08-07T11:05:09Z</time>
      </trkpt>
      <trkpt lat="45.62689" lon="6.78067">
        <ele>895.7</ele>
        <time>2020-08-07T11:05:11Z</time>
      </trkpt>
      <trkpt lat="45.62677" lon="6.78033">
        <ele>894.7</ele>
        <time>2020-08-07T11:05:13Z</time>
      </trkpt>
      <trkpt lat="45.62672" lon="6.78014">
        <ele>894.2</ele>
        <time>2020-08-07T11:05:14Z</time>
      </trkpt>
      <trkpt lat="45.62659" lon="6.7798">
        <ele>893.3</ele>
        <time>2020-08-07T11:05:16Z</time>
      </trkpt>
      <trkpt lat="45.62651" lon="6.77964">
        <ele>892.8</ele>
        <time>2020-08-07T11:05:17Z</time>
      </trkpt>
      <trkpt lat="45.62642" lon="6.7795">
        <ele>892.5</ele>
        <time>2020-08-07T11:05:18Z</time>
      </trkpt>
      <trkpt lat="45.62624" lon="6.77927">
        <ele>892.1</ele>
        <time>2020-08-07T11:05:20Z</time>
      </trkpt>
      <trkpt lat="45.62612" lon="6.77907">
        <ele>891.6</ele>
        <time>2020-08-07T11:05:22Z</time>
      </trkpt>
      <trkpt lat="45.6261" lon="6.77894">
        <ele>891.3</ele>
        <time>2020-08-07T11:05:23Z</time>
      </trkpt>
      <trkpt lat="45.6261" lon="6.77879">
        <ele>890.8</ele>
        <time>2020-08-07T11:05:24Z</time>
      </trkpt>
      <trkpt lat="45.62613" lon="6.77853">
        <ele>890.1</ele>
        <time>2020-08-07T11:05:26Z</time>
      </trkpt>
      <trkpt lat="45.62618" lon="6.77828">
        <ele>889.4</ele>
        <time>2020-08-07T11:05:28Z</time>
      </trkpt>
      <trkpt lat="45.62619" lon="6.77807">
        <ele>888.9</ele>
        <time>2020-08-07T11:05:30Z</time>
      </trkpt>
      <trkpt lat="45.62619" lon="6.77798">
        <ele>888.7</ele>
        <time>2020-08-07T11:05:31Z</time>
      </trkpt>
      <trkpt lat="45.62617" lon="6.7779">
        <ele>888.5</ele>
        <time>2020-08-07T11:05:32Z</time>
      </trkpt>
      <trkpt lat="45.62615" lon="6.77781">
        <ele>887.9</ele>
        <time>2020-08-07T11:05:34Z</time>
      </trkpt>
      <trkpt lat="45.62616" lon="6.77778">
        <ele>887.7</ele>
        <time>2020-08-07T11:05:36Z</time>
      </trkpt>
      <trkpt lat="45.62615" lon="6.77779">
        <ele>887.6</ele>
        <time>2020-08-07T11:05:37Z</time>
      </trkpt>
      <trkpt lat="45.62616" lon="6.7778">
        <ele>887.5</ele>
        <time>2020-08-07T11:05:39Z</time>
      </trkpt>
      <trkpt lat="45.62616" lon="6.77781">
        <ele>887.4</ele>
        <time>2020-08-07T11:05:40Z</time>
      </trkpt>
      <trkpt lat="45.62616" lon="6.77781">
        <ele>887.4</ele>
        <time>2020-08-07T11:05:42Z</time>
      </trkpt>
      <trkpt lat="45.62617" lon="6.77782">
        <ele>887.3</ele>
        <time>2020-08-07T11:05:43Z</time>
      </trkpt>
      <trkpt lat="45.62617" lon="6.7778">
        <ele>887.2</ele>
        <time>2020-08-07T11:05:44Z</time>
      </trkpt>
      <trkpt lat="45.62617" lon="6.7778">
        <ele>887.2</ele>
        <time>2020-08-07T11:05:46Z</time>
      </trkpt>
      <trkpt lat="45.62617" lon="6.7778">
        <ele>887.2</ele>
        <time>2020-08-07T11:05:48Z</time>
      </trkpt>
      <trkpt lat="45.62618" lon="6.7778">
        <ele>887.2</ele>
        <time>2020-08-07T11:05:50Z</time>
      </trkpt>
      <trkpt lat="45.62618" lon="6.7778">
        <ele>887.2</ele>
        <time>2020-08-07T11:05:51Z</time>
      </trkpt>
      <trkpt lat="45.62618" lon="6.7778">
        <ele>887.1</ele>
        <time>2020-08-07T11:05:52Z</time>
      </trkpt>
      <trkpt lat="45.62619" lon="6.7778">
        <ele>887.1</ele>
        <time>2020-08-07T11:05:54Z</time>
      </trkpt>
      <trkpt lat="45.62619" lon="6.7778">
        <ele>887.1</ele>
        <time>2020-08-07T11:05:55Z</time>
      </trkpt>
      <trkpt lat="45.62619" lon="6.7778">
        <ele>887</ele>
        <time>2020-08-07T11:05:57Z</time>
      </trkpt>
      <trkpt lat="45.62615" lon="6.77786">
        <ele>886.4</ele>
        <time>2020-08-07T11:06:46Z</time>
      </trkpt>
      <trkpt lat="45.62602" lon="6.77783">
        <ele>885.1</ele>
        <time>2020-08-07T11:06:48Z</time>
      </trkpt>
      <trkpt lat="45.62596" lon="6.77782">
        <ele>884.5</ele>
        <time>2020-08-07T11:06:49Z</time>
      </trkpt>
      <trkpt lat="45.62588" lon="6.77781">
        <ele>883.8</ele>
        <time>2020-08-07T11:06:50Z</time>
      </trkpt>
      <trkpt lat="45.62572" lon="6.77782">
        <ele>882.6</ele>
        <time>2020-08-07T11:06:52Z</time>
      </trkpt>
      <trkpt lat="45.62554" lon="6.77784">
        <ele>881.1</ele>
        <time>2020-08-07T11:06:54Z</time>
      </trkpt>
      <trkpt lat="45.62537" lon="6.77784">
        <ele>879.3</ele>
        <time>2020-08-07T11:06:56Z</time>
      </trkpt>
      <trkpt lat="45.62529" lon="6.77779">
        <ele>878.4</ele>
        <time>2020-08-07T11:06:57Z</time>
      </trkpt>
      <trkpt lat="45.62523" lon="6.77768">
        <ele>877.3</ele>
        <time>2020-08-07T11:06:58Z</time>
      </trkpt>
      <trkpt lat="45.62518" lon="6.77755">
        <ele>876.3</ele>
        <time>2020-08-07T11:06:59Z</time>
      </trkpt>
      <trkpt lat="45.62509" lon="6.77729">
        <ele>874.2</ele>
        <time>2020-08-07T11:07:01Z</time>
      </trkpt>
      <trkpt lat="45.625" lon="6.77703">
        <ele>872.3</ele>
        <time>2020-08-07T11:07:03Z</time>
      </trkpt>
      <trkpt lat="45.62497" lon="6.77688">
        <ele>871.4</ele>
        <time>2020-08-07T11:07:04Z</time>
      </trkpt>
      <trkpt lat="45.62495" lon="6.77672">
        <ele>870.5</ele>
        <time>2020-08-07T11:07:05Z</time>
      </trkpt>
      <trkpt lat="45.62494" lon="6.77639">
        <ele>868.8</ele>
        <time>2020-08-07T11:07:07Z</time>
      </trkpt>
      <trkpt lat="45.62497" lon="6.77606">
        <ele>866.9</ele>
        <time>2020-08-07T11:07:09Z</time>
      </trkpt>
      <trkpt lat="45.625" lon="6.77589">
        <ele>865.8</ele>
        <time>2020-08-07T11:07:10Z</time>
      </trkpt>
      <trkpt lat="45.62503" lon="6.77559">
        <ele>863.5</ele>
        <time>2020-08-07T11:07:12Z</time>
      </trkpt>
      <trkpt lat="45.62494" lon="6.7753">
        <ele>861.1</ele>
        <time>2020-08-07T11:07:14Z</time>
      </trkpt>
      <trkpt lat="45.62487" lon="6.77515">
        <ele>859.9</ele>
        <time>2020-08-07T11:07:15Z</time>
      </trkpt>
      <trkpt lat="45.62474" lon="6.77486">
        <ele>857.7</ele>
        <time>2020-08-07T11:07:17Z</time>
      </trkpt>
      <trkpt lat="45.62468" lon="6.77472">
        <ele>856.6</ele>
        <time>2020-08-07T11:07:18Z</time>
      </trkpt>
      <trkpt lat="45.62459" lon="6.77443">
        <ele>854.8</ele>
        <time>2020-08-07T11:07:20Z</time>
      </trkpt>
      <trkpt lat="45.62455" lon="6.77428">
        <ele>853.8</ele>
        <time>2020-08-07T11:07:21Z</time>
      </trkpt>
      <trkpt lat="45.62445" lon="6.77396">
        <ele>851.7</ele>
        <time>2020-08-07T11:07:23Z</time>
      </trkpt>
      <trkpt lat="45.62434" lon="6.77366">
        <ele>848.8</ele>
        <time>2020-08-07T11:07:25Z</time>
      </trkpt>
      <trkpt lat="45.62422" lon="6.77338">
        <ele>846</ele>
        <time>2020-08-07T11:07:27Z</time>
      </trkpt>
      <trkpt lat="45.62415" lon="6.77322">
        <ele>844.5</ele>
        <time>2020-08-07T11:07:28Z</time>
      </trkpt>
      <trkpt lat="45.62409" lon="6.77306">
        <ele>843.1</ele>
        <time>2020-08-07T11:07:29Z</time>
      </trkpt>
      <trkpt lat="45.62398" lon="6.77274">
        <ele>840.2</ele>
        <time>2020-08-07T11:07:31Z</time>
      </trkpt>
      <trkpt lat="45.62391" lon="6.77258">
        <ele>838.8</ele>
        <time>2020-08-07T11:07:32Z</time>
      </trkpt>
      <trkpt lat="45.62377" lon="6.77229">
        <ele>836</ele>
        <time>2020-08-07T11:07:34Z</time>
      </trkpt>
      <trkpt lat="45.62369" lon="6.77215">
        <ele>834.6</ele>
        <time>2020-08-07T11:07:35Z</time>
      </trkpt>
      <trkpt lat="45.62362" lon="6.77201">
        <ele>833.1</ele>
        <time>2020-08-07T11:07:36Z</time>
      </trkpt>
      <trkpt lat="45.6235" lon="6.77178">
        <ele>830.2</ele>
        <time>2020-08-07T11:07:38Z</time>
      </trkpt>
      <trkpt lat="45.62346" lon="6.77169">
        <ele>829</ele>
        <time>2020-08-07T11:07:39Z</time>
      </trkpt>
      <trkpt lat="45.62341" lon="6.77161">
        <ele>827.9</ele>
        <time>2020-08-07T11:07:40Z</time>
      </trkpt>
      <trkpt lat="45.62337" lon="6.77154">
        <ele>826.9</ele>
        <time>2020-08-07T11:07:41Z</time>
      </trkpt>
      <trkpt lat="45.6233" lon="6.77145">
        <ele>825.6</ele>
        <time>2020-08-07T11:07:43Z</time>
      </trkpt>
      <trkpt lat="45.62327" lon="6.77143">
        <ele>825.1</ele>
        <time>2020-08-07T11:07:44Z</time>
      </trkpt>
      <trkpt lat="45.62325" lon="6.77142">
        <ele>824.8</ele>
        <time>2020-08-07T11:07:45Z</time>
      </trkpt>
      <trkpt lat="45.62318" lon="6.77139">
        <ele>823.9</ele>
        <time>2020-08-07T11:07:47Z</time>
      </trkpt>
      <trkpt lat="45.62314" lon="6.77136">
        <ele>823.2</ele>
        <time>2020-08-07T11:07:49Z</time>
      </trkpt>
      <trkpt lat="45.62313" lon="6.77135">
        <ele>823.2</ele>
        <time>2020-08-07T11:07:50Z</time>
      </trkpt>
      <trkpt lat="45.62313" lon="6.77134">
        <ele>823.1</ele>
        <time>2020-08-07T11:07:53Z</time>
      </trkpt>
      <trkpt lat="45.62312" lon="6.77133">
        <ele>823</ele>
        <time>2020-08-07T11:07:55Z</time>
      </trkpt>
      <trkpt lat="45.62311" lon="6.77132">
        <ele>822.9</ele>
        <time>2020-08-07T11:07:57Z</time>
      </trkpt>
      <trkpt lat="45.6231" lon="6.77131">
        <ele>822.9</ele>
        <time>2020-08-07T11:07:58Z</time>
      </trkpt>
      <trkpt lat="45.6231" lon="6.7713">
        <ele>822.8</ele>
        <time>2020-08-07T11:08:00Z</time>
      </trkpt>
      <trkpt lat="45.62309" lon="6.77129">
        <ele>822.7</ele>
        <time>2020-08-07T11:13:29Z</time>
      </trkpt>
      <trkpt lat="45.62308" lon="6.77129">
        <ele>822.7</ele>
        <time>2020-08-07T11:13:30Z</time>
      </trkpt>
      <trkpt lat="45.62307" lon="6.77128">
        <ele>822.6</ele>
        <time>2020-08-07T11:13:32Z</time>
      </trkpt>
      <trkpt lat="45.62307" lon="6.77127">
        <ele>822.5</ele>
        <time>2020-08-07T11:13:34Z</time>
      </trkpt>
      <trkpt lat="45.62306" lon="6.77126">
        <ele>822.4</ele>
        <time>2020-08-07T11:13:35Z</time>
      </trkpt>
      <trkpt lat="45.62295" lon="6.77115">
        <ele>821.6</ele>
        <time>2020-08-07T11:13:37Z</time>
      </trkpt>
      <trkpt lat="45.62282" lon="6.77106">
        <ele>820.6</ele>
        <time>2020-08-07T11:13:39Z</time>
      </trkpt>
      <trkpt lat="45.62277" lon="6.77103">
        <ele>820.3</ele>
        <time>2020-08-07T11:13:40Z</time>
      </trkpt>
      <trkpt lat="45.62266" lon="6.77098">
        <ele>819.6</ele>
        <time>2020-08-07T11:13:42Z</time>
      </trkpt>
      <trkpt lat="45.62254" lon="6.77094">
        <ele>819</ele>
        <time>2020-08-07T11:13:44Z</time>
      </trkpt>
      <trkpt lat="45.62247" lon="6.77091">
        <ele>818.7</ele>
        <time>2020-08-07T11:13:45Z</time>
      </trkpt>
      <trkpt lat="45.6224" lon="6.77089">
        <ele>818.4</ele>
        <time>2020-08-07T11:13:46Z</time>
      </trkpt>
      <trkpt lat="45.62233" lon="6.77088">
        <ele>818.1</ele>
        <time>2020-08-07T11:13:47Z</time>
      </trkpt>
      <trkpt lat="45.62218" lon="6.77084">
        <ele>817.5</ele>
        <time>2020-08-07T11:13:49Z</time>
      </trkpt>
      <trkpt lat="45.62201" lon="6.77082">
        <ele>817</ele>
        <time>2020-08-07T11:13:51Z</time>
      </trkpt>
      <trkpt lat="45.62184" lon="6.77082">
        <ele>816.6</ele>
        <time>2020-08-07T11:13:53Z</time>
      </trkpt>
      <trkpt lat="45.62167" lon="6.77083">
        <ele>816.3</ele>
        <time>2020-08-07T11:13:55Z</time>
      </trkpt>
      <trkpt lat="45.6215" lon="6.77084">
        <ele>815.8</ele>
        <time>2020-08-07T11:13:57Z</time>
      </trkpt>
      <trkpt lat="45.62132" lon="6.77085">
        <ele>815.4</ele>
        <time>2020-08-07T11:13:59Z</time>
      </trkpt>
      <trkpt lat="45.62114" lon="6.77086">
        <ele>815</ele>
        <time>2020-08-07T11:14:01Z</time>
      </trkpt>
      <trkpt lat="45.62098" lon="6.77087">
        <ele>814.8</ele>
        <time>2020-08-07T11:14:03Z</time>
      </trkpt>
      <trkpt lat="45.62091" lon="6.77088">
        <ele>814.8</ele>
        <time>2020-08-07T11:14:04Z</time>
      </trkpt>
      <trkpt lat="45.62079" lon="6.77089">
        <ele>814.8</ele>
        <time>2020-08-07T11:14:06Z</time>
      </trkpt>
      <trkpt lat="45.62074" lon="6.77088">
        <ele>814.9</ele>
        <time>2020-08-07T11:14:07Z</time>
      </trkpt>
      <trkpt lat="45.6207" lon="6.77088">
        <ele>814.9</ele>
        <time>2020-08-07T11:14:08Z</time>
      </trkpt>
      <trkpt lat="45.62065" lon="6.77088">
        <ele>815</ele>
        <time>2020-08-07T11:14:10Z</time>
      </trkpt>
      <trkpt lat="45.62061" lon="6.7709">
        <ele>815</ele>
        <time>2020-08-07T11:14:11Z</time>
      </trkpt>
      <trkpt lat="45.6206" lon="6.7709">
        <ele>815</ele>
        <time>2020-08-07T11:14:12Z</time>
      </trkpt>
      <trkpt lat="45.62058" lon="6.77091">
        <ele>815</ele>
        <time>2020-08-07T11:14:13Z</time>
      </trkpt>
      <trkpt lat="45.62054" lon="6.77093">
        <ele>815.1</ele>
        <time>2020-08-07T11:14:15Z</time>
      </trkpt>
      <trkpt lat="45.62049" lon="6.77094">
        <ele>815.3</ele>
        <time>2020-08-07T11:14:16Z</time>
      </trkpt>
      <trkpt lat="45.62044" lon="6.77096">
        <ele>815.5</ele>
        <time>2020-08-07T11:14:18Z</time>
      </trkpt>
      <trkpt lat="45.6204" lon="6.77096">
        <ele>815.6</ele>
        <time>2020-08-07T11:14:19Z</time>
      </trkpt>
      <trkpt lat="45.62036" lon="6.77096">
        <ele>815.7</ele>
        <time>2020-08-07T11:14:20Z</time>
      </trkpt>
      <trkpt lat="45.6203" lon="6.77099">
        <ele>815.8</ele>
        <time>2020-08-07T11:14:22Z</time>
      </trkpt>
      <trkpt lat="45.62027" lon="6.77101">
        <ele>815.9</ele>
        <time>2020-08-07T11:14:23Z</time>
      </trkpt>
      <trkpt lat="45.62025" lon="6.77105">
        <ele>815.9</ele>
        <time>2020-08-07T11:14:24Z</time>
      </trkpt>
      <trkpt lat="45.62023" lon="6.77109">
        <ele>815.9</ele>
        <time>2020-08-07T11:14:25Z</time>
      </trkpt>
      <trkpt lat="45.62023" lon="6.77117">
        <ele>815.9</ele>
        <time>2020-08-07T11:14:26Z</time>
      </trkpt>
      <trkpt lat="45.62026" lon="6.77125">
        <ele>815.8</ele>
        <time>2020-08-07T11:14:27Z</time>
      </trkpt>
      <trkpt lat="45.62034" lon="6.77132">
        <ele>815.5</ele>
        <time>2020-08-07T11:14:29Z</time>
      </trkpt>
      <trkpt lat="45.62043" lon="6.7714">
        <ele>815.1</ele>
        <time>2020-08-07T11:14:31Z</time>
      </trkpt>
      <trkpt lat="45.6205" lon="6.77152">
        <ele>814.7</ele>
        <time>2020-08-07T11:14:33Z</time>
      </trkpt>
      <trkpt lat="45.62055" lon="6.77165">
        <ele>814.4</ele>
        <time>2020-08-07T11:14:35Z</time>
      </trkpt>
      <trkpt lat="45.62057" lon="6.77171">
        <ele>814.2</ele>
        <time>2020-08-07T11:14:36Z</time>
      </trkpt>
      <trkpt lat="45.62062" lon="6.77183">
        <ele>813.9</ele>
        <time>2020-08-07T11:14:38Z</time>
      </trkpt>
      <trkpt lat="45.62068" lon="6.77196">
        <ele>813.7</ele>
        <time>2020-08-07T11:14:40Z</time>
      </trkpt>
      <trkpt lat="45.62073" lon="6.7721">
        <ele>813.6</ele>
        <time>2020-08-07T11:14:42Z</time>
      </trkpt>
      <trkpt lat="45.62076" lon="6.77216">
        <ele>813.6</ele>
        <time>2020-08-07T11:14:43Z</time>
      </trkpt>
      <trkpt lat="45.62081" lon="6.77229">
        <ele>813.6</ele>
        <time>2020-08-07T11:14:45Z</time>
      </trkpt>
      <trkpt lat="45.62086" lon="6.77242">
        <ele>813.5</ele>
        <time>2020-08-07T11:14:47Z</time>
      </trkpt>
      <trkpt lat="45.62091" lon="6.77255">
        <ele>813.5</ele>
        <time>2020-08-07T11:14:49Z</time>
      </trkpt>
      <trkpt lat="45.62094" lon="6.77263">
        <ele>813.3</ele>
        <time>2020-08-07T11:14:51Z</time>
      </trkpt>
      <trkpt lat="45.62095" lon="6.77267">
        <ele>813.1</ele>
        <time>2020-08-07T11:14:52Z</time>
      </trkpt>
      <trkpt lat="45.62099" lon="6.77277">
        <ele>812.8</ele>
        <time>2020-08-07T11:14:54Z</time>
      </trkpt>
      <trkpt lat="45.62101" lon="6.77281">
        <ele>812.6</ele>
        <time>2020-08-07T11:14:55Z</time>
      </trkpt>
      <trkpt lat="45.62103" lon="6.77286">
        <ele>812.5</ele>
        <time>2020-08-07T11:14:56Z</time>
      </trkpt>
      <trkpt lat="45.62105" lon="6.77291">
        <ele>812.3</ele>
        <time>2020-08-07T11:14:57Z</time>
      </trkpt>
      <trkpt lat="45.62107" lon="6.77297">
        <ele>812.1</ele>
        <time>2020-08-07T11:14:58Z</time>
      </trkpt>
      <trkpt lat="45.6211" lon="6.77304">
        <ele>811.9</ele>
        <time>2020-08-07T11:14:59Z</time>
      </trkpt>
      <trkpt lat="45.62114" lon="6.77313">
        <ele>811.6</ele>
        <time>2020-08-07T11:15:01Z</time>
      </trkpt>
      <trkpt lat="45.62116" lon="6.7732">
        <ele>811.4</ele>
        <time>2020-08-07T11:15:02Z</time>
      </trkpt>
      <trkpt lat="45.62121" lon="6.77331">
        <ele>811</ele>
        <time>2020-08-07T11:15:04Z</time>
      </trkpt>
      <trkpt lat="45.62124" lon="6.77338">
        <ele>810.8</ele>
        <time>2020-08-07T11:15:05Z</time>
      </trkpt>
      <trkpt lat="45.62129" lon="6.77351">
        <ele>810.5</ele>
        <time>2020-08-07T11:15:07Z</time>
      </trkpt>
      <trkpt lat="45.62133" lon="6.77364">
        <ele>810.1</ele>
        <time>2020-08-07T11:15:09Z</time>
      </trkpt>
      <trkpt lat="45.62138" lon="6.77378">
        <ele>809.8</ele>
        <time>2020-08-07T11:15:11Z</time>
      </trkpt>
      <trkpt lat="45.62143" lon="6.77392">
        <ele>809.7</ele>
        <time>2020-08-07T11:15:13Z</time>
      </trkpt>
      <trkpt lat="45.62148" lon="6.77407">
        <ele>809.6</ele>
        <time>2020-08-07T11:15:15Z</time>
      </trkpt>
      <trkpt lat="45.62154" lon="6.77421">
        <ele>809.4</ele>
        <time>2020-08-07T11:15:17Z</time>
      </trkpt>
      <trkpt lat="45.62157" lon="6.77428">
        <ele>809.3</ele>
        <time>2020-08-07T11:15:18Z</time>
      </trkpt>
      <trkpt lat="45.62159" lon="6.77435">
        <ele>809.2</ele>
        <time>2020-08-07T11:15:19Z</time>
      </trkpt>
      <trkpt lat="45.62164" lon="6.77448">
        <ele>809</ele>
        <time>2020-08-07T11:15:21Z</time>
      </trkpt>
      <trkpt lat="45.62167" lon="6.77455">
        <ele>809</ele>
        <time>2020-08-07T11:15:22Z</time>
      </trkpt>
      <trkpt lat="45.62173" lon="6.77468">
        <ele>808.8</ele>
        <time>2020-08-07T11:15:24Z</time>
      </trkpt>
      <trkpt lat="45.62178" lon="6.77482">
        <ele>808.7</ele>
        <time>2020-08-07T11:15:26Z</time>
      </trkpt>
      <trkpt lat="45.62181" lon="6.77489">
        <ele>808.7</ele>
        <time>2020-08-07T11:15:27Z</time>
      </trkpt>
      <trkpt lat="45.62186" lon="6.77502">
        <ele>808.7</ele>
        <time>2020-08-07T11:15:29Z</time>
      </trkpt>
      <trkpt lat="45.62189" lon="6.77509">
        <ele>808.7</ele>
        <time>2020-08-07T11:15:30Z</time>
      </trkpt>
      <trkpt lat="45.62194" lon="6.77522">
        <ele>808.7</ele>
        <time>2020-08-07T11:15:32Z</time>
      </trkpt>
      <trkpt lat="45.622" lon="6.77533">
        <ele>808.7</ele>
        <time>2020-08-07T11:15:34Z</time>
      </trkpt>
      <trkpt lat="45.62202" lon="6.77538">
        <ele>808.7</ele>
        <time>2020-08-07T11:15:35Z</time>
      </trkpt>
      <trkpt lat="45.62205" lon="6.77544">
        <ele>808.6</ele>
        <time>2020-08-07T11:15:36Z</time>
      </trkpt>
      <trkpt lat="45.62206" lon="6.77547">
        <ele>808.6</ele>
        <time>2020-08-07T11:15:37Z</time>
      </trkpt>
      <trkpt lat="45.62208" lon="6.77551">
        <ele>808.6</ele>
        <time>2020-08-07T11:15:38Z</time>
      </trkpt>
      <trkpt lat="45.62212" lon="6.7756">
        <ele>808.6</ele>
        <time>2020-08-07T11:15:40Z</time>
      </trkpt>
      <trkpt lat="45.62215" lon="6.77565">
        <ele>808.5</ele>
        <time>2020-08-07T11:15:42Z</time>
      </trkpt>
      <trkpt lat="45.62216" lon="6.77568">
        <ele>808.5</ele>
        <time>2020-08-07T11:15:43Z</time>
      </trkpt>
      <trkpt lat="45.62218" lon="6.77574">
        <ele>808.5</ele>
        <time>2020-08-07T11:15:45Z</time>
      </trkpt>
      <trkpt lat="45.62221" lon="6.77579">
        <ele>808.5</ele>
        <time>2020-08-07T11:15:47Z</time>
      </trkpt>
      <trkpt lat="45.62222" lon="6.77582">
        <ele>808.5</ele>
        <time>2020-08-07T11:15:48Z</time>
      </trkpt>
      <trkpt lat="45.62225" lon="6.77589">
        <ele>808.5</ele>
        <time>2020-08-07T11:15:50Z</time>
      </trkpt>
      <trkpt lat="45.62226" lon="6.77592">
        <ele>808.5</ele>
        <time>2020-08-07T11:15:51Z</time>
      </trkpt>
      <trkpt lat="45.62229" lon="6.77597">
        <ele>808.6</ele>
        <time>2020-08-07T11:15:53Z</time>
      </trkpt>
      <trkpt lat="45.62232" lon="6.77603">
        <ele>808.6</ele>
        <time>2020-08-07T11:15:55Z</time>
      </trkpt>
      <trkpt lat="45.62233" lon="6.77606">
        <ele>808.6</ele>
        <time>2020-08-07T11:15:56Z</time>
      </trkpt>
      <trkpt lat="45.62236" lon="6.77612">
        <ele>808.6</ele>
        <time>2020-08-07T11:15:58Z</time>
      </trkpt>
      <trkpt lat="45.62238" lon="6.77616">
        <ele>808.6</ele>
        <time>2020-08-07T11:15:59Z</time>
      </trkpt>
      <trkpt lat="45.62239" lon="6.77617">
        <ele>808.6</ele>
        <time>2020-08-07T11:16:00Z</time>
      </trkpt>
      <trkpt lat="45.62243" lon="6.77626">
        <ele>808.6</ele>
        <time>2020-08-07T11:16:02Z</time>
      </trkpt>
      <trkpt lat="45.62245" lon="6.77631">
        <ele>808.6</ele>
        <time>2020-08-07T11:16:03Z</time>
      </trkpt>
      <trkpt lat="45.62248" lon="6.77638">
        <ele>808.7</ele>
        <time>2020-08-07T11:16:05Z</time>
      </trkpt>
      <trkpt lat="45.6225" lon="6.77644">
        <ele>808.7</ele>
        <time>2020-08-07T11:16:06Z</time>
      </trkpt>
      <trkpt lat="45.62251" lon="6.77646">
        <ele>808.7</ele>
        <time>2020-08-07T11:16:07Z</time>
      </trkpt>
      <trkpt lat="45.62253" lon="6.77652">
        <ele>808.7</ele>
        <time>2020-08-07T11:16:09Z</time>
      </trkpt>
      <trkpt lat="45.62254" lon="6.77654">
        <ele>808.8</ele>
        <time>2020-08-07T11:16:11Z</time>
      </trkpt>
      <trkpt lat="45.62254" lon="6.77656">
        <ele>808.8</ele>
        <time>2020-08-07T11:16:12Z</time>
      </trkpt>
      <trkpt lat="45.62255" lon="6.7766">
        <ele>808.8</ele>
        <time>2020-08-07T11:16:13Z</time>
      </trkpt>
      <trkpt lat="45.62255" lon="6.77661">
        <ele>808.8</ele>
        <time>2020-08-07T11:16:14Z</time>
      </trkpt>
      <trkpt lat="45.62257" lon="6.77666">
        <ele>808.8</ele>
        <time>2020-08-07T11:16:15Z</time>
      </trkpt>
      <trkpt lat="45.62257" lon="6.77668">
        <ele>808.8</ele>
        <time>2020-08-07T11:16:16Z</time>
      </trkpt>
      <trkpt lat="45.62258" lon="6.7767">
        <ele>808.8</ele>
        <time>2020-08-07T11:16:17Z</time>
      </trkpt>
      <trkpt lat="45.62258" lon="6.77671">
        <ele>808.8</ele>
        <time>2020-08-07T11:16:18Z</time>
      </trkpt>
      <trkpt lat="45.62259" lon="6.77673">
        <ele>808.9</ele>
        <time>2020-08-07T11:16:21Z</time>
      </trkpt>
      <trkpt lat="45.62259" lon="6.77676">
        <ele>808.9</ele>
        <time>2020-08-07T11:16:22Z</time>
      </trkpt>
      <trkpt lat="45.62259" lon="6.77678">
        <ele>808.9</ele>
        <time>2020-08-07T11:16:25Z</time>
      </trkpt>
      <trkpt lat="45.62259" lon="6.77682">
        <ele>808.9</ele>
        <time>2020-08-07T11:16:26Z</time>
      </trkpt>
      <trkpt lat="45.62259" lon="6.7769">
        <ele>809.6</ele>
        <time>2020-08-07T11:16:29Z</time>
      </trkpt>
      <trkpt lat="45.62258" lon="6.77692">
        <ele>809.6</ele>
        <time>2020-08-07T11:16:30Z</time>
      </trkpt>
      <trkpt lat="45.62256" lon="6.77693">
        <ele>809.6</ele>
        <time>2020-08-07T11:16:32Z</time>
      </trkpt>
      <trkpt lat="45.62255" lon="6.77694">
        <ele>809.6</ele>
        <time>2020-08-07T11:16:33Z</time>
      </trkpt>
      <trkpt lat="45.62252" lon="6.777">
        <ele>809.6</ele>
        <time>2020-08-07T11:16:35Z</time>
      </trkpt>
      <trkpt lat="45.6225" lon="6.77703">
        <ele>809.6</ele>
        <time>2020-08-07T11:16:36Z</time>
      </trkpt>
      <trkpt lat="45.62244" lon="6.77708">
        <ele>809.6</ele>
        <time>2020-08-07T11:16:38Z</time>
      </trkpt>
      <trkpt lat="45.62241" lon="6.77711">
        <ele>809.6</ele>
        <time>2020-08-07T11:16:39Z</time>
      </trkpt>
      <trkpt lat="45.62236" lon="6.77715">
        <ele>809.7</ele>
        <time>2020-08-07T11:16:40Z</time>
      </trkpt>
      <trkpt lat="45.62228" lon="6.77723">
        <ele>809.7</ele>
        <time>2020-08-07T11:16:43Z</time>
      </trkpt>
      <trkpt lat="45.62225" lon="6.77727">
        <ele>809.7</ele>
        <time>2020-08-07T11:16:46Z</time>
      </trkpt>
      <trkpt lat="45.62222" lon="6.77731">
        <ele>809.7</ele>
        <time>2020-08-07T11:16:47Z</time>
      </trkpt>
      <trkpt lat="45.62219" lon="6.77736">
        <ele>809.8</ele>
        <time>2020-08-07T11:16:49Z</time>
      </trkpt>
      <trkpt lat="45.62218" lon="6.77737">
        <ele>809.8</ele>
        <time>2020-08-07T11:16:50Z</time>
      </trkpt>
      <trkpt lat="45.62216" lon="6.77742">
        <ele>809.8</ele>
        <time>2020-08-07T11:16:52Z</time>
      </trkpt>
      <trkpt lat="45.62212" lon="6.77746">
        <ele>809.8</ele>
        <time>2020-08-07T11:16:54Z</time>
      </trkpt>
      <trkpt lat="45.62211" lon="6.77747">
        <ele>809.8</ele>
        <time>2020-08-07T11:16:55Z</time>
      </trkpt>
      <trkpt lat="45.6221" lon="6.77748">
        <ele>809.8</ele>
        <time>2020-08-07T11:16:56Z</time>
      </trkpt>
      <trkpt lat="45.62205" lon="6.77752">
        <ele>809.8</ele>
        <time>2020-08-07T11:16:58Z</time>
      </trkpt>
      <trkpt lat="45.62199" lon="6.77766">
        <ele>809.9</ele>
        <time>2020-08-07T11:17:00Z</time>
      </trkpt>
      <trkpt lat="45.62197" lon="6.7777">
        <ele>809.9</ele>
        <time>2020-08-07T11:17:02Z</time>
      </trkpt>
      <trkpt lat="45.62195" lon="6.77774">
        <ele>809.9</ele>
        <time>2020-08-07T11:17:03Z</time>
      </trkpt>
      <trkpt lat="45.62191" lon="6.7778">
        <ele>809.9</ele>
        <time>2020-08-07T11:17:05Z</time>
      </trkpt>
      <trkpt lat="45.62188" lon="6.77782">
        <ele>809.9</ele>
        <time>2020-08-07T11:17:06Z</time>
      </trkpt>
      <trkpt lat="45.62187" lon="6.77784">
        <ele>810</ele>
        <time>2020-08-07T11:17:08Z</time>
      </trkpt>
      <trkpt lat="45.62184" lon="6.7779">
        <ele>810</ele>
        <time>2020-08-07T11:17:11Z</time>
      </trkpt>
      <trkpt lat="45.62186" lon="6.77798">
        <ele>810</ele>
        <time>2020-08-07T11:17:14Z</time>
      </trkpt>
      <trkpt lat="45.62189" lon="6.77799">
        <ele>810.1</ele>
        <time>2020-08-07T11:17:15Z</time>
      </trkpt>
      <trkpt lat="45.62195" lon="6.77794">
        <ele>810.1</ele>
        <time>2020-08-07T11:17:18Z</time>
      </trkpt>
      <trkpt lat="45.62196" lon="6.7779">
        <ele>810.1</ele>
        <time>2020-08-07T11:17:19Z</time>
      </trkpt>
      <trkpt lat="45.62197" lon="6.77785">
        <ele>810.1</ele>
        <time>2020-08-07T11:17:20Z</time>
      </trkpt>
      <trkpt lat="45.62199" lon="6.77779">
        <ele>810</ele>
        <time>2020-08-07T11:17:22Z</time>
      </trkpt>
      <trkpt lat="45.62201" lon="6.77774">
        <ele>810</ele>
        <time>2020-08-07T11:17:23Z</time>
      </trkpt>
      <trkpt lat="45.62207" lon="6.77765">
        <ele>810</ele>
        <time>2020-08-07T11:17:25Z</time>
      </trkpt>
      <trkpt lat="45.62212" lon="6.77756">
        <ele>809.9</ele>
        <time>2020-08-07T11:17:27Z</time>
      </trkpt>
      <trkpt lat="45.62214" lon="6.77752">
        <ele>809.9</ele>
        <time>2020-08-07T11:17:28Z</time>
      </trkpt>
      <trkpt lat="45.62219" lon="6.77744">
        <ele>809.9</ele>
        <time>2020-08-07T11:17:31Z</time>
      </trkpt>
      <trkpt lat="45.62219" lon="6.7774">
        <ele>809.9</ele>
        <time>2020-08-07T11:17:33Z</time>
      </trkpt>
      <trkpt lat="45.62221" lon="6.77737">
        <ele>809.9</ele>
        <time>2020-08-07T11:17:35Z</time>
      </trkpt>
      <trkpt lat="45.62221" lon="6.77734">
        <ele>809.9</ele>
        <time>2020-08-07T11:17:37Z</time>
      </trkpt>
      <trkpt lat="45.62222" lon="6.77733">
        <ele>809.9</ele>
        <time>2020-08-07T11:17:38Z</time>
      </trkpt>
      <trkpt lat="45.62223" lon="6.77733">
        <ele>809.9</ele>
        <time>2020-08-07T11:17:40Z</time>
      </trkpt>
      <trkpt lat="45.62224" lon="6.77732">
        <ele>809.9</ele>
        <time>2020-08-07T11:17:42Z</time>
      </trkpt>
      <trkpt lat="45.62225" lon="6.77731">
        <ele>809.9</ele>
        <time>2020-08-07T11:17:44Z</time>
      </trkpt>
      <trkpt lat="45.62226" lon="6.7773">
        <ele>809.8</ele>
        <time>2020-08-07T11:17:45Z</time>
      </trkpt>
      <trkpt lat="45.62227" lon="6.77729">
        <ele>809.8</ele>
        <time>2020-08-07T11:18:23Z</time>
      </trkpt>
      <trkpt lat="45.62228" lon="6.77729">
        <ele>809.8</ele>
        <time>2020-08-07T11:18:24Z</time>
      </trkpt>
      <trkpt lat="45.62229" lon="6.77728">
        <ele>809.8</ele>
        <time>2020-08-07T11:18:25Z</time>
      </trkpt>
      <trkpt lat="45.62232" lon="6.77725">
        <ele>809.8</ele>
        <time>2020-08-07T11:18:27Z</time>
      </trkpt>
      <trkpt lat="45.62237" lon="6.77721">
        <ele>809.8</ele>
        <time>2020-08-07T11:18:29Z</time>
      </trkpt>
      <trkpt lat="45.62241" lon="6.77717">
        <ele>809.8</ele>
        <time>2020-08-07T11:18:30Z</time>
      </trkpt>
      <trkpt lat="45.62243" lon="6.77714">
        <ele>809.8</ele>
        <time>2020-08-07T11:18:32Z</time>
      </trkpt>
      <trkpt lat="45.62248" lon="6.77712">
        <ele>809.8</ele>
        <time>2020-08-07T11:18:33Z</time>
      </trkpt>
      <trkpt lat="45.62251" lon="6.77713">
        <ele>809.7</ele>
        <time>2020-08-07T11:18:34Z</time>
      </trkpt>
      <trkpt lat="45.62254" lon="6.77715">
        <ele>809.7</ele>
        <time>2020-08-07T11:18:35Z</time>
      </trkpt>
      <trkpt lat="45.62258" lon="6.77726">
        <ele>809.7</ele>
        <time>2020-08-07T11:18:37Z</time>
      </trkpt>
      <trkpt lat="45.62259" lon="6.7773">
        <ele>809.7</ele>
        <time>2020-08-07T11:18:38Z</time>
      </trkpt>
      <trkpt lat="45.6226" lon="6.77734">
        <ele>809.7</ele>
        <time>2020-08-07T11:18:39Z</time>
      </trkpt>
      <trkpt lat="45.62263" lon="6.77738">
        <ele>809.7</ele>
        <time>2020-08-07T11:18:41Z</time>
      </trkpt>
      <trkpt lat="45.62264" lon="6.77739">
        <ele>809.7</ele>
        <time>2020-08-07T11:18:42Z</time>
      </trkpt>
      <trkpt lat="45.62265" lon="6.77741">
        <ele>809.7</ele>
        <time>2020-08-07T11:18:44Z</time>
      </trkpt>
      <trkpt lat="45.62265" lon="6.77744">
        <ele>809.7</ele>
        <time>2020-08-07T11:18:45Z</time>
      </trkpt>
      <trkpt lat="45.62266" lon="6.77746">
        <ele>809.7</ele>
        <time>2020-08-07T11:18:46Z</time>
      </trkpt>
      <trkpt lat="45.62267" lon="6.77747">
        <ele>809.6</ele>
        <time>2020-08-07T11:18:47Z</time>
      </trkpt>
      <trkpt lat="45.62269" lon="6.77747">
        <ele>809.6</ele>
        <time>2020-08-07T11:18:49Z</time>
      </trkpt>
      <trkpt lat="45.62269" lon="6.77745">
        <ele>809.6</ele>
        <time>2020-08-07T11:18:50Z</time>
      </trkpt>
      <trkpt lat="45.62268" lon="6.77743">
        <ele>809.6</ele>
        <time>2020-08-07T11:18:51Z</time>
      </trkpt>
      <trkpt lat="45.62266" lon="6.7774">
        <ele>809.6</ele>
        <time>2020-08-07T11:18:53Z</time>
      </trkpt>
      <trkpt lat="45.62266" lon="6.77739">
        <ele>809.6</ele>
        <time>2020-08-07T11:18:54Z</time>
      </trkpt>
      <trkpt lat="45.62265" lon="6.77739">
        <ele>809.6</ele>
        <time>2020-08-07T11:18:56Z</time>
      </trkpt>
      <trkpt lat="45.62265" lon="6.77739">
        <ele>809.6</ele>
        <time>2020-08-07T11:18:58Z</time>
      </trkpt>
      <trkpt lat="45.62264" lon="6.77738">
        <ele>809.6</ele>
        <time>2020-08-07T11:18:59Z</time>
      </trkpt>
      <trkpt lat="45.62264" lon="6.77738">
        <ele>809.6</ele>
        <time>2020-08-07T11:19:00Z</time>
      </trkpt>
      <trkpt lat="45.62264" lon="6.77737">
        <ele>809.6</ele>
        <time>2020-08-07T11:19:01Z</time>
      </trkpt>
      <trkpt lat="45.62263" lon="6.77737">
        <ele>809.6</ele>
        <time>2020-08-07T11:19:03Z</time>
      </trkpt>
      <trkpt lat="45.62263" lon="6.77736">
        <ele>809.6</ele>
        <time>2020-08-07T11:19:05Z</time>
      </trkpt>
      <trkpt lat="45.62263" lon="6.77736">
        <ele>809.6</ele>
        <time>2020-08-07T11:19:07Z</time>
      </trkpt>
      <trkpt lat="45.62262" lon="6.77735">
        <ele>809.6</ele>
        <time>2020-08-07T11:20:13Z</time>
      </trkpt>
      <trkpt lat="45.62262" lon="6.77735">
        <ele>809.6</ele>
        <time>2020-08-07T11:20:14Z</time>
      </trkpt>
      <trkpt lat="45.6226" lon="6.77732">
        <ele>809.6</ele>
        <time>2020-08-07T11:20:16Z</time>
      </trkpt>
      <trkpt lat="45.6226" lon="6.77731">
        <ele>809.6</ele>
        <time>2020-08-07T11:20:18Z</time>
      </trkpt>
      <trkpt lat="45.6226" lon="6.77731">
        <ele>809.6</ele>
        <time>2020-08-07T11:20:19Z</time>
      </trkpt>
      <trkpt lat="45.6226" lon="6.77731">
        <ele>809.6</ele>
        <time>2020-08-07T11:20:21Z</time>
      </trkpt>
      <trkpt lat="45.6226" lon="6.7773">
        <ele>809.6</ele>
        <time>2020-08-07T11:20:24Z</time>
      </trkpt>
      <trkpt lat="45.6226" lon="6.7773">
        <ele>809.6</ele>
        <time>2020-08-07T11:20:25Z</time>
      </trkpt>
      <trkpt lat="45.6226" lon="6.77729">
        <ele>809.6</ele>
        <time>2020-08-07T11:20:27Z</time>
      </trkpt>
      <trkpt lat="45.6226" lon="6.77729">
        <ele>809.6</ele>
        <time>2020-08-07T11:20:29Z</time>
      </trkpt>
      <trkpt lat="45.6226" lon="6.77729">
        <ele>809.6</ele>
        <time>2020-08-07T11:22:48Z</time>
      </trkpt>
      <trkpt lat="45.6226" lon="6.77728">
        <ele>809.6</ele>
        <time>2020-08-07T11:22:49Z</time>
      </trkpt>
      <trkpt lat="45.62255" lon="6.77719">
        <ele>809.6</ele>
        <time>2020-08-07T11:22:51Z</time>
      </trkpt>
      <trkpt lat="45.62255" lon="6.7771">
        <ele>809.6</ele>
        <time>2020-08-07T11:22:52Z</time>
      </trkpt>
      <trkpt lat="45.62258" lon="6.7771">
        <ele>809.6</ele>
        <time>2020-08-07T11:22:54Z</time>
      </trkpt>
      <trkpt lat="45.6226" lon="6.77709">
        <ele>809.6</ele>
        <time>2020-08-07T11:22:56Z</time>
      </trkpt>
      <trkpt lat="45.62265" lon="6.77701">
        <ele>809.6</ele>
        <time>2020-08-07T11:22:58Z</time>
      </trkpt>
      <trkpt lat="45.62269" lon="6.77698">
        <ele>809.7</ele>
        <time>2020-08-07T11:22:59Z</time>
      </trkpt>
      <trkpt lat="45.62274" lon="6.777">
        <ele>809.7</ele>
        <time>2020-08-07T11:23:01Z</time>
      </trkpt>
      <trkpt lat="45.62275" lon="6.777">
        <ele>809.7</ele>
        <time>2020-08-07T11:23:02Z</time>
      </trkpt>
      <trkpt lat="45.62276" lon="6.77701">
        <ele>809.7</ele>
        <time>2020-08-07T11:23:03Z</time>
      </trkpt>
      <trkpt lat="45.6228" lon="6.77706">
        <ele>809.8</ele>
        <time>2020-08-07T11:23:05Z</time>
      </trkpt>
      <trkpt lat="45.62281" lon="6.77711">
        <ele>809.8</ele>
        <time>2020-08-07T11:23:06Z</time>
      </trkpt>
      <trkpt lat="45.62283" lon="6.77715">
        <ele>809.9</ele>
        <time>2020-08-07T11:23:07Z</time>
      </trkpt>
      <trkpt lat="45.62285" lon="6.77719">
        <ele>809.9</ele>
        <time>2020-08-07T11:23:08Z</time>
      </trkpt>
      <trkpt lat="45.62289" lon="6.77728">
        <ele>810</ele>
        <time>2020-08-07T11:23:09Z</time>
      </trkpt>
      <trkpt lat="45.62293" lon="6.77735">
        <ele>810</ele>
        <time>2020-08-07T11:23:11Z</time>
      </trkpt>
      <trkpt lat="45.623" lon="6.77752">
        <ele>810.1</ele>
        <time>2020-08-07T11:23:13Z</time>
      </trkpt>
      <trkpt lat="45.62304" lon="6.77762">
        <ele>810.2</ele>
        <time>2020-08-07T11:23:16Z</time>
      </trkpt>
      <trkpt lat="45.62306" lon="6.77767">
        <ele>810.3</ele>
        <time>2020-08-07T11:23:17Z</time>
      </trkpt>
      <trkpt lat="45.62311" lon="6.7778">
        <ele>810.4</ele>
        <time>2020-08-07T11:23:19Z</time>
      </trkpt>
      <trkpt lat="45.62316" lon="6.77792">
        <ele>810.5</ele>
        <time>2020-08-07T11:23:21Z</time>
      </trkpt>
      <trkpt lat="45.62319" lon="6.77798">
        <ele>810.6</ele>
        <time>2020-08-07T11:23:22Z</time>
      </trkpt>
      <trkpt lat="45.62325" lon="6.7781">
        <ele>810.8</ele>
        <time>2020-08-07T11:23:24Z</time>
      </trkpt>
      <trkpt lat="45.62327" lon="6.77816">
        <ele>810.8</ele>
        <time>2020-08-07T11:23:25Z</time>
      </trkpt>
      <trkpt lat="45.6233" lon="6.77822">
        <ele>810.9</ele>
        <time>2020-08-07T11:23:26Z</time>
      </trkpt>
      <trkpt lat="45.6233" lon="6.77833">
        <ele>811.1</ele>
        <time>2020-08-07T11:23:28Z</time>
      </trkpt>
      <trkpt lat="45.62331" lon="6.77842">
        <ele>811.2</ele>
        <time>2020-08-07T11:23:29Z</time>
      </trkpt>
      <trkpt lat="45.62336" lon="6.77856">
        <ele>811.5</ele>
        <time>2020-08-07T11:23:31Z</time>
      </trkpt>
      <trkpt lat="45.6234" lon="6.77859">
        <ele>811.7</ele>
        <time>2020-08-07T11:23:32Z</time>
      </trkpt>
      <trkpt lat="45.62346" lon="6.7786">
        <ele>811.8</ele>
        <time>2020-08-07T11:23:33Z</time>
      </trkpt>
      <trkpt lat="45.62358" lon="6.77858">
        <ele>812.1</ele>
        <time>2020-08-07T11:23:35Z</time>
      </trkpt>
      <trkpt lat="45.62364" lon="6.77858">
        <ele>812.3</ele>
        <time>2020-08-07T11:23:36Z</time>
      </trkpt>
      <trkpt lat="45.62375" lon="6.77864">
        <ele>812.7</ele>
        <time>2020-08-07T11:23:38Z</time>
      </trkpt>
      <trkpt lat="45.6238" lon="6.77868">
        <ele>813</ele>
        <time>2020-08-07T11:23:39Z</time>
      </trkpt>
      <trkpt lat="45.62385" lon="6.77873">
        <ele>813.3</ele>
        <time>2020-08-07T11:23:40Z</time>
      </trkpt>
      <trkpt lat="45.62393" lon="6.77883">
        <ele>813.8</ele>
        <time>2020-08-07T11:23:42Z</time>
      </trkpt>
      <trkpt lat="45.624" lon="6.77893">
        <ele>814.2</ele>
        <time>2020-08-07T11:23:44Z</time>
      </trkpt>
      <trkpt lat="45.62404" lon="6.77898">
        <ele>814.5</ele>
        <time>2020-08-07T11:23:45Z</time>
      </trkpt>
      <trkpt lat="45.62412" lon="6.77908">
        <ele>814.9</ele>
        <time>2020-08-07T11:23:47Z</time>
      </trkpt>
      <trkpt lat="45.62416" lon="6.77913">
        <ele>815.2</ele>
        <time>2020-08-07T11:23:48Z</time>
      </trkpt>
      <trkpt lat="45.6242" lon="6.77917">
        <ele>815.4</ele>
        <time>2020-08-07T11:23:49Z</time>
      </trkpt>
      <trkpt lat="45.62423" lon="6.77922">
        <ele>815.7</ele>
        <time>2020-08-07T11:23:50Z</time>
      </trkpt>
      <trkpt lat="45.62431" lon="6.77932">
        <ele>816.3</ele>
        <time>2020-08-07T11:23:52Z</time>
      </trkpt>
      <trkpt lat="45.62435" lon="6.77938">
        <ele>816.6</ele>
        <time>2020-08-07T11:23:53Z</time>
      </trkpt>
      <trkpt lat="45.62439" lon="6.77943">
        <ele>816.9</ele>
        <time>2020-08-07T11:23:54Z</time>
      </trkpt>
      <trkpt lat="45.62447" lon="6.77952">
        <ele>817.5</ele>
        <time>2020-08-07T11:23:56Z</time>
      </trkpt>
      <trkpt lat="45.62455" lon="6.7796">
        <ele>818</ele>
        <time>2020-08-07T11:23:58Z</time>
      </trkpt>
      <trkpt lat="45.62463" lon="6.77968">
        <ele>818.6</ele>
        <time>2020-08-07T11:24:00Z</time>
      </trkpt>
      <trkpt lat="45.62466" lon="6.77972">
        <ele>818.9</ele>
        <time>2020-08-07T11:24:01Z</time>
      </trkpt>
      <trkpt lat="45.6247" lon="6.77976">
        <ele>819.1</ele>
        <time>2020-08-07T11:24:02Z</time>
      </trkpt>
      <trkpt lat="45.62473" lon="6.77981">
        <ele>819.4</ele>
        <time>2020-08-07T11:24:03Z</time>
      </trkpt>
      <trkpt lat="45.6248" lon="6.77991">
        <ele>819.8</ele>
        <time>2020-08-07T11:24:05Z</time>
      </trkpt>
      <trkpt lat="45.62487" lon="6.78">
        <ele>820.1</ele>
        <time>2020-08-07T11:24:07Z</time>
      </trkpt>
      <trkpt lat="45.62494" lon="6.78009">
        <ele>820.5</ele>
        <time>2020-08-07T11:24:09Z</time>
      </trkpt>
      <trkpt lat="45.62497" lon="6.78013">
        <ele>820.6</ele>
        <time>2020-08-07T11:24:10Z</time>
      </trkpt>
      <trkpt lat="45.62503" lon="6.78023">
        <ele>820.9</ele>
        <time>2020-08-07T11:24:12Z</time>
      </trkpt>
      <trkpt lat="45.62509" lon="6.78034">
        <ele>821.1</ele>
        <time>2020-08-07T11:24:14Z</time>
      </trkpt>
      <trkpt lat="45.62511" lon="6.78039">
        <ele>821.3</ele>
        <time>2020-08-07T11:24:15Z</time>
      </trkpt>
      <trkpt lat="45.62515" lon="6.78045">
        <ele>821.5</ele>
        <time>2020-08-07T11:24:16Z</time>
      </trkpt>
      <trkpt lat="45.6252" lon="6.78057">
        <ele>821.8</ele>
        <time>2020-08-07T11:24:18Z</time>
      </trkpt>
      <trkpt lat="45.62522" lon="6.78062">
        <ele>822</ele>
        <time>2020-08-07T11:24:19Z</time>
      </trkpt>
      <trkpt lat="45.62525" lon="6.78068">
        <ele>822.1</ele>
        <time>2020-08-07T11:24:20Z</time>
      </trkpt>
      <trkpt lat="45.62529" lon="6.78078">
        <ele>822.4</ele>
        <time>2020-08-07T11:24:22Z</time>
      </trkpt>
      <trkpt lat="45.62531" lon="6.78083">
        <ele>822.6</ele>
        <time>2020-08-07T11:24:23Z</time>
      </trkpt>
      <trkpt lat="45.62535" lon="6.78093">
        <ele>822.9</ele>
        <time>2020-08-07T11:24:25Z</time>
      </trkpt>
      <trkpt lat="45.62538" lon="6.78102">
        <ele>823.2</ele>
        <time>2020-08-07T11:24:27Z</time>
      </trkpt>
      <trkpt lat="45.62541" lon="6.78108">
        <ele>823.3</ele>
        <time>2020-08-07T11:24:28Z</time>
      </trkpt>
      <trkpt lat="45.62544" lon="6.78118">
        <ele>823.7</ele>
        <time>2020-08-07T11:24:30Z</time>
      </trkpt>
      <trkpt lat="45.62546" lon="6.78124">
        <ele>823.9</ele>
        <time>2020-08-07T11:24:31Z</time>
      </trkpt>
      <trkpt lat="45.6255" lon="6.78134">
        <ele>824.2</ele>
        <time>2020-08-07T11:24:32Z</time>
      </trkpt>
      <trkpt lat="45.62551" lon="6.78139">
        <ele>824.3</ele>
        <time>2020-08-07T11:24:33Z</time>
      </trkpt>
      <trkpt lat="45.62553" lon="6.78145">
        <ele>824.5</ele>
        <time>2020-08-07T11:24:35Z</time>
      </trkpt>
      <trkpt lat="45.62557" lon="6.78163">
        <ele>825</ele>
        <time>2020-08-07T11:24:37Z</time>
      </trkpt>
      <trkpt lat="45.62559" lon="6.78169">
        <ele>825.1</ele>
        <time>2020-08-07T11:24:39Z</time>
      </trkpt>
      <trkpt lat="45.62562" lon="6.78185">
        <ele>825.5</ele>
        <time>2020-08-07T11:24:41Z</time>
      </trkpt>
      <trkpt lat="45.62564" lon="6.78194">
        <ele>825.7</ele>
        <time>2020-08-07T11:24:43Z</time>
      </trkpt>
      <trkpt lat="45.62565" lon="6.78203">
        <ele>825.9</ele>
        <time>2020-08-07T11:24:44Z</time>
      </trkpt>
      <trkpt lat="45.62565" lon="6.7821">
        <ele>826.2</ele>
        <time>2020-08-07T11:24:45Z</time>
      </trkpt>
      <trkpt lat="45.62566" lon="6.78227">
        <ele>826.6</ele>
        <time>2020-08-07T11:24:48Z</time>
      </trkpt>
      <trkpt lat="45.62566" lon="6.78234">
        <ele>826.8</ele>
        <time>2020-08-07T11:24:49Z</time>
      </trkpt>
      <trkpt lat="45.62566" lon="6.78241">
        <ele>827</ele>
        <time>2020-08-07T11:24:51Z</time>
      </trkpt>
      <trkpt lat="45.62566" lon="6.78251">
        <ele>827.3</ele>
        <time>2020-08-07T11:24:52Z</time>
      </trkpt>
      <trkpt lat="45.62566" lon="6.78259">
        <ele>827.6</ele>
        <time>2020-08-07T11:24:55Z</time>
      </trkpt>
      <trkpt lat="45.62565" lon="6.78267">
        <ele>827.9</ele>
        <time>2020-08-07T11:24:56Z</time>
      </trkpt>
      <trkpt lat="45.62565" lon="6.78274">
        <ele>828.2</ele>
        <time>2020-08-07T11:24:58Z</time>
      </trkpt>
      <trkpt lat="45.62563" lon="6.78284">
        <ele>828.6</ele>
        <time>2020-08-07T11:24:59Z</time>
      </trkpt>
      <trkpt lat="45.62563" lon="6.7829">
        <ele>828.9</ele>
        <time>2020-08-07T11:25:01Z</time>
      </trkpt>
      <trkpt lat="45.62563" lon="6.78299">
        <ele>829.3</ele>
        <time>2020-08-07T11:25:02Z</time>
      </trkpt>
      <trkpt lat="45.62563" lon="6.78306">
        <ele>829.4</ele>
        <time>2020-08-07T11:25:04Z</time>
      </trkpt>
      <trkpt lat="45.62564" lon="6.78315">
        <ele>829.7</ele>
        <time>2020-08-07T11:25:05Z</time>
      </trkpt>
      <trkpt lat="45.62565" lon="6.78321">
        <ele>829.9</ele>
        <time>2020-08-07T11:25:07Z</time>
      </trkpt>
      <trkpt lat="45.62566" lon="6.7833">
        <ele>830.1</ele>
        <time>2020-08-07T11:25:08Z</time>
      </trkpt>
      <trkpt lat="45.62566" lon="6.78337">
        <ele>830.3</ele>
        <time>2020-08-07T11:25:10Z</time>
      </trkpt>
      <trkpt lat="45.62569" lon="6.7835">
        <ele>830.6</ele>
        <time>2020-08-07T11:25:11Z</time>
      </trkpt>
      <trkpt lat="45.62571" lon="6.78358">
        <ele>830.8</ele>
        <time>2020-08-07T11:25:14Z</time>
      </trkpt>
      <trkpt lat="45.62574" lon="6.7837">
        <ele>831.2</ele>
        <time>2020-08-07T11:25:15Z</time>
      </trkpt>
      <trkpt lat="45.62579" lon="6.78385">
        <ele>831.6</ele>
        <time>2020-08-07T11:25:18Z</time>
      </trkpt>
      <trkpt lat="45.6258" lon="6.78392">
        <ele>831.7</ele>
        <time>2020-08-07T11:25:21Z</time>
      </trkpt>
      <trkpt lat="45.62583" lon="6.78402">
        <ele>832</ele>
        <time>2020-08-07T11:25:23Z</time>
      </trkpt>
      <trkpt lat="45.62587" lon="6.78412">
        <ele>832.2</ele>
        <time>2020-08-07T11:25:25Z</time>
      </trkpt>
      <trkpt lat="45.62591" lon="6.78424">
        <ele>832.4</ele>
        <time>2020-08-07T11:25:26Z</time>
      </trkpt>
      <trkpt lat="45.62596" lon="6.7844">
        <ele>832.8</ele>
        <time>2020-08-07T11:25:29Z</time>
      </trkpt>
      <trkpt lat="45.62597" lon="6.78445">
        <ele>832.9</ele>
        <time>2020-08-07T11:25:31Z</time>
      </trkpt>
      <trkpt lat="45.62599" lon="6.78453">
        <ele>833.1</ele>
        <time>2020-08-07T11:25:32Z</time>
      </trkpt>
      <trkpt lat="45.62602" lon="6.7846">
        <ele>833.2</ele>
        <time>2020-08-07T11:25:33Z</time>
      </trkpt>
      <trkpt lat="45.62606" lon="6.78471">
        <ele>833.5</ele>
        <time>2020-08-07T11:25:36Z</time>
      </trkpt>
      <trkpt lat="45.62607" lon="6.78475">
        <ele>833.7</ele>
        <time>2020-08-07T11:25:38Z</time>
      </trkpt>
      <trkpt lat="45.62609" lon="6.78485">
        <ele>833.9</ele>
        <time>2020-08-07T11:25:40Z</time>
      </trkpt>
      <trkpt lat="45.6261" lon="6.7849">
        <ele>834</ele>
        <time>2020-08-07T11:25:41Z</time>
      </trkpt>
      <trkpt lat="45.62612" lon="6.78495">
        <ele>834.2</ele>
        <time>2020-08-07T11:25:42Z</time>
      </trkpt>
      <trkpt lat="45.62614" lon="6.78503">
        <ele>834.5</ele>
        <time>2020-08-07T11:25:44Z</time>
      </trkpt>
      <trkpt lat="45.62617" lon="6.78513">
        <ele>834.7</ele>
        <time>2020-08-07T11:25:46Z</time>
      </trkpt>
      <trkpt lat="45.6262" lon="6.78523">
        <ele>835</ele>
        <time>2020-08-07T11:25:48Z</time>
      </trkpt>
      <trkpt lat="45.62622" lon="6.78533">
        <ele>835.3</ele>
        <time>2020-08-07T11:25:50Z</time>
      </trkpt>
      <trkpt lat="45.62627" lon="6.78543">
        <ele>835.5</ele>
        <time>2020-08-07T11:25:52Z</time>
      </trkpt>
      <trkpt lat="45.6263" lon="6.78547">
        <ele>835.7</ele>
        <time>2020-08-07T11:25:53Z</time>
      </trkpt>
      <trkpt lat="45.62635" lon="6.78554">
        <ele>835.9</ele>
        <time>2020-08-07T11:25:55Z</time>
      </trkpt>
      <trkpt lat="45.62638" lon="6.78557">
        <ele>836.1</ele>
        <time>2020-08-07T11:25:56Z</time>
      </trkpt>
      <trkpt lat="45.62644" lon="6.78565">
        <ele>836.4</ele>
        <time>2020-08-07T11:25:58Z</time>
      </trkpt>
      <trkpt lat="45.62649" lon="6.78572">
        <ele>836.7</ele>
        <time>2020-08-07T11:25:59Z</time>
      </trkpt>
      <trkpt lat="45.62653" lon="6.78575">
        <ele>836.8</ele>
        <time>2020-08-07T11:26:01Z</time>
      </trkpt>
      <trkpt lat="45.62655" lon="6.78577">
        <ele>837</ele>
        <time>2020-08-07T11:26:02Z</time>
      </trkpt>
      <trkpt lat="45.6266" lon="6.78582">
        <ele>837.2</ele>
        <time>2020-08-07T11:26:04Z</time>
      </trkpt>
      <trkpt lat="45.62664" lon="6.78587">
        <ele>837.5</ele>
        <time>2020-08-07T11:26:05Z</time>
      </trkpt>
      <trkpt lat="45.62667" lon="6.7859">
        <ele>837.6</ele>
        <time>2020-08-07T11:26:06Z</time>
      </trkpt>
      <trkpt lat="45.62673" lon="6.78596">
        <ele>837.9</ele>
        <time>2020-08-07T11:26:08Z</time>
      </trkpt>
      <trkpt lat="45.62679" lon="6.78603">
        <ele>838.2</ele>
        <time>2020-08-07T11:26:10Z</time>
      </trkpt>
      <trkpt lat="45.62682" lon="6.78606">
        <ele>838.4</ele>
        <time>2020-08-07T11:26:11Z</time>
      </trkpt>
      <trkpt lat="45.62685" lon="6.7861">
        <ele>838.5</ele>
        <time>2020-08-07T11:26:12Z</time>
      </trkpt>
      <trkpt lat="45.62689" lon="6.78616">
        <ele>838.7</ele>
        <time>2020-08-07T11:26:14Z</time>
      </trkpt>
      <trkpt lat="45.62693" lon="6.78623">
        <ele>839</ele>
        <time>2020-08-07T11:26:16Z</time>
      </trkpt>
      <trkpt lat="45.627" lon="6.78639">
        <ele>839.4</ele>
        <time>2020-08-07T11:26:18Z</time>
      </trkpt>
      <trkpt lat="45.62702" lon="6.78646">
        <ele>839.5</ele>
        <time>2020-08-07T11:26:21Z</time>
      </trkpt>
      <trkpt lat="45.62704" lon="6.78656">
        <ele>839.7</ele>
        <time>2020-08-07T11:26:23Z</time>
      </trkpt>
      <trkpt lat="45.62705" lon="6.78661">
        <ele>839.8</ele>
        <time>2020-08-07T11:26:24Z</time>
      </trkpt>
      <trkpt lat="45.62708" lon="6.78677">
        <ele>839.9</ele>
        <time>2020-08-07T11:26:26Z</time>
      </trkpt>
      <trkpt lat="45.62709" lon="6.78684">
        <ele>840</ele>
        <time>2020-08-07T11:26:27Z</time>
      </trkpt>
      <trkpt lat="45.6271" lon="6.78693">
        <ele>840.1</ele>
        <time>2020-08-07T11:26:30Z</time>
      </trkpt>
      <trkpt lat="45.6271" lon="6.78705">
        <ele>840.2</ele>
        <time>2020-08-07T11:26:31Z</time>
      </trkpt>
      <trkpt lat="45.6271" lon="6.78712">
        <ele>840.3</ele>
        <time>2020-08-07T11:26:32Z</time>
      </trkpt>
      <trkpt lat="45.62709" lon="6.78719">
        <ele>840.4</ele>
        <time>2020-08-07T11:26:34Z</time>
      </trkpt>
      <trkpt lat="45.62709" lon="6.78726">
        <ele>840.6</ele>
        <time>2020-08-07T11:26:36Z</time>
      </trkpt>
      <trkpt lat="45.62708" lon="6.78735">
        <ele>840.9</ele>
        <time>2020-08-07T11:26:37Z</time>
      </trkpt>
      <trkpt lat="45.62707" lon="6.78741">
        <ele>841.2</ele>
        <time>2020-08-07T11:26:39Z</time>
      </trkpt>
      <trkpt lat="45.62706" lon="6.78749">
        <ele>841.5</ele>
        <time>2020-08-07T11:26:40Z</time>
      </trkpt>
      <trkpt lat="45.62706" lon="6.78755">
        <ele>841.8</ele>
        <time>2020-08-07T11:26:42Z</time>
      </trkpt>
      <trkpt lat="45.62705" lon="6.7876">
        <ele>842</ele>
        <time>2020-08-07T11:26:43Z</time>
      </trkpt>
      <trkpt lat="45.62705" lon="6.78765">
        <ele>842.2</ele>
        <time>2020-08-07T11:26:44Z</time>
      </trkpt>
      <trkpt lat="45.62704" lon="6.78774">
        <ele>842.6</ele>
        <time>2020-08-07T11:26:46Z</time>
      </trkpt>
      <trkpt lat="45.62703" lon="6.78778">
        <ele>842.8</ele>
        <time>2020-08-07T11:26:47Z</time>
      </trkpt>
      <trkpt lat="45.62702" lon="6.78788">
        <ele>843.2</ele>
        <time>2020-08-07T11:26:49Z</time>
      </trkpt>
      <trkpt lat="45.62702" lon="6.78793">
        <ele>843.4</ele>
        <time>2020-08-07T11:26:50Z</time>
      </trkpt>
      <trkpt lat="45.62701" lon="6.78801">
        <ele>843.8</ele>
        <time>2020-08-07T11:26:52Z</time>
      </trkpt>
      <trkpt lat="45.627" lon="6.78813">
        <ele>844.3</ele>
        <time>2020-08-07T11:26:53Z</time>
      </trkpt>
      <trkpt lat="45.627" lon="6.78819">
        <ele>844.6</ele>
        <time>2020-08-07T11:26:55Z</time>
      </trkpt>
      <trkpt lat="45.62698" lon="6.78832">
        <ele>845.2</ele>
        <time>2020-08-07T11:26:57Z</time>
      </trkpt>
      <trkpt lat="45.62698" lon="6.78838">
        <ele>845.5</ele>
        <time>2020-08-07T11:27:00Z</time>
      </trkpt>
      <trkpt lat="45.62698" lon="6.78843">
        <ele>845.7</ele>
        <time>2020-08-07T11:27:01Z</time>
      </trkpt>
      <trkpt lat="45.62697" lon="6.78852">
        <ele>846.1</ele>
        <time>2020-08-07T11:27:03Z</time>
      </trkpt>
      <trkpt lat="45.62697" lon="6.78857">
        <ele>846.3</ele>
        <time>2020-08-07T11:27:04Z</time>
      </trkpt>
      <trkpt lat="45.62696" lon="6.78861">
        <ele>846.5</ele>
        <time>2020-08-07T11:27:05Z</time>
      </trkpt>
      <trkpt lat="45.62696" lon="6.7887">
        <ele>846.9</ele>
        <time>2020-08-07T11:27:07Z</time>
      </trkpt>
      <trkpt lat="45.62695" lon="6.78879">
        <ele>847.3</ele>
        <time>2020-08-07T11:27:09Z</time>
      </trkpt>
      <trkpt lat="45.62695" lon="6.78888">
        <ele>847.7</ele>
        <time>2020-08-07T11:27:11Z</time>
      </trkpt>
      <trkpt lat="45.62694" lon="6.78896">
        <ele>848</ele>
        <time>2020-08-07T11:27:12Z</time>
      </trkpt>
      <trkpt lat="45.62693" lon="6.78902">
        <ele>848.3</ele>
        <time>2020-08-07T11:27:14Z</time>
      </trkpt>
      <trkpt lat="45.62693" lon="6.78907">
        <ele>848.5</ele>
        <time>2020-08-07T11:27:15Z</time>
      </trkpt>
      <trkpt lat="45.62691" lon="6.78923">
        <ele>849</ele>
        <time>2020-08-07T11:27:17Z</time>
      </trkpt>
      <trkpt lat="45.62691" lon="6.7893">
        <ele>849.4</ele>
        <time>2020-08-07T11:27:20Z</time>
      </trkpt>
      <trkpt lat="45.6269" lon="6.78941">
        <ele>850</ele>
        <time>2020-08-07T11:27:22Z</time>
      </trkpt>
      <trkpt lat="45.6269" lon="6.78949">
        <ele>850.4</ele>
        <time>2020-08-07T11:27:23Z</time>
      </trkpt>
      <trkpt lat="45.6269" lon="6.78954">
        <ele>850.6</ele>
        <time>2020-08-07T11:27:25Z</time>
      </trkpt>
      <trkpt lat="45.6269" lon="6.78962">
        <ele>851.1</ele>
        <time>2020-08-07T11:27:27Z</time>
      </trkpt>
      <trkpt lat="45.6269" lon="6.78971">
        <ele>851.5</ele>
        <time>2020-08-07T11:27:29Z</time>
      </trkpt>
      <trkpt lat="45.62689" lon="6.78979">
        <ele>851.9</ele>
        <time>2020-08-07T11:27:30Z</time>
      </trkpt>
      <trkpt lat="45.62689" lon="6.78983">
        <ele>852.1</ele>
        <time>2020-08-07T11:27:32Z</time>
      </trkpt>
      <trkpt lat="45.62688" lon="6.7899">
        <ele>852.5</ele>
        <time>2020-08-07T11:27:34Z</time>
      </trkpt>
      <trkpt lat="45.62687" lon="6.78993">
        <ele>852.6</ele>
        <time>2020-08-07T11:27:35Z</time>
      </trkpt>
      <trkpt lat="45.62686" lon="6.78998">
        <ele>852.9</ele>
        <time>2020-08-07T11:27:37Z</time>
      </trkpt>
      <trkpt lat="45.62686" lon="6.79">
        <ele>853</ele>
        <time>2020-08-07T11:27:38Z</time>
      </trkpt>
      <trkpt lat="45.62685" lon="6.79002">
        <ele>853.1</ele>
        <time>2020-08-07T11:27:40Z</time>
      </trkpt>
      <trkpt lat="45.62684" lon="6.79005">
        <ele>853.3</ele>
        <time>2020-08-07T11:27:42Z</time>
      </trkpt>
      <trkpt lat="45.62683" lon="6.79008">
        <ele>853.4</ele>
        <time>2020-08-07T11:27:44Z</time>
      </trkpt>
      <trkpt lat="45.62682" lon="6.79011">
        <ele>853.6</ele>
        <time>2020-08-07T11:27:45Z</time>
      </trkpt>
      <trkpt lat="45.6268" lon="6.7902">
        <ele>854.1</ele>
        <time>2020-08-07T11:27:48Z</time>
      </trkpt>
      <trkpt lat="45.6268" lon="6.79025">
        <ele>854.3</ele>
        <time>2020-08-07T11:27:49Z</time>
      </trkpt>
      <trkpt lat="45.62679" lon="6.79032">
        <ele>854.6</ele>
        <time>2020-08-07T11:27:51Z</time>
      </trkpt>
      <trkpt lat="45.62678" lon="6.79036">
        <ele>854.8</ele>
        <time>2020-08-07T11:27:52Z</time>
      </trkpt>
      <trkpt lat="45.62676" lon="6.79046">
        <ele>855.3</ele>
        <time>2020-08-07T11:27:55Z</time>
      </trkpt>
      <trkpt lat="45.62675" lon="6.79051">
        <ele>855.5</ele>
        <time>2020-08-07T11:27:57Z</time>
      </trkpt>
      <trkpt lat="45.62674" lon="6.79055">
        <ele>855.7</ele>
        <time>2020-08-07T11:27:59Z</time>
      </trkpt>
      <trkpt lat="45.62672" lon="6.7906">
        <ele>856</ele>
        <time>2020-08-07T11:28:00Z</time>
      </trkpt>
      <trkpt lat="45.6267" lon="6.79065">
        <ele>856.2</ele>
        <time>2020-08-07T11:28:01Z</time>
      </trkpt>
      <trkpt lat="45.62669" lon="6.79067">
        <ele>856.3</ele>
        <time>2020-08-07T11:28:02Z</time>
      </trkpt>
      <trkpt lat="45.62667" lon="6.79071">
        <ele>856.6</ele>
        <time>2020-08-07T11:28:04Z</time>
      </trkpt>
      <trkpt lat="45.62666" lon="6.79073">
        <ele>856.6</ele>
        <time>2020-08-07T11:28:05Z</time>
      </trkpt>
      <trkpt lat="45.62664" lon="6.79078">
        <ele>856.9</ele>
        <time>2020-08-07T11:28:06Z</time>
      </trkpt>
      <trkpt lat="45.62663" lon="6.7908">
        <ele>857</ele>
        <time>2020-08-07T11:28:07Z</time>
      </trkpt>
      <trkpt lat="45.6266" lon="6.79091">
        <ele>857.5</ele>
        <time>2020-08-07T11:28:09Z</time>
      </trkpt>
      <trkpt lat="45.62657" lon="6.79114">
        <ele>858.5</ele>
        <time>2020-08-07T11:28:11Z</time>
      </trkpt>
      <trkpt lat="45.62658" lon="6.7914">
        <ele>859.7</ele>
        <time>2020-08-07T11:28:13Z</time>
      </trkpt>
      <trkpt lat="45.62656" lon="6.79146">
        <ele>860</ele>
        <time>2020-08-07T11:28:14Z</time>
      </trkpt>
      <trkpt lat="45.62656" lon="6.79151">
        <ele>860.2</ele>
        <time>2020-08-07T11:28:17Z</time>
      </trkpt>
      <trkpt lat="45.62655" lon="6.79155">
        <ele>860.5</ele>
        <time>2020-08-07T11:28:18Z</time>
      </trkpt>
      <trkpt lat="45.62654" lon="6.79159">
        <ele>860.7</ele>
        <time>2020-08-07T11:28:19Z</time>
      </trkpt>
      <trkpt lat="45.62653" lon="6.79165">
        <ele>860.9</ele>
        <time>2020-08-07T11:28:20Z</time>
      </trkpt>
      <trkpt lat="45.62652" lon="6.79167">
        <ele>861</ele>
        <time>2020-08-07T11:28:21Z</time>
      </trkpt>
      <trkpt lat="45.6265" lon="6.79173">
        <ele>861.3</ele>
        <time>2020-08-07T11:28:24Z</time>
      </trkpt>
      <trkpt lat="45.62649" lon="6.79177">
        <ele>861.5</ele>
        <time>2020-08-07T11:28:25Z</time>
      </trkpt>
      <trkpt lat="45.62648" lon="6.79185">
        <ele>861.9</ele>
        <time>2020-08-07T11:28:27Z</time>
      </trkpt>
      <trkpt lat="45.62644" lon="6.79199">
        <ele>862.6</ele>
        <time>2020-08-07T11:28:29Z</time>
      </trkpt>
      <trkpt lat="45.62642" lon="6.79206">
        <ele>862.9</ele>
        <time>2020-08-07T11:28:32Z</time>
      </trkpt>
      <trkpt lat="45.62641" lon="6.79209">
        <ele>863.1</ele>
        <time>2020-08-07T11:28:33Z</time>
      </trkpt>
      <trkpt lat="45.62639" lon="6.79215">
        <ele>863.3</ele>
        <time>2020-08-07T11:28:34Z</time>
      </trkpt>
      <trkpt lat="45.62638" lon="6.79219">
        <ele>863.5</ele>
        <time>2020-08-07T11:28:35Z</time>
      </trkpt>
      <trkpt lat="45.62636" lon="6.79223">
        <ele>863.7</ele>
        <time>2020-08-07T11:28:36Z</time>
      </trkpt>
      <trkpt lat="45.62635" lon="6.79227">
        <ele>863.9</ele>
        <time>2020-08-07T11:28:37Z</time>
      </trkpt>
      <trkpt lat="45.62633" lon="6.79234">
        <ele>864.2</ele>
        <time>2020-08-07T11:28:39Z</time>
      </trkpt>
      <trkpt lat="45.62632" lon="6.79237">
        <ele>864.3</ele>
        <time>2020-08-07T11:28:41Z</time>
      </trkpt>
      <trkpt lat="45.62632" lon="6.79239">
        <ele>864.4</ele>
        <time>2020-08-07T11:28:42Z</time>
      </trkpt>
      <trkpt lat="45.62631" lon="6.79245">
        <ele>864.7</ele>
        <time>2020-08-07T11:28:43Z</time>
      </trkpt>
      <trkpt lat="45.6263" lon="6.79246">
        <ele>864.7</ele>
        <time>2020-08-07T11:28:44Z</time>
      </trkpt>
      <trkpt lat="45.62623" lon="6.79265">
        <ele>865.6</ele>
        <time>2020-08-07T11:28:46Z</time>
      </trkpt>
      <trkpt lat="45.62619" lon="6.79275">
        <ele>866</ele>
        <time>2020-08-07T11:28:48Z</time>
      </trkpt>
      <trkpt lat="45.62616" lon="6.79293">
        <ele>866.9</ele>
        <time>2020-08-07T11:28:50Z</time>
      </trkpt>
      <trkpt lat="45.62615" lon="6.79302">
        <ele>867.2</ele>
        <time>2020-08-07T11:28:51Z</time>
      </trkpt>
      <trkpt lat="45.62616" lon="6.7932">
        <ele>868</ele>
        <time>2020-08-07T11:28:54Z</time>
      </trkpt>
      <trkpt lat="45.62614" lon="6.79324">
        <ele>868.2</ele>
        <time>2020-08-07T11:28:56Z</time>
      </trkpt>
      <trkpt lat="45.62611" lon="6.7933">
        <ele>868.5</ele>
        <time>2020-08-07T11:28:58Z</time>
      </trkpt>
      <trkpt lat="45.62607" lon="6.79337">
        <ele>868.8</ele>
        <time>2020-08-07T11:28:59Z</time>
      </trkpt>
      <trkpt lat="45.626" lon="6.79351">
        <ele>869.6</ele>
        <time>2020-08-07T11:29:01Z</time>
      </trkpt>
      <trkpt lat="45.6259" lon="6.79365">
        <ele>869.7</ele>
        <time>2020-08-07T11:29:04Z</time>
      </trkpt>
      <trkpt lat="45.62585" lon="6.79376">
        <ele>870</ele>
        <time>2020-08-07T11:29:06Z</time>
      </trkpt>
      <trkpt lat="45.62578" lon="6.79388">
        <ele>870.1</ele>
        <time>2020-08-07T11:29:07Z</time>
      </trkpt>
      <trkpt lat="45.62574" lon="6.79396">
        <ele>869.8</ele>
        <time>2020-08-07T11:29:08Z</time>
      </trkpt>
      <trkpt lat="45.6257" lon="6.79402">
        <ele>869.6</ele>
        <time>2020-08-07T11:29:10Z</time>
      </trkpt>
      <trkpt lat="45.62567" lon="6.79407">
        <ele>869.7</ele>
        <time>2020-08-07T11:29:11Z</time>
      </trkpt>
      <trkpt lat="45.62563" lon="6.7941">
        <ele>869.7</ele>
        <time>2020-08-07T11:29:12Z</time>
      </trkpt>
      <trkpt lat="45.62559" lon="6.79415">
        <ele>869.7</ele>
        <time>2020-08-07T11:29:14Z</time>
      </trkpt>
      <trkpt lat="45.62554" lon="6.79422">
        <ele>869.5</ele>
        <time>2020-08-07T11:29:15Z</time>
      </trkpt>
      <trkpt lat="45.62551" lon="6.79425">
        <ele>869.5</ele>
        <time>2020-08-07T11:29:16Z</time>
      </trkpt>
      <trkpt lat="45.62548" lon="6.79428">
        <ele>869.5</ele>
        <time>2020-08-07T11:29:18Z</time>
      </trkpt>
      <trkpt lat="45.62545" lon="6.79431">
        <ele>869.5</ele>
        <time>2020-08-07T11:29:19Z</time>
      </trkpt>
      <trkpt lat="45.62538" lon="6.79436">
        <ele>869.5</ele>
        <time>2020-08-07T11:29:20Z</time>
      </trkpt>
      <trkpt lat="45.62535" lon="6.79438">
        <ele>869.4</ele>
        <time>2020-08-07T11:29:22Z</time>
      </trkpt>
      <trkpt lat="45.6253" lon="6.79439">
        <ele>869.4</ele>
        <time>2020-08-07T11:29:23Z</time>
      </trkpt>
      <trkpt lat="45.62526" lon="6.7944">
        <ele>869.4</ele>
        <time>2020-08-07T11:29:24Z</time>
      </trkpt>
      <trkpt lat="45.62522" lon="6.79443">
        <ele>869.4</ele>
        <time>2020-08-07T11:29:25Z</time>
      </trkpt>
      <trkpt lat="45.62519" lon="6.79448">
        <ele>869.5</ele>
        <time>2020-08-07T11:29:26Z</time>
      </trkpt>
      <trkpt lat="45.62518" lon="6.79457">
        <ele>869.5</ele>
        <time>2020-08-07T11:29:27Z</time>
      </trkpt>
      <trkpt lat="45.62517" lon="6.79466">
        <ele>869.7</ele>
        <time>2020-08-07T11:29:30Z</time>
      </trkpt>
      <trkpt lat="45.62515" lon="6.79476">
        <ele>869.9</ele>
        <time>2020-08-07T11:29:31Z</time>
      </trkpt>
      <trkpt lat="45.62513" lon="6.79482">
        <ele>870.1</ele>
        <time>2020-08-07T11:29:32Z</time>
      </trkpt>
      <trkpt lat="45.62507" lon="6.79493">
        <ele>870.3</ele>
        <time>2020-08-07T11:29:35Z</time>
      </trkpt>
      <trkpt lat="45.62504" lon="6.79499">
        <ele>870.6</ele>
        <time>2020-08-07T11:29:38Z</time>
      </trkpt>
      <trkpt lat="45.62499" lon="6.79507">
        <ele>870.9</ele>
        <time>2020-08-07T11:29:40Z</time>
      </trkpt>
      <trkpt lat="45.62495" lon="6.79514">
        <ele>871.2</ele>
        <time>2020-08-07T11:29:41Z</time>
      </trkpt>
      <trkpt lat="45.62492" lon="6.79518">
        <ele>871.4</ele>
        <time>2020-08-07T11:29:42Z</time>
      </trkpt>
      <trkpt lat="45.6249" lon="6.79522">
        <ele>871.6</ele>
        <time>2020-08-07T11:29:44Z</time>
      </trkpt>
      <trkpt lat="45.62489" lon="6.79525">
        <ele>871.7</ele>
        <time>2020-08-07T11:29:45Z</time>
      </trkpt>
      <trkpt lat="45.62485" lon="6.79533">
        <ele>872</ele>
        <time>2020-08-07T11:29:47Z</time>
      </trkpt>
      <trkpt lat="45.62482" lon="6.79537">
        <ele>872.2</ele>
        <time>2020-08-07T11:29:48Z</time>
      </trkpt>
      <trkpt lat="45.6248" lon="6.79542">
        <ele>872.4</ele>
        <time>2020-08-07T11:29:49Z</time>
      </trkpt>
      <trkpt lat="45.62478" lon="6.79545">
        <ele>872.5</ele>
        <time>2020-08-07T11:29:50Z</time>
      </trkpt>
      <trkpt lat="45.62473" lon="6.79554">
        <ele>872.8</ele>
        <time>2020-08-07T11:29:52Z</time>
      </trkpt>
      <trkpt lat="45.62472" lon="6.79558">
        <ele>873</ele>
        <time>2020-08-07T11:29:53Z</time>
      </trkpt>
      <trkpt lat="45.62467" lon="6.79566">
        <ele>873.3</ele>
        <time>2020-08-07T11:29:55Z</time>
      </trkpt>
      <trkpt lat="45.62463" lon="6.79576">
        <ele>873.7</ele>
        <time>2020-08-07T11:29:57Z</time>
      </trkpt>
      <trkpt lat="45.6246" lon="6.79583">
        <ele>874</ele>
        <time>2020-08-07T11:29:58Z</time>
      </trkpt>
      <trkpt lat="45.62458" lon="6.79587">
        <ele>874.2</ele>
        <time>2020-08-07T11:29:59Z</time>
      </trkpt>
      <trkpt lat="45.62456" lon="6.79592">
        <ele>874.4</ele>
        <time>2020-08-07T11:30:00Z</time>
      </trkpt>
      <trkpt lat="45.62454" lon="6.79596">
        <ele>874.5</ele>
        <time>2020-08-07T11:30:01Z</time>
      </trkpt>
      <trkpt lat="45.62452" lon="6.796">
        <ele>874.7</ele>
        <time>2020-08-07T11:30:03Z</time>
      </trkpt>
      <trkpt lat="45.6245" lon="6.79605">
        <ele>874.8</ele>
        <time>2020-08-07T11:30:04Z</time>
      </trkpt>
      <trkpt lat="45.62447" lon="6.7961">
        <ele>875</ele>
        <time>2020-08-07T11:30:05Z</time>
      </trkpt>
      <trkpt lat="45.62444" lon="6.79614">
        <ele>875.2</ele>
        <time>2020-08-07T11:30:06Z</time>
      </trkpt>
      <trkpt lat="45.62441" lon="6.79619">
        <ele>875.4</ele>
        <time>2020-08-07T11:30:08Z</time>
      </trkpt>
      <trkpt lat="45.62438" lon="6.79624">
        <ele>875.6</ele>
        <time>2020-08-07T11:30:09Z</time>
      </trkpt>
      <trkpt lat="45.62436" lon="6.79629">
        <ele>875.8</ele>
        <time>2020-08-07T11:30:10Z</time>
      </trkpt>
      <trkpt lat="45.62434" lon="6.79634">
        <ele>875.9</ele>
        <time>2020-08-07T11:30:11Z</time>
      </trkpt>
      <trkpt lat="45.62429" lon="6.79644">
        <ele>876.3</ele>
        <time>2020-08-07T11:30:13Z</time>
      </trkpt>
      <trkpt lat="45.62427" lon="6.79651">
        <ele>876.5</ele>
        <time>2020-08-07T11:30:15Z</time>
      </trkpt>
      <trkpt lat="45.62424" lon="6.79656">
        <ele>876.7</ele>
        <time>2020-08-07T11:30:16Z</time>
      </trkpt>
      <trkpt lat="45.62422" lon="6.79661">
        <ele>876.8</ele>
        <time>2020-08-07T11:30:18Z</time>
      </trkpt>
      <trkpt lat="45.62416" lon="6.79672">
        <ele>877.3</ele>
        <time>2020-08-07T11:30:19Z</time>
      </trkpt>
      <trkpt lat="45.62413" lon="6.79678">
        <ele>877.5</ele>
        <time>2020-08-07T11:30:21Z</time>
      </trkpt>
      <trkpt lat="45.6241" lon="6.79684">
        <ele>877.7</ele>
        <time>2020-08-07T11:30:22Z</time>
      </trkpt>
      <trkpt lat="45.62408" lon="6.79688">
        <ele>877.9</ele>
        <time>2020-08-07T11:30:24Z</time>
      </trkpt>
      <trkpt lat="45.62406" lon="6.79693">
        <ele>878</ele>
        <time>2020-08-07T11:30:25Z</time>
      </trkpt>
      <trkpt lat="45.62403" lon="6.797">
        <ele>878.3</ele>
        <time>2020-08-07T11:30:26Z</time>
      </trkpt>
      <trkpt lat="45.624" lon="6.79706">
        <ele>878.5</ele>
        <time>2020-08-07T11:30:27Z</time>
      </trkpt>
      <trkpt lat="45.62398" lon="6.79711">
        <ele>878.7</ele>
        <time>2020-08-07T11:30:28Z</time>
      </trkpt>
      <trkpt lat="45.62395" lon="6.79716">
        <ele>878.9</ele>
        <time>2020-08-07T11:30:30Z</time>
      </trkpt>
      <trkpt lat="45.62391" lon="6.79727">
        <ele>879.3</ele>
        <time>2020-08-07T11:30:32Z</time>
      </trkpt>
      <trkpt lat="45.62389" lon="6.79733">
        <ele>879.4</ele>
        <time>2020-08-07T11:30:33Z</time>
      </trkpt>
      <trkpt lat="45.62387" lon="6.79738">
        <ele>879.6</ele>
        <time>2020-08-07T11:30:35Z</time>
      </trkpt>
      <trkpt lat="45.62385" lon="6.79743">
        <ele>879.8</ele>
        <time>2020-08-07T11:30:36Z</time>
      </trkpt>
      <trkpt lat="45.62381" lon="6.79749">
        <ele>880.1</ele>
        <time>2020-08-07T11:30:38Z</time>
      </trkpt>
      <trkpt lat="45.62377" lon="6.79758">
        <ele>880.5</ele>
        <time>2020-08-07T11:30:40Z</time>
      </trkpt>
      <trkpt lat="45.62375" lon="6.79762">
        <ele>880.8</ele>
        <time>2020-08-07T11:30:41Z</time>
      </trkpt>
      <trkpt lat="45.62374" lon="6.79766">
        <ele>881.1</ele>
        <time>2020-08-07T11:30:42Z</time>
      </trkpt>
      <trkpt lat="45.62368" lon="6.79776">
        <ele>881.9</ele>
        <time>2020-08-07T11:30:43Z</time>
      </trkpt>
      <trkpt lat="45.62365" lon="6.79783">
        <ele>882.3</ele>
        <time>2020-08-07T11:30:46Z</time>
      </trkpt>
      <trkpt lat="45.62363" lon="6.79789">
        <ele>882.6</ele>
        <time>2020-08-07T11:30:47Z</time>
      </trkpt>
      <trkpt lat="45.62361" lon="6.79793">
        <ele>882.9</ele>
        <time>2020-08-07T11:30:48Z</time>
      </trkpt>
      <trkpt lat="45.62354" lon="6.79809">
        <ele>883.8</ele>
        <time>2020-08-07T11:30:50Z</time>
      </trkpt>
      <trkpt lat="45.62352" lon="6.79814">
        <ele>884.1</ele>
        <time>2020-08-07T11:30:52Z</time>
      </trkpt>
      <trkpt lat="45.62349" lon="6.79819">
        <ele>884.4</ele>
        <time>2020-08-07T11:30:54Z</time>
      </trkpt>
      <trkpt lat="45.62346" lon="6.79826">
        <ele>884.8</ele>
        <time>2020-08-07T11:30:55Z</time>
      </trkpt>
      <trkpt lat="45.62344" lon="6.7983">
        <ele>885</ele>
        <time>2020-08-07T11:30:56Z</time>
      </trkpt>
      <trkpt lat="45.62341" lon="6.79836">
        <ele>885.4</ele>
        <time>2020-08-07T11:30:58Z</time>
      </trkpt>
      <trkpt lat="45.62339" lon="6.7984">
        <ele>885.6</ele>
        <time>2020-08-07T11:30:59Z</time>
      </trkpt>
      <trkpt lat="45.62334" lon="6.79849">
        <ele>885.9</ele>
        <time>2020-08-07T11:31:01Z</time>
      </trkpt>
      <trkpt lat="45.62328" lon="6.79858">
        <ele>886.1</ele>
        <time>2020-08-07T11:31:02Z</time>
      </trkpt>
      <trkpt lat="45.62325" lon="6.79863">
        <ele>886.3</ele>
        <time>2020-08-07T11:31:03Z</time>
      </trkpt>
      <trkpt lat="45.6232" lon="6.79872">
        <ele>886.8</ele>
        <time>2020-08-07T11:31:06Z</time>
      </trkpt>
      <trkpt lat="45.62318" lon="6.79876">
        <ele>887.1</ele>
        <time>2020-08-07T11:31:07Z</time>
      </trkpt>
      <trkpt lat="45.62312" lon="6.79887">
        <ele>887.7</ele>
        <time>2020-08-07T11:31:09Z</time>
      </trkpt>
      <trkpt lat="45.62306" lon="6.79901">
        <ele>888.4</ele>
        <time>2020-08-07T11:31:12Z</time>
      </trkpt>
      <trkpt lat="45.623" lon="6.79912">
        <ele>889</ele>
        <time>2020-08-07T11:31:15Z</time>
      </trkpt>
      <trkpt lat="45.62296" lon="6.79919">
        <ele>889.4</ele>
        <time>2020-08-07T11:31:16Z</time>
      </trkpt>
      <trkpt lat="45.62293" lon="6.79925">
        <ele>889.7</ele>
        <time>2020-08-07T11:31:19Z</time>
      </trkpt>
      <trkpt lat="45.62291" lon="6.7993">
        <ele>890</ele>
        <time>2020-08-07T11:31:20Z</time>
      </trkpt>
      <trkpt lat="45.62288" lon="6.79938">
        <ele>890.4</ele>
        <time>2020-08-07T11:31:21Z</time>
      </trkpt>
      <trkpt lat="45.62286" lon="6.79944">
        <ele>890.7</ele>
        <time>2020-08-07T11:31:22Z</time>
      </trkpt>
      <trkpt lat="45.62283" lon="6.79951">
        <ele>890.8</ele>
        <time>2020-08-07T11:31:24Z</time>
      </trkpt>
      <trkpt lat="45.62279" lon="6.79956">
        <ele>891</ele>
        <time>2020-08-07T11:31:26Z</time>
      </trkpt>
      <trkpt lat="45.62272" lon="6.79967">
        <ele>891.3</ele>
        <time>2020-08-07T11:31:27Z</time>
      </trkpt>
      <trkpt lat="45.62269" lon="6.7997">
        <ele>891.4</ele>
        <time>2020-08-07T11:31:28Z</time>
      </trkpt>
      <trkpt lat="45.62265" lon="6.79974">
        <ele>891.4</ele>
        <time>2020-08-07T11:31:30Z</time>
      </trkpt>
      <trkpt lat="45.62261" lon="6.79979">
        <ele>891.5</ele>
        <time>2020-08-07T11:31:31Z</time>
      </trkpt>
      <trkpt lat="45.62257" lon="6.79985">
        <ele>891.7</ele>
        <time>2020-08-07T11:31:33Z</time>
      </trkpt>
      <trkpt lat="45.62252" lon="6.79992">
        <ele>891.9</ele>
        <time>2020-08-07T11:31:35Z</time>
      </trkpt>
      <trkpt lat="45.62248" lon="6.79996">
        <ele>892</ele>
        <time>2020-08-07T11:31:36Z</time>
      </trkpt>
      <trkpt lat="45.62243" lon="6.80001">
        <ele>892.2</ele>
        <time>2020-08-07T11:31:37Z</time>
      </trkpt>
      <trkpt lat="45.62241" lon="6.80004">
        <ele>892.2</ele>
        <time>2020-08-07T11:31:38Z</time>
      </trkpt>
      <trkpt lat="45.62238" lon="6.80008">
        <ele>892.3</ele>
        <time>2020-08-07T11:31:40Z</time>
      </trkpt>
      <trkpt lat="45.62236" lon="6.80011">
        <ele>892.4</ele>
        <time>2020-08-07T11:31:41Z</time>
      </trkpt>
      <trkpt lat="45.62235" lon="6.80012">
        <ele>892.4</ele>
        <time>2020-08-07T11:31:42Z</time>
      </trkpt>
      <trkpt lat="45.62233" lon="6.80016">
        <ele>892.5</ele>
        <time>2020-08-07T11:31:44Z</time>
      </trkpt>
      <trkpt lat="45.62231" lon="6.80021">
        <ele>892.6</ele>
        <time>2020-08-07T11:31:46Z</time>
      </trkpt>
      <trkpt lat="45.62226" lon="6.80032">
        <ele>892.7</ele>
        <time>2020-08-07T11:31:47Z</time>
      </trkpt>
      <trkpt lat="45.62221" lon="6.80045">
        <ele>892.9</ele>
        <time>2020-08-07T11:31:49Z</time>
      </trkpt>
      <trkpt lat="45.62218" lon="6.80052">
        <ele>893</ele>
        <time>2020-08-07T11:31:50Z</time>
      </trkpt>
      <trkpt lat="45.62213" lon="6.80063">
        <ele>893.1</ele>
        <time>2020-08-07T11:31:51Z</time>
      </trkpt>
      <trkpt lat="45.62209" lon="6.8007">
        <ele>893.2</ele>
        <time>2020-08-07T11:31:53Z</time>
      </trkpt>
      <trkpt lat="45.62206" lon="6.80078">
        <ele>893.4</ele>
        <time>2020-08-07T11:31:54Z</time>
      </trkpt>
      <trkpt lat="45.62202" lon="6.80085">
        <ele>893.5</ele>
        <time>2020-08-07T11:31:56Z</time>
      </trkpt>
      <trkpt lat="45.62198" lon="6.80092">
        <ele>893.7</ele>
        <time>2020-08-07T11:31:57Z</time>
      </trkpt>
      <trkpt lat="45.62196" lon="6.80096">
        <ele>893.8</ele>
        <time>2020-08-07T11:31:58Z</time>
      </trkpt>
      <trkpt lat="45.62193" lon="6.80103">
        <ele>894</ele>
        <time>2020-08-07T11:31:59Z</time>
      </trkpt>
      <trkpt lat="45.6219" lon="6.80111">
        <ele>894.2</ele>
        <time>2020-08-07T11:32:01Z</time>
      </trkpt>
      <trkpt lat="45.62187" lon="6.80117">
        <ele>894.3</ele>
        <time>2020-08-07T11:32:03Z</time>
      </trkpt>
      <trkpt lat="45.62182" lon="6.80128">
        <ele>894.6</ele>
        <time>2020-08-07T11:32:04Z</time>
      </trkpt>
      <trkpt lat="45.62178" lon="6.80134">
        <ele>894.8</ele>
        <time>2020-08-07T11:32:06Z</time>
      </trkpt>
      <trkpt lat="45.62174" lon="6.80141">
        <ele>895</ele>
        <time>2020-08-07T11:32:08Z</time>
      </trkpt>
      <trkpt lat="45.62168" lon="6.80152">
        <ele>895.2</ele>
        <time>2020-08-07T11:32:10Z</time>
      </trkpt>
      <trkpt lat="45.62166" lon="6.80159">
        <ele>896</ele>
        <time>2020-08-07T11:32:11Z</time>
      </trkpt>
      <trkpt lat="45.62167" lon="6.80172">
        <ele>896</ele>
        <time>2020-08-07T11:32:13Z</time>
      </trkpt>
      <trkpt lat="45.62169" lon="6.80178">
        <ele>896.3</ele>
        <time>2020-08-07T11:32:14Z</time>
      </trkpt>
      <trkpt lat="45.6217" lon="6.80195">
        <ele>896.9</ele>
        <time>2020-08-07T11:32:16Z</time>
      </trkpt>
      <trkpt lat="45.62167" lon="6.80206">
        <ele>897.3</ele>
        <time>2020-08-07T11:32:19Z</time>
      </trkpt>
      <trkpt lat="45.62165" lon="6.80211">
        <ele>897.5</ele>
        <time>2020-08-07T11:32:20Z</time>
      </trkpt>
      <trkpt lat="45.62161" lon="6.80221">
        <ele>897.9</ele>
        <time>2020-08-07T11:32:23Z</time>
      </trkpt>
      <trkpt lat="45.62159" lon="6.80225">
        <ele>898.1</ele>
        <time>2020-08-07T11:32:24Z</time>
      </trkpt>
      <trkpt lat="45.62157" lon="6.8023">
        <ele>898.4</ele>
        <time>2020-08-07T11:32:26Z</time>
      </trkpt>
      <trkpt lat="45.62155" lon="6.80235">
        <ele>898.6</ele>
        <time>2020-08-07T11:32:27Z</time>
      </trkpt>
      <trkpt lat="45.62154" lon="6.8024">
        <ele>898.8</ele>
        <time>2020-08-07T11:32:28Z</time>
      </trkpt>
      <trkpt lat="45.62151" lon="6.80248">
        <ele>899.2</ele>
        <time>2020-08-07T11:32:29Z</time>
      </trkpt>
      <trkpt lat="45.6215" lon="6.80253">
        <ele>899.5</ele>
        <time>2020-08-07T11:32:30Z</time>
      </trkpt>
      <trkpt lat="45.62147" lon="6.80258">
        <ele>899.7</ele>
        <time>2020-08-07T11:32:31Z</time>
      </trkpt>
      <trkpt lat="45.62144" lon="6.80265">
        <ele>900</ele>
        <time>2020-08-07T11:32:33Z</time>
      </trkpt>
      <trkpt lat="45.62142" lon="6.80269">
        <ele>900.1</ele>
        <time>2020-08-07T11:32:34Z</time>
      </trkpt>
      <trkpt lat="45.6214" lon="6.80275">
        <ele>900.3</ele>
        <time>2020-08-07T11:32:36Z</time>
      </trkpt>
      <trkpt lat="45.62138" lon="6.80283">
        <ele>900.7</ele>
        <time>2020-08-07T11:32:37Z</time>
      </trkpt>
      <trkpt lat="45.62134" lon="6.80296">
        <ele>901.5</ele>
        <time>2020-08-07T11:32:39Z</time>
      </trkpt>
      <trkpt lat="45.62131" lon="6.80309">
        <ele>902.3</ele>
        <time>2020-08-07T11:32:42Z</time>
      </trkpt>
      <trkpt lat="45.62129" lon="6.80315">
        <ele>902.7</ele>
        <time>2020-08-07T11:32:43Z</time>
      </trkpt>
      <trkpt lat="45.62127" lon="6.80321">
        <ele>903</ele>
        <time>2020-08-07T11:32:44Z</time>
      </trkpt>
      <trkpt lat="45.62126" lon="6.80327">
        <ele>903.4</ele>
        <time>2020-08-07T11:32:46Z</time>
      </trkpt>
      <trkpt lat="45.62125" lon="6.80332">
        <ele>903.4</ele>
        <time>2020-08-07T11:32:47Z</time>
      </trkpt>
      <trkpt lat="45.62123" lon="6.8034">
        <ele>903.4</ele>
        <time>2020-08-07T11:32:48Z</time>
      </trkpt>
      <trkpt lat="45.62121" lon="6.80346">
        <ele>903.6</ele>
        <time>2020-08-07T11:32:50Z</time>
      </trkpt>
      <trkpt lat="45.6212" lon="6.80351">
        <ele>903.8</ele>
        <time>2020-08-07T11:32:52Z</time>
      </trkpt>
      <trkpt lat="45.62117" lon="6.80361">
        <ele>904.2</ele>
        <time>2020-08-07T11:32:53Z</time>
      </trkpt>
      <trkpt lat="45.62113" lon="6.80371">
        <ele>904.6</ele>
        <time>2020-08-07T11:32:56Z</time>
      </trkpt>
      <trkpt lat="45.62112" lon="6.80375">
        <ele>904.7</ele>
        <time>2020-08-07T11:32:57Z</time>
      </trkpt>
      <trkpt lat="45.6211" lon="6.80383">
        <ele>905.1</ele>
        <time>2020-08-07T11:32:59Z</time>
      </trkpt>
      <trkpt lat="45.62106" lon="6.8039">
        <ele>905.4</ele>
        <time>2020-08-07T11:33:00Z</time>
      </trkpt>
      <trkpt lat="45.62104" lon="6.80394">
        <ele>905.6</ele>
        <time>2020-08-07T11:33:02Z</time>
      </trkpt>
      <trkpt lat="45.62103" lon="6.80399">
        <ele>905.7</ele>
        <time>2020-08-07T11:33:03Z</time>
      </trkpt>
      <trkpt lat="45.62103" lon="6.80414">
        <ele>906.3</ele>
        <time>2020-08-07T11:33:04Z</time>
      </trkpt>
      <trkpt lat="45.62103" lon="6.80418">
        <ele>906.5</ele>
        <time>2020-08-07T11:33:06Z</time>
      </trkpt>
      <trkpt lat="45.621" lon="6.8042">
        <ele>906.7</ele>
        <time>2020-08-07T11:33:07Z</time>
      </trkpt>
      <trkpt lat="45.62097" lon="6.80427">
        <ele>906.9</ele>
        <time>2020-08-07T11:33:09Z</time>
      </trkpt>
      <trkpt lat="45.62096" lon="6.80435">
        <ele>907.2</ele>
        <time>2020-08-07T11:33:10Z</time>
      </trkpt>
      <trkpt lat="45.62095" lon="6.8044">
        <ele>907.4</ele>
        <time>2020-08-07T11:33:11Z</time>
      </trkpt>
      <trkpt lat="45.62093" lon="6.80446">
        <ele>907.6</ele>
        <time>2020-08-07T11:33:12Z</time>
      </trkpt>
      <trkpt lat="45.62093" lon="6.80452">
        <ele>907.8</ele>
        <time>2020-08-07T11:33:14Z</time>
      </trkpt>
      <trkpt lat="45.62092" lon="6.80457">
        <ele>908</ele>
        <time>2020-08-07T11:33:15Z</time>
      </trkpt>
      <trkpt lat="45.62092" lon="6.80467">
        <ele>908.3</ele>
        <time>2020-08-07T11:33:16Z</time>
      </trkpt>
      <trkpt lat="45.62091" lon="6.80476">
        <ele>908.7</ele>
        <time>2020-08-07T11:33:17Z</time>
      </trkpt>
      <trkpt lat="45.62091" lon="6.80484">
        <ele>909</ele>
        <time>2020-08-07T11:33:20Z</time>
      </trkpt>
      <trkpt lat="45.6209" lon="6.80498">
        <ele>909.4</ele>
        <time>2020-08-07T11:33:21Z</time>
      </trkpt>
      <trkpt lat="45.62091" lon="6.80506">
        <ele>909.7</ele>
        <time>2020-08-07T11:33:24Z</time>
      </trkpt>
      <trkpt lat="45.62091" lon="6.80515">
        <ele>910</ele>
        <time>2020-08-07T11:33:25Z</time>
      </trkpt>
      <trkpt lat="45.62091" lon="6.8052">
        <ele>910.2</ele>
        <time>2020-08-07T11:33:26Z</time>
      </trkpt>
      <trkpt lat="45.62091" lon="6.80527">
        <ele>910.5</ele>
        <time>2020-08-07T11:33:28Z</time>
      </trkpt>
      <trkpt lat="45.62092" lon="6.80536">
        <ele>910.8</ele>
        <time>2020-08-07T11:33:29Z</time>
      </trkpt>
      <trkpt lat="45.62092" lon="6.80546">
        <ele>911.2</ele>
        <time>2020-08-07T11:33:31Z</time>
      </trkpt>
      <trkpt lat="45.62093" lon="6.80552">
        <ele>911.4</ele>
        <time>2020-08-07T11:33:33Z</time>
      </trkpt>
      <trkpt lat="45.62093" lon="6.80562">
        <ele>911.8</ele>
        <time>2020-08-07T11:33:35Z</time>
      </trkpt>
      <trkpt lat="45.62094" lon="6.80571">
        <ele>912.2</ele>
        <time>2020-08-07T11:33:36Z</time>
      </trkpt>
      <trkpt lat="45.62095" lon="6.80576">
        <ele>912.4</ele>
        <time>2020-08-07T11:33:37Z</time>
      </trkpt>
      <trkpt lat="45.62096" lon="6.80583">
        <ele>912.7</ele>
        <time>2020-08-07T11:33:38Z</time>
      </trkpt>
      <trkpt lat="45.62096" lon="6.80591">
        <ele>913</ele>
        <time>2020-08-07T11:33:41Z</time>
      </trkpt>
      <trkpt lat="45.62097" lon="6.80601">
        <ele>913.3</ele>
        <time>2020-08-07T11:33:42Z</time>
      </trkpt>
      <trkpt lat="45.62097" lon="6.80608">
        <ele>913.6</ele>
        <time>2020-08-07T11:33:43Z</time>
      </trkpt>
      <trkpt lat="45.62097" lon="6.80614">
        <ele>913.9</ele>
        <time>2020-08-07T11:33:44Z</time>
      </trkpt>
      <trkpt lat="45.62098" lon="6.80623">
        <ele>914.2</ele>
        <time>2020-08-07T11:33:47Z</time>
      </trkpt>
      <trkpt lat="45.62098" lon="6.80633">
        <ele>914.6</ele>
        <time>2020-08-07T11:33:49Z</time>
      </trkpt>
      <trkpt lat="45.62098" lon="6.80638">
        <ele>914.7</ele>
        <time>2020-08-07T11:33:50Z</time>
      </trkpt>
      <trkpt lat="45.62099" lon="6.80656">
        <ele>914.9</ele>
        <time>2020-08-07T11:33:52Z</time>
      </trkpt>
      <trkpt lat="45.62099" lon="6.80664">
        <ele>915</ele>
        <time>2020-08-07T11:33:54Z</time>
      </trkpt>
      <trkpt lat="45.62101" lon="6.80676">
        <ele>915.5</ele>
        <time>2020-08-07T11:33:56Z</time>
      </trkpt>
      <trkpt lat="45.62101" lon="6.80681">
        <ele>915.6</ele>
        <time>2020-08-07T11:33:57Z</time>
      </trkpt>
      <trkpt lat="45.62102" lon="6.80685">
        <ele>915.8</ele>
        <time>2020-08-07T11:33:58Z</time>
      </trkpt>
      <trkpt lat="45.62102" lon="6.80697">
        <ele>916.2</ele>
        <time>2020-08-07T11:34:01Z</time>
      </trkpt>
      <trkpt lat="45.62102" lon="6.80701">
        <ele>916.4</ele>
        <time>2020-08-07T11:34:02Z</time>
      </trkpt>
      <trkpt lat="45.62103" lon="6.80711">
        <ele>916.8</ele>
        <time>2020-08-07T11:34:05Z</time>
      </trkpt>
      <trkpt lat="45.62105" lon="6.80724">
        <ele>917.2</ele>
        <time>2020-08-07T11:34:06Z</time>
      </trkpt>
      <trkpt lat="45.62105" lon="6.8073">
        <ele>917.4</ele>
        <time>2020-08-07T11:34:07Z</time>
      </trkpt>
      <trkpt lat="45.62106" lon="6.80736">
        <ele>917.6</ele>
        <time>2020-08-07T11:34:09Z</time>
      </trkpt>
      <trkpt lat="45.62106" lon="6.80742">
        <ele>917.8</ele>
        <time>2020-08-07T11:34:10Z</time>
      </trkpt>
      <trkpt lat="45.62106" lon="6.80747">
        <ele>918</ele>
        <time>2020-08-07T11:34:12Z</time>
      </trkpt>
      <trkpt lat="45.62108" lon="6.80766">
        <ele>918.7</ele>
        <time>2020-08-07T11:34:14Z</time>
      </trkpt>
      <trkpt lat="45.62109" lon="6.80778">
        <ele>919.1</ele>
        <time>2020-08-07T11:34:17Z</time>
      </trkpt>
      <trkpt lat="45.62109" lon="6.80783">
        <ele>919.3</ele>
        <time>2020-08-07T11:34:18Z</time>
      </trkpt>
      <trkpt lat="45.6211" lon="6.80788">
        <ele>919.4</ele>
        <time>2020-08-07T11:34:20Z</time>
      </trkpt>
      <trkpt lat="45.6211" lon="6.80797">
        <ele>919.7</ele>
        <time>2020-08-07T11:34:22Z</time>
      </trkpt>
      <trkpt lat="45.62111" lon="6.80809">
        <ele>920.1</ele>
        <time>2020-08-07T11:34:23Z</time>
      </trkpt>
      <trkpt lat="45.62112" lon="6.80824">
        <ele>920.6</ele>
        <time>2020-08-07T11:34:26Z</time>
      </trkpt>
      <trkpt lat="45.62112" lon="6.8083">
        <ele>920.8</ele>
        <time>2020-08-07T11:34:27Z</time>
      </trkpt>
      <trkpt lat="45.62112" lon="6.80835">
        <ele>920.9</ele>
        <time>2020-08-07T11:34:28Z</time>
      </trkpt>
      <trkpt lat="45.62113" lon="6.8085">
        <ele>921.5</ele>
        <time>2020-08-07T11:34:31Z</time>
      </trkpt>
      <trkpt lat="45.62113" lon="6.80857">
        <ele>921.9</ele>
        <time>2020-08-07T11:34:33Z</time>
      </trkpt>
      <trkpt lat="45.62114" lon="6.8087">
        <ele>922.4</ele>
        <time>2020-08-07T11:34:35Z</time>
      </trkpt>
      <trkpt lat="45.62115" lon="6.80877">
        <ele>922.6</ele>
        <time>2020-08-07T11:34:38Z</time>
      </trkpt>
      <trkpt lat="45.62115" lon="6.80883">
        <ele>922.8</ele>
        <time>2020-08-07T11:34:39Z</time>
      </trkpt>
      <trkpt lat="45.62115" lon="6.80892">
        <ele>923.1</ele>
        <time>2020-08-07T11:34:41Z</time>
      </trkpt>
      <trkpt lat="45.62116" lon="6.80897">
        <ele>923.3</ele>
        <time>2020-08-07T11:34:42Z</time>
      </trkpt>
      <trkpt lat="45.62116" lon="6.80909">
        <ele>923.7</ele>
        <time>2020-08-07T11:34:43Z</time>
      </trkpt>
      <trkpt lat="45.62117" lon="6.80918">
        <ele>924</ele>
        <time>2020-08-07T11:34:45Z</time>
      </trkpt>
      <trkpt lat="45.62117" lon="6.80924">
        <ele>924.2</ele>
        <time>2020-08-07T11:34:47Z</time>
      </trkpt>
      <trkpt lat="45.62118" lon="6.80929">
        <ele>924.4</ele>
        <time>2020-08-07T11:34:48Z</time>
      </trkpt>
      <trkpt lat="45.62119" lon="6.80947">
        <ele>925.1</ele>
        <time>2020-08-07T11:34:50Z</time>
      </trkpt>
      <trkpt lat="45.62119" lon="6.80952">
        <ele>925.3</ele>
        <time>2020-08-07T11:34:52Z</time>
      </trkpt>
      <trkpt lat="45.6212" lon="6.80959">
        <ele>925.5</ele>
        <time>2020-08-07T11:34:54Z</time>
      </trkpt>
      <trkpt lat="45.6212" lon="6.80965">
        <ele>925.7</ele>
        <time>2020-08-07T11:34:55Z</time>
      </trkpt>
      <trkpt lat="45.62121" lon="6.80974">
        <ele>926</ele>
        <time>2020-08-07T11:34:56Z</time>
      </trkpt>
      <trkpt lat="45.62122" lon="6.80982">
        <ele>926.3</ele>
        <time>2020-08-07T11:34:57Z</time>
      </trkpt>
      <trkpt lat="45.62122" lon="6.80996">
        <ele>926.9</ele>
        <time>2020-08-07T11:35:00Z</time>
      </trkpt>
      <trkpt lat="45.62123" lon="6.81009">
        <ele>927.3</ele>
        <time>2020-08-07T11:35:03Z</time>
      </trkpt>
      <trkpt lat="45.62123" lon="6.81015">
        <ele>927.5</ele>
        <time>2020-08-07T11:35:04Z</time>
      </trkpt>
      <trkpt lat="45.62123" lon="6.81021">
        <ele>927.8</ele>
        <time>2020-08-07T11:35:05Z</time>
      </trkpt>
      <trkpt lat="45.62124" lon="6.81028">
        <ele>928</ele>
        <time>2020-08-07T11:35:07Z</time>
      </trkpt>
      <trkpt lat="45.62124" lon="6.81034">
        <ele>928.2</ele>
        <time>2020-08-07T11:35:08Z</time>
      </trkpt>
      <trkpt lat="45.62126" lon="6.81043">
        <ele>928.6</ele>
        <time>2020-08-07T11:35:11Z</time>
      </trkpt>
      <trkpt lat="45.62129" lon="6.8105">
        <ele>928.9</ele>
        <time>2020-08-07T11:35:12Z</time>
      </trkpt>
      <trkpt lat="45.62131" lon="6.81055">
        <ele>929.1</ele>
        <time>2020-08-07T11:35:13Z</time>
      </trkpt>
      <trkpt lat="45.62134" lon="6.81059">
        <ele>929.3</ele>
        <time>2020-08-07T11:35:15Z</time>
      </trkpt>
      <trkpt lat="45.62137" lon="6.81063">
        <ele>929.5</ele>
        <time>2020-08-07T11:35:16Z</time>
      </trkpt>
      <trkpt lat="45.62143" lon="6.81067">
        <ele>929.9</ele>
        <time>2020-08-07T11:35:18Z</time>
      </trkpt>
      <trkpt lat="45.62147" lon="6.81068">
        <ele>930.1</ele>
        <time>2020-08-07T11:35:19Z</time>
      </trkpt>
      <trkpt lat="45.62159" lon="6.8107">
        <ele>930.7</ele>
        <time>2020-08-07T11:35:21Z</time>
      </trkpt>
      <trkpt lat="45.62163" lon="6.81069">
        <ele>930.9</ele>
        <time>2020-08-07T11:35:23Z</time>
      </trkpt>
      <trkpt lat="45.62167" lon="6.81068">
        <ele>931.1</ele>
        <time>2020-08-07T11:35:24Z</time>
      </trkpt>
      <trkpt lat="45.62174" lon="6.81063">
        <ele>931.6</ele>
        <time>2020-08-07T11:35:26Z</time>
      </trkpt>
      <trkpt lat="45.62178" lon="6.81059">
        <ele>931.9</ele>
        <time>2020-08-07T11:35:28Z</time>
      </trkpt>
      <trkpt lat="45.62182" lon="6.81053">
        <ele>932.2</ele>
        <time>2020-08-07T11:35:29Z</time>
      </trkpt>
      <trkpt lat="45.62186" lon="6.81046">
        <ele>932.5</ele>
        <time>2020-08-07T11:35:31Z</time>
      </trkpt>
      <trkpt lat="45.62189" lon="6.81031">
        <ele>933.1</ele>
        <time>2020-08-07T11:35:33Z</time>
      </trkpt>
      <trkpt lat="45.6219" lon="6.81023">
        <ele>933.4</ele>
        <time>2020-08-07T11:35:36Z</time>
      </trkpt>
      <trkpt lat="45.62191" lon="6.81017">
        <ele>933.7</ele>
        <time>2020-08-07T11:35:37Z</time>
      </trkpt>
      <trkpt lat="45.62193" lon="6.81006">
        <ele>934</ele>
        <time>2020-08-07T11:35:39Z</time>
      </trkpt>
      <trkpt lat="45.62195" lon="6.80997">
        <ele>934.4</ele>
        <time>2020-08-07T11:35:40Z</time>
      </trkpt>
      <trkpt lat="45.62196" lon="6.80991">
        <ele>934.6</ele>
        <time>2020-08-07T11:35:41Z</time>
      </trkpt>
      <trkpt lat="45.62197" lon="6.80986">
        <ele>934.7</ele>
        <time>2020-08-07T11:35:42Z</time>
      </trkpt>
      <trkpt lat="45.62199" lon="6.80979">
        <ele>934.9</ele>
        <time>2020-08-07T11:35:44Z</time>
      </trkpt>
      <trkpt lat="45.622" lon="6.80975">
        <ele>935</ele>
        <time>2020-08-07T11:35:45Z</time>
      </trkpt>
      <trkpt lat="45.62201" lon="6.80965">
        <ele>935.2</ele>
        <time>2020-08-07T11:35:47Z</time>
      </trkpt>
      <trkpt lat="45.62202" lon="6.8096">
        <ele>935.4</ele>
        <time>2020-08-07T11:35:48Z</time>
      </trkpt>
      <trkpt lat="45.62204" lon="6.80951">
        <ele>935.7</ele>
        <time>2020-08-07T11:35:49Z</time>
      </trkpt>
      <trkpt lat="45.62205" lon="6.80946">
        <ele>935.8</ele>
        <time>2020-08-07T11:35:51Z</time>
      </trkpt>
      <trkpt lat="45.62209" lon="6.80929">
        <ele>936.4</ele>
        <time>2020-08-07T11:35:53Z</time>
      </trkpt>
      <trkpt lat="45.6221" lon="6.80924">
        <ele>936.6</ele>
        <time>2020-08-07T11:35:54Z</time>
      </trkpt>
      <trkpt lat="45.62212" lon="6.80914">
        <ele>936.9</ele>
        <time>2020-08-07T11:35:57Z</time>
      </trkpt>
      <trkpt lat="45.62212" lon="6.80911">
        <ele>937</ele>
        <time>2020-08-07T11:35:58Z</time>
      </trkpt>
      <trkpt lat="45.62213" lon="6.80906">
        <ele>937.1</ele>
        <time>2020-08-07T11:36:00Z</time>
      </trkpt>
      <trkpt lat="45.62215" lon="6.80897">
        <ele>937.4</ele>
        <time>2020-08-07T11:36:01Z</time>
      </trkpt>
      <trkpt lat="45.62218" lon="6.80888">
        <ele>937.7</ele>
        <time>2020-08-07T11:36:03Z</time>
      </trkpt>
      <trkpt lat="45.62219" lon="6.80882">
        <ele>937.9</ele>
        <time>2020-08-07T11:36:05Z</time>
      </trkpt>
      <trkpt lat="45.62222" lon="6.80872">
        <ele>938.1</ele>
        <time>2020-08-07T11:36:07Z</time>
      </trkpt>
      <trkpt lat="45.62223" lon="6.80863">
        <ele>938.4</ele>
        <time>2020-08-07T11:36:09Z</time>
      </trkpt>
      <trkpt lat="45.62226" lon="6.80851">
        <ele>938.8</ele>
        <time>2020-08-07T11:36:10Z</time>
      </trkpt>
      <trkpt lat="45.62229" lon="6.80837">
        <ele>939.2</ele>
        <time>2020-08-07T11:36:13Z</time>
      </trkpt>
      <trkpt lat="45.6223" lon="6.80831">
        <ele>939.4</ele>
        <time>2020-08-07T11:36:15Z</time>
      </trkpt>
      <trkpt lat="45.62232" lon="6.80822">
        <ele>939.7</ele>
        <time>2020-08-07T11:36:17Z</time>
      </trkpt>
      <trkpt lat="45.62233" lon="6.80817">
        <ele>939.8</ele>
        <time>2020-08-07T11:36:18Z</time>
      </trkpt>
      <trkpt lat="45.62235" lon="6.80812">
        <ele>940</ele>
        <time>2020-08-07T11:36:20Z</time>
      </trkpt>
      <trkpt lat="45.62237" lon="6.80809">
        <ele>940.1</ele>
        <time>2020-08-07T11:36:21Z</time>
      </trkpt>
      <trkpt lat="45.62243" lon="6.80806">
        <ele>940.3</ele>
        <time>2020-08-07T11:36:22Z</time>
      </trkpt>
      <trkpt lat="45.62247" lon="6.80808">
        <ele>940.4</ele>
        <time>2020-08-07T11:36:24Z</time>
      </trkpt>
      <trkpt lat="45.62251" lon="6.80812">
        <ele>940.7</ele>
        <time>2020-08-07T11:36:25Z</time>
      </trkpt>
      <trkpt lat="45.62253" lon="6.80815">
        <ele>940.9</ele>
        <time>2020-08-07T11:36:26Z</time>
      </trkpt>
      <trkpt lat="45.62254" lon="6.80821">
        <ele>941.2</ele>
        <time>2020-08-07T11:36:27Z</time>
      </trkpt>
      <trkpt lat="45.62255" lon="6.80826">
        <ele>941.4</ele>
        <time>2020-08-07T11:36:28Z</time>
      </trkpt>
      <trkpt lat="45.62256" lon="6.80832">
        <ele>941.7</ele>
        <time>2020-08-07T11:36:30Z</time>
      </trkpt>
      <trkpt lat="45.62257" lon="6.80837">
        <ele>941.9</ele>
        <time>2020-08-07T11:36:31Z</time>
      </trkpt>
      <trkpt lat="45.62258" lon="6.80843">
        <ele>942.1</ele>
        <time>2020-08-07T11:36:32Z</time>
      </trkpt>
      <trkpt lat="45.62259" lon="6.80847">
        <ele>942.3</ele>
        <time>2020-08-07T11:36:33Z</time>
      </trkpt>
      <trkpt lat="45.62259" lon="6.80854">
        <ele>942.6</ele>
        <time>2020-08-07T11:36:35Z</time>
      </trkpt>
      <trkpt lat="45.62261" lon="6.80864">
        <ele>943.1</ele>
        <time>2020-08-07T11:36:36Z</time>
      </trkpt>
      <trkpt lat="45.62262" lon="6.80871">
        <ele>943.4</ele>
        <time>2020-08-07T11:36:38Z</time>
      </trkpt>
      <trkpt lat="45.62262" lon="6.80875">
        <ele>943.6</ele>
        <time>2020-08-07T11:36:39Z</time>
      </trkpt>
      <trkpt lat="45.62263" lon="6.8088">
        <ele>943.9</ele>
        <time>2020-08-07T11:36:41Z</time>
      </trkpt>
      <trkpt lat="45.62264" lon="6.80888">
        <ele>944.2</ele>
        <time>2020-08-07T11:36:43Z</time>
      </trkpt>
      <trkpt lat="45.62265" lon="6.80895">
        <ele>944.6</ele>
        <time>2020-08-07T11:36:44Z</time>
      </trkpt>
      <trkpt lat="45.62266" lon="6.809">
        <ele>944.8</ele>
        <time>2020-08-07T11:36:46Z</time>
      </trkpt>
      <trkpt lat="45.62267" lon="6.80908">
        <ele>945.2</ele>
        <time>2020-08-07T11:36:48Z</time>
      </trkpt>
      <trkpt lat="45.62268" lon="6.80918">
        <ele>945.6</ele>
        <time>2020-08-07T11:36:49Z</time>
      </trkpt>
      <trkpt lat="45.62268" lon="6.80923">
        <ele>945.9</ele>
        <time>2020-08-07T11:36:50Z</time>
      </trkpt>
      <trkpt lat="45.62269" lon="6.8093">
        <ele>946.2</ele>
        <time>2020-08-07T11:36:53Z</time>
      </trkpt>
      <trkpt lat="45.62269" lon="6.80935">
        <ele>946.4</ele>
        <time>2020-08-07T11:36:54Z</time>
      </trkpt>
      <trkpt lat="45.6227" lon="6.80939">
        <ele>946.6</ele>
        <time>2020-08-07T11:36:55Z</time>
      </trkpt>
      <trkpt lat="45.6227" lon="6.80948">
        <ele>947</ele>
        <time>2020-08-07T11:36:57Z</time>
      </trkpt>
      <trkpt lat="45.62272" lon="6.80956">
        <ele>947.3</ele>
        <time>2020-08-07T11:36:59Z</time>
      </trkpt>
      <trkpt lat="45.62273" lon="6.80967">
        <ele>948</ele>
        <time>2020-08-07T11:37:00Z</time>
      </trkpt>
      <trkpt lat="45.62274" lon="6.80975">
        <ele>948.4</ele>
        <time>2020-08-07T11:37:03Z</time>
      </trkpt>
      <trkpt lat="45.62276" lon="6.80983">
        <ele>948.9</ele>
        <time>2020-08-07T11:37:05Z</time>
      </trkpt>
      <trkpt lat="45.62277" lon="6.80992">
        <ele>949.4</ele>
        <time>2020-08-07T11:37:06Z</time>
      </trkpt>
      <trkpt lat="45.62278" lon="6.80996">
        <ele>949.6</ele>
        <time>2020-08-07T11:37:08Z</time>
      </trkpt>
      <trkpt lat="45.62278" lon="6.81001">
        <ele>949.9</ele>
        <time>2020-08-07T11:37:09Z</time>
      </trkpt>
      <trkpt lat="45.6228" lon="6.81009">
        <ele>950.3</ele>
        <time>2020-08-07T11:37:11Z</time>
      </trkpt>
      <trkpt lat="45.62281" lon="6.81017">
        <ele>950.7</ele>
        <time>2020-08-07T11:37:12Z</time>
      </trkpt>
      <trkpt lat="45.62281" lon="6.81022">
        <ele>951</ele>
        <time>2020-08-07T11:37:13Z</time>
      </trkpt>
      <trkpt lat="45.62282" lon="6.81027">
        <ele>951.2</ele>
        <time>2020-08-07T11:37:14Z</time>
      </trkpt>
      <trkpt lat="45.62283" lon="6.81035">
        <ele>951.6</ele>
        <time>2020-08-07T11:37:16Z</time>
      </trkpt>
      <trkpt lat="45.62284" lon="6.81039">
        <ele>951.9</ele>
        <time>2020-08-07T11:37:17Z</time>
      </trkpt>
      <trkpt lat="45.62284" lon="6.81045">
        <ele>952.2</ele>
        <time>2020-08-07T11:37:18Z</time>
      </trkpt>
      <trkpt lat="45.62285" lon="6.81052">
        <ele>952.5</ele>
        <time>2020-08-07T11:37:20Z</time>
      </trkpt>
      <trkpt lat="45.62285" lon="6.81056">
        <ele>952.7</ele>
        <time>2020-08-07T11:37:21Z</time>
      </trkpt>
      <trkpt lat="45.62286" lon="6.8106">
        <ele>953</ele>
        <time>2020-08-07T11:37:22Z</time>
      </trkpt>
      <trkpt lat="45.62286" lon="6.81065">
        <ele>953.2</ele>
        <time>2020-08-07T11:37:23Z</time>
      </trkpt>
      <trkpt lat="45.62288" lon="6.81075">
        <ele>953.7</ele>
        <time>2020-08-07T11:37:25Z</time>
      </trkpt>
      <trkpt lat="45.62289" lon="6.8108">
        <ele>954</ele>
        <time>2020-08-07T11:37:26Z</time>
      </trkpt>
      <trkpt lat="45.6229" lon="6.81086">
        <ele>954.3</ele>
        <time>2020-08-07T11:37:28Z</time>
      </trkpt>
      <trkpt lat="45.62291" lon="6.8109">
        <ele>954.6</ele>
        <time>2020-08-07T11:37:29Z</time>
      </trkpt>
      <trkpt lat="45.62293" lon="6.81094">
        <ele>954.9</ele>
        <time>2020-08-07T11:37:30Z</time>
      </trkpt>
      <trkpt lat="45.62296" lon="6.81099">
        <ele>955.1</ele>
        <time>2020-08-07T11:37:31Z</time>
      </trkpt>
      <trkpt lat="45.62299" lon="6.81102">
        <ele>955.2</ele>
        <time>2020-08-07T11:37:33Z</time>
      </trkpt>
      <trkpt lat="45.62303" lon="6.81104">
        <ele>955.4</ele>
        <time>2020-08-07T11:37:34Z</time>
      </trkpt>
      <trkpt lat="45.62307" lon="6.81104">
        <ele>955.6</ele>
        <time>2020-08-07T11:37:36Z</time>
      </trkpt>
      <trkpt lat="45.62314" lon="6.81098">
        <ele>955.9</ele>
        <time>2020-08-07T11:37:37Z</time>
      </trkpt>
      <trkpt lat="45.62317" lon="6.81092">
        <ele>956.2</ele>
        <time>2020-08-07T11:37:40Z</time>
      </trkpt>
      <trkpt lat="45.62321" lon="6.81084">
        <ele>956.6</ele>
        <time>2020-08-07T11:37:42Z</time>
      </trkpt>
      <trkpt lat="45.62324" lon="6.81076">
        <ele>956.9</ele>
        <time>2020-08-07T11:37:44Z</time>
      </trkpt>
      <trkpt lat="45.62326" lon="6.81072">
        <ele>957.1</ele>
        <time>2020-08-07T11:37:45Z</time>
      </trkpt>
      <trkpt lat="45.62331" lon="6.81059">
        <ele>957.7</ele>
        <time>2020-08-07T11:37:47Z</time>
      </trkpt>
      <trkpt lat="45.62333" lon="6.81053">
        <ele>958</ele>
        <time>2020-08-07T11:37:49Z</time>
      </trkpt>
      <trkpt lat="45.62334" lon="6.81049">
        <ele>958.1</ele>
        <time>2020-08-07T11:37:50Z</time>
      </trkpt>
      <trkpt lat="45.62335" lon="6.81045">
        <ele>958.3</ele>
        <time>2020-08-07T11:37:51Z</time>
      </trkpt>
      <trkpt lat="45.62337" lon="6.81042">
        <ele>958.4</ele>
        <time>2020-08-07T11:37:52Z</time>
      </trkpt>
      <trkpt lat="45.62338" lon="6.81038">
        <ele>958.6</ele>
        <time>2020-08-07T11:37:53Z</time>
      </trkpt>
      <trkpt lat="45.6234" lon="6.81035">
        <ele>958.8</ele>
        <time>2020-08-07T11:37:54Z</time>
      </trkpt>
      <trkpt lat="45.62342" lon="6.8103">
        <ele>959</ele>
        <time>2020-08-07T11:37:55Z</time>
      </trkpt>
      <trkpt lat="45.62347" lon="6.81021">
        <ele>959.6</ele>
        <time>2020-08-07T11:37:58Z</time>
      </trkpt>
      <trkpt lat="45.62349" lon="6.81017">
        <ele>959.8</ele>
        <time>2020-08-07T11:37:59Z</time>
      </trkpt>
      <trkpt lat="45.62351" lon="6.81012">
        <ele>960.1</ele>
        <time>2020-08-07T11:38:01Z</time>
      </trkpt>
      <trkpt lat="45.62352" lon="6.81008">
        <ele>960.3</ele>
        <time>2020-08-07T11:38:03Z</time>
      </trkpt>
      <trkpt lat="45.62355" lon="6.81002">
        <ele>960.7</ele>
        <time>2020-08-07T11:38:05Z</time>
      </trkpt>
      <trkpt lat="45.62359" lon="6.80995">
        <ele>961.1</ele>
        <time>2020-08-07T11:38:07Z</time>
      </trkpt>
      <trkpt lat="45.6236" lon="6.80992">
        <ele>961.3</ele>
        <time>2020-08-07T11:38:08Z</time>
      </trkpt>
      <trkpt lat="45.62364" lon="6.80982">
        <ele>961.8</ele>
        <time>2020-08-07T11:38:10Z</time>
      </trkpt>
      <trkpt lat="45.62366" lon="6.80976">
        <ele>962.2</ele>
        <time>2020-08-07T11:38:13Z</time>
      </trkpt>
      <trkpt lat="45.6237" lon="6.80968">
        <ele>962.6</ele>
        <time>2020-08-07T11:38:15Z</time>
      </trkpt>
      <trkpt lat="45.62373" lon="6.80961">
        <ele>962.9</ele>
        <time>2020-08-07T11:38:17Z</time>
      </trkpt>
      <trkpt lat="45.62374" lon="6.80957">
        <ele>963.1</ele>
        <time>2020-08-07T11:38:18Z</time>
      </trkpt>
      <trkpt lat="45.62378" lon="6.80947">
        <ele>963.6</ele>
        <time>2020-08-07T11:38:20Z</time>
      </trkpt>
      <trkpt lat="45.6238" lon="6.80943">
        <ele>963.8</ele>
        <time>2020-08-07T11:38:21Z</time>
      </trkpt>
      <trkpt lat="45.62383" lon="6.80935">
        <ele>964.2</ele>
        <time>2020-08-07T11:38:23Z</time>
      </trkpt>
      <trkpt lat="45.62388" lon="6.80927">
        <ele>964.6</ele>
        <time>2020-08-07T11:38:24Z</time>
      </trkpt>
      <trkpt lat="45.62391" lon="6.80924">
        <ele>964.8</ele>
        <time>2020-08-07T11:38:25Z</time>
      </trkpt>
      <trkpt lat="45.62393" lon="6.80921">
        <ele>965</ele>
        <time>2020-08-07T11:38:26Z</time>
      </trkpt>
      <trkpt lat="45.62395" lon="6.80917">
        <ele>965.2</ele>
        <time>2020-08-07T11:38:27Z</time>
      </trkpt>
      <trkpt lat="45.62397" lon="6.80913">
        <ele>965.4</ele>
        <time>2020-08-07T11:38:28Z</time>
      </trkpt>
      <trkpt lat="45.62398" lon="6.80907">
        <ele>965.7</ele>
        <time>2020-08-07T11:38:30Z</time>
      </trkpt>
      <trkpt lat="45.624" lon="6.809">
        <ele>966</ele>
        <time>2020-08-07T11:38:32Z</time>
      </trkpt>
      <trkpt lat="45.62401" lon="6.80896">
        <ele>966.1</ele>
        <time>2020-08-07T11:38:33Z</time>
      </trkpt>
      <trkpt lat="45.62405" lon="6.80886">
        <ele>966.4</ele>
        <time>2020-08-07T11:38:35Z</time>
      </trkpt>
      <trkpt lat="45.62407" lon="6.80879">
        <ele>966.6</ele>
        <time>2020-08-07T11:38:38Z</time>
      </trkpt>
      <trkpt lat="45.62409" lon="6.80875">
        <ele>966.7</ele>
        <time>2020-08-07T11:38:39Z</time>
      </trkpt>
      <trkpt lat="45.62411" lon="6.80869">
        <ele>966.9</ele>
        <time>2020-08-07T11:38:40Z</time>
      </trkpt>
      <trkpt lat="45.62412" lon="6.80864">
        <ele>967</ele>
        <time>2020-08-07T11:38:42Z</time>
      </trkpt>
      <trkpt lat="45.62416" lon="6.80853">
        <ele>967.4</ele>
        <time>2020-08-07T11:38:43Z</time>
      </trkpt>
      <trkpt lat="45.62419" lon="6.80848">
        <ele>967.5</ele>
        <time>2020-08-07T11:38:45Z</time>
      </trkpt>
      <trkpt lat="45.62421" lon="6.80843">
        <ele>967.7</ele>
        <time>2020-08-07T11:38:47Z</time>
      </trkpt>
      <trkpt lat="45.62424" lon="6.80835">
        <ele>967.9</ele>
        <time>2020-08-07T11:38:49Z</time>
      </trkpt>
      <trkpt lat="45.62427" lon="6.80828">
        <ele>968.2</ele>
        <time>2020-08-07T11:38:51Z</time>
      </trkpt>
      <trkpt lat="45.62429" lon="6.80825">
        <ele>968.3</ele>
        <time>2020-08-07T11:38:52Z</time>
      </trkpt>
      <trkpt lat="45.62432" lon="6.80818">
        <ele>968.5</ele>
        <time>2020-08-07T11:38:54Z</time>
      </trkpt>
      <trkpt lat="45.6244" lon="6.80806">
        <ele>969</ele>
        <time>2020-08-07T11:38:56Z</time>
      </trkpt>
      <trkpt lat="45.62444" lon="6.80802">
        <ele>969.5</ele>
        <time>2020-08-07T11:38:58Z</time>
      </trkpt>
      <trkpt lat="45.62451" lon="6.80803">
        <ele>970.3</ele>
        <time>2020-08-07T11:39:00Z</time>
      </trkpt>
      <trkpt lat="45.62455" lon="6.80805">
        <ele>970.8</ele>
        <time>2020-08-07T11:39:01Z</time>
      </trkpt>
      <trkpt lat="45.62458" lon="6.80807">
        <ele>971.1</ele>
        <time>2020-08-07T11:39:03Z</time>
      </trkpt>
      <trkpt lat="45.6246" lon="6.80811">
        <ele>971.4</ele>
        <time>2020-08-07T11:39:04Z</time>
      </trkpt>
      <trkpt lat="45.62462" lon="6.80814">
        <ele>971.7</ele>
        <time>2020-08-07T11:39:05Z</time>
      </trkpt>
      <trkpt lat="45.62463" lon="6.80818">
        <ele>972</ele>
        <time>2020-08-07T11:39:06Z</time>
      </trkpt>
      <trkpt lat="45.62464" lon="6.80821">
        <ele>972.2</ele>
        <time>2020-08-07T11:39:07Z</time>
      </trkpt>
      <trkpt lat="45.62467" lon="6.80832">
        <ele>973</ele>
        <time>2020-08-07T11:39:09Z</time>
      </trkpt>
      <trkpt lat="45.62467" lon="6.80839">
        <ele>973.5</ele>
        <time>2020-08-07T11:39:12Z</time>
      </trkpt>
      <trkpt lat="45.62469" lon="6.80848">
        <ele>974.1</ele>
        <time>2020-08-07T11:39:14Z</time>
      </trkpt>
      <trkpt lat="45.62471" lon="6.8086">
        <ele>974.9</ele>
        <time>2020-08-07T11:39:15Z</time>
      </trkpt>
      <trkpt lat="45.62472" lon="6.80867">
        <ele>975.3</ele>
        <time>2020-08-07T11:39:18Z</time>
      </trkpt>
      <trkpt lat="45.62472" lon="6.80871">
        <ele>975.6</ele>
        <time>2020-08-07T11:39:19Z</time>
      </trkpt>
      <trkpt lat="45.62474" lon="6.80884">
        <ele>976.4</ele>
        <time>2020-08-07T11:39:21Z</time>
      </trkpt>
      <trkpt lat="45.62476" lon="6.80896">
        <ele>977.2</ele>
        <time>2020-08-07T11:39:24Z</time>
      </trkpt>
      <trkpt lat="45.62477" lon="6.80901">
        <ele>977.6</ele>
        <time>2020-08-07T11:39:25Z</time>
      </trkpt>
      <trkpt lat="45.62479" lon="6.80913">
        <ele>978.4</ele>
        <time>2020-08-07T11:39:28Z</time>
      </trkpt>
      <trkpt lat="45.6248" lon="6.80917">
        <ele>978.6</ele>
        <time>2020-08-07T11:39:29Z</time>
      </trkpt>
      <trkpt lat="45.62481" lon="6.80925">
        <ele>979.2</ele>
        <time>2020-08-07T11:39:31Z</time>
      </trkpt>
      <trkpt lat="45.62482" lon="6.80936">
        <ele>979.9</ele>
        <time>2020-08-07T11:39:33Z</time>
      </trkpt>
      <trkpt lat="45.62483" lon="6.80941">
        <ele>980.3</ele>
        <time>2020-08-07T11:39:35Z</time>
      </trkpt>
      <trkpt lat="45.62485" lon="6.80951">
        <ele>981</ele>
        <time>2020-08-07T11:39:37Z</time>
      </trkpt>
      <trkpt lat="45.62486" lon="6.8096">
        <ele>981.5</ele>
        <time>2020-08-07T11:39:40Z</time>
      </trkpt>
      <trkpt lat="45.62488" lon="6.80974">
        <ele>982.6</ele>
        <time>2020-08-07T11:39:42Z</time>
      </trkpt>
      <trkpt lat="45.6249" lon="6.80982">
        <ele>983.1</ele>
        <time>2020-08-07T11:39:45Z</time>
      </trkpt>
      <trkpt lat="45.62491" lon="6.8099">
        <ele>983.6</ele>
        <time>2020-08-07T11:39:47Z</time>
      </trkpt>
      <trkpt lat="45.62492" lon="6.80994">
        <ele>983.9</ele>
        <time>2020-08-07T11:39:48Z</time>
      </trkpt>
      <trkpt lat="45.62492" lon="6.80998">
        <ele>984.2</ele>
        <time>2020-08-07T11:39:49Z</time>
      </trkpt>
      <trkpt lat="45.62495" lon="6.81012">
        <ele>985.1</ele>
        <time>2020-08-07T11:39:51Z</time>
      </trkpt>
      <trkpt lat="45.62495" lon="6.81016">
        <ele>985.4</ele>
        <time>2020-08-07T11:39:52Z</time>
      </trkpt>
      <trkpt lat="45.62497" lon="6.81027">
        <ele>986.2</ele>
        <time>2020-08-07T11:39:55Z</time>
      </trkpt>
      <trkpt lat="45.62497" lon="6.81033">
        <ele>986.6</ele>
        <time>2020-08-07T11:39:56Z</time>
      </trkpt>
      <trkpt lat="45.62499" lon="6.81043">
        <ele>987.3</ele>
        <time>2020-08-07T11:39:59Z</time>
      </trkpt>
      <trkpt lat="45.62499" lon="6.81047">
        <ele>987.5</ele>
        <time>2020-08-07T11:40:00Z</time>
      </trkpt>
      <trkpt lat="45.62501" lon="6.81052">
        <ele>987.9</ele>
        <time>2020-08-07T11:40:02Z</time>
      </trkpt>
      <trkpt lat="45.62502" lon="6.81059">
        <ele>988.4</ele>
        <time>2020-08-07T11:40:03Z</time>
      </trkpt>
      <trkpt lat="45.62503" lon="6.81065">
        <ele>988.8</ele>
        <time>2020-08-07T11:40:04Z</time>
      </trkpt>
      <trkpt lat="45.62504" lon="6.81073">
        <ele>989.4</ele>
        <time>2020-08-07T11:40:07Z</time>
      </trkpt>
      <trkpt lat="45.62505" lon="6.81083">
        <ele>990</ele>
        <time>2020-08-07T11:40:08Z</time>
      </trkpt>
      <trkpt lat="45.62506" lon="6.81088">
        <ele>990.3</ele>
        <time>2020-08-07T11:40:09Z</time>
      </trkpt>
      <trkpt lat="45.62506" lon="6.81092">
        <ele>990.6</ele>
        <time>2020-08-07T11:40:10Z</time>
      </trkpt>
      <trkpt lat="45.62507" lon="6.81099">
        <ele>991.1</ele>
        <time>2020-08-07T11:40:13Z</time>
      </trkpt>
      <trkpt lat="45.62508" lon="6.81103">
        <ele>991.4</ele>
        <time>2020-08-07T11:40:14Z</time>
      </trkpt>
      <trkpt lat="45.62508" lon="6.81108">
        <ele>991.7</ele>
        <time>2020-08-07T11:40:15Z</time>
      </trkpt>
      <trkpt lat="45.62509" lon="6.81113">
        <ele>992</ele>
        <time>2020-08-07T11:40:16Z</time>
      </trkpt>
      <trkpt lat="45.62509" lon="6.81117">
        <ele>992.3</ele>
        <time>2020-08-07T11:40:17Z</time>
      </trkpt>
      <trkpt lat="45.62511" lon="6.81125">
        <ele>992.8</ele>
        <time>2020-08-07T11:40:19Z</time>
      </trkpt>
      <trkpt lat="45.62511" lon="6.8113">
        <ele>993.1</ele>
        <time>2020-08-07T11:40:20Z</time>
      </trkpt>
      <trkpt lat="45.62513" lon="6.8114">
        <ele>993.9</ele>
        <time>2020-08-07T11:40:21Z</time>
      </trkpt>
      <trkpt lat="45.62514" lon="6.81145">
        <ele>994.3</ele>
        <time>2020-08-07T11:40:23Z</time>
      </trkpt>
      <trkpt lat="45.62517" lon="6.81157">
        <ele>995.2</ele>
        <time>2020-08-07T11:40:25Z</time>
      </trkpt>
      <trkpt lat="45.62521" lon="6.81167">
        <ele>995.6</ele>
        <time>2020-08-07T11:40:28Z</time>
      </trkpt>
      <trkpt lat="45.62526" lon="6.81172">
        <ele>995.6</ele>
        <time>2020-08-07T11:40:31Z</time>
      </trkpt>
      <trkpt lat="45.62537" lon="6.8117">
        <ele>995.9</ele>
        <time>2020-08-07T11:40:33Z</time>
      </trkpt>
      <trkpt lat="45.62542" lon="6.81165">
        <ele>996</ele>
        <time>2020-08-07T11:40:36Z</time>
      </trkpt>
      <trkpt lat="45.62544" lon="6.81161">
        <ele>996.1</ele>
        <time>2020-08-07T11:40:37Z</time>
      </trkpt>
      <trkpt lat="45.62548" lon="6.81153">
        <ele>996.2</ele>
        <time>2020-08-07T11:40:38Z</time>
      </trkpt>
      <trkpt lat="45.6255" lon="6.81147">
        <ele>996.2</ele>
        <time>2020-08-07T11:40:39Z</time>
      </trkpt>
      <trkpt lat="45.62551" lon="6.8114">
        <ele>996.2</ele>
        <time>2020-08-07T11:40:41Z</time>
      </trkpt>
      <trkpt lat="45.62554" lon="6.81127">
        <ele>996.4</ele>
        <time>2020-08-07T11:40:43Z</time>
      </trkpt>
      <trkpt lat="45.62557" lon="6.81117">
        <ele>996.5</ele>
        <time>2020-08-07T11:40:45Z</time>
      </trkpt>
      <trkpt lat="45.62562" lon="6.811">
        <ele>996.7</ele>
        <time>2020-08-07T11:40:47Z</time>
      </trkpt>
      <trkpt lat="45.62565" lon="6.81093">
        <ele>996.9</ele>
        <time>2020-08-07T11:40:50Z</time>
      </trkpt>
      <trkpt lat="45.62568" lon="6.81084">
        <ele>997</ele>
        <time>2020-08-07T11:40:51Z</time>
      </trkpt>
      <trkpt lat="45.6257" lon="6.81078">
        <ele>997.2</ele>
        <time>2020-08-07T11:40:53Z</time>
      </trkpt>
      <trkpt lat="45.62572" lon="6.81073">
        <ele>997.3</ele>
        <time>2020-08-07T11:40:54Z</time>
      </trkpt>
      <trkpt lat="45.62574" lon="6.81069">
        <ele>997.4</ele>
        <time>2020-08-07T11:40:55Z</time>
      </trkpt>
      <trkpt lat="45.62575" lon="6.81065">
        <ele>997.5</ele>
        <time>2020-08-07T11:40:57Z</time>
      </trkpt>
      <trkpt lat="45.62576" lon="6.81061">
        <ele>997.6</ele>
        <time>2020-08-07T11:40:58Z</time>
      </trkpt>
      <trkpt lat="45.62581" lon="6.81047">
        <ele>998</ele>
        <time>2020-08-07T11:41:00Z</time>
      </trkpt>
      <trkpt lat="45.62583" lon="6.81042">
        <ele>998.1</ele>
        <time>2020-08-07T11:41:02Z</time>
      </trkpt>
      <trkpt lat="45.62584" lon="6.81037">
        <ele>998.2</ele>
        <time>2020-08-07T11:41:04Z</time>
      </trkpt>
      <trkpt lat="45.62585" lon="6.81033">
        <ele>998.3</ele>
        <time>2020-08-07T11:41:05Z</time>
      </trkpt>
      <trkpt lat="45.62589" lon="6.81021">
        <ele>998.7</ele>
        <time>2020-08-07T11:41:07Z</time>
      </trkpt>
      <trkpt lat="45.62594" lon="6.81011">
        <ele>998.9</ele>
        <time>2020-08-07T11:41:10Z</time>
      </trkpt>
      <trkpt lat="45.62595" lon="6.81007">
        <ele>999</ele>
        <time>2020-08-07T11:41:11Z</time>
      </trkpt>
      <trkpt lat="45.62597" lon="6.81002">
        <ele>999.1</ele>
        <time>2020-08-07T11:41:12Z</time>
      </trkpt>
      <trkpt lat="45.626" lon="6.80997">
        <ele>999.3</ele>
        <time>2020-08-07T11:41:13Z</time>
      </trkpt>
      <trkpt lat="45.62603" lon="6.80991">
        <ele>999.4</ele>
        <time>2020-08-07T11:41:15Z</time>
      </trkpt>
      <trkpt lat="45.62604" lon="6.80987">
        <ele>999.5</ele>
        <time>2020-08-07T11:41:16Z</time>
      </trkpt>
      <trkpt lat="45.62606" lon="6.80984">
        <ele>999.6</ele>
        <time>2020-08-07T11:41:17Z</time>
      </trkpt>
      <trkpt lat="45.62607" lon="6.80981">
        <ele>999.7</ele>
        <time>2020-08-07T11:41:18Z</time>
      </trkpt>
      <trkpt lat="45.62609" lon="6.80977">
        <ele>999.8</ele>
        <time>2020-08-07T11:41:19Z</time>
      </trkpt>
      <trkpt lat="45.62614" lon="6.8097">
        <ele>1000</ele>
        <time>2020-08-07T11:41:21Z</time>
      </trkpt>
      <trkpt lat="45.62617" lon="6.80966">
        <ele>1000.1</ele>
        <time>2020-08-07T11:41:22Z</time>
      </trkpt>
      <trkpt lat="45.62619" lon="6.80962">
        <ele>1000.2</ele>
        <time>2020-08-07T11:41:24Z</time>
      </trkpt>
      <trkpt lat="45.62625" lon="6.80952">
        <ele>1000.5</ele>
        <time>2020-08-07T11:41:26Z</time>
      </trkpt>
      <trkpt lat="45.62628" lon="6.80946">
        <ele>1000.6</ele>
        <time>2020-08-07T11:41:29Z</time>
      </trkpt>
      <trkpt lat="45.62631" lon="6.80942">
        <ele>1000.7</ele>
        <time>2020-08-07T11:41:30Z</time>
      </trkpt>
      <trkpt lat="45.62635" lon="6.80934">
        <ele>1000.9</ele>
        <time>2020-08-07T11:41:32Z</time>
      </trkpt>
      <trkpt lat="45.6264" lon="6.80928">
        <ele>1001</ele>
        <time>2020-08-07T11:41:33Z</time>
      </trkpt>
      <trkpt lat="45.62645" lon="6.80918">
        <ele>1001.2</ele>
        <time>2020-08-07T11:41:35Z</time>
      </trkpt>
      <trkpt lat="45.62649" lon="6.80912">
        <ele>1001.3</ele>
        <time>2020-08-07T11:41:38Z</time>
      </trkpt>
      <trkpt lat="45.62651" lon="6.80909">
        <ele>1001.4</ele>
        <time>2020-08-07T11:41:39Z</time>
      </trkpt>
      <trkpt lat="45.62658" lon="6.80905">
        <ele>1001.5</ele>
        <time>2020-08-07T11:41:41Z</time>
      </trkpt>
      <trkpt lat="45.62666" lon="6.80905">
        <ele>1001.6</ele>
        <time>2020-08-07T11:41:43Z</time>
      </trkpt>
      <trkpt lat="45.62672" lon="6.80909">
        <ele>1001.6</ele>
        <time>2020-08-07T11:41:44Z</time>
      </trkpt>
      <trkpt lat="45.62675" lon="6.80915">
        <ele>1002.1</ele>
        <time>2020-08-07T11:41:46Z</time>
      </trkpt>
      <trkpt lat="45.62678" lon="6.80924">
        <ele>1002.7</ele>
        <time>2020-08-07T11:41:48Z</time>
      </trkpt>
      <trkpt lat="45.62677" lon="6.80934">
        <ele>1003.3</ele>
        <time>2020-08-07T11:41:49Z</time>
      </trkpt>
      <trkpt lat="45.62678" lon="6.80942">
        <ele>1003.8</ele>
        <time>2020-08-07T11:41:50Z</time>
      </trkpt>
      <trkpt lat="45.62678" lon="6.8095">
        <ele>1004.2</ele>
        <time>2020-08-07T11:41:53Z</time>
      </trkpt>
      <trkpt lat="45.62678" lon="6.80955">
        <ele>1004.5</ele>
        <time>2020-08-07T11:41:54Z</time>
      </trkpt>
      <trkpt lat="45.62678" lon="6.80967">
        <ele>1005.2</ele>
        <time>2020-08-07T11:41:55Z</time>
      </trkpt>
      <trkpt lat="45.62677" lon="6.80973">
        <ele>1005.6</ele>
        <time>2020-08-07T11:41:56Z</time>
      </trkpt>
      <trkpt lat="45.62678" lon="6.80978">
        <ele>1005.9</ele>
        <time>2020-08-07T11:41:57Z</time>
      </trkpt>
      <trkpt lat="45.62678" lon="6.80983">
        <ele>1006.3</ele>
        <time>2020-08-07T11:41:59Z</time>
      </trkpt>
      <trkpt lat="45.62678" lon="6.8099">
        <ele>1006.7</ele>
        <time>2020-08-07T11:42:00Z</time>
      </trkpt>
      <trkpt lat="45.62678" lon="6.80996">
        <ele>1007.1</ele>
        <time>2020-08-07T11:42:01Z</time>
      </trkpt>
      <trkpt lat="45.62677" lon="6.81003">
        <ele>1007.5</ele>
        <time>2020-08-07T11:42:03Z</time>
      </trkpt>
      <trkpt lat="45.62677" lon="6.81008">
        <ele>1007.9</ele>
        <time>2020-08-07T11:42:05Z</time>
      </trkpt>
      <trkpt lat="45.62677" lon="6.81013">
        <ele>1008.2</ele>
        <time>2020-08-07T11:42:06Z</time>
      </trkpt>
      <trkpt lat="45.62676" lon="6.81021">
        <ele>1008.7</ele>
        <time>2020-08-07T11:42:07Z</time>
      </trkpt>
      <trkpt lat="45.62675" lon="6.81033">
        <ele>1009.5</ele>
        <time>2020-08-07T11:42:09Z</time>
      </trkpt>
      <trkpt lat="45.62676" lon="6.81039">
        <ele>1009.9</ele>
        <time>2020-08-07T11:42:11Z</time>
      </trkpt>
      <trkpt lat="45.62675" lon="6.8105">
        <ele>1010.7</ele>
        <time>2020-08-07T11:42:13Z</time>
      </trkpt>
      <trkpt lat="45.62675" lon="6.81056">
        <ele>1011.1</ele>
        <time>2020-08-07T11:42:15Z</time>
      </trkpt>
      <trkpt lat="45.62675" lon="6.81061">
        <ele>1011.4</ele>
        <time>2020-08-07T11:42:17Z</time>
      </trkpt>
      <trkpt lat="45.62675" lon="6.81065">
        <ele>1011.8</ele>
        <time>2020-08-07T11:42:18Z</time>
      </trkpt>
      <trkpt lat="45.62675" lon="6.81073">
        <ele>1012.3</ele>
        <time>2020-08-07T11:42:19Z</time>
      </trkpt>
      <trkpt lat="45.62676" lon="6.81084">
        <ele>1013.1</ele>
        <time>2020-08-07T11:42:21Z</time>
      </trkpt>
      <trkpt lat="45.62678" lon="6.81098">
        <ele>1014</ele>
        <time>2020-08-07T11:42:24Z</time>
      </trkpt>
      <trkpt lat="45.62679" lon="6.81105">
        <ele>1014.5</ele>
        <time>2020-08-07T11:42:26Z</time>
      </trkpt>
      <trkpt lat="45.6268" lon="6.81112">
        <ele>1014.9</ele>
        <time>2020-08-07T11:42:27Z</time>
      </trkpt>
      <trkpt lat="45.62683" lon="6.81125">
        <ele>1015.7</ele>
        <time>2020-08-07T11:42:30Z</time>
      </trkpt>
      <trkpt lat="45.62683" lon="6.81131">
        <ele>1016.2</ele>
        <time>2020-08-07T11:42:32Z</time>
      </trkpt>
      <trkpt lat="45.62684" lon="6.81141">
        <ele>1016.8</ele>
        <time>2020-08-07T11:42:34Z</time>
      </trkpt>
      <trkpt lat="45.62685" lon="6.81146">
        <ele>1017.1</ele>
        <time>2020-08-07T11:42:35Z</time>
      </trkpt>
      <trkpt lat="45.62686" lon="6.81153">
        <ele>1017.5</ele>
        <time>2020-08-07T11:42:38Z</time>
      </trkpt>
      <trkpt lat="45.62687" lon="6.81163">
        <ele>1018.1</ele>
        <time>2020-08-07T11:42:40Z</time>
      </trkpt>
      <trkpt lat="45.62686" lon="6.81175">
        <ele>1018.8</ele>
        <time>2020-08-07T11:42:41Z</time>
      </trkpt>
      <trkpt lat="45.62686" lon="6.81182">
        <ele>1019.2</ele>
        <time>2020-08-07T11:42:44Z</time>
      </trkpt>
      <trkpt lat="45.62686" lon="6.8119">
        <ele>1019.8</ele>
        <time>2020-08-07T11:42:46Z</time>
      </trkpt>
      <trkpt lat="45.62685" lon="6.81197">
        <ele>1020.2</ele>
        <time>2020-08-07T11:42:47Z</time>
      </trkpt>
      <trkpt lat="45.62684" lon="6.81206">
        <ele>1020.7</ele>
        <time>2020-08-07T11:42:49Z</time>
      </trkpt>
      <trkpt lat="45.62682" lon="6.81212">
        <ele>1021.2</ele>
        <time>2020-08-07T11:42:50Z</time>
      </trkpt>
      <trkpt lat="45.62681" lon="6.81219">
        <ele>1021.6</ele>
        <time>2020-08-07T11:42:51Z</time>
      </trkpt>
      <trkpt lat="45.6268" lon="6.81225">
        <ele>1022</ele>
        <time>2020-08-07T11:42:53Z</time>
      </trkpt>
      <trkpt lat="45.62678" lon="6.81231">
        <ele>1022.4</ele>
        <time>2020-08-07T11:42:54Z</time>
      </trkpt>
      <trkpt lat="45.62675" lon="6.81237">
        <ele>1022.9</ele>
        <time>2020-08-07T11:42:57Z</time>
      </trkpt>
      <trkpt lat="45.6267" lon="6.81243">
        <ele>1023.2</ele>
        <time>2020-08-07T11:42:59Z</time>
      </trkpt>
      <trkpt lat="45.62665" lon="6.81247">
        <ele>1023.5</ele>
        <time>2020-08-07T11:43:00Z</time>
      </trkpt>
      <trkpt lat="45.6266" lon="6.81252">
        <ele>1023.8</ele>
        <time>2020-08-07T11:43:02Z</time>
      </trkpt>
      <trkpt lat="45.62654" lon="6.81257">
        <ele>1024.2</ele>
        <time>2020-08-07T11:43:04Z</time>
      </trkpt>
      <trkpt lat="45.62651" lon="6.8126">
        <ele>1024.4</ele>
        <time>2020-08-07T11:43:06Z</time>
      </trkpt>
      <trkpt lat="45.62646" lon="6.81265">
        <ele>1024.7</ele>
        <time>2020-08-07T11:43:07Z</time>
      </trkpt>
      <trkpt lat="45.62643" lon="6.81266">
        <ele>1024.9</ele>
        <time>2020-08-07T11:43:08Z</time>
      </trkpt>
      <trkpt lat="45.62639" lon="6.81268">
        <ele>1025.1</ele>
        <time>2020-08-07T11:43:10Z</time>
      </trkpt>
      <trkpt lat="45.62631" lon="6.81278">
        <ele>1025.7</ele>
        <time>2020-08-07T11:43:12Z</time>
      </trkpt>
      <trkpt lat="45.62627" lon="6.81282">
        <ele>1026</ele>
        <time>2020-08-07T11:43:14Z</time>
      </trkpt>
      <trkpt lat="45.6262" lon="6.8129">
        <ele>1026.6</ele>
        <time>2020-08-07T11:43:16Z</time>
      </trkpt>
      <trkpt lat="45.62616" lon="6.81293">
        <ele>1026.9</ele>
        <time>2020-08-07T11:43:19Z</time>
      </trkpt>
      <trkpt lat="45.62611" lon="6.81297">
        <ele>1027.2</ele>
        <time>2020-08-07T11:43:21Z</time>
      </trkpt>
      <trkpt lat="45.62608" lon="6.81298">
        <ele>1027.4</ele>
        <time>2020-08-07T11:43:22Z</time>
      </trkpt>
      <trkpt lat="45.62602" lon="6.81298">
        <ele>1027.8</ele>
        <time>2020-08-07T11:43:23Z</time>
      </trkpt>
      <trkpt lat="45.62594" lon="6.81298">
        <ele>1028.2</ele>
        <time>2020-08-07T11:43:25Z</time>
      </trkpt>
      <trkpt lat="45.62591" lon="6.81299">
        <ele>1028.5</ele>
        <time>2020-08-07T11:43:26Z</time>
      </trkpt>
      <trkpt lat="45.62588" lon="6.813">
        <ele>1028.6</ele>
        <time>2020-08-07T11:43:27Z</time>
      </trkpt>
      <trkpt lat="45.6258" lon="6.81299">
        <ele>1029.1</ele>
        <time>2020-08-07T11:43:30Z</time>
      </trkpt>
      <trkpt lat="45.62577" lon="6.81299">
        <ele>1029.3</ele>
        <time>2020-08-07T11:43:31Z</time>
      </trkpt>
      <trkpt lat="45.62574" lon="6.81297">
        <ele>1029.5</ele>
        <time>2020-08-07T11:43:33Z</time>
      </trkpt>
      <trkpt lat="45.62565" lon="6.81289">
        <ele>1030.1</ele>
        <time>2020-08-07T11:43:35Z</time>
      </trkpt>
      <trkpt lat="45.62561" lon="6.81285">
        <ele>1030.4</ele>
        <time>2020-08-07T11:43:38Z</time>
      </trkpt>
      <trkpt lat="45.62556" lon="6.8128">
        <ele>1030.8</ele>
        <time>2020-08-07T11:43:40Z</time>
      </trkpt>
      <trkpt lat="45.62553" lon="6.81278">
        <ele>1031</ele>
        <time>2020-08-07T11:43:41Z</time>
      </trkpt>
      <trkpt lat="45.62548" lon="6.81273">
        <ele>1031.3</ele>
        <time>2020-08-07T11:43:42Z</time>
      </trkpt>
      <trkpt lat="45.62544" lon="6.8127">
        <ele>1031.5</ele>
        <time>2020-08-07T11:43:44Z</time>
      </trkpt>
      <trkpt lat="45.62538" lon="6.81267">
        <ele>1031.8</ele>
        <time>2020-08-07T11:43:45Z</time>
      </trkpt>
      <trkpt lat="45.62533" lon="6.81266">
        <ele>1032.2</ele>
        <time>2020-08-07T11:43:47Z</time>
      </trkpt>
      <trkpt lat="45.62523" lon="6.81268">
        <ele>1032.7</ele>
        <time>2020-08-07T11:43:49Z</time>
      </trkpt>
      <trkpt lat="45.62515" lon="6.81274">
        <ele>1033.1</ele>
        <time>2020-08-07T11:43:52Z</time>
      </trkpt>
      <trkpt lat="45.62511" lon="6.81277">
        <ele>1033.3</ele>
        <time>2020-08-07T11:43:53Z</time>
      </trkpt>
      <trkpt lat="45.62508" lon="6.81281">
        <ele>1033.5</ele>
        <time>2020-08-07T11:43:55Z</time>
      </trkpt>
      <trkpt lat="45.625" lon="6.81289">
        <ele>1033.9</ele>
        <time>2020-08-07T11:43:57Z</time>
      </trkpt>
      <trkpt lat="45.62496" lon="6.81293">
        <ele>1034.2</ele>
        <time>2020-08-07T11:43:59Z</time>
      </trkpt>
      <trkpt lat="45.62492" lon="6.81296">
        <ele>1034.3</ele>
        <time>2020-08-07T11:44:00Z</time>
      </trkpt>
      <trkpt lat="45.62487" lon="6.81301">
        <ele>1034.6</ele>
        <time>2020-08-07T11:44:01Z</time>
      </trkpt>
      <trkpt lat="45.62478" lon="6.81309">
        <ele>1035.1</ele>
        <time>2020-08-07T11:44:04Z</time>
      </trkpt>
      <trkpt lat="45.62475" lon="6.81311">
        <ele>1035.2</ele>
        <time>2020-08-07T11:44:06Z</time>
      </trkpt>
      <trkpt lat="45.62471" lon="6.81314">
        <ele>1035.4</ele>
        <time>2020-08-07T11:44:08Z</time>
      </trkpt>
      <trkpt lat="45.62466" lon="6.81318">
        <ele>1035.7</ele>
        <time>2020-08-07T11:44:09Z</time>
      </trkpt>
      <trkpt lat="45.62461" lon="6.81321">
        <ele>1036</ele>
        <time>2020-08-07T11:44:10Z</time>
      </trkpt>
      <trkpt lat="45.62457" lon="6.81323">
        <ele>1036.1</ele>
        <time>2020-08-07T11:44:11Z</time>
      </trkpt>
      <trkpt lat="45.62453" lon="6.81327">
        <ele>1036.4</ele>
        <time>2020-08-07T11:44:14Z</time>
      </trkpt>
      <trkpt lat="45.6245" lon="6.81329">
        <ele>1036.6</ele>
        <time>2020-08-07T11:44:15Z</time>
      </trkpt>
      <trkpt lat="45.62447" lon="6.81332">
        <ele>1036.8</ele>
        <time>2020-08-07T11:44:16Z</time>
      </trkpt>
      <trkpt lat="45.62442" lon="6.81337">
        <ele>1037.1</ele>
        <time>2020-08-07T11:44:17Z</time>
      </trkpt>
      <trkpt lat="45.62434" lon="6.81345">
        <ele>1037.5</ele>
        <time>2020-08-07T11:44:19Z</time>
      </trkpt>
      <trkpt lat="45.62431" lon="6.81349">
        <ele>1037.7</ele>
        <time>2020-08-07T11:44:22Z</time>
      </trkpt>
      <trkpt lat="45.62426" lon="6.81357">
        <ele>1038</ele>
        <time>2020-08-07T11:44:24Z</time>
      </trkpt>
      <trkpt lat="45.62422" lon="6.81366">
        <ele>1038.4</ele>
        <time>2020-08-07T11:44:25Z</time>
      </trkpt>
      <trkpt lat="45.6242" lon="6.81372">
        <ele>1038.6</ele>
        <time>2020-08-07T11:44:27Z</time>
      </trkpt>
      <trkpt lat="45.62417" lon="6.81379">
        <ele>1038.8</ele>
        <time>2020-08-07T11:44:29Z</time>
      </trkpt>
      <trkpt lat="45.62415" lon="6.81385">
        <ele>1039</ele>
        <time>2020-08-07T11:44:31Z</time>
      </trkpt>
      <trkpt lat="45.62409" lon="6.81398">
        <ele>1039.5</ele>
        <time>2020-08-07T11:44:33Z</time>
      </trkpt>
      <trkpt lat="45.62405" lon="6.81407">
        <ele>1039.9</ele>
        <time>2020-08-07T11:44:36Z</time>
      </trkpt>
      <trkpt lat="45.62403" lon="6.81411">
        <ele>1040.1</ele>
        <time>2020-08-07T11:44:37Z</time>
      </trkpt>
      <trkpt lat="45.62401" lon="6.81414">
        <ele>1040.3</ele>
        <time>2020-08-07T11:44:38Z</time>
      </trkpt>
      <trkpt lat="45.62396" lon="6.81419">
        <ele>1040.6</ele>
        <time>2020-08-07T11:44:40Z</time>
      </trkpt>
      <trkpt lat="45.62393" lon="6.81422">
        <ele>1040.8</ele>
        <time>2020-08-07T11:44:41Z</time>
      </trkpt>
      <trkpt lat="45.62391" lon="6.81424">
        <ele>1040.9</ele>
        <time>2020-08-07T11:44:42Z</time>
      </trkpt>
      <trkpt lat="45.62388" lon="6.81426">
        <ele>1041.1</ele>
        <time>2020-08-07T11:44:43Z</time>
      </trkpt>
      <trkpt lat="45.62385" lon="6.81428">
        <ele>1041.3</ele>
        <time>2020-08-07T11:44:44Z</time>
      </trkpt>
      <trkpt lat="45.62382" lon="6.81431">
        <ele>1041.5</ele>
        <time>2020-08-07T11:44:46Z</time>
      </trkpt>
      <trkpt lat="45.62378" lon="6.81434">
        <ele>1041.8</ele>
        <time>2020-08-07T11:44:47Z</time>
      </trkpt>
      <trkpt lat="45.62374" lon="6.81437">
        <ele>1042</ele>
        <time>2020-08-07T11:44:49Z</time>
      </trkpt>
      <trkpt lat="45.6237" lon="6.81439">
        <ele>1042.2</ele>
        <time>2020-08-07T11:44:51Z</time>
      </trkpt>
      <trkpt lat="45.62359" lon="6.81443">
        <ele>1042.8</ele>
        <time>2020-08-07T11:44:53Z</time>
      </trkpt>
      <trkpt lat="45.62354" lon="6.81445">
        <ele>1043.1</ele>
        <time>2020-08-07T11:44:56Z</time>
      </trkpt>
      <trkpt lat="45.62351" lon="6.81446">
        <ele>1043.3</ele>
        <time>2020-08-07T11:44:57Z</time>
      </trkpt>
      <trkpt lat="45.62345" lon="6.81448">
        <ele>1043.6</ele>
        <time>2020-08-07T11:44:58Z</time>
      </trkpt>
      <trkpt lat="45.62341" lon="6.81449">
        <ele>1043.8</ele>
        <time>2020-08-07T11:45:00Z</time>
      </trkpt>
      <trkpt lat="45.62335" lon="6.8145">
        <ele>1044.1</ele>
        <time>2020-08-07T11:45:01Z</time>
      </trkpt>
      <trkpt lat="45.62331" lon="6.81452">
        <ele>1044.3</ele>
        <time>2020-08-07T11:45:03Z</time>
      </trkpt>
      <trkpt lat="45.62324" lon="6.81456">
        <ele>1044.8</ele>
        <time>2020-08-07T11:45:04Z</time>
      </trkpt>
      <trkpt lat="45.62321" lon="6.81458">
        <ele>1045</ele>
        <time>2020-08-07T11:45:05Z</time>
      </trkpt>
      <trkpt lat="45.62316" lon="6.81461">
        <ele>1045.2</ele>
        <time>2020-08-07T11:45:07Z</time>
      </trkpt>
      <trkpt lat="45.62308" lon="6.81466">
        <ele>1045.6</ele>
        <time>2020-08-07T11:45:09Z</time>
      </trkpt>
      <trkpt lat="45.62305" lon="6.81469">
        <ele>1045.8</ele>
        <time>2020-08-07T11:45:10Z</time>
      </trkpt>
      <trkpt lat="45.62303" lon="6.81471">
        <ele>1046</ele>
        <time>2020-08-07T11:45:11Z</time>
      </trkpt>
      <trkpt lat="45.623" lon="6.81474">
        <ele>1046.1</ele>
        <time>2020-08-07T11:45:12Z</time>
      </trkpt>
      <trkpt lat="45.62297" lon="6.81477">
        <ele>1046.3</ele>
        <time>2020-08-07T11:45:14Z</time>
      </trkpt>
      <trkpt lat="45.62293" lon="6.81482">
        <ele>1046.6</ele>
        <time>2020-08-07T11:45:16Z</time>
      </trkpt>
      <trkpt lat="45.6229" lon="6.81485">
        <ele>1046.7</ele>
        <time>2020-08-07T11:45:18Z</time>
      </trkpt>
      <trkpt lat="45.62285" lon="6.81489">
        <ele>1047</ele>
        <time>2020-08-07T11:45:19Z</time>
      </trkpt>
      <trkpt lat="45.62282" lon="6.8149">
        <ele>1047.2</ele>
        <time>2020-08-07T11:45:21Z</time>
      </trkpt>
      <trkpt lat="45.62276" lon="6.81495">
        <ele>1047.5</ele>
        <time>2020-08-07T11:45:23Z</time>
      </trkpt>
      <trkpt lat="45.6227" lon="6.815">
        <ele>1047.8</ele>
        <time>2020-08-07T11:45:25Z</time>
      </trkpt>
      <trkpt lat="45.62267" lon="6.81502">
        <ele>1048</ele>
        <time>2020-08-07T11:45:26Z</time>
      </trkpt>
      <trkpt lat="45.62261" lon="6.81508">
        <ele>1048.3</ele>
        <time>2020-08-07T11:45:28Z</time>
      </trkpt>
      <trkpt lat="45.62257" lon="6.81514">
        <ele>1048.6</ele>
        <time>2020-08-07T11:45:30Z</time>
      </trkpt>
      <trkpt lat="45.62251" lon="6.81521">
        <ele>1049</ele>
        <time>2020-08-07T11:45:31Z</time>
      </trkpt>
      <trkpt lat="45.62248" lon="6.81526">
        <ele>1049.2</ele>
        <time>2020-08-07T11:45:34Z</time>
      </trkpt>
      <trkpt lat="45.62245" lon="6.81529">
        <ele>1049.4</ele>
        <time>2020-08-07T11:45:35Z</time>
      </trkpt>
      <trkpt lat="45.62241" lon="6.81535">
        <ele>1049.6</ele>
        <time>2020-08-07T11:45:37Z</time>
      </trkpt>
      <trkpt lat="45.62239" lon="6.81538">
        <ele>1049.8</ele>
        <time>2020-08-07T11:45:38Z</time>
      </trkpt>
      <trkpt lat="45.62235" lon="6.81546">
        <ele>1050</ele>
        <time>2020-08-07T11:45:40Z</time>
      </trkpt>
      <trkpt lat="45.6223" lon="6.81561">
        <ele>1050.5</ele>
        <time>2020-08-07T11:45:42Z</time>
      </trkpt>
      <trkpt lat="45.62228" lon="6.81571">
        <ele>1050.9</ele>
        <time>2020-08-07T11:45:45Z</time>
      </trkpt>
      <trkpt lat="45.62227" lon="6.81575">
        <ele>1051</ele>
        <time>2020-08-07T11:45:46Z</time>
      </trkpt>
      <trkpt lat="45.62225" lon="6.81579">
        <ele>1051.2</ele>
        <time>2020-08-07T11:45:47Z</time>
      </trkpt>
      <trkpt lat="45.62224" lon="6.81585">
        <ele>1051.3</ele>
        <time>2020-08-07T11:45:49Z</time>
      </trkpt>
      <trkpt lat="45.62223" lon="6.81589">
        <ele>1051.5</ele>
        <time>2020-08-07T11:45:50Z</time>
      </trkpt>
      <trkpt lat="45.62221" lon="6.81603">
        <ele>1051.9</ele>
        <time>2020-08-07T11:45:52Z</time>
      </trkpt>
      <trkpt lat="45.6222" lon="6.81609">
        <ele>1052.1</ele>
        <time>2020-08-07T11:45:54Z</time>
      </trkpt>
      <trkpt lat="45.62216" lon="6.8162">
        <ele>1052.5</ele>
        <time>2020-08-07T11:45:56Z</time>
      </trkpt>
      <trkpt lat="45.62213" lon="6.81624">
        <ele>1052.7</ele>
        <time>2020-08-07T11:45:58Z</time>
      </trkpt>
      <trkpt lat="45.62211" lon="6.81627">
        <ele>1052.8</ele>
        <time>2020-08-07T11:45:59Z</time>
      </trkpt>
      <trkpt lat="45.62208" lon="6.8163">
        <ele>1053</ele>
        <time>2020-08-07T11:46:00Z</time>
      </trkpt>
      <trkpt lat="45.62205" lon="6.81634">
        <ele>1053.2</ele>
        <time>2020-08-07T11:46:01Z</time>
      </trkpt>
      <trkpt lat="45.62202" lon="6.81637">
        <ele>1053.4</ele>
        <time>2020-08-07T11:46:02Z</time>
      </trkpt>
      <trkpt lat="45.62199" lon="6.81639">
        <ele>1053.6</ele>
        <time>2020-08-07T11:46:03Z</time>
      </trkpt>
      <trkpt lat="45.62197" lon="6.81642">
        <ele>1053.7</ele>
        <time>2020-08-07T11:46:04Z</time>
      </trkpt>
      <trkpt lat="45.62195" lon="6.81645">
        <ele>1053.9</ele>
        <time>2020-08-07T11:46:05Z</time>
      </trkpt>
      <trkpt lat="45.62191" lon="6.81648">
        <ele>1054.1</ele>
        <time>2020-08-07T11:46:08Z</time>
      </trkpt>
      <trkpt lat="45.62188" lon="6.81652">
        <ele>1054.3</ele>
        <time>2020-08-07T11:46:09Z</time>
      </trkpt>
      <trkpt lat="45.62181" lon="6.81658">
        <ele>1054.7</ele>
        <time>2020-08-07T11:46:11Z</time>
      </trkpt>
      <trkpt lat="45.62177" lon="6.81661">
        <ele>1054.9</ele>
        <time>2020-08-07T11:46:12Z</time>
      </trkpt>
      <trkpt lat="45.62173" lon="6.81663">
        <ele>1055.1</ele>
        <time>2020-08-07T11:46:15Z</time>
      </trkpt>
      <trkpt lat="45.62171" lon="6.81666">
        <ele>1055.3</ele>
        <time>2020-08-07T11:46:16Z</time>
      </trkpt>
      <trkpt lat="45.62167" lon="6.81671">
        <ele>1055.6</ele>
        <time>2020-08-07T11:46:17Z</time>
      </trkpt>
      <trkpt lat="45.62164" lon="6.81674">
        <ele>1055.7</ele>
        <time>2020-08-07T11:46:18Z</time>
      </trkpt>
      <trkpt lat="45.62159" lon="6.81679">
        <ele>1056</ele>
        <time>2020-08-07T11:46:20Z</time>
      </trkpt>
      <trkpt lat="45.62156" lon="6.81682">
        <ele>1056.2</ele>
        <time>2020-08-07T11:46:21Z</time>
      </trkpt>
      <trkpt lat="45.62146" lon="6.81692">
        <ele>1056.7</ele>
        <time>2020-08-07T11:46:24Z</time>
      </trkpt>
      <trkpt lat="45.62142" lon="6.81697">
        <ele>1056.9</ele>
        <time>2020-08-07T11:46:26Z</time>
      </trkpt>
      <trkpt lat="45.62138" lon="6.81704">
        <ele>1057.2</ele>
        <time>2020-08-07T11:46:28Z</time>
      </trkpt>
      <trkpt lat="45.62133" lon="6.81711">
        <ele>1057.4</ele>
        <time>2020-08-07T11:46:30Z</time>
      </trkpt>
      <trkpt lat="45.6213" lon="6.81716">
        <ele>1057.6</ele>
        <time>2020-08-07T11:46:32Z</time>
      </trkpt>
      <trkpt lat="45.62125" lon="6.81722">
        <ele>1057.8</ele>
        <time>2020-08-07T11:46:33Z</time>
      </trkpt>
      <trkpt lat="45.62119" lon="6.81733">
        <ele>1058.2</ele>
        <time>2020-08-07T11:46:35Z</time>
      </trkpt>
      <trkpt lat="45.62115" lon="6.81739">
        <ele>1058.4</ele>
        <time>2020-08-07T11:46:38Z</time>
      </trkpt>
      <trkpt lat="45.62113" lon="6.81743">
        <ele>1058.7</ele>
        <time>2020-08-07T11:46:39Z</time>
      </trkpt>
      <trkpt lat="45.62109" lon="6.81752">
        <ele>1059.3</ele>
        <time>2020-08-07T11:46:41Z</time>
      </trkpt>
      <trkpt lat="45.62106" lon="6.8176">
        <ele>1059.7</ele>
        <time>2020-08-07T11:46:43Z</time>
      </trkpt>
      <trkpt lat="45.62104" lon="6.81765">
        <ele>1060</ele>
        <time>2020-08-07T11:46:44Z</time>
      </trkpt>
      <trkpt lat="45.62101" lon="6.81773">
        <ele>1060.3</ele>
        <time>2020-08-07T11:46:46Z</time>
      </trkpt>
      <trkpt lat="45.62098" lon="6.81782">
        <ele>1060.7</ele>
        <time>2020-08-07T11:46:47Z</time>
      </trkpt>
      <trkpt lat="45.62097" lon="6.81786">
        <ele>1060.9</ele>
        <time>2020-08-07T11:46:48Z</time>
      </trkpt>
      <trkpt lat="45.62095" lon="6.81792">
        <ele>1061.1</ele>
        <time>2020-08-07T11:46:49Z</time>
      </trkpt>
      <trkpt lat="45.62093" lon="6.81801">
        <ele>1061.5</ele>
        <time>2020-08-07T11:46:51Z</time>
      </trkpt>
      <trkpt lat="45.62091" lon="6.81807">
        <ele>1061.8</ele>
        <time>2020-08-07T11:46:53Z</time>
      </trkpt>
      <trkpt lat="45.62088" lon="6.81816">
        <ele>1062.2</ele>
        <time>2020-08-07T11:46:54Z</time>
      </trkpt>
      <trkpt lat="45.62086" lon="6.81822">
        <ele>1062.5</ele>
        <time>2020-08-07T11:46:56Z</time>
      </trkpt>
      <trkpt lat="45.62083" lon="6.81829">
        <ele>1062.8</ele>
        <time>2020-08-07T11:46:57Z</time>
      </trkpt>
      <trkpt lat="45.62082" lon="6.81835">
        <ele>1063</ele>
        <time>2020-08-07T11:46:58Z</time>
      </trkpt>
      <trkpt lat="45.6208" lon="6.8184">
        <ele>1063.3</ele>
        <time>2020-08-07T11:46:59Z</time>
      </trkpt>
      <trkpt lat="45.62079" lon="6.81845">
        <ele>1063.5</ele>
        <time>2020-08-07T11:47:00Z</time>
      </trkpt>
      <trkpt lat="45.62078" lon="6.8185">
        <ele>1063.7</ele>
        <time>2020-08-07T11:47:01Z</time>
      </trkpt>
      <trkpt lat="45.62077" lon="6.81854">
        <ele>1063.9</ele>
        <time>2020-08-07T11:47:02Z</time>
      </trkpt>
      <trkpt lat="45.62076" lon="6.81859">
        <ele>1064.1</ele>
        <time>2020-08-07T11:47:03Z</time>
      </trkpt>
      <trkpt lat="45.62074" lon="6.81868">
        <ele>1064.5</ele>
        <time>2020-08-07T11:47:05Z</time>
      </trkpt>
      <trkpt lat="45.62074" lon="6.81873">
        <ele>1064.7</ele>
        <time>2020-08-07T11:47:06Z</time>
      </trkpt>
      <trkpt lat="45.62073" lon="6.81879">
        <ele>1064.9</ele>
        <time>2020-08-07T11:47:07Z</time>
      </trkpt>
      <trkpt lat="45.62073" lon="6.81886">
        <ele>1065.2</ele>
        <time>2020-08-07T11:47:09Z</time>
      </trkpt>
      <trkpt lat="45.62073" lon="6.81891">
        <ele>1065.4</ele>
        <time>2020-08-07T11:47:11Z</time>
      </trkpt>
      <trkpt lat="45.62073" lon="6.81896">
        <ele>1065.6</ele>
        <time>2020-08-07T11:47:12Z</time>
      </trkpt>
      <trkpt lat="45.62071" lon="6.81907">
        <ele>1066</ele>
        <time>2020-08-07T11:47:14Z</time>
      </trkpt>
      <trkpt lat="45.62069" lon="6.81919">
        <ele>1066.3</ele>
        <time>2020-08-07T11:47:16Z</time>
      </trkpt>
      <trkpt lat="45.62066" lon="6.81937">
        <ele>1066.8</ele>
        <time>2020-08-07T11:47:18Z</time>
      </trkpt>
      <trkpt lat="45.62064" lon="6.81942">
        <ele>1066.9</ele>
        <time>2020-08-07T11:47:19Z</time>
      </trkpt>
      <trkpt lat="45.62058" lon="6.81956">
        <ele>1067.4</ele>
        <time>2020-08-07T11:47:22Z</time>
      </trkpt>
      <trkpt lat="45.62056" lon="6.81961">
        <ele>1067.6</ele>
        <time>2020-08-07T11:47:24Z</time>
      </trkpt>
      <trkpt lat="45.62053" lon="6.81966">
        <ele>1067.7</ele>
        <time>2020-08-07T11:47:25Z</time>
      </trkpt>
      <trkpt lat="45.62052" lon="6.8197">
        <ele>1067.9</ele>
        <time>2020-08-07T11:47:26Z</time>
      </trkpt>
      <trkpt lat="45.62049" lon="6.81978">
        <ele>1068.1</ele>
        <time>2020-08-07T11:47:29Z</time>
      </trkpt>
      <trkpt lat="45.62047" lon="6.81981">
        <ele>1068.2</ele>
        <time>2020-08-07T11:47:30Z</time>
      </trkpt>
      <trkpt lat="45.62043" lon="6.81988">
        <ele>1068.5</ele>
        <time>2020-08-07T11:47:31Z</time>
      </trkpt>
      <trkpt lat="45.62041" lon="6.81996">
        <ele>1068.8</ele>
        <time>2020-08-07T11:47:34Z</time>
      </trkpt>
      <trkpt lat="45.62038" lon="6.82001">
        <ele>1069</ele>
        <time>2020-08-07T11:47:36Z</time>
      </trkpt>
      <trkpt lat="45.62038" lon="6.82002">
        <ele>1069</ele>
        <time>2020-08-07T11:47:37Z</time>
      </trkpt>
      <trkpt lat="45.62038" lon="6.82002">
        <ele>1069.1</ele>
        <time>2020-08-07T11:47:39Z</time>
      </trkpt>
      <trkpt lat="45.62038" lon="6.82004">
        <ele>1069.1</ele>
        <time>2020-08-07T11:47:40Z</time>
      </trkpt>
      <trkpt lat="45.62038" lon="6.82004">
        <ele>1069.1</ele>
        <time>2020-08-07T11:47:42Z</time>
      </trkpt>
      <trkpt lat="45.62038" lon="6.82004">
        <ele>1069.2</ele>
        <time>2020-08-07T11:47:44Z</time>
      </trkpt>
      <trkpt lat="45.62038" lon="6.82005">
        <ele>1069.2</ele>
        <time>2020-08-07T11:47:47Z</time>
      </trkpt>
      <trkpt lat="45.62038" lon="6.82005">
        <ele>1069.2</ele>
        <time>2020-08-07T11:47:48Z</time>
      </trkpt>
      <trkpt lat="45.62038" lon="6.82005">
        <ele>1069.2</ele>
        <time>2020-08-07T11:47:49Z</time>
      </trkpt>
      <trkpt lat="45.62038" lon="6.82005">
        <ele>1069.2</ele>
        <time>2020-08-07T11:47:50Z</time>
      </trkpt>
      <trkpt lat="45.62038" lon="6.82006">
        <ele>1069.2</ele>
        <time>2020-08-07T11:47:52Z</time>
      </trkpt>
      <trkpt lat="45.62038" lon="6.82006">
        <ele>1069.2</ele>
        <time>2020-08-07T11:47:53Z</time>
      </trkpt>
      <trkpt lat="45.62039" lon="6.82005">
        <ele>1069.3</ele>
        <time>2020-08-07T11:47:55Z</time>
      </trkpt>
      <trkpt lat="45.62037" lon="6.82003">
        <ele>1069.4</ele>
        <time>2020-08-07T11:50:08Z</time>
      </trkpt>
      <trkpt lat="45.62033" lon="6.82008">
        <ele>1069.7</ele>
        <time>2020-08-07T11:50:11Z</time>
      </trkpt>
      <trkpt lat="45.62031" lon="6.8201">
        <ele>1069.9</ele>
        <time>2020-08-07T11:50:14Z</time>
      </trkpt>
      <trkpt lat="45.62028" lon="6.82014">
        <ele>1070.1</ele>
        <time>2020-08-07T11:50:15Z</time>
      </trkpt>
      <trkpt lat="45.62026" lon="6.82017">
        <ele>1070.2</ele>
        <time>2020-08-07T11:50:16Z</time>
      </trkpt>
      <trkpt lat="45.62025" lon="6.82018">
        <ele>1070.3</ele>
        <time>2020-08-07T11:50:18Z</time>
      </trkpt>
      <trkpt lat="45.62025" lon="6.82018">
        <ele>1070.3</ele>
        <time>2020-08-07T11:50:20Z</time>
      </trkpt>
      <trkpt lat="45.62024" lon="6.82019">
        <ele>1070.4</ele>
        <time>2020-08-07T11:50:22Z</time>
      </trkpt>
      <trkpt lat="45.62024" lon="6.82019">
        <ele>1070.4</ele>
        <time>2020-08-07T11:50:24Z</time>
      </trkpt>
      <trkpt lat="45.62024" lon="6.82019">
        <ele>1070.4</ele>
        <time>2020-08-07T11:50:26Z</time>
      </trkpt>
      <trkpt lat="45.62023" lon="6.82021">
        <ele>1070.5</ele>
        <time>2020-08-07T11:50:40Z</time>
      </trkpt>
      <trkpt lat="45.62022" lon="6.82023">
        <ele>1070.6</ele>
        <time>2020-08-07T11:50:41Z</time>
      </trkpt>
      <trkpt lat="45.6202" lon="6.82025">
        <ele>1070.8</ele>
        <time>2020-08-07T11:50:43Z</time>
      </trkpt>
      <trkpt lat="45.62019" lon="6.82025">
        <ele>1070.9</ele>
        <time>2020-08-07T11:50:44Z</time>
      </trkpt>
      <trkpt lat="45.62016" lon="6.82027">
        <ele>1071.1</ele>
        <time>2020-08-07T11:50:46Z</time>
      </trkpt>
      <trkpt lat="45.62014" lon="6.82029">
        <ele>1071.2</ele>
        <time>2020-08-07T11:50:47Z</time>
      </trkpt>
      <trkpt lat="45.62013" lon="6.82033">
        <ele>1071.4</ele>
        <time>2020-08-07T11:50:49Z</time>
      </trkpt>
      <trkpt lat="45.62011" lon="6.82035">
        <ele>1071.6</ele>
        <time>2020-08-07T11:50:50Z</time>
      </trkpt>
      <trkpt lat="45.62008" lon="6.82039">
        <ele>1071.9</ele>
        <time>2020-08-07T11:50:52Z</time>
      </trkpt>
      <trkpt lat="45.62006" lon="6.82044">
        <ele>1072.2</ele>
        <time>2020-08-07T11:50:54Z</time>
      </trkpt>
      <trkpt lat="45.62004" lon="6.82053">
        <ele>1072.7</ele>
        <time>2020-08-07T11:50:56Z</time>
      </trkpt>
      <trkpt lat="45.62" lon="6.82061">
        <ele>1073.2</ele>
        <time>2020-08-07T11:50:58Z</time>
      </trkpt>
      <trkpt lat="45.61999" lon="6.82064">
        <ele>1073.4</ele>
        <time>2020-08-07T11:50:59Z</time>
      </trkpt>
      <trkpt lat="45.61995" lon="6.82073">
        <ele>1074</ele>
        <time>2020-08-07T11:51:00Z</time>
      </trkpt>
      <trkpt lat="45.61993" lon="6.82077">
        <ele>1074.3</ele>
        <time>2020-08-07T11:51:02Z</time>
      </trkpt>
      <trkpt lat="45.6199" lon="6.82082">
        <ele>1074.6</ele>
        <time>2020-08-07T11:51:03Z</time>
      </trkpt>
      <trkpt lat="45.61989" lon="6.82085">
        <ele>1074.8</ele>
        <time>2020-08-07T11:51:05Z</time>
      </trkpt>
      <trkpt lat="45.61986" lon="6.82091">
        <ele>1075.2</ele>
        <time>2020-08-07T11:51:06Z</time>
      </trkpt>
      <trkpt lat="45.61984" lon="6.82095">
        <ele>1075.5</ele>
        <time>2020-08-07T11:51:08Z</time>
      </trkpt>
      <trkpt lat="45.6198" lon="6.82101">
        <ele>1075.9</ele>
        <time>2020-08-07T11:51:09Z</time>
      </trkpt>
      <trkpt lat="45.61978" lon="6.82104">
        <ele>1076.1</ele>
        <time>2020-08-07T11:51:10Z</time>
      </trkpt>
      <trkpt lat="45.61976" lon="6.82107">
        <ele>1076.3</ele>
        <time>2020-08-07T11:51:12Z</time>
      </trkpt>
      <trkpt lat="45.61972" lon="6.82114">
        <ele>1076.8</ele>
        <time>2020-08-07T11:51:14Z</time>
      </trkpt>
      <trkpt lat="45.61968" lon="6.82123">
        <ele>1077.4</ele>
        <time>2020-08-07T11:51:15Z</time>
      </trkpt>
      <trkpt lat="45.61965" lon="6.82129">
        <ele>1077.8</ele>
        <time>2020-08-07T11:51:18Z</time>
      </trkpt>
      <trkpt lat="45.61963" lon="6.82132">
        <ele>1078.1</ele>
        <time>2020-08-07T11:51:19Z</time>
      </trkpt>
      <trkpt lat="45.61959" lon="6.82138">
        <ele>1078.5</ele>
        <time>2020-08-07T11:51:20Z</time>
      </trkpt>
      <trkpt lat="45.61957" lon="6.82142">
        <ele>1078.8</ele>
        <time>2020-08-07T11:51:22Z</time>
      </trkpt>
      <trkpt lat="45.61955" lon="6.82146">
        <ele>1079.1</ele>
        <time>2020-08-07T11:51:23Z</time>
      </trkpt>
      <trkpt lat="45.6195" lon="6.82154">
        <ele>1079.7</ele>
        <time>2020-08-07T11:51:24Z</time>
      </trkpt>
      <trkpt lat="45.61948" lon="6.82159">
        <ele>1080.1</ele>
        <time>2020-08-07T11:51:26Z</time>
      </trkpt>
      <trkpt lat="45.61945" lon="6.82166">
        <ele>1080.5</ele>
        <time>2020-08-07T11:51:29Z</time>
      </trkpt>
      <trkpt lat="45.61941" lon="6.82172">
        <ele>1081</ele>
        <time>2020-08-07T11:51:31Z</time>
      </trkpt>
      <trkpt lat="45.61937" lon="6.82179">
        <ele>1081.5</ele>
        <time>2020-08-07T11:51:33Z</time>
      </trkpt>
      <trkpt lat="45.61934" lon="6.82184">
        <ele>1081.9</ele>
        <time>2020-08-07T11:51:34Z</time>
      </trkpt>
      <trkpt lat="45.61931" lon="6.8219">
        <ele>1082.3</ele>
        <time>2020-08-07T11:51:36Z</time>
      </trkpt>
      <trkpt lat="45.61929" lon="6.82195">
        <ele>1082.5</ele>
        <time>2020-08-07T11:51:37Z</time>
      </trkpt>
      <trkpt lat="45.61926" lon="6.82202">
        <ele>1083</ele>
        <time>2020-08-07T11:51:38Z</time>
      </trkpt>
      <trkpt lat="45.61924" lon="6.82207">
        <ele>1083.3</ele>
        <time>2020-08-07T11:51:40Z</time>
      </trkpt>
      <trkpt lat="45.61921" lon="6.82215">
        <ele>1083.8</ele>
        <time>2020-08-07T11:51:42Z</time>
      </trkpt>
      <trkpt lat="45.61916" lon="6.82228">
        <ele>1084.5</ele>
        <time>2020-08-07T11:51:44Z</time>
      </trkpt>
      <trkpt lat="45.61913" lon="6.82235">
        <ele>1084.9</ele>
        <time>2020-08-07T11:51:47Z</time>
      </trkpt>
      <trkpt lat="45.61911" lon="6.82239">
        <ele>1085.1</ele>
        <time>2020-08-07T11:51:48Z</time>
      </trkpt>
      <trkpt lat="45.6191" lon="6.82242">
        <ele>1085.3</ele>
        <time>2020-08-07T11:51:49Z</time>
      </trkpt>
      <trkpt lat="45.61907" lon="6.82249">
        <ele>1085.7</ele>
        <time>2020-08-07T11:51:51Z</time>
      </trkpt>
      <trkpt lat="45.61904" lon="6.82256">
        <ele>1086.2</ele>
        <time>2020-08-07T11:51:52Z</time>
      </trkpt>
      <trkpt lat="45.61901" lon="6.82263">
        <ele>1086.6</ele>
        <time>2020-08-07T11:51:54Z</time>
      </trkpt>
      <trkpt lat="45.61899" lon="6.82268">
        <ele>1086.9</ele>
        <time>2020-08-07T11:51:56Z</time>
      </trkpt>
      <trkpt lat="45.61897" lon="6.82272">
        <ele>1087.1</ele>
        <time>2020-08-07T11:51:57Z</time>
      </trkpt>
      <trkpt lat="45.61894" lon="6.82279">
        <ele>1087.6</ele>
        <time>2020-08-07T11:51:59Z</time>
      </trkpt>
      <trkpt lat="45.61893" lon="6.82283">
        <ele>1087.8</ele>
        <time>2020-08-07T11:52:00Z</time>
      </trkpt>
      <trkpt lat="45.61892" lon="6.82287">
        <ele>1088.1</ele>
        <time>2020-08-07T11:52:01Z</time>
      </trkpt>
      <trkpt lat="45.6189" lon="6.82295">
        <ele>1088.5</ele>
        <time>2020-08-07T11:52:02Z</time>
      </trkpt>
      <trkpt lat="45.61889" lon="6.82299">
        <ele>1088.8</ele>
        <time>2020-08-07T11:52:04Z</time>
      </trkpt>
      <trkpt lat="45.61887" lon="6.82307">
        <ele>1089.2</ele>
        <time>2020-08-07T11:52:06Z</time>
      </trkpt>
      <trkpt lat="45.61887" lon="6.82315">
        <ele>1089.7</ele>
        <time>2020-08-07T11:52:08Z</time>
      </trkpt>
      <trkpt lat="45.6189" lon="6.82321">
        <ele>1090.2</ele>
        <time>2020-08-07T11:52:10Z</time>
      </trkpt>
      <trkpt lat="45.61894" lon="6.82322">
        <ele>1090.5</ele>
        <time>2020-08-07T11:52:11Z</time>
      </trkpt>
      <trkpt lat="45.61901" lon="6.82322">
        <ele>1090.7</ele>
        <time>2020-08-07T11:52:13Z</time>
      </trkpt>
      <trkpt lat="45.61904" lon="6.8232">
        <ele>1090.8</ele>
        <time>2020-08-07T11:52:14Z</time>
      </trkpt>
      <trkpt lat="45.61908" lon="6.82317">
        <ele>1091</ele>
        <time>2020-08-07T11:52:17Z</time>
      </trkpt>
      <trkpt lat="45.61912" lon="6.82311">
        <ele>1091.1</ele>
        <time>2020-08-07T11:52:19Z</time>
      </trkpt>
      <trkpt lat="45.61915" lon="6.82306">
        <ele>1091.1</ele>
        <time>2020-08-07T11:52:21Z</time>
      </trkpt>
      <trkpt lat="45.61917" lon="6.82301">
        <ele>1091.2</ele>
        <time>2020-08-07T11:52:22Z</time>
      </trkpt>
      <trkpt lat="45.61918" lon="6.82299">
        <ele>1091.2</ele>
        <time>2020-08-07T11:52:23Z</time>
      </trkpt>
      <trkpt lat="45.6192" lon="6.82295">
        <ele>1091.3</ele>
        <time>2020-08-07T11:52:25Z</time>
      </trkpt>
      <trkpt lat="45.61921" lon="6.82293">
        <ele>1091.3</ele>
        <time>2020-08-07T11:52:26Z</time>
      </trkpt>
      <trkpt lat="45.61921" lon="6.82292">
        <ele>1091.3</ele>
        <time>2020-08-07T11:52:27Z</time>
      </trkpt>
      <trkpt lat="45.61922" lon="6.82289">
        <ele>1091.3</ele>
        <time>2020-08-07T11:52:29Z</time>
      </trkpt>
      <trkpt lat="45.61925" lon="6.82284">
        <ele>1091.4</ele>
        <time>2020-08-07T11:52:31Z</time>
      </trkpt>
      <trkpt lat="45.61927" lon="6.8228">
        <ele>1091.5</ele>
        <time>2020-08-07T11:52:32Z</time>
      </trkpt>
      <trkpt lat="45.61928" lon="6.82279">
        <ele>1091.5</ele>
        <time>2020-08-07T11:52:33Z</time>
      </trkpt>
      <trkpt lat="45.61931" lon="6.82274">
        <ele>1091.6</ele>
        <time>2020-08-07T11:52:34Z</time>
      </trkpt>
      <trkpt lat="45.61932" lon="6.82272">
        <ele>1091.6</ele>
        <time>2020-08-07T11:52:35Z</time>
      </trkpt>
      <trkpt lat="45.61933" lon="6.82265">
        <ele>1091.7</ele>
        <time>2020-08-07T11:52:38Z</time>
      </trkpt>
      <trkpt lat="45.61939" lon="6.82255">
        <ele>1091.9</ele>
        <time>2020-08-07T11:52:39Z</time>
      </trkpt>
      <trkpt lat="45.61944" lon="6.82246">
        <ele>1092.1</ele>
        <time>2020-08-07T11:52:40Z</time>
      </trkpt>
      <trkpt lat="45.61952" lon="6.82236">
        <ele>1092.4</ele>
        <time>2020-08-07T11:52:43Z</time>
      </trkpt>
      <trkpt lat="45.61958" lon="6.82227">
        <ele>1092.7</ele>
        <time>2020-08-07T11:52:44Z</time>
      </trkpt>
      <trkpt lat="45.61962" lon="6.82223">
        <ele>1092.8</ele>
        <time>2020-08-07T11:52:46Z</time>
      </trkpt>
      <trkpt lat="45.61966" lon="6.82219">
        <ele>1093</ele>
        <time>2020-08-07T11:52:47Z</time>
      </trkpt>
      <trkpt lat="45.61969" lon="6.82216">
        <ele>1093.2</ele>
        <time>2020-08-07T11:52:49Z</time>
      </trkpt>
      <trkpt lat="45.61971" lon="6.82213">
        <ele>1093.3</ele>
        <time>2020-08-07T11:52:50Z</time>
      </trkpt>
      <trkpt lat="45.61975" lon="6.8221">
        <ele>1093.5</ele>
        <time>2020-08-07T11:52:51Z</time>
      </trkpt>
      <trkpt lat="45.61977" lon="6.82207">
        <ele>1093.6</ele>
        <time>2020-08-07T11:52:52Z</time>
      </trkpt>
      <trkpt lat="45.61983" lon="6.82201">
        <ele>1093.9</ele>
        <time>2020-08-07T11:52:54Z</time>
      </trkpt>
      <trkpt lat="45.61985" lon="6.82199">
        <ele>1094</ele>
        <time>2020-08-07T11:52:55Z</time>
      </trkpt>
      <trkpt lat="45.61988" lon="6.82196">
        <ele>1094.2</ele>
        <time>2020-08-07T11:52:58Z</time>
      </trkpt>
      <trkpt lat="45.61992" lon="6.82191">
        <ele>1094.4</ele>
        <time>2020-08-07T11:53:00Z</time>
      </trkpt>
      <trkpt lat="45.61996" lon="6.82185">
        <ele>1094.6</ele>
        <time>2020-08-07T11:53:02Z</time>
      </trkpt>
      <trkpt lat="45.61999" lon="6.82182">
        <ele>1094.8</ele>
        <time>2020-08-07T11:53:03Z</time>
      </trkpt>
      <trkpt lat="45.62002" lon="6.82177">
        <ele>1095</ele>
        <time>2020-08-07T11:53:05Z</time>
      </trkpt>
      <trkpt lat="45.62006" lon="6.8217">
        <ele>1095.2</ele>
        <time>2020-08-07T11:53:06Z</time>
      </trkpt>
      <trkpt lat="45.62009" lon="6.82165">
        <ele>1095.4</ele>
        <time>2020-08-07T11:53:09Z</time>
      </trkpt>
      <trkpt lat="45.62012" lon="6.82158">
        <ele>1095.6</ele>
        <time>2020-08-07T11:53:11Z</time>
      </trkpt>
      <trkpt lat="45.62016" lon="6.82151">
        <ele>1095.8</ele>
        <time>2020-08-07T11:53:13Z</time>
      </trkpt>
      <trkpt lat="45.62018" lon="6.82147">
        <ele>1096</ele>
        <time>2020-08-07T11:53:14Z</time>
      </trkpt>
      <trkpt lat="45.62019" lon="6.82144">
        <ele>1096.1</ele>
        <time>2020-08-07T11:53:15Z</time>
      </trkpt>
      <trkpt lat="45.62023" lon="6.82137">
        <ele>1096.2</ele>
        <time>2020-08-07T11:53:17Z</time>
      </trkpt>
      <trkpt lat="45.62027" lon="6.82129">
        <ele>1096.5</ele>
        <time>2020-08-07T11:53:19Z</time>
      </trkpt>
      <trkpt lat="45.62029" lon="6.82126">
        <ele>1096.5</ele>
        <time>2020-08-07T11:53:20Z</time>
      </trkpt>
      <trkpt lat="45.62031" lon="6.82122">
        <ele>1096.7</ele>
        <time>2020-08-07T11:53:21Z</time>
      </trkpt>
      <trkpt lat="45.62037" lon="6.82114">
        <ele>1096.9</ele>
        <time>2020-08-07T11:53:22Z</time>
      </trkpt>
      <trkpt lat="45.62041" lon="6.82109">
        <ele>1097.1</ele>
        <time>2020-08-07T11:53:25Z</time>
      </trkpt>
      <trkpt lat="45.62044" lon="6.82106">
        <ele>1097.2</ele>
        <time>2020-08-07T11:53:26Z</time>
      </trkpt>
      <trkpt lat="45.62049" lon="6.82102">
        <ele>1097.4</ele>
        <time>2020-08-07T11:53:28Z</time>
      </trkpt>
      <trkpt lat="45.62053" lon="6.82098">
        <ele>1097.6</ele>
        <time>2020-08-07T11:53:29Z</time>
      </trkpt>
      <trkpt lat="45.62056" lon="6.82096">
        <ele>1097.8</ele>
        <time>2020-08-07T11:53:30Z</time>
      </trkpt>
      <trkpt lat="45.62059" lon="6.82094">
        <ele>1098</ele>
        <time>2020-08-07T11:53:32Z</time>
      </trkpt>
      <trkpt lat="45.62063" lon="6.8209">
        <ele>1098.3</ele>
        <time>2020-08-07T11:53:33Z</time>
      </trkpt>
      <trkpt lat="45.62066" lon="6.82087">
        <ele>1098.5</ele>
        <time>2020-08-07T11:53:35Z</time>
      </trkpt>
      <trkpt lat="45.62067" lon="6.82087">
        <ele>1098.5</ele>
        <time>2020-08-07T11:53:36Z</time>
      </trkpt>
      <trkpt lat="45.6207" lon="6.82083">
        <ele>1098.7</ele>
        <time>2020-08-07T11:53:38Z</time>
      </trkpt>
      <trkpt lat="45.62074" lon="6.82079">
        <ele>1098.9</ele>
        <time>2020-08-07T11:53:39Z</time>
      </trkpt>
      <trkpt lat="45.62074" lon="6.82078">
        <ele>1099</ele>
        <time>2020-08-07T11:53:40Z</time>
      </trkpt>
      <trkpt lat="45.62078" lon="6.82074">
        <ele>1099.3</ele>
        <time>2020-08-07T11:53:41Z</time>
      </trkpt>
      <trkpt lat="45.62082" lon="6.82069">
        <ele>1099.5</ele>
        <time>2020-08-07T11:53:43Z</time>
      </trkpt>
      <trkpt lat="45.62084" lon="6.82067">
        <ele>1099.7</ele>
        <time>2020-08-07T11:53:44Z</time>
      </trkpt>
      <trkpt lat="45.62088" lon="6.82063">
        <ele>1100</ele>
        <time>2020-08-07T11:53:46Z</time>
      </trkpt>
      <trkpt lat="45.62089" lon="6.82061">
        <ele>1100.1</ele>
        <time>2020-08-07T11:53:47Z</time>
      </trkpt>
      <trkpt lat="45.62091" lon="6.82058">
        <ele>1100.2</ele>
        <time>2020-08-07T11:53:48Z</time>
      </trkpt>
      <trkpt lat="45.62092" lon="6.82055">
        <ele>1100.4</ele>
        <time>2020-08-07T11:53:50Z</time>
      </trkpt>
      <trkpt lat="45.62094" lon="6.82052">
        <ele>1100.5</ele>
        <time>2020-08-07T11:53:51Z</time>
      </trkpt>
      <trkpt lat="45.62097" lon="6.82048">
        <ele>1100.8</ele>
        <time>2020-08-07T11:53:52Z</time>
      </trkpt>
      <trkpt lat="45.62103" lon="6.82042">
        <ele>1101.2</ele>
        <time>2020-08-07T11:53:54Z</time>
      </trkpt>
      <trkpt lat="45.62105" lon="6.82039">
        <ele>1101.3</ele>
        <time>2020-08-07T11:53:55Z</time>
      </trkpt>
      <trkpt lat="45.62109" lon="6.82033">
        <ele>1101.7</ele>
        <time>2020-08-07T11:53:58Z</time>
      </trkpt>
      <trkpt lat="45.6211" lon="6.82031">
        <ele>1101.8</ele>
        <time>2020-08-07T11:53:59Z</time>
      </trkpt>
      <trkpt lat="45.62113" lon="6.82028">
        <ele>1102</ele>
        <time>2020-08-07T11:54:00Z</time>
      </trkpt>
      <trkpt lat="45.62116" lon="6.82023">
        <ele>1102.2</ele>
        <time>2020-08-07T11:54:03Z</time>
      </trkpt>
      <trkpt lat="45.62118" lon="6.82019">
        <ele>1102.4</ele>
        <time>2020-08-07T11:54:04Z</time>
      </trkpt>
      <trkpt lat="45.62124" lon="6.8201">
        <ele>1102.9</ele>
        <time>2020-08-07T11:54:06Z</time>
      </trkpt>
      <trkpt lat="45.62128" lon="6.82006">
        <ele>1103.2</ele>
        <time>2020-08-07T11:54:09Z</time>
      </trkpt>
      <trkpt lat="45.62131" lon="6.82">
        <ele>1103.4</ele>
        <time>2020-08-07T11:54:11Z</time>
      </trkpt>
      <trkpt lat="45.62134" lon="6.81996">
        <ele>1103.6</ele>
        <time>2020-08-07T11:54:12Z</time>
      </trkpt>
      <trkpt lat="45.62135" lon="6.81995">
        <ele>1103.7</ele>
        <time>2020-08-07T11:54:13Z</time>
      </trkpt>
      <trkpt lat="45.62141" lon="6.81984">
        <ele>1104.2</ele>
        <time>2020-08-07T11:54:15Z</time>
      </trkpt>
      <trkpt lat="45.62144" lon="6.81981">
        <ele>1104.4</ele>
        <time>2020-08-07T11:54:18Z</time>
      </trkpt>
      <trkpt lat="45.62149" lon="6.81975">
        <ele>1104.7</ele>
        <time>2020-08-07T11:54:20Z</time>
      </trkpt>
      <trkpt lat="45.62153" lon="6.81971">
        <ele>1105</ele>
        <time>2020-08-07T11:54:22Z</time>
      </trkpt>
      <trkpt lat="45.62155" lon="6.81968">
        <ele>1105.2</ele>
        <time>2020-08-07T11:54:23Z</time>
      </trkpt>
      <trkpt lat="45.62158" lon="6.81966">
        <ele>1105.4</ele>
        <time>2020-08-07T11:54:24Z</time>
      </trkpt>
      <trkpt lat="45.62163" lon="6.81961">
        <ele>1105.7</ele>
        <time>2020-08-07T11:54:25Z</time>
      </trkpt>
      <trkpt lat="45.62168" lon="6.81956">
        <ele>1106</ele>
        <time>2020-08-07T11:54:27Z</time>
      </trkpt>
      <trkpt lat="45.62176" lon="6.81947">
        <ele>1106.6</ele>
        <time>2020-08-07T11:54:29Z</time>
      </trkpt>
      <trkpt lat="45.62183" lon="6.81936">
        <ele>1107.2</ele>
        <time>2020-08-07T11:54:31Z</time>
      </trkpt>
      <trkpt lat="45.62191" lon="6.81926">
        <ele>1107.8</ele>
        <time>2020-08-07T11:54:33Z</time>
      </trkpt>
      <trkpt lat="45.62195" lon="6.81921">
        <ele>1108</ele>
        <time>2020-08-07T11:54:34Z</time>
      </trkpt>
      <trkpt lat="45.62202" lon="6.81912">
        <ele>1108.6</ele>
        <time>2020-08-07T11:54:36Z</time>
      </trkpt>
      <trkpt lat="45.62206" lon="6.81909">
        <ele>1108.8</ele>
        <time>2020-08-07T11:54:37Z</time>
      </trkpt>
      <trkpt lat="45.62215" lon="6.81903">
        <ele>1109.3</ele>
        <time>2020-08-07T11:54:39Z</time>
      </trkpt>
      <trkpt lat="45.62224" lon="6.819">
        <ele>1109.7</ele>
        <time>2020-08-07T11:54:41Z</time>
      </trkpt>
      <trkpt lat="45.62234" lon="6.81897">
        <ele>1110.2</ele>
        <time>2020-08-07T11:54:43Z</time>
      </trkpt>
      <trkpt lat="45.62239" lon="6.81896">
        <ele>1110.4</ele>
        <time>2020-08-07T11:54:44Z</time>
      </trkpt>
      <trkpt lat="45.62248" lon="6.81893">
        <ele>1110.9</ele>
        <time>2020-08-07T11:54:46Z</time>
      </trkpt>
      <trkpt lat="45.62257" lon="6.8189">
        <ele>1111.4</ele>
        <time>2020-08-07T11:54:48Z</time>
      </trkpt>
      <trkpt lat="45.62266" lon="6.81886">
        <ele>1111.9</ele>
        <time>2020-08-07T11:54:50Z</time>
      </trkpt>
      <trkpt lat="45.6227" lon="6.81884">
        <ele>1112.1</ele>
        <time>2020-08-07T11:54:51Z</time>
      </trkpt>
      <trkpt lat="45.62273" lon="6.81882">
        <ele>1112.3</ele>
        <time>2020-08-07T11:54:52Z</time>
      </trkpt>
      <trkpt lat="45.62278" lon="6.81878">
        <ele>1112.6</ele>
        <time>2020-08-07T11:54:53Z</time>
      </trkpt>
      <trkpt lat="45.62281" lon="6.81876">
        <ele>1112.8</ele>
        <time>2020-08-07T11:54:55Z</time>
      </trkpt>
      <trkpt lat="45.62286" lon="6.81871">
        <ele>1113.1</ele>
        <time>2020-08-07T11:54:57Z</time>
      </trkpt>
      <trkpt lat="45.62291" lon="6.81861">
        <ele>1113.6</ele>
        <time>2020-08-07T11:54:58Z</time>
      </trkpt>
      <trkpt lat="45.62294" lon="6.81856">
        <ele>1113.9</ele>
        <time>2020-08-07T11:55:00Z</time>
      </trkpt>
      <trkpt lat="45.62297" lon="6.81854">
        <ele>1114.1</ele>
        <time>2020-08-07T11:55:02Z</time>
      </trkpt>
      <trkpt lat="45.62298" lon="6.8185">
        <ele>1114.3</ele>
        <time>2020-08-07T11:55:03Z</time>
      </trkpt>
      <trkpt lat="45.62299" lon="6.81846">
        <ele>1114.5</ele>
        <time>2020-08-07T11:55:04Z</time>
      </trkpt>
      <trkpt lat="45.62301" lon="6.81843">
        <ele>1114.6</ele>
        <time>2020-08-07T11:55:05Z</time>
      </trkpt>
      <trkpt lat="45.62306" lon="6.81837">
        <ele>1115</ele>
        <time>2020-08-07T11:55:07Z</time>
      </trkpt>
      <trkpt lat="45.62311" lon="6.81825">
        <ele>1115.6</ele>
        <time>2020-08-07T11:55:09Z</time>
      </trkpt>
      <trkpt lat="45.62315" lon="6.81821">
        <ele>1115.9</ele>
        <time>2020-08-07T11:55:11Z</time>
      </trkpt>
      <trkpt lat="45.6232" lon="6.81818">
        <ele>1116.2</ele>
        <time>2020-08-07T11:55:12Z</time>
      </trkpt>
      <trkpt lat="45.62325" lon="6.8181">
        <ele>1116.6</ele>
        <time>2020-08-07T11:55:14Z</time>
      </trkpt>
      <trkpt lat="45.62328" lon="6.81806">
        <ele>1116.8</ele>
        <time>2020-08-07T11:55:16Z</time>
      </trkpt>
      <trkpt lat="45.62331" lon="6.81802">
        <ele>1117</ele>
        <time>2020-08-07T11:55:17Z</time>
      </trkpt>
      <trkpt lat="45.62334" lon="6.81798">
        <ele>1117.3</ele>
        <time>2020-08-07T11:55:19Z</time>
      </trkpt>
      <trkpt lat="45.62337" lon="6.81794">
        <ele>1117.5</ele>
        <time>2020-08-07T11:55:21Z</time>
      </trkpt>
      <trkpt lat="45.62339" lon="6.81791">
        <ele>1117.7</ele>
        <time>2020-08-07T11:55:22Z</time>
      </trkpt>
      <trkpt lat="45.62344" lon="6.81785">
        <ele>1118</ele>
        <time>2020-08-07T11:55:24Z</time>
      </trkpt>
      <trkpt lat="45.62346" lon="6.81783">
        <ele>1118.2</ele>
        <time>2020-08-07T11:55:25Z</time>
      </trkpt>
      <trkpt lat="45.62357" lon="6.81779">
        <ele>1118.8</ele>
        <time>2020-08-07T11:55:27Z</time>
      </trkpt>
      <trkpt lat="45.6236" lon="6.81778">
        <ele>1118.9</ele>
        <time>2020-08-07T11:55:28Z</time>
      </trkpt>
      <trkpt lat="45.62363" lon="6.81773">
        <ele>1119.2</ele>
        <time>2020-08-07T11:55:30Z</time>
      </trkpt>
      <trkpt lat="45.62366" lon="6.81772">
        <ele>1119.3</ele>
        <time>2020-08-07T11:55:31Z</time>
      </trkpt>
      <trkpt lat="45.62372" lon="6.81771">
        <ele>1119.7</ele>
        <time>2020-08-07T11:55:33Z</time>
      </trkpt>
      <trkpt lat="45.62378" lon="6.81767">
        <ele>1120.1</ele>
        <time>2020-08-07T11:55:35Z</time>
      </trkpt>
      <trkpt lat="45.62383" lon="6.81765">
        <ele>1120.4</ele>
        <time>2020-08-07T11:55:37Z</time>
      </trkpt>
      <trkpt lat="45.62387" lon="6.81767">
        <ele>1120.6</ele>
        <time>2020-08-07T11:55:38Z</time>
      </trkpt>
      <trkpt lat="45.62395" lon="6.81766">
        <ele>1121.1</ele>
        <time>2020-08-07T11:55:41Z</time>
      </trkpt>
      <trkpt lat="45.62401" lon="6.81763">
        <ele>1121.4</ele>
        <time>2020-08-07T11:55:44Z</time>
      </trkpt>
      <trkpt lat="45.62405" lon="6.81763">
        <ele>1121.6</ele>
        <time>2020-08-07T11:55:45Z</time>
      </trkpt>
      <trkpt lat="45.62408" lon="6.81761">
        <ele>1121.8</ele>
        <time>2020-08-07T11:55:46Z</time>
      </trkpt>
      <trkpt lat="45.62413" lon="6.81758">
        <ele>1122.2</ele>
        <time>2020-08-07T11:55:47Z</time>
      </trkpt>
      <trkpt lat="45.62417" lon="6.81756">
        <ele>1122.4</ele>
        <time>2020-08-07T11:55:48Z</time>
      </trkpt>
      <trkpt lat="45.6242" lon="6.81755">
        <ele>1122.5</ele>
        <time>2020-08-07T11:55:50Z</time>
      </trkpt>
      <trkpt lat="45.62426" lon="6.81751">
        <ele>1122.9</ele>
        <time>2020-08-07T11:55:52Z</time>
      </trkpt>
      <trkpt lat="45.62432" lon="6.81749">
        <ele>1123.2</ele>
        <time>2020-08-07T11:55:54Z</time>
      </trkpt>
      <trkpt lat="45.62435" lon="6.81748">
        <ele>1123.4</ele>
        <time>2020-08-07T11:55:55Z</time>
      </trkpt>
      <trkpt lat="45.62439" lon="6.81746">
        <ele>1123.5</ele>
        <time>2020-08-07T11:55:56Z</time>
      </trkpt>
      <trkpt lat="45.62442" lon="6.81745">
        <ele>1123.7</ele>
        <time>2020-08-07T11:55:57Z</time>
      </trkpt>
      <trkpt lat="45.62448" lon="6.81743">
        <ele>1124</ele>
        <time>2020-08-07T11:55:59Z</time>
      </trkpt>
      <trkpt lat="45.62456" lon="6.81741">
        <ele>1124.5</ele>
        <time>2020-08-07T11:56:00Z</time>
      </trkpt>
      <trkpt lat="45.6246" lon="6.81741">
        <ele>1124.8</ele>
        <time>2020-08-07T11:56:01Z</time>
      </trkpt>
      <trkpt lat="45.62464" lon="6.8174">
        <ele>1125</ele>
        <time>2020-08-07T11:56:03Z</time>
      </trkpt>
      <trkpt lat="45.6247" lon="6.81739">
        <ele>1125.3</ele>
        <time>2020-08-07T11:56:05Z</time>
      </trkpt>
      <trkpt lat="45.62473" lon="6.81738">
        <ele>1125.5</ele>
        <time>2020-08-07T11:56:06Z</time>
      </trkpt>
      <trkpt lat="45.62477" lon="6.81738">
        <ele>1125.7</ele>
        <time>2020-08-07T11:56:08Z</time>
      </trkpt>
      <trkpt lat="45.62484" lon="6.81737">
        <ele>1126.1</ele>
        <time>2020-08-07T11:56:09Z</time>
      </trkpt>
      <trkpt lat="45.62489" lon="6.81737">
        <ele>1126.3</ele>
        <time>2020-08-07T11:56:11Z</time>
      </trkpt>
      <trkpt lat="45.62494" lon="6.81738">
        <ele>1126.6</ele>
        <time>2020-08-07T11:56:13Z</time>
      </trkpt>
      <trkpt lat="45.62501" lon="6.81739">
        <ele>1127</ele>
        <time>2020-08-07T11:56:14Z</time>
      </trkpt>
      <trkpt lat="45.62504" lon="6.81739">
        <ele>1127.2</ele>
        <time>2020-08-07T11:56:16Z</time>
      </trkpt>
      <trkpt lat="45.62509" lon="6.81738">
        <ele>1127.5</ele>
        <time>2020-08-07T11:56:17Z</time>
      </trkpt>
      <trkpt lat="45.62514" lon="6.81738">
        <ele>1127.7</ele>
        <time>2020-08-07T11:56:19Z</time>
      </trkpt>
      <trkpt lat="45.6252" lon="6.81737">
        <ele>1128</ele>
        <time>2020-08-07T11:56:21Z</time>
      </trkpt>
      <trkpt lat="45.62522" lon="6.81737">
        <ele>1128.1</ele>
        <time>2020-08-07T11:56:22Z</time>
      </trkpt>
      <trkpt lat="45.62529" lon="6.81738">
        <ele>1128.5</ele>
        <time>2020-08-07T11:56:24Z</time>
      </trkpt>
      <trkpt lat="45.62536" lon="6.81738">
        <ele>1128.8</ele>
        <time>2020-08-07T11:56:26Z</time>
      </trkpt>
      <trkpt lat="45.62539" lon="6.81737">
        <ele>1129</ele>
        <time>2020-08-07T11:56:27Z</time>
      </trkpt>
      <trkpt lat="45.62544" lon="6.81737">
        <ele>1129.3</ele>
        <time>2020-08-07T11:56:28Z</time>
      </trkpt>
      <trkpt lat="45.62554" lon="6.81737">
        <ele>1129.8</ele>
        <time>2020-08-07T11:56:30Z</time>
      </trkpt>
      <trkpt lat="45.62557" lon="6.81734">
        <ele>1130</ele>
        <time>2020-08-07T11:56:31Z</time>
      </trkpt>
      <trkpt lat="45.62562" lon="6.81732">
        <ele>1130.3</ele>
        <time>2020-08-07T11:56:34Z</time>
      </trkpt>
      <trkpt lat="45.62569" lon="6.81732">
        <ele>1130.7</ele>
        <time>2020-08-07T11:56:36Z</time>
      </trkpt>
      <trkpt lat="45.62573" lon="6.8173">
        <ele>1130.9</ele>
        <time>2020-08-07T11:56:37Z</time>
      </trkpt>
      <trkpt lat="45.62577" lon="6.81727">
        <ele>1131.2</ele>
        <time>2020-08-07T11:56:38Z</time>
      </trkpt>
      <trkpt lat="45.62583" lon="6.81722">
        <ele>1131.6</ele>
        <time>2020-08-07T11:56:40Z</time>
      </trkpt>
      <trkpt lat="45.62588" lon="6.81717">
        <ele>1131.9</ele>
        <time>2020-08-07T11:56:41Z</time>
      </trkpt>
      <trkpt lat="45.62596" lon="6.8171">
        <ele>1132.4</ele>
        <time>2020-08-07T11:56:43Z</time>
      </trkpt>
      <trkpt lat="45.62599" lon="6.81707">
        <ele>1132.6</ele>
        <time>2020-08-07T11:56:44Z</time>
      </trkpt>
      <trkpt lat="45.62603" lon="6.81704">
        <ele>1132.8</ele>
        <time>2020-08-07T11:56:45Z</time>
      </trkpt>
      <trkpt lat="45.6261" lon="6.81698">
        <ele>1133.2</ele>
        <time>2020-08-07T11:56:47Z</time>
      </trkpt>
      <trkpt lat="45.62616" lon="6.81692">
        <ele>1133.5</ele>
        <time>2020-08-07T11:56:49Z</time>
      </trkpt>
      <trkpt lat="45.62622" lon="6.81685">
        <ele>1133.9</ele>
        <time>2020-08-07T11:56:51Z</time>
      </trkpt>
      <trkpt lat="45.62625" lon="6.81682">
        <ele>1134.1</ele>
        <time>2020-08-07T11:56:52Z</time>
      </trkpt>
      <trkpt lat="45.62631" lon="6.81676">
        <ele>1134.5</ele>
        <time>2020-08-07T11:56:54Z</time>
      </trkpt>
      <trkpt lat="45.62637" lon="6.8167">
        <ele>1134.9</ele>
        <time>2020-08-07T11:56:56Z</time>
      </trkpt>
      <trkpt lat="45.62642" lon="6.81663">
        <ele>1135.2</ele>
        <time>2020-08-07T11:56:58Z</time>
      </trkpt>
      <trkpt lat="45.62647" lon="6.81656">
        <ele>1135.6</ele>
        <time>2020-08-07T11:57:00Z</time>
      </trkpt>
      <trkpt lat="45.62652" lon="6.8165">
        <ele>1135.9</ele>
        <time>2020-08-07T11:57:02Z</time>
      </trkpt>
      <trkpt lat="45.62654" lon="6.81647">
        <ele>1136.1</ele>
        <time>2020-08-07T11:57:03Z</time>
      </trkpt>
      <trkpt lat="45.6266" lon="6.8164">
        <ele>1136.5</ele>
        <time>2020-08-07T11:57:05Z</time>
      </trkpt>
      <trkpt lat="45.62665" lon="6.81633">
        <ele>1136.8</ele>
        <time>2020-08-07T11:57:07Z</time>
      </trkpt>
      <trkpt lat="45.62667" lon="6.8163">
        <ele>1137</ele>
        <time>2020-08-07T11:57:08Z</time>
      </trkpt>
      <trkpt lat="45.62671" lon="6.81623">
        <ele>1137.4</ele>
        <time>2020-08-07T11:57:10Z</time>
      </trkpt>
      <trkpt lat="45.62673" lon="6.81619">
        <ele>1137.6</ele>
        <time>2020-08-07T11:57:11Z</time>
      </trkpt>
      <trkpt lat="45.62678" lon="6.81612">
        <ele>1138</ele>
        <time>2020-08-07T11:57:13Z</time>
      </trkpt>
      <trkpt lat="45.62683" lon="6.81604">
        <ele>1138.3</ele>
        <time>2020-08-07T11:57:15Z</time>
      </trkpt>
      <trkpt lat="45.62685" lon="6.816">
        <ele>1138.5</ele>
        <time>2020-08-07T11:57:16Z</time>
      </trkpt>
      <trkpt lat="45.62687" lon="6.81597">
        <ele>1138.7</ele>
        <time>2020-08-07T11:57:17Z</time>
      </trkpt>
      <trkpt lat="45.62689" lon="6.81593">
        <ele>1138.9</ele>
        <time>2020-08-07T11:57:18Z</time>
      </trkpt>
      <trkpt lat="45.62694" lon="6.81588">
        <ele>1139.2</ele>
        <time>2020-08-07T11:57:20Z</time>
      </trkpt>
      <trkpt lat="45.62697" lon="6.81587">
        <ele>1139.3</ele>
        <time>2020-08-07T11:57:21Z</time>
      </trkpt>
      <trkpt lat="45.62702" lon="6.81592">
        <ele>1139.7</ele>
        <time>2020-08-07T11:57:23Z</time>
      </trkpt>
      <trkpt lat="45.62704" lon="6.81596">
        <ele>1139.9</ele>
        <time>2020-08-07T11:57:24Z</time>
      </trkpt>
      <trkpt lat="45.62703" lon="6.81601">
        <ele>1140</ele>
        <time>2020-08-07T11:57:25Z</time>
      </trkpt>
      <trkpt lat="45.627" lon="6.81606">
        <ele>1140.2</ele>
        <time>2020-08-07T11:57:27Z</time>
      </trkpt>
      <trkpt lat="45.62697" lon="6.81614">
        <ele>1140.5</ele>
        <time>2020-08-07T11:57:29Z</time>
      </trkpt>
      <trkpt lat="45.62695" lon="6.81618">
        <ele>1140.7</ele>
        <time>2020-08-07T11:57:30Z</time>
      </trkpt>
      <trkpt lat="45.62694" lon="6.81622">
        <ele>1140.8</ele>
        <time>2020-08-07T11:57:31Z</time>
      </trkpt>
      <trkpt lat="45.62692" lon="6.81625">
        <ele>1140.9</ele>
        <time>2020-08-07T11:57:32Z</time>
      </trkpt>
      <trkpt lat="45.62689" lon="6.81631">
        <ele>1141.2</ele>
        <time>2020-08-07T11:57:34Z</time>
      </trkpt>
      <trkpt lat="45.62686" lon="6.81638">
        <ele>1141.4</ele>
        <time>2020-08-07T11:57:36Z</time>
      </trkpt>
      <trkpt lat="45.62685" lon="6.81642">
        <ele>1141.5</ele>
        <time>2020-08-07T11:57:37Z</time>
      </trkpt>
      <trkpt lat="45.62683" lon="6.81645">
        <ele>1141.7</ele>
        <time>2020-08-07T11:57:38Z</time>
      </trkpt>
      <trkpt lat="45.6268" lon="6.81652">
        <ele>1141.9</ele>
        <time>2020-08-07T11:57:40Z</time>
      </trkpt>
      <trkpt lat="45.62676" lon="6.81661">
        <ele>1142.3</ele>
        <time>2020-08-07T11:57:41Z</time>
      </trkpt>
      <trkpt lat="45.62674" lon="6.81665">
        <ele>1142.5</ele>
        <time>2020-08-07T11:57:42Z</time>
      </trkpt>
      <trkpt lat="45.62671" lon="6.81671">
        <ele>1142.8</ele>
        <time>2020-08-07T11:57:44Z</time>
      </trkpt>
      <trkpt lat="45.62669" lon="6.81677">
        <ele>1143.1</ele>
        <time>2020-08-07T11:57:46Z</time>
      </trkpt>
      <trkpt lat="45.62667" lon="6.8168">
        <ele>1143.2</ele>
        <time>2020-08-07T11:57:47Z</time>
      </trkpt>
      <trkpt lat="45.62664" lon="6.81685">
        <ele>1143.4</ele>
        <time>2020-08-07T11:57:48Z</time>
      </trkpt>
      <trkpt lat="45.62663" lon="6.81689">
        <ele>1143.6</ele>
        <time>2020-08-07T11:57:49Z</time>
      </trkpt>
      <trkpt lat="45.62658" lon="6.81698">
        <ele>1144.1</ele>
        <time>2020-08-07T11:57:51Z</time>
      </trkpt>
      <trkpt lat="45.62656" lon="6.81703">
        <ele>1144.3</ele>
        <time>2020-08-07T11:57:52Z</time>
      </trkpt>
      <trkpt lat="45.62655" lon="6.81707">
        <ele>1144.4</ele>
        <time>2020-08-07T11:57:53Z</time>
      </trkpt>
      <trkpt lat="45.62653" lon="6.81711">
        <ele>1144.6</ele>
        <time>2020-08-07T11:57:54Z</time>
      </trkpt>
      <trkpt lat="45.6265" lon="6.81716">
        <ele>1144.9</ele>
        <time>2020-08-07T11:57:57Z</time>
      </trkpt>
      <trkpt lat="45.62648" lon="6.81719">
        <ele>1145</ele>
        <time>2020-08-07T11:57:58Z</time>
      </trkpt>
      <trkpt lat="45.62647" lon="6.81722">
        <ele>1145.2</ele>
        <time>2020-08-07T11:57:59Z</time>
      </trkpt>
      <trkpt lat="45.6264" lon="6.81731">
        <ele>1145.8</ele>
        <time>2020-08-07T11:58:01Z</time>
      </trkpt>
      <trkpt lat="45.62637" lon="6.81736">
        <ele>1146.1</ele>
        <time>2020-08-07T11:58:04Z</time>
      </trkpt>
      <trkpt lat="45.62632" lon="6.81742">
        <ele>1146.5</ele>
        <time>2020-08-07T11:58:06Z</time>
      </trkpt>
      <trkpt lat="45.62628" lon="6.81747">
        <ele>1146.9</ele>
        <time>2020-08-07T11:58:08Z</time>
      </trkpt>
      <trkpt lat="45.62625" lon="6.8175">
        <ele>1147.1</ele>
        <time>2020-08-07T11:58:09Z</time>
      </trkpt>
      <trkpt lat="45.62622" lon="6.81756">
        <ele>1147.4</ele>
        <time>2020-08-07T11:58:11Z</time>
      </trkpt>
      <trkpt lat="45.62619" lon="6.8176">
        <ele>1147.7</ele>
        <time>2020-08-07T11:58:12Z</time>
      </trkpt>
      <trkpt lat="45.62618" lon="6.81762">
        <ele>1147.8</ele>
        <time>2020-08-07T11:58:13Z</time>
      </trkpt>
      <trkpt lat="45.62615" lon="6.81767">
        <ele>1148.1</ele>
        <time>2020-08-07T11:58:15Z</time>
      </trkpt>
      <trkpt lat="45.62611" lon="6.81774">
        <ele>1148.4</ele>
        <time>2020-08-07T11:58:16Z</time>
      </trkpt>
      <trkpt lat="45.62609" lon="6.81778">
        <ele>1148.6</ele>
        <time>2020-08-07T11:58:17Z</time>
      </trkpt>
      <trkpt lat="45.62607" lon="6.81782">
        <ele>1148.8</ele>
        <time>2020-08-07T11:58:19Z</time>
      </trkpt>
      <trkpt lat="45.62601" lon="6.81792">
        <ele>1149.3</ele>
        <time>2020-08-07T11:58:21Z</time>
      </trkpt>
      <trkpt lat="45.62597" lon="6.81798">
        <ele>1149.6</ele>
        <time>2020-08-07T11:58:23Z</time>
      </trkpt>
      <trkpt lat="45.62594" lon="6.818">
        <ele>1149.8</ele>
        <time>2020-08-07T11:58:25Z</time>
      </trkpt>
      <trkpt lat="45.62592" lon="6.81802">
        <ele>1149.9</ele>
        <time>2020-08-07T11:58:26Z</time>
      </trkpt>
      <trkpt lat="45.62589" lon="6.81805">
        <ele>1150.1</ele>
        <time>2020-08-07T11:58:27Z</time>
      </trkpt>
      <trkpt lat="45.62584" lon="6.81809">
        <ele>1150.4</ele>
        <time>2020-08-07T11:58:29Z</time>
      </trkpt>
      <trkpt lat="45.62581" lon="6.8181">
        <ele>1150.6</ele>
        <time>2020-08-07T11:58:30Z</time>
      </trkpt>
      <trkpt lat="45.62577" lon="6.81812">
        <ele>1150.9</ele>
        <time>2020-08-07T11:58:31Z</time>
      </trkpt>
      <trkpt lat="45.62576" lon="6.81813">
        <ele>1151</ele>
        <time>2020-08-07T11:58:32Z</time>
      </trkpt>
      <trkpt lat="45.62572" lon="6.81814">
        <ele>1151.3</ele>
        <time>2020-08-07T11:58:34Z</time>
      </trkpt>
      <trkpt lat="45.62565" lon="6.81816">
        <ele>1151.7</ele>
        <time>2020-08-07T11:58:35Z</time>
      </trkpt>
      <trkpt lat="45.62555" lon="6.81817">
        <ele>1152.3</ele>
        <time>2020-08-07T11:58:38Z</time>
      </trkpt>
      <trkpt lat="45.62551" lon="6.81817">
        <ele>1152.5</ele>
        <time>2020-08-07T11:58:40Z</time>
      </trkpt>
      <trkpt lat="45.62546" lon="6.81818">
        <ele>1152.8</ele>
        <time>2020-08-07T11:58:42Z</time>
      </trkpt>
      <trkpt lat="45.62541" lon="6.81819">
        <ele>1153.1</ele>
        <time>2020-08-07T11:58:43Z</time>
      </trkpt>
      <trkpt lat="45.62537" lon="6.8182">
        <ele>1153.3</ele>
        <time>2020-08-07T11:58:44Z</time>
      </trkpt>
      <trkpt lat="45.62533" lon="6.81822">
        <ele>1153.6</ele>
        <time>2020-08-07T11:58:46Z</time>
      </trkpt>
      <trkpt lat="45.62527" lon="6.81825">
        <ele>1154</ele>
        <time>2020-08-07T11:58:47Z</time>
      </trkpt>
      <trkpt lat="45.62524" lon="6.81827">
        <ele>1154.2</ele>
        <time>2020-08-07T11:58:48Z</time>
      </trkpt>
      <trkpt lat="45.62518" lon="6.81832">
        <ele>1154.6</ele>
        <time>2020-08-07T11:58:50Z</time>
      </trkpt>
      <trkpt lat="45.62514" lon="6.81835">
        <ele>1154.8</ele>
        <time>2020-08-07T11:58:51Z</time>
      </trkpt>
      <trkpt lat="45.62505" lon="6.81842">
        <ele>1155.4</ele>
        <time>2020-08-07T11:58:54Z</time>
      </trkpt>
      <trkpt lat="45.62501" lon="6.81845">
        <ele>1155.6</ele>
        <time>2020-08-07T11:58:56Z</time>
      </trkpt>
      <trkpt lat="45.62495" lon="6.81851">
        <ele>1156</ele>
        <time>2020-08-07T11:58:58Z</time>
      </trkpt>
      <trkpt lat="45.62492" lon="6.81854">
        <ele>1156.2</ele>
        <time>2020-08-07T11:58:59Z</time>
      </trkpt>
      <trkpt lat="45.62488" lon="6.81859">
        <ele>1156.5</ele>
        <time>2020-08-07T11:59:02Z</time>
      </trkpt>
      <trkpt lat="45.62483" lon="6.81863">
        <ele>1156.8</ele>
        <time>2020-08-07T11:59:04Z</time>
      </trkpt>
      <trkpt lat="45.62475" lon="6.8187">
        <ele>1157.3</ele>
        <time>2020-08-07T11:59:05Z</time>
      </trkpt>
      <trkpt lat="45.62472" lon="6.81873">
        <ele>1157.5</ele>
        <time>2020-08-07T11:59:07Z</time>
      </trkpt>
      <trkpt lat="45.62469" lon="6.81875">
        <ele>1157.7</ele>
        <time>2020-08-07T11:59:09Z</time>
      </trkpt>
      <trkpt lat="45.62463" lon="6.81879">
        <ele>1158</ele>
        <time>2020-08-07T11:59:11Z</time>
      </trkpt>
      <trkpt lat="45.62458" lon="6.81883">
        <ele>1158.3</ele>
        <time>2020-08-07T11:59:13Z</time>
      </trkpt>
      <trkpt lat="45.62452" lon="6.81888">
        <ele>1158.5</ele>
        <time>2020-08-07T11:59:14Z</time>
      </trkpt>
      <trkpt lat="45.62447" lon="6.81891">
        <ele>1158.5</ele>
        <time>2020-08-07T11:59:15Z</time>
      </trkpt>
      <trkpt lat="45.62443" lon="6.81894">
        <ele>1158.5</ele>
        <time>2020-08-07T11:59:16Z</time>
      </trkpt>
      <trkpt lat="45.62436" lon="6.819">
        <ele>1158.9</ele>
        <time>2020-08-07T11:59:19Z</time>
      </trkpt>
      <trkpt lat="45.62433" lon="6.81903">
        <ele>1159.1</ele>
        <time>2020-08-07T11:59:20Z</time>
      </trkpt>
      <trkpt lat="45.62423" lon="6.81909">
        <ele>1159.8</ele>
        <time>2020-08-07T11:59:23Z</time>
      </trkpt>
      <trkpt lat="45.6242" lon="6.81911">
        <ele>1160</ele>
        <time>2020-08-07T11:59:24Z</time>
      </trkpt>
      <trkpt lat="45.62418" lon="6.81913">
        <ele>1160.2</ele>
        <time>2020-08-07T11:59:26Z</time>
      </trkpt>
      <trkpt lat="45.62414" lon="6.81915">
        <ele>1160.4</ele>
        <time>2020-08-07T11:59:28Z</time>
      </trkpt>
      <trkpt lat="45.62409" lon="6.81919">
        <ele>1160.7</ele>
        <time>2020-08-07T11:59:29Z</time>
      </trkpt>
      <trkpt lat="45.62406" lon="6.81921">
        <ele>1160.9</ele>
        <time>2020-08-07T11:59:30Z</time>
      </trkpt>
      <trkpt lat="45.62403" lon="6.81923">
        <ele>1161.1</ele>
        <time>2020-08-07T11:59:32Z</time>
      </trkpt>
      <trkpt lat="45.624" lon="6.81925">
        <ele>1161.3</ele>
        <time>2020-08-07T11:59:33Z</time>
      </trkpt>
      <trkpt lat="45.62395" lon="6.81929">
        <ele>1161.7</ele>
        <time>2020-08-07T11:59:35Z</time>
      </trkpt>
      <trkpt lat="45.62393" lon="6.81931">
        <ele>1161.9</ele>
        <time>2020-08-07T11:59:36Z</time>
      </trkpt>
      <trkpt lat="45.6239" lon="6.81934">
        <ele>1162.1</ele>
        <time>2020-08-07T11:59:37Z</time>
      </trkpt>
      <trkpt lat="45.62387" lon="6.81936">
        <ele>1162.3</ele>
        <time>2020-08-07T11:59:38Z</time>
      </trkpt>
      <trkpt lat="45.62382" lon="6.81941">
        <ele>1162.6</ele>
        <time>2020-08-07T11:59:40Z</time>
      </trkpt>
      <trkpt lat="45.62379" lon="6.81944">
        <ele>1162.9</ele>
        <time>2020-08-07T11:59:41Z</time>
      </trkpt>
      <trkpt lat="45.62372" lon="6.8195">
        <ele>1163.3</ele>
        <time>2020-08-07T11:59:43Z</time>
      </trkpt>
      <trkpt lat="45.62369" lon="6.81953">
        <ele>1163.5</ele>
        <time>2020-08-07T11:59:44Z</time>
      </trkpt>
      <trkpt lat="45.62365" lon="6.81959">
        <ele>1163.8</ele>
        <time>2020-08-07T11:59:45Z</time>
      </trkpt>
      <trkpt lat="45.62359" lon="6.81967">
        <ele>1164.3</ele>
        <time>2020-08-07T11:59:47Z</time>
      </trkpt>
      <trkpt lat="45.62351" lon="6.81977">
        <ele>1164.9</ele>
        <time>2020-08-07T11:59:50Z</time>
      </trkpt>
      <trkpt lat="45.62347" lon="6.81981">
        <ele>1165.1</ele>
        <time>2020-08-07T11:59:52Z</time>
      </trkpt>
      <trkpt lat="45.62345" lon="6.81984">
        <ele>1165.3</ele>
        <time>2020-08-07T11:59:53Z</time>
      </trkpt>
      <trkpt lat="45.6234" lon="6.81991">
        <ele>1165.6</ele>
        <time>2020-08-07T11:59:55Z</time>
      </trkpt>
      <trkpt lat="45.62338" lon="6.81995">
        <ele>1165.8</ele>
        <time>2020-08-07T11:59:56Z</time>
      </trkpt>
      <trkpt lat="45.62336" lon="6.81999">
        <ele>1166</ele>
        <time>2020-08-07T11:59:57Z</time>
      </trkpt>
      <trkpt lat="45.62334" lon="6.82003">
        <ele>1166.2</ele>
        <time>2020-08-07T11:59:58Z</time>
      </trkpt>
      <trkpt lat="45.6233" lon="6.82011">
        <ele>1166.6</ele>
        <time>2020-08-07T12:00:01Z</time>
      </trkpt>
      <trkpt lat="45.62325" lon="6.82021">
        <ele>1167.1</ele>
        <time>2020-08-07T12:00:02Z</time>
      </trkpt>
      <trkpt lat="45.62323" lon="6.82026">
        <ele>1167.3</ele>
        <time>2020-08-07T12:00:04Z</time>
      </trkpt>
      <trkpt lat="45.62321" lon="6.8203">
        <ele>1167.5</ele>
        <time>2020-08-07T12:00:05Z</time>
      </trkpt>
      <trkpt lat="45.62319" lon="6.82035">
        <ele>1167.7</ele>
        <time>2020-08-07T12:00:06Z</time>
      </trkpt>
      <trkpt lat="45.62318" lon="6.82039">
        <ele>1167.9</ele>
        <time>2020-08-07T12:00:07Z</time>
      </trkpt>
      <trkpt lat="45.62316" lon="6.82043">
        <ele>1168.1</ele>
        <time>2020-08-07T12:00:08Z</time>
      </trkpt>
      <trkpt lat="45.62311" lon="6.82052">
        <ele>1168.6</ele>
        <time>2020-08-07T12:00:10Z</time>
      </trkpt>
      <trkpt lat="45.62309" lon="6.82056">
        <ele>1168.8</ele>
        <time>2020-08-07T12:00:11Z</time>
      </trkpt>
      <trkpt lat="45.62302" lon="6.82067">
        <ele>1169.4</ele>
        <time>2020-08-07T12:00:14Z</time>
      </trkpt>
      <trkpt lat="45.62299" lon="6.82071">
        <ele>1169.6</ele>
        <time>2020-08-07T12:00:16Z</time>
      </trkpt>
      <trkpt lat="45.62296" lon="6.82074">
        <ele>1169.8</ele>
        <time>2020-08-07T12:00:17Z</time>
      </trkpt>
      <trkpt lat="45.62287" lon="6.8208">
        <ele>1170.3</ele>
        <time>2020-08-07T12:00:19Z</time>
      </trkpt>
      <trkpt lat="45.62282" lon="6.82083">
        <ele>1170.6</ele>
        <time>2020-08-07T12:00:21Z</time>
      </trkpt>
      <trkpt lat="45.62278" lon="6.82084">
        <ele>1170.8</ele>
        <time>2020-08-07T12:00:22Z</time>
      </trkpt>
      <trkpt lat="45.62275" lon="6.82086">
        <ele>1170.9</ele>
        <time>2020-08-07T12:00:24Z</time>
      </trkpt>
      <trkpt lat="45.62268" lon="6.82089">
        <ele>1171.3</ele>
        <time>2020-08-07T12:00:26Z</time>
      </trkpt>
      <trkpt lat="45.62262" lon="6.82091">
        <ele>1171.6</ele>
        <time>2020-08-07T12:00:27Z</time>
      </trkpt>
      <trkpt lat="45.62258" lon="6.82093">
        <ele>1171.8</ele>
        <time>2020-08-07T12:00:29Z</time>
      </trkpt>
      <trkpt lat="45.62254" lon="6.82094">
        <ele>1172</ele>
        <time>2020-08-07T12:00:30Z</time>
      </trkpt>
      <trkpt lat="45.62251" lon="6.82096">
        <ele>1172.1</ele>
        <time>2020-08-07T12:00:31Z</time>
      </trkpt>
      <trkpt lat="45.62246" lon="6.821">
        <ele>1172.4</ele>
        <time>2020-08-07T12:00:32Z</time>
      </trkpt>
      <trkpt lat="45.62241" lon="6.82103">
        <ele>1172.7</ele>
        <time>2020-08-07T12:00:34Z</time>
      </trkpt>
      <trkpt lat="45.62235" lon="6.82108">
        <ele>1173.1</ele>
        <time>2020-08-07T12:00:36Z</time>
      </trkpt>
      <trkpt lat="45.62232" lon="6.82111">
        <ele>1173.2</ele>
        <time>2020-08-07T12:00:37Z</time>
      </trkpt>
      <trkpt lat="45.62229" lon="6.82114">
        <ele>1173.4</ele>
        <time>2020-08-07T12:00:38Z</time>
      </trkpt>
      <trkpt lat="45.62226" lon="6.82117">
        <ele>1173.6</ele>
        <time>2020-08-07T12:00:39Z</time>
      </trkpt>
      <trkpt lat="45.62221" lon="6.82124">
        <ele>1174</ele>
        <time>2020-08-07T12:00:41Z</time>
      </trkpt>
      <trkpt lat="45.62215" lon="6.82132">
        <ele>1174.4</ele>
        <time>2020-08-07T12:00:43Z</time>
      </trkpt>
      <trkpt lat="45.62211" lon="6.82138">
        <ele>1174.7</ele>
        <time>2020-08-07T12:00:44Z</time>
      </trkpt>
      <trkpt lat="45.62209" lon="6.82142">
        <ele>1174.9</ele>
        <time>2020-08-07T12:00:46Z</time>
      </trkpt>
      <trkpt lat="45.62208" lon="6.82146">
        <ele>1175.1</ele>
        <time>2020-08-07T12:00:47Z</time>
      </trkpt>
      <trkpt lat="45.62204" lon="6.82155">
        <ele>1175.5</ele>
        <time>2020-08-07T12:00:49Z</time>
      </trkpt>
      <trkpt lat="45.62202" lon="6.82162">
        <ele>1175.8</ele>
        <time>2020-08-07T12:00:50Z</time>
      </trkpt>
      <trkpt lat="45.62198" lon="6.82173">
        <ele>1176.2</ele>
        <time>2020-08-07T12:00:52Z</time>
      </trkpt>
      <trkpt lat="45.62197" lon="6.82177">
        <ele>1176.3</ele>
        <time>2020-08-07T12:00:53Z</time>
      </trkpt>
      <trkpt lat="45.62195" lon="6.82183">
        <ele>1176.5</ele>
        <time>2020-08-07T12:00:55Z</time>
      </trkpt>
      <trkpt lat="45.62194" lon="6.82188">
        <ele>1176.7</ele>
        <time>2020-08-07T12:00:56Z</time>
      </trkpt>
      <trkpt lat="45.62191" lon="6.82196">
        <ele>1177</ele>
        <time>2020-08-07T12:00:59Z</time>
      </trkpt>
      <trkpt lat="45.62189" lon="6.82205">
        <ele>1177.3</ele>
        <time>2020-08-07T12:01:01Z</time>
      </trkpt>
      <trkpt lat="45.62186" lon="6.82213">
        <ele>1177.5</ele>
        <time>2020-08-07T12:01:02Z</time>
      </trkpt>
      <trkpt lat="45.62183" lon="6.82224">
        <ele>1177.9</ele>
        <time>2020-08-07T12:01:04Z</time>
      </trkpt>
      <trkpt lat="45.62182" lon="6.82229">
        <ele>1178</ele>
        <time>2020-08-07T12:01:05Z</time>
      </trkpt>
      <trkpt lat="45.62181" lon="6.82235">
        <ele>1178.2</ele>
        <time>2020-08-07T12:01:06Z</time>
      </trkpt>
      <trkpt lat="45.62179" lon="6.8224">
        <ele>1178.4</ele>
        <time>2020-08-07T12:01:07Z</time>
      </trkpt>
      <trkpt lat="45.62177" lon="6.82245">
        <ele>1178.6</ele>
        <time>2020-08-07T12:01:09Z</time>
      </trkpt>
      <trkpt lat="45.62175" lon="6.8225">
        <ele>1178.8</ele>
        <time>2020-08-07T12:01:10Z</time>
      </trkpt>
      <trkpt lat="45.62173" lon="6.82255">
        <ele>1179</ele>
        <time>2020-08-07T12:01:11Z</time>
      </trkpt>
      <trkpt lat="45.62171" lon="6.82259">
        <ele>1179.2</ele>
        <time>2020-08-07T12:01:13Z</time>
      </trkpt>
      <trkpt lat="45.62168" lon="6.82262">
        <ele>1179.4</ele>
        <time>2020-08-07T12:01:15Z</time>
      </trkpt>
      <trkpt lat="45.62164" lon="6.82267">
        <ele>1179.7</ele>
        <time>2020-08-07T12:01:17Z</time>
      </trkpt>
      <trkpt lat="45.62159" lon="6.82272">
        <ele>1180</ele>
        <time>2020-08-07T12:01:19Z</time>
      </trkpt>
      <trkpt lat="45.62154" lon="6.82277">
        <ele>1180.4</ele>
        <time>2020-08-07T12:01:20Z</time>
      </trkpt>
      <trkpt lat="45.62151" lon="6.8228">
        <ele>1180.6</ele>
        <time>2020-08-07T12:01:21Z</time>
      </trkpt>
      <trkpt lat="45.62145" lon="6.82285">
        <ele>1181.1</ele>
        <time>2020-08-07T12:01:23Z</time>
      </trkpt>
      <trkpt lat="45.62142" lon="6.82287">
        <ele>1181.3</ele>
        <time>2020-08-07T12:01:25Z</time>
      </trkpt>
      <trkpt lat="45.62139" lon="6.82289">
        <ele>1181.6</ele>
        <time>2020-08-07T12:01:26Z</time>
      </trkpt>
      <trkpt lat="45.62135" lon="6.82291">
        <ele>1181.9</ele>
        <time>2020-08-07T12:01:27Z</time>
      </trkpt>
      <trkpt lat="45.62133" lon="6.82293">
        <ele>1182.1</ele>
        <time>2020-08-07T12:01:29Z</time>
      </trkpt>
      <trkpt lat="45.6213" lon="6.82296">
        <ele>1182.3</ele>
        <time>2020-08-07T12:01:30Z</time>
      </trkpt>
      <trkpt lat="45.62127" lon="6.82298">
        <ele>1182.5</ele>
        <time>2020-08-07T12:01:31Z</time>
      </trkpt>
      <trkpt lat="45.62123" lon="6.82304">
        <ele>1182.9</ele>
        <time>2020-08-07T12:01:33Z</time>
      </trkpt>
      <trkpt lat="45.62121" lon="6.82308">
        <ele>1183.1</ele>
        <time>2020-08-07T12:01:34Z</time>
      </trkpt>
      <trkpt lat="45.62118" lon="6.82311">
        <ele>1183.4</ele>
        <time>2020-08-07T12:01:36Z</time>
      </trkpt>
      <trkpt lat="45.62116" lon="6.82316">
        <ele>1183.6</ele>
        <time>2020-08-07T12:01:37Z</time>
      </trkpt>
      <trkpt lat="45.62114" lon="6.82325">
        <ele>1184</ele>
        <time>2020-08-07T12:01:39Z</time>
      </trkpt>
      <trkpt lat="45.62112" lon="6.8233">
        <ele>1184.3</ele>
        <time>2020-08-07T12:01:40Z</time>
      </trkpt>
      <trkpt lat="45.6211" lon="6.82336">
        <ele>1184.6</ele>
        <time>2020-08-07T12:01:42Z</time>
      </trkpt>
      <trkpt lat="45.62108" lon="6.82341">
        <ele>1184.8</ele>
        <time>2020-08-07T12:01:44Z</time>
      </trkpt>
      <trkpt lat="45.62105" lon="6.82349">
        <ele>1185.3</ele>
        <time>2020-08-07T12:01:45Z</time>
      </trkpt>
      <trkpt lat="45.62103" lon="6.82358">
        <ele>1185.7</ele>
        <time>2020-08-07T12:01:48Z</time>
      </trkpt>
      <trkpt lat="45.62102" lon="6.8236">
        <ele>1185.8</ele>
        <time>2020-08-07T12:01:49Z</time>
      </trkpt>
      <trkpt lat="45.62101" lon="6.82362">
        <ele>1186</ele>
        <time>2020-08-07T12:01:50Z</time>
      </trkpt>
      <trkpt lat="45.62099" lon="6.82368">
        <ele>1186.3</ele>
        <time>2020-08-07T12:01:51Z</time>
      </trkpt>
      <trkpt lat="45.62097" lon="6.82372">
        <ele>1186.5</ele>
        <time>2020-08-07T12:01:53Z</time>
      </trkpt>
      <trkpt lat="45.62096" lon="6.82376">
        <ele>1186.7</ele>
        <time>2020-08-07T12:01:54Z</time>
      </trkpt>
      <trkpt lat="45.62093" lon="6.82385">
        <ele>1187.2</ele>
        <time>2020-08-07T12:01:55Z</time>
      </trkpt>
      <trkpt lat="45.62091" lon="6.8239">
        <ele>1187.4</ele>
        <time>2020-08-07T12:01:57Z</time>
      </trkpt>
      <trkpt lat="45.62089" lon="6.82396">
        <ele>1187.8</ele>
        <time>2020-08-07T12:01:59Z</time>
      </trkpt>
      <trkpt lat="45.62086" lon="6.82405">
        <ele>1188.2</ele>
        <time>2020-08-07T12:02:01Z</time>
      </trkpt>
      <trkpt lat="45.62085" lon="6.82409">
        <ele>1188.4</ele>
        <time>2020-08-07T12:02:02Z</time>
      </trkpt>
      <trkpt lat="45.62083" lon="6.82413">
        <ele>1188.7</ele>
        <time>2020-08-07T12:02:04Z</time>
      </trkpt>
      <trkpt lat="45.62082" lon="6.82417">
        <ele>1188.9</ele>
        <time>2020-08-07T12:02:05Z</time>
      </trkpt>
      <trkpt lat="45.62081" lon="6.82422">
        <ele>1189.1</ele>
        <time>2020-08-07T12:02:06Z</time>
      </trkpt>
      <trkpt lat="45.62077" lon="6.82435">
        <ele>1189.7</ele>
        <time>2020-08-07T12:02:09Z</time>
      </trkpt>
      <trkpt lat="45.62074" lon="6.82447">
        <ele>1190.2</ele>
        <time>2020-08-07T12:02:12Z</time>
      </trkpt>
      <trkpt lat="45.62073" lon="6.82452">
        <ele>1190.4</ele>
        <time>2020-08-07T12:02:13Z</time>
      </trkpt>
      <trkpt lat="45.62067" lon="6.82465">
        <ele>1190.9</ele>
        <time>2020-08-07T12:02:16Z</time>
      </trkpt>
      <trkpt lat="45.62062" lon="6.8248">
        <ele>1191.4</ele>
        <time>2020-08-07T12:02:19Z</time>
      </trkpt>
      <trkpt lat="45.62059" lon="6.82486">
        <ele>1191.6</ele>
        <time>2020-08-07T12:02:22Z</time>
      </trkpt>
      <trkpt lat="45.62055" lon="6.82493">
        <ele>1191.9</ele>
        <time>2020-08-07T12:02:24Z</time>
      </trkpt>
      <trkpt lat="45.62052" lon="6.825">
        <ele>1192.2</ele>
        <time>2020-08-07T12:02:26Z</time>
      </trkpt>
      <trkpt lat="45.62047" lon="6.82508">
        <ele>1192.5</ele>
        <time>2020-08-07T12:02:27Z</time>
      </trkpt>
      <trkpt lat="45.62044" lon="6.82515">
        <ele>1192.8</ele>
        <time>2020-08-07T12:02:29Z</time>
      </trkpt>
      <trkpt lat="45.62037" lon="6.82524">
        <ele>1193.2</ele>
        <time>2020-08-07T12:02:31Z</time>
      </trkpt>
      <trkpt lat="45.62034" lon="6.82529">
        <ele>1193.4</ele>
        <time>2020-08-07T12:02:33Z</time>
      </trkpt>
      <trkpt lat="45.62032" lon="6.82534">
        <ele>1193.6</ele>
        <time>2020-08-07T12:02:34Z</time>
      </trkpt>
      <trkpt lat="45.62031" lon="6.82542">
        <ele>1193.8</ele>
        <time>2020-08-07T12:02:36Z</time>
      </trkpt>
      <trkpt lat="45.62033" lon="6.82552">
        <ele>1194</ele>
        <time>2020-08-07T12:02:37Z</time>
      </trkpt>
      <trkpt lat="45.62038" lon="6.82555">
        <ele>1194.2</ele>
        <time>2020-08-07T12:02:39Z</time>
      </trkpt>
      <trkpt lat="45.62045" lon="6.82555">
        <ele>1194.4</ele>
        <time>2020-08-07T12:02:40Z</time>
      </trkpt>
      <trkpt lat="45.62053" lon="6.82544">
        <ele>1194.6</ele>
        <time>2020-08-07T12:02:42Z</time>
      </trkpt>
      <trkpt lat="45.62059" lon="6.82528">
        <ele>1194.7</ele>
        <time>2020-08-07T12:02:45Z</time>
      </trkpt>
      <trkpt lat="45.62062" lon="6.82523">
        <ele>1194.8</ele>
        <time>2020-08-07T12:02:46Z</time>
      </trkpt>
      <trkpt lat="45.62065" lon="6.82517">
        <ele>1194.9</ele>
        <time>2020-08-07T12:02:48Z</time>
      </trkpt>
      <trkpt lat="45.62075" lon="6.825">
        <ele>1195.3</ele>
        <time>2020-08-07T12:02:51Z</time>
      </trkpt>
      <trkpt lat="45.62078" lon="6.82493">
        <ele>1195.5</ele>
        <time>2020-08-07T12:02:53Z</time>
      </trkpt>
      <trkpt lat="45.62081" lon="6.82488">
        <ele>1195.7</ele>
        <time>2020-08-07T12:02:55Z</time>
      </trkpt>
      <trkpt lat="45.62085" lon="6.82479">
        <ele>1195.9</ele>
        <time>2020-08-07T12:02:57Z</time>
      </trkpt>
      <trkpt lat="45.62088" lon="6.82469">
        <ele>1196.1</ele>
        <time>2020-08-07T12:02:59Z</time>
      </trkpt>
      <trkpt lat="45.62091" lon="6.82459">
        <ele>1196.4</ele>
        <time>2020-08-07T12:03:01Z</time>
      </trkpt>
      <trkpt lat="45.62094" lon="6.82447">
        <ele>1196.8</ele>
        <time>2020-08-07T12:03:02Z</time>
      </trkpt>
      <trkpt lat="45.62096" lon="6.82441">
        <ele>1197</ele>
        <time>2020-08-07T12:03:03Z</time>
      </trkpt>
      <trkpt lat="45.62099" lon="6.82432">
        <ele>1197.2</ele>
        <time>2020-08-07T12:03:06Z</time>
      </trkpt>
      <trkpt lat="45.62103" lon="6.8242">
        <ele>1197.7</ele>
        <time>2020-08-07T12:03:07Z</time>
      </trkpt>
      <trkpt lat="45.62105" lon="6.82415">
        <ele>1197.8</ele>
        <time>2020-08-07T12:03:09Z</time>
      </trkpt>
      <trkpt lat="45.62112" lon="6.82405">
        <ele>1198.4</ele>
        <time>2020-08-07T12:03:11Z</time>
      </trkpt>
      <trkpt lat="45.62114" lon="6.82402">
        <ele>1198.8</ele>
        <time>2020-08-07T12:03:12Z</time>
      </trkpt>
      <trkpt lat="45.62122" lon="6.82391">
        <ele>1199.9</ele>
        <time>2020-08-07T12:03:15Z</time>
      </trkpt>
      <trkpt lat="45.62126" lon="6.82388">
        <ele>1200.3</ele>
        <time>2020-08-07T12:03:17Z</time>
      </trkpt>
      <trkpt lat="45.62131" lon="6.82382">
        <ele>1200.9</ele>
        <time>2020-08-07T12:03:19Z</time>
      </trkpt>
      <trkpt lat="45.62135" lon="6.82379">
        <ele>1201.2</ele>
        <time>2020-08-07T12:03:20Z</time>
      </trkpt>
      <trkpt lat="45.62138" lon="6.82375">
        <ele>1201.6</ele>
        <time>2020-08-07T12:03:22Z</time>
      </trkpt>
      <trkpt lat="45.62143" lon="6.82369">
        <ele>1202.1</ele>
        <time>2020-08-07T12:03:24Z</time>
      </trkpt>
      <trkpt lat="45.62146" lon="6.82367">
        <ele>1202.4</ele>
        <time>2020-08-07T12:03:25Z</time>
      </trkpt>
      <trkpt lat="45.62149" lon="6.82364">
        <ele>1202.7</ele>
        <time>2020-08-07T12:03:26Z</time>
      </trkpt>
      <trkpt lat="45.62155" lon="6.82358">
        <ele>1203.4</ele>
        <time>2020-08-07T12:03:28Z</time>
      </trkpt>
      <trkpt lat="45.62158" lon="6.82354">
        <ele>1203.7</ele>
        <time>2020-08-07T12:03:29Z</time>
      </trkpt>
      <trkpt lat="45.6216" lon="6.82351">
        <ele>1204</ele>
        <time>2020-08-07T12:03:30Z</time>
      </trkpt>
      <trkpt lat="45.62163" lon="6.82349">
        <ele>1204.4</ele>
        <time>2020-08-07T12:03:31Z</time>
      </trkpt>
      <trkpt lat="45.62167" lon="6.82343">
        <ele>1204.9</ele>
        <time>2020-08-07T12:03:33Z</time>
      </trkpt>
      <trkpt lat="45.62172" lon="6.82338">
        <ele>1205.4</ele>
        <time>2020-08-07T12:03:34Z</time>
      </trkpt>
      <trkpt lat="45.62175" lon="6.82335">
        <ele>1205.7</ele>
        <time>2020-08-07T12:03:36Z</time>
      </trkpt>
      <trkpt lat="45.62177" lon="6.82331">
        <ele>1206.1</ele>
        <time>2020-08-07T12:03:37Z</time>
      </trkpt>
      <trkpt lat="45.62181" lon="6.82325">
        <ele>1206.6</ele>
        <time>2020-08-07T12:03:39Z</time>
      </trkpt>
      <trkpt lat="45.62184" lon="6.82322">
        <ele>1206.9</ele>
        <time>2020-08-07T12:03:40Z</time>
      </trkpt>
      <trkpt lat="45.62188" lon="6.82316">
        <ele>1207.5</ele>
        <time>2020-08-07T12:03:41Z</time>
      </trkpt>
      <trkpt lat="45.6219" lon="6.82313">
        <ele>1207.8</ele>
        <time>2020-08-07T12:03:43Z</time>
      </trkpt>
      <trkpt lat="45.62193" lon="6.8231">
        <ele>1208.1</ele>
        <time>2020-08-07T12:03:44Z</time>
      </trkpt>
      <trkpt lat="45.62199" lon="6.82303">
        <ele>1208.8</ele>
        <time>2020-08-07T12:03:46Z</time>
      </trkpt>
      <trkpt lat="45.62204" lon="6.82298">
        <ele>1209.3</ele>
        <time>2020-08-07T12:03:48Z</time>
      </trkpt>
      <trkpt lat="45.6221" lon="6.82292">
        <ele>1210</ele>
        <time>2020-08-07T12:03:50Z</time>
      </trkpt>
      <trkpt lat="45.62213" lon="6.82289">
        <ele>1210.3</ele>
        <time>2020-08-07T12:03:51Z</time>
      </trkpt>
      <trkpt lat="45.62219" lon="6.82284">
        <ele>1210.9</ele>
        <time>2020-08-07T12:03:53Z</time>
      </trkpt>
      <trkpt lat="45.62226" lon="6.82279">
        <ele>1211.6</ele>
        <time>2020-08-07T12:03:54Z</time>
      </trkpt>
      <trkpt lat="45.6223" lon="6.82275">
        <ele>1212</ele>
        <time>2020-08-07T12:03:57Z</time>
      </trkpt>
      <trkpt lat="45.62235" lon="6.8227">
        <ele>1212.6</ele>
        <time>2020-08-07T12:03:58Z</time>
      </trkpt>
      <trkpt lat="45.62239" lon="6.82267">
        <ele>1213</ele>
        <time>2020-08-07T12:03:59Z</time>
      </trkpt>
      <trkpt lat="45.62243" lon="6.82263">
        <ele>1213.4</ele>
        <time>2020-08-07T12:04:01Z</time>
      </trkpt>
      <trkpt lat="45.62246" lon="6.8226">
        <ele>1213.7</ele>
        <time>2020-08-07T12:04:03Z</time>
      </trkpt>
      <trkpt lat="45.62252" lon="6.82255">
        <ele>1213.9</ele>
        <time>2020-08-07T12:04:05Z</time>
      </trkpt>
      <trkpt lat="45.62258" lon="6.82252">
        <ele>1214</ele>
        <time>2020-08-07T12:04:06Z</time>
      </trkpt>
      <trkpt lat="45.62265" lon="6.82246">
        <ele>1214.2</ele>
        <time>2020-08-07T12:04:08Z</time>
      </trkpt>
      <trkpt lat="45.62272" lon="6.8224">
        <ele>1214.4</ele>
        <time>2020-08-07T12:04:11Z</time>
      </trkpt>
      <trkpt lat="45.62275" lon="6.82238">
        <ele>1214.5</ele>
        <time>2020-08-07T12:04:12Z</time>
      </trkpt>
      <trkpt lat="45.6228" lon="6.82235">
        <ele>1214.6</ele>
        <time>2020-08-07T12:04:14Z</time>
      </trkpt>
      <trkpt lat="45.62283" lon="6.82234">
        <ele>1214.7</ele>
        <time>2020-08-07T12:04:16Z</time>
      </trkpt>
      <trkpt lat="45.62288" lon="6.82231">
        <ele>1214.8</ele>
        <time>2020-08-07T12:04:18Z</time>
      </trkpt>
      <trkpt lat="45.62293" lon="6.82227">
        <ele>1215</ele>
        <time>2020-08-07T12:04:19Z</time>
      </trkpt>
      <trkpt lat="45.62296" lon="6.82224">
        <ele>1215</ele>
        <time>2020-08-07T12:04:21Z</time>
      </trkpt>
      <trkpt lat="45.62302" lon="6.82218">
        <ele>1215.2</ele>
        <time>2020-08-07T12:04:23Z</time>
      </trkpt>
      <trkpt lat="45.62308" lon="6.82213">
        <ele>1215.4</ele>
        <time>2020-08-07T12:04:24Z</time>
      </trkpt>
      <trkpt lat="45.62312" lon="6.8221">
        <ele>1215.5</ele>
        <time>2020-08-07T12:04:25Z</time>
      </trkpt>
      <trkpt lat="45.62315" lon="6.82207">
        <ele>1215.6</ele>
        <time>2020-08-07T12:04:28Z</time>
      </trkpt>
      <trkpt lat="45.62318" lon="6.82204">
        <ele>1215.7</ele>
        <time>2020-08-07T12:04:29Z</time>
      </trkpt>
      <trkpt lat="45.62319" lon="6.82204">
        <ele>1215.7</ele>
        <time>2020-08-07T12:04:31Z</time>
      </trkpt>
      <trkpt lat="45.62325" lon="6.82198">
        <ele>1216</ele>
        <time>2020-08-07T12:04:33Z</time>
      </trkpt>
      <trkpt lat="45.62328" lon="6.82195">
        <ele>1216.1</ele>
        <time>2020-08-07T12:04:36Z</time>
      </trkpt>
      <trkpt lat="45.62331" lon="6.82192">
        <ele>1216.2</ele>
        <time>2020-08-07T12:04:38Z</time>
      </trkpt>
      <trkpt lat="45.62333" lon="6.8219">
        <ele>1216.3</ele>
        <time>2020-08-07T12:04:39Z</time>
      </trkpt>
      <trkpt lat="45.62338" lon="6.82186">
        <ele>1216.5</ele>
        <time>2020-08-07T12:04:41Z</time>
      </trkpt>
      <trkpt lat="45.62343" lon="6.82181">
        <ele>1216.8</ele>
        <time>2020-08-07T12:04:44Z</time>
      </trkpt>
      <trkpt lat="45.62345" lon="6.8218">
        <ele>1216.8</ele>
        <time>2020-08-07T12:04:45Z</time>
      </trkpt>
      <trkpt lat="45.62346" lon="6.82178">
        <ele>1216.9</ele>
        <time>2020-08-07T12:04:46Z</time>
      </trkpt>
      <trkpt lat="45.6235" lon="6.82175">
        <ele>1217</ele>
        <time>2020-08-07T12:04:48Z</time>
      </trkpt>
      <trkpt lat="45.62352" lon="6.82171">
        <ele>1217.2</ele>
        <time>2020-08-07T12:04:49Z</time>
      </trkpt>
      <trkpt lat="45.62353" lon="6.82169">
        <ele>1217.2</ele>
        <time>2020-08-07T12:04:50Z</time>
      </trkpt>
      <trkpt lat="45.62356" lon="6.82167">
        <ele>1217.4</ele>
        <time>2020-08-07T12:04:51Z</time>
      </trkpt>
      <trkpt lat="45.62358" lon="6.82166">
        <ele>1217.5</ele>
        <time>2020-08-07T12:04:52Z</time>
      </trkpt>
      <trkpt lat="45.62362" lon="6.82163">
        <ele>1217.6</ele>
        <time>2020-08-07T12:04:54Z</time>
      </trkpt>
      <trkpt lat="45.62365" lon="6.82161">
        <ele>1217.8</ele>
        <time>2020-08-07T12:04:55Z</time>
      </trkpt>
      <trkpt lat="45.62369" lon="6.82158">
        <ele>1217.9</ele>
        <time>2020-08-07T12:04:57Z</time>
      </trkpt>
      <trkpt lat="45.62372" lon="6.82157">
        <ele>1218</ele>
        <time>2020-08-07T12:04:58Z</time>
      </trkpt>
      <trkpt lat="45.62383" lon="6.82149">
        <ele>1218.5</ele>
        <time>2020-08-07T12:05:00Z</time>
      </trkpt>
      <trkpt lat="45.6239" lon="6.82144">
        <ele>1218.7</ele>
        <time>2020-08-07T12:05:01Z</time>
      </trkpt>
      <trkpt lat="45.62395" lon="6.8214">
        <ele>1218.9</ele>
        <time>2020-08-07T12:05:02Z</time>
      </trkpt>
      <trkpt lat="45.62403" lon="6.82135">
        <ele>1219.2</ele>
        <time>2020-08-07T12:05:04Z</time>
      </trkpt>
      <trkpt lat="45.62407" lon="6.82132">
        <ele>1219.3</ele>
        <time>2020-08-07T12:05:05Z</time>
      </trkpt>
      <trkpt lat="45.62412" lon="6.8213">
        <ele>1219.5</ele>
        <time>2020-08-07T12:05:06Z</time>
      </trkpt>
      <trkpt lat="45.62416" lon="6.82127">
        <ele>1219.6</ele>
        <time>2020-08-07T12:05:08Z</time>
      </trkpt>
      <trkpt lat="45.62421" lon="6.82123">
        <ele>1219.8</ele>
        <time>2020-08-07T12:05:09Z</time>
      </trkpt>
      <trkpt lat="45.62425" lon="6.82121">
        <ele>1219.9</ele>
        <time>2020-08-07T12:05:11Z</time>
      </trkpt>
      <trkpt lat="45.6243" lon="6.82118">
        <ele>1220.1</ele>
        <time>2020-08-07T12:05:12Z</time>
      </trkpt>
      <trkpt lat="45.62433" lon="6.82116">
        <ele>1220.2</ele>
        <time>2020-08-07T12:05:14Z</time>
      </trkpt>
      <trkpt lat="45.6244" lon="6.82114">
        <ele>1220.4</ele>
        <time>2020-08-07T12:05:15Z</time>
      </trkpt>
      <trkpt lat="45.62445" lon="6.82112">
        <ele>1220.6</ele>
        <time>2020-08-07T12:05:18Z</time>
      </trkpt>
      <trkpt lat="45.62448" lon="6.82111">
        <ele>1220.7</ele>
        <time>2020-08-07T12:05:19Z</time>
      </trkpt>
      <trkpt lat="45.62458" lon="6.82109">
        <ele>1221.1</ele>
        <time>2020-08-07T12:05:21Z</time>
      </trkpt>
      <trkpt lat="45.62463" lon="6.82109">
        <ele>1221.2</ele>
        <time>2020-08-07T12:05:23Z</time>
      </trkpt>
      <trkpt lat="45.62466" lon="6.82109">
        <ele>1221.3</ele>
        <time>2020-08-07T12:05:24Z</time>
      </trkpt>
      <trkpt lat="45.62469" lon="6.82109">
        <ele>1221.5</ele>
        <time>2020-08-07T12:05:25Z</time>
      </trkpt>
      <trkpt lat="45.62475" lon="6.82108">
        <ele>1221.7</ele>
        <time>2020-08-07T12:05:27Z</time>
      </trkpt>
      <trkpt lat="45.62478" lon="6.82107">
        <ele>1221.8</ele>
        <time>2020-08-07T12:05:28Z</time>
      </trkpt>
      <trkpt lat="45.62482" lon="6.82108">
        <ele>1221.9</ele>
        <time>2020-08-07T12:05:29Z</time>
      </trkpt>
      <trkpt lat="45.62483" lon="6.82108">
        <ele>1222</ele>
        <time>2020-08-07T12:05:30Z</time>
      </trkpt>
      <trkpt lat="45.62485" lon="6.82108">
        <ele>1222.1</ele>
        <time>2020-08-07T12:05:31Z</time>
      </trkpt>
      <trkpt lat="45.62487" lon="6.82108">
        <ele>1222.2</ele>
        <time>2020-08-07T12:05:33Z</time>
      </trkpt>
      <trkpt lat="45.62491" lon="6.82109">
        <ele>1222.3</ele>
        <time>2020-08-07T12:05:34Z</time>
      </trkpt>
      <trkpt lat="45.62492" lon="6.82109">
        <ele>1222.3</ele>
        <time>2020-08-07T12:05:35Z</time>
      </trkpt>
      <trkpt lat="45.62491" lon="6.82109">
        <ele>1222.4</ele>
        <time>2020-08-07T12:05:36Z</time>
      </trkpt>
      <trkpt lat="45.62497" lon="6.82109">
        <ele>1222.6</ele>
        <time>2020-08-07T12:05:38Z</time>
      </trkpt>
      <trkpt lat="45.62501" lon="6.82108">
        <ele>1223.1</ele>
        <time>2020-08-07T12:05:39Z</time>
      </trkpt>
      <trkpt lat="45.62503" lon="6.82108">
        <ele>1223.2</ele>
        <time>2020-08-07T12:05:40Z</time>
      </trkpt>
      <trkpt lat="45.62508" lon="6.82106">
        <ele>1223.7</ele>
        <time>2020-08-07T12:05:42Z</time>
      </trkpt>
      <trkpt lat="45.6251" lon="6.82106">
        <ele>1223.8</ele>
        <time>2020-08-07T12:05:44Z</time>
      </trkpt>
      <trkpt lat="45.62512" lon="6.82105">
        <ele>1224</ele>
        <time>2020-08-07T12:05:45Z</time>
      </trkpt>
      <trkpt lat="45.62513" lon="6.82104">
        <ele>1224.1</ele>
        <time>2020-08-07T12:05:46Z</time>
      </trkpt>
      <trkpt lat="45.62517" lon="6.82103">
        <ele>1224.4</ele>
        <time>2020-08-07T12:05:48Z</time>
      </trkpt>
      <trkpt lat="45.62518" lon="6.82103">
        <ele>1224.4</ele>
        <time>2020-08-07T12:05:49Z</time>
      </trkpt>
      <trkpt lat="45.62522" lon="6.82102">
        <ele>1224.8</ele>
        <time>2020-08-07T12:05:50Z</time>
      </trkpt>
      <trkpt lat="45.62528" lon="6.82101">
        <ele>1225.2</ele>
        <time>2020-08-07T12:05:52Z</time>
      </trkpt>
      <trkpt lat="45.62531" lon="6.82101">
        <ele>1225.5</ele>
        <time>2020-08-07T12:05:53Z</time>
      </trkpt>
      <trkpt lat="45.62534" lon="6.821">
        <ele>1225.6</ele>
        <time>2020-08-07T12:05:54Z</time>
      </trkpt>
      <trkpt lat="45.62537" lon="6.821">
        <ele>1225.9</ele>
        <time>2020-08-07T12:05:57Z</time>
      </trkpt>
      <trkpt lat="45.62539" lon="6.82099">
        <ele>1226</ele>
        <time>2020-08-07T12:05:58Z</time>
      </trkpt>
      <trkpt lat="45.62543" lon="6.82099">
        <ele>1226.3</ele>
        <time>2020-08-07T12:05:59Z</time>
      </trkpt>
      <trkpt lat="45.62546" lon="6.82099">
        <ele>1226.5</ele>
        <time>2020-08-07T12:06:01Z</time>
      </trkpt>
      <trkpt lat="45.62552" lon="6.82099">
        <ele>1226.8</ele>
        <time>2020-08-07T12:06:03Z</time>
      </trkpt>
      <trkpt lat="45.62557" lon="6.82099">
        <ele>1227.2</ele>
        <time>2020-08-07T12:06:04Z</time>
      </trkpt>
      <trkpt lat="45.62562" lon="6.82099">
        <ele>1227.6</ele>
        <time>2020-08-07T12:06:06Z</time>
      </trkpt>
      <trkpt lat="45.62598" lon="6.82092">
        <ele>1229.9</ele>
        <time>2020-08-07T12:06:08Z</time>
      </trkpt>
      <trkpt lat="45.626" lon="6.82093">
        <ele>1230</ele>
        <time>2020-08-07T12:06:10Z</time>
      </trkpt>
      <trkpt lat="45.62602" lon="6.82095">
        <ele>1230.2</ele>
        <time>2020-08-07T12:06:11Z</time>
      </trkpt>
      <trkpt lat="45.62605" lon="6.82095">
        <ele>1230.4</ele>
        <time>2020-08-07T12:06:13Z</time>
      </trkpt>
      <trkpt lat="45.62609" lon="6.82095">
        <ele>1230.7</ele>
        <time>2020-08-07T12:06:15Z</time>
      </trkpt>
      <trkpt lat="45.62612" lon="6.82095">
        <ele>1230.9</ele>
        <time>2020-08-07T12:06:16Z</time>
      </trkpt>
      <trkpt lat="45.62617" lon="6.8209">
        <ele>1231.3</ele>
        <time>2020-08-07T12:06:17Z</time>
      </trkpt>
      <trkpt lat="45.62628" lon="6.82087">
        <ele>1231.9</ele>
        <time>2020-08-07T12:06:19Z</time>
      </trkpt>
      <trkpt lat="45.62637" lon="6.82082">
        <ele>1232.5</ele>
        <time>2020-08-07T12:06:22Z</time>
      </trkpt>
      <trkpt lat="45.62646" lon="6.82077">
        <ele>1233.1</ele>
        <time>2020-08-07T12:06:23Z</time>
      </trkpt>
      <trkpt lat="45.62654" lon="6.82071">
        <ele>1233.7</ele>
        <time>2020-08-07T12:06:25Z</time>
      </trkpt>
      <trkpt lat="45.62658" lon="6.82068">
        <ele>1234</ele>
        <time>2020-08-07T12:06:26Z</time>
      </trkpt>
      <trkpt lat="45.62662" lon="6.82065">
        <ele>1234.3</ele>
        <time>2020-08-07T12:06:28Z</time>
      </trkpt>
      <trkpt lat="45.62667" lon="6.8206">
        <ele>1234.6</ele>
        <time>2020-08-07T12:06:29Z</time>
      </trkpt>
      <trkpt lat="45.6267" lon="6.82057">
        <ele>1234.8</ele>
        <time>2020-08-07T12:06:30Z</time>
      </trkpt>
      <trkpt lat="45.62673" lon="6.82055">
        <ele>1235</ele>
        <time>2020-08-07T12:06:31Z</time>
      </trkpt>
      <trkpt lat="45.62675" lon="6.82052">
        <ele>1235.2</ele>
        <time>2020-08-07T12:06:32Z</time>
      </trkpt>
      <trkpt lat="45.62681" lon="6.82046">
        <ele>1235.7</ele>
        <time>2020-08-07T12:06:34Z</time>
      </trkpt>
      <trkpt lat="45.62684" lon="6.82043">
        <ele>1235.9</ele>
        <time>2020-08-07T12:06:36Z</time>
      </trkpt>
      <trkpt lat="45.62686" lon="6.82039">
        <ele>1236.1</ele>
        <time>2020-08-07T12:06:37Z</time>
      </trkpt>
      <trkpt lat="45.62691" lon="6.82035">
        <ele>1236.5</ele>
        <time>2020-08-07T12:06:39Z</time>
      </trkpt>
      <trkpt lat="45.627" lon="6.82027">
        <ele>1237.3</ele>
        <time>2020-08-07T12:06:41Z</time>
      </trkpt>
      <trkpt lat="45.62708" lon="6.82024">
        <ele>1237.8</ele>
        <time>2020-08-07T12:06:44Z</time>
      </trkpt>
      <trkpt lat="45.6271" lon="6.82024">
        <ele>1238</ele>
        <time>2020-08-07T12:06:45Z</time>
      </trkpt>
      <trkpt lat="45.62714" lon="6.82023">
        <ele>1238.3</ele>
        <time>2020-08-07T12:06:46Z</time>
      </trkpt>
      <trkpt lat="45.62717" lon="6.82024">
        <ele>1238.5</ele>
        <time>2020-08-07T12:06:47Z</time>
      </trkpt>
      <trkpt lat="45.62721" lon="6.82025">
        <ele>1238.8</ele>
        <time>2020-08-07T12:06:48Z</time>
      </trkpt>
      <trkpt lat="45.62724" lon="6.82026">
        <ele>1239</ele>
        <time>2020-08-07T12:06:49Z</time>
      </trkpt>
      <trkpt lat="45.6273" lon="6.82029">
        <ele>1239.5</ele>
        <time>2020-08-07T12:06:51Z</time>
      </trkpt>
      <trkpt lat="45.62734" lon="6.8203">
        <ele>1239.8</ele>
        <time>2020-08-07T12:06:52Z</time>
      </trkpt>
      <trkpt lat="45.62738" lon="6.82031">
        <ele>1240</ele>
        <time>2020-08-07T12:06:53Z</time>
      </trkpt>
      <trkpt lat="45.62741" lon="6.82032">
        <ele>1240.3</ele>
        <time>2020-08-07T12:06:55Z</time>
      </trkpt>
      <trkpt lat="45.62744" lon="6.82033">
        <ele>1240.5</ele>
        <time>2020-08-07T12:06:56Z</time>
      </trkpt>
      <trkpt lat="45.62747" lon="6.82033">
        <ele>1240.8</ele>
        <time>2020-08-07T12:06:58Z</time>
      </trkpt>
      <trkpt lat="45.6275" lon="6.82034">
        <ele>1241</ele>
        <time>2020-08-07T12:06:59Z</time>
      </trkpt>
      <trkpt lat="45.62756" lon="6.82034">
        <ele>1241.4</ele>
        <time>2020-08-07T12:07:01Z</time>
      </trkpt>
      <trkpt lat="45.62758" lon="6.82034">
        <ele>1241.5</ele>
        <time>2020-08-07T12:07:02Z</time>
      </trkpt>
      <trkpt lat="45.62764" lon="6.82034">
        <ele>1242</ele>
        <time>2020-08-07T12:07:04Z</time>
      </trkpt>
      <trkpt lat="45.62767" lon="6.82034">
        <ele>1242.2</ele>
        <time>2020-08-07T12:07:05Z</time>
      </trkpt>
      <trkpt lat="45.62773" lon="6.82034">
        <ele>1242.5</ele>
        <time>2020-08-07T12:07:07Z</time>
      </trkpt>
      <trkpt lat="45.62778" lon="6.82034">
        <ele>1242.9</ele>
        <time>2020-08-07T12:07:09Z</time>
      </trkpt>
      <trkpt lat="45.62783" lon="6.82033">
        <ele>1243.2</ele>
        <time>2020-08-07T12:07:11Z</time>
      </trkpt>
      <trkpt lat="45.62785" lon="6.82033">
        <ele>1243.4</ele>
        <time>2020-08-07T12:07:12Z</time>
      </trkpt>
      <trkpt lat="45.62786" lon="6.82033">
        <ele>1243.5</ele>
        <time>2020-08-07T12:07:13Z</time>
      </trkpt>
      <trkpt lat="45.62788" lon="6.82032">
        <ele>1243.6</ele>
        <time>2020-08-07T12:07:15Z</time>
      </trkpt>
      <trkpt lat="45.6279" lon="6.82032">
        <ele>1243.7</ele>
        <time>2020-08-07T12:07:16Z</time>
      </trkpt>
      <trkpt lat="45.62789" lon="6.82031">
        <ele>1243.8</ele>
        <time>2020-08-07T12:07:17Z</time>
      </trkpt>
      <trkpt lat="45.62793" lon="6.8203">
        <ele>1244</ele>
        <time>2020-08-07T12:07:19Z</time>
      </trkpt>
      <trkpt lat="45.62798" lon="6.82029">
        <ele>1244.3</ele>
        <time>2020-08-07T12:07:21Z</time>
      </trkpt>
      <trkpt lat="45.62803" lon="6.82027">
        <ele>1244.6</ele>
        <time>2020-08-07T12:07:23Z</time>
      </trkpt>
      <trkpt lat="45.62807" lon="6.82025">
        <ele>1245</ele>
        <time>2020-08-07T12:07:25Z</time>
      </trkpt>
      <trkpt lat="45.62812" lon="6.82023">
        <ele>1245.3</ele>
        <time>2020-08-07T12:07:26Z</time>
      </trkpt>
      <trkpt lat="45.62815" lon="6.82022">
        <ele>1245.5</ele>
        <time>2020-08-07T12:07:27Z</time>
      </trkpt>
      <trkpt lat="45.6282" lon="6.82019">
        <ele>1245.8</ele>
        <time>2020-08-07T12:07:29Z</time>
      </trkpt>
      <trkpt lat="45.62824" lon="6.82015">
        <ele>1246.2</ele>
        <time>2020-08-07T12:07:30Z</time>
      </trkpt>
      <trkpt lat="45.62828" lon="6.82013">
        <ele>1246.4</ele>
        <time>2020-08-07T12:07:31Z</time>
      </trkpt>
      <trkpt lat="45.62836" lon="6.8201">
        <ele>1246.9</ele>
        <time>2020-08-07T12:07:33Z</time>
      </trkpt>
      <trkpt lat="45.62849" lon="6.82005">
        <ele>1247.7</ele>
        <time>2020-08-07T12:07:34Z</time>
      </trkpt>
      <trkpt lat="45.62855" lon="6.82002">
        <ele>1248.2</ele>
        <time>2020-08-07T12:07:35Z</time>
      </trkpt>
      <trkpt lat="45.62864" lon="6.82001">
        <ele>1248.8</ele>
        <time>2020-08-07T12:07:37Z</time>
      </trkpt>
      <trkpt lat="45.62869" lon="6.82002">
        <ele>1249.2</ele>
        <time>2020-08-07T12:07:39Z</time>
      </trkpt>
      <trkpt lat="45.62873" lon="6.82009">
        <ele>1249.7</ele>
        <time>2020-08-07T12:07:40Z</time>
      </trkpt>
      <trkpt lat="45.62869" lon="6.82016">
        <ele>1250.2</ele>
        <time>2020-08-07T12:07:42Z</time>
      </trkpt>
      <trkpt lat="45.62865" lon="6.82018">
        <ele>1250.5</ele>
        <time>2020-08-07T12:07:43Z</time>
      </trkpt>
      <trkpt lat="45.62862" lon="6.8202">
        <ele>1250.7</ele>
        <time>2020-08-07T12:07:44Z</time>
      </trkpt>
      <trkpt lat="45.62858" lon="6.82022">
        <ele>1251</ele>
        <time>2020-08-07T12:07:45Z</time>
      </trkpt>
      <trkpt lat="45.62856" lon="6.82024">
        <ele>1251.2</ele>
        <time>2020-08-07T12:07:46Z</time>
      </trkpt>
      <trkpt lat="45.62851" lon="6.82026">
        <ele>1251.5</ele>
        <time>2020-08-07T12:07:49Z</time>
      </trkpt>
      <trkpt lat="45.62848" lon="6.82027">
        <ele>1251.7</ele>
        <time>2020-08-07T12:07:50Z</time>
      </trkpt>
      <trkpt lat="45.62843" lon="6.8203">
        <ele>1252.2</ele>
        <time>2020-08-07T12:07:52Z</time>
      </trkpt>
      <trkpt lat="45.62836" lon="6.82032">
        <ele>1252.7</ele>
        <time>2020-08-07T12:07:53Z</time>
      </trkpt>
      <trkpt lat="45.62833" lon="6.82033">
        <ele>1252.9</ele>
        <time>2020-08-07T12:07:55Z</time>
      </trkpt>
      <trkpt lat="45.62831" lon="6.82034">
        <ele>1253.1</ele>
        <time>2020-08-07T12:07:56Z</time>
      </trkpt>
      <trkpt lat="45.62825" lon="6.82037">
        <ele>1253.6</ele>
        <time>2020-08-07T12:07:58Z</time>
      </trkpt>
      <trkpt lat="45.6282" lon="6.8204">
        <ele>1254.1</ele>
        <time>2020-08-07T12:07:59Z</time>
      </trkpt>
      <trkpt lat="45.62816" lon="6.82041">
        <ele>1254.3</ele>
        <time>2020-08-07T12:08:00Z</time>
      </trkpt>
      <trkpt lat="45.62813" lon="6.82042">
        <ele>1254.6</ele>
        <time>2020-08-07T12:08:02Z</time>
      </trkpt>
      <trkpt lat="45.62802" lon="6.82046">
        <ele>1255.5</ele>
        <time>2020-08-07T12:08:04Z</time>
      </trkpt>
      <trkpt lat="45.62798" lon="6.82048">
        <ele>1255.8</ele>
        <time>2020-08-07T12:08:07Z</time>
      </trkpt>
      <trkpt lat="45.62792" lon="6.8205">
        <ele>1256.2</ele>
        <time>2020-08-07T12:08:09Z</time>
      </trkpt>
      <trkpt lat="45.62786" lon="6.82053">
        <ele>1256.6</ele>
        <time>2020-08-07T12:08:11Z</time>
      </trkpt>
      <trkpt lat="45.62784" lon="6.82054">
        <ele>1256.8</ele>
        <time>2020-08-07T12:08:12Z</time>
      </trkpt>
      <trkpt lat="45.62777" lon="6.82057">
        <ele>1257.3</ele>
        <time>2020-08-07T12:08:13Z</time>
      </trkpt>
      <trkpt lat="45.62774" lon="6.82058">
        <ele>1257.6</ele>
        <time>2020-08-07T12:08:15Z</time>
      </trkpt>
      <trkpt lat="45.6277" lon="6.8206">
        <ele>1257.8</ele>
        <time>2020-08-07T12:08:17Z</time>
      </trkpt>
      <trkpt lat="45.62768" lon="6.8206">
        <ele>1258</ele>
        <time>2020-08-07T12:08:18Z</time>
      </trkpt>
      <trkpt lat="45.62763" lon="6.82063">
        <ele>1258.4</ele>
        <time>2020-08-07T12:08:20Z</time>
      </trkpt>
      <trkpt lat="45.62762" lon="6.82064">
        <ele>1258.4</ele>
        <time>2020-08-07T12:08:21Z</time>
      </trkpt>
      <trkpt lat="45.62759" lon="6.82065">
        <ele>1258.7</ele>
        <time>2020-08-07T12:08:23Z</time>
      </trkpt>
      <trkpt lat="45.62755" lon="6.82068">
        <ele>1259</ele>
        <time>2020-08-07T12:08:25Z</time>
      </trkpt>
      <trkpt lat="45.6275" lon="6.8207">
        <ele>1259.4</ele>
        <time>2020-08-07T12:08:26Z</time>
      </trkpt>
      <trkpt lat="45.6274" lon="6.82075">
        <ele>1260.2</ele>
        <time>2020-08-07T12:08:28Z</time>
      </trkpt>
      <trkpt lat="45.62727" lon="6.8208">
        <ele>1261.2</ele>
        <time>2020-08-07T12:08:31Z</time>
      </trkpt>
      <trkpt lat="45.62723" lon="6.82082">
        <ele>1261.6</ele>
        <time>2020-08-07T12:08:32Z</time>
      </trkpt>
      <trkpt lat="45.62718" lon="6.82086">
        <ele>1262.1</ele>
        <time>2020-08-07T12:08:35Z</time>
      </trkpt>
      <trkpt lat="45.62714" lon="6.82089">
        <ele>1262.4</ele>
        <time>2020-08-07T12:08:36Z</time>
      </trkpt>
      <trkpt lat="45.62708" lon="6.82095">
        <ele>1262.9</ele>
        <time>2020-08-07T12:08:37Z</time>
      </trkpt>
      <trkpt lat="45.62705" lon="6.82099">
        <ele>1263.2</ele>
        <time>2020-08-07T12:08:38Z</time>
      </trkpt>
      <trkpt lat="45.62702" lon="6.82104">
        <ele>1263.5</ele>
        <time>2020-08-07T12:08:39Z</time>
      </trkpt>
      <trkpt lat="45.62696" lon="6.82115">
        <ele>1264.2</ele>
        <time>2020-08-07T12:08:42Z</time>
      </trkpt>
      <trkpt lat="45.62693" lon="6.8212">
        <ele>1264.4</ele>
        <time>2020-08-07T12:08:44Z</time>
      </trkpt>
      <trkpt lat="45.62687" lon="6.82129">
        <ele>1265.1</ele>
        <time>2020-08-07T12:08:46Z</time>
      </trkpt>
      <trkpt lat="45.62685" lon="6.82132">
        <ele>1265.3</ele>
        <time>2020-08-07T12:08:47Z</time>
      </trkpt>
      <trkpt lat="45.62678" lon="6.8214">
        <ele>1265.9</ele>
        <time>2020-08-07T12:08:50Z</time>
      </trkpt>
      <trkpt lat="45.62675" lon="6.82143">
        <ele>1266.2</ele>
        <time>2020-08-07T12:08:51Z</time>
      </trkpt>
      <trkpt lat="45.62668" lon="6.82151">
        <ele>1266.8</ele>
        <time>2020-08-07T12:08:54Z</time>
      </trkpt>
      <trkpt lat="45.62663" lon="6.82155">
        <ele>1267.1</ele>
        <time>2020-08-07T12:08:56Z</time>
      </trkpt>
      <trkpt lat="45.6266" lon="6.82156">
        <ele>1267.4</ele>
        <time>2020-08-07T12:08:57Z</time>
      </trkpt>
      <trkpt lat="45.62656" lon="6.82159">
        <ele>1267.7</ele>
        <time>2020-08-07T12:08:58Z</time>
      </trkpt>
      <trkpt lat="45.62652" lon="6.82162">
        <ele>1268</ele>
        <time>2020-08-07T12:09:00Z</time>
      </trkpt>
      <trkpt lat="45.62649" lon="6.82164">
        <ele>1268.3</ele>
        <time>2020-08-07T12:09:01Z</time>
      </trkpt>
      <trkpt lat="45.62644" lon="6.82167">
        <ele>1268.7</ele>
        <time>2020-08-07T12:09:02Z</time>
      </trkpt>
      <trkpt lat="45.62636" lon="6.82172">
        <ele>1269.3</ele>
        <time>2020-08-07T12:09:05Z</time>
      </trkpt>
      <trkpt lat="45.62633" lon="6.82173">
        <ele>1269.6</ele>
        <time>2020-08-07T12:09:06Z</time>
      </trkpt>
      <trkpt lat="45.62627" lon="6.82176">
        <ele>1270</ele>
        <time>2020-08-07T12:09:08Z</time>
      </trkpt>
      <trkpt lat="45.62624" lon="6.82178">
        <ele>1270.3</ele>
        <time>2020-08-07T12:09:10Z</time>
      </trkpt>
      <trkpt lat="45.6262" lon="6.82179">
        <ele>1270.7</ele>
        <time>2020-08-07T12:09:11Z</time>
      </trkpt>
      <trkpt lat="45.62614" lon="6.82181">
        <ele>1271.1</ele>
        <time>2020-08-07T12:09:12Z</time>
      </trkpt>
      <trkpt lat="45.62611" lon="6.82181">
        <ele>1271.4</ele>
        <time>2020-08-07T12:09:13Z</time>
      </trkpt>
      <trkpt lat="45.62607" lon="6.82182">
        <ele>1271.6</ele>
        <time>2020-08-07T12:09:15Z</time>
      </trkpt>
      <trkpt lat="45.62599" lon="6.82182">
        <ele>1272</ele>
        <time>2020-08-07T12:09:16Z</time>
      </trkpt>
      <trkpt lat="45.62594" lon="6.82181">
        <ele>1272.3</ele>
        <time>2020-08-07T12:09:18Z</time>
      </trkpt>
      <trkpt lat="45.62588" lon="6.82179">
        <ele>1272.6</ele>
        <time>2020-08-07T12:09:20Z</time>
      </trkpt>
      <trkpt lat="45.62579" lon="6.82178">
        <ele>1273</ele>
        <time>2020-08-07T12:09:22Z</time>
      </trkpt>
      <trkpt lat="45.62575" lon="6.82177">
        <ele>1273.3</ele>
        <time>2020-08-07T12:09:23Z</time>
      </trkpt>
      <trkpt lat="45.62565" lon="6.82177">
        <ele>1273.8</ele>
        <time>2020-08-07T12:09:26Z</time>
      </trkpt>
      <trkpt lat="45.62562" lon="6.82177">
        <ele>1274</ele>
        <time>2020-08-07T12:09:27Z</time>
      </trkpt>
      <trkpt lat="45.62558" lon="6.82177">
        <ele>1274.2</ele>
        <time>2020-08-07T12:09:29Z</time>
      </trkpt>
      <trkpt lat="45.62553" lon="6.82178">
        <ele>1274.5</ele>
        <time>2020-08-07T12:09:30Z</time>
      </trkpt>
      <trkpt lat="45.62549" lon="6.82179">
        <ele>1274.7</ele>
        <time>2020-08-07T12:09:32Z</time>
      </trkpt>
      <trkpt lat="45.62542" lon="6.82181">
        <ele>1275.1</ele>
        <time>2020-08-07T12:09:34Z</time>
      </trkpt>
      <trkpt lat="45.62539" lon="6.82183">
        <ele>1275.2</ele>
        <time>2020-08-07T12:09:35Z</time>
      </trkpt>
      <trkpt lat="45.62534" lon="6.82185">
        <ele>1275.5</ele>
        <time>2020-08-07T12:09:37Z</time>
      </trkpt>
      <trkpt lat="45.62529" lon="6.82188">
        <ele>1275.8</ele>
        <time>2020-08-07T12:09:38Z</time>
      </trkpt>
      <trkpt lat="45.62526" lon="6.8219">
        <ele>1276</ele>
        <time>2020-08-07T12:09:39Z</time>
      </trkpt>
      <trkpt lat="45.62517" lon="6.82195">
        <ele>1276.5</ele>
        <time>2020-08-07T12:09:41Z</time>
      </trkpt>
      <trkpt lat="45.62513" lon="6.82198">
        <ele>1276.7</ele>
        <time>2020-08-07T12:09:44Z</time>
      </trkpt>
      <trkpt lat="45.62507" lon="6.82203">
        <ele>1277.1</ele>
        <time>2020-08-07T12:09:46Z</time>
      </trkpt>
      <trkpt lat="45.625" lon="6.82206">
        <ele>1277.5</ele>
        <time>2020-08-07T12:09:47Z</time>
      </trkpt>
      <trkpt lat="45.62494" lon="6.82208">
        <ele>1277.9</ele>
        <time>2020-08-07T12:09:50Z</time>
      </trkpt>
      <trkpt lat="45.62487" lon="6.8221">
        <ele>1278.3</ele>
        <time>2020-08-07T12:09:51Z</time>
      </trkpt>
      <trkpt lat="45.62481" lon="6.82211">
        <ele>1278.6</ele>
        <time>2020-08-07T12:09:53Z</time>
      </trkpt>
      <trkpt lat="45.62475" lon="6.82213">
        <ele>1279</ele>
        <time>2020-08-07T12:09:55Z</time>
      </trkpt>
      <trkpt lat="45.6247" lon="6.82214">
        <ele>1279.3</ele>
        <time>2020-08-07T12:09:57Z</time>
      </trkpt>
      <trkpt lat="45.62467" lon="6.82214">
        <ele>1279.5</ele>
        <time>2020-08-07T12:09:58Z</time>
      </trkpt>
      <trkpt lat="45.62463" lon="6.82215">
        <ele>1279.7</ele>
        <time>2020-08-07T12:09:59Z</time>
      </trkpt>
      <trkpt lat="45.62457" lon="6.82216">
        <ele>1280.1</ele>
        <time>2020-08-07T12:10:01Z</time>
      </trkpt>
      <trkpt lat="45.62454" lon="6.82218">
        <ele>1280.3</ele>
        <time>2020-08-07T12:10:02Z</time>
      </trkpt>
      <trkpt lat="45.62447" lon="6.82221">
        <ele>1280.7</ele>
        <time>2020-08-07T12:10:04Z</time>
      </trkpt>
      <trkpt lat="45.62443" lon="6.82223">
        <ele>1280.9</ele>
        <time>2020-08-07T12:10:06Z</time>
      </trkpt>
      <trkpt lat="45.62437" lon="6.82226">
        <ele>1281.3</ele>
        <time>2020-08-07T12:10:08Z</time>
      </trkpt>
      <trkpt lat="45.62428" lon="6.82234">
        <ele>1281.9</ele>
        <time>2020-08-07T12:10:09Z</time>
      </trkpt>
      <trkpt lat="45.6242" lon="6.82242">
        <ele>1282.4</ele>
        <time>2020-08-07T12:10:12Z</time>
      </trkpt>
      <trkpt lat="45.62417" lon="6.82246">
        <ele>1282.6</ele>
        <time>2020-08-07T12:10:13Z</time>
      </trkpt>
      <trkpt lat="45.6241" lon="6.82255">
        <ele>1283.2</ele>
        <time>2020-08-07T12:10:16Z</time>
      </trkpt>
      <trkpt lat="45.62408" lon="6.82259">
        <ele>1283.4</ele>
        <time>2020-08-07T12:10:17Z</time>
      </trkpt>
      <trkpt lat="45.62405" lon="6.82263">
        <ele>1283.6</ele>
        <time>2020-08-07T12:10:18Z</time>
      </trkpt>
      <trkpt lat="45.62401" lon="6.82269">
        <ele>1284</ele>
        <time>2020-08-07T12:10:21Z</time>
      </trkpt>
      <trkpt lat="45.62399" lon="6.82272">
        <ele>1284.2</ele>
        <time>2020-08-07T12:10:22Z</time>
      </trkpt>
      <trkpt lat="45.62396" lon="6.82276">
        <ele>1284.4</ele>
        <time>2020-08-07T12:10:24Z</time>
      </trkpt>
      <trkpt lat="45.62391" lon="6.82283">
        <ele>1284.8</ele>
        <time>2020-08-07T12:10:25Z</time>
      </trkpt>
      <trkpt lat="45.62389" lon="6.82286">
        <ele>1285.1</ele>
        <time>2020-08-07T12:10:26Z</time>
      </trkpt>
      <trkpt lat="45.62387" lon="6.8229">
        <ele>1285.3</ele>
        <time>2020-08-07T12:10:28Z</time>
      </trkpt>
      <trkpt lat="45.6238" lon="6.823">
        <ele>1285.9</ele>
        <time>2020-08-07T12:10:30Z</time>
      </trkpt>
      <trkpt lat="45.62377" lon="6.82307">
        <ele>1286.3</ele>
        <time>2020-08-07T12:10:33Z</time>
      </trkpt>
      <trkpt lat="45.62373" lon="6.82314">
        <ele>1286.6</ele>
        <time>2020-08-07T12:10:35Z</time>
      </trkpt>
      <trkpt lat="45.62371" lon="6.82318">
        <ele>1286.8</ele>
        <time>2020-08-07T12:10:36Z</time>
      </trkpt>
      <trkpt lat="45.62369" lon="6.82322">
        <ele>1287</ele>
        <time>2020-08-07T12:10:37Z</time>
      </trkpt>
      <trkpt lat="45.62366" lon="6.82329">
        <ele>1287.4</ele>
        <time>2020-08-07T12:10:38Z</time>
      </trkpt>
      <trkpt lat="45.62361" lon="6.8234">
        <ele>1287.9</ele>
        <time>2020-08-07T12:10:40Z</time>
      </trkpt>
      <trkpt lat="45.62359" lon="6.82345">
        <ele>1288.1</ele>
        <time>2020-08-07T12:10:42Z</time>
      </trkpt>
      <trkpt lat="45.62358" lon="6.82349">
        <ele>1288.3</ele>
        <time>2020-08-07T12:10:43Z</time>
      </trkpt>
      <trkpt lat="45.62357" lon="6.82353">
        <ele>1288.4</ele>
        <time>2020-08-07T12:10:44Z</time>
      </trkpt>
      <trkpt lat="45.62355" lon="6.82357">
        <ele>1288.6</ele>
        <time>2020-08-07T12:10:45Z</time>
      </trkpt>
      <trkpt lat="45.62352" lon="6.8236">
        <ele>1288.8</ele>
        <time>2020-08-07T12:10:46Z</time>
      </trkpt>
      <trkpt lat="45.6235" lon="6.82364">
        <ele>1288.9</ele>
        <time>2020-08-07T12:10:47Z</time>
      </trkpt>
      <trkpt lat="45.62346" lon="6.82373">
        <ele>1289.4</ele>
        <time>2020-08-07T12:10:49Z</time>
      </trkpt>
      <trkpt lat="45.62343" lon="6.82379">
        <ele>1289.7</ele>
        <time>2020-08-07T12:10:52Z</time>
      </trkpt>
      <trkpt lat="45.62339" lon="6.82387">
        <ele>1290</ele>
        <time>2020-08-07T12:10:53Z</time>
      </trkpt>
      <trkpt lat="45.62337" lon="6.82392">
        <ele>1290.3</ele>
        <time>2020-08-07T12:10:55Z</time>
      </trkpt>
      <trkpt lat="45.62332" lon="6.82403">
        <ele>1290.7</ele>
        <time>2020-08-07T12:10:56Z</time>
      </trkpt>
      <trkpt lat="45.62327" lon="6.82414">
        <ele>1291.2</ele>
        <time>2020-08-07T12:10:59Z</time>
      </trkpt>
      <trkpt lat="45.62325" lon="6.82419">
        <ele>1291.4</ele>
        <time>2020-08-07T12:11:00Z</time>
      </trkpt>
      <trkpt lat="45.62323" lon="6.82425">
        <ele>1291.6</ele>
        <time>2020-08-07T12:11:03Z</time>
      </trkpt>
      <trkpt lat="45.6232" lon="6.82433">
        <ele>1291.9</ele>
        <time>2020-08-07T12:11:05Z</time>
      </trkpt>
      <trkpt lat="45.62318" lon="6.82441">
        <ele>1292.3</ele>
        <time>2020-08-07T12:11:06Z</time>
      </trkpt>
      <trkpt lat="45.62316" lon="6.82445">
        <ele>1292.5</ele>
        <time>2020-08-07T12:11:08Z</time>
      </trkpt>
      <trkpt lat="45.62315" lon="6.82448">
        <ele>1292.6</ele>
        <time>2020-08-07T12:11:09Z</time>
      </trkpt>
      <trkpt lat="45.62312" lon="6.82456">
        <ele>1293</ele>
        <time>2020-08-07T12:11:10Z</time>
      </trkpt>
      <trkpt lat="45.62308" lon="6.82467">
        <ele>1293.5</ele>
        <time>2020-08-07T12:11:12Z</time>
      </trkpt>
      <trkpt lat="45.62306" lon="6.82472">
        <ele>1293.7</ele>
        <time>2020-08-07T12:11:13Z</time>
      </trkpt>
      <trkpt lat="45.62302" lon="6.82484">
        <ele>1294.3</ele>
        <time>2020-08-07T12:11:16Z</time>
      </trkpt>
      <trkpt lat="45.623" lon="6.82491">
        <ele>1294.5</ele>
        <time>2020-08-07T12:11:18Z</time>
      </trkpt>
      <trkpt lat="45.62296" lon="6.82502">
        <ele>1295</ele>
        <time>2020-08-07T12:11:20Z</time>
      </trkpt>
      <trkpt lat="45.62294" lon="6.82508">
        <ele>1295.3</ele>
        <time>2020-08-07T12:11:22Z</time>
      </trkpt>
      <trkpt lat="45.62293" lon="6.82512">
        <ele>1295.4</ele>
        <time>2020-08-07T12:11:23Z</time>
      </trkpt>
      <trkpt lat="45.62289" lon="6.82521">
        <ele>1295.8</ele>
        <time>2020-08-07T12:11:25Z</time>
      </trkpt>
      <trkpt lat="45.62287" lon="6.82529">
        <ele>1296.2</ele>
        <time>2020-08-07T12:11:28Z</time>
      </trkpt>
      <trkpt lat="45.62285" lon="6.82536">
        <ele>1296.4</ele>
        <time>2020-08-07T12:11:29Z</time>
      </trkpt>
      <trkpt lat="45.62284" lon="6.82541">
        <ele>1296.6</ele>
        <time>2020-08-07T12:11:30Z</time>
      </trkpt>
      <trkpt lat="45.62283" lon="6.82547">
        <ele>1296.8</ele>
        <time>2020-08-07T12:11:31Z</time>
      </trkpt>
      <trkpt lat="45.62281" lon="6.82554">
        <ele>1297.1</ele>
        <time>2020-08-07T12:11:32Z</time>
      </trkpt>
      <trkpt lat="45.6228" lon="6.82559">
        <ele>1297.3</ele>
        <time>2020-08-07T12:11:34Z</time>
      </trkpt>
      <trkpt lat="45.62278" lon="6.82567">
        <ele>1297.5</ele>
        <time>2020-08-07T12:11:35Z</time>
      </trkpt>
      <trkpt lat="45.62277" lon="6.82573">
        <ele>1297.8</ele>
        <time>2020-08-07T12:11:36Z</time>
      </trkpt>
      <trkpt lat="45.62276" lon="6.82581">
        <ele>1298</ele>
        <time>2020-08-07T12:11:38Z</time>
      </trkpt>
      <trkpt lat="45.62275" lon="6.82593">
        <ele>1298.4</ele>
        <time>2020-08-07T12:11:40Z</time>
      </trkpt>
      <trkpt lat="45.62274" lon="6.826">
        <ele>1298.6</ele>
        <time>2020-08-07T12:11:42Z</time>
      </trkpt>
      <trkpt lat="45.62275" lon="6.82612">
        <ele>1299</ele>
        <time>2020-08-07T12:11:44Z</time>
      </trkpt>
      <trkpt lat="45.62276" lon="6.82617">
        <ele>1299.2</ele>
        <time>2020-08-07T12:11:45Z</time>
      </trkpt>
      <trkpt lat="45.62277" lon="6.82622">
        <ele>1299.4</ele>
        <time>2020-08-07T12:11:46Z</time>
      </trkpt>
      <trkpt lat="45.62279" lon="6.82628">
        <ele>1299.6</ele>
        <time>2020-08-07T12:11:48Z</time>
      </trkpt>
      <trkpt lat="45.6228" lon="6.82633">
        <ele>1299.8</ele>
        <time>2020-08-07T12:11:50Z</time>
      </trkpt>
      <trkpt lat="45.62284" lon="6.82644">
        <ele>1300.2</ele>
        <time>2020-08-07T12:11:51Z</time>
      </trkpt>
      <trkpt lat="45.62287" lon="6.82649">
        <ele>1300.3</ele>
        <time>2020-08-07T12:11:53Z</time>
      </trkpt>
      <trkpt lat="45.62289" lon="6.82656">
        <ele>1300.6</ele>
        <time>2020-08-07T12:11:55Z</time>
      </trkpt>
      <trkpt lat="45.62293" lon="6.82667">
        <ele>1300.9</ele>
        <time>2020-08-07T12:11:56Z</time>
      </trkpt>
      <trkpt lat="45.62295" lon="6.82675">
        <ele>1301.1</ele>
        <time>2020-08-07T12:11:59Z</time>
      </trkpt>
      <trkpt lat="45.62299" lon="6.82687">
        <ele>1301.4</ele>
        <time>2020-08-07T12:12:00Z</time>
      </trkpt>
      <trkpt lat="45.62301" lon="6.82696">
        <ele>1301.5</ele>
        <time>2020-08-07T12:12:02Z</time>
      </trkpt>
      <trkpt lat="45.62302" lon="6.82703">
        <ele>1301.7</ele>
        <time>2020-08-07T12:12:04Z</time>
      </trkpt>
      <trkpt lat="45.62303" lon="6.82714">
        <ele>1301.9</ele>
        <time>2020-08-07T12:12:05Z</time>
      </trkpt>
      <trkpt lat="45.62303" lon="6.82725">
        <ele>1302.1</ele>
        <time>2020-08-07T12:12:07Z</time>
      </trkpt>
      <trkpt lat="45.62302" lon="6.82732">
        <ele>1302.2</ele>
        <time>2020-08-07T12:12:08Z</time>
      </trkpt>
      <trkpt lat="45.62301" lon="6.82738">
        <ele>1302.3</ele>
        <time>2020-08-07T12:12:10Z</time>
      </trkpt>
      <trkpt lat="45.62297" lon="6.82758">
        <ele>1302.6</ele>
        <time>2020-08-07T12:12:12Z</time>
      </trkpt>
      <trkpt lat="45.62293" lon="6.82772">
        <ele>1302.8</ele>
        <time>2020-08-07T12:12:15Z</time>
      </trkpt>
      <trkpt lat="45.62287" lon="6.8279">
        <ele>1303</ele>
        <time>2020-08-07T12:12:17Z</time>
      </trkpt>
      <trkpt lat="45.62284" lon="6.8279">
        <ele>1303.1</ele>
        <time>2020-08-07T12:12:19Z</time>
      </trkpt>
      <trkpt lat="45.62281" lon="6.82801">
        <ele>1303.3</ele>
        <time>2020-08-07T12:12:21Z</time>
      </trkpt>
      <trkpt lat="45.62281" lon="6.82815">
        <ele>1303.6</ele>
        <time>2020-08-07T12:12:22Z</time>
      </trkpt>
      <trkpt lat="45.62279" lon="6.82822">
        <ele>1303.8</ele>
        <time>2020-08-07T12:12:24Z</time>
      </trkpt>
      <trkpt lat="45.62277" lon="6.82828">
        <ele>1304</ele>
        <time>2020-08-07T12:12:25Z</time>
      </trkpt>
      <trkpt lat="45.62278" lon="6.82836">
        <ele>1304.4</ele>
        <time>2020-08-07T12:12:26Z</time>
      </trkpt>
      <trkpt lat="45.62282" lon="6.8284">
        <ele>1304.6</ele>
        <time>2020-08-07T12:12:27Z</time>
      </trkpt>
      <trkpt lat="45.62286" lon="6.8284">
        <ele>1304.8</ele>
        <time>2020-08-07T12:12:29Z</time>
      </trkpt>
      <trkpt lat="45.62293" lon="6.82837">
        <ele>1305</ele>
        <time>2020-08-07T12:12:30Z</time>
      </trkpt>
      <trkpt lat="45.62298" lon="6.82828">
        <ele>1305.3</ele>
        <time>2020-08-07T12:12:32Z</time>
      </trkpt>
      <trkpt lat="45.62301" lon="6.82815">
        <ele>1305.6</ele>
        <time>2020-08-07T12:12:34Z</time>
      </trkpt>
      <trkpt lat="45.62302" lon="6.82808">
        <ele>1305.7</ele>
        <time>2020-08-07T12:12:35Z</time>
      </trkpt>
      <trkpt lat="45.62303" lon="6.828">
        <ele>1305.9</ele>
        <time>2020-08-07T12:12:36Z</time>
      </trkpt>
      <trkpt lat="45.62304" lon="6.82796">
        <ele>1306</ele>
        <time>2020-08-07T12:12:37Z</time>
      </trkpt>
      <trkpt lat="45.62305" lon="6.8279">
        <ele>1306.2</ele>
        <time>2020-08-07T12:12:38Z</time>
      </trkpt>
      <trkpt lat="45.62308" lon="6.82785">
        <ele>1306.4</ele>
        <time>2020-08-07T12:12:39Z</time>
      </trkpt>
      <trkpt lat="45.62313" lon="6.82768">
        <ele>1307</ele>
        <time>2020-08-07T12:12:42Z</time>
      </trkpt>
      <trkpt lat="45.62315" lon="6.82762">
        <ele>1307.2</ele>
        <time>2020-08-07T12:12:44Z</time>
      </trkpt>
      <trkpt lat="45.62317" lon="6.8275">
        <ele>1307.6</ele>
        <time>2020-08-07T12:12:46Z</time>
      </trkpt>
      <trkpt lat="45.62319" lon="6.82744">
        <ele>1308</ele>
        <time>2020-08-07T12:12:48Z</time>
      </trkpt>
      <trkpt lat="45.62319" lon="6.82739">
        <ele>1308.2</ele>
        <time>2020-08-07T12:12:49Z</time>
      </trkpt>
      <trkpt lat="45.6232" lon="6.82734">
        <ele>1308.4</ele>
        <time>2020-08-07T12:12:51Z</time>
      </trkpt>
      <trkpt lat="45.62321" lon="6.8273">
        <ele>1308.6</ele>
        <time>2020-08-07T12:12:52Z</time>
      </trkpt>
      <trkpt lat="45.62321" lon="6.8272">
        <ele>1308.9</ele>
        <time>2020-08-07T12:12:54Z</time>
      </trkpt>
      <trkpt lat="45.62321" lon="6.82715">
        <ele>1309.1</ele>
        <time>2020-08-07T12:12:55Z</time>
      </trkpt>
      <trkpt lat="45.62322" lon="6.8271">
        <ele>1309.3</ele>
        <time>2020-08-07T12:12:56Z</time>
      </trkpt>
      <trkpt lat="45.62322" lon="6.82705">
        <ele>1309.5</ele>
        <time>2020-08-07T12:12:57Z</time>
      </trkpt>
      <trkpt lat="45.62322" lon="6.82695">
        <ele>1309.8</ele>
        <time>2020-08-07T12:12:59Z</time>
      </trkpt>
      <trkpt lat="45.62321" lon="6.82685">
        <ele>1310.2</ele>
        <time>2020-08-07T12:13:00Z</time>
      </trkpt>
      <trkpt lat="45.6232" lon="6.82676">
        <ele>1310.5</ele>
        <time>2020-08-07T12:13:01Z</time>
      </trkpt>
      <trkpt lat="45.62319" lon="6.8267">
        <ele>1310.8</ele>
        <time>2020-08-07T12:13:03Z</time>
      </trkpt>
      <trkpt lat="45.62319" lon="6.82664">
        <ele>1311</ele>
        <time>2020-08-07T12:13:04Z</time>
      </trkpt>
      <trkpt lat="45.62318" lon="6.82658">
        <ele>1311.2</ele>
        <time>2020-08-07T12:13:06Z</time>
      </trkpt>
      <trkpt lat="45.62318" lon="6.82645">
        <ele>1311.7</ele>
        <time>2020-08-07T12:13:07Z</time>
      </trkpt>
      <trkpt lat="45.62317" lon="6.82637">
        <ele>1312</ele>
        <time>2020-08-07T12:13:10Z</time>
      </trkpt>
      <trkpt lat="45.62316" lon="6.82626">
        <ele>1312.4</ele>
        <time>2020-08-07T12:13:11Z</time>
      </trkpt>
      <trkpt lat="45.62315" lon="6.82619">
        <ele>1312.7</ele>
        <time>2020-08-07T12:13:13Z</time>
      </trkpt>
      <trkpt lat="45.62315" lon="6.82612">
        <ele>1312.9</ele>
        <time>2020-08-07T12:13:14Z</time>
      </trkpt>
      <trkpt lat="45.62315" lon="6.82605">
        <ele>1313.2</ele>
        <time>2020-08-07T12:13:15Z</time>
      </trkpt>
      <trkpt lat="45.62315" lon="6.82596">
        <ele>1313.6</ele>
        <time>2020-08-07T12:13:18Z</time>
      </trkpt>
      <trkpt lat="45.62316" lon="6.82587">
        <ele>1313.9</ele>
        <time>2020-08-07T12:13:19Z</time>
      </trkpt>
      <trkpt lat="45.62318" lon="6.82577">
        <ele>1314.3</ele>
        <time>2020-08-07T12:13:20Z</time>
      </trkpt>
      <trkpt lat="45.6232" lon="6.8257">
        <ele>1314.5</ele>
        <time>2020-08-07T12:13:22Z</time>
      </trkpt>
      <trkpt lat="45.62321" lon="6.82566">
        <ele>1314.7</ele>
        <time>2020-08-07T12:13:24Z</time>
      </trkpt>
      <trkpt lat="45.62325" lon="6.82556">
        <ele>1315.1</ele>
        <time>2020-08-07T12:13:25Z</time>
      </trkpt>
      <trkpt lat="45.62327" lon="6.8255">
        <ele>1315.3</ele>
        <time>2020-08-07T12:13:26Z</time>
      </trkpt>
      <trkpt lat="45.62329" lon="6.82544">
        <ele>1315.6</ele>
        <time>2020-08-07T12:13:28Z</time>
      </trkpt>
      <trkpt lat="45.62331" lon="6.82539">
        <ele>1315.8</ele>
        <time>2020-08-07T12:13:30Z</time>
      </trkpt>
      <trkpt lat="45.62334" lon="6.82532">
        <ele>1316.1</ele>
        <time>2020-08-07T12:13:31Z</time>
      </trkpt>
      <trkpt lat="45.62336" lon="6.82528">
        <ele>1316.3</ele>
        <time>2020-08-07T12:13:32Z</time>
      </trkpt>
      <trkpt lat="45.62341" lon="6.82517">
        <ele>1316.7</ele>
        <time>2020-08-07T12:13:34Z</time>
      </trkpt>
      <trkpt lat="45.62344" lon="6.82511">
        <ele>1317</ele>
        <time>2020-08-07T12:13:37Z</time>
      </trkpt>
      <trkpt lat="45.62346" lon="6.82508">
        <ele>1317.2</ele>
        <time>2020-08-07T12:13:38Z</time>
      </trkpt>
      <trkpt lat="45.62349" lon="6.82502">
        <ele>1317.5</ele>
        <time>2020-08-07T12:13:40Z</time>
      </trkpt>
      <trkpt lat="45.62353" lon="6.82496">
        <ele>1317.8</ele>
        <time>2020-08-07T12:13:42Z</time>
      </trkpt>
      <trkpt lat="45.62357" lon="6.82489">
        <ele>1318.1</ele>
        <time>2020-08-07T12:13:43Z</time>
      </trkpt>
      <trkpt lat="45.62363" lon="6.8248">
        <ele>1318.6</ele>
        <time>2020-08-07T12:13:46Z</time>
      </trkpt>
      <trkpt lat="45.62367" lon="6.82476">
        <ele>1318.9</ele>
        <time>2020-08-07T12:13:48Z</time>
      </trkpt>
      <trkpt lat="45.62371" lon="6.82471">
        <ele>1319.1</ele>
        <time>2020-08-07T12:13:50Z</time>
      </trkpt>
      <trkpt lat="45.62376" lon="6.82467">
        <ele>1319.5</ele>
        <time>2020-08-07T12:13:52Z</time>
      </trkpt>
      <trkpt lat="45.62379" lon="6.82464">
        <ele>1319.7</ele>
        <time>2020-08-07T12:13:53Z</time>
      </trkpt>
      <trkpt lat="45.62386" lon="6.82458">
        <ele>1320.2</ele>
        <time>2020-08-07T12:13:55Z</time>
      </trkpt>
      <trkpt lat="45.62389" lon="6.82456">
        <ele>1320.4</ele>
        <time>2020-08-07T12:13:57Z</time>
      </trkpt>
      <trkpt lat="45.62391" lon="6.82453">
        <ele>1320.5</ele>
        <time>2020-08-07T12:13:58Z</time>
      </trkpt>
      <trkpt lat="45.62394" lon="6.82451">
        <ele>1320.7</ele>
        <time>2020-08-07T12:13:59Z</time>
      </trkpt>
      <trkpt lat="45.62397" lon="6.82449">
        <ele>1320.9</ele>
        <time>2020-08-07T12:14:00Z</time>
      </trkpt>
      <trkpt lat="45.62399" lon="6.82447">
        <ele>1321</ele>
        <time>2020-08-07T12:14:01Z</time>
      </trkpt>
      <trkpt lat="45.62402" lon="6.82444">
        <ele>1321.2</ele>
        <time>2020-08-07T12:14:02Z</time>
      </trkpt>
      <trkpt lat="45.62408" lon="6.82439">
        <ele>1321.6</ele>
        <time>2020-08-07T12:14:04Z</time>
      </trkpt>
      <trkpt lat="45.6241" lon="6.82436">
        <ele>1321.7</ele>
        <time>2020-08-07T12:14:05Z</time>
      </trkpt>
      <trkpt lat="45.62413" lon="6.82431">
        <ele>1322</ele>
        <time>2020-08-07T12:14:07Z</time>
      </trkpt>
      <trkpt lat="45.62416" lon="6.82427">
        <ele>1322.2</ele>
        <time>2020-08-07T12:14:08Z</time>
      </trkpt>
      <trkpt lat="45.62419" lon="6.82422">
        <ele>1322.5</ele>
        <time>2020-08-07T12:14:10Z</time>
      </trkpt>
      <trkpt lat="45.62421" lon="6.82419">
        <ele>1322.6</ele>
        <time>2020-08-07T12:14:12Z</time>
      </trkpt>
      <trkpt lat="45.62422" lon="6.82415">
        <ele>1322.8</ele>
        <time>2020-08-07T12:14:13Z</time>
      </trkpt>
      <trkpt lat="45.62425" lon="6.82409">
        <ele>1323.1</ele>
        <time>2020-08-07T12:14:15Z</time>
      </trkpt>
      <trkpt lat="45.62429" lon="6.82403">
        <ele>1323.5</ele>
        <time>2020-08-07T12:14:16Z</time>
      </trkpt>
      <trkpt lat="45.62434" lon="6.82395">
        <ele>1324</ele>
        <time>2020-08-07T12:14:19Z</time>
      </trkpt>
      <trkpt lat="45.62436" lon="6.82393">
        <ele>1324.1</ele>
        <time>2020-08-07T12:14:20Z</time>
      </trkpt>
      <trkpt lat="45.62438" lon="6.82391">
        <ele>1324.3</ele>
        <time>2020-08-07T12:14:21Z</time>
      </trkpt>
      <trkpt lat="45.62445" lon="6.82387">
        <ele>1324.8</ele>
        <time>2020-08-07T12:14:23Z</time>
      </trkpt>
      <trkpt lat="45.62449" lon="6.82385">
        <ele>1325</ele>
        <time>2020-08-07T12:14:25Z</time>
      </trkpt>
      <trkpt lat="45.62454" lon="6.82385">
        <ele>1325.3</ele>
        <time>2020-08-07T12:14:27Z</time>
      </trkpt>
      <trkpt lat="45.62457" lon="6.82386">
        <ele>1325.4</ele>
        <time>2020-08-07T12:14:28Z</time>
      </trkpt>
      <trkpt lat="45.6246" lon="6.82388">
        <ele>1325.6</ele>
        <time>2020-08-07T12:14:29Z</time>
      </trkpt>
      <trkpt lat="45.62463" lon="6.8239">
        <ele>1325.8</ele>
        <time>2020-08-07T12:14:30Z</time>
      </trkpt>
      <trkpt lat="45.62466" lon="6.82392">
        <ele>1326</ele>
        <time>2020-08-07T12:14:32Z</time>
      </trkpt>
      <trkpt lat="45.6247" lon="6.82393">
        <ele>1326.1</ele>
        <time>2020-08-07T12:14:33Z</time>
      </trkpt>
      <trkpt lat="45.62472" lon="6.82395">
        <ele>1326.3</ele>
        <time>2020-08-07T12:14:34Z</time>
      </trkpt>
      <trkpt lat="45.62476" lon="6.82396">
        <ele>1326.5</ele>
        <time>2020-08-07T12:14:35Z</time>
      </trkpt>
      <trkpt lat="45.62483" lon="6.82399">
        <ele>1326.9</ele>
        <time>2020-08-07T12:14:36Z</time>
      </trkpt>
      <trkpt lat="45.62487" lon="6.824">
        <ele>1327.1</ele>
        <time>2020-08-07T12:14:37Z</time>
      </trkpt>
      <trkpt lat="45.62494" lon="6.82401">
        <ele>1327.5</ele>
        <time>2020-08-07T12:14:40Z</time>
      </trkpt>
      <trkpt lat="45.62497" lon="6.82401">
        <ele>1327.7</ele>
        <time>2020-08-07T12:14:41Z</time>
      </trkpt>
      <trkpt lat="45.62504" lon="6.82399">
        <ele>1328.1</ele>
        <time>2020-08-07T12:14:43Z</time>
      </trkpt>
      <trkpt lat="45.6251" lon="6.82397">
        <ele>1328.4</ele>
        <time>2020-08-07T12:14:45Z</time>
      </trkpt>
      <trkpt lat="45.62518" lon="6.82394">
        <ele>1328.9</ele>
        <time>2020-08-07T12:14:47Z</time>
      </trkpt>
      <trkpt lat="45.62521" lon="6.82392">
        <ele>1329.1</ele>
        <time>2020-08-07T12:14:48Z</time>
      </trkpt>
      <trkpt lat="45.62524" lon="6.82391">
        <ele>1329.2</ele>
        <time>2020-08-07T12:14:49Z</time>
      </trkpt>
      <trkpt lat="45.62528" lon="6.82389">
        <ele>1329.4</ele>
        <time>2020-08-07T12:14:51Z</time>
      </trkpt>
      <trkpt lat="45.62531" lon="6.82388">
        <ele>1329.6</ele>
        <time>2020-08-07T12:14:52Z</time>
      </trkpt>
      <trkpt lat="45.62535" lon="6.82386">
        <ele>1329.8</ele>
        <time>2020-08-07T12:14:54Z</time>
      </trkpt>
      <trkpt lat="45.62537" lon="6.82384">
        <ele>1330</ele>
        <time>2020-08-07T12:14:55Z</time>
      </trkpt>
      <trkpt lat="45.6254" lon="6.82383">
        <ele>1330.1</ele>
        <time>2020-08-07T12:14:56Z</time>
      </trkpt>
      <trkpt lat="45.62543" lon="6.82383">
        <ele>1330.3</ele>
        <time>2020-08-07T12:14:57Z</time>
      </trkpt>
      <trkpt lat="45.62548" lon="6.82381">
        <ele>1330.6</ele>
        <time>2020-08-07T12:14:58Z</time>
      </trkpt>
      <trkpt lat="45.62553" lon="6.8238">
        <ele>1330.8</ele>
        <time>2020-08-07T12:14:59Z</time>
      </trkpt>
      <trkpt lat="45.62556" lon="6.82379">
        <ele>1330.9</ele>
        <time>2020-08-07T12:15:00Z</time>
      </trkpt>
      <trkpt lat="45.6256" lon="6.82378">
        <ele>1331.1</ele>
        <time>2020-08-07T12:15:01Z</time>
      </trkpt>
      <trkpt lat="45.62568" lon="6.82376">
        <ele>1331.5</ele>
        <time>2020-08-07T12:15:04Z</time>
      </trkpt>
      <trkpt lat="45.62572" lon="6.82375">
        <ele>1331.7</ele>
        <time>2020-08-07T12:15:05Z</time>
      </trkpt>
      <trkpt lat="45.62581" lon="6.82373">
        <ele>1332.1</ele>
        <time>2020-08-07T12:15:08Z</time>
      </trkpt>
      <trkpt lat="45.62585" lon="6.82372">
        <ele>1332.3</ele>
        <time>2020-08-07T12:15:09Z</time>
      </trkpt>
      <trkpt lat="45.62588" lon="6.82371">
        <ele>1332.5</ele>
        <time>2020-08-07T12:15:11Z</time>
      </trkpt>
      <trkpt lat="45.62591" lon="6.82369">
        <ele>1332.6</ele>
        <time>2020-08-07T12:15:12Z</time>
      </trkpt>
      <trkpt lat="45.62594" lon="6.82367">
        <ele>1332.8</ele>
        <time>2020-08-07T12:15:14Z</time>
      </trkpt>
      <trkpt lat="45.62597" lon="6.82364">
        <ele>1333</ele>
        <time>2020-08-07T12:15:15Z</time>
      </trkpt>
      <trkpt lat="45.62602" lon="6.82361">
        <ele>1333.3</ele>
        <time>2020-08-07T12:15:17Z</time>
      </trkpt>
      <trkpt lat="45.62605" lon="6.82359">
        <ele>1333.4</ele>
        <time>2020-08-07T12:15:18Z</time>
      </trkpt>
      <trkpt lat="45.6261" lon="6.82356">
        <ele>1333.7</ele>
        <time>2020-08-07T12:15:19Z</time>
      </trkpt>
      <trkpt lat="45.62613" lon="6.82354">
        <ele>1333.9</ele>
        <time>2020-08-07T12:15:21Z</time>
      </trkpt>
      <trkpt lat="45.62615" lon="6.82353">
        <ele>1334.1</ele>
        <time>2020-08-07T12:15:22Z</time>
      </trkpt>
      <trkpt lat="45.62622" lon="6.82349">
        <ele>1334.5</ele>
        <time>2020-08-07T12:15:23Z</time>
      </trkpt>
      <trkpt lat="45.62625" lon="6.82347">
        <ele>1334.7</ele>
        <time>2020-08-07T12:15:25Z</time>
      </trkpt>
      <trkpt lat="45.62631" lon="6.82347">
        <ele>1335.1</ele>
        <time>2020-08-07T12:15:27Z</time>
      </trkpt>
      <trkpt lat="45.62634" lon="6.82347">
        <ele>1335.2</ele>
        <time>2020-08-07T12:15:28Z</time>
      </trkpt>
      <trkpt lat="45.62637" lon="6.82348">
        <ele>1335.4</ele>
        <time>2020-08-07T12:15:29Z</time>
      </trkpt>
      <trkpt lat="45.62641" lon="6.8235">
        <ele>1335.7</ele>
        <time>2020-08-07T12:15:30Z</time>
      </trkpt>
      <trkpt lat="45.62644" lon="6.82353">
        <ele>1335.9</ele>
        <time>2020-08-07T12:15:32Z</time>
      </trkpt>
      <trkpt lat="45.62647" lon="6.82355">
        <ele>1336.1</ele>
        <time>2020-08-07T12:15:33Z</time>
      </trkpt>
      <trkpt lat="45.6265" lon="6.82358">
        <ele>1336.3</ele>
        <time>2020-08-07T12:15:34Z</time>
      </trkpt>
      <trkpt lat="45.62656" lon="6.82363">
        <ele>1336.7</ele>
        <time>2020-08-07T12:15:36Z</time>
      </trkpt>
      <trkpt lat="45.62661" lon="6.82364">
        <ele>1336.9</ele>
        <time>2020-08-07T12:15:39Z</time>
      </trkpt>
      <trkpt lat="45.62663" lon="6.82365">
        <ele>1337</ele>
        <time>2020-08-07T12:15:40Z</time>
      </trkpt>
      <trkpt lat="45.62666" lon="6.82366">
        <ele>1337.2</ele>
        <time>2020-08-07T12:15:41Z</time>
      </trkpt>
      <trkpt lat="45.62671" lon="6.82366">
        <ele>1337.4</ele>
        <time>2020-08-07T12:15:42Z</time>
      </trkpt>
      <trkpt lat="45.62675" lon="6.82366">
        <ele>1337.6</ele>
        <time>2020-08-07T12:15:44Z</time>
      </trkpt>
      <trkpt lat="45.62678" lon="6.82366">
        <ele>1337.7</ele>
        <time>2020-08-07T12:15:45Z</time>
      </trkpt>
      <trkpt lat="45.62683" lon="6.82365">
        <ele>1338</ele>
        <time>2020-08-07T12:15:47Z</time>
      </trkpt>
      <trkpt lat="45.62693" lon="6.82362">
        <ele>1338.5</ele>
        <time>2020-08-07T12:15:49Z</time>
      </trkpt>
      <trkpt lat="45.62699" lon="6.8236">
        <ele>1338.8</ele>
        <time>2020-08-07T12:15:52Z</time>
      </trkpt>
      <trkpt lat="45.62701" lon="6.82359">
        <ele>1338.9</ele>
        <time>2020-08-07T12:15:53Z</time>
      </trkpt>
      <trkpt lat="45.62703" lon="6.82359">
        <ele>1339</ele>
        <time>2020-08-07T12:15:54Z</time>
      </trkpt>
      <trkpt lat="45.6271" lon="6.82357">
        <ele>1339.4</ele>
        <time>2020-08-07T12:15:55Z</time>
      </trkpt>
      <trkpt lat="45.62713" lon="6.82356">
        <ele>1339.5</ele>
        <time>2020-08-07T12:15:57Z</time>
      </trkpt>
      <trkpt lat="45.62716" lon="6.82356">
        <ele>1339.7</ele>
        <time>2020-08-07T12:15:58Z</time>
      </trkpt>
      <trkpt lat="45.62723" lon="6.82356">
        <ele>1340.1</ele>
        <time>2020-08-07T12:16:00Z</time>
      </trkpt>
      <trkpt lat="45.62727" lon="6.82356">
        <ele>1340.3</ele>
        <time>2020-08-07T12:16:01Z</time>
      </trkpt>
      <trkpt lat="45.6273" lon="6.82356">
        <ele>1340.5</ele>
        <time>2020-08-07T12:16:03Z</time>
      </trkpt>
      <trkpt lat="45.62732" lon="6.82357">
        <ele>1340.6</ele>
        <time>2020-08-07T12:16:04Z</time>
      </trkpt>
      <trkpt lat="45.62736" lon="6.82357">
        <ele>1340.8</ele>
        <time>2020-08-07T12:16:05Z</time>
      </trkpt>
      <trkpt lat="45.62739" lon="6.82358">
        <ele>1341</ele>
        <time>2020-08-07T12:16:06Z</time>
      </trkpt>
      <trkpt lat="45.62743" lon="6.82359">
        <ele>1341.2</ele>
        <time>2020-08-07T12:16:07Z</time>
      </trkpt>
      <trkpt lat="45.62746" lon="6.82359">
        <ele>1341.3</ele>
        <time>2020-08-07T12:16:08Z</time>
      </trkpt>
      <trkpt lat="45.62749" lon="6.8236">
        <ele>1341.5</ele>
        <time>2020-08-07T12:16:09Z</time>
      </trkpt>
      <trkpt lat="45.62753" lon="6.82361">
        <ele>1341.7</ele>
        <time>2020-08-07T12:16:10Z</time>
      </trkpt>
      <trkpt lat="45.62756" lon="6.82362">
        <ele>1341.9</ele>
        <time>2020-08-07T12:16:12Z</time>
      </trkpt>
      <trkpt lat="45.62759" lon="6.82363">
        <ele>1342.1</ele>
        <time>2020-08-07T12:16:13Z</time>
      </trkpt>
      <trkpt lat="45.62769" lon="6.82364">
        <ele>1342.6</ele>
        <time>2020-08-07T12:16:15Z</time>
      </trkpt>
      <trkpt lat="45.62778" lon="6.82364">
        <ele>1343.1</ele>
        <time>2020-08-07T12:16:18Z</time>
      </trkpt>
      <trkpt lat="45.62783" lon="6.82363">
        <ele>1343.3</ele>
        <time>2020-08-07T12:16:21Z</time>
      </trkpt>
      <trkpt lat="45.62786" lon="6.82363">
        <ele>1343.4</ele>
        <time>2020-08-07T12:16:22Z</time>
      </trkpt>
      <trkpt lat="45.62796" lon="6.8236">
        <ele>1343.9</ele>
        <time>2020-08-07T12:16:23Z</time>
      </trkpt>
      <trkpt lat="45.628" lon="6.82359">
        <ele>1344.1</ele>
        <time>2020-08-07T12:16:25Z</time>
      </trkpt>
      <trkpt lat="45.62804" lon="6.82359">
        <ele>1344.3</ele>
        <time>2020-08-07T12:16:27Z</time>
      </trkpt>
      <trkpt lat="45.62808" lon="6.82359">
        <ele>1344.5</ele>
        <time>2020-08-07T12:16:28Z</time>
      </trkpt>
      <trkpt lat="45.62817" lon="6.82358">
        <ele>1345</ele>
        <time>2020-08-07T12:16:29Z</time>
      </trkpt>
      <trkpt lat="45.62829" lon="6.82356">
        <ele>1345.6</ele>
        <time>2020-08-07T12:16:32Z</time>
      </trkpt>
      <trkpt lat="45.62833" lon="6.82356">
        <ele>1345.9</ele>
        <time>2020-08-07T12:16:34Z</time>
      </trkpt>
      <trkpt lat="45.62841" lon="6.82355">
        <ele>1346.3</ele>
        <time>2020-08-07T12:16:36Z</time>
      </trkpt>
      <trkpt lat="45.62846" lon="6.82355">
        <ele>1346.5</ele>
        <time>2020-08-07T12:16:37Z</time>
      </trkpt>
      <trkpt lat="45.62854" lon="6.82354">
        <ele>1346.9</ele>
        <time>2020-08-07T12:16:40Z</time>
      </trkpt>
      <trkpt lat="45.62857" lon="6.82353">
        <ele>1347.1</ele>
        <time>2020-08-07T12:16:41Z</time>
      </trkpt>
      <trkpt lat="45.62862" lon="6.82352">
        <ele>1347.3</ele>
        <time>2020-08-07T12:16:42Z</time>
      </trkpt>
      <trkpt lat="45.62867" lon="6.8235">
        <ele>1347.6</ele>
        <time>2020-08-07T12:16:43Z</time>
      </trkpt>
      <trkpt lat="45.62871" lon="6.8235">
        <ele>1347.8</ele>
        <time>2020-08-07T12:16:45Z</time>
      </trkpt>
      <trkpt lat="45.62876" lon="6.82348">
        <ele>1348</ele>
        <time>2020-08-07T12:16:47Z</time>
      </trkpt>
      <trkpt lat="45.62887" lon="6.82341">
        <ele>1348.6</ele>
        <time>2020-08-07T12:16:49Z</time>
      </trkpt>
      <trkpt lat="45.62893" lon="6.82333">
        <ele>1349</ele>
        <time>2020-08-07T12:16:52Z</time>
      </trkpt>
      <trkpt lat="45.62895" lon="6.82329">
        <ele>1349.2</ele>
        <time>2020-08-07T12:16:54Z</time>
      </trkpt>
      <trkpt lat="45.62897" lon="6.82326">
        <ele>1349.4</ele>
        <time>2020-08-07T12:16:56Z</time>
      </trkpt>
      <trkpt lat="45.62899" lon="6.82322">
        <ele>1349.5</ele>
        <time>2020-08-07T12:16:57Z</time>
      </trkpt>
      <trkpt lat="45.62903" lon="6.82315">
        <ele>1349.9</ele>
        <time>2020-08-07T12:16:58Z</time>
      </trkpt>
      <trkpt lat="45.62905" lon="6.82311">
        <ele>1350.1</ele>
        <time>2020-08-07T12:16:59Z</time>
      </trkpt>
      <trkpt lat="45.62908" lon="6.82308">
        <ele>1350.2</ele>
        <time>2020-08-07T12:17:01Z</time>
      </trkpt>
      <trkpt lat="45.6291" lon="6.82304">
        <ele>1350.4</ele>
        <time>2020-08-07T12:17:02Z</time>
      </trkpt>
      <trkpt lat="45.62911" lon="6.823">
        <ele>1350.6</ele>
        <time>2020-08-07T12:17:03Z</time>
      </trkpt>
      <trkpt lat="45.62913" lon="6.82297">
        <ele>1350.7</ele>
        <time>2020-08-07T12:17:05Z</time>
      </trkpt>
      <trkpt lat="45.62915" lon="6.82292">
        <ele>1350.9</ele>
        <time>2020-08-07T12:17:06Z</time>
      </trkpt>
      <trkpt lat="45.62916" lon="6.82289">
        <ele>1351.1</ele>
        <time>2020-08-07T12:17:07Z</time>
      </trkpt>
      <trkpt lat="45.6292" lon="6.82282">
        <ele>1351.4</ele>
        <time>2020-08-07T12:17:08Z</time>
      </trkpt>
      <trkpt lat="45.62923" lon="6.82278">
        <ele>1351.6</ele>
        <time>2020-08-07T12:17:10Z</time>
      </trkpt>
      <trkpt lat="45.62927" lon="6.82274">
        <ele>1351.8</ele>
        <time>2020-08-07T12:17:11Z</time>
      </trkpt>
      <trkpt lat="45.62929" lon="6.82271">
        <ele>1352</ele>
        <time>2020-08-07T12:17:12Z</time>
      </trkpt>
      <trkpt lat="45.62933" lon="6.82268">
        <ele>1352.2</ele>
        <time>2020-08-07T12:17:14Z</time>
      </trkpt>
      <trkpt lat="45.62939" lon="6.82264">
        <ele>1352.5</ele>
        <time>2020-08-07T12:17:16Z</time>
      </trkpt>
      <trkpt lat="45.62944" lon="6.8226">
        <ele>1352.7</ele>
        <time>2020-08-07T12:17:17Z</time>
      </trkpt>
      <trkpt lat="45.62948" lon="6.82258">
        <ele>1352.8</ele>
        <time>2020-08-07T12:17:19Z</time>
      </trkpt>
      <trkpt lat="45.62952" lon="6.82256">
        <ele>1352.9</ele>
        <time>2020-08-07T12:17:20Z</time>
      </trkpt>
      <trkpt lat="45.62957" lon="6.82255">
        <ele>1353.2</ele>
        <time>2020-08-07T12:17:21Z</time>
      </trkpt>
      <trkpt lat="45.62961" lon="6.82254">
        <ele>1353.3</ele>
        <time>2020-08-07T12:17:22Z</time>
      </trkpt>
      <trkpt lat="45.62965" lon="6.82255">
        <ele>1353.4</ele>
        <time>2020-08-07T12:17:24Z</time>
      </trkpt>
      <trkpt lat="45.62971" lon="6.8226">
        <ele>1353.7</ele>
        <time>2020-08-07T12:17:25Z</time>
      </trkpt>
      <trkpt lat="45.62972" lon="6.82271">
        <ele>1354.1</ele>
        <time>2020-08-07T12:17:27Z</time>
      </trkpt>
      <trkpt lat="45.62971" lon="6.82275">
        <ele>1354.2</ele>
        <time>2020-08-07T12:17:28Z</time>
      </trkpt>
      <trkpt lat="45.62955" lon="6.82271">
        <ele>1354.9</ele>
        <time>2020-08-07T12:17:31Z</time>
      </trkpt>
      <trkpt lat="45.62949" lon="6.8227">
        <ele>1355.1</ele>
        <time>2020-08-07T12:17:34Z</time>
      </trkpt>
      <trkpt lat="45.6294" lon="6.82272">
        <ele>1355.5</ele>
        <time>2020-08-07T12:17:35Z</time>
      </trkpt>
      <trkpt lat="45.62935" lon="6.82274">
        <ele>1355.8</ele>
        <time>2020-08-07T12:17:36Z</time>
      </trkpt>
      <trkpt lat="45.6293" lon="6.82277">
        <ele>1356.1</ele>
        <time>2020-08-07T12:17:37Z</time>
      </trkpt>
      <trkpt lat="45.62926" lon="6.82283">
        <ele>1356.4</ele>
        <time>2020-08-07T12:17:39Z</time>
      </trkpt>
      <trkpt lat="45.62923" lon="6.82289">
        <ele>1356.7</ele>
        <time>2020-08-07T12:17:40Z</time>
      </trkpt>
      <trkpt lat="45.62918" lon="6.82295">
        <ele>1357</ele>
        <time>2020-08-07T12:17:42Z</time>
      </trkpt>
      <trkpt lat="45.62916" lon="6.82299">
        <ele>1357.2</ele>
        <time>2020-08-07T12:17:43Z</time>
      </trkpt>
      <trkpt lat="45.62913" lon="6.82303">
        <ele>1357.5</ele>
        <time>2020-08-07T12:17:44Z</time>
      </trkpt>
      <trkpt lat="45.62912" lon="6.82307">
        <ele>1357.7</ele>
        <time>2020-08-07T12:17:45Z</time>
      </trkpt>
      <trkpt lat="45.6291" lon="6.82313">
        <ele>1357.9</ele>
        <time>2020-08-07T12:17:46Z</time>
      </trkpt>
      <trkpt lat="45.62908" lon="6.82318">
        <ele>1358.2</ele>
        <time>2020-08-07T12:17:48Z</time>
      </trkpt>
      <trkpt lat="45.62906" lon="6.82322">
        <ele>1358.4</ele>
        <time>2020-08-07T12:17:49Z</time>
      </trkpt>
      <trkpt lat="45.62902" lon="6.82331">
        <ele>1358.8</ele>
        <time>2020-08-07T12:17:51Z</time>
      </trkpt>
      <trkpt lat="45.62898" lon="6.82341">
        <ele>1359.4</ele>
        <time>2020-08-07T12:17:52Z</time>
      </trkpt>
      <trkpt lat="45.62894" lon="6.82351">
        <ele>1359.9</ele>
        <time>2020-08-07T12:17:54Z</time>
      </trkpt>
      <trkpt lat="45.62892" lon="6.82357">
        <ele>1360.2</ele>
        <time>2020-08-07T12:17:56Z</time>
      </trkpt>
      <trkpt lat="45.62889" lon="6.82363">
        <ele>1360.6</ele>
        <time>2020-08-07T12:17:57Z</time>
      </trkpt>
      <trkpt lat="45.62886" lon="6.82367">
        <ele>1360.9</ele>
        <time>2020-08-07T12:17:58Z</time>
      </trkpt>
      <trkpt lat="45.62883" lon="6.82371">
        <ele>1361.1</ele>
        <time>2020-08-07T12:17:59Z</time>
      </trkpt>
      <trkpt lat="45.6288" lon="6.82373">
        <ele>1361.3</ele>
        <time>2020-08-07T12:18:01Z</time>
      </trkpt>
      <trkpt lat="45.62877" lon="6.82376">
        <ele>1361.6</ele>
        <time>2020-08-07T12:18:03Z</time>
      </trkpt>
      <trkpt lat="45.62872" lon="6.82379">
        <ele>1361.9</ele>
        <time>2020-08-07T12:18:04Z</time>
      </trkpt>
      <trkpt lat="45.62869" lon="6.82381">
        <ele>1362.1</ele>
        <time>2020-08-07T12:18:06Z</time>
      </trkpt>
      <trkpt lat="45.62863" lon="6.82383">
        <ele>1362.6</ele>
        <time>2020-08-07T12:18:08Z</time>
      </trkpt>
      <trkpt lat="45.62858" lon="6.82384">
        <ele>1363</ele>
        <time>2020-08-07T12:18:10Z</time>
      </trkpt>
      <trkpt lat="45.62849" lon="6.82386">
        <ele>1363.5</ele>
        <time>2020-08-07T12:18:11Z</time>
      </trkpt>
      <trkpt lat="45.62845" lon="6.82387">
        <ele>1363.9</ele>
        <time>2020-08-07T12:18:14Z</time>
      </trkpt>
      <trkpt lat="45.62841" lon="6.82387">
        <ele>1364.1</ele>
        <time>2020-08-07T12:18:15Z</time>
      </trkpt>
      <trkpt lat="45.62837" lon="6.82388">
        <ele>1364.4</ele>
        <time>2020-08-07T12:18:16Z</time>
      </trkpt>
      <trkpt lat="45.62832" lon="6.82389">
        <ele>1364.8</ele>
        <time>2020-08-07T12:18:17Z</time>
      </trkpt>
      <trkpt lat="45.62829" lon="6.8239">
        <ele>1365</ele>
        <time>2020-08-07T12:18:18Z</time>
      </trkpt>
      <trkpt lat="45.6282" lon="6.82393">
        <ele>1365.6</ele>
        <time>2020-08-07T12:18:20Z</time>
      </trkpt>
      <trkpt lat="45.62817" lon="6.82394">
        <ele>1365.9</ele>
        <time>2020-08-07T12:18:22Z</time>
      </trkpt>
      <trkpt lat="45.62813" lon="6.82395">
        <ele>1366.1</ele>
        <time>2020-08-07T12:18:23Z</time>
      </trkpt>
      <trkpt lat="45.6281" lon="6.82396">
        <ele>1366.3</ele>
        <time>2020-08-07T12:18:25Z</time>
      </trkpt>
      <trkpt lat="45.62806" lon="6.82397">
        <ele>1366.7</ele>
        <time>2020-08-07T12:18:26Z</time>
      </trkpt>
      <trkpt lat="45.62802" lon="6.82398">
        <ele>1366.9</ele>
        <time>2020-08-07T12:18:27Z</time>
      </trkpt>
      <trkpt lat="45.62799" lon="6.824">
        <ele>1367.2</ele>
        <time>2020-08-07T12:18:28Z</time>
      </trkpt>
      <trkpt lat="45.62795" lon="6.82401">
        <ele>1367.5</ele>
        <time>2020-08-07T12:18:29Z</time>
      </trkpt>
      <trkpt lat="45.62792" lon="6.82403">
        <ele>1367.7</ele>
        <time>2020-08-07T12:18:30Z</time>
      </trkpt>
      <trkpt lat="45.62789" lon="6.82404">
        <ele>1368</ele>
        <time>2020-08-07T12:18:31Z</time>
      </trkpt>
      <trkpt lat="45.62785" lon="6.82406">
        <ele>1368.3</ele>
        <time>2020-08-07T12:18:32Z</time>
      </trkpt>
      <trkpt lat="45.6278" lon="6.82409">
        <ele>1368.7</ele>
        <time>2020-08-07T12:18:34Z</time>
      </trkpt>
      <trkpt lat="45.62774" lon="6.82413">
        <ele>1369.2</ele>
        <time>2020-08-07T12:18:36Z</time>
      </trkpt>
      <trkpt lat="45.6277" lon="6.82415">
        <ele>1369.4</ele>
        <time>2020-08-07T12:18:37Z</time>
      </trkpt>
      <trkpt lat="45.62766" lon="6.82418">
        <ele>1369.8</ele>
        <time>2020-08-07T12:18:39Z</time>
      </trkpt>
      <trkpt lat="45.62762" lon="6.82419">
        <ele>1370</ele>
        <time>2020-08-07T12:18:40Z</time>
      </trkpt>
      <trkpt lat="45.62759" lon="6.82421">
        <ele>1370.3</ele>
        <time>2020-08-07T12:18:41Z</time>
      </trkpt>
      <trkpt lat="45.62755" lon="6.82422">
        <ele>1370.5</ele>
        <time>2020-08-07T12:18:42Z</time>
      </trkpt>
      <trkpt lat="45.62752" lon="6.82423">
        <ele>1370.7</ele>
        <time>2020-08-07T12:18:43Z</time>
      </trkpt>
      <trkpt lat="45.62745" lon="6.82425">
        <ele>1371.1</ele>
        <time>2020-08-07T12:18:45Z</time>
      </trkpt>
      <trkpt lat="45.62742" lon="6.82426">
        <ele>1371.4</ele>
        <time>2020-08-07T12:18:46Z</time>
      </trkpt>
      <trkpt lat="45.62737" lon="6.82427">
        <ele>1371.7</ele>
        <time>2020-08-07T12:18:48Z</time>
      </trkpt>
      <trkpt lat="45.62731" lon="6.82428">
        <ele>1372.1</ele>
        <time>2020-08-07T12:18:50Z</time>
      </trkpt>
      <trkpt lat="45.62728" lon="6.82428">
        <ele>1372.3</ele>
        <time>2020-08-07T12:18:51Z</time>
      </trkpt>
      <trkpt lat="45.62725" lon="6.82429">
        <ele>1372.5</ele>
        <time>2020-08-07T12:18:53Z</time>
      </trkpt>
      <trkpt lat="45.62718" lon="6.8243">
        <ele>1372.9</ele>
        <time>2020-08-07T12:18:55Z</time>
      </trkpt>
      <trkpt lat="45.62712" lon="6.82431">
        <ele>1373.3</ele>
        <time>2020-08-07T12:18:58Z</time>
      </trkpt>
      <trkpt lat="45.62709" lon="6.82432">
        <ele>1373.5</ele>
        <time>2020-08-07T12:18:59Z</time>
      </trkpt>
      <trkpt lat="45.62706" lon="6.82432">
        <ele>1373.7</ele>
        <time>2020-08-07T12:19:01Z</time>
      </trkpt>
      <trkpt lat="45.62703" lon="6.82432">
        <ele>1373.9</ele>
        <time>2020-08-07T12:19:02Z</time>
      </trkpt>
      <trkpt lat="45.62698" lon="6.82433">
        <ele>1374.2</ele>
        <time>2020-08-07T12:19:04Z</time>
      </trkpt>
      <trkpt lat="45.62695" lon="6.82434">
        <ele>1374.4</ele>
        <time>2020-08-07T12:19:06Z</time>
      </trkpt>
      <trkpt lat="45.6269" lon="6.82436">
        <ele>1374.8</ele>
        <time>2020-08-07T12:19:08Z</time>
      </trkpt>
      <trkpt lat="45.62685" lon="6.82438">
        <ele>1375.2</ele>
        <time>2020-08-07T12:19:09Z</time>
      </trkpt>
      <trkpt lat="45.62681" lon="6.82439">
        <ele>1375.4</ele>
        <time>2020-08-07T12:19:11Z</time>
      </trkpt>
      <trkpt lat="45.62677" lon="6.82442">
        <ele>1375.8</ele>
        <time>2020-08-07T12:19:13Z</time>
      </trkpt>
      <trkpt lat="45.62672" lon="6.82446">
        <ele>1376.2</ele>
        <time>2020-08-07T12:19:15Z</time>
      </trkpt>
      <trkpt lat="45.62667" lon="6.8245">
        <ele>1376.5</ele>
        <time>2020-08-07T12:19:17Z</time>
      </trkpt>
      <trkpt lat="45.62665" lon="6.82452">
        <ele>1376.7</ele>
        <time>2020-08-07T12:19:18Z</time>
      </trkpt>
      <trkpt lat="45.62662" lon="6.82454">
        <ele>1376.9</ele>
        <time>2020-08-07T12:19:19Z</time>
      </trkpt>
      <trkpt lat="45.62656" lon="6.82456">
        <ele>1377.3</ele>
        <time>2020-08-07T12:19:21Z</time>
      </trkpt>
      <trkpt lat="45.6265" lon="6.8246">
        <ele>1377.7</ele>
        <time>2020-08-07T12:19:22Z</time>
      </trkpt>
      <trkpt lat="45.62646" lon="6.82463">
        <ele>1378</ele>
        <time>2020-08-07T12:19:25Z</time>
      </trkpt>
      <trkpt lat="45.62642" lon="6.82466">
        <ele>1378.4</ele>
        <time>2020-08-07T12:19:26Z</time>
      </trkpt>
      <trkpt lat="45.62638" lon="6.82468">
        <ele>1378.6</ele>
        <time>2020-08-07T12:19:27Z</time>
      </trkpt>
      <trkpt lat="45.62632" lon="6.82472">
        <ele>1379.1</ele>
        <time>2020-08-07T12:19:29Z</time>
      </trkpt>
      <trkpt lat="45.62629" lon="6.82473">
        <ele>1379.3</ele>
        <time>2020-08-07T12:19:31Z</time>
      </trkpt>
      <trkpt lat="45.62625" lon="6.82475">
        <ele>1379.6</ele>
        <time>2020-08-07T12:19:32Z</time>
      </trkpt>
      <trkpt lat="45.6262" lon="6.8248">
        <ele>1380</ele>
        <time>2020-08-07T12:19:34Z</time>
      </trkpt>
      <trkpt lat="45.62616" lon="6.82483">
        <ele>1380.3</ele>
        <time>2020-08-07T12:19:35Z</time>
      </trkpt>
      <trkpt lat="45.62614" lon="6.82485">
        <ele>1380.5</ele>
        <time>2020-08-07T12:19:36Z</time>
      </trkpt>
      <trkpt lat="45.62611" lon="6.82487">
        <ele>1380.7</ele>
        <time>2020-08-07T12:19:38Z</time>
      </trkpt>
      <trkpt lat="45.62607" lon="6.82489">
        <ele>1381</ele>
        <time>2020-08-07T12:19:39Z</time>
      </trkpt>
      <trkpt lat="45.62603" lon="6.82492">
        <ele>1381.3</ele>
        <time>2020-08-07T12:19:41Z</time>
      </trkpt>
      <trkpt lat="45.626" lon="6.82494">
        <ele>1381.5</ele>
        <time>2020-08-07T12:19:43Z</time>
      </trkpt>
      <trkpt lat="45.62595" lon="6.82497">
        <ele>1381.9</ele>
        <time>2020-08-07T12:19:45Z</time>
      </trkpt>
      <trkpt lat="45.62592" lon="6.82499">
        <ele>1382.2</ele>
        <time>2020-08-07T12:19:46Z</time>
      </trkpt>
      <trkpt lat="45.62589" lon="6.82501">
        <ele>1382.4</ele>
        <time>2020-08-07T12:19:47Z</time>
      </trkpt>
      <trkpt lat="45.62587" lon="6.82504">
        <ele>1382.6</ele>
        <time>2020-08-07T12:19:49Z</time>
      </trkpt>
      <trkpt lat="45.62584" lon="6.82506">
        <ele>1382.8</ele>
        <time>2020-08-07T12:19:50Z</time>
      </trkpt>
      <trkpt lat="45.62581" lon="6.82509">
        <ele>1383.1</ele>
        <time>2020-08-07T12:19:51Z</time>
      </trkpt>
      <trkpt lat="45.62579" lon="6.82511">
        <ele>1383.2</ele>
        <time>2020-08-07T12:19:52Z</time>
      </trkpt>
      <trkpt lat="45.62576" lon="6.82514">
        <ele>1383.5</ele>
        <time>2020-08-07T12:19:55Z</time>
      </trkpt>
      <trkpt lat="45.62573" lon="6.82517">
        <ele>1383.7</ele>
        <time>2020-08-07T12:19:56Z</time>
      </trkpt>
      <trkpt lat="45.62569" lon="6.8252">
        <ele>1384.1</ele>
        <time>2020-08-07T12:19:58Z</time>
      </trkpt>
      <trkpt lat="45.62565" lon="6.82524">
        <ele>1384.4</ele>
        <time>2020-08-07T12:19:59Z</time>
      </trkpt>
      <trkpt lat="45.62563" lon="6.82527">
        <ele>1384.7</ele>
        <time>2020-08-07T12:20:01Z</time>
      </trkpt>
      <trkpt lat="45.62559" lon="6.82532">
        <ele>1385</ele>
        <time>2020-08-07T12:20:03Z</time>
      </trkpt>
      <trkpt lat="45.62558" lon="6.82533">
        <ele>1385.1</ele>
        <time>2020-08-07T12:20:04Z</time>
      </trkpt>
      <trkpt lat="45.62552" lon="6.8254">
        <ele>1385.7</ele>
        <time>2020-08-07T12:20:06Z</time>
      </trkpt>
      <trkpt lat="45.62546" lon="6.82547">
        <ele>1386.1</ele>
        <time>2020-08-07T12:20:09Z</time>
      </trkpt>
      <trkpt lat="45.62543" lon="6.82551">
        <ele>1386.4</ele>
        <time>2020-08-07T12:20:11Z</time>
      </trkpt>
      <trkpt lat="45.62541" lon="6.82554">
        <ele>1386.6</ele>
        <time>2020-08-07T12:20:13Z</time>
      </trkpt>
      <trkpt lat="45.62537" lon="6.82559">
        <ele>1386.9</ele>
        <time>2020-08-07T12:20:15Z</time>
      </trkpt>
      <trkpt lat="45.6253" lon="6.8257">
        <ele>1387.5</ele>
        <time>2020-08-07T12:20:17Z</time>
      </trkpt>
      <trkpt lat="45.62525" lon="6.82581">
        <ele>1388</ele>
        <time>2020-08-07T12:20:20Z</time>
      </trkpt>
      <trkpt lat="45.62522" lon="6.82585">
        <ele>1388.3</ele>
        <time>2020-08-07T12:20:21Z</time>
      </trkpt>
      <trkpt lat="45.62521" lon="6.82589">
        <ele>1388.4</ele>
        <time>2020-08-07T12:20:22Z</time>
      </trkpt>
      <trkpt lat="45.62519" lon="6.82594">
        <ele>1388.7</ele>
        <time>2020-08-07T12:20:25Z</time>
      </trkpt>
      <trkpt lat="45.62518" lon="6.82598">
        <ele>1388.9</ele>
        <time>2020-08-07T12:20:26Z</time>
      </trkpt>
      <trkpt lat="45.62514" lon="6.82606">
        <ele>1389.2</ele>
        <time>2020-08-07T12:20:28Z</time>
      </trkpt>
      <trkpt lat="45.62512" lon="6.82611">
        <ele>1389.4</ele>
        <time>2020-08-07T12:20:29Z</time>
      </trkpt>
      <trkpt lat="45.62511" lon="6.82615">
        <ele>1389.7</ele>
        <time>2020-08-07T12:20:30Z</time>
      </trkpt>
      <trkpt lat="45.62507" lon="6.82622">
        <ele>1390.1</ele>
        <time>2020-08-07T12:20:31Z</time>
      </trkpt>
      <trkpt lat="45.62505" lon="6.82626">
        <ele>1390.2</ele>
        <time>2020-08-07T12:20:32Z</time>
      </trkpt>
      <trkpt lat="45.62503" lon="6.8263">
        <ele>1390.5</ele>
        <time>2020-08-07T12:20:34Z</time>
      </trkpt>
      <trkpt lat="45.625" lon="6.82638">
        <ele>1390.9</ele>
        <time>2020-08-07T12:20:37Z</time>
      </trkpt>
      <trkpt lat="45.62497" lon="6.82644">
        <ele>1391.2</ele>
        <time>2020-08-07T12:20:38Z</time>
      </trkpt>
      <trkpt lat="45.62495" lon="6.82649">
        <ele>1391.5</ele>
        <time>2020-08-07T12:20:40Z</time>
      </trkpt>
      <trkpt lat="45.62494" lon="6.82652">
        <ele>1391.6</ele>
        <time>2020-08-07T12:20:41Z</time>
      </trkpt>
      <trkpt lat="45.62491" lon="6.82658">
        <ele>1392</ele>
        <time>2020-08-07T12:20:43Z</time>
      </trkpt>
      <trkpt lat="45.62488" lon="6.82664">
        <ele>1392.4</ele>
        <time>2020-08-07T12:20:45Z</time>
      </trkpt>
      <trkpt lat="45.62485" lon="6.82673">
        <ele>1392.8</ele>
        <time>2020-08-07T12:20:46Z</time>
      </trkpt>
      <trkpt lat="45.62483" lon="6.82677">
        <ele>1393</ele>
        <time>2020-08-07T12:20:48Z</time>
      </trkpt>
      <trkpt lat="45.62481" lon="6.82684">
        <ele>1393.4</ele>
        <time>2020-08-07T12:20:50Z</time>
      </trkpt>
      <trkpt lat="45.6248" lon="6.82693">
        <ele>1393.8</ele>
        <time>2020-08-07T12:20:52Z</time>
      </trkpt>
      <trkpt lat="45.62479" lon="6.827">
        <ele>1394.1</ele>
        <time>2020-08-07T12:20:54Z</time>
      </trkpt>
      <trkpt lat="45.62479" lon="6.82703">
        <ele>1394.3</ele>
        <time>2020-08-07T12:20:55Z</time>
      </trkpt>
      <trkpt lat="45.62481" lon="6.82718">
        <ele>1395</ele>
        <time>2020-08-07T12:20:57Z</time>
      </trkpt>
      <trkpt lat="45.62485" lon="6.8273">
        <ele>1395.6</ele>
        <time>2020-08-07T12:21:00Z</time>
      </trkpt>
      <trkpt lat="45.62487" lon="6.82734">
        <ele>1395.8</ele>
        <time>2020-08-07T12:21:01Z</time>
      </trkpt>
      <trkpt lat="45.62495" lon="6.82745">
        <ele>1396.5</ele>
        <time>2020-08-07T12:21:04Z</time>
      </trkpt>
      <trkpt lat="45.62503" lon="6.82756">
        <ele>1397.1</ele>
        <time>2020-08-07T12:21:07Z</time>
      </trkpt>
      <trkpt lat="45.62507" lon="6.82764">
        <ele>1397.5</ele>
        <time>2020-08-07T12:21:09Z</time>
      </trkpt>
      <trkpt lat="45.6251" lon="6.82771">
        <ele>1397.9</ele>
        <time>2020-08-07T12:21:11Z</time>
      </trkpt>
      <trkpt lat="45.62513" lon="6.82779">
        <ele>1398.3</ele>
        <time>2020-08-07T12:21:13Z</time>
      </trkpt>
      <trkpt lat="45.62515" lon="6.82784">
        <ele>1398.5</ele>
        <time>2020-08-07T12:21:14Z</time>
      </trkpt>
      <trkpt lat="45.62516" lon="6.82788">
        <ele>1398.7</ele>
        <time>2020-08-07T12:21:15Z</time>
      </trkpt>
      <trkpt lat="45.62518" lon="6.82799">
        <ele>1399.1</ele>
        <time>2020-08-07T12:21:17Z</time>
      </trkpt>
      <trkpt lat="45.62519" lon="6.82803">
        <ele>1399.3</ele>
        <time>2020-08-07T12:21:18Z</time>
      </trkpt>
      <trkpt lat="45.62519" lon="6.82808">
        <ele>1399.5</ele>
        <time>2020-08-07T12:21:19Z</time>
      </trkpt>
      <trkpt lat="45.62519" lon="6.82812">
        <ele>1399.6</ele>
        <time>2020-08-07T12:21:20Z</time>
      </trkpt>
      <trkpt lat="45.62519" lon="6.82817">
        <ele>1399.8</ele>
        <time>2020-08-07T12:21:22Z</time>
      </trkpt>
      <trkpt lat="45.62519" lon="6.82822">
        <ele>1400</ele>
        <time>2020-08-07T12:21:23Z</time>
      </trkpt>
      <trkpt lat="45.62519" lon="6.82827">
        <ele>1400.2</ele>
        <time>2020-08-07T12:21:24Z</time>
      </trkpt>
      <trkpt lat="45.62519" lon="6.82836">
        <ele>1400.6</ele>
        <time>2020-08-07T12:21:26Z</time>
      </trkpt>
      <trkpt lat="45.62518" lon="6.82841">
        <ele>1400.8</ele>
        <time>2020-08-07T12:21:28Z</time>
      </trkpt>
      <trkpt lat="45.62518" lon="6.82845">
        <ele>1401</ele>
        <time>2020-08-07T12:21:29Z</time>
      </trkpt>
      <trkpt lat="45.62518" lon="6.82851">
        <ele>1401.3</ele>
        <time>2020-08-07T12:21:30Z</time>
      </trkpt>
      <trkpt lat="45.62518" lon="6.82855">
        <ele>1401.5</ele>
        <time>2020-08-07T12:21:31Z</time>
      </trkpt>
      <trkpt lat="45.62518" lon="6.8286">
        <ele>1401.7</ele>
        <time>2020-08-07T12:21:32Z</time>
      </trkpt>
      <trkpt lat="45.62517" lon="6.82865">
        <ele>1401.9</ele>
        <time>2020-08-07T12:21:33Z</time>
      </trkpt>
      <trkpt lat="45.62516" lon="6.82873">
        <ele>1402.3</ele>
        <time>2020-08-07T12:21:35Z</time>
      </trkpt>
      <trkpt lat="45.62515" lon="6.82879">
        <ele>1402.7</ele>
        <time>2020-08-07T12:21:38Z</time>
      </trkpt>
      <trkpt lat="45.62513" lon="6.82887">
        <ele>1403.2</ele>
        <time>2020-08-07T12:21:40Z</time>
      </trkpt>
      <trkpt lat="45.62512" lon="6.82893">
        <ele>1403.5</ele>
        <time>2020-08-07T12:21:42Z</time>
      </trkpt>
      <trkpt lat="45.62511" lon="6.82898">
        <ele>1403.8</ele>
        <time>2020-08-07T12:21:43Z</time>
      </trkpt>
      <trkpt lat="45.62509" lon="6.82912">
        <ele>1404.5</ele>
        <time>2020-08-07T12:21:45Z</time>
      </trkpt>
      <trkpt lat="45.62509" lon="6.82919">
        <ele>1404.9</ele>
        <time>2020-08-07T12:21:47Z</time>
      </trkpt>
      <trkpt lat="45.62509" lon="6.82924">
        <ele>1405.1</ele>
        <time>2020-08-07T12:21:49Z</time>
      </trkpt>
      <trkpt lat="45.62509" lon="6.82932">
        <ele>1405.5</ele>
        <time>2020-08-07T12:21:51Z</time>
      </trkpt>
      <trkpt lat="45.62508" lon="6.82942">
        <ele>1405.9</ele>
        <time>2020-08-07T12:21:52Z</time>
      </trkpt>
      <trkpt lat="45.62508" lon="6.82946">
        <ele>1406.1</ele>
        <time>2020-08-07T12:21:53Z</time>
      </trkpt>
      <trkpt lat="45.62508" lon="6.82951">
        <ele>1406.3</ele>
        <time>2020-08-07T12:21:55Z</time>
      </trkpt>
      <trkpt lat="45.62508" lon="6.82955">
        <ele>1406.5</ele>
        <time>2020-08-07T12:21:56Z</time>
      </trkpt>
      <trkpt lat="45.62508" lon="6.82963">
        <ele>1406.9</ele>
        <time>2020-08-07T12:21:58Z</time>
      </trkpt>
      <trkpt lat="45.62507" lon="6.82976">
        <ele>1407.5</ele>
        <time>2020-08-07T12:21:59Z</time>
      </trkpt>
      <trkpt lat="45.62507" lon="6.82981">
        <ele>1407.8</ele>
        <time>2020-08-07T12:22:01Z</time>
      </trkpt>
      <trkpt lat="45.62507" lon="6.82986">
        <ele>1408</ele>
        <time>2020-08-07T12:22:03Z</time>
      </trkpt>
      <trkpt lat="45.62508" lon="6.82991">
        <ele>1408.2</ele>
        <time>2020-08-07T12:22:04Z</time>
      </trkpt>
      <trkpt lat="45.62508" lon="6.82997">
        <ele>1408.5</ele>
        <time>2020-08-07T12:22:05Z</time>
      </trkpt>
      <trkpt lat="45.62511" lon="6.83011">
        <ele>1409.2</ele>
        <time>2020-08-07T12:22:07Z</time>
      </trkpt>
      <trkpt lat="45.62515" lon="6.83019">
        <ele>1409.6</ele>
        <time>2020-08-07T12:22:09Z</time>
      </trkpt>
      <trkpt lat="45.6252" lon="6.83027">
        <ele>1410</ele>
        <time>2020-08-07T12:22:12Z</time>
      </trkpt>
      <trkpt lat="45.62522" lon="6.8303">
        <ele>1410.1</ele>
        <time>2020-08-07T12:22:13Z</time>
      </trkpt>
      <trkpt lat="45.62525" lon="6.83034">
        <ele>1410.4</ele>
        <time>2020-08-07T12:22:14Z</time>
      </trkpt>
      <trkpt lat="45.62528" lon="6.83038">
        <ele>1410.6</ele>
        <time>2020-08-07T12:22:15Z</time>
      </trkpt>
      <trkpt lat="45.62531" lon="6.83042">
        <ele>1410.9</ele>
        <time>2020-08-07T12:22:17Z</time>
      </trkpt>
      <trkpt lat="45.62538" lon="6.83055">
        <ele>1411.5</ele>
        <time>2020-08-07T12:22:19Z</time>
      </trkpt>
      <trkpt lat="45.6254" lon="6.8306">
        <ele>1411.7</ele>
        <time>2020-08-07T12:22:20Z</time>
      </trkpt>
      <trkpt lat="45.62544" lon="6.83071">
        <ele>1412.1</ele>
        <time>2020-08-07T12:22:23Z</time>
      </trkpt>
      <trkpt lat="45.62547" lon="6.83077">
        <ele>1412.4</ele>
        <time>2020-08-07T12:22:25Z</time>
      </trkpt>
      <trkpt lat="45.62548" lon="6.83082">
        <ele>1412.6</ele>
        <time>2020-08-07T12:22:26Z</time>
      </trkpt>
      <trkpt lat="45.62551" lon="6.83092">
        <ele>1413</ele>
        <time>2020-08-07T12:22:28Z</time>
      </trkpt>
      <trkpt lat="45.62553" lon="6.83096">
        <ele>1413.2</ele>
        <time>2020-08-07T12:22:29Z</time>
      </trkpt>
      <trkpt lat="45.62554" lon="6.831">
        <ele>1413.4</ele>
        <time>2020-08-07T12:22:30Z</time>
      </trkpt>
      <trkpt lat="45.62554" lon="6.83106">
        <ele>1413.6</ele>
        <time>2020-08-07T12:22:31Z</time>
      </trkpt>
      <trkpt lat="45.62555" lon="6.83116">
        <ele>1413.9</ele>
        <time>2020-08-07T12:22:34Z</time>
      </trkpt>
      <trkpt lat="45.62552" lon="6.83127">
        <ele>1414.3</ele>
        <time>2020-08-07T12:22:36Z</time>
      </trkpt>
      <trkpt lat="45.62551" lon="6.83133">
        <ele>1414.5</ele>
        <time>2020-08-07T12:22:37Z</time>
      </trkpt>
      <trkpt lat="45.62548" lon="6.8314">
        <ele>1414.8</ele>
        <time>2020-08-07T12:22:40Z</time>
      </trkpt>
      <trkpt lat="45.62543" lon="6.83147">
        <ele>1415.1</ele>
        <time>2020-08-07T12:22:42Z</time>
      </trkpt>
      <trkpt lat="45.62541" lon="6.8315">
        <ele>1415.3</ele>
        <time>2020-08-07T12:22:43Z</time>
      </trkpt>
      <trkpt lat="45.62536" lon="6.83154">
        <ele>1415.6</ele>
        <time>2020-08-07T12:22:45Z</time>
      </trkpt>
      <trkpt lat="45.6253" lon="6.83158">
        <ele>1415.9</ele>
        <time>2020-08-07T12:22:47Z</time>
      </trkpt>
      <trkpt lat="45.62525" lon="6.83161">
        <ele>1416.2</ele>
        <time>2020-08-07T12:22:49Z</time>
      </trkpt>
      <trkpt lat="45.62519" lon="6.83163">
        <ele>1416.5</ele>
        <time>2020-08-07T12:22:50Z</time>
      </trkpt>
      <trkpt lat="45.62516" lon="6.83166">
        <ele>1416.7</ele>
        <time>2020-08-07T12:22:52Z</time>
      </trkpt>
      <trkpt lat="45.62508" lon="6.83171">
        <ele>1417.2</ele>
        <time>2020-08-07T12:22:53Z</time>
      </trkpt>
      <trkpt lat="45.62502" lon="6.83177">
        <ele>1417.6</ele>
        <time>2020-08-07T12:22:56Z</time>
      </trkpt>
      <trkpt lat="45.625" lon="6.83181">
        <ele>1417.8</ele>
        <time>2020-08-07T12:22:58Z</time>
      </trkpt>
      <trkpt lat="45.62499" lon="6.83188">
        <ele>1418.1</ele>
        <time>2020-08-07T12:22:59Z</time>
      </trkpt>
      <trkpt lat="45.62501" lon="6.83193">
        <ele>1418.3</ele>
        <time>2020-08-07T12:23:00Z</time>
      </trkpt>
      <trkpt lat="45.62506" lon="6.83198">
        <ele>1418.5</ele>
        <time>2020-08-07T12:23:01Z</time>
      </trkpt>
      <trkpt lat="45.6251" lon="6.83201">
        <ele>1418.7</ele>
        <time>2020-08-07T12:23:03Z</time>
      </trkpt>
      <trkpt lat="45.62514" lon="6.83202">
        <ele>1418.8</ele>
        <time>2020-08-07T12:23:05Z</time>
      </trkpt>
      <trkpt lat="45.6252" lon="6.832">
        <ele>1419.1</ele>
        <time>2020-08-07T12:23:06Z</time>
      </trkpt>
      <trkpt lat="45.62529" lon="6.83193">
        <ele>1419.5</ele>
        <time>2020-08-07T12:23:08Z</time>
      </trkpt>
      <trkpt lat="45.62533" lon="6.8319">
        <ele>1419.6</ele>
        <time>2020-08-07T12:23:09Z</time>
      </trkpt>
      <trkpt lat="45.62537" lon="6.83187">
        <ele>1419.8</ele>
        <time>2020-08-07T12:23:10Z</time>
      </trkpt>
      <trkpt lat="45.62542" lon="6.83182">
        <ele>1420.1</ele>
        <time>2020-08-07T12:23:13Z</time>
      </trkpt>
      <trkpt lat="45.6255" lon="6.83175">
        <ele>1420.6</ele>
        <time>2020-08-07T12:23:14Z</time>
      </trkpt>
      <trkpt lat="45.62554" lon="6.83171">
        <ele>1420.8</ele>
        <time>2020-08-07T12:23:17Z</time>
      </trkpt>
      <trkpt lat="45.62557" lon="6.83168">
        <ele>1421</ele>
        <time>2020-08-07T12:23:18Z</time>
      </trkpt>
      <trkpt lat="45.62563" lon="6.83162">
        <ele>1421.4</ele>
        <time>2020-08-07T12:23:19Z</time>
      </trkpt>
      <trkpt lat="45.62566" lon="6.83159">
        <ele>1421.6</ele>
        <time>2020-08-07T12:23:21Z</time>
      </trkpt>
      <trkpt lat="45.62568" lon="6.83156">
        <ele>1421.7</ele>
        <time>2020-08-07T12:23:22Z</time>
      </trkpt>
      <trkpt lat="45.62572" lon="6.8315">
        <ele>1422.1</ele>
        <time>2020-08-07T12:23:23Z</time>
      </trkpt>
      <trkpt lat="45.62575" lon="6.83143">
        <ele>1422.4</ele>
        <time>2020-08-07T12:23:25Z</time>
      </trkpt>
      <trkpt lat="45.62577" lon="6.83135">
        <ele>1422.7</ele>
        <time>2020-08-07T12:23:26Z</time>
      </trkpt>
      <trkpt lat="45.62578" lon="6.8313">
        <ele>1422.9</ele>
        <time>2020-08-07T12:23:28Z</time>
      </trkpt>
      <trkpt lat="45.62579" lon="6.83125">
        <ele>1423.1</ele>
        <time>2020-08-07T12:23:29Z</time>
      </trkpt>
      <trkpt lat="45.62579" lon="6.83116">
        <ele>1423.5</ele>
        <time>2020-08-07T12:23:30Z</time>
      </trkpt>
      <trkpt lat="45.62579" lon="6.83111">
        <ele>1423.7</ele>
        <time>2020-08-07T12:23:31Z</time>
      </trkpt>
      <trkpt lat="45.62578" lon="6.83101">
        <ele>1424.1</ele>
        <time>2020-08-07T12:23:32Z</time>
      </trkpt>
      <trkpt lat="45.62577" lon="6.83094">
        <ele>1424.3</ele>
        <time>2020-08-07T12:23:34Z</time>
      </trkpt>
      <trkpt lat="45.62577" lon="6.83087">
        <ele>1424.6</ele>
        <time>2020-08-07T12:23:36Z</time>
      </trkpt>
      <trkpt lat="45.62576" lon="6.83079">
        <ele>1425</ele>
        <time>2020-08-07T12:23:37Z</time>
      </trkpt>
      <trkpt lat="45.62575" lon="6.83074">
        <ele>1425.2</ele>
        <time>2020-08-07T12:23:38Z</time>
      </trkpt>
      <trkpt lat="45.62574" lon="6.83066">
        <ele>1425.5</ele>
        <time>2020-08-07T12:23:40Z</time>
      </trkpt>
      <trkpt lat="45.62574" lon="6.83061">
        <ele>1425.8</ele>
        <time>2020-08-07T12:23:41Z</time>
      </trkpt>
      <trkpt lat="45.62573" lon="6.83055">
        <ele>1426</ele>
        <time>2020-08-07T12:23:42Z</time>
      </trkpt>
      <trkpt lat="45.62572" lon="6.8305">
        <ele>1426.3</ele>
        <time>2020-08-07T12:23:43Z</time>
      </trkpt>
      <trkpt lat="45.62572" lon="6.83045">
        <ele>1426.5</ele>
        <time>2020-08-07T12:23:44Z</time>
      </trkpt>
      <trkpt lat="45.62571" lon="6.8304">
        <ele>1426.7</ele>
        <time>2020-08-07T12:23:45Z</time>
      </trkpt>
      <trkpt lat="45.6257" lon="6.83026">
        <ele>1427.3</ele>
        <time>2020-08-07T12:23:48Z</time>
      </trkpt>
      <trkpt lat="45.62569" lon="6.83019">
        <ele>1427.6</ele>
        <time>2020-08-07T12:23:51Z</time>
      </trkpt>
      <trkpt lat="45.62568" lon="6.83011">
        <ele>1428</ele>
        <time>2020-08-07T12:23:53Z</time>
      </trkpt>
      <trkpt lat="45.62568" lon="6.83006">
        <ele>1428.2</ele>
        <time>2020-08-07T12:23:54Z</time>
      </trkpt>
      <trkpt lat="45.62567" lon="6.82999">
        <ele>1428.5</ele>
        <time>2020-08-07T12:23:55Z</time>
      </trkpt>
      <trkpt lat="45.62567" lon="6.82994">
        <ele>1428.8</ele>
        <time>2020-08-07T12:23:56Z</time>
      </trkpt>
      <trkpt lat="45.62567" lon="6.8299">
        <ele>1429</ele>
        <time>2020-08-07T12:23:58Z</time>
      </trkpt>
      <trkpt lat="45.62567" lon="6.82985">
        <ele>1429.2</ele>
        <time>2020-08-07T12:23:59Z</time>
      </trkpt>
      <trkpt lat="45.62567" lon="6.82975">
        <ele>1429.6</ele>
        <time>2020-08-07T12:24:00Z</time>
      </trkpt>
      <trkpt lat="45.62567" lon="6.82969">
        <ele>1429.9</ele>
        <time>2020-08-07T12:24:01Z</time>
      </trkpt>
      <trkpt lat="45.62568" lon="6.82962">
        <ele>1430.2</ele>
        <time>2020-08-07T12:24:03Z</time>
      </trkpt>
      <trkpt lat="45.62568" lon="6.82956">
        <ele>1430.5</ele>
        <time>2020-08-07T12:24:05Z</time>
      </trkpt>
      <trkpt lat="45.62569" lon="6.8295">
        <ele>1430.9</ele>
        <time>2020-08-07T12:24:06Z</time>
      </trkpt>
      <trkpt lat="45.62569" lon="6.82945">
        <ele>1431.1</ele>
        <time>2020-08-07T12:24:07Z</time>
      </trkpt>
      <trkpt lat="45.6257" lon="6.8294">
        <ele>1431.4</ele>
        <time>2020-08-07T12:24:08Z</time>
      </trkpt>
      <trkpt lat="45.62573" lon="6.8293">
        <ele>1431.9</ele>
        <time>2020-08-07T12:24:10Z</time>
      </trkpt>
      <trkpt lat="45.62574" lon="6.82924">
        <ele>1432.2</ele>
        <time>2020-08-07T12:24:11Z</time>
      </trkpt>
      <trkpt lat="45.62576" lon="6.8292">
        <ele>1432.5</ele>
        <time>2020-08-07T12:24:12Z</time>
      </trkpt>
      <trkpt lat="45.62578" lon="6.82913">
        <ele>1432.9</ele>
        <time>2020-08-07T12:24:15Z</time>
      </trkpt>
      <trkpt lat="45.62578" lon="6.82909">
        <ele>1433.1</ele>
        <time>2020-08-07T12:24:16Z</time>
      </trkpt>
      <trkpt lat="45.6258" lon="6.82902">
        <ele>1433.5</ele>
        <time>2020-08-07T12:24:18Z</time>
      </trkpt>
      <trkpt lat="45.62581" lon="6.82894">
        <ele>1433.9</ele>
        <time>2020-08-07T12:24:20Z</time>
      </trkpt>
      <trkpt lat="45.6258" lon="6.82886">
        <ele>1434.2</ele>
        <time>2020-08-07T12:24:22Z</time>
      </trkpt>
      <trkpt lat="45.6258" lon="6.82877">
        <ele>1434.6</ele>
        <time>2020-08-07T12:24:23Z</time>
      </trkpt>
      <trkpt lat="45.62579" lon="6.8287">
        <ele>1435</ele>
        <time>2020-08-07T12:24:25Z</time>
      </trkpt>
      <trkpt lat="45.62578" lon="6.82864">
        <ele>1435.2</ele>
        <time>2020-08-07T12:24:27Z</time>
      </trkpt>
      <trkpt lat="45.62576" lon="6.82856">
        <ele>1435.6</ele>
        <time>2020-08-07T12:24:29Z</time>
      </trkpt>
      <trkpt lat="45.62575" lon="6.82852">
        <ele>1435.8</ele>
        <time>2020-08-07T12:24:30Z</time>
      </trkpt>
      <trkpt lat="45.62573" lon="6.82844">
        <ele>1436.1</ele>
        <time>2020-08-07T12:24:32Z</time>
      </trkpt>
      <trkpt lat="45.62572" lon="6.8284">
        <ele>1436.3</ele>
        <time>2020-08-07T12:24:33Z</time>
      </trkpt>
      <trkpt lat="45.62571" lon="6.82832">
        <ele>1436.7</ele>
        <time>2020-08-07T12:24:34Z</time>
      </trkpt>
      <trkpt lat="45.6257" lon="6.82826">
        <ele>1436.9</ele>
        <time>2020-08-07T12:24:36Z</time>
      </trkpt>
      <trkpt lat="45.6257" lon="6.82824">
        <ele>1437.1</ele>
        <time>2020-08-07T12:24:37Z</time>
      </trkpt>
      <trkpt lat="45.62569" lon="6.82811">
        <ele>1437.7</ele>
        <time>2020-08-07T12:24:39Z</time>
      </trkpt>
      <trkpt lat="45.62568" lon="6.82806">
        <ele>1437.9</ele>
        <time>2020-08-07T12:24:41Z</time>
      </trkpt>
      <trkpt lat="45.62568" lon="6.82796">
        <ele>1438.4</ele>
        <time>2020-08-07T12:24:43Z</time>
      </trkpt>
      <trkpt lat="45.62569" lon="6.8279">
        <ele>1438.7</ele>
        <time>2020-08-07T12:24:45Z</time>
      </trkpt>
      <trkpt lat="45.6257" lon="6.8278">
        <ele>1439.1</ele>
        <time>2020-08-07T12:24:47Z</time>
      </trkpt>
      <trkpt lat="45.62572" lon="6.82776">
        <ele>1439.3</ele>
        <time>2020-08-07T12:24:48Z</time>
      </trkpt>
      <trkpt lat="45.62574" lon="6.8277">
        <ele>1439.6</ele>
        <time>2020-08-07T12:24:50Z</time>
      </trkpt>
      <trkpt lat="45.62578" lon="6.8276">
        <ele>1440.1</ele>
        <time>2020-08-07T12:24:52Z</time>
      </trkpt>
      <trkpt lat="45.62583" lon="6.82749">
        <ele>1440.7</ele>
        <time>2020-08-07T12:24:55Z</time>
      </trkpt>
      <trkpt lat="45.62586" lon="6.82745">
        <ele>1441</ele>
        <time>2020-08-07T12:24:58Z</time>
      </trkpt>
      <trkpt lat="45.62589" lon="6.82741">
        <ele>1441.3</ele>
        <time>2020-08-07T12:24:59Z</time>
      </trkpt>
      <trkpt lat="45.62595" lon="6.82735">
        <ele>1441.7</ele>
        <time>2020-08-07T12:25:01Z</time>
      </trkpt>
      <trkpt lat="45.62599" lon="6.82731">
        <ele>1442</ele>
        <time>2020-08-07T12:25:02Z</time>
      </trkpt>
      <trkpt lat="45.62602" lon="6.82728">
        <ele>1442.3</ele>
        <time>2020-08-07T12:25:04Z</time>
      </trkpt>
      <trkpt lat="45.62607" lon="6.82724">
        <ele>1442.7</ele>
        <time>2020-08-07T12:25:06Z</time>
      </trkpt>
      <trkpt lat="45.62612" lon="6.8272">
        <ele>1443.1</ele>
        <time>2020-08-07T12:25:08Z</time>
      </trkpt>
      <trkpt lat="45.62618" lon="6.82715">
        <ele>1443.6</ele>
        <time>2020-08-07T12:25:09Z</time>
      </trkpt>
      <trkpt lat="45.62621" lon="6.82713">
        <ele>1443.8</ele>
        <time>2020-08-07T12:25:10Z</time>
      </trkpt>
      <trkpt lat="45.62625" lon="6.8271">
        <ele>1444.1</ele>
        <time>2020-08-07T12:25:13Z</time>
      </trkpt>
      <trkpt lat="45.6263" lon="6.82708">
        <ele>1444.4</ele>
        <time>2020-08-07T12:25:14Z</time>
      </trkpt>
      <trkpt lat="45.62638" lon="6.82703">
        <ele>1445</ele>
        <time>2020-08-07T12:25:16Z</time>
      </trkpt>
      <trkpt lat="45.62642" lon="6.82702">
        <ele>1445.2</ele>
        <time>2020-08-07T12:25:18Z</time>
      </trkpt>
      <trkpt lat="45.62647" lon="6.82701">
        <ele>1445.6</ele>
        <time>2020-08-07T12:25:20Z</time>
      </trkpt>
      <trkpt lat="45.62649" lon="6.82701">
        <ele>1445.7</ele>
        <time>2020-08-07T12:25:21Z</time>
      </trkpt>
      <trkpt lat="45.62652" lon="6.82701">
        <ele>1445.9</ele>
        <time>2020-08-07T12:25:22Z</time>
      </trkpt>
      <trkpt lat="45.62658" lon="6.827">
        <ele>1446.3</ele>
        <time>2020-08-07T12:25:24Z</time>
      </trkpt>
      <trkpt lat="45.62661" lon="6.827">
        <ele>1446.5</ele>
        <time>2020-08-07T12:25:25Z</time>
      </trkpt>
      <trkpt lat="45.62666" lon="6.827">
        <ele>1446.8</ele>
        <time>2020-08-07T12:25:26Z</time>
      </trkpt>
      <trkpt lat="45.6267" lon="6.827">
        <ele>1447.1</ele>
        <time>2020-08-07T12:25:29Z</time>
      </trkpt>
      <trkpt lat="45.62681" lon="6.82699">
        <ele>1447.8</ele>
        <time>2020-08-07T12:25:31Z</time>
      </trkpt>
      <trkpt lat="45.62686" lon="6.82699">
        <ele>1448.1</ele>
        <time>2020-08-07T12:25:33Z</time>
      </trkpt>
      <trkpt lat="45.62689" lon="6.82698">
        <ele>1448.3</ele>
        <time>2020-08-07T12:25:35Z</time>
      </trkpt>
      <trkpt lat="45.62692" lon="6.82698">
        <ele>1448.6</ele>
        <time>2020-08-07T12:25:36Z</time>
      </trkpt>
      <trkpt lat="45.62699" lon="6.82696">
        <ele>1449</ele>
        <time>2020-08-07T12:25:38Z</time>
      </trkpt>
      <trkpt lat="45.62702" lon="6.82695">
        <ele>1449.2</ele>
        <time>2020-08-07T12:25:39Z</time>
      </trkpt>
      <trkpt lat="45.62707" lon="6.82692">
        <ele>1449.6</ele>
        <time>2020-08-07T12:25:41Z</time>
      </trkpt>
      <trkpt lat="45.62712" lon="6.8269">
        <ele>1449.9</ele>
        <time>2020-08-07T12:25:42Z</time>
      </trkpt>
      <trkpt lat="45.62715" lon="6.82687">
        <ele>1450.2</ele>
        <time>2020-08-07T12:25:44Z</time>
      </trkpt>
      <trkpt lat="45.6272" lon="6.82683">
        <ele>1450.5</ele>
        <time>2020-08-07T12:25:46Z</time>
      </trkpt>
      <trkpt lat="45.62726" lon="6.82679">
        <ele>1451</ele>
        <time>2020-08-07T12:25:47Z</time>
      </trkpt>
      <trkpt lat="45.62729" lon="6.82676">
        <ele>1451.2</ele>
        <time>2020-08-07T12:25:49Z</time>
      </trkpt>
      <trkpt lat="45.62735" lon="6.82672">
        <ele>1451.7</ele>
        <time>2020-08-07T12:25:50Z</time>
      </trkpt>
      <trkpt lat="45.62739" lon="6.8267">
        <ele>1451.9</ele>
        <time>2020-08-07T12:25:51Z</time>
      </trkpt>
      <trkpt lat="45.62742" lon="6.82669">
        <ele>1452.2</ele>
        <time>2020-08-07T12:25:52Z</time>
      </trkpt>
      <trkpt lat="45.62746" lon="6.82668">
        <ele>1452.4</ele>
        <time>2020-08-07T12:25:54Z</time>
      </trkpt>
      <trkpt lat="45.62749" lon="6.82669">
        <ele>1452.6</ele>
        <time>2020-08-07T12:25:55Z</time>
      </trkpt>
      <trkpt lat="45.62752" lon="6.82669">
        <ele>1452.8</ele>
        <time>2020-08-07T12:25:57Z</time>
      </trkpt>
      <trkpt lat="45.62755" lon="6.8267">
        <ele>1453</ele>
        <time>2020-08-07T12:25:58Z</time>
      </trkpt>
      <trkpt lat="45.62759" lon="6.82671">
        <ele>1453.3</ele>
        <time>2020-08-07T12:25:59Z</time>
      </trkpt>
      <trkpt lat="45.62767" lon="6.82673">
        <ele>1453.9</ele>
        <time>2020-08-07T12:26:01Z</time>
      </trkpt>
      <trkpt lat="45.62771" lon="6.82674">
        <ele>1454.1</ele>
        <time>2020-08-07T12:26:02Z</time>
      </trkpt>
      <trkpt lat="45.62775" lon="6.82675">
        <ele>1454.4</ele>
        <time>2020-08-07T12:26:05Z</time>
      </trkpt>
      <trkpt lat="45.62778" lon="6.82675">
        <ele>1454.6</ele>
        <time>2020-08-07T12:26:06Z</time>
      </trkpt>
      <trkpt lat="45.62785" lon="6.82677">
        <ele>1455</ele>
        <time>2020-08-07T12:26:08Z</time>
      </trkpt>
      <trkpt lat="45.62792" lon="6.82678">
        <ele>1455.4</ele>
        <time>2020-08-07T12:26:10Z</time>
      </trkpt>
      <trkpt lat="45.62804" lon="6.82681">
        <ele>1456.2</ele>
        <time>2020-08-07T12:26:12Z</time>
      </trkpt>
      <trkpt lat="45.6281" lon="6.82683">
        <ele>1456.4</ele>
        <time>2020-08-07T12:26:15Z</time>
      </trkpt>
      <trkpt lat="45.62813" lon="6.82685">
        <ele>1456.6</ele>
        <time>2020-08-07T12:26:16Z</time>
      </trkpt>
      <trkpt lat="45.62816" lon="6.82695">
        <ele>1456.7</ele>
        <time>2020-08-07T12:26:17Z</time>
      </trkpt>
      <trkpt lat="45.62816" lon="6.82701">
        <ele>1456.9</ele>
        <time>2020-08-07T12:26:18Z</time>
      </trkpt>
      <trkpt lat="45.62813" lon="6.82705">
        <ele>1457</ele>
        <time>2020-08-07T12:26:20Z</time>
      </trkpt>
      <trkpt lat="45.62804" lon="6.82707">
        <ele>1457.1</ele>
        <time>2020-08-07T12:26:21Z</time>
      </trkpt>
      <trkpt lat="45.628" lon="6.82706">
        <ele>1457.2</ele>
        <time>2020-08-07T12:26:22Z</time>
      </trkpt>
      <trkpt lat="45.62794" lon="6.82703">
        <ele>1457.3</ele>
        <time>2020-08-07T12:26:25Z</time>
      </trkpt>
      <trkpt lat="45.62785" lon="6.82698">
        <ele>1457.4</ele>
        <time>2020-08-07T12:26:26Z</time>
      </trkpt>
      <trkpt lat="45.6278" lon="6.82696">
        <ele>1457.6</ele>
        <time>2020-08-07T12:26:28Z</time>
      </trkpt>
      <trkpt lat="45.62775" lon="6.82693">
        <ele>1457.7</ele>
        <time>2020-08-07T12:26:30Z</time>
      </trkpt>
      <trkpt lat="45.62767" lon="6.82692">
        <ele>1458</ele>
        <time>2020-08-07T12:26:32Z</time>
      </trkpt>
      <trkpt lat="45.6276" lon="6.82691">
        <ele>1458.2</ele>
        <time>2020-08-07T12:26:33Z</time>
      </trkpt>
      <trkpt lat="45.62753" lon="6.82692">
        <ele>1458.4</ele>
        <time>2020-08-07T12:26:35Z</time>
      </trkpt>
      <trkpt lat="45.62742" lon="6.82698">
        <ele>1458.7</ele>
        <time>2020-08-07T12:26:37Z</time>
      </trkpt>
      <trkpt lat="45.62737" lon="6.82703">
        <ele>1458.9</ele>
        <time>2020-08-07T12:26:40Z</time>
      </trkpt>
      <trkpt lat="45.62733" lon="6.82707">
        <ele>1459</ele>
        <time>2020-08-07T12:26:41Z</time>
      </trkpt>
      <trkpt lat="45.62727" lon="6.82718">
        <ele>1459.4</ele>
        <time>2020-08-07T12:26:43Z</time>
      </trkpt>
      <trkpt lat="45.62724" lon="6.82724">
        <ele>1459.6</ele>
        <time>2020-08-07T12:26:44Z</time>
      </trkpt>
      <trkpt lat="45.6272" lon="6.8273">
        <ele>1459.9</ele>
        <time>2020-08-07T12:26:45Z</time>
      </trkpt>
      <trkpt lat="45.62712" lon="6.82744">
        <ele>1460.4</ele>
        <time>2020-08-07T12:26:47Z</time>
      </trkpt>
      <trkpt lat="45.62705" lon="6.82751">
        <ele>1460.8</ele>
        <time>2020-08-07T12:26:50Z</time>
      </trkpt>
      <trkpt lat="45.62698" lon="6.82755">
        <ele>1461.1</ele>
        <time>2020-08-07T12:26:52Z</time>
      </trkpt>
      <trkpt lat="45.62694" lon="6.82756">
        <ele>1461.2</ele>
        <time>2020-08-07T12:26:53Z</time>
      </trkpt>
      <trkpt lat="45.62687" lon="6.8276">
        <ele>1461.6</ele>
        <time>2020-08-07T12:26:55Z</time>
      </trkpt>
      <trkpt lat="45.62681" lon="6.82762">
        <ele>1461.8</ele>
        <time>2020-08-07T12:26:56Z</time>
      </trkpt>
      <trkpt lat="45.62675" lon="6.82765">
        <ele>1462.1</ele>
        <time>2020-08-07T12:26:59Z</time>
      </trkpt>
      <trkpt lat="45.62671" lon="6.82767">
        <ele>1462.2</ele>
        <time>2020-08-07T12:27:00Z</time>
      </trkpt>
      <trkpt lat="45.62663" lon="6.8277">
        <ele>1462.5</ele>
        <time>2020-08-07T12:27:01Z</time>
      </trkpt>
      <trkpt lat="45.62658" lon="6.82772">
        <ele>1462.7</ele>
        <time>2020-08-07T12:27:03Z</time>
      </trkpt>
      <trkpt lat="45.62653" lon="6.82775">
        <ele>1462.9</ele>
        <time>2020-08-07T12:27:04Z</time>
      </trkpt>
      <trkpt lat="45.62649" lon="6.82778">
        <ele>1463</ele>
        <time>2020-08-07T12:27:05Z</time>
      </trkpt>
      <trkpt lat="45.62643" lon="6.82783">
        <ele>1463.3</ele>
        <time>2020-08-07T12:27:08Z</time>
      </trkpt>
      <trkpt lat="45.62636" lon="6.82789">
        <ele>1463.5</ele>
        <time>2020-08-07T12:27:09Z</time>
      </trkpt>
      <trkpt lat="45.62632" lon="6.82798">
        <ele>1463.8</ele>
        <time>2020-08-07T12:27:10Z</time>
      </trkpt>
      <trkpt lat="45.6263" lon="6.8281">
        <ele>1464</ele>
        <time>2020-08-07T12:27:12Z</time>
      </trkpt>
      <trkpt lat="45.6263" lon="6.82819">
        <ele>1464.2</ele>
        <time>2020-08-07T12:27:14Z</time>
      </trkpt>
      <trkpt lat="45.62633" lon="6.8283">
        <ele>1464.5</ele>
        <time>2020-08-07T12:27:16Z</time>
      </trkpt>
      <trkpt lat="45.62638" lon="6.82843">
        <ele>1464.8</ele>
        <time>2020-08-07T12:27:18Z</time>
      </trkpt>
      <trkpt lat="45.62641" lon="6.8285">
        <ele>1465</ele>
        <time>2020-08-07T12:27:19Z</time>
      </trkpt>
      <trkpt lat="45.62643" lon="6.82856">
        <ele>1465.2</ele>
        <time>2020-08-07T12:27:20Z</time>
      </trkpt>
      <trkpt lat="45.62648" lon="6.82867">
        <ele>1465.5</ele>
        <time>2020-08-07T12:27:22Z</time>
      </trkpt>
      <trkpt lat="45.62647" lon="6.82874">
        <ele>1465.7</ele>
        <time>2020-08-07T12:27:24Z</time>
      </trkpt>
      <trkpt lat="45.62655" lon="6.82886">
        <ele>1466.1</ele>
        <time>2020-08-07T12:27:25Z</time>
      </trkpt>
      <trkpt lat="45.62659" lon="6.82893">
        <ele>1466.3</ele>
        <time>2020-08-07T12:27:27Z</time>
      </trkpt>
      <trkpt lat="45.62663" lon="6.82906">
        <ele>1466.6</ele>
        <time>2020-08-07T12:27:29Z</time>
      </trkpt>
      <trkpt lat="45.62665" lon="6.82912">
        <ele>1466.8</ele>
        <time>2020-08-07T12:27:30Z</time>
      </trkpt>
      <trkpt lat="45.62668" lon="6.82919">
        <ele>1466.9</ele>
        <time>2020-08-07T12:27:33Z</time>
      </trkpt>
      <trkpt lat="45.6267" lon="6.82925">
        <ele>1467.1</ele>
        <time>2020-08-07T12:27:34Z</time>
      </trkpt>
      <trkpt lat="45.62674" lon="6.82934">
        <ele>1467.3</ele>
        <time>2020-08-07T12:27:36Z</time>
      </trkpt>
      <trkpt lat="45.62678" lon="6.82945">
        <ele>1467.6</ele>
        <time>2020-08-07T12:27:38Z</time>
      </trkpt>
      <trkpt lat="45.62682" lon="6.82955">
        <ele>1467.9</ele>
        <time>2020-08-07T12:27:39Z</time>
      </trkpt>
      <trkpt lat="45.62685" lon="6.82962">
        <ele>1468.1</ele>
        <time>2020-08-07T12:27:40Z</time>
      </trkpt>
      <trkpt lat="45.62688" lon="6.82969">
        <ele>1468.2</ele>
        <time>2020-08-07T12:27:42Z</time>
      </trkpt>
      <trkpt lat="45.62692" lon="6.82978">
        <ele>1468.5</ele>
        <time>2020-08-07T12:27:43Z</time>
      </trkpt>
      <trkpt lat="45.62694" lon="6.82985">
        <ele>1468.7</ele>
        <time>2020-08-07T12:27:46Z</time>
      </trkpt>
      <trkpt lat="45.62696" lon="6.8299">
        <ele>1468.8</ele>
        <time>2020-08-07T12:27:47Z</time>
      </trkpt>
      <trkpt lat="45.627" lon="6.83003">
        <ele>1469.1</ele>
        <time>2020-08-07T12:27:48Z</time>
      </trkpt>
      <trkpt lat="45.62703" lon="6.83012">
        <ele>1469.4</ele>
        <time>2020-08-07T12:27:51Z</time>
      </trkpt>
      <trkpt lat="45.62705" lon="6.83029">
        <ele>1469.9</ele>
        <time>2020-08-07T12:27:53Z</time>
      </trkpt>
      <trkpt lat="45.62706" lon="6.83037">
        <ele>1470.1</ele>
        <time>2020-08-07T12:27:54Z</time>
      </trkpt>
      <trkpt lat="45.62705" lon="6.83044">
        <ele>1470.3</ele>
        <time>2020-08-07T12:27:56Z</time>
      </trkpt>
      <trkpt lat="45.62704" lon="6.83049">
        <ele>1470.4</ele>
        <time>2020-08-07T12:27:58Z</time>
      </trkpt>
      <trkpt lat="45.62703" lon="6.83054">
        <ele>1470.6</ele>
        <time>2020-08-07T12:27:59Z</time>
      </trkpt>
      <trkpt lat="45.627" lon="6.83063">
        <ele>1470.8</ele>
        <time>2020-08-07T12:28:00Z</time>
      </trkpt>
      <trkpt lat="45.62699" lon="6.83069">
        <ele>1471</ele>
        <time>2020-08-07T12:28:01Z</time>
      </trkpt>
      <trkpt lat="45.62696" lon="6.83077">
        <ele>1471.3</ele>
        <time>2020-08-07T12:28:03Z</time>
      </trkpt>
      <trkpt lat="45.62694" lon="6.83082">
        <ele>1471.4</ele>
        <time>2020-08-07T12:28:05Z</time>
      </trkpt>
      <trkpt lat="45.62691" lon="6.83096">
        <ele>1471.9</ele>
        <time>2020-08-07T12:28:06Z</time>
      </trkpt>
      <trkpt lat="45.62689" lon="6.83102">
        <ele>1472.1</ele>
        <time>2020-08-07T12:28:07Z</time>
      </trkpt>
      <trkpt lat="45.62688" lon="6.83108">
        <ele>1472.3</ele>
        <time>2020-08-07T12:28:09Z</time>
      </trkpt>
      <trkpt lat="45.62686" lon="6.83121">
        <ele>1472.7</ele>
        <time>2020-08-07T12:28:11Z</time>
      </trkpt>
      <trkpt lat="45.62686" lon="6.83127">
        <ele>1472.9</ele>
        <time>2020-08-07T12:28:12Z</time>
      </trkpt>
      <trkpt lat="45.62684" lon="6.83144">
        <ele>1473.4</ele>
        <time>2020-08-07T12:28:15Z</time>
      </trkpt>
      <trkpt lat="45.62684" lon="6.8315">
        <ele>1473.5</ele>
        <time>2020-08-07T12:28:17Z</time>
      </trkpt>
      <trkpt lat="45.62683" lon="6.83154">
        <ele>1473.7</ele>
        <time>2020-08-07T12:28:18Z</time>
      </trkpt>
      <trkpt lat="45.62682" lon="6.8316">
        <ele>1473.8</ele>
        <time>2020-08-07T12:28:19Z</time>
      </trkpt>
      <trkpt lat="45.62681" lon="6.83165">
        <ele>1474</ele>
        <time>2020-08-07T12:28:20Z</time>
      </trkpt>
      <trkpt lat="45.6268" lon="6.8317">
        <ele>1474.1</ele>
        <time>2020-08-07T12:28:21Z</time>
      </trkpt>
      <trkpt lat="45.62679" lon="6.83175">
        <ele>1474.3</ele>
        <time>2020-08-07T12:28:22Z</time>
      </trkpt>
      <trkpt lat="45.62677" lon="6.83179">
        <ele>1474.4</ele>
        <time>2020-08-07T12:28:23Z</time>
      </trkpt>
      <trkpt lat="45.62676" lon="6.83184">
        <ele>1474.6</ele>
        <time>2020-08-07T12:28:24Z</time>
      </trkpt>
      <trkpt lat="45.62674" lon="6.83191">
        <ele>1474.9</ele>
        <time>2020-08-07T12:28:25Z</time>
      </trkpt>
      <trkpt lat="45.62669" lon="6.83205">
        <ele>1475.4</ele>
        <time>2020-08-07T12:28:28Z</time>
      </trkpt>
      <trkpt lat="45.62666" lon="6.83211">
        <ele>1475.6</ele>
        <time>2020-08-07T12:28:31Z</time>
      </trkpt>
      <trkpt lat="45.62663" lon="6.83216">
        <ele>1475.8</ele>
        <time>2020-08-07T12:28:32Z</time>
      </trkpt>
      <trkpt lat="45.62659" lon="6.83225">
        <ele>1476.2</ele>
        <time>2020-08-07T12:28:34Z</time>
      </trkpt>
      <trkpt lat="45.62657" lon="6.8323">
        <ele>1476.4</ele>
        <time>2020-08-07T12:28:35Z</time>
      </trkpt>
      <trkpt lat="45.62654" lon="6.83238">
        <ele>1476.7</ele>
        <time>2020-08-07T12:28:36Z</time>
      </trkpt>
      <trkpt lat="45.6265" lon="6.83247">
        <ele>1477</ele>
        <time>2020-08-07T12:28:38Z</time>
      </trkpt>
      <trkpt lat="45.62649" lon="6.83251">
        <ele>1477.1</ele>
        <time>2020-08-07T12:28:39Z</time>
      </trkpt>
      <trkpt lat="45.62647" lon="6.83255">
        <ele>1477.2</ele>
        <time>2020-08-07T12:28:40Z</time>
      </trkpt>
      <trkpt lat="45.62646" lon="6.8326">
        <ele>1477.3</ele>
        <time>2020-08-07T12:28:42Z</time>
      </trkpt>
      <trkpt lat="45.62644" lon="6.83264">
        <ele>1477.5</ele>
        <time>2020-08-07T12:28:43Z</time>
      </trkpt>
      <trkpt lat="45.62642" lon="6.83269">
        <ele>1477.6</ele>
        <time>2020-08-07T12:28:45Z</time>
      </trkpt>
      <trkpt lat="45.62641" lon="6.83273">
        <ele>1477.7</ele>
        <time>2020-08-07T12:28:46Z</time>
      </trkpt>
      <trkpt lat="45.62639" lon="6.83283">
        <ele>1478</ele>
        <time>2020-08-07T12:28:47Z</time>
      </trkpt>
      <trkpt lat="45.62638" lon="6.83288">
        <ele>1478.2</ele>
        <time>2020-08-07T12:28:48Z</time>
      </trkpt>
      <trkpt lat="45.62637" lon="6.83293">
        <ele>1478.3</ele>
        <time>2020-08-07T12:28:50Z</time>
      </trkpt>
      <trkpt lat="45.62636" lon="6.833">
        <ele>1478.5</ele>
        <time>2020-08-07T12:28:52Z</time>
      </trkpt>
      <trkpt lat="45.62633" lon="6.83306">
        <ele>1478.7</ele>
        <time>2020-08-07T12:28:53Z</time>
      </trkpt>
      <trkpt lat="45.62632" lon="6.83311">
        <ele>1478.8</ele>
        <time>2020-08-07T12:28:55Z</time>
      </trkpt>
      <trkpt lat="45.62628" lon="6.83319">
        <ele>1479.1</ele>
        <time>2020-08-07T12:28:57Z</time>
      </trkpt>
      <trkpt lat="45.62623" lon="6.83325">
        <ele>1479.3</ele>
        <time>2020-08-07T12:28:59Z</time>
      </trkpt>
      <trkpt lat="45.62619" lon="6.83332">
        <ele>1479.5</ele>
        <time>2020-08-07T12:29:01Z</time>
      </trkpt>
      <trkpt lat="45.62616" lon="6.83334">
        <ele>1479.6</ele>
        <time>2020-08-07T12:29:02Z</time>
      </trkpt>
      <trkpt lat="45.62608" lon="6.83343">
        <ele>1480</ele>
        <time>2020-08-07T12:29:04Z</time>
      </trkpt>
      <trkpt lat="45.62605" lon="6.83345">
        <ele>1480.2</ele>
        <time>2020-08-07T12:29:05Z</time>
      </trkpt>
      <trkpt lat="45.626" lon="6.83349">
        <ele>1480.4</ele>
        <time>2020-08-07T12:29:08Z</time>
      </trkpt>
      <trkpt lat="45.62596" lon="6.83353">
        <ele>1480.7</ele>
        <time>2020-08-07T12:29:10Z</time>
      </trkpt>
      <trkpt lat="45.62593" lon="6.83355">
        <ele>1480.9</ele>
        <time>2020-08-07T12:29:11Z</time>
      </trkpt>
      <trkpt lat="45.62588" lon="6.83359">
        <ele>1481.1</ele>
        <time>2020-08-07T12:29:12Z</time>
      </trkpt>
      <trkpt lat="45.62585" lon="6.83362">
        <ele>1481.3</ele>
        <time>2020-08-07T12:29:14Z</time>
      </trkpt>
      <trkpt lat="45.62581" lon="6.8337">
        <ele>1481.6</ele>
        <time>2020-08-07T12:29:16Z</time>
      </trkpt>
      <trkpt lat="45.62578" lon="6.83381">
        <ele>1481.9</ele>
        <time>2020-08-07T12:29:17Z</time>
      </trkpt>
      <trkpt lat="45.62577" lon="6.83388">
        <ele>1482.1</ele>
        <time>2020-08-07T12:29:19Z</time>
      </trkpt>
      <trkpt lat="45.62575" lon="6.83402">
        <ele>1482.5</ele>
        <time>2020-08-07T12:29:21Z</time>
      </trkpt>
      <trkpt lat="45.62574" lon="6.83407">
        <ele>1482.7</ele>
        <time>2020-08-07T12:29:23Z</time>
      </trkpt>
      <trkpt lat="45.62574" lon="6.83412">
        <ele>1482.8</ele>
        <time>2020-08-07T12:29:24Z</time>
      </trkpt>
      <trkpt lat="45.62573" lon="6.83422">
        <ele>1483.1</ele>
        <time>2020-08-07T12:29:26Z</time>
      </trkpt>
      <trkpt lat="45.6257" lon="6.83439">
        <ele>1483.6</ele>
        <time>2020-08-07T12:29:29Z</time>
      </trkpt>
      <trkpt lat="45.62569" lon="6.83444">
        <ele>1483.7</ele>
        <time>2020-08-07T12:29:31Z</time>
      </trkpt>
      <trkpt lat="45.62568" lon="6.83448">
        <ele>1483.9</ele>
        <time>2020-08-07T12:29:32Z</time>
      </trkpt>
      <trkpt lat="45.62568" lon="6.83453">
        <ele>1484</ele>
        <time>2020-08-07T12:29:33Z</time>
      </trkpt>
      <trkpt lat="45.62565" lon="6.83464">
        <ele>1484.3</ele>
        <time>2020-08-07T12:29:35Z</time>
      </trkpt>
      <trkpt lat="45.62564" lon="6.83469">
        <ele>1484.5</ele>
        <time>2020-08-07T12:29:36Z</time>
      </trkpt>
      <trkpt lat="45.62562" lon="6.83473">
        <ele>1484.6</ele>
        <time>2020-08-07T12:29:37Z</time>
      </trkpt>
      <trkpt lat="45.6256" lon="6.83477">
        <ele>1484.8</ele>
        <time>2020-08-07T12:29:39Z</time>
      </trkpt>
      <trkpt lat="45.62557" lon="6.8348">
        <ele>1484.9</ele>
        <time>2020-08-07T12:29:40Z</time>
      </trkpt>
      <trkpt lat="45.62554" lon="6.83483">
        <ele>1485</ele>
        <time>2020-08-07T12:29:42Z</time>
      </trkpt>
      <trkpt lat="45.62549" lon="6.83488">
        <ele>1485.3</ele>
        <time>2020-08-07T12:29:44Z</time>
      </trkpt>
      <trkpt lat="45.62546" lon="6.83492">
        <ele>1485.4</ele>
        <time>2020-08-07T12:29:45Z</time>
      </trkpt>
      <trkpt lat="45.62539" lon="6.83499">
        <ele>1485.8</ele>
        <time>2020-08-07T12:29:46Z</time>
      </trkpt>
      <trkpt lat="45.62535" lon="6.83503">
        <ele>1486</ele>
        <time>2020-08-07T12:29:49Z</time>
      </trkpt>
      <trkpt lat="45.62529" lon="6.83509">
        <ele>1486.3</ele>
        <time>2020-08-07T12:29:51Z</time>
      </trkpt>
      <trkpt lat="45.62524" lon="6.83513">
        <ele>1486.5</ele>
        <time>2020-08-07T12:29:53Z</time>
      </trkpt>
      <trkpt lat="45.62519" lon="6.83518">
        <ele>1486.8</ele>
        <time>2020-08-07T12:29:55Z</time>
      </trkpt>
      <trkpt lat="45.6251" lon="6.83526">
        <ele>1487.3</ele>
        <time>2020-08-07T12:29:57Z</time>
      </trkpt>
      <trkpt lat="45.62506" lon="6.8353">
        <ele>1487.5</ele>
        <time>2020-08-07T12:29:58Z</time>
      </trkpt>
      <trkpt lat="45.62498" lon="6.83536">
        <ele>1487.9</ele>
        <time>2020-08-07T12:30:01Z</time>
      </trkpt>
      <trkpt lat="45.62493" lon="6.83541">
        <ele>1488.2</ele>
        <time>2020-08-07T12:30:04Z</time>
      </trkpt>
      <trkpt lat="45.62488" lon="6.83546">
        <ele>1488.5</ele>
        <time>2020-08-07T12:30:06Z</time>
      </trkpt>
      <trkpt lat="45.62485" lon="6.83548">
        <ele>1488.6</ele>
        <time>2020-08-07T12:30:07Z</time>
      </trkpt>
      <trkpt lat="45.62478" lon="6.83554">
        <ele>1489</ele>
        <time>2020-08-07T12:30:09Z</time>
      </trkpt>
      <trkpt lat="45.62476" lon="6.83557">
        <ele>1489.1</ele>
        <time>2020-08-07T12:30:10Z</time>
      </trkpt>
      <trkpt lat="45.6247" lon="6.83562">
        <ele>1489.4</ele>
        <time>2020-08-07T12:30:12Z</time>
      </trkpt>
      <trkpt lat="45.62461" lon="6.83569">
        <ele>1489.8</ele>
        <time>2020-08-07T12:30:13Z</time>
      </trkpt>
      <trkpt lat="45.62454" lon="6.83575">
        <ele>1490.1</ele>
        <time>2020-08-07T12:30:16Z</time>
      </trkpt>
      <trkpt lat="45.62452" lon="6.83577">
        <ele>1490.3</ele>
        <time>2020-08-07T12:30:17Z</time>
      </trkpt>
      <trkpt lat="45.62442" lon="6.83584">
        <ele>1490.8</ele>
        <time>2020-08-07T12:30:19Z</time>
      </trkpt>
      <trkpt lat="45.62433" lon="6.83594">
        <ele>1491.3</ele>
        <time>2020-08-07T12:30:22Z</time>
      </trkpt>
      <trkpt lat="45.6243" lon="6.83599">
        <ele>1491.5</ele>
        <time>2020-08-07T12:30:24Z</time>
      </trkpt>
      <trkpt lat="45.62427" lon="6.83605">
        <ele>1491.8</ele>
        <time>2020-08-07T12:30:26Z</time>
      </trkpt>
      <trkpt lat="45.62425" lon="6.83612">
        <ele>1492</ele>
        <time>2020-08-07T12:30:27Z</time>
      </trkpt>
      <trkpt lat="45.62425" lon="6.83618">
        <ele>1492.2</ele>
        <time>2020-08-07T12:30:29Z</time>
      </trkpt>
      <trkpt lat="45.62424" lon="6.83629">
        <ele>1492.5</ele>
        <time>2020-08-07T12:30:31Z</time>
      </trkpt>
      <trkpt lat="45.62423" lon="6.83639">
        <ele>1492.8</ele>
        <time>2020-08-07T12:30:33Z</time>
      </trkpt>
      <trkpt lat="45.62421" lon="6.83648">
        <ele>1493.2</ele>
        <time>2020-08-07T12:30:34Z</time>
      </trkpt>
      <trkpt lat="45.6242" lon="6.83653">
        <ele>1493.3</ele>
        <time>2020-08-07T12:30:35Z</time>
      </trkpt>
      <trkpt lat="45.62419" lon="6.8366">
        <ele>1493.5</ele>
        <time>2020-08-07T12:30:37Z</time>
      </trkpt>
      <trkpt lat="45.62418" lon="6.83669">
        <ele>1493.8</ele>
        <time>2020-08-07T12:30:39Z</time>
      </trkpt>
      <trkpt lat="45.62415" lon="6.83678">
        <ele>1494</ele>
        <time>2020-08-07T12:30:40Z</time>
      </trkpt>
      <trkpt lat="45.62413" lon="6.83683">
        <ele>1494.2</ele>
        <time>2020-08-07T12:30:41Z</time>
      </trkpt>
      <trkpt lat="45.62412" lon="6.83687">
        <ele>1494.3</ele>
        <time>2020-08-07T12:30:42Z</time>
      </trkpt>
      <trkpt lat="45.6241" lon="6.83691">
        <ele>1494.5</ele>
        <time>2020-08-07T12:30:43Z</time>
      </trkpt>
      <trkpt lat="45.62407" lon="6.83695">
        <ele>1494.6</ele>
        <time>2020-08-07T12:30:44Z</time>
      </trkpt>
      <trkpt lat="45.62396" lon="6.83705">
        <ele>1495.2</ele>
        <time>2020-08-07T12:30:47Z</time>
      </trkpt>
      <trkpt lat="45.6239" lon="6.83709">
        <ele>1495.6</ele>
        <time>2020-08-07T12:30:49Z</time>
      </trkpt>
      <trkpt lat="45.62385" lon="6.83712">
        <ele>1495.8</ele>
        <time>2020-08-07T12:30:51Z</time>
      </trkpt>
      <trkpt lat="45.6238" lon="6.83717">
        <ele>1496.1</ele>
        <time>2020-08-07T12:30:52Z</time>
      </trkpt>
      <trkpt lat="45.62377" lon="6.83721">
        <ele>1496.3</ele>
        <time>2020-08-07T12:30:53Z</time>
      </trkpt>
      <trkpt lat="45.62375" lon="6.83726">
        <ele>1496.5</ele>
        <time>2020-08-07T12:30:54Z</time>
      </trkpt>
      <trkpt lat="45.62373" lon="6.83731">
        <ele>1496.7</ele>
        <time>2020-08-07T12:30:56Z</time>
      </trkpt>
      <trkpt lat="45.6237" lon="6.83742">
        <ele>1497.1</ele>
        <time>2020-08-07T12:30:57Z</time>
      </trkpt>
      <trkpt lat="45.62369" lon="6.83748">
        <ele>1497.3</ele>
        <time>2020-08-07T12:30:58Z</time>
      </trkpt>
      <trkpt lat="45.62367" lon="6.83753">
        <ele>1497.4</ele>
        <time>2020-08-07T12:31:00Z</time>
      </trkpt>
      <trkpt lat="45.62364" lon="6.83758">
        <ele>1497.6</ele>
        <time>2020-08-07T12:31:01Z</time>
      </trkpt>
      <trkpt lat="45.62362" lon="6.83763">
        <ele>1497.7</ele>
        <time>2020-08-07T12:31:02Z</time>
      </trkpt>
      <trkpt lat="45.6236" lon="6.83766">
        <ele>1497.8</ele>
        <time>2020-08-07T12:31:04Z</time>
      </trkpt>
      <trkpt lat="45.62349" lon="6.83776">
        <ele>1498.3</ele>
        <time>2020-08-07T12:31:06Z</time>
      </trkpt>
      <trkpt lat="45.62339" lon="6.83781">
        <ele>1498.6</ele>
        <time>2020-08-07T12:31:09Z</time>
      </trkpt>
      <trkpt lat="45.62334" lon="6.83783">
        <ele>1498.8</ele>
        <time>2020-08-07T12:31:10Z</time>
      </trkpt>
      <trkpt lat="45.62329" lon="6.83786">
        <ele>1498.9</ele>
        <time>2020-08-07T12:31:13Z</time>
      </trkpt>
      <trkpt lat="45.62321" lon="6.8379">
        <ele>1499.2</ele>
        <time>2020-08-07T12:31:14Z</time>
      </trkpt>
      <trkpt lat="45.62317" lon="6.83793">
        <ele>1499.3</ele>
        <time>2020-08-07T12:31:16Z</time>
      </trkpt>
      <trkpt lat="45.6231" lon="6.83797">
        <ele>1499.6</ele>
        <time>2020-08-07T12:31:18Z</time>
      </trkpt>
      <trkpt lat="45.62304" lon="6.83802">
        <ele>1499.7</ele>
        <time>2020-08-07T12:31:19Z</time>
      </trkpt>
      <trkpt lat="45.62295" lon="6.83814">
        <ele>1500.3</ele>
        <time>2020-08-07T12:31:21Z</time>
      </trkpt>
      <trkpt lat="45.6229" lon="6.83823">
        <ele>1501</ele>
        <time>2020-08-07T12:31:24Z</time>
      </trkpt>
      <trkpt lat="45.62286" lon="6.83833">
        <ele>1501.5</ele>
        <time>2020-08-07T12:31:26Z</time>
      </trkpt>
      <trkpt lat="45.62283" lon="6.83841">
        <ele>1501.9</ele>
        <time>2020-08-07T12:31:27Z</time>
      </trkpt>
      <trkpt lat="45.62281" lon="6.83849">
        <ele>1502.2</ele>
        <time>2020-08-07T12:31:29Z</time>
      </trkpt>
      <trkpt lat="45.62279" lon="6.83854">
        <ele>1502.3</ele>
        <time>2020-08-07T12:31:30Z</time>
      </trkpt>
      <trkpt lat="45.62276" lon="6.83864">
        <ele>1502.7</ele>
        <time>2020-08-07T12:31:32Z</time>
      </trkpt>
      <trkpt lat="45.62272" lon="6.83876">
        <ele>1503</ele>
        <time>2020-08-07T12:31:33Z</time>
      </trkpt>
      <trkpt lat="45.62269" lon="6.83886">
        <ele>1503.4</ele>
        <time>2020-08-07T12:31:35Z</time>
      </trkpt>
      <trkpt lat="45.62266" lon="6.83893">
        <ele>1503.6</ele>
        <time>2020-08-07T12:31:36Z</time>
      </trkpt>
      <trkpt lat="45.62264" lon="6.839">
        <ele>1503.9</ele>
        <time>2020-08-07T12:31:37Z</time>
      </trkpt>
      <trkpt lat="45.62261" lon="6.83907">
        <ele>1504.2</ele>
        <time>2020-08-07T12:31:39Z</time>
      </trkpt>
      <trkpt lat="45.62256" lon="6.83917">
        <ele>1504.7</ele>
        <time>2020-08-07T12:31:41Z</time>
      </trkpt>
      <trkpt lat="45.62254" lon="6.83922">
        <ele>1504.9</ele>
        <time>2020-08-07T12:31:43Z</time>
      </trkpt>
      <trkpt lat="45.62246" lon="6.83937">
        <ele>1505.7</ele>
        <time>2020-08-07T12:31:45Z</time>
      </trkpt>
      <trkpt lat="45.62242" lon="6.83944">
        <ele>1506.1</ele>
        <time>2020-08-07T12:31:48Z</time>
      </trkpt>
      <trkpt lat="45.62237" lon="6.83951">
        <ele>1506.5</ele>
        <time>2020-08-07T12:31:50Z</time>
      </trkpt>
      <trkpt lat="45.62235" lon="6.83955">
        <ele>1506.7</ele>
        <time>2020-08-07T12:31:51Z</time>
      </trkpt>
      <trkpt lat="45.62231" lon="6.83962">
        <ele>1507.2</ele>
        <time>2020-08-07T12:31:52Z</time>
      </trkpt>
      <trkpt lat="45.62224" lon="6.83971">
        <ele>1507.8</ele>
        <time>2020-08-07T12:31:54Z</time>
      </trkpt>
      <trkpt lat="45.62221" lon="6.83976">
        <ele>1508.2</ele>
        <time>2020-08-07T12:31:56Z</time>
      </trkpt>
      <trkpt lat="45.62216" lon="6.83984">
        <ele>1508.9</ele>
        <time>2020-08-07T12:31:58Z</time>
      </trkpt>
      <trkpt lat="45.62213" lon="6.83988">
        <ele>1509.3</ele>
        <time>2020-08-07T12:32:00Z</time>
      </trkpt>
      <trkpt lat="45.62207" lon="6.83998">
        <ele>1510</ele>
        <time>2020-08-07T12:32:02Z</time>
      </trkpt>
      <trkpt lat="45.62205" lon="6.84002">
        <ele>1510.4</ele>
        <time>2020-08-07T12:32:04Z</time>
      </trkpt>
      <trkpt lat="45.62202" lon="6.84006">
        <ele>1510.7</ele>
        <time>2020-08-07T12:32:05Z</time>
      </trkpt>
      <trkpt lat="45.62198" lon="6.84009">
        <ele>1511.1</ele>
        <time>2020-08-07T12:32:06Z</time>
      </trkpt>
      <trkpt lat="45.62195" lon="6.84013">
        <ele>1511.4</ele>
        <time>2020-08-07T12:32:07Z</time>
      </trkpt>
      <trkpt lat="45.62192" lon="6.84017">
        <ele>1511.8</ele>
        <time>2020-08-07T12:32:09Z</time>
      </trkpt>
      <trkpt lat="45.62189" lon="6.84021">
        <ele>1512.1</ele>
        <time>2020-08-07T12:32:10Z</time>
      </trkpt>
      <trkpt lat="45.62184" lon="6.84027">
        <ele>1512.7</ele>
        <time>2020-08-07T12:32:12Z</time>
      </trkpt>
      <trkpt lat="45.62181" lon="6.84031">
        <ele>1513</ele>
        <time>2020-08-07T12:32:13Z</time>
      </trkpt>
      <trkpt lat="45.62178" lon="6.84035">
        <ele>1513.3</ele>
        <time>2020-08-07T12:32:15Z</time>
      </trkpt>
      <trkpt lat="45.62175" lon="6.84038">
        <ele>1513.6</ele>
        <time>2020-08-07T12:32:16Z</time>
      </trkpt>
      <trkpt lat="45.62171" lon="6.84041">
        <ele>1514</ele>
        <time>2020-08-07T12:32:17Z</time>
      </trkpt>
      <trkpt lat="45.62168" lon="6.84045">
        <ele>1514.4</ele>
        <time>2020-08-07T12:32:18Z</time>
      </trkpt>
      <trkpt lat="45.62165" lon="6.8405">
        <ele>1514.8</ele>
        <time>2020-08-07T12:32:20Z</time>
      </trkpt>
      <trkpt lat="45.62162" lon="6.84054">
        <ele>1515.2</ele>
        <time>2020-08-07T12:32:21Z</time>
      </trkpt>
      <trkpt lat="45.62159" lon="6.84059">
        <ele>1515.6</ele>
        <time>2020-08-07T12:32:23Z</time>
      </trkpt>
      <trkpt lat="45.62153" lon="6.84068">
        <ele>1516.4</ele>
        <time>2020-08-07T12:32:25Z</time>
      </trkpt>
      <trkpt lat="45.6215" lon="6.84073">
        <ele>1516.8</ele>
        <time>2020-08-07T12:32:28Z</time>
      </trkpt>
      <trkpt lat="45.62148" lon="6.84076">
        <ele>1517.1</ele>
        <time>2020-08-07T12:32:29Z</time>
      </trkpt>
      <trkpt lat="45.62144" lon="6.84081">
        <ele>1517.5</ele>
        <time>2020-08-07T12:32:30Z</time>
      </trkpt>
      <trkpt lat="45.62141" lon="6.84085">
        <ele>1517.8</ele>
        <time>2020-08-07T12:32:31Z</time>
      </trkpt>
      <trkpt lat="45.62135" lon="6.84093">
        <ele>1518.4</ele>
        <time>2020-08-07T12:32:33Z</time>
      </trkpt>
      <trkpt lat="45.62132" lon="6.84098">
        <ele>1518.7</ele>
        <time>2020-08-07T12:32:35Z</time>
      </trkpt>
      <trkpt lat="45.62126" lon="6.84106">
        <ele>1519.3</ele>
        <time>2020-08-07T12:32:37Z</time>
      </trkpt>
      <trkpt lat="45.62123" lon="6.8411">
        <ele>1519.6</ele>
        <time>2020-08-07T12:32:39Z</time>
      </trkpt>
      <trkpt lat="45.62117" lon="6.84118">
        <ele>1520.2</ele>
        <time>2020-08-07T12:32:41Z</time>
      </trkpt>
      <trkpt lat="45.62114" lon="6.84122">
        <ele>1520.5</ele>
        <time>2020-08-07T12:32:43Z</time>
      </trkpt>
      <trkpt lat="45.62111" lon="6.84125">
        <ele>1520.8</ele>
        <time>2020-08-07T12:32:44Z</time>
      </trkpt>
      <trkpt lat="45.62105" lon="6.8413">
        <ele>1521.3</ele>
        <time>2020-08-07T12:32:46Z</time>
      </trkpt>
      <trkpt lat="45.621" lon="6.84136">
        <ele>1521.7</ele>
        <time>2020-08-07T12:32:48Z</time>
      </trkpt>
      <trkpt lat="45.62097" lon="6.8414">
        <ele>1522</ele>
        <time>2020-08-07T12:32:49Z</time>
      </trkpt>
      <trkpt lat="45.62095" lon="6.84143">
        <ele>1522.2</ele>
        <time>2020-08-07T12:32:51Z</time>
      </trkpt>
      <trkpt lat="45.62093" lon="6.84146">
        <ele>1522.5</ele>
        <time>2020-08-07T12:32:52Z</time>
      </trkpt>
      <trkpt lat="45.62088" lon="6.84152">
        <ele>1522.9</ele>
        <time>2020-08-07T12:32:54Z</time>
      </trkpt>
      <trkpt lat="45.62085" lon="6.8416">
        <ele>1523.2</ele>
        <time>2020-08-07T12:32:56Z</time>
      </trkpt>
      <trkpt lat="45.62083" lon="6.84167">
        <ele>1523.6</ele>
        <time>2020-08-07T12:32:57Z</time>
      </trkpt>
      <trkpt lat="45.62081" lon="6.84172">
        <ele>1523.8</ele>
        <time>2020-08-07T12:32:58Z</time>
      </trkpt>
      <trkpt lat="45.62079" lon="6.84177">
        <ele>1524.1</ele>
        <time>2020-08-07T12:33:00Z</time>
      </trkpt>
      <trkpt lat="45.62076" lon="6.84186">
        <ele>1524.5</ele>
        <time>2020-08-07T12:33:02Z</time>
      </trkpt>
      <trkpt lat="45.62074" lon="6.84194">
        <ele>1524.9</ele>
        <time>2020-08-07T12:33:04Z</time>
      </trkpt>
      <trkpt lat="45.6207" lon="6.84205">
        <ele>1525.5</ele>
        <time>2020-08-07T12:33:05Z</time>
      </trkpt>
      <trkpt lat="45.62065" lon="6.84221">
        <ele>1526.2</ele>
        <time>2020-08-07T12:33:08Z</time>
      </trkpt>
      <trkpt lat="45.62063" lon="6.84227">
        <ele>1526.5</ele>
        <time>2020-08-07T12:33:11Z</time>
      </trkpt>
      <trkpt lat="45.62061" lon="6.84231">
        <ele>1526.7</ele>
        <time>2020-08-07T12:33:12Z</time>
      </trkpt>
      <trkpt lat="45.6206" lon="6.84236">
        <ele>1526.9</ele>
        <time>2020-08-07T12:33:13Z</time>
      </trkpt>
      <trkpt lat="45.62056" lon="6.84244">
        <ele>1527.3</ele>
        <time>2020-08-07T12:33:15Z</time>
      </trkpt>
      <trkpt lat="45.62054" lon="6.84249">
        <ele>1527.5</ele>
        <time>2020-08-07T12:33:16Z</time>
      </trkpt>
      <trkpt lat="45.62051" lon="6.84259">
        <ele>1528</ele>
        <time>2020-08-07T12:33:18Z</time>
      </trkpt>
      <trkpt lat="45.62049" lon="6.84267">
        <ele>1528.3</ele>
        <time>2020-08-07T12:33:19Z</time>
      </trkpt>
      <trkpt lat="45.62046" lon="6.84274">
        <ele>1528.7</ele>
        <time>2020-08-07T12:33:21Z</time>
      </trkpt>
      <trkpt lat="45.62044" lon="6.84283">
        <ele>1529</ele>
        <time>2020-08-07T12:33:23Z</time>
      </trkpt>
      <trkpt lat="45.62042" lon="6.84291">
        <ele>1529.4</ele>
        <time>2020-08-07T12:33:24Z</time>
      </trkpt>
      <trkpt lat="45.6204" lon="6.84297">
        <ele>1529.7</ele>
        <time>2020-08-07T12:33:25Z</time>
      </trkpt>
      <trkpt lat="45.62039" lon="6.84303">
        <ele>1529.9</ele>
        <time>2020-08-07T12:33:27Z</time>
      </trkpt>
      <trkpt lat="45.62037" lon="6.84308">
        <ele>1530.2</ele>
        <time>2020-08-07T12:33:28Z</time>
      </trkpt>
      <trkpt lat="45.62035" lon="6.84317">
        <ele>1530.5</ele>
        <time>2020-08-07T12:33:29Z</time>
      </trkpt>
      <trkpt lat="45.62032" lon="6.84327">
        <ele>1530.9</ele>
        <time>2020-08-07T12:33:31Z</time>
      </trkpt>
      <trkpt lat="45.62028" lon="6.84342">
        <ele>1531.5</ele>
        <time>2020-08-07T12:33:33Z</time>
      </trkpt>
      <trkpt lat="45.62026" lon="6.8435">
        <ele>1531.7</ele>
        <time>2020-08-07T12:33:35Z</time>
      </trkpt>
      <trkpt lat="45.62023" lon="6.84364">
        <ele>1532.2</ele>
        <time>2020-08-07T12:33:37Z</time>
      </trkpt>
      <trkpt lat="45.62021" lon="6.84372">
        <ele>1532.5</ele>
        <time>2020-08-07T12:33:40Z</time>
      </trkpt>
      <trkpt lat="45.62017" lon="6.84384">
        <ele>1532.9</ele>
        <time>2020-08-07T12:33:42Z</time>
      </trkpt>
      <trkpt lat="45.62015" lon="6.8439">
        <ele>1533</ele>
        <time>2020-08-07T12:33:43Z</time>
      </trkpt>
      <trkpt lat="45.62013" lon="6.84395">
        <ele>1533.2</ele>
        <time>2020-08-07T12:33:44Z</time>
      </trkpt>
      <trkpt lat="45.62008" lon="6.84405">
        <ele>1533.5</ele>
        <time>2020-08-07T12:33:46Z</time>
      </trkpt>
      <trkpt lat="45.62005" lon="6.84411">
        <ele>1533.7</ele>
        <time>2020-08-07T12:33:47Z</time>
      </trkpt>
      <trkpt lat="45.61999" lon="6.84423">
        <ele>1534.1</ele>
        <time>2020-08-07T12:33:49Z</time>
      </trkpt>
      <trkpt lat="45.61995" lon="6.84433">
        <ele>1534.4</ele>
        <time>2020-08-07T12:33:50Z</time>
      </trkpt>
      <trkpt lat="45.61993" lon="6.8444">
        <ele>1534.6</ele>
        <time>2020-08-07T12:33:52Z</time>
      </trkpt>
      <trkpt lat="45.6199" lon="6.84445">
        <ele>1534.8</ele>
        <time>2020-08-07T12:33:53Z</time>
      </trkpt>
      <trkpt lat="45.61983" lon="6.84456">
        <ele>1535.2</ele>
        <time>2020-08-07T12:33:55Z</time>
      </trkpt>
      <trkpt lat="45.6198" lon="6.84461">
        <ele>1535.3</ele>
        <time>2020-08-07T12:33:56Z</time>
      </trkpt>
      <trkpt lat="45.61974" lon="6.84473">
        <ele>1535.8</ele>
        <time>2020-08-07T12:33:58Z</time>
      </trkpt>
      <trkpt lat="45.6197" lon="6.84484">
        <ele>1536.2</ele>
        <time>2020-08-07T12:34:00Z</time>
      </trkpt>
      <trkpt lat="45.61967" lon="6.8449">
        <ele>1536.4</ele>
        <time>2020-08-07T12:34:01Z</time>
      </trkpt>
      <trkpt lat="45.61963" lon="6.84502">
        <ele>1536.9</ele>
        <time>2020-08-07T12:34:02Z</time>
      </trkpt>
      <trkpt lat="45.61963" lon="6.84507">
        <ele>1537.1</ele>
        <time>2020-08-07T12:34:03Z</time>
      </trkpt>
      <trkpt lat="45.61964" lon="6.84513">
        <ele>1537.4</ele>
        <time>2020-08-07T12:34:04Z</time>
      </trkpt>
      <trkpt lat="45.61968" lon="6.84519">
        <ele>1537.9</ele>
        <time>2020-08-07T12:34:06Z</time>
      </trkpt>
      <trkpt lat="45.61975" lon="6.84521">
        <ele>1538.1</ele>
        <time>2020-08-07T12:34:08Z</time>
      </trkpt>
      <trkpt lat="45.61984" lon="6.84512">
        <ele>1538.4</ele>
        <time>2020-08-07T12:34:10Z</time>
      </trkpt>
      <trkpt lat="45.61986" lon="6.84505">
        <ele>1538.5</ele>
        <time>2020-08-07T12:34:11Z</time>
      </trkpt>
      <trkpt lat="45.61989" lon="6.84492">
        <ele>1538.7</ele>
        <time>2020-08-07T12:34:13Z</time>
      </trkpt>
      <trkpt lat="45.61993" lon="6.84479">
        <ele>1539</ele>
        <time>2020-08-07T12:34:15Z</time>
      </trkpt>
      <trkpt lat="45.61996" lon="6.84474">
        <ele>1539.1</ele>
        <time>2020-08-07T12:34:16Z</time>
      </trkpt>
      <trkpt lat="45.62" lon="6.84468">
        <ele>1539.3</ele>
        <time>2020-08-07T12:34:17Z</time>
      </trkpt>
      <trkpt lat="45.62006" lon="6.84456">
        <ele>1539.6</ele>
        <time>2020-08-07T12:34:20Z</time>
      </trkpt>
      <trkpt lat="45.62012" lon="6.84444">
        <ele>1540</ele>
        <time>2020-08-07T12:34:22Z</time>
      </trkpt>
      <trkpt lat="45.62015" lon="6.84444">
        <ele>1540.2</ele>
        <time>2020-08-07T12:34:23Z</time>
      </trkpt>
      <trkpt lat="45.62019" lon="6.84438">
        <ele>1540.4</ele>
        <time>2020-08-07T12:34:24Z</time>
      </trkpt>
      <trkpt lat="45.62024" lon="6.84427">
        <ele>1540.8</ele>
        <time>2020-08-07T12:34:26Z</time>
      </trkpt>
      <trkpt lat="45.62027" lon="6.84421">
        <ele>1541</ele>
        <time>2020-08-07T12:34:27Z</time>
      </trkpt>
      <trkpt lat="45.6203" lon="6.84415">
        <ele>1541.3</ele>
        <time>2020-08-07T12:34:28Z</time>
      </trkpt>
      <trkpt lat="45.6204" lon="6.84399">
        <ele>1541.9</ele>
        <time>2020-08-07T12:34:30Z</time>
      </trkpt>
      <trkpt lat="45.62045" lon="6.84384">
        <ele>1542.4</ele>
        <time>2020-08-07T12:34:33Z</time>
      </trkpt>
      <trkpt lat="45.62046" lon="6.84378">
        <ele>1542.6</ele>
        <time>2020-08-07T12:34:34Z</time>
      </trkpt>
      <trkpt lat="45.62051" lon="6.84361">
        <ele>1543.2</ele>
        <time>2020-08-07T12:34:37Z</time>
      </trkpt>
      <trkpt lat="45.62056" lon="6.84344">
        <ele>1543.6</ele>
        <time>2020-08-07T12:34:40Z</time>
      </trkpt>
      <trkpt lat="45.62062" lon="6.84329">
        <ele>1544.1</ele>
        <time>2020-08-07T12:34:43Z</time>
      </trkpt>
      <trkpt lat="45.6207" lon="6.84313">
        <ele>1544.6</ele>
        <time>2020-08-07T12:34:46Z</time>
      </trkpt>
      <trkpt lat="45.62073" lon="6.84307">
        <ele>1544.9</ele>
        <time>2020-08-07T12:34:48Z</time>
      </trkpt>
      <trkpt lat="45.62078" lon="6.84298">
        <ele>1545.2</ele>
        <time>2020-08-07T12:34:50Z</time>
      </trkpt>
      <trkpt lat="45.6208" lon="6.84293">
        <ele>1545.4</ele>
        <time>2020-08-07T12:34:51Z</time>
      </trkpt>
      <trkpt lat="45.62083" lon="6.84286">
        <ele>1545.6</ele>
        <time>2020-08-07T12:34:53Z</time>
      </trkpt>
      <trkpt lat="45.62087" lon="6.84277">
        <ele>1545.9</ele>
        <time>2020-08-07T12:34:55Z</time>
      </trkpt>
      <trkpt lat="45.62091" lon="6.84269">
        <ele>1546.2</ele>
        <time>2020-08-07T12:34:56Z</time>
      </trkpt>
      <trkpt lat="45.62095" lon="6.84262">
        <ele>1546.5</ele>
        <time>2020-08-07T12:34:58Z</time>
      </trkpt>
      <trkpt lat="45.621" lon="6.84251">
        <ele>1546.9</ele>
        <time>2020-08-07T12:35:00Z</time>
      </trkpt>
      <trkpt lat="45.62102" lon="6.84246">
        <ele>1547.1</ele>
        <time>2020-08-07T12:35:01Z</time>
      </trkpt>
      <trkpt lat="45.62106" lon="6.84238">
        <ele>1547.5</ele>
        <time>2020-08-07T12:35:02Z</time>
      </trkpt>
      <trkpt lat="45.62109" lon="6.84232">
        <ele>1547.7</ele>
        <time>2020-08-07T12:35:04Z</time>
      </trkpt>
      <trkpt lat="45.62111" lon="6.84227">
        <ele>1547.9</ele>
        <time>2020-08-07T12:35:05Z</time>
      </trkpt>
      <trkpt lat="45.62116" lon="6.8422">
        <ele>1548.2</ele>
        <time>2020-08-07T12:35:06Z</time>
      </trkpt>
      <trkpt lat="45.62119" lon="6.84216">
        <ele>1548.4</ele>
        <time>2020-08-07T12:35:07Z</time>
      </trkpt>
      <trkpt lat="45.62123" lon="6.84212">
        <ele>1548.6</ele>
        <time>2020-08-07T12:35:08Z</time>
      </trkpt>
      <trkpt lat="45.62126" lon="6.84208">
        <ele>1548.7</ele>
        <time>2020-08-07T12:35:09Z</time>
      </trkpt>
      <trkpt lat="45.62129" lon="6.84203">
        <ele>1549</ele>
        <time>2020-08-07T12:35:10Z</time>
      </trkpt>
      <trkpt lat="45.62133" lon="6.84199">
        <ele>1549.3</ele>
        <time>2020-08-07T12:35:11Z</time>
      </trkpt>
      <trkpt lat="45.62136" lon="6.84196">
        <ele>1549.6</ele>
        <time>2020-08-07T12:35:13Z</time>
      </trkpt>
      <trkpt lat="45.62139" lon="6.84193">
        <ele>1549.8</ele>
        <time>2020-08-07T12:35:14Z</time>
      </trkpt>
      <trkpt lat="45.62146" lon="6.84186">
        <ele>1550.2</ele>
        <time>2020-08-07T12:35:15Z</time>
      </trkpt>
      <trkpt lat="45.62153" lon="6.84178">
        <ele>1550.6</ele>
        <time>2020-08-07T12:35:17Z</time>
      </trkpt>
      <trkpt lat="45.62157" lon="6.84174">
        <ele>1550.8</ele>
        <time>2020-08-07T12:35:18Z</time>
      </trkpt>
      <trkpt lat="45.62161" lon="6.8417">
        <ele>1551</ele>
        <time>2020-08-07T12:35:19Z</time>
      </trkpt>
      <trkpt lat="45.62164" lon="6.84167">
        <ele>1551.1</ele>
        <time>2020-08-07T12:35:20Z</time>
      </trkpt>
      <trkpt lat="45.62174" lon="6.84153">
        <ele>1551.7</ele>
        <time>2020-08-07T12:35:22Z</time>
      </trkpt>
      <trkpt lat="45.6218" lon="6.84143">
        <ele>1552.1</ele>
        <time>2020-08-07T12:35:25Z</time>
      </trkpt>
      <trkpt lat="45.62185" lon="6.84132">
        <ele>1552.4</ele>
        <time>2020-08-07T12:35:26Z</time>
      </trkpt>
      <trkpt lat="45.62188" lon="6.84126">
        <ele>1552.7</ele>
        <time>2020-08-07T12:35:27Z</time>
      </trkpt>
      <trkpt lat="45.6219" lon="6.84121">
        <ele>1552.8</ele>
        <time>2020-08-07T12:35:29Z</time>
      </trkpt>
      <trkpt lat="45.62192" lon="6.84116">
        <ele>1553</ele>
        <time>2020-08-07T12:35:30Z</time>
      </trkpt>
      <trkpt lat="45.62195" lon="6.84111">
        <ele>1553.2</ele>
        <time>2020-08-07T12:35:31Z</time>
      </trkpt>
      <trkpt lat="45.62198" lon="6.84106">
        <ele>1553.4</ele>
        <time>2020-08-07T12:35:32Z</time>
      </trkpt>
      <trkpt lat="45.62201" lon="6.841">
        <ele>1553.6</ele>
        <time>2020-08-07T12:35:34Z</time>
      </trkpt>
      <trkpt lat="45.62207" lon="6.84093">
        <ele>1553.8</ele>
        <time>2020-08-07T12:35:36Z</time>
      </trkpt>
      <trkpt lat="45.62213" lon="6.84088">
        <ele>1554</ele>
        <time>2020-08-07T12:35:37Z</time>
      </trkpt>
      <trkpt lat="45.62222" lon="6.84082">
        <ele>1554.3</ele>
        <time>2020-08-07T12:35:39Z</time>
      </trkpt>
      <trkpt lat="45.62227" lon="6.8408">
        <ele>1554.5</ele>
        <time>2020-08-07T12:35:40Z</time>
      </trkpt>
      <trkpt lat="45.62237" lon="6.84075">
        <ele>1554.7</ele>
        <time>2020-08-07T12:35:42Z</time>
      </trkpt>
      <trkpt lat="45.62242" lon="6.84072">
        <ele>1554.7</ele>
        <time>2020-08-07T12:35:43Z</time>
      </trkpt>
      <trkpt lat="45.62252" lon="6.84068">
        <ele>1555</ele>
        <time>2020-08-07T12:35:45Z</time>
      </trkpt>
      <trkpt lat="45.62261" lon="6.84065">
        <ele>1555.2</ele>
        <time>2020-08-07T12:35:47Z</time>
      </trkpt>
      <trkpt lat="45.6227" lon="6.84062">
        <ele>1555.6</ele>
        <time>2020-08-07T12:35:49Z</time>
      </trkpt>
      <trkpt lat="45.62274" lon="6.84061">
        <ele>1555.7</ele>
        <time>2020-08-07T12:35:50Z</time>
      </trkpt>
      <trkpt lat="45.62284" lon="6.84057">
        <ele>1556</ele>
        <time>2020-08-07T12:35:52Z</time>
      </trkpt>
      <trkpt lat="45.62293" lon="6.84055">
        <ele>1556.4</ele>
        <time>2020-08-07T12:35:54Z</time>
      </trkpt>
      <trkpt lat="45.623" lon="6.84054">
        <ele>1556.7</ele>
        <time>2020-08-07T12:35:56Z</time>
      </trkpt>
      <trkpt lat="45.62303" lon="6.84052">
        <ele>1556.9</ele>
        <time>2020-08-07T12:35:57Z</time>
      </trkpt>
      <trkpt lat="45.62313" lon="6.84054">
        <ele>1557.3</ele>
        <time>2020-08-07T12:35:59Z</time>
      </trkpt>
      <trkpt lat="45.62318" lon="6.8405">
        <ele>1557.5</ele>
        <time>2020-08-07T12:36:00Z</time>
      </trkpt>
      <trkpt lat="45.6233" lon="6.84031">
        <ele>1558.4</ele>
        <time>2020-08-07T12:36:03Z</time>
      </trkpt>
      <trkpt lat="45.62334" lon="6.84025">
        <ele>1558.7</ele>
        <time>2020-08-07T12:36:06Z</time>
      </trkpt>
      <trkpt lat="45.62337" lon="6.8402">
        <ele>1559</ele>
        <time>2020-08-07T12:36:07Z</time>
      </trkpt>
      <trkpt lat="45.62344" lon="6.8401">
        <ele>1559.4</ele>
        <time>2020-08-07T12:36:09Z</time>
      </trkpt>
      <trkpt lat="45.62346" lon="6.84007">
        <ele>1559.6</ele>
        <time>2020-08-07T12:36:10Z</time>
      </trkpt>
      <trkpt lat="45.62353" lon="6.83997">
        <ele>1560.1</ele>
        <time>2020-08-07T12:36:12Z</time>
      </trkpt>
      <trkpt lat="45.62358" lon="6.8399">
        <ele>1560.6</ele>
        <time>2020-08-07T12:36:14Z</time>
      </trkpt>
      <trkpt lat="45.62365" lon="6.8398">
        <ele>1561.1</ele>
        <time>2020-08-07T12:36:16Z</time>
      </trkpt>
      <trkpt lat="45.6237" lon="6.83972">
        <ele>1561.4</ele>
        <time>2020-08-07T12:36:18Z</time>
      </trkpt>
      <trkpt lat="45.62379" lon="6.83957">
        <ele>1562.3</ele>
        <time>2020-08-07T12:36:20Z</time>
      </trkpt>
      <trkpt lat="45.62388" lon="6.83945">
        <ele>1563</ele>
        <time>2020-08-07T12:36:23Z</time>
      </trkpt>
      <trkpt lat="45.62391" lon="6.8394">
        <ele>1563.3</ele>
        <time>2020-08-07T12:36:24Z</time>
      </trkpt>
      <trkpt lat="45.62398" lon="6.83931">
        <ele>1563.9</ele>
        <time>2020-08-07T12:36:27Z</time>
      </trkpt>
      <trkpt lat="45.62402" lon="6.83927">
        <ele>1564.3</ele>
        <time>2020-08-07T12:36:28Z</time>
      </trkpt>
      <trkpt lat="45.62405" lon="6.83923">
        <ele>1564.6</ele>
        <time>2020-08-07T12:36:29Z</time>
      </trkpt>
      <trkpt lat="45.62409" lon="6.83918">
        <ele>1565</ele>
        <time>2020-08-07T12:36:31Z</time>
      </trkpt>
      <trkpt lat="45.62416" lon="6.83912">
        <ele>1565.6</ele>
        <time>2020-08-07T12:36:33Z</time>
      </trkpt>
      <trkpt lat="45.62421" lon="6.83908">
        <ele>1566</ele>
        <time>2020-08-07T12:36:34Z</time>
      </trkpt>
      <trkpt lat="45.62429" lon="6.83902">
        <ele>1566.8</ele>
        <time>2020-08-07T12:36:37Z</time>
      </trkpt>
      <trkpt lat="45.62432" lon="6.839">
        <ele>1567</ele>
        <time>2020-08-07T12:36:38Z</time>
      </trkpt>
      <trkpt lat="45.62437" lon="6.83897">
        <ele>1567.5</ele>
        <time>2020-08-07T12:36:41Z</time>
      </trkpt>
      <trkpt lat="45.62443" lon="6.83893">
        <ele>1568.1</ele>
        <time>2020-08-07T12:36:43Z</time>
      </trkpt>
      <trkpt lat="45.6245" lon="6.8389">
        <ele>1568.7</ele>
        <time>2020-08-07T12:36:44Z</time>
      </trkpt>
      <trkpt lat="45.62456" lon="6.83888">
        <ele>1569.3</ele>
        <time>2020-08-07T12:36:47Z</time>
      </trkpt>
      <trkpt lat="45.62458" lon="6.83887">
        <ele>1569.5</ele>
        <time>2020-08-07T12:36:48Z</time>
      </trkpt>
      <trkpt lat="45.62462" lon="6.83886">
        <ele>1569.8</ele>
        <time>2020-08-07T12:36:49Z</time>
      </trkpt>
      <trkpt lat="45.62465" lon="6.83885">
        <ele>1570.1</ele>
        <time>2020-08-07T12:36:50Z</time>
      </trkpt>
      <trkpt lat="45.62467" lon="6.83885">
        <ele>1570.3</ele>
        <time>2020-08-07T12:36:51Z</time>
      </trkpt>
      <trkpt lat="45.62473" lon="6.83884">
        <ele>1570.7</ele>
        <time>2020-08-07T12:36:52Z</time>
      </trkpt>
      <trkpt lat="45.62477" lon="6.83885">
        <ele>1570.9</ele>
        <time>2020-08-07T12:36:54Z</time>
      </trkpt>
      <trkpt lat="45.62482" lon="6.83885">
        <ele>1571.3</ele>
        <time>2020-08-07T12:36:55Z</time>
      </trkpt>
      <trkpt lat="45.62486" lon="6.83885">
        <ele>1571.5</ele>
        <time>2020-08-07T12:36:57Z</time>
      </trkpt>
      <trkpt lat="45.62494" lon="6.83886">
        <ele>1572.1</ele>
        <time>2020-08-07T12:36:58Z</time>
      </trkpt>
      <trkpt lat="45.62499" lon="6.83887">
        <ele>1572.4</ele>
        <time>2020-08-07T12:37:00Z</time>
      </trkpt>
      <trkpt lat="45.62507" lon="6.83888">
        <ele>1572.9</ele>
        <time>2020-08-07T12:37:02Z</time>
      </trkpt>
      <trkpt lat="45.62511" lon="6.83888">
        <ele>1573.1</ele>
        <time>2020-08-07T12:37:03Z</time>
      </trkpt>
      <trkpt lat="45.62515" lon="6.83888">
        <ele>1573.3</ele>
        <time>2020-08-07T12:37:05Z</time>
      </trkpt>
      <trkpt lat="45.62518" lon="6.83888">
        <ele>1573.5</ele>
        <time>2020-08-07T12:37:06Z</time>
      </trkpt>
      <trkpt lat="45.62527" lon="6.83884">
        <ele>1574</ele>
        <time>2020-08-07T12:37:08Z</time>
      </trkpt>
      <trkpt lat="45.62531" lon="6.83881">
        <ele>1574.3</ele>
        <time>2020-08-07T12:37:11Z</time>
      </trkpt>
      <trkpt lat="45.62537" lon="6.83876">
        <ele>1574.6</ele>
        <time>2020-08-07T12:37:13Z</time>
      </trkpt>
      <trkpt lat="45.6254" lon="6.83874">
        <ele>1574.8</ele>
        <time>2020-08-07T12:37:14Z</time>
      </trkpt>
      <trkpt lat="45.62545" lon="6.8387">
        <ele>1575.1</ele>
        <time>2020-08-07T12:37:15Z</time>
      </trkpt>
      <trkpt lat="45.62552" lon="6.83864">
        <ele>1575.5</ele>
        <time>2020-08-07T12:37:17Z</time>
      </trkpt>
      <trkpt lat="45.62556" lon="6.8386">
        <ele>1575.8</ele>
        <time>2020-08-07T12:37:18Z</time>
      </trkpt>
      <trkpt lat="45.6256" lon="6.83856">
        <ele>1576.1</ele>
        <time>2020-08-07T12:37:20Z</time>
      </trkpt>
      <trkpt lat="45.62563" lon="6.83853">
        <ele>1576.3</ele>
        <time>2020-08-07T12:37:21Z</time>
      </trkpt>
      <trkpt lat="45.62567" lon="6.83847">
        <ele>1576.6</ele>
        <time>2020-08-07T12:37:22Z</time>
      </trkpt>
      <trkpt lat="45.62571" lon="6.83842">
        <ele>1576.9</ele>
        <time>2020-08-07T12:37:25Z</time>
      </trkpt>
      <trkpt lat="45.62573" lon="6.83837">
        <ele>1577.1</ele>
        <time>2020-08-07T12:37:26Z</time>
      </trkpt>
      <trkpt lat="45.62577" lon="6.8383">
        <ele>1577.5</ele>
        <time>2020-08-07T12:37:27Z</time>
      </trkpt>
      <trkpt lat="45.62583" lon="6.8382">
        <ele>1578</ele>
        <time>2020-08-07T12:37:29Z</time>
      </trkpt>
      <trkpt lat="45.62587" lon="6.83815">
        <ele>1578.3</ele>
        <time>2020-08-07T12:37:32Z</time>
      </trkpt>
      <trkpt lat="45.62593" lon="6.83808">
        <ele>1578.7</ele>
        <time>2020-08-07T12:37:33Z</time>
      </trkpt>
      <trkpt lat="45.62598" lon="6.83803">
        <ele>1579.1</ele>
        <time>2020-08-07T12:37:34Z</time>
      </trkpt>
      <trkpt lat="45.62606" lon="6.83795">
        <ele>1579.6</ele>
        <time>2020-08-07T12:37:37Z</time>
      </trkpt>
      <trkpt lat="45.62615" lon="6.83785">
        <ele>1580.3</ele>
        <time>2020-08-07T12:37:40Z</time>
      </trkpt>
      <trkpt lat="45.6262" lon="6.83779">
        <ele>1580.7</ele>
        <time>2020-08-07T12:37:42Z</time>
      </trkpt>
      <trkpt lat="45.62624" lon="6.8377">
        <ele>1581</ele>
        <time>2020-08-07T12:37:45Z</time>
      </trkpt>
      <trkpt lat="45.62626" lon="6.83765">
        <ele>1581.2</ele>
        <time>2020-08-07T12:37:46Z</time>
      </trkpt>
      <trkpt lat="45.6263" lon="6.83755">
        <ele>1581.6</ele>
        <time>2020-08-07T12:37:48Z</time>
      </trkpt>
      <trkpt lat="45.62635" lon="6.83745">
        <ele>1582</ele>
        <time>2020-08-07T12:37:49Z</time>
      </trkpt>
      <trkpt lat="45.62637" lon="6.83739">
        <ele>1582.3</ele>
        <time>2020-08-07T12:37:51Z</time>
      </trkpt>
      <trkpt lat="45.62641" lon="6.83729">
        <ele>1582.7</ele>
        <time>2020-08-07T12:37:52Z</time>
      </trkpt>
      <trkpt lat="45.62647" lon="6.83716">
        <ele>1583.2</ele>
        <time>2020-08-07T12:37:54Z</time>
      </trkpt>
      <trkpt lat="45.62653" lon="6.83705">
        <ele>1583.8</ele>
        <time>2020-08-07T12:37:57Z</time>
      </trkpt>
      <trkpt lat="45.62656" lon="6.837">
        <ele>1584</ele>
        <time>2020-08-07T12:37:58Z</time>
      </trkpt>
      <trkpt lat="45.62659" lon="6.83695">
        <ele>1584.3</ele>
        <time>2020-08-07T12:38:00Z</time>
      </trkpt>
      <trkpt lat="45.62662" lon="6.83691">
        <ele>1584.6</ele>
        <time>2020-08-07T12:38:02Z</time>
      </trkpt>
      <trkpt lat="45.62669" lon="6.83682">
        <ele>1585.1</ele>
        <time>2020-08-07T12:38:03Z</time>
      </trkpt>
      <trkpt lat="45.62672" lon="6.83678">
        <ele>1585.4</ele>
        <time>2020-08-07T12:38:04Z</time>
      </trkpt>
      <trkpt lat="45.62677" lon="6.83673">
        <ele>1585.7</ele>
        <time>2020-08-07T12:38:07Z</time>
      </trkpt>
      <trkpt lat="45.62682" lon="6.83668">
        <ele>1586</ele>
        <time>2020-08-07T12:38:08Z</time>
      </trkpt>
      <trkpt lat="45.62686" lon="6.83664">
        <ele>1586.3</ele>
        <time>2020-08-07T12:38:10Z</time>
      </trkpt>
      <trkpt lat="45.62692" lon="6.8366">
        <ele>1586.7</ele>
        <time>2020-08-07T12:38:11Z</time>
      </trkpt>
      <trkpt lat="45.62696" lon="6.83659">
        <ele>1587</ele>
        <time>2020-08-07T12:38:12Z</time>
      </trkpt>
      <trkpt lat="45.627" lon="6.83656">
        <ele>1587.2</ele>
        <time>2020-08-07T12:38:14Z</time>
      </trkpt>
      <trkpt lat="45.62707" lon="6.8365">
        <ele>1587.7</ele>
        <time>2020-08-07T12:38:15Z</time>
      </trkpt>
      <trkpt lat="45.62712" lon="6.83646">
        <ele>1588</ele>
        <time>2020-08-07T12:38:16Z</time>
      </trkpt>
      <trkpt lat="45.62715" lon="6.83643">
        <ele>1588.2</ele>
        <time>2020-08-07T12:38:18Z</time>
      </trkpt>
      <trkpt lat="45.62723" lon="6.83634">
        <ele>1588.7</ele>
        <time>2020-08-07T12:38:20Z</time>
      </trkpt>
      <trkpt lat="45.62727" lon="6.8363">
        <ele>1589</ele>
        <time>2020-08-07T12:38:21Z</time>
      </trkpt>
      <trkpt lat="45.62736" lon="6.83622">
        <ele>1589.6</ele>
        <time>2020-08-07T12:38:24Z</time>
      </trkpt>
      <trkpt lat="45.62741" lon="6.83619">
        <ele>1589.9</ele>
        <time>2020-08-07T12:38:25Z</time>
      </trkpt>
      <trkpt lat="45.62753" lon="6.8361">
        <ele>1590.6</ele>
        <time>2020-08-07T12:38:28Z</time>
      </trkpt>
      <trkpt lat="45.62762" lon="6.836">
        <ele>1591.2</ele>
        <time>2020-08-07T12:38:31Z</time>
      </trkpt>
      <trkpt lat="45.62767" lon="6.83594">
        <ele>1591.6</ele>
        <time>2020-08-07T12:38:34Z</time>
      </trkpt>
      <trkpt lat="45.62771" lon="6.83586">
        <ele>1592</ele>
        <time>2020-08-07T12:38:35Z</time>
      </trkpt>
      <trkpt lat="45.62774" lon="6.83581">
        <ele>1592.3</ele>
        <time>2020-08-07T12:38:36Z</time>
      </trkpt>
      <trkpt lat="45.62779" lon="6.83573">
        <ele>1592.7</ele>
        <time>2020-08-07T12:38:39Z</time>
      </trkpt>
      <trkpt lat="45.62781" lon="6.83568">
        <ele>1593</ele>
        <time>2020-08-07T12:38:40Z</time>
      </trkpt>
      <trkpt lat="45.62785" lon="6.8356">
        <ele>1593.4</ele>
        <time>2020-08-07T12:38:41Z</time>
      </trkpt>
      <trkpt lat="45.62787" lon="6.83555">
        <ele>1593.6</ele>
        <time>2020-08-07T12:38:43Z</time>
      </trkpt>
      <trkpt lat="45.62791" lon="6.83546">
        <ele>1594</ele>
        <time>2020-08-07T12:38:44Z</time>
      </trkpt>
      <trkpt lat="45.62796" lon="6.83533">
        <ele>1594.6</ele>
        <time>2020-08-07T12:38:46Z</time>
      </trkpt>
      <trkpt lat="45.62799" lon="6.83526">
        <ele>1594.9</ele>
        <time>2020-08-07T12:38:48Z</time>
      </trkpt>
      <trkpt lat="45.62801" lon="6.83522">
        <ele>1595.1</ele>
        <time>2020-08-07T12:38:50Z</time>
      </trkpt>
      <trkpt lat="45.62805" lon="6.83514">
        <ele>1595.5</ele>
        <time>2020-08-07T12:38:51Z</time>
      </trkpt>
      <trkpt lat="45.62808" lon="6.83508">
        <ele>1595.7</ele>
        <time>2020-08-07T12:38:53Z</time>
      </trkpt>
      <trkpt lat="45.62815" lon="6.83504">
        <ele>1596.1</ele>
        <time>2020-08-07T12:38:54Z</time>
      </trkpt>
      <trkpt lat="45.6282" lon="6.8351">
        <ele>1596.4</ele>
        <time>2020-08-07T12:38:56Z</time>
      </trkpt>
      <trkpt lat="45.62816" lon="6.83523">
        <ele>1597.2</ele>
        <time>2020-08-07T12:38:58Z</time>
      </trkpt>
      <trkpt lat="45.6281" lon="6.8353">
        <ele>1597.5</ele>
        <time>2020-08-07T12:39:00Z</time>
      </trkpt>
      <trkpt lat="45.62805" lon="6.83538">
        <ele>1597.8</ele>
        <time>2020-08-07T12:39:01Z</time>
      </trkpt>
      <trkpt lat="45.62801" lon="6.83544">
        <ele>1598</ele>
        <time>2020-08-07T12:39:02Z</time>
      </trkpt>
      <trkpt lat="45.62798" lon="6.8355">
        <ele>1598.3</ele>
        <time>2020-08-07T12:39:03Z</time>
      </trkpt>
      <trkpt lat="45.62792" lon="6.83563">
        <ele>1598.8</ele>
        <time>2020-08-07T12:39:06Z</time>
      </trkpt>
      <trkpt lat="45.6279" lon="6.8357">
        <ele>1599</ele>
        <time>2020-08-07T12:39:08Z</time>
      </trkpt>
      <trkpt lat="45.62786" lon="6.8358">
        <ele>1599.4</ele>
        <time>2020-08-07T12:39:10Z</time>
      </trkpt>
      <trkpt lat="45.62784" lon="6.83585">
        <ele>1599.6</ele>
        <time>2020-08-07T12:39:11Z</time>
      </trkpt>
      <trkpt lat="45.6278" lon="6.83594">
        <ele>1600</ele>
        <time>2020-08-07T12:39:14Z</time>
      </trkpt>
      <trkpt lat="45.62778" lon="6.836">
        <ele>1600.3</ele>
        <time>2020-08-07T12:39:15Z</time>
      </trkpt>
      <trkpt lat="45.62776" lon="6.83605">
        <ele>1600.5</ele>
        <time>2020-08-07T12:39:16Z</time>
      </trkpt>
      <trkpt lat="45.62773" lon="6.8361">
        <ele>1600.7</ele>
        <time>2020-08-07T12:39:18Z</time>
      </trkpt>
      <trkpt lat="45.62771" lon="6.83615">
        <ele>1600.9</ele>
        <time>2020-08-07T12:39:20Z</time>
      </trkpt>
      <trkpt lat="45.62767" lon="6.83622">
        <ele>1601.2</ele>
        <time>2020-08-07T12:39:22Z</time>
      </trkpt>
      <trkpt lat="45.62761" lon="6.83627">
        <ele>1601.4</ele>
        <time>2020-08-07T12:39:24Z</time>
      </trkpt>
      <trkpt lat="45.62754" lon="6.83631">
        <ele>1601.7</ele>
        <time>2020-08-07T12:39:26Z</time>
      </trkpt>
      <trkpt lat="45.62743" lon="6.8364">
        <ele>1602.3</ele>
        <time>2020-08-07T12:39:28Z</time>
      </trkpt>
      <trkpt lat="45.62734" lon="6.83648">
        <ele>1602.7</ele>
        <time>2020-08-07T12:39:31Z</time>
      </trkpt>
      <trkpt lat="45.62731" lon="6.83652">
        <ele>1602.9</ele>
        <time>2020-08-07T12:39:32Z</time>
      </trkpt>
      <trkpt lat="45.62728" lon="6.83656">
        <ele>1603.2</ele>
        <time>2020-08-07T12:39:34Z</time>
      </trkpt>
      <trkpt lat="45.62726" lon="6.83659">
        <ele>1603.3</ele>
        <time>2020-08-07T12:39:36Z</time>
      </trkpt>
      <trkpt lat="45.6272" lon="6.8367">
        <ele>1603.9</ele>
        <time>2020-08-07T12:39:38Z</time>
      </trkpt>
      <trkpt lat="45.62717" lon="6.83676">
        <ele>1604.1</ele>
        <time>2020-08-07T12:39:39Z</time>
      </trkpt>
      <trkpt lat="45.62713" lon="6.83688">
        <ele>1604.7</ele>
        <time>2020-08-07T12:39:42Z</time>
      </trkpt>
      <trkpt lat="45.62711" lon="6.83693">
        <ele>1605</ele>
        <time>2020-08-07T12:39:43Z</time>
      </trkpt>
      <trkpt lat="45.62709" lon="6.83697">
        <ele>1605.2</ele>
        <time>2020-08-07T12:39:44Z</time>
      </trkpt>
      <trkpt lat="45.62706" lon="6.83703">
        <ele>1605.4</ele>
        <time>2020-08-07T12:39:46Z</time>
      </trkpt>
      <trkpt lat="45.62704" lon="6.83708">
        <ele>1605.7</ele>
        <time>2020-08-07T12:39:48Z</time>
      </trkpt>
      <trkpt lat="45.62702" lon="6.83715">
        <ele>1606</ele>
        <time>2020-08-07T12:39:49Z</time>
      </trkpt>
      <trkpt lat="45.627" lon="6.8372">
        <ele>1606.2</ele>
        <time>2020-08-07T12:39:51Z</time>
      </trkpt>
      <trkpt lat="45.62698" lon="6.83723">
        <ele>1606.4</ele>
        <time>2020-08-07T12:39:52Z</time>
      </trkpt>
      <trkpt lat="45.62694" lon="6.83734">
        <ele>1606.8</ele>
        <time>2020-08-07T12:39:53Z</time>
      </trkpt>
      <trkpt lat="45.62691" lon="6.8374">
        <ele>1607.1</ele>
        <time>2020-08-07T12:39:56Z</time>
      </trkpt>
      <trkpt lat="45.6269" lon="6.83744">
        <ele>1607.2</ele>
        <time>2020-08-07T12:39:57Z</time>
      </trkpt>
      <trkpt lat="45.62688" lon="6.83748">
        <ele>1607.4</ele>
        <time>2020-08-07T12:39:58Z</time>
      </trkpt>
      <trkpt lat="45.62683" lon="6.8376">
        <ele>1607.9</ele>
        <time>2020-08-07T12:39:59Z</time>
      </trkpt>
      <trkpt lat="45.62682" lon="6.83763">
        <ele>1608.1</ele>
        <time>2020-08-07T12:40:01Z</time>
      </trkpt>
      <trkpt lat="45.6268" lon="6.83767">
        <ele>1608.3</ele>
        <time>2020-08-07T12:40:02Z</time>
      </trkpt>
      <trkpt lat="45.62675" lon="6.83777">
        <ele>1608.7</ele>
        <time>2020-08-07T12:40:04Z</time>
      </trkpt>
      <trkpt lat="45.62672" lon="6.83783">
        <ele>1609</ele>
        <time>2020-08-07T12:40:06Z</time>
      </trkpt>
      <trkpt lat="45.62669" lon="6.83789">
        <ele>1609.2</ele>
        <time>2020-08-07T12:40:07Z</time>
      </trkpt>
      <trkpt lat="45.62666" lon="6.83792">
        <ele>1609.4</ele>
        <time>2020-08-07T12:40:08Z</time>
      </trkpt>
      <trkpt lat="45.6266" lon="6.838">
        <ele>1609.8</ele>
        <time>2020-08-07T12:40:11Z</time>
      </trkpt>
      <trkpt lat="45.62658" lon="6.83804">
        <ele>1610</ele>
        <time>2020-08-07T12:40:12Z</time>
      </trkpt>
      <trkpt lat="45.62654" lon="6.83809">
        <ele>1610.3</ele>
        <time>2020-08-07T12:40:13Z</time>
      </trkpt>
      <trkpt lat="45.62651" lon="6.83812">
        <ele>1610.5</ele>
        <time>2020-08-07T12:40:15Z</time>
      </trkpt>
      <trkpt lat="45.62647" lon="6.83816">
        <ele>1610.7</ele>
        <time>2020-08-07T12:40:16Z</time>
      </trkpt>
      <trkpt lat="45.62643" lon="6.83822">
        <ele>1611</ele>
        <time>2020-08-07T12:40:18Z</time>
      </trkpt>
      <trkpt lat="45.6264" lon="6.83825">
        <ele>1611.3</ele>
        <time>2020-08-07T12:40:19Z</time>
      </trkpt>
      <trkpt lat="45.62637" lon="6.83829">
        <ele>1611.5</ele>
        <time>2020-08-07T12:40:21Z</time>
      </trkpt>
      <trkpt lat="45.62634" lon="6.83832">
        <ele>1611.7</ele>
        <time>2020-08-07T12:40:22Z</time>
      </trkpt>
      <trkpt lat="45.62629" lon="6.83838">
        <ele>1612.1</ele>
        <time>2020-08-07T12:40:23Z</time>
      </trkpt>
      <trkpt lat="45.62624" lon="6.83843">
        <ele>1612.4</ele>
        <time>2020-08-07T12:40:24Z</time>
      </trkpt>
      <trkpt lat="45.6262" lon="6.83848">
        <ele>1612.7</ele>
        <time>2020-08-07T12:40:27Z</time>
      </trkpt>
      <trkpt lat="45.62611" lon="6.8386">
        <ele>1613.5</ele>
        <time>2020-08-07T12:40:29Z</time>
      </trkpt>
      <trkpt lat="45.62608" lon="6.83867">
        <ele>1613.8</ele>
        <time>2020-08-07T12:40:32Z</time>
      </trkpt>
      <trkpt lat="45.62604" lon="6.83879">
        <ele>1614.3</ele>
        <time>2020-08-07T12:40:33Z</time>
      </trkpt>
      <trkpt lat="45.626" lon="6.83889">
        <ele>1614.8</ele>
        <time>2020-08-07T12:40:36Z</time>
      </trkpt>
      <trkpt lat="45.62599" lon="6.83893">
        <ele>1615</ele>
        <time>2020-08-07T12:40:37Z</time>
      </trkpt>
      <trkpt lat="45.62595" lon="6.83901">
        <ele>1615.3</ele>
        <time>2020-08-07T12:40:39Z</time>
      </trkpt>
      <trkpt lat="45.62588" lon="6.83913">
        <ele>1615.9</ele>
        <time>2020-08-07T12:40:41Z</time>
      </trkpt>
      <trkpt lat="45.62583" lon="6.83922">
        <ele>1616.4</ele>
        <time>2020-08-07T12:40:44Z</time>
      </trkpt>
      <trkpt lat="45.62581" lon="6.83925">
        <ele>1616.6</ele>
        <time>2020-08-07T12:40:45Z</time>
      </trkpt>
      <trkpt lat="45.62578" lon="6.83932">
        <ele>1616.8</ele>
        <time>2020-08-07T12:40:46Z</time>
      </trkpt>
      <trkpt lat="45.62575" lon="6.83939">
        <ele>1617.2</ele>
        <time>2020-08-07T12:40:49Z</time>
      </trkpt>
      <trkpt lat="45.62569" lon="6.83953">
        <ele>1617.8</ele>
        <time>2020-08-07T12:40:51Z</time>
      </trkpt>
      <trkpt lat="45.62566" lon="6.83958">
        <ele>1618.1</ele>
        <time>2020-08-07T12:40:52Z</time>
      </trkpt>
      <trkpt lat="45.62564" lon="6.83963">
        <ele>1618.3</ele>
        <time>2020-08-07T12:40:54Z</time>
      </trkpt>
      <trkpt lat="45.62562" lon="6.83967">
        <ele>1618.5</ele>
        <time>2020-08-07T12:40:55Z</time>
      </trkpt>
      <trkpt lat="45.6256" lon="6.83972">
        <ele>1618.7</ele>
        <time>2020-08-07T12:40:56Z</time>
      </trkpt>
      <trkpt lat="45.62559" lon="6.83976">
        <ele>1618.8</ele>
        <time>2020-08-07T12:40:57Z</time>
      </trkpt>
      <trkpt lat="45.62554" lon="6.83984">
        <ele>1619.3</ele>
        <time>2020-08-07T12:40:59Z</time>
      </trkpt>
      <trkpt lat="45.62551" lon="6.83988">
        <ele>1619.5</ele>
        <time>2020-08-07T12:41:00Z</time>
      </trkpt>
      <trkpt lat="45.62548" lon="6.8399">
        <ele>1619.7</ele>
        <time>2020-08-07T12:41:01Z</time>
      </trkpt>
      <trkpt lat="45.62544" lon="6.83992">
        <ele>1619.9</ele>
        <time>2020-08-07T12:41:02Z</time>
      </trkpt>
      <trkpt lat="45.6254" lon="6.83995">
        <ele>1620.2</ele>
        <time>2020-08-07T12:41:04Z</time>
      </trkpt>
      <trkpt lat="45.62531" lon="6.83997">
        <ele>1620.7</ele>
        <time>2020-08-07T12:41:06Z</time>
      </trkpt>
      <trkpt lat="45.62527" lon="6.83998">
        <ele>1620.9</ele>
        <time>2020-08-07T12:41:07Z</time>
      </trkpt>
      <trkpt lat="45.62523" lon="6.83999">
        <ele>1621.1</ele>
        <time>2020-08-07T12:41:10Z</time>
      </trkpt>
      <trkpt lat="45.6252" lon="6.84001">
        <ele>1621.3</ele>
        <time>2020-08-07T12:41:11Z</time>
      </trkpt>
      <trkpt lat="45.62514" lon="6.84005">
        <ele>1621.6</ele>
        <time>2020-08-07T12:41:12Z</time>
      </trkpt>
      <trkpt lat="45.62509" lon="6.84009">
        <ele>1621.9</ele>
        <time>2020-08-07T12:41:14Z</time>
      </trkpt>
      <trkpt lat="45.62506" lon="6.84012">
        <ele>1622</ele>
        <time>2020-08-07T12:41:15Z</time>
      </trkpt>
      <trkpt lat="45.62503" lon="6.84015">
        <ele>1622.2</ele>
        <time>2020-08-07T12:41:16Z</time>
      </trkpt>
      <trkpt lat="45.625" lon="6.84018">
        <ele>1622.4</ele>
        <time>2020-08-07T12:41:18Z</time>
      </trkpt>
      <trkpt lat="45.62494" lon="6.84024">
        <ele>1622.7</ele>
        <time>2020-08-07T12:41:20Z</time>
      </trkpt>
      <trkpt lat="45.62487" lon="6.84033">
        <ele>1623.1</ele>
        <time>2020-08-07T12:41:21Z</time>
      </trkpt>
      <trkpt lat="45.62483" lon="6.84039">
        <ele>1623.4</ele>
        <time>2020-08-07T12:41:24Z</time>
      </trkpt>
      <trkpt lat="45.62479" lon="6.84044">
        <ele>1623.7</ele>
        <time>2020-08-07T12:41:25Z</time>
      </trkpt>
      <trkpt lat="45.62476" lon="6.84049">
        <ele>1623.9</ele>
        <time>2020-08-07T12:41:26Z</time>
      </trkpt>
      <trkpt lat="45.62473" lon="6.84052">
        <ele>1624.1</ele>
        <time>2020-08-07T12:41:28Z</time>
      </trkpt>
      <trkpt lat="45.62471" lon="6.84055">
        <ele>1624.3</ele>
        <time>2020-08-07T12:41:29Z</time>
      </trkpt>
      <trkpt lat="45.62466" lon="6.84061">
        <ele>1624.6</ele>
        <time>2020-08-07T12:41:30Z</time>
      </trkpt>
      <trkpt lat="45.62464" lon="6.84065">
        <ele>1624.8</ele>
        <time>2020-08-07T12:41:31Z</time>
      </trkpt>
      <trkpt lat="45.62462" lon="6.84069">
        <ele>1625</ele>
        <time>2020-08-07T12:41:32Z</time>
      </trkpt>
      <trkpt lat="45.62458" lon="6.84075">
        <ele>1625.3</ele>
        <time>2020-08-07T12:41:34Z</time>
      </trkpt>
      <trkpt lat="45.62456" lon="6.84079">
        <ele>1625.5</ele>
        <time>2020-08-07T12:41:35Z</time>
      </trkpt>
      <trkpt lat="45.62454" lon="6.84084">
        <ele>1625.7</ele>
        <time>2020-08-07T12:41:36Z</time>
      </trkpt>
      <trkpt lat="45.62449" lon="6.84097">
        <ele>1626.2</ele>
        <time>2020-08-07T12:41:39Z</time>
      </trkpt>
      <trkpt lat="45.62446" lon="6.84105">
        <ele>1626.5</ele>
        <time>2020-08-07T12:41:42Z</time>
      </trkpt>
      <trkpt lat="45.62443" lon="6.84113">
        <ele>1626.8</ele>
        <time>2020-08-07T12:41:43Z</time>
      </trkpt>
      <trkpt lat="45.62439" lon="6.8412">
        <ele>1627.1</ele>
        <time>2020-08-07T12:41:45Z</time>
      </trkpt>
      <trkpt lat="45.62436" lon="6.84126">
        <ele>1627.3</ele>
        <time>2020-08-07T12:41:47Z</time>
      </trkpt>
      <trkpt lat="45.62431" lon="6.84133">
        <ele>1627.7</ele>
        <time>2020-08-07T12:41:49Z</time>
      </trkpt>
      <trkpt lat="45.62424" lon="6.8414">
        <ele>1628.2</ele>
        <time>2020-08-07T12:41:50Z</time>
      </trkpt>
      <trkpt lat="45.6242" lon="6.84143">
        <ele>1628.4</ele>
        <time>2020-08-07T12:41:52Z</time>
      </trkpt>
      <trkpt lat="45.62417" lon="6.84146">
        <ele>1628.7</ele>
        <time>2020-08-07T12:41:53Z</time>
      </trkpt>
      <trkpt lat="45.62409" lon="6.84151">
        <ele>1629.2</ele>
        <time>2020-08-07T12:41:55Z</time>
      </trkpt>
      <trkpt lat="45.62405" lon="6.84153">
        <ele>1629.4</ele>
        <time>2020-08-07T12:41:58Z</time>
      </trkpt>
      <trkpt lat="45.62396" lon="6.84159">
        <ele>1630</ele>
        <time>2020-08-07T12:42:00Z</time>
      </trkpt>
      <trkpt lat="45.62393" lon="6.84162">
        <ele>1630.3</ele>
        <time>2020-08-07T12:42:01Z</time>
      </trkpt>
      <trkpt lat="45.62388" lon="6.84165">
        <ele>1630.6</ele>
        <time>2020-08-07T12:42:02Z</time>
      </trkpt>
      <trkpt lat="45.62383" lon="6.84169">
        <ele>1631</ele>
        <time>2020-08-07T12:42:04Z</time>
      </trkpt>
      <trkpt lat="45.62379" lon="6.84171">
        <ele>1631.2</ele>
        <time>2020-08-07T12:42:05Z</time>
      </trkpt>
      <trkpt lat="45.62369" lon="6.84178">
        <ele>1631.9</ele>
        <time>2020-08-07T12:42:08Z</time>
      </trkpt>
      <trkpt lat="45.62367" lon="6.8418">
        <ele>1632.1</ele>
        <time>2020-08-07T12:42:09Z</time>
      </trkpt>
      <trkpt lat="45.62364" lon="6.84182">
        <ele>1632.3</ele>
        <time>2020-08-07T12:42:10Z</time>
      </trkpt>
      <trkpt lat="45.62361" lon="6.84184">
        <ele>1632.6</ele>
        <time>2020-08-07T12:42:11Z</time>
      </trkpt>
      <trkpt lat="45.62358" lon="6.84188">
        <ele>1632.8</ele>
        <time>2020-08-07T12:42:13Z</time>
      </trkpt>
      <trkpt lat="45.62353" lon="6.84194">
        <ele>1633.1</ele>
        <time>2020-08-07T12:42:15Z</time>
      </trkpt>
      <trkpt lat="45.62351" lon="6.84196">
        <ele>1633.3</ele>
        <time>2020-08-07T12:42:16Z</time>
      </trkpt>
      <trkpt lat="45.62347" lon="6.84202">
        <ele>1633.6</ele>
        <time>2020-08-07T12:42:18Z</time>
      </trkpt>
      <trkpt lat="45.62345" lon="6.84205">
        <ele>1633.7</ele>
        <time>2020-08-07T12:42:19Z</time>
      </trkpt>
      <trkpt lat="45.62343" lon="6.84209">
        <ele>1633.9</ele>
        <time>2020-08-07T12:42:21Z</time>
      </trkpt>
      <trkpt lat="45.62341" lon="6.84213">
        <ele>1634</ele>
        <time>2020-08-07T12:42:22Z</time>
      </trkpt>
      <trkpt lat="45.62339" lon="6.84217">
        <ele>1634.2</ele>
        <time>2020-08-07T12:42:23Z</time>
      </trkpt>
      <trkpt lat="45.62335" lon="6.84224">
        <ele>1634.4</ele>
        <time>2020-08-07T12:42:25Z</time>
      </trkpt>
      <trkpt lat="45.62333" lon="6.8423">
        <ele>1634.5</ele>
        <time>2020-08-07T12:42:26Z</time>
      </trkpt>
      <trkpt lat="45.6233" lon="6.84238">
        <ele>1634.7</ele>
        <time>2020-08-07T12:42:27Z</time>
      </trkpt>
      <trkpt lat="45.62326" lon="6.84248">
        <ele>1634.9</ele>
        <time>2020-08-07T12:42:30Z</time>
      </trkpt>
      <trkpt lat="45.62323" lon="6.84256">
        <ele>1635</ele>
        <time>2020-08-07T12:42:32Z</time>
      </trkpt>
      <trkpt lat="45.62322" lon="6.84261">
        <ele>1635.1</ele>
        <time>2020-08-07T12:42:33Z</time>
      </trkpt>
      <trkpt lat="45.62321" lon="6.84266">
        <ele>1635.2</ele>
        <time>2020-08-07T12:42:34Z</time>
      </trkpt>
      <trkpt lat="45.62318" lon="6.84276">
        <ele>1635.4</ele>
        <time>2020-08-07T12:42:36Z</time>
      </trkpt>
      <trkpt lat="45.62317" lon="6.84281">
        <ele>1635.5</ele>
        <time>2020-08-07T12:42:37Z</time>
      </trkpt>
      <trkpt lat="45.62316" lon="6.84287">
        <ele>1635.6</ele>
        <time>2020-08-07T12:42:38Z</time>
      </trkpt>
      <trkpt lat="45.62314" lon="6.84298">
        <ele>1635.8</ele>
        <time>2020-08-07T12:42:40Z</time>
      </trkpt>
      <trkpt lat="45.62313" lon="6.84303">
        <ele>1635.9</ele>
        <time>2020-08-07T12:42:41Z</time>
      </trkpt>
      <trkpt lat="45.62312" lon="6.84316">
        <ele>1636.2</ele>
        <time>2020-08-07T12:42:42Z</time>
      </trkpt>
      <trkpt lat="45.62311" lon="6.84325">
        <ele>1636.4</ele>
        <time>2020-08-07T12:42:44Z</time>
      </trkpt>
      <trkpt lat="45.62311" lon="6.84331">
        <ele>1636.5</ele>
        <time>2020-08-07T12:42:45Z</time>
      </trkpt>
      <trkpt lat="45.62308" lon="6.84341">
        <ele>1636.8</ele>
        <time>2020-08-07T12:42:46Z</time>
      </trkpt>
      <trkpt lat="45.62306" lon="6.84349">
        <ele>1636.9</ele>
        <time>2020-08-07T12:42:49Z</time>
      </trkpt>
      <trkpt lat="45.62303" lon="6.84359">
        <ele>1637.2</ele>
        <time>2020-08-07T12:42:51Z</time>
      </trkpt>
      <trkpt lat="45.623" lon="6.84369">
        <ele>1637.5</ele>
        <time>2020-08-07T12:42:53Z</time>
      </trkpt>
      <trkpt lat="45.62298" lon="6.84374">
        <ele>1637.6</ele>
        <time>2020-08-07T12:42:54Z</time>
      </trkpt>
      <trkpt lat="45.62295" lon="6.84383">
        <ele>1637.8</ele>
        <time>2020-08-07T12:42:56Z</time>
      </trkpt>
      <trkpt lat="45.62293" lon="6.84388">
        <ele>1638</ele>
        <time>2020-08-07T12:42:57Z</time>
      </trkpt>
      <trkpt lat="45.62291" lon="6.84397">
        <ele>1638.2</ele>
        <time>2020-08-07T12:42:59Z</time>
      </trkpt>
      <trkpt lat="45.62288" lon="6.84405">
        <ele>1638.4</ele>
        <time>2020-08-07T12:43:00Z</time>
      </trkpt>
      <trkpt lat="45.62285" lon="6.84411">
        <ele>1638.6</ele>
        <time>2020-08-07T12:43:02Z</time>
      </trkpt>
      <trkpt lat="45.62284" lon="6.84416">
        <ele>1638.7</ele>
        <time>2020-08-07T12:43:03Z</time>
      </trkpt>
      <trkpt lat="45.62281" lon="6.84425">
        <ele>1638.9</ele>
        <time>2020-08-07T12:43:04Z</time>
      </trkpt>
      <trkpt lat="45.62279" lon="6.8443">
        <ele>1639.1</ele>
        <time>2020-08-07T12:43:05Z</time>
      </trkpt>
      <trkpt lat="45.62278" lon="6.84435">
        <ele>1639.2</ele>
        <time>2020-08-07T12:43:07Z</time>
      </trkpt>
      <trkpt lat="45.62274" lon="6.84444">
        <ele>1639.3</ele>
        <time>2020-08-07T12:43:09Z</time>
      </trkpt>
      <trkpt lat="45.62272" lon="6.84449">
        <ele>1639.3</ele>
        <time>2020-08-07T12:43:10Z</time>
      </trkpt>
      <trkpt lat="45.62271" lon="6.84453">
        <ele>1639.3</ele>
        <time>2020-08-07T12:43:11Z</time>
      </trkpt>
      <trkpt lat="45.62268" lon="6.84462">
        <ele>1639.3</ele>
        <time>2020-08-07T12:43:13Z</time>
      </trkpt>
      <trkpt lat="45.62263" lon="6.84473">
        <ele>1639.4</ele>
        <time>2020-08-07T12:43:14Z</time>
      </trkpt>
      <trkpt lat="45.62258" lon="6.84488">
        <ele>1639.4</ele>
        <time>2020-08-07T12:43:17Z</time>
      </trkpt>
      <trkpt lat="45.62256" lon="6.84493">
        <ele>1639.5</ele>
        <time>2020-08-07T12:43:19Z</time>
      </trkpt>
      <trkpt lat="45.62253" lon="6.84497">
        <ele>1639.5</ele>
        <time>2020-08-07T12:43:20Z</time>
      </trkpt>
      <trkpt lat="45.62251" lon="6.84501">
        <ele>1639.6</ele>
        <time>2020-08-07T12:43:21Z</time>
      </trkpt>
      <trkpt lat="45.62244" lon="6.8451">
        <ele>1639.7</ele>
        <time>2020-08-07T12:43:23Z</time>
      </trkpt>
      <trkpt lat="45.62241" lon="6.84513">
        <ele>1639.8</ele>
        <time>2020-08-07T12:43:24Z</time>
      </trkpt>
      <trkpt lat="45.62238" lon="6.84518">
        <ele>1639.8</ele>
        <time>2020-08-07T12:43:26Z</time>
      </trkpt>
      <trkpt lat="45.62235" lon="6.8452">
        <ele>1639.9</ele>
        <time>2020-08-07T12:43:27Z</time>
      </trkpt>
      <trkpt lat="45.62232" lon="6.84523">
        <ele>1639.9</ele>
        <time>2020-08-07T12:43:28Z</time>
      </trkpt>
      <trkpt lat="45.62229" lon="6.84526">
        <ele>1640</ele>
        <time>2020-08-07T12:43:29Z</time>
      </trkpt>
      <trkpt lat="45.62226" lon="6.8453">
        <ele>1640.1</ele>
        <time>2020-08-07T12:43:31Z</time>
      </trkpt>
      <trkpt lat="45.62223" lon="6.84533">
        <ele>1640.1</ele>
        <time>2020-08-07T12:43:32Z</time>
      </trkpt>
      <trkpt lat="45.62218" lon="6.8454">
        <ele>1640.3</ele>
        <time>2020-08-07T12:43:33Z</time>
      </trkpt>
      <trkpt lat="45.62215" lon="6.84544">
        <ele>1640.3</ele>
        <time>2020-08-07T12:43:35Z</time>
      </trkpt>
      <trkpt lat="45.62212" lon="6.84549">
        <ele>1640.4</ele>
        <time>2020-08-07T12:43:37Z</time>
      </trkpt>
      <trkpt lat="45.62209" lon="6.84554">
        <ele>1640.5</ele>
        <time>2020-08-07T12:43:38Z</time>
      </trkpt>
      <trkpt lat="45.62207" lon="6.84558">
        <ele>1640.5</ele>
        <time>2020-08-07T12:43:40Z</time>
      </trkpt>
      <trkpt lat="45.62206" lon="6.84561">
        <ele>1640.6</ele>
        <time>2020-08-07T12:43:41Z</time>
      </trkpt>
      <trkpt lat="45.62203" lon="6.8457">
        <ele>1640.7</ele>
        <time>2020-08-07T12:43:42Z</time>
      </trkpt>
      <trkpt lat="45.62202" lon="6.84575">
        <ele>1640.7</ele>
        <time>2020-08-07T12:43:44Z</time>
      </trkpt>
      <trkpt lat="45.622" lon="6.84584">
        <ele>1640.8</ele>
        <time>2020-08-07T12:43:46Z</time>
      </trkpt>
      <trkpt lat="45.62198" lon="6.8459">
        <ele>1640.9</ele>
        <time>2020-08-07T12:43:47Z</time>
      </trkpt>
      <trkpt lat="45.62195" lon="6.84597">
        <ele>1641</ele>
        <time>2020-08-07T12:43:49Z</time>
      </trkpt>
      <trkpt lat="45.6219" lon="6.84605">
        <ele>1641.2</ele>
        <time>2020-08-07T12:43:51Z</time>
      </trkpt>
      <trkpt lat="45.62182" lon="6.84616">
        <ele>1641.3</ele>
        <time>2020-08-07T12:43:53Z</time>
      </trkpt>
      <trkpt lat="45.62177" lon="6.84627">
        <ele>1641.8</ele>
        <time>2020-08-07T12:43:56Z</time>
      </trkpt>
      <trkpt lat="45.62174" lon="6.84632">
        <ele>1642.4</ele>
        <time>2020-08-07T12:43:57Z</time>
      </trkpt>
      <trkpt lat="45.62173" lon="6.84638">
        <ele>1642.8</ele>
        <time>2020-08-07T12:43:59Z</time>
      </trkpt>
      <trkpt lat="45.62172" lon="6.84643">
        <ele>1643.3</ele>
        <time>2020-08-07T12:44:01Z</time>
      </trkpt>
      <trkpt lat="45.6217" lon="6.84655">
        <ele>1644.2</ele>
        <time>2020-08-07T12:44:02Z</time>
      </trkpt>
      <trkpt lat="45.6217" lon="6.84662">
        <ele>1644.7</ele>
        <time>2020-08-07T12:44:04Z</time>
      </trkpt>
      <trkpt lat="45.6217" lon="6.84667">
        <ele>1645</ele>
        <time>2020-08-07T12:44:06Z</time>
      </trkpt>
      <trkpt lat="45.6217" lon="6.84672">
        <ele>1645.4</ele>
        <time>2020-08-07T12:44:07Z</time>
      </trkpt>
      <trkpt lat="45.6217" lon="6.84682">
        <ele>1646.1</ele>
        <time>2020-08-07T12:44:08Z</time>
      </trkpt>
      <trkpt lat="45.62171" lon="6.84687">
        <ele>1646.4</ele>
        <time>2020-08-07T12:44:10Z</time>
      </trkpt>
      <trkpt lat="45.62172" lon="6.84694">
        <ele>1646.9</ele>
        <time>2020-08-07T12:44:12Z</time>
      </trkpt>
      <trkpt lat="45.62172" lon="6.84699">
        <ele>1647.2</ele>
        <time>2020-08-07T12:44:13Z</time>
      </trkpt>
      <trkpt lat="45.62173" lon="6.84703">
        <ele>1647.5</ele>
        <time>2020-08-07T12:44:14Z</time>
      </trkpt>
      <trkpt lat="45.62173" lon="6.84713">
        <ele>1648.1</ele>
        <time>2020-08-07T12:44:15Z</time>
      </trkpt>
      <trkpt lat="45.62174" lon="6.84718">
        <ele>1648.4</ele>
        <time>2020-08-07T12:44:17Z</time>
      </trkpt>
      <trkpt lat="45.62174" lon="6.84723">
        <ele>1648.7</ele>
        <time>2020-08-07T12:44:18Z</time>
      </trkpt>
      <trkpt lat="45.62175" lon="6.84728">
        <ele>1649</ele>
        <time>2020-08-07T12:44:20Z</time>
      </trkpt>
      <trkpt lat="45.62177" lon="6.84741">
        <ele>1649.8</ele>
        <time>2020-08-07T12:44:21Z</time>
      </trkpt>
      <trkpt lat="45.62177" lon="6.84752">
        <ele>1650.3</ele>
        <time>2020-08-07T12:44:24Z</time>
      </trkpt>
      <trkpt lat="45.62177" lon="6.84757">
        <ele>1650.6</ele>
        <time>2020-08-07T12:44:25Z</time>
      </trkpt>
      <trkpt lat="45.62177" lon="6.84762">
        <ele>1650.8</ele>
        <time>2020-08-07T12:44:28Z</time>
      </trkpt>
      <trkpt lat="45.62178" lon="6.8477">
        <ele>1651.2</ele>
        <time>2020-08-07T12:44:30Z</time>
      </trkpt>
      <trkpt lat="45.62178" lon="6.84781">
        <ele>1651.6</ele>
        <time>2020-08-07T12:44:31Z</time>
      </trkpt>
      <trkpt lat="45.62179" lon="6.84785">
        <ele>1651.7</ele>
        <time>2020-08-07T12:44:32Z</time>
      </trkpt>
      <trkpt lat="45.62179" lon="6.84792">
        <ele>1651.9</ele>
        <time>2020-08-07T12:44:35Z</time>
      </trkpt>
      <trkpt lat="45.62179" lon="6.84796">
        <ele>1652.1</ele>
        <time>2020-08-07T12:44:36Z</time>
      </trkpt>
      <trkpt lat="45.62179" lon="6.84801">
        <ele>1652.3</ele>
        <time>2020-08-07T12:44:37Z</time>
      </trkpt>
      <trkpt lat="45.62179" lon="6.8481">
        <ele>1652.6</ele>
        <time>2020-08-07T12:44:39Z</time>
      </trkpt>
      <trkpt lat="45.62178" lon="6.84819">
        <ele>1652.9</ele>
        <time>2020-08-07T12:44:41Z</time>
      </trkpt>
      <trkpt lat="45.62177" lon="6.84828">
        <ele>1653.2</ele>
        <time>2020-08-07T12:44:43Z</time>
      </trkpt>
      <trkpt lat="45.62177" lon="6.84838">
        <ele>1653.5</ele>
        <time>2020-08-07T12:44:45Z</time>
      </trkpt>
      <trkpt lat="45.62176" lon="6.84847">
        <ele>1653.9</ele>
        <time>2020-08-07T12:44:47Z</time>
      </trkpt>
      <trkpt lat="45.62175" lon="6.84855">
        <ele>1654.1</ele>
        <time>2020-08-07T12:44:48Z</time>
      </trkpt>
      <trkpt lat="45.62175" lon="6.84862">
        <ele>1654.4</ele>
        <time>2020-08-07T12:44:50Z</time>
      </trkpt>
      <trkpt lat="45.62175" lon="6.8487">
        <ele>1654.7</ele>
        <time>2020-08-07T12:44:52Z</time>
      </trkpt>
      <trkpt lat="45.62174" lon="6.84881">
        <ele>1655.1</ele>
        <time>2020-08-07T12:44:53Z</time>
      </trkpt>
      <trkpt lat="45.62174" lon="6.84889">
        <ele>1655.4</ele>
        <time>2020-08-07T12:44:55Z</time>
      </trkpt>
      <trkpt lat="45.62173" lon="6.84908">
        <ele>1656.1</ele>
        <time>2020-08-07T12:44:58Z</time>
      </trkpt>
      <trkpt lat="45.62174" lon="6.84914">
        <ele>1656.3</ele>
        <time>2020-08-07T12:45:01Z</time>
      </trkpt>
      <trkpt lat="45.62174" lon="6.84928">
        <ele>1656.9</ele>
        <time>2020-08-07T12:45:03Z</time>
      </trkpt>
      <trkpt lat="45.62174" lon="6.84933">
        <ele>1657.1</ele>
        <time>2020-08-07T12:45:04Z</time>
      </trkpt>
      <trkpt lat="45.62174" lon="6.84938">
        <ele>1657.3</ele>
        <time>2020-08-07T12:45:05Z</time>
      </trkpt>
      <trkpt lat="45.62174" lon="6.84944">
        <ele>1657.5</ele>
        <time>2020-08-07T12:45:07Z</time>
      </trkpt>
      <trkpt lat="45.62175" lon="6.8495">
        <ele>1657.8</ele>
        <time>2020-08-07T12:45:09Z</time>
      </trkpt>
      <trkpt lat="45.62175" lon="6.8496">
        <ele>1658.1</ele>
        <time>2020-08-07T12:45:11Z</time>
      </trkpt>
      <trkpt lat="45.62176" lon="6.84968">
        <ele>1658.5</ele>
        <time>2020-08-07T12:45:13Z</time>
      </trkpt>
      <trkpt lat="45.62176" lon="6.84974">
        <ele>1658.7</ele>
        <time>2020-08-07T12:45:14Z</time>
      </trkpt>
      <trkpt lat="45.62176" lon="6.84979">
        <ele>1658.8</ele>
        <time>2020-08-07T12:45:15Z</time>
      </trkpt>
      <trkpt lat="45.62177" lon="6.84987">
        <ele>1659.1</ele>
        <time>2020-08-07T12:45:16Z</time>
      </trkpt>
      <trkpt lat="45.62178" lon="6.84992">
        <ele>1659.3</ele>
        <time>2020-08-07T12:45:18Z</time>
      </trkpt>
      <trkpt lat="45.62179" lon="6.85002">
        <ele>1659.6</ele>
        <time>2020-08-07T12:45:20Z</time>
      </trkpt>
      <trkpt lat="45.62179" lon="6.85006">
        <ele>1659.8</ele>
        <time>2020-08-07T12:45:21Z</time>
      </trkpt>
      <trkpt lat="45.6218" lon="6.85015">
        <ele>1660.1</ele>
        <time>2020-08-07T12:45:23Z</time>
      </trkpt>
      <trkpt lat="45.6218" lon="6.85028">
        <ele>1660.5</ele>
        <time>2020-08-07T12:45:24Z</time>
      </trkpt>
      <trkpt lat="45.6218" lon="6.85035">
        <ele>1660.8</ele>
        <time>2020-08-07T12:45:26Z</time>
      </trkpt>
      <trkpt lat="45.6218" lon="6.85045">
        <ele>1661.1</ele>
        <time>2020-08-07T12:45:28Z</time>
      </trkpt>
      <trkpt lat="45.62179" lon="6.85051">
        <ele>1661.3</ele>
        <time>2020-08-07T12:45:29Z</time>
      </trkpt>
      <trkpt lat="45.62178" lon="6.85059">
        <ele>1661.6</ele>
        <time>2020-08-07T12:45:30Z</time>
      </trkpt>
      <trkpt lat="45.62176" lon="6.85066">
        <ele>1661.8</ele>
        <time>2020-08-07T12:45:32Z</time>
      </trkpt>
      <trkpt lat="45.62171" lon="6.85079">
        <ele>1662.2</ele>
        <time>2020-08-07T12:45:34Z</time>
      </trkpt>
      <trkpt lat="45.62166" lon="6.85093">
        <ele>1662.7</ele>
        <time>2020-08-07T12:45:37Z</time>
      </trkpt>
      <trkpt lat="45.6216" lon="6.85108">
        <ele>1663.3</ele>
        <time>2020-08-07T12:45:40Z</time>
      </trkpt>
      <trkpt lat="45.62159" lon="6.85113">
        <ele>1663.5</ele>
        <time>2020-08-07T12:45:41Z</time>
      </trkpt>
      <trkpt lat="45.62155" lon="6.85126">
        <ele>1664</ele>
        <time>2020-08-07T12:45:44Z</time>
      </trkpt>
      <trkpt lat="45.62153" lon="6.85132">
        <ele>1664.3</ele>
        <time>2020-08-07T12:45:45Z</time>
      </trkpt>
      <trkpt lat="45.62152" lon="6.85138">
        <ele>1664.5</ele>
        <time>2020-08-07T12:45:46Z</time>
      </trkpt>
      <trkpt lat="45.62151" lon="6.85143">
        <ele>1664.7</ele>
        <time>2020-08-07T12:45:47Z</time>
      </trkpt>
      <trkpt lat="45.6215" lon="6.85151">
        <ele>1665</ele>
        <time>2020-08-07T12:45:50Z</time>
      </trkpt>
      <trkpt lat="45.62149" lon="6.85161">
        <ele>1665.4</ele>
        <time>2020-08-07T12:45:52Z</time>
      </trkpt>
      <trkpt lat="45.62148" lon="6.85166">
        <ele>1665.5</ele>
        <time>2020-08-07T12:45:53Z</time>
      </trkpt>
      <trkpt lat="45.62147" lon="6.85184">
        <ele>1666.2</ele>
        <time>2020-08-07T12:45:55Z</time>
      </trkpt>
      <trkpt lat="45.62146" lon="6.8519">
        <ele>1666.4</ele>
        <time>2020-08-07T12:45:56Z</time>
      </trkpt>
      <trkpt lat="45.62145" lon="6.85205">
        <ele>1667</ele>
        <time>2020-08-07T12:45:59Z</time>
      </trkpt>
      <trkpt lat="45.62144" lon="6.8521">
        <ele>1667.2</ele>
        <time>2020-08-07T12:46:00Z</time>
      </trkpt>
      <trkpt lat="45.62143" lon="6.85218">
        <ele>1667.4</ele>
        <time>2020-08-07T12:46:02Z</time>
      </trkpt>
      <trkpt lat="45.62143" lon="6.85223">
        <ele>1667.7</ele>
        <time>2020-08-07T12:46:04Z</time>
      </trkpt>
      <trkpt lat="45.62143" lon="6.85228">
        <ele>1667.8</ele>
        <time>2020-08-07T12:46:05Z</time>
      </trkpt>
      <trkpt lat="45.62143" lon="6.85244">
        <ele>1668.4</ele>
        <time>2020-08-07T12:46:07Z</time>
      </trkpt>
      <trkpt lat="45.62143" lon="6.85249">
        <ele>1668.6</ele>
        <time>2020-08-07T12:46:08Z</time>
      </trkpt>
      <trkpt lat="45.62143" lon="6.85267">
        <ele>1669.2</ele>
        <time>2020-08-07T12:46:11Z</time>
      </trkpt>
      <trkpt lat="45.62143" lon="6.85284">
        <ele>1669.7</ele>
        <time>2020-08-07T12:46:14Z</time>
      </trkpt>
      <trkpt lat="45.62144" lon="6.85292">
        <ele>1670</ele>
        <time>2020-08-07T12:46:17Z</time>
      </trkpt>
      <trkpt lat="45.62145" lon="6.85297">
        <ele>1670.2</ele>
        <time>2020-08-07T12:46:18Z</time>
      </trkpt>
      <trkpt lat="45.62146" lon="6.85307">
        <ele>1670.5</ele>
        <time>2020-08-07T12:46:20Z</time>
      </trkpt>
      <trkpt lat="45.62147" lon="6.85318">
        <ele>1670.8</ele>
        <time>2020-08-07T12:46:21Z</time>
      </trkpt>
      <trkpt lat="45.62146" lon="6.85324">
        <ele>1671.1</ele>
        <time>2020-08-07T12:46:22Z</time>
      </trkpt>
      <trkpt lat="45.62146" lon="6.8533">
        <ele>1671.3</ele>
        <time>2020-08-07T12:46:23Z</time>
      </trkpt>
      <trkpt lat="45.62147" lon="6.85349">
        <ele>1672</ele>
        <time>2020-08-07T12:46:26Z</time>
      </trkpt>
      <trkpt lat="45.62147" lon="6.85357">
        <ele>1672.2</ele>
        <time>2020-08-07T12:46:29Z</time>
      </trkpt>
      <trkpt lat="45.62148" lon="6.85368">
        <ele>1672.6</ele>
        <time>2020-08-07T12:46:31Z</time>
      </trkpt>
      <trkpt lat="45.62148" lon="6.85378">
        <ele>1673</ele>
        <time>2020-08-07T12:46:32Z</time>
      </trkpt>
      <trkpt lat="45.62149" lon="6.85384">
        <ele>1673.2</ele>
        <time>2020-08-07T12:46:34Z</time>
      </trkpt>
      <trkpt lat="45.62149" lon="6.85395">
        <ele>1673.6</ele>
        <time>2020-08-07T12:46:35Z</time>
      </trkpt>
      <trkpt lat="45.62149" lon="6.85401">
        <ele>1673.8</ele>
        <time>2020-08-07T12:46:36Z</time>
      </trkpt>
      <trkpt lat="45.6215" lon="6.8541">
        <ele>1674.1</ele>
        <time>2020-08-07T12:46:38Z</time>
      </trkpt>
      <trkpt lat="45.62151" lon="6.85415">
        <ele>1674.3</ele>
        <time>2020-08-07T12:46:39Z</time>
      </trkpt>
      <trkpt lat="45.62151" lon="6.8542">
        <ele>1674.5</ele>
        <time>2020-08-07T12:46:40Z</time>
      </trkpt>
      <trkpt lat="45.62152" lon="6.85425">
        <ele>1674.7</ele>
        <time>2020-08-07T12:46:42Z</time>
      </trkpt>
      <trkpt lat="45.62154" lon="6.85435">
        <ele>1675</ele>
        <time>2020-08-07T12:46:43Z</time>
      </trkpt>
      <trkpt lat="45.62155" lon="6.85441">
        <ele>1675.3</ele>
        <time>2020-08-07T12:46:44Z</time>
      </trkpt>
      <trkpt lat="45.62157" lon="6.85446">
        <ele>1675.5</ele>
        <time>2020-08-07T12:46:46Z</time>
      </trkpt>
      <trkpt lat="45.62159" lon="6.85451">
        <ele>1675.7</ele>
        <time>2020-08-07T12:46:47Z</time>
      </trkpt>
      <trkpt lat="45.62163" lon="6.85459">
        <ele>1676.1</ele>
        <time>2020-08-07T12:46:48Z</time>
      </trkpt>
      <trkpt lat="45.62167" lon="6.85471">
        <ele>1676.5</ele>
        <time>2020-08-07T12:46:50Z</time>
      </trkpt>
      <trkpt lat="45.62169" lon="6.85476">
        <ele>1676.7</ele>
        <time>2020-08-07T12:46:52Z</time>
      </trkpt>
      <trkpt lat="45.6217" lon="6.85483">
        <ele>1677</ele>
        <time>2020-08-07T12:46:53Z</time>
      </trkpt>
      <trkpt lat="45.62171" lon="6.85496">
        <ele>1677.4</ele>
        <time>2020-08-07T12:46:55Z</time>
      </trkpt>
      <trkpt lat="45.62169" lon="6.85509">
        <ele>1677.9</ele>
        <time>2020-08-07T12:46:58Z</time>
      </trkpt>
      <trkpt lat="45.62166" lon="6.85525">
        <ele>1678.4</ele>
        <time>2020-08-07T12:47:01Z</time>
      </trkpt>
      <trkpt lat="45.62165" lon="6.85531">
        <ele>1678.7</ele>
        <time>2020-08-07T12:47:02Z</time>
      </trkpt>
      <trkpt lat="45.62161" lon="6.85548">
        <ele>1679.3</ele>
        <time>2020-08-07T12:47:05Z</time>
      </trkpt>
      <trkpt lat="45.62159" lon="6.85556">
        <ele>1679.7</ele>
        <time>2020-08-07T12:47:08Z</time>
      </trkpt>
      <trkpt lat="45.62156" lon="6.85574">
        <ele>1680.2</ele>
        <time>2020-08-07T12:47:10Z</time>
      </trkpt>
      <trkpt lat="45.62155" lon="6.8558">
        <ele>1680.3</ele>
        <time>2020-08-07T12:47:12Z</time>
      </trkpt>
      <trkpt lat="45.62154" lon="6.85586">
        <ele>1680.5</ele>
        <time>2020-08-07T12:47:13Z</time>
      </trkpt>
      <trkpt lat="45.62153" lon="6.85591">
        <ele>1680.6</ele>
        <time>2020-08-07T12:47:15Z</time>
      </trkpt>
      <trkpt lat="45.62151" lon="6.85596">
        <ele>1680.8</ele>
        <time>2020-08-07T12:47:16Z</time>
      </trkpt>
      <trkpt lat="45.6215" lon="6.85601">
        <ele>1681</ele>
        <time>2020-08-07T12:47:17Z</time>
      </trkpt>
      <trkpt lat="45.62148" lon="6.8561">
        <ele>1681.3</ele>
        <time>2020-08-07T12:47:19Z</time>
      </trkpt>
      <trkpt lat="45.62147" lon="6.85614">
        <ele>1681.4</ele>
        <time>2020-08-07T12:47:20Z</time>
      </trkpt>
      <trkpt lat="45.62146" lon="6.85619">
        <ele>1681.6</ele>
        <time>2020-08-07T12:47:21Z</time>
      </trkpt>
      <trkpt lat="45.62144" lon="6.85627">
        <ele>1681.9</ele>
        <time>2020-08-07T12:47:22Z</time>
      </trkpt>
      <trkpt lat="45.62143" lon="6.85632">
        <ele>1682.1</ele>
        <time>2020-08-07T12:47:23Z</time>
      </trkpt>
      <trkpt lat="45.62141" lon="6.85643">
        <ele>1682.5</ele>
        <time>2020-08-07T12:47:25Z</time>
      </trkpt>
      <trkpt lat="45.6214" lon="6.85652">
        <ele>1682.8</ele>
        <time>2020-08-07T12:47:28Z</time>
      </trkpt>
      <trkpt lat="45.6214" lon="6.85656">
        <ele>1683</ele>
        <time>2020-08-07T12:47:29Z</time>
      </trkpt>
      <trkpt lat="45.6214" lon="6.85664">
        <ele>1683.3</ele>
        <time>2020-08-07T12:47:31Z</time>
      </trkpt>
      <trkpt lat="45.62141" lon="6.85669">
        <ele>1683.4</ele>
        <time>2020-08-07T12:47:32Z</time>
      </trkpt>
      <trkpt lat="45.62141" lon="6.85673">
        <ele>1683.6</ele>
        <time>2020-08-07T12:47:33Z</time>
      </trkpt>
      <trkpt lat="45.62144" lon="6.85682">
        <ele>1683.9</ele>
        <time>2020-08-07T12:47:35Z</time>
      </trkpt>
      <trkpt lat="45.62146" lon="6.8569">
        <ele>1684.2</ele>
        <time>2020-08-07T12:47:36Z</time>
      </trkpt>
      <trkpt lat="45.62147" lon="6.85698">
        <ele>1684.5</ele>
        <time>2020-08-07T12:47:38Z</time>
      </trkpt>
      <trkpt lat="45.62147" lon="6.85703">
        <ele>1684.7</ele>
        <time>2020-08-07T12:47:39Z</time>
      </trkpt>
      <trkpt lat="45.62147" lon="6.85712">
        <ele>1685</ele>
        <time>2020-08-07T12:47:41Z</time>
      </trkpt>
      <trkpt lat="45.62145" lon="6.85717">
        <ele>1685.2</ele>
        <time>2020-08-07T12:47:42Z</time>
      </trkpt>
      <trkpt lat="45.62139" lon="6.85735">
        <ele>1685.8</ele>
        <time>2020-08-07T12:47:44Z</time>
      </trkpt>
      <trkpt lat="45.62135" lon="6.85742">
        <ele>1686</ele>
        <time>2020-08-07T12:47:47Z</time>
      </trkpt>
      <trkpt lat="45.6213" lon="6.85749">
        <ele>1686.3</ele>
        <time>2020-08-07T12:47:49Z</time>
      </trkpt>
      <trkpt lat="45.62126" lon="6.85757">
        <ele>1686.6</ele>
        <time>2020-08-07T12:47:51Z</time>
      </trkpt>
      <trkpt lat="45.62124" lon="6.85765">
        <ele>1686.9</ele>
        <time>2020-08-07T12:47:53Z</time>
      </trkpt>
      <trkpt lat="45.62122" lon="6.85773">
        <ele>1687.2</ele>
        <time>2020-08-07T12:47:55Z</time>
      </trkpt>
      <trkpt lat="45.6212" lon="6.85782">
        <ele>1687.4</ele>
        <time>2020-08-07T12:47:57Z</time>
      </trkpt>
      <trkpt lat="45.62119" lon="6.85786">
        <ele>1687.6</ele>
        <time>2020-08-07T12:47:58Z</time>
      </trkpt>
      <trkpt lat="45.62117" lon="6.85799">
        <ele>1688</ele>
        <time>2020-08-07T12:48:00Z</time>
      </trkpt>
      <trkpt lat="45.62117" lon="6.85805">
        <ele>1688.1</ele>
        <time>2020-08-07T12:48:01Z</time>
      </trkpt>
      <trkpt lat="45.62117" lon="6.85817">
        <ele>1688.5</ele>
        <time>2020-08-07T12:48:03Z</time>
      </trkpt>
      <trkpt lat="45.62117" lon="6.85822">
        <ele>1688.6</ele>
        <time>2020-08-07T12:48:04Z</time>
      </trkpt>
      <trkpt lat="45.62117" lon="6.85835">
        <ele>1689</ele>
        <time>2020-08-07T12:48:06Z</time>
      </trkpt>
      <trkpt lat="45.62117" lon="6.85841">
        <ele>1689.1</ele>
        <time>2020-08-07T12:48:07Z</time>
      </trkpt>
      <trkpt lat="45.62116" lon="6.85854">
        <ele>1689.5</ele>
        <time>2020-08-07T12:48:09Z</time>
      </trkpt>
      <trkpt lat="45.62115" lon="6.85865">
        <ele>1689.8</ele>
        <time>2020-08-07T12:48:11Z</time>
      </trkpt>
      <trkpt lat="45.62114" lon="6.85877">
        <ele>1690.1</ele>
        <time>2020-08-07T12:48:13Z</time>
      </trkpt>
      <trkpt lat="45.62114" lon="6.85883">
        <ele>1690.3</ele>
        <time>2020-08-07T12:48:14Z</time>
      </trkpt>
      <trkpt lat="45.62113" lon="6.85889">
        <ele>1690.4</ele>
        <time>2020-08-07T12:48:15Z</time>
      </trkpt>
      <trkpt lat="45.62112" lon="6.85901">
        <ele>1690.8</ele>
        <time>2020-08-07T12:48:17Z</time>
      </trkpt>
      <trkpt lat="45.6211" lon="6.85911">
        <ele>1691</ele>
        <time>2020-08-07T12:48:19Z</time>
      </trkpt>
      <trkpt lat="45.62109" lon="6.85918">
        <ele>1691.2</ele>
        <time>2020-08-07T12:48:20Z</time>
      </trkpt>
      <trkpt lat="45.62106" lon="6.85928">
        <ele>1691.5</ele>
        <time>2020-08-07T12:48:22Z</time>
      </trkpt>
      <trkpt lat="45.62105" lon="6.85935">
        <ele>1691.7</ele>
        <time>2020-08-07T12:48:23Z</time>
      </trkpt>
      <trkpt lat="45.62103" lon="6.85948">
        <ele>1692</ele>
        <time>2020-08-07T12:48:25Z</time>
      </trkpt>
      <trkpt lat="45.62102" lon="6.85953">
        <ele>1692.2</ele>
        <time>2020-08-07T12:48:26Z</time>
      </trkpt>
      <trkpt lat="45.621" lon="6.85963">
        <ele>1692.7</ele>
        <time>2020-08-07T12:48:28Z</time>
      </trkpt>
      <trkpt lat="45.621" lon="6.85969">
        <ele>1693</ele>
        <time>2020-08-07T12:48:29Z</time>
      </trkpt>
      <trkpt lat="45.62103" lon="6.85979">
        <ele>1693.5</ele>
        <time>2020-08-07T12:48:31Z</time>
      </trkpt>
      <trkpt lat="45.62106" lon="6.85983">
        <ele>1693.8</ele>
        <time>2020-08-07T12:48:32Z</time>
      </trkpt>
      <trkpt lat="45.62109" lon="6.85986">
        <ele>1694</ele>
        <time>2020-08-07T12:48:33Z</time>
      </trkpt>
      <trkpt lat="45.62117" lon="6.85981">
        <ele>1694.4</ele>
        <time>2020-08-07T12:48:35Z</time>
      </trkpt>
      <trkpt lat="45.62121" lon="6.85969">
        <ele>1694.7</ele>
        <time>2020-08-07T12:48:37Z</time>
      </trkpt>
      <trkpt lat="45.62122" lon="6.85957">
        <ele>1695</ele>
        <time>2020-08-07T12:48:39Z</time>
      </trkpt>
      <trkpt lat="45.62122" lon="6.85951">
        <ele>1695.1</ele>
        <time>2020-08-07T12:48:40Z</time>
      </trkpt>
      <trkpt lat="45.62123" lon="6.85945">
        <ele>1695.2</ele>
        <time>2020-08-07T12:48:41Z</time>
      </trkpt>
      <trkpt lat="45.62124" lon="6.85938">
        <ele>1695.4</ele>
        <time>2020-08-07T12:48:42Z</time>
      </trkpt>
      <trkpt lat="45.62124" lon="6.85934">
        <ele>1695.5</ele>
        <time>2020-08-07T12:48:43Z</time>
      </trkpt>
      <trkpt lat="45.62125" lon="6.85928">
        <ele>1695.6</ele>
        <time>2020-08-07T12:48:44Z</time>
      </trkpt>
      <trkpt lat="45.62126" lon="6.85916">
        <ele>1695.8</ele>
        <time>2020-08-07T12:48:46Z</time>
      </trkpt>
      <trkpt lat="45.62127" lon="6.85907">
        <ele>1695.8</ele>
        <time>2020-08-07T12:48:48Z</time>
      </trkpt>
      <trkpt lat="45.62129" lon="6.85896">
        <ele>1695.7</ele>
        <time>2020-08-07T12:48:50Z</time>
      </trkpt>
      <trkpt lat="45.6213" lon="6.85891">
        <ele>1695.6</ele>
        <time>2020-08-07T12:48:51Z</time>
      </trkpt>
      <trkpt lat="45.62131" lon="6.8588">
        <ele>1695.6</ele>
        <time>2020-08-07T12:48:53Z</time>
      </trkpt>
      <trkpt lat="45.62132" lon="6.85876">
        <ele>1695.6</ele>
        <time>2020-08-07T12:48:54Z</time>
      </trkpt>
      <trkpt lat="45.62134" lon="6.85865">
        <ele>1695.6</ele>
        <time>2020-08-07T12:48:56Z</time>
      </trkpt>
      <trkpt lat="45.62136" lon="6.85853">
        <ele>1695.6</ele>
        <time>2020-08-07T12:48:58Z</time>
      </trkpt>
      <trkpt lat="45.62136" lon="6.85849">
        <ele>1695.6</ele>
        <time>2020-08-07T12:48:59Z</time>
      </trkpt>
      <trkpt lat="45.62137" lon="6.85845">
        <ele>1695.7</ele>
        <time>2020-08-07T12:49:00Z</time>
      </trkpt>
      <trkpt lat="45.62139" lon="6.85835">
        <ele>1695.7</ele>
        <time>2020-08-07T12:49:02Z</time>
      </trkpt>
      <trkpt lat="45.6214" lon="6.85824">
        <ele>1695.8</ele>
        <time>2020-08-07T12:49:04Z</time>
      </trkpt>
      <trkpt lat="45.6214" lon="6.85819">
        <ele>1695.8</ele>
        <time>2020-08-07T12:49:05Z</time>
      </trkpt>
      <trkpt lat="45.62141" lon="6.85811">
        <ele>1695.7</ele>
        <time>2020-08-07T12:49:07Z</time>
      </trkpt>
      <trkpt lat="45.62142" lon="6.85806">
        <ele>1695.8</ele>
        <time>2020-08-07T12:49:08Z</time>
      </trkpt>
      <trkpt lat="45.62143" lon="6.85797">
        <ele>1696.5</ele>
        <time>2020-08-07T12:49:10Z</time>
      </trkpt>
      <trkpt lat="45.62144" lon="6.85792">
        <ele>1697</ele>
        <time>2020-08-07T12:49:11Z</time>
      </trkpt>
      <trkpt lat="45.62144" lon="6.85788">
        <ele>1697.4</ele>
        <time>2020-08-07T12:49:12Z</time>
      </trkpt>
      <trkpt lat="45.62145" lon="6.85783">
        <ele>1697.7</ele>
        <time>2020-08-07T12:49:13Z</time>
      </trkpt>
      <trkpt lat="45.62147" lon="6.85774">
        <ele>1698.5</ele>
        <time>2020-08-07T12:49:15Z</time>
      </trkpt>
      <trkpt lat="45.62148" lon="6.8577">
        <ele>1698.9</ele>
        <time>2020-08-07T12:49:16Z</time>
      </trkpt>
      <trkpt lat="45.62149" lon="6.85766">
        <ele>1699.2</ele>
        <time>2020-08-07T12:49:17Z</time>
      </trkpt>
      <trkpt lat="45.62153" lon="6.8576">
        <ele>1699.8</ele>
        <time>2020-08-07T12:49:19Z</time>
      </trkpt>
      <trkpt lat="45.62157" lon="6.85753">
        <ele>1700.5</ele>
        <time>2020-08-07T12:49:21Z</time>
      </trkpt>
      <trkpt lat="45.62161" lon="6.85745">
        <ele>1701.2</ele>
        <time>2020-08-07T12:49:23Z</time>
      </trkpt>
      <trkpt lat="45.62163" lon="6.85742">
        <ele>1701.5</ele>
        <time>2020-08-07T12:49:24Z</time>
      </trkpt>
      <trkpt lat="45.62167" lon="6.85738">
        <ele>1702.1</ele>
        <time>2020-08-07T12:49:26Z</time>
      </trkpt>
      <trkpt lat="45.62172" lon="6.85733">
        <ele>1702.7</ele>
        <time>2020-08-07T12:49:28Z</time>
      </trkpt>
      <trkpt lat="45.62175" lon="6.8573">
        <ele>1703.1</ele>
        <time>2020-08-07T12:49:29Z</time>
      </trkpt>
      <trkpt lat="45.62181" lon="6.85725">
        <ele>1703.8</ele>
        <time>2020-08-07T12:49:31Z</time>
      </trkpt>
      <trkpt lat="45.62185" lon="6.85721">
        <ele>1704.4</ele>
        <time>2020-08-07T12:49:33Z</time>
      </trkpt>
      <trkpt lat="45.62188" lon="6.85718">
        <ele>1704.7</ele>
        <time>2020-08-07T12:49:34Z</time>
      </trkpt>
      <trkpt lat="45.6219" lon="6.85716">
        <ele>1705</ele>
        <time>2020-08-07T12:49:35Z</time>
      </trkpt>
      <trkpt lat="45.62192" lon="6.85713">
        <ele>1705.3</ele>
        <time>2020-08-07T12:49:36Z</time>
      </trkpt>
      <trkpt lat="45.62195" lon="6.85706">
        <ele>1705.7</ele>
        <time>2020-08-07T12:49:38Z</time>
      </trkpt>
      <trkpt lat="45.62197" lon="6.85703">
        <ele>1705.9</ele>
        <time>2020-08-07T12:49:39Z</time>
      </trkpt>
      <trkpt lat="45.622" lon="6.85695">
        <ele>1706.3</ele>
        <time>2020-08-07T12:49:41Z</time>
      </trkpt>
      <trkpt lat="45.62201" lon="6.85686">
        <ele>1706.6</ele>
        <time>2020-08-07T12:49:43Z</time>
      </trkpt>
      <trkpt lat="45.62201" lon="6.85677">
        <ele>1707</ele>
        <time>2020-08-07T12:49:45Z</time>
      </trkpt>
      <trkpt lat="45.62201" lon="6.85672">
        <ele>1707.2</ele>
        <time>2020-08-07T12:49:46Z</time>
      </trkpt>
      <trkpt lat="45.622" lon="6.85668">
        <ele>1707.3</ele>
        <time>2020-08-07T12:49:47Z</time>
      </trkpt>
      <trkpt lat="45.62199" lon="6.8566">
        <ele>1707.6</ele>
        <time>2020-08-07T12:49:49Z</time>
      </trkpt>
      <trkpt lat="45.62198" lon="6.85651">
        <ele>1707.9</ele>
        <time>2020-08-07T12:49:51Z</time>
      </trkpt>
      <trkpt lat="45.62198" lon="6.85643">
        <ele>1708.2</ele>
        <time>2020-08-07T12:49:53Z</time>
      </trkpt>
      <trkpt lat="45.62198" lon="6.85638">
        <ele>1708.3</ele>
        <time>2020-08-07T12:49:54Z</time>
      </trkpt>
      <trkpt lat="45.62199" lon="6.8563">
        <ele>1708.6</ele>
        <time>2020-08-07T12:49:56Z</time>
      </trkpt>
      <trkpt lat="45.62199" lon="6.85625">
        <ele>1708.8</ele>
        <time>2020-08-07T12:49:57Z</time>
      </trkpt>
      <trkpt lat="45.622" lon="6.85617">
        <ele>1709.1</ele>
        <time>2020-08-07T12:49:59Z</time>
      </trkpt>
      <trkpt lat="45.62201" lon="6.85613">
        <ele>1709.3</ele>
        <time>2020-08-07T12:50:00Z</time>
      </trkpt>
      <trkpt lat="45.62203" lon="6.85604">
        <ele>1709.6</ele>
        <time>2020-08-07T12:50:02Z</time>
      </trkpt>
      <trkpt lat="45.62205" lon="6.856">
        <ele>1709.8</ele>
        <time>2020-08-07T12:50:03Z</time>
      </trkpt>
      <trkpt lat="45.62209" lon="6.85592">
        <ele>1710.1</ele>
        <time>2020-08-07T12:50:05Z</time>
      </trkpt>
      <trkpt lat="45.62212" lon="6.85588">
        <ele>1710.3</ele>
        <time>2020-08-07T12:50:06Z</time>
      </trkpt>
      <trkpt lat="45.62214" lon="6.85585">
        <ele>1710.5</ele>
        <time>2020-08-07T12:50:07Z</time>
      </trkpt>
      <trkpt lat="45.62219" lon="6.85578">
        <ele>1710.9</ele>
        <time>2020-08-07T12:50:09Z</time>
      </trkpt>
      <trkpt lat="45.62224" lon="6.85572">
        <ele>1711.3</ele>
        <time>2020-08-07T12:50:11Z</time>
      </trkpt>
      <trkpt lat="45.62226" lon="6.85569">
        <ele>1711.5</ele>
        <time>2020-08-07T12:50:12Z</time>
      </trkpt>
      <trkpt lat="45.62228" lon="6.85566">
        <ele>1711.6</ele>
        <time>2020-08-07T12:50:13Z</time>
      </trkpt>
      <trkpt lat="45.62231" lon="6.85563">
        <ele>1711.9</ele>
        <time>2020-08-07T12:50:14Z</time>
      </trkpt>
      <trkpt lat="45.62233" lon="6.85561">
        <ele>1712</ele>
        <time>2020-08-07T12:50:15Z</time>
      </trkpt>
      <trkpt lat="45.62236" lon="6.85555">
        <ele>1712.3</ele>
        <time>2020-08-07T12:50:17Z</time>
      </trkpt>
      <trkpt lat="45.6224" lon="6.85547">
        <ele>1712.7</ele>
        <time>2020-08-07T12:50:19Z</time>
      </trkpt>
      <trkpt lat="45.62243" lon="6.8554">
        <ele>1713.1</ele>
        <time>2020-08-07T12:50:21Z</time>
      </trkpt>
      <trkpt lat="45.62245" lon="6.85536">
        <ele>1713.2</ele>
        <time>2020-08-07T12:50:22Z</time>
      </trkpt>
      <trkpt lat="45.62247" lon="6.85529">
        <ele>1713.5</ele>
        <time>2020-08-07T12:50:24Z</time>
      </trkpt>
      <trkpt lat="45.62248" lon="6.85524">
        <ele>1713.7</ele>
        <time>2020-08-07T12:50:25Z</time>
      </trkpt>
      <trkpt lat="45.62249" lon="6.85516">
        <ele>1714</ele>
        <time>2020-08-07T12:50:27Z</time>
      </trkpt>
      <trkpt lat="45.6225" lon="6.85511">
        <ele>1714.2</ele>
        <time>2020-08-07T12:50:28Z</time>
      </trkpt>
      <trkpt lat="45.6225" lon="6.85503">
        <ele>1714.5</ele>
        <time>2020-08-07T12:50:30Z</time>
      </trkpt>
      <trkpt lat="45.62251" lon="6.85498">
        <ele>1714.7</ele>
        <time>2020-08-07T12:50:31Z</time>
      </trkpt>
      <trkpt lat="45.62252" lon="6.85488">
        <ele>1715</ele>
        <time>2020-08-07T12:50:33Z</time>
      </trkpt>
      <trkpt lat="45.62254" lon="6.85481">
        <ele>1715.3</ele>
        <time>2020-08-07T12:50:35Z</time>
      </trkpt>
      <trkpt lat="45.62256" lon="6.85473">
        <ele>1715.6</ele>
        <time>2020-08-07T12:50:37Z</time>
      </trkpt>
      <trkpt lat="45.62257" lon="6.85469">
        <ele>1715.7</ele>
        <time>2020-08-07T12:50:38Z</time>
      </trkpt>
      <trkpt lat="45.62258" lon="6.85465">
        <ele>1715.9</ele>
        <time>2020-08-07T12:50:39Z</time>
      </trkpt>
      <trkpt lat="45.6226" lon="6.85456">
        <ele>1716.2</ele>
        <time>2020-08-07T12:50:41Z</time>
      </trkpt>
      <trkpt lat="45.62261" lon="6.85448">
        <ele>1716.5</ele>
        <time>2020-08-07T12:50:43Z</time>
      </trkpt>
      <trkpt lat="45.62263" lon="6.85438">
        <ele>1716.9</ele>
        <time>2020-08-07T12:50:44Z</time>
      </trkpt>
      <trkpt lat="45.62263" lon="6.85434">
        <ele>1717.1</ele>
        <time>2020-08-07T12:50:45Z</time>
      </trkpt>
      <trkpt lat="45.62262" lon="6.85425">
        <ele>1717.4</ele>
        <time>2020-08-07T12:50:47Z</time>
      </trkpt>
      <trkpt lat="45.62262" lon="6.8542">
        <ele>1717.6</ele>
        <time>2020-08-07T12:50:49Z</time>
      </trkpt>
      <trkpt lat="45.62261" lon="6.85416">
        <ele>1717.7</ele>
        <time>2020-08-07T12:50:50Z</time>
      </trkpt>
      <trkpt lat="45.62261" lon="6.85411">
        <ele>1717.9</ele>
        <time>2020-08-07T12:50:51Z</time>
      </trkpt>
      <trkpt lat="45.6226" lon="6.854">
        <ele>1718.3</ele>
        <time>2020-08-07T12:50:53Z</time>
      </trkpt>
      <trkpt lat="45.62259" lon="6.85395">
        <ele>1718.5</ele>
        <time>2020-08-07T12:50:54Z</time>
      </trkpt>
      <trkpt lat="45.62258" lon="6.85382">
        <ele>1718.9</ele>
        <time>2020-08-07T12:50:57Z</time>
      </trkpt>
      <trkpt lat="45.62258" lon="6.85377">
        <ele>1719.1</ele>
        <time>2020-08-07T12:50:59Z</time>
      </trkpt>
      <trkpt lat="45.62258" lon="6.85366">
        <ele>1719.5</ele>
        <time>2020-08-07T12:51:01Z</time>
      </trkpt>
      <trkpt lat="45.62257" lon="6.85362">
        <ele>1719.6</ele>
        <time>2020-08-07T12:51:02Z</time>
      </trkpt>
      <trkpt lat="45.62258" lon="6.8535">
        <ele>1720</ele>
        <time>2020-08-07T12:51:05Z</time>
      </trkpt>
      <trkpt lat="45.62259" lon="6.85345">
        <ele>1720.2</ele>
        <time>2020-08-07T12:51:06Z</time>
      </trkpt>
      <trkpt lat="45.6226" lon="6.8534">
        <ele>1720.4</ele>
        <time>2020-08-07T12:51:07Z</time>
      </trkpt>
      <trkpt lat="45.62261" lon="6.85334">
        <ele>1720.6</ele>
        <time>2020-08-07T12:51:09Z</time>
      </trkpt>
      <trkpt lat="45.62262" lon="6.85324">
        <ele>1721</ele>
        <time>2020-08-07T12:51:11Z</time>
      </trkpt>
      <trkpt lat="45.62262" lon="6.85319">
        <ele>1721.1</ele>
        <time>2020-08-07T12:51:12Z</time>
      </trkpt>
      <trkpt lat="45.62263" lon="6.85313">
        <ele>1721.3</ele>
        <time>2020-08-07T12:51:14Z</time>
      </trkpt>
      <trkpt lat="45.62264" lon="6.85303">
        <ele>1721.7</ele>
        <time>2020-08-07T12:51:16Z</time>
      </trkpt>
      <trkpt lat="45.62266" lon="6.85299">
        <ele>1721.8</ele>
        <time>2020-08-07T12:51:17Z</time>
      </trkpt>
      <trkpt lat="45.62267" lon="6.85294">
        <ele>1722</ele>
        <time>2020-08-07T12:51:19Z</time>
      </trkpt>
      <trkpt lat="45.62268" lon="6.85289">
        <ele>1722.2</ele>
        <time>2020-08-07T12:51:20Z</time>
      </trkpt>
      <trkpt lat="45.62271" lon="6.85282">
        <ele>1722.4</ele>
        <time>2020-08-07T12:51:23Z</time>
      </trkpt>
      <trkpt lat="45.62273" lon="6.85272">
        <ele>1722.8</ele>
        <time>2020-08-07T12:51:24Z</time>
      </trkpt>
      <trkpt lat="45.62275" lon="6.85269">
        <ele>1722.9</ele>
        <time>2020-08-07T12:51:25Z</time>
      </trkpt>
      <trkpt lat="45.62276" lon="6.85264">
        <ele>1723.1</ele>
        <time>2020-08-07T12:51:26Z</time>
      </trkpt>
      <trkpt lat="45.6228" lon="6.85253">
        <ele>1723.5</ele>
        <time>2020-08-07T12:51:29Z</time>
      </trkpt>
      <trkpt lat="45.62282" lon="6.85249">
        <ele>1723.6</ele>
        <time>2020-08-07T12:51:30Z</time>
      </trkpt>
      <trkpt lat="45.62286" lon="6.85239">
        <ele>1724.1</ele>
        <time>2020-08-07T12:51:33Z</time>
      </trkpt>
      <trkpt lat="45.62288" lon="6.85232">
        <ele>1724.3</ele>
        <time>2020-08-07T12:51:35Z</time>
      </trkpt>
      <trkpt lat="45.62291" lon="6.85223">
        <ele>1724.6</ele>
        <time>2020-08-07T12:51:37Z</time>
      </trkpt>
      <trkpt lat="45.62293" lon="6.85219">
        <ele>1724.8</ele>
        <time>2020-08-07T12:51:38Z</time>
      </trkpt>
      <trkpt lat="45.62294" lon="6.85215">
        <ele>1725</ele>
        <time>2020-08-07T12:51:40Z</time>
      </trkpt>
      <trkpt lat="45.62295" lon="6.85211">
        <ele>1725.1</ele>
        <time>2020-08-07T12:51:41Z</time>
      </trkpt>
      <trkpt lat="45.62297" lon="6.85207">
        <ele>1725.3</ele>
        <time>2020-08-07T12:51:42Z</time>
      </trkpt>
      <trkpt lat="45.62298" lon="6.85204">
        <ele>1725.5</ele>
        <time>2020-08-07T12:51:43Z</time>
      </trkpt>
      <trkpt lat="45.623" lon="6.852">
        <ele>1725.6</ele>
        <time>2020-08-07T12:51:45Z</time>
      </trkpt>
      <trkpt lat="45.62302" lon="6.85194">
        <ele>1725.9</ele>
        <time>2020-08-07T12:51:46Z</time>
      </trkpt>
      <trkpt lat="45.62305" lon="6.85187">
        <ele>1726.3</ele>
        <time>2020-08-07T12:51:49Z</time>
      </trkpt>
      <trkpt lat="45.62307" lon="6.85178">
        <ele>1726.6</ele>
        <time>2020-08-07T12:51:51Z</time>
      </trkpt>
      <trkpt lat="45.6231" lon="6.85167">
        <ele>1727.1</ele>
        <time>2020-08-07T12:51:52Z</time>
      </trkpt>
      <trkpt lat="45.62312" lon="6.85157">
        <ele>1727.6</ele>
        <time>2020-08-07T12:51:55Z</time>
      </trkpt>
      <trkpt lat="45.62313" lon="6.85152">
        <ele>1727.7</ele>
        <time>2020-08-07T12:51:56Z</time>
      </trkpt>
      <trkpt lat="45.62313" lon="6.85147">
        <ele>1727.9</ele>
        <time>2020-08-07T12:51:58Z</time>
      </trkpt>
      <trkpt lat="45.62315" lon="6.85138">
        <ele>1728.2</ele>
        <time>2020-08-07T12:52:00Z</time>
      </trkpt>
      <trkpt lat="45.62315" lon="6.85129">
        <ele>1728.6</ele>
        <time>2020-08-07T12:52:02Z</time>
      </trkpt>
      <trkpt lat="45.62316" lon="6.8512">
        <ele>1728.9</ele>
        <time>2020-08-07T12:52:04Z</time>
      </trkpt>
      <trkpt lat="45.62316" lon="6.85116">
        <ele>1729</ele>
        <time>2020-08-07T12:52:05Z</time>
      </trkpt>
      <trkpt lat="45.62318" lon="6.85104">
        <ele>1729.5</ele>
        <time>2020-08-07T12:52:07Z</time>
      </trkpt>
      <trkpt lat="45.62322" lon="6.85091">
        <ele>1730</ele>
        <time>2020-08-07T12:52:10Z</time>
      </trkpt>
      <trkpt lat="45.62323" lon="6.85087">
        <ele>1730.2</ele>
        <time>2020-08-07T12:52:11Z</time>
      </trkpt>
      <trkpt lat="45.62326" lon="6.85085">
        <ele>1730.3</ele>
        <time>2020-08-07T12:52:12Z</time>
      </trkpt>
      <trkpt lat="45.62332" lon="6.8509">
        <ele>1730.7</ele>
        <time>2020-08-07T12:52:15Z</time>
      </trkpt>
      <trkpt lat="45.62333" lon="6.85095">
        <ele>1731.3</ele>
        <time>2020-08-07T12:52:16Z</time>
      </trkpt>
      <trkpt lat="45.62332" lon="6.85106">
        <ele>1731.5</ele>
        <time>2020-08-07T12:52:19Z</time>
      </trkpt>
      <trkpt lat="45.62331" lon="6.8511">
        <ele>1731.6</ele>
        <time>2020-08-07T12:52:20Z</time>
      </trkpt>
      <trkpt lat="45.6233" lon="6.85116">
        <ele>1731.7</ele>
        <time>2020-08-07T12:52:22Z</time>
      </trkpt>
      <trkpt lat="45.62328" lon="6.85127">
        <ele>1731.9</ele>
        <time>2020-08-07T12:52:24Z</time>
      </trkpt>
      <trkpt lat="45.62325" lon="6.85137">
        <ele>1732.1</ele>
        <time>2020-08-07T12:52:26Z</time>
      </trkpt>
      <trkpt lat="45.62323" lon="6.85146">
        <ele>1732.3</ele>
        <time>2020-08-07T12:52:27Z</time>
      </trkpt>
      <trkpt lat="45.62322" lon="6.85153">
        <ele>1732.4</ele>
        <time>2020-08-07T12:52:28Z</time>
      </trkpt>
      <trkpt lat="45.62318" lon="6.85163">
        <ele>1732.5</ele>
        <time>2020-08-07T12:52:30Z</time>
      </trkpt>
      <trkpt lat="45.62318" lon="6.85168">
        <ele>1732.5</ele>
        <time>2020-08-07T12:52:31Z</time>
      </trkpt>
      <trkpt lat="45.62316" lon="6.85177">
        <ele>1732.6</ele>
        <time>2020-08-07T12:52:32Z</time>
      </trkpt>
      <trkpt lat="45.62313" lon="6.8519">
        <ele>1732.6</ele>
        <time>2020-08-07T12:52:34Z</time>
      </trkpt>
      <trkpt lat="45.62311" lon="6.85197">
        <ele>1732.6</ele>
        <time>2020-08-07T12:52:35Z</time>
      </trkpt>
      <trkpt lat="45.62307" lon="6.85207">
        <ele>1732.7</ele>
        <time>2020-08-07T12:52:38Z</time>
      </trkpt>
      <trkpt lat="45.62303" lon="6.8522">
        <ele>1732.8</ele>
        <time>2020-08-07T12:52:40Z</time>
      </trkpt>
      <trkpt lat="45.62299" lon="6.85234">
        <ele>1733</ele>
        <time>2020-08-07T12:52:42Z</time>
      </trkpt>
      <trkpt lat="45.62299" lon="6.8524">
        <ele>1733.1</ele>
        <time>2020-08-07T12:52:43Z</time>
      </trkpt>
      <trkpt lat="45.623" lon="6.85243">
        <ele>1733.1</ele>
        <time>2020-08-07T12:52:44Z</time>
      </trkpt>
      <trkpt lat="45.62296" lon="6.85254">
        <ele>1733.3</ele>
        <time>2020-08-07T12:52:46Z</time>
      </trkpt>
      <trkpt lat="45.62294" lon="6.85263">
        <ele>1733.4</ele>
        <time>2020-08-07T12:52:47Z</time>
      </trkpt>
      <trkpt lat="45.6229" lon="6.85279">
        <ele>1733.7</ele>
        <time>2020-08-07T12:52:49Z</time>
      </trkpt>
      <trkpt lat="45.62289" lon="6.85286">
        <ele>1733.8</ele>
        <time>2020-08-07T12:52:50Z</time>
      </trkpt>
      <trkpt lat="45.62287" lon="6.853">
        <ele>1734</ele>
        <time>2020-08-07T12:52:52Z</time>
      </trkpt>
      <trkpt lat="45.62284" lon="6.85313">
        <ele>1734.2</ele>
        <time>2020-08-07T12:52:54Z</time>
      </trkpt>
      <trkpt lat="45.62282" lon="6.85326">
        <ele>1734.5</ele>
        <time>2020-08-07T12:52:56Z</time>
      </trkpt>
      <trkpt lat="45.62282" lon="6.85333">
        <ele>1734.6</ele>
        <time>2020-08-07T12:52:57Z</time>
      </trkpt>
      <trkpt lat="45.62282" lon="6.85347">
        <ele>1734.9</ele>
        <time>2020-08-07T12:52:59Z</time>
      </trkpt>
      <trkpt lat="45.62283" lon="6.85361">
        <ele>1735.2</ele>
        <time>2020-08-07T12:53:01Z</time>
      </trkpt>
      <trkpt lat="45.62285" lon="6.85374">
        <ele>1735.5</ele>
        <time>2020-08-07T12:53:03Z</time>
      </trkpt>
      <trkpt lat="45.62286" lon="6.8538">
        <ele>1735.7</ele>
        <time>2020-08-07T12:53:04Z</time>
      </trkpt>
      <trkpt lat="45.62288" lon="6.85391">
        <ele>1736</ele>
        <time>2020-08-07T12:53:06Z</time>
      </trkpt>
      <trkpt lat="45.62289" lon="6.85398">
        <ele>1736.2</ele>
        <time>2020-08-07T12:53:07Z</time>
      </trkpt>
      <trkpt lat="45.62291" lon="6.85409">
        <ele>1736.6</ele>
        <time>2020-08-07T12:53:09Z</time>
      </trkpt>
      <trkpt lat="45.62292" lon="6.85414">
        <ele>1736.8</ele>
        <time>2020-08-07T12:53:10Z</time>
      </trkpt>
      <trkpt lat="45.62293" lon="6.85423">
        <ele>1737.1</ele>
        <time>2020-08-07T12:53:11Z</time>
      </trkpt>
      <trkpt lat="45.62294" lon="6.85429">
        <ele>1737.3</ele>
        <time>2020-08-07T12:53:12Z</time>
      </trkpt>
      <trkpt lat="45.62295" lon="6.85434">
        <ele>1737.5</ele>
        <time>2020-08-07T12:53:14Z</time>
      </trkpt>
      <trkpt lat="45.62297" lon="6.85447">
        <ele>1738</ele>
        <time>2020-08-07T12:53:15Z</time>
      </trkpt>
      <trkpt lat="45.62298" lon="6.85455">
        <ele>1738.3</ele>
        <time>2020-08-07T12:53:17Z</time>
      </trkpt>
      <trkpt lat="45.62299" lon="6.85461">
        <ele>1738.5</ele>
        <time>2020-08-07T12:53:18Z</time>
      </trkpt>
      <trkpt lat="45.623" lon="6.85468">
        <ele>1738.8</ele>
        <time>2020-08-07T12:53:19Z</time>
      </trkpt>
      <trkpt lat="45.623" lon="6.85473">
        <ele>1739</ele>
        <time>2020-08-07T12:53:21Z</time>
      </trkpt>
      <trkpt lat="45.62301" lon="6.85482">
        <ele>1739.3</ele>
        <time>2020-08-07T12:53:22Z</time>
      </trkpt>
      <trkpt lat="45.62302" lon="6.85488">
        <ele>1739.5</ele>
        <time>2020-08-07T12:53:23Z</time>
      </trkpt>
      <trkpt lat="45.62302" lon="6.85494">
        <ele>1739.7</ele>
        <time>2020-08-07T12:53:24Z</time>
      </trkpt>
      <trkpt lat="45.62303" lon="6.85502">
        <ele>1740.1</ele>
        <time>2020-08-07T12:53:26Z</time>
      </trkpt>
      <trkpt lat="45.62303" lon="6.85508">
        <ele>1740.3</ele>
        <time>2020-08-07T12:53:27Z</time>
      </trkpt>
      <trkpt lat="45.62303" lon="6.8552">
        <ele>1741</ele>
        <time>2020-08-07T12:53:30Z</time>
      </trkpt>
      <trkpt lat="45.62303" lon="6.85529">
        <ele>1741.7</ele>
        <time>2020-08-07T12:53:31Z</time>
      </trkpt>
      <trkpt lat="45.62304" lon="6.85536">
        <ele>1742.3</ele>
        <time>2020-08-07T12:53:33Z</time>
      </trkpt>
      <trkpt lat="45.62303" lon="6.85541">
        <ele>1742.6</ele>
        <time>2020-08-07T12:53:34Z</time>
      </trkpt>
      <trkpt lat="45.62303" lon="6.8555">
        <ele>1743.2</ele>
        <time>2020-08-07T12:53:35Z</time>
      </trkpt>
      <trkpt lat="45.62303" lon="6.8556">
        <ele>1743.9</ele>
        <time>2020-08-07T12:53:36Z</time>
      </trkpt>
      <trkpt lat="45.62303" lon="6.85567">
        <ele>1744.4</ele>
        <time>2020-08-07T12:53:39Z</time>
      </trkpt>
      <trkpt lat="45.62303" lon="6.85575">
        <ele>1744.9</ele>
        <time>2020-08-07T12:53:41Z</time>
      </trkpt>
      <trkpt lat="45.62303" lon="6.85581">
        <ele>1745.2</ele>
        <time>2020-08-07T12:53:42Z</time>
      </trkpt>
      <trkpt lat="45.62302" lon="6.8559">
        <ele>1745.6</ele>
        <time>2020-08-07T12:53:44Z</time>
      </trkpt>
      <trkpt lat="45.62302" lon="6.85599">
        <ele>1746</ele>
        <time>2020-08-07T12:53:45Z</time>
      </trkpt>
      <trkpt lat="45.62301" lon="6.85604">
        <ele>1746.2</ele>
        <time>2020-08-07T12:53:46Z</time>
      </trkpt>
      <trkpt lat="45.623" lon="6.8561">
        <ele>1746.4</ele>
        <time>2020-08-07T12:53:48Z</time>
      </trkpt>
      <trkpt lat="45.623" lon="6.85614">
        <ele>1746.6</ele>
        <time>2020-08-07T12:53:49Z</time>
      </trkpt>
      <trkpt lat="45.62299" lon="6.85623">
        <ele>1746.9</ele>
        <time>2020-08-07T12:53:51Z</time>
      </trkpt>
      <trkpt lat="45.62297" lon="6.85637">
        <ele>1747.5</ele>
        <time>2020-08-07T12:53:52Z</time>
      </trkpt>
      <trkpt lat="45.62297" lon="6.85647">
        <ele>1747.9</ele>
        <time>2020-08-07T12:53:55Z</time>
      </trkpt>
      <trkpt lat="45.62297" lon="6.85651">
        <ele>1748.1</ele>
        <time>2020-08-07T12:53:56Z</time>
      </trkpt>
      <trkpt lat="45.62297" lon="6.85655">
        <ele>1748.3</ele>
        <time>2020-08-07T12:53:58Z</time>
      </trkpt>
      <trkpt lat="45.62296" lon="6.85664">
        <ele>1748.6</ele>
        <time>2020-08-07T12:54:00Z</time>
      </trkpt>
      <trkpt lat="45.62296" lon="6.85669">
        <ele>1748.8</ele>
        <time>2020-08-07T12:54:01Z</time>
      </trkpt>
      <trkpt lat="45.62294" lon="6.85686">
        <ele>1749.5</ele>
        <time>2020-08-07T12:54:03Z</time>
      </trkpt>
      <trkpt lat="45.62292" lon="6.85696">
        <ele>1750</ele>
        <time>2020-08-07T12:54:06Z</time>
      </trkpt>
      <trkpt lat="45.6229" lon="6.85701">
        <ele>1750.2</ele>
        <time>2020-08-07T12:54:07Z</time>
      </trkpt>
      <trkpt lat="45.62288" lon="6.85705">
        <ele>1750.4</ele>
        <time>2020-08-07T12:54:09Z</time>
      </trkpt>
      <trkpt lat="45.62286" lon="6.85711">
        <ele>1750.7</ele>
        <time>2020-08-07T12:54:11Z</time>
      </trkpt>
      <trkpt lat="45.62282" lon="6.85728">
        <ele>1751.4</ele>
        <time>2020-08-07T12:54:13Z</time>
      </trkpt>
      <trkpt lat="45.6228" lon="6.85733">
        <ele>1751.6</ele>
        <time>2020-08-07T12:54:15Z</time>
      </trkpt>
      <trkpt lat="45.62277" lon="6.85743">
        <ele>1752.1</ele>
        <time>2020-08-07T12:54:17Z</time>
      </trkpt>
      <trkpt lat="45.62275" lon="6.85748">
        <ele>1752.4</ele>
        <time>2020-08-07T12:54:19Z</time>
      </trkpt>
      <trkpt lat="45.62273" lon="6.85758">
        <ele>1752.9</ele>
        <time>2020-08-07T12:54:21Z</time>
      </trkpt>
      <trkpt lat="45.62272" lon="6.85763">
        <ele>1753.1</ele>
        <time>2020-08-07T12:54:23Z</time>
      </trkpt>
      <trkpt lat="45.62268" lon="6.85768">
        <ele>1753.5</ele>
        <time>2020-08-07T12:54:25Z</time>
      </trkpt>
      <trkpt lat="45.62266" lon="6.85771">
        <ele>1753.7</ele>
        <time>2020-08-07T12:54:26Z</time>
      </trkpt>
      <trkpt lat="45.62263" lon="6.85775">
        <ele>1754</ele>
        <time>2020-08-07T12:54:27Z</time>
      </trkpt>
      <trkpt lat="45.6226" lon="6.8578">
        <ele>1754.2</ele>
        <time>2020-08-07T12:54:28Z</time>
      </trkpt>
      <trkpt lat="45.62258" lon="6.85786">
        <ele>1754.5</ele>
        <time>2020-08-07T12:54:30Z</time>
      </trkpt>
      <trkpt lat="45.62256" lon="6.85791">
        <ele>1754.8</ele>
        <time>2020-08-07T12:54:32Z</time>
      </trkpt>
      <trkpt lat="45.62256" lon="6.85796">
        <ele>1755</ele>
        <time>2020-08-07T12:54:33Z</time>
      </trkpt>
      <trkpt lat="45.62256" lon="6.85806">
        <ele>1755.3</ele>
        <time>2020-08-07T12:54:35Z</time>
      </trkpt>
      <trkpt lat="45.62257" lon="6.85816">
        <ele>1755.7</ele>
        <time>2020-08-07T12:54:36Z</time>
      </trkpt>
      <trkpt lat="45.62258" lon="6.85822">
        <ele>1755.9</ele>
        <time>2020-08-07T12:54:37Z</time>
      </trkpt>
      <trkpt lat="45.62259" lon="6.85832">
        <ele>1756.3</ele>
        <time>2020-08-07T12:54:39Z</time>
      </trkpt>
      <trkpt lat="45.62259" lon="6.85838">
        <ele>1756.5</ele>
        <time>2020-08-07T12:54:41Z</time>
      </trkpt>
      <trkpt lat="45.6226" lon="6.85846">
        <ele>1756.8</ele>
        <time>2020-08-07T12:54:42Z</time>
      </trkpt>
      <trkpt lat="45.62261" lon="6.85853">
        <ele>1757</ele>
        <time>2020-08-07T12:54:44Z</time>
      </trkpt>
      <trkpt lat="45.62261" lon="6.85858">
        <ele>1757.2</ele>
        <time>2020-08-07T12:54:45Z</time>
      </trkpt>
      <trkpt lat="45.62262" lon="6.85866">
        <ele>1757.5</ele>
        <time>2020-08-07T12:54:46Z</time>
      </trkpt>
      <trkpt lat="45.62262" lon="6.85871">
        <ele>1757.6</ele>
        <time>2020-08-07T12:54:48Z</time>
      </trkpt>
      <trkpt lat="45.62263" lon="6.85876">
        <ele>1757.8</ele>
        <time>2020-08-07T12:54:49Z</time>
      </trkpt>
      <trkpt lat="45.62263" lon="6.85881">
        <ele>1758</ele>
        <time>2020-08-07T12:54:50Z</time>
      </trkpt>
      <trkpt lat="45.62263" lon="6.85892">
        <ele>1758.4</ele>
        <time>2020-08-07T12:54:51Z</time>
      </trkpt>
      <trkpt lat="45.62264" lon="6.85897">
        <ele>1758.5</ele>
        <time>2020-08-07T12:54:52Z</time>
      </trkpt>
      <trkpt lat="45.62265" lon="6.85902">
        <ele>1758.7</ele>
        <time>2020-08-07T12:54:54Z</time>
      </trkpt>
      <trkpt lat="45.62265" lon="6.85907">
        <ele>1758.9</ele>
        <time>2020-08-07T12:54:55Z</time>
      </trkpt>
      <trkpt lat="45.62265" lon="6.85912">
        <ele>1759.1</ele>
        <time>2020-08-07T12:54:56Z</time>
      </trkpt>
      <trkpt lat="45.62266" lon="6.85924">
        <ele>1759.6</ele>
        <time>2020-08-07T12:54:58Z</time>
      </trkpt>
      <trkpt lat="45.62266" lon="6.85929">
        <ele>1759.8</ele>
        <time>2020-08-07T12:55:00Z</time>
      </trkpt>
      <trkpt lat="45.62266" lon="6.85933">
        <ele>1760</ele>
        <time>2020-08-07T12:55:01Z</time>
      </trkpt>
      <trkpt lat="45.62266" lon="6.85939">
        <ele>1760.2</ele>
        <time>2020-08-07T12:55:03Z</time>
      </trkpt>
      <trkpt lat="45.62267" lon="6.85947">
        <ele>1760.5</ele>
        <time>2020-08-07T12:55:04Z</time>
      </trkpt>
      <trkpt lat="45.62267" lon="6.85958">
        <ele>1761</ele>
        <time>2020-08-07T12:55:06Z</time>
      </trkpt>
      <trkpt lat="45.62268" lon="6.85963">
        <ele>1761.2</ele>
        <time>2020-08-07T12:55:07Z</time>
      </trkpt>
      <trkpt lat="45.62269" lon="6.85977">
        <ele>1761.7</ele>
        <time>2020-08-07T12:55:10Z</time>
      </trkpt>
      <trkpt lat="45.62269" lon="6.85981">
        <ele>1761.9</ele>
        <time>2020-08-07T12:55:11Z</time>
      </trkpt>
      <trkpt lat="45.6227" lon="6.85988">
        <ele>1762.1</ele>
        <time>2020-08-07T12:55:13Z</time>
      </trkpt>
      <trkpt lat="45.62271" lon="6.85993">
        <ele>1762.3</ele>
        <time>2020-08-07T12:55:14Z</time>
      </trkpt>
      <trkpt lat="45.62272" lon="6.85998">
        <ele>1762.5</ele>
        <time>2020-08-07T12:55:16Z</time>
      </trkpt>
      <trkpt lat="45.62276" lon="6.8601">
        <ele>1763</ele>
        <time>2020-08-07T12:55:17Z</time>
      </trkpt>
      <trkpt lat="45.62278" lon="6.86016">
        <ele>1763.2</ele>
        <time>2020-08-07T12:55:19Z</time>
      </trkpt>
      <trkpt lat="45.62283" lon="6.86028">
        <ele>1763.7</ele>
        <time>2020-08-07T12:55:22Z</time>
      </trkpt>
      <trkpt lat="45.62286" lon="6.86033">
        <ele>1764</ele>
        <time>2020-08-07T12:55:23Z</time>
      </trkpt>
      <trkpt lat="45.62289" lon="6.86041">
        <ele>1764.3</ele>
        <time>2020-08-07T12:55:26Z</time>
      </trkpt>
      <trkpt lat="45.62294" lon="6.86051">
        <ele>1764.7</ele>
        <time>2020-08-07T12:55:27Z</time>
      </trkpt>
      <trkpt lat="45.62297" lon="6.86056">
        <ele>1764.9</ele>
        <time>2020-08-07T12:55:29Z</time>
      </trkpt>
      <trkpt lat="45.62299" lon="6.8606">
        <ele>1765.1</ele>
        <time>2020-08-07T12:55:31Z</time>
      </trkpt>
      <trkpt lat="45.62303" lon="6.86067">
        <ele>1765.5</ele>
        <time>2020-08-07T12:55:32Z</time>
      </trkpt>
      <trkpt lat="45.62306" lon="6.86072">
        <ele>1765.7</ele>
        <time>2020-08-07T12:55:34Z</time>
      </trkpt>
      <trkpt lat="45.62311" lon="6.86081">
        <ele>1766.1</ele>
        <time>2020-08-07T12:55:35Z</time>
      </trkpt>
      <trkpt lat="45.62313" lon="6.86087">
        <ele>1766.4</ele>
        <time>2020-08-07T12:55:37Z</time>
      </trkpt>
      <trkpt lat="45.62316" lon="6.86093">
        <ele>1766.6</ele>
        <time>2020-08-07T12:55:39Z</time>
      </trkpt>
      <trkpt lat="45.62319" lon="6.86103">
        <ele>1767</ele>
        <time>2020-08-07T12:55:40Z</time>
      </trkpt>
      <trkpt lat="45.62321" lon="6.86109">
        <ele>1767.3</ele>
        <time>2020-08-07T12:55:42Z</time>
      </trkpt>
      <trkpt lat="45.62323" lon="6.86114">
        <ele>1767.5</ele>
        <time>2020-08-07T12:55:43Z</time>
      </trkpt>
      <trkpt lat="45.62324" lon="6.86119">
        <ele>1767.7</ele>
        <time>2020-08-07T12:55:44Z</time>
      </trkpt>
      <trkpt lat="45.62326" lon="6.86123">
        <ele>1767.8</ele>
        <time>2020-08-07T12:55:46Z</time>
      </trkpt>
      <trkpt lat="45.62327" lon="6.86128">
        <ele>1768.1</ele>
        <time>2020-08-07T12:55:47Z</time>
      </trkpt>
      <trkpt lat="45.62329" lon="6.86136">
        <ele>1768.4</ele>
        <time>2020-08-07T12:55:49Z</time>
      </trkpt>
      <trkpt lat="45.62328" lon="6.86142">
        <ele>1768.6</ele>
        <time>2020-08-07T12:55:51Z</time>
      </trkpt>
      <trkpt lat="45.62333" lon="6.86151">
        <ele>1769.1</ele>
        <time>2020-08-07T12:55:52Z</time>
      </trkpt>
      <trkpt lat="45.62334" lon="6.86165">
        <ele>1769.6</ele>
        <time>2020-08-07T12:55:54Z</time>
      </trkpt>
      <trkpt lat="45.62335" lon="6.86173">
        <ele>1769.9</ele>
        <time>2020-08-07T12:55:57Z</time>
      </trkpt>
      <trkpt lat="45.62336" lon="6.86179">
        <ele>1770.2</ele>
        <time>2020-08-07T12:55:58Z</time>
      </trkpt>
      <trkpt lat="45.6234" lon="6.86196">
        <ele>1770.8</ele>
        <time>2020-08-07T12:56:00Z</time>
      </trkpt>
      <trkpt lat="45.62342" lon="6.86204">
        <ele>1770.8</ele>
        <time>2020-08-07T12:56:03Z</time>
      </trkpt>
      <trkpt lat="45.62345" lon="6.86218">
        <ele>1771</ele>
        <time>2020-08-07T12:56:04Z</time>
      </trkpt>
      <trkpt lat="45.62346" lon="6.86223">
        <ele>1771.2</ele>
        <time>2020-08-07T12:56:05Z</time>
      </trkpt>
      <trkpt lat="45.62347" lon="6.86229">
        <ele>1771.4</ele>
        <time>2020-08-07T12:56:07Z</time>
      </trkpt>
      <trkpt lat="45.62348" lon="6.86234">
        <ele>1771.6</ele>
        <time>2020-08-07T12:56:08Z</time>
      </trkpt>
      <trkpt lat="45.62349" lon="6.86239">
        <ele>1771.8</ele>
        <time>2020-08-07T12:56:10Z</time>
      </trkpt>
      <trkpt lat="45.62352" lon="6.86248">
        <ele>1772.1</ele>
        <time>2020-08-07T12:56:12Z</time>
      </trkpt>
      <trkpt lat="45.62354" lon="6.86256">
        <ele>1772.4</ele>
        <time>2020-08-07T12:56:13Z</time>
      </trkpt>
      <trkpt lat="45.62355" lon="6.86261">
        <ele>1772.6</ele>
        <time>2020-08-07T12:56:14Z</time>
      </trkpt>
      <trkpt lat="45.62357" lon="6.86273">
        <ele>1773</ele>
        <time>2020-08-07T12:56:16Z</time>
      </trkpt>
      <trkpt lat="45.62358" lon="6.86278">
        <ele>1773.2</ele>
        <time>2020-08-07T12:56:17Z</time>
      </trkpt>
      <trkpt lat="45.62359" lon="6.86283">
        <ele>1773.3</ele>
        <time>2020-08-07T12:56:18Z</time>
      </trkpt>
      <trkpt lat="45.62361" lon="6.86289">
        <ele>1773.5</ele>
        <time>2020-08-07T12:56:20Z</time>
      </trkpt>
      <trkpt lat="45.62362" lon="6.86294">
        <ele>1773.7</ele>
        <time>2020-08-07T12:56:21Z</time>
      </trkpt>
      <trkpt lat="45.62363" lon="6.86299">
        <ele>1773.8</ele>
        <time>2020-08-07T12:56:22Z</time>
      </trkpt>
      <trkpt lat="45.62365" lon="6.8631">
        <ele>1774.2</ele>
        <time>2020-08-07T12:56:24Z</time>
      </trkpt>
      <trkpt lat="45.62366" lon="6.86316">
        <ele>1774.4</ele>
        <time>2020-08-07T12:56:26Z</time>
      </trkpt>
      <trkpt lat="45.62367" lon="6.86322">
        <ele>1774.6</ele>
        <time>2020-08-07T12:56:28Z</time>
      </trkpt>
      <trkpt lat="45.62368" lon="6.86331">
        <ele>1775</ele>
        <time>2020-08-07T12:56:30Z</time>
      </trkpt>
      <trkpt lat="45.62369" lon="6.86342">
        <ele>1775.4</ele>
        <time>2020-08-07T12:56:31Z</time>
      </trkpt>
      <trkpt lat="45.62369" lon="6.86348">
        <ele>1775.6</ele>
        <time>2020-08-07T12:56:33Z</time>
      </trkpt>
      <trkpt lat="45.6237" lon="6.86357">
        <ele>1775.9</ele>
        <time>2020-08-07T12:56:35Z</time>
      </trkpt>
      <trkpt lat="45.62371" lon="6.86361">
        <ele>1776.1</ele>
        <time>2020-08-07T12:56:36Z</time>
      </trkpt>
      <trkpt lat="45.62372" lon="6.8637">
        <ele>1776.5</ele>
        <time>2020-08-07T12:56:38Z</time>
      </trkpt>
      <trkpt lat="45.62373" lon="6.86375">
        <ele>1776.7</ele>
        <time>2020-08-07T12:56:39Z</time>
      </trkpt>
      <trkpt lat="45.62375" lon="6.8639">
        <ele>1777.3</ele>
        <time>2020-08-07T12:56:42Z</time>
      </trkpt>
      <trkpt lat="45.62376" lon="6.86397">
        <ele>1777.6</ele>
        <time>2020-08-07T12:56:44Z</time>
      </trkpt>
      <trkpt lat="45.62377" lon="6.86406">
        <ele>1778</ele>
        <time>2020-08-07T12:56:46Z</time>
      </trkpt>
      <trkpt lat="45.62378" lon="6.86411">
        <ele>1778.2</ele>
        <time>2020-08-07T12:56:47Z</time>
      </trkpt>
      <trkpt lat="45.62378" lon="6.86416">
        <ele>1778.4</ele>
        <time>2020-08-07T12:56:48Z</time>
      </trkpt>
      <trkpt lat="45.62379" lon="6.8642">
        <ele>1778.6</ele>
        <time>2020-08-07T12:56:50Z</time>
      </trkpt>
      <trkpt lat="45.62379" lon="6.86424">
        <ele>1778.8</ele>
        <time>2020-08-07T12:56:51Z</time>
      </trkpt>
      <trkpt lat="45.62381" lon="6.86435">
        <ele>1779.2</ele>
        <time>2020-08-07T12:56:53Z</time>
      </trkpt>
      <trkpt lat="45.62383" lon="6.86446">
        <ele>1779.6</ele>
        <time>2020-08-07T12:56:56Z</time>
      </trkpt>
      <trkpt lat="45.62384" lon="6.86452">
        <ele>1779.9</ele>
        <time>2020-08-07T12:56:58Z</time>
      </trkpt>
      <trkpt lat="45.62385" lon="6.86457">
        <ele>1780.1</ele>
        <time>2020-08-07T12:56:59Z</time>
      </trkpt>
      <trkpt lat="45.62385" lon="6.86462">
        <ele>1780.2</ele>
        <time>2020-08-07T12:57:00Z</time>
      </trkpt>
      <trkpt lat="45.62387" lon="6.86467">
        <ele>1780.4</ele>
        <time>2020-08-07T12:57:02Z</time>
      </trkpt>
      <trkpt lat="45.62388" lon="6.86474">
        <ele>1780.7</ele>
        <time>2020-08-07T12:57:03Z</time>
      </trkpt>
      <trkpt lat="45.62389" lon="6.86479">
        <ele>1780.8</ele>
        <time>2020-08-07T12:57:04Z</time>
      </trkpt>
      <trkpt lat="45.62391" lon="6.86488">
        <ele>1781.2</ele>
        <time>2020-08-07T12:57:06Z</time>
      </trkpt>
      <trkpt lat="45.62391" lon="6.86493">
        <ele>1781.3</ele>
        <time>2020-08-07T12:57:07Z</time>
      </trkpt>
      <trkpt lat="45.62394" lon="6.86505">
        <ele>1781.7</ele>
        <time>2020-08-07T12:57:09Z</time>
      </trkpt>
      <trkpt lat="45.62395" lon="6.8651">
        <ele>1781.9</ele>
        <time>2020-08-07T12:57:10Z</time>
      </trkpt>
      <trkpt lat="45.62397" lon="6.86517">
        <ele>1782.2</ele>
        <time>2020-08-07T12:57:13Z</time>
      </trkpt>
      <trkpt lat="45.62399" lon="6.86521">
        <ele>1782.4</ele>
        <time>2020-08-07T12:57:14Z</time>
      </trkpt>
      <trkpt lat="45.62404" lon="6.86529">
        <ele>1782.7</ele>
        <time>2020-08-07T12:57:15Z</time>
      </trkpt>
      <trkpt lat="45.62412" lon="6.86534">
        <ele>1783.4</ele>
        <time>2020-08-07T12:57:18Z</time>
      </trkpt>
      <trkpt lat="45.62415" lon="6.86534">
        <ele>1783.6</ele>
        <time>2020-08-07T12:57:19Z</time>
      </trkpt>
      <trkpt lat="45.6242" lon="6.86532">
        <ele>1783.9</ele>
        <time>2020-08-07T12:57:20Z</time>
      </trkpt>
      <trkpt lat="45.62425" lon="6.86525">
        <ele>1784.4</ele>
        <time>2020-08-07T12:57:23Z</time>
      </trkpt>
      <trkpt lat="45.62427" lon="6.86518">
        <ele>1784.6</ele>
        <time>2020-08-07T12:57:24Z</time>
      </trkpt>
      <trkpt lat="45.62427" lon="6.8651">
        <ele>1784.9</ele>
        <time>2020-08-07T12:57:25Z</time>
      </trkpt>
      <trkpt lat="45.62423" lon="6.86495">
        <ele>1785.4</ele>
        <time>2020-08-07T12:57:27Z</time>
      </trkpt>
      <trkpt lat="45.62417" lon="6.86483">
        <ele>1785.8</ele>
        <time>2020-08-07T12:57:29Z</time>
      </trkpt>
      <trkpt lat="45.62414" lon="6.86478">
        <ele>1786</ele>
        <time>2020-08-07T12:57:30Z</time>
      </trkpt>
      <trkpt lat="45.62412" lon="6.86472">
        <ele>1786.2</ele>
        <time>2020-08-07T12:57:31Z</time>
      </trkpt>
      <trkpt lat="45.62409" lon="6.86466">
        <ele>1786.4</ele>
        <time>2020-08-07T12:57:32Z</time>
      </trkpt>
      <trkpt lat="45.62406" lon="6.86454">
        <ele>1786.8</ele>
        <time>2020-08-07T12:57:34Z</time>
      </trkpt>
      <trkpt lat="45.62404" lon="6.86441">
        <ele>1787.3</ele>
        <time>2020-08-07T12:57:36Z</time>
      </trkpt>
      <trkpt lat="45.62404" lon="6.86432">
        <ele>1787.6</ele>
        <time>2020-08-07T12:57:38Z</time>
      </trkpt>
      <trkpt lat="45.62404" lon="6.86428">
        <ele>1787.8</ele>
        <time>2020-08-07T12:57:39Z</time>
      </trkpt>
      <trkpt lat="45.62402" lon="6.86413">
        <ele>1788.4</ele>
        <time>2020-08-07T12:57:41Z</time>
      </trkpt>
      <trkpt lat="45.62403" lon="6.86408">
        <ele>1788.6</ele>
        <time>2020-08-07T12:57:42Z</time>
      </trkpt>
      <trkpt lat="45.62404" lon="6.86402">
        <ele>1788.9</ele>
        <time>2020-08-07T12:57:44Z</time>
      </trkpt>
      <trkpt lat="45.62405" lon="6.86397">
        <ele>1789.1</ele>
        <time>2020-08-07T12:57:45Z</time>
      </trkpt>
      <trkpt lat="45.62406" lon="6.86391">
        <ele>1789.4</ele>
        <time>2020-08-07T12:57:47Z</time>
      </trkpt>
      <trkpt lat="45.62407" lon="6.86387">
        <ele>1789.6</ele>
        <time>2020-08-07T12:57:48Z</time>
      </trkpt>
      <trkpt lat="45.62407" lon="6.86378">
        <ele>1790.1</ele>
        <time>2020-08-07T12:57:50Z</time>
      </trkpt>
      <trkpt lat="45.62407" lon="6.86373">
        <ele>1790.3</ele>
        <time>2020-08-07T12:57:51Z</time>
      </trkpt>
      <trkpt lat="45.62408" lon="6.86364">
        <ele>1790.7</ele>
        <time>2020-08-07T12:57:53Z</time>
      </trkpt>
      <trkpt lat="45.62408" lon="6.86359">
        <ele>1791</ele>
        <time>2020-08-07T12:57:54Z</time>
      </trkpt>
      <trkpt lat="45.62409" lon="6.8635">
        <ele>1791.4</ele>
        <time>2020-08-07T12:57:56Z</time>
      </trkpt>
      <trkpt lat="45.6241" lon="6.86343">
        <ele>1791.8</ele>
        <time>2020-08-07T12:57:57Z</time>
      </trkpt>
      <trkpt lat="45.62411" lon="6.86332">
        <ele>1792.2</ele>
        <time>2020-08-07T12:57:59Z</time>
      </trkpt>
      <trkpt lat="45.62412" lon="6.86327">
        <ele>1792.4</ele>
        <time>2020-08-07T12:58:00Z</time>
      </trkpt>
      <trkpt lat="45.62413" lon="6.8632">
        <ele>1791.9</ele>
        <time>2020-08-07T12:58:01Z</time>
      </trkpt>
      <trkpt lat="45.62415" lon="6.8631">
        <ele>1791.7</ele>
        <time>2020-08-07T12:58:04Z</time>
      </trkpt>
      <trkpt lat="45.62415" lon="6.86306">
        <ele>1791.9</ele>
        <time>2020-08-07T12:58:05Z</time>
      </trkpt>
      <trkpt lat="45.62417" lon="6.86298">
        <ele>1792.1</ele>
        <time>2020-08-07T12:58:07Z</time>
      </trkpt>
      <trkpt lat="45.62418" lon="6.86289">
        <ele>1792.4</ele>
        <time>2020-08-07T12:58:08Z</time>
      </trkpt>
      <trkpt lat="45.62419" lon="6.86282">
        <ele>1792.7</ele>
        <time>2020-08-07T12:58:09Z</time>
      </trkpt>
      <trkpt lat="45.62419" lon="6.86275">
        <ele>1792.9</ele>
        <time>2020-08-07T12:58:12Z</time>
      </trkpt>
      <trkpt lat="45.62419" lon="6.86271">
        <ele>1793.1</ele>
        <time>2020-08-07T12:58:13Z</time>
      </trkpt>
      <trkpt lat="45.62419" lon="6.86266">
        <ele>1793.2</ele>
        <time>2020-08-07T12:58:14Z</time>
      </trkpt>
      <trkpt lat="45.62419" lon="6.86256">
        <ele>1793.6</ele>
        <time>2020-08-07T12:58:15Z</time>
      </trkpt>
      <trkpt lat="45.62419" lon="6.8625">
        <ele>1793.8</ele>
        <time>2020-08-07T12:58:16Z</time>
      </trkpt>
      <trkpt lat="45.62418" lon="6.86245">
        <ele>1794</ele>
        <time>2020-08-07T12:58:17Z</time>
      </trkpt>
      <trkpt lat="45.62418" lon="6.86239">
        <ele>1794.2</ele>
        <time>2020-08-07T12:58:18Z</time>
      </trkpt>
      <trkpt lat="45.62418" lon="6.86234">
        <ele>1794.4</ele>
        <time>2020-08-07T12:58:20Z</time>
      </trkpt>
      <trkpt lat="45.62417" lon="6.86225">
        <ele>1794.8</ele>
        <time>2020-08-07T12:58:22Z</time>
      </trkpt>
      <trkpt lat="45.62417" lon="6.8622">
        <ele>1795</ele>
        <time>2020-08-07T12:58:23Z</time>
      </trkpt>
      <trkpt lat="45.62417" lon="6.86211">
        <ele>1795.4</ele>
        <time>2020-08-07T12:58:25Z</time>
      </trkpt>
      <trkpt lat="45.62416" lon="6.86207">
        <ele>1795.5</ele>
        <time>2020-08-07T12:58:26Z</time>
      </trkpt>
      <trkpt lat="45.62415" lon="6.86195">
        <ele>1796</ele>
        <time>2020-08-07T12:58:28Z</time>
      </trkpt>
      <trkpt lat="45.62415" lon="6.8619">
        <ele>1796.2</ele>
        <time>2020-08-07T12:58:29Z</time>
      </trkpt>
      <trkpt lat="45.62414" lon="6.86177">
        <ele>1796.8</ele>
        <time>2020-08-07T12:58:32Z</time>
      </trkpt>
      <trkpt lat="45.62414" lon="6.86171">
        <ele>1797.1</ele>
        <time>2020-08-07T12:58:34Z</time>
      </trkpt>
      <trkpt lat="45.62413" lon="6.86162">
        <ele>1797.4</ele>
        <time>2020-08-07T12:58:36Z</time>
      </trkpt>
      <trkpt lat="45.62413" lon="6.86158">
        <ele>1797.6</ele>
        <time>2020-08-07T12:58:37Z</time>
      </trkpt>
      <trkpt lat="45.62413" lon="6.86152">
        <ele>1797.9</ele>
        <time>2020-08-07T12:58:38Z</time>
      </trkpt>
      <trkpt lat="45.62413" lon="6.86147">
        <ele>1798.2</ele>
        <time>2020-08-07T12:58:40Z</time>
      </trkpt>
      <trkpt lat="45.62413" lon="6.86141">
        <ele>1798.4</ele>
        <time>2020-08-07T12:58:42Z</time>
      </trkpt>
      <trkpt lat="45.62413" lon="6.86137">
        <ele>1798.7</ele>
        <time>2020-08-07T12:58:43Z</time>
      </trkpt>
      <trkpt lat="45.62412" lon="6.86128">
        <ele>1799.1</ele>
        <time>2020-08-07T12:58:45Z</time>
      </trkpt>
      <trkpt lat="45.62412" lon="6.86123">
        <ele>1799.3</ele>
        <time>2020-08-07T12:58:46Z</time>
      </trkpt>
      <trkpt lat="45.62412" lon="6.86115">
        <ele>1799.6</ele>
        <time>2020-08-07T12:58:48Z</time>
      </trkpt>
      <trkpt lat="45.62411" lon="6.86111">
        <ele>1799.8</ele>
        <time>2020-08-07T12:58:49Z</time>
      </trkpt>
      <trkpt lat="45.62411" lon="6.86107">
        <ele>1799.9</ele>
        <time>2020-08-07T12:58:50Z</time>
      </trkpt>
      <trkpt lat="45.62409" lon="6.86095">
        <ele>1800.4</ele>
        <time>2020-08-07T12:58:51Z</time>
      </trkpt>
      <trkpt lat="45.62408" lon="6.86088">
        <ele>1800.7</ele>
        <time>2020-08-07T12:58:54Z</time>
      </trkpt>
      <trkpt lat="45.62407" lon="6.86083">
        <ele>1800.9</ele>
        <time>2020-08-07T12:58:55Z</time>
      </trkpt>
      <trkpt lat="45.62406" lon="6.86075">
        <ele>1801.2</ele>
        <time>2020-08-07T12:58:57Z</time>
      </trkpt>
      <trkpt lat="45.62405" lon="6.86064">
        <ele>1801.6</ele>
        <time>2020-08-07T12:58:58Z</time>
      </trkpt>
      <trkpt lat="45.62405" lon="6.86057">
        <ele>1801.9</ele>
        <time>2020-08-07T12:59:00Z</time>
      </trkpt>
      <trkpt lat="45.62404" lon="6.86048">
        <ele>1802.2</ele>
        <time>2020-08-07T12:59:03Z</time>
      </trkpt>
      <trkpt lat="45.62404" lon="6.86038">
        <ele>1802.6</ele>
        <time>2020-08-07T12:59:04Z</time>
      </trkpt>
      <trkpt lat="45.62404" lon="6.86033">
        <ele>1802.8</ele>
        <time>2020-08-07T12:59:05Z</time>
      </trkpt>
      <trkpt lat="45.62404" lon="6.86027">
        <ele>1803</ele>
        <time>2020-08-07T12:59:07Z</time>
      </trkpt>
      <trkpt lat="45.62404" lon="6.86014">
        <ele>1803.5</ele>
        <time>2020-08-07T12:59:09Z</time>
      </trkpt>
      <trkpt lat="45.62404" lon="6.8601">
        <ele>1803.7</ele>
        <time>2020-08-07T12:59:11Z</time>
      </trkpt>
      <trkpt lat="45.62404" lon="6.86004">
        <ele>1803.9</ele>
        <time>2020-08-07T12:59:12Z</time>
      </trkpt>
      <trkpt lat="45.62404" lon="6.85999">
        <ele>1804.2</ele>
        <time>2020-08-07T12:59:13Z</time>
      </trkpt>
      <trkpt lat="45.62403" lon="6.85993">
        <ele>1804.4</ele>
        <time>2020-08-07T12:59:15Z</time>
      </trkpt>
      <trkpt lat="45.62403" lon="6.85988">
        <ele>1804.6</ele>
        <time>2020-08-07T12:59:16Z</time>
      </trkpt>
      <trkpt lat="45.62404" lon="6.85979">
        <ele>1805</ele>
        <time>2020-08-07T12:59:19Z</time>
      </trkpt>
      <trkpt lat="45.62403" lon="6.85975">
        <ele>1805.2</ele>
        <time>2020-08-07T12:59:20Z</time>
      </trkpt>
      <trkpt lat="45.62403" lon="6.85971">
        <ele>1805.3</ele>
        <time>2020-08-07T12:59:21Z</time>
      </trkpt>
      <trkpt lat="45.62403" lon="6.85964">
        <ele>1805.6</ele>
        <time>2020-08-07T12:59:22Z</time>
      </trkpt>
      <trkpt lat="45.62405" lon="6.85952">
        <ele>1806</ele>
        <time>2020-08-07T12:59:24Z</time>
      </trkpt>
      <trkpt lat="45.62405" lon="6.85941">
        <ele>1806.4</ele>
        <time>2020-08-07T12:59:27Z</time>
      </trkpt>
      <trkpt lat="45.62405" lon="6.85937">
        <ele>1806.6</ele>
        <time>2020-08-07T12:59:28Z</time>
      </trkpt>
      <trkpt lat="45.62404" lon="6.85925">
        <ele>1807.1</ele>
        <time>2020-08-07T12:59:30Z</time>
      </trkpt>
      <trkpt lat="45.62404" lon="6.85919">
        <ele>1807.3</ele>
        <time>2020-08-07T12:59:31Z</time>
      </trkpt>
      <trkpt lat="45.62403" lon="6.85907">
        <ele>1807.7</ele>
        <time>2020-08-07T12:59:34Z</time>
      </trkpt>
      <trkpt lat="45.62403" lon="6.85903">
        <ele>1807.9</ele>
        <time>2020-08-07T12:59:35Z</time>
      </trkpt>
      <trkpt lat="45.62404" lon="6.85898">
        <ele>1808</ele>
        <time>2020-08-07T12:59:36Z</time>
      </trkpt>
      <trkpt lat="45.62404" lon="6.85892">
        <ele>1808.2</ele>
        <time>2020-08-07T12:59:38Z</time>
      </trkpt>
      <trkpt lat="45.62404" lon="6.85887">
        <ele>1808.4</ele>
        <time>2020-08-07T12:59:39Z</time>
      </trkpt>
      <trkpt lat="45.62404" lon="6.85883">
        <ele>1808.6</ele>
        <time>2020-08-07T12:59:40Z</time>
      </trkpt>
      <trkpt lat="45.62404" lon="6.85878">
        <ele>1808.8</ele>
        <time>2020-08-07T12:59:41Z</time>
      </trkpt>
      <trkpt lat="45.62404" lon="6.85873">
        <ele>1809</ele>
        <time>2020-08-07T12:59:43Z</time>
      </trkpt>
      <trkpt lat="45.62404" lon="6.85865">
        <ele>1809.3</ele>
        <time>2020-08-07T12:59:44Z</time>
      </trkpt>
      <trkpt lat="45.62404" lon="6.85861">
        <ele>1809.5</ele>
        <time>2020-08-07T12:59:46Z</time>
      </trkpt>
      <trkpt lat="45.62404" lon="6.85852">
        <ele>1809.8</ele>
        <time>2020-08-07T12:59:48Z</time>
      </trkpt>
      <trkpt lat="45.62404" lon="6.85847">
        <ele>1810</ele>
        <time>2020-08-07T12:59:49Z</time>
      </trkpt>
      <trkpt lat="45.62406" lon="6.85833">
        <ele>1810.5</ele>
        <time>2020-08-07T12:59:51Z</time>
      </trkpt>
      <trkpt lat="45.6241" lon="6.8583">
        <ele>1811.5</ele>
        <time>2020-08-07T12:59:54Z</time>
      </trkpt>
      <trkpt lat="45.6242" lon="6.85819">
        <ele>1812.2</ele>
        <time>2020-08-07T12:59:56Z</time>
      </trkpt>
      <trkpt lat="45.62421" lon="6.85802">
        <ele>1812</ele>
        <time>2020-08-07T12:59:59Z</time>
      </trkpt>
      <trkpt lat="45.62421" lon="6.85796">
        <ele>1812</ele>
        <time>2020-08-07T13:00:01Z</time>
      </trkpt>
      <trkpt lat="45.6242" lon="6.85792">
        <ele>1812.3</ele>
        <time>2020-08-07T13:00:02Z</time>
      </trkpt>
      <trkpt lat="45.62421" lon="6.85782">
        <ele>1812.6</ele>
        <time>2020-08-07T13:00:04Z</time>
      </trkpt>
      <trkpt lat="45.62422" lon="6.85776">
        <ele>1812.8</ele>
        <time>2020-08-07T13:00:05Z</time>
      </trkpt>
      <trkpt lat="45.62424" lon="6.85772">
        <ele>1813</ele>
        <time>2020-08-07T13:00:06Z</time>
      </trkpt>
      <trkpt lat="45.62425" lon="6.85768">
        <ele>1813.2</ele>
        <time>2020-08-07T13:00:07Z</time>
      </trkpt>
      <trkpt lat="45.62428" lon="6.85763">
        <ele>1813.4</ele>
        <time>2020-08-07T13:00:10Z</time>
      </trkpt>
      <trkpt lat="45.62432" lon="6.85757">
        <ele>1813.7</ele>
        <time>2020-08-07T13:00:11Z</time>
      </trkpt>
      <trkpt lat="45.62435" lon="6.85752">
        <ele>1814</ele>
        <time>2020-08-07T13:00:13Z</time>
      </trkpt>
      <trkpt lat="45.62442" lon="6.85743">
        <ele>1814.5</ele>
        <time>2020-08-07T13:00:15Z</time>
      </trkpt>
      <trkpt lat="45.6245" lon="6.85737">
        <ele>1815.1</ele>
        <time>2020-08-07T13:00:18Z</time>
      </trkpt>
      <trkpt lat="45.62454" lon="6.85733">
        <ele>1815.5</ele>
        <time>2020-08-07T13:00:19Z</time>
      </trkpt>
      <trkpt lat="45.62457" lon="6.8573">
        <ele>1815.9</ele>
        <time>2020-08-07T13:00:21Z</time>
      </trkpt>
      <trkpt lat="45.6246" lon="6.85727">
        <ele>1816.3</ele>
        <time>2020-08-07T13:00:22Z</time>
      </trkpt>
      <trkpt lat="45.62462" lon="6.85724">
        <ele>1816.6</ele>
        <time>2020-08-07T13:00:23Z</time>
      </trkpt>
      <trkpt lat="45.62468" lon="6.85718">
        <ele>1817.2</ele>
        <time>2020-08-07T13:00:25Z</time>
      </trkpt>
      <trkpt lat="45.6247" lon="6.85715">
        <ele>1817.5</ele>
        <time>2020-08-07T13:00:26Z</time>
      </trkpt>
      <trkpt lat="45.62473" lon="6.85712">
        <ele>1817.8</ele>
        <time>2020-08-07T13:00:27Z</time>
      </trkpt>
      <trkpt lat="45.6248" lon="6.85707">
        <ele>1818.6</ele>
        <time>2020-08-07T13:00:30Z</time>
      </trkpt>
      <trkpt lat="45.62486" lon="6.85698">
        <ele>1819.1</ele>
        <time>2020-08-07T13:00:33Z</time>
      </trkpt>
      <trkpt lat="45.62488" lon="6.85694">
        <ele>1819.2</ele>
        <time>2020-08-07T13:00:34Z</time>
      </trkpt>
      <trkpt lat="45.62491" lon="6.85689">
        <ele>1819.2</ele>
        <time>2020-08-07T13:00:36Z</time>
      </trkpt>
      <trkpt lat="45.62493" lon="6.85686">
        <ele>1819.3</ele>
        <time>2020-08-07T13:00:37Z</time>
      </trkpt>
      <trkpt lat="45.62498" lon="6.85677">
        <ele>1819.9</ele>
        <time>2020-08-07T13:00:39Z</time>
      </trkpt>
      <trkpt lat="45.625" lon="6.85671">
        <ele>1820.2</ele>
        <time>2020-08-07T13:00:41Z</time>
      </trkpt>
      <trkpt lat="45.62502" lon="6.85667">
        <ele>1820.5</ele>
        <time>2020-08-07T13:00:42Z</time>
      </trkpt>
      <trkpt lat="45.62506" lon="6.85656">
        <ele>1821.1</ele>
        <time>2020-08-07T13:00:44Z</time>
      </trkpt>
      <trkpt lat="45.62509" lon="6.85649">
        <ele>1821.4</ele>
        <time>2020-08-07T13:00:47Z</time>
      </trkpt>
      <trkpt lat="45.62512" lon="6.85642">
        <ele>1821.8</ele>
        <time>2020-08-07T13:00:49Z</time>
      </trkpt>
      <trkpt lat="45.62514" lon="6.85636">
        <ele>1822</ele>
        <time>2020-08-07T13:00:50Z</time>
      </trkpt>
      <trkpt lat="45.62515" lon="6.85634">
        <ele>1822.1</ele>
        <time>2020-08-07T13:00:51Z</time>
      </trkpt>
      <trkpt lat="45.62518" lon="6.85626">
        <ele>1822.5</ele>
        <time>2020-08-07T13:00:53Z</time>
      </trkpt>
      <trkpt lat="45.6252" lon="6.85622">
        <ele>1822.7</ele>
        <time>2020-08-07T13:00:54Z</time>
      </trkpt>
      <trkpt lat="45.62522" lon="6.85618">
        <ele>1822.9</ele>
        <time>2020-08-07T13:00:55Z</time>
      </trkpt>
      <trkpt lat="45.62527" lon="6.85614">
        <ele>1823.3</ele>
        <time>2020-08-07T13:00:56Z</time>
      </trkpt>
      <trkpt lat="45.62532" lon="6.85602">
        <ele>1823.9</ele>
        <time>2020-08-07T13:00:58Z</time>
      </trkpt>
      <trkpt lat="45.62534" lon="6.85597">
        <ele>1824.2</ele>
        <time>2020-08-07T13:01:00Z</time>
      </trkpt>
      <trkpt lat="45.62536" lon="6.85593">
        <ele>1824.5</ele>
        <time>2020-08-07T13:01:01Z</time>
      </trkpt>
      <trkpt lat="45.62537" lon="6.85588">
        <ele>1824.7</ele>
        <time>2020-08-07T13:01:02Z</time>
      </trkpt>
      <trkpt lat="45.62539" lon="6.85584">
        <ele>1824.9</ele>
        <time>2020-08-07T13:01:03Z</time>
      </trkpt>
      <trkpt lat="45.62541" lon="6.8558">
        <ele>1825.1</ele>
        <time>2020-08-07T13:01:05Z</time>
      </trkpt>
      <trkpt lat="45.62542" lon="6.85576">
        <ele>1825.4</ele>
        <time>2020-08-07T13:01:06Z</time>
      </trkpt>
      <trkpt lat="45.62543" lon="6.85572">
        <ele>1825.6</ele>
        <time>2020-08-07T13:01:08Z</time>
      </trkpt>
      <trkpt lat="45.62545" lon="6.85569">
        <ele>1825.8</ele>
        <time>2020-08-07T13:01:09Z</time>
      </trkpt>
      <trkpt lat="45.62548" lon="6.8556">
        <ele>1826.2</ele>
        <time>2020-08-07T13:01:10Z</time>
      </trkpt>
      <trkpt lat="45.62549" lon="6.85556">
        <ele>1826.4</ele>
        <time>2020-08-07T13:01:12Z</time>
      </trkpt>
      <trkpt lat="45.62551" lon="6.85552">
        <ele>1826.6</ele>
        <time>2020-08-07T13:01:13Z</time>
      </trkpt>
      <trkpt lat="45.62556" lon="6.85544">
        <ele>1826.9</ele>
        <time>2020-08-07T13:01:15Z</time>
      </trkpt>
      <trkpt lat="45.62557" lon="6.85541">
        <ele>1827</ele>
        <time>2020-08-07T13:01:16Z</time>
      </trkpt>
      <trkpt lat="45.6256" lon="6.85536">
        <ele>1827.2</ele>
        <time>2020-08-07T13:01:19Z</time>
      </trkpt>
      <trkpt lat="45.62562" lon="6.85532">
        <ele>1827.3</ele>
        <time>2020-08-07T13:01:20Z</time>
      </trkpt>
      <trkpt lat="45.62565" lon="6.85525">
        <ele>1827.6</ele>
        <time>2020-08-07T13:01:22Z</time>
      </trkpt>
      <trkpt lat="45.62568" lon="6.85515">
        <ele>1827.9</ele>
        <time>2020-08-07T13:01:23Z</time>
      </trkpt>
      <trkpt lat="45.62569" lon="6.85509">
        <ele>1828.1</ele>
        <time>2020-08-07T13:01:26Z</time>
      </trkpt>
      <trkpt lat="45.62571" lon="6.85502">
        <ele>1828.3</ele>
        <time>2020-08-07T13:01:27Z</time>
      </trkpt>
      <trkpt lat="45.62572" lon="6.85496">
        <ele>1828.4</ele>
        <time>2020-08-07T13:01:28Z</time>
      </trkpt>
      <trkpt lat="45.62572" lon="6.85491">
        <ele>1828.6</ele>
        <time>2020-08-07T13:01:29Z</time>
      </trkpt>
      <trkpt lat="45.62572" lon="6.85484">
        <ele>1828.8</ele>
        <time>2020-08-07T13:01:32Z</time>
      </trkpt>
      <trkpt lat="45.62571" lon="6.85479">
        <ele>1828.9</ele>
        <time>2020-08-07T13:01:33Z</time>
      </trkpt>
      <trkpt lat="45.6257" lon="6.85468">
        <ele>1829.3</ele>
        <time>2020-08-07T13:01:34Z</time>
      </trkpt>
      <trkpt lat="45.62569" lon="6.85452">
        <ele>1829.7</ele>
        <time>2020-08-07T13:01:37Z</time>
      </trkpt>
      <trkpt lat="45.62569" lon="6.85445">
        <ele>1829.9</ele>
        <time>2020-08-07T13:01:39Z</time>
      </trkpt>
      <trkpt lat="45.62569" lon="6.85438">
        <ele>1830.1</ele>
        <time>2020-08-07T13:01:40Z</time>
      </trkpt>
      <trkpt lat="45.62569" lon="6.85429">
        <ele>1830.3</ele>
        <time>2020-08-07T13:01:43Z</time>
      </trkpt>
      <trkpt lat="45.6257" lon="6.8542">
        <ele>1830.5</ele>
        <time>2020-08-07T13:01:45Z</time>
      </trkpt>
      <trkpt lat="45.62571" lon="6.85416">
        <ele>1830.6</ele>
        <time>2020-08-07T13:01:46Z</time>
      </trkpt>
      <trkpt lat="45.62572" lon="6.8541">
        <ele>1830.7</ele>
        <time>2020-08-07T13:01:47Z</time>
      </trkpt>
      <trkpt lat="45.62573" lon="6.85406">
        <ele>1830.8</ele>
        <time>2020-08-07T13:01:48Z</time>
      </trkpt>
      <trkpt lat="45.62575" lon="6.85396">
        <ele>1831.1</ele>
        <time>2020-08-07T13:01:50Z</time>
      </trkpt>
      <trkpt lat="45.62575" lon="6.85391">
        <ele>1831.2</ele>
        <time>2020-08-07T13:01:51Z</time>
      </trkpt>
      <trkpt lat="45.62577" lon="6.8538">
        <ele>1831.5</ele>
        <time>2020-08-07T13:01:54Z</time>
      </trkpt>
      <trkpt lat="45.62578" lon="6.85374">
        <ele>1831.7</ele>
        <time>2020-08-07T13:01:55Z</time>
      </trkpt>
      <trkpt lat="45.62579" lon="6.85362">
        <ele>1832</ele>
        <time>2020-08-07T13:01:58Z</time>
      </trkpt>
      <trkpt lat="45.6258" lon="6.85357">
        <ele>1832.2</ele>
        <time>2020-08-07T13:01:59Z</time>
      </trkpt>
      <trkpt lat="45.6258" lon="6.85353">
        <ele>1832.3</ele>
        <time>2020-08-07T13:02:01Z</time>
      </trkpt>
      <trkpt lat="45.62579" lon="6.85347">
        <ele>1832.5</ele>
        <time>2020-08-07T13:02:03Z</time>
      </trkpt>
      <trkpt lat="45.62579" lon="6.8534">
        <ele>1832.7</ele>
        <time>2020-08-07T13:02:04Z</time>
      </trkpt>
      <trkpt lat="45.62579" lon="6.8533">
        <ele>1833</ele>
        <time>2020-08-07T13:02:06Z</time>
      </trkpt>
      <trkpt lat="45.62579" lon="6.85325">
        <ele>1833.1</ele>
        <time>2020-08-07T13:02:07Z</time>
      </trkpt>
      <trkpt lat="45.6258" lon="6.85318">
        <ele>1833.3</ele>
        <time>2020-08-07T13:02:09Z</time>
      </trkpt>
      <trkpt lat="45.6258" lon="6.85314">
        <ele>1833.4</ele>
        <time>2020-08-07T13:02:10Z</time>
      </trkpt>
      <trkpt lat="45.6258" lon="6.85303">
        <ele>1833.7</ele>
        <time>2020-08-07T13:02:12Z</time>
      </trkpt>
      <trkpt lat="45.6258" lon="6.85298">
        <ele>1833.9</ele>
        <time>2020-08-07T13:02:14Z</time>
      </trkpt>
      <trkpt lat="45.62581" lon="6.85293">
        <ele>1834.1</ele>
        <time>2020-08-07T13:02:15Z</time>
      </trkpt>
      <trkpt lat="45.62582" lon="6.85288">
        <ele>1834.3</ele>
        <time>2020-08-07T13:02:16Z</time>
      </trkpt>
      <trkpt lat="45.62582" lon="6.85281">
        <ele>1834.5</ele>
        <time>2020-08-07T13:02:18Z</time>
      </trkpt>
      <trkpt lat="45.62583" lon="6.85277">
        <ele>1834.6</ele>
        <time>2020-08-07T13:02:19Z</time>
      </trkpt>
      <trkpt lat="45.62583" lon="6.85272">
        <ele>1834.8</ele>
        <time>2020-08-07T13:02:20Z</time>
      </trkpt>
      <trkpt lat="45.62583" lon="6.85267">
        <ele>1834.9</ele>
        <time>2020-08-07T13:02:21Z</time>
      </trkpt>
      <trkpt lat="45.62583" lon="6.85262">
        <ele>1835.1</ele>
        <time>2020-08-07T13:02:22Z</time>
      </trkpt>
      <trkpt lat="45.62584" lon="6.85257">
        <ele>1835.2</ele>
        <time>2020-08-07T13:02:23Z</time>
      </trkpt>
      <trkpt lat="45.62585" lon="6.85252">
        <ele>1835.4</ele>
        <time>2020-08-07T13:02:24Z</time>
      </trkpt>
      <trkpt lat="45.62586" lon="6.85247">
        <ele>1835.6</ele>
        <time>2020-08-07T13:02:25Z</time>
      </trkpt>
      <trkpt lat="45.62588" lon="6.85237">
        <ele>1835.9</ele>
        <time>2020-08-07T13:02:28Z</time>
      </trkpt>
      <trkpt lat="45.62588" lon="6.85232">
        <ele>1836.1</ele>
        <time>2020-08-07T13:02:29Z</time>
      </trkpt>
      <trkpt lat="45.62589" lon="6.85228">
        <ele>1836.2</ele>
        <time>2020-08-07T13:02:31Z</time>
      </trkpt>
      <trkpt lat="45.62589" lon="6.85224">
        <ele>1836.4</ele>
        <time>2020-08-07T13:02:32Z</time>
      </trkpt>
      <trkpt lat="45.62591" lon="6.85215">
        <ele>1836.6</ele>
        <time>2020-08-07T13:02:34Z</time>
      </trkpt>
      <trkpt lat="45.62592" lon="6.85211">
        <ele>1836.8</ele>
        <time>2020-08-07T13:02:35Z</time>
      </trkpt>
      <trkpt lat="45.62593" lon="6.85207">
        <ele>1836.9</ele>
        <time>2020-08-07T13:02:37Z</time>
      </trkpt>
      <trkpt lat="45.62597" lon="6.85196">
        <ele>1837.2</ele>
        <time>2020-08-07T13:02:39Z</time>
      </trkpt>
      <trkpt lat="45.62598" lon="6.85192">
        <ele>1837.3</ele>
        <time>2020-08-07T13:02:40Z</time>
      </trkpt>
      <trkpt lat="45.626" lon="6.85187">
        <ele>1837.5</ele>
        <time>2020-08-07T13:02:42Z</time>
      </trkpt>
      <trkpt lat="45.62601" lon="6.85182">
        <ele>1837.6</ele>
        <time>2020-08-07T13:02:43Z</time>
      </trkpt>
      <trkpt lat="45.62602" lon="6.85178">
        <ele>1837.8</ele>
        <time>2020-08-07T13:02:44Z</time>
      </trkpt>
      <trkpt lat="45.62605" lon="6.85172">
        <ele>1838</ele>
        <time>2020-08-07T13:02:45Z</time>
      </trkpt>
      <trkpt lat="45.62608" lon="6.85161">
        <ele>1838.3</ele>
        <time>2020-08-07T13:02:48Z</time>
      </trkpt>
      <trkpt lat="45.62609" lon="6.85157">
        <ele>1838.4</ele>
        <time>2020-08-07T13:02:49Z</time>
      </trkpt>
      <trkpt lat="45.62612" lon="6.85149">
        <ele>1838.7</ele>
        <time>2020-08-07T13:02:51Z</time>
      </trkpt>
      <trkpt lat="45.62614" lon="6.85146">
        <ele>1838.8</ele>
        <time>2020-08-07T13:02:52Z</time>
      </trkpt>
      <trkpt lat="45.62617" lon="6.85139">
        <ele>1839</ele>
        <time>2020-08-07T13:02:54Z</time>
      </trkpt>
      <trkpt lat="45.62618" lon="6.85135">
        <ele>1839.1</ele>
        <time>2020-08-07T13:02:55Z</time>
      </trkpt>
      <trkpt lat="45.6262" lon="6.85131">
        <ele>1839.2</ele>
        <time>2020-08-07T13:02:56Z</time>
      </trkpt>
      <trkpt lat="45.62623" lon="6.85125">
        <ele>1839.4</ele>
        <time>2020-08-07T13:02:57Z</time>
      </trkpt>
      <trkpt lat="45.62624" lon="6.85121">
        <ele>1839.5</ele>
        <time>2020-08-07T13:02:58Z</time>
      </trkpt>
      <trkpt lat="45.62627" lon="6.85116">
        <ele>1839.6</ele>
        <time>2020-08-07T13:03:00Z</time>
      </trkpt>
      <trkpt lat="45.6263" lon="6.85111">
        <ele>1839.7</ele>
        <time>2020-08-07T13:03:01Z</time>
      </trkpt>
      <trkpt lat="45.62633" lon="6.85107">
        <ele>1839.9</ele>
        <time>2020-08-07T13:03:02Z</time>
      </trkpt>
      <trkpt lat="45.62636" lon="6.851">
        <ele>1840</ele>
        <time>2020-08-07T13:03:05Z</time>
      </trkpt>
      <trkpt lat="45.62642" lon="6.85095">
        <ele>1840.2</ele>
        <time>2020-08-07T13:03:06Z</time>
      </trkpt>
      <trkpt lat="45.62644" lon="6.85093">
        <ele>1840.3</ele>
        <time>2020-08-07T13:03:07Z</time>
      </trkpt>
      <trkpt lat="45.62646" lon="6.8509">
        <ele>1840.4</ele>
        <time>2020-08-07T13:03:08Z</time>
      </trkpt>
      <trkpt lat="45.6265" lon="6.85086">
        <ele>1840.5</ele>
        <time>2020-08-07T13:03:10Z</time>
      </trkpt>
      <trkpt lat="45.62652" lon="6.85083">
        <ele>1840.6</ele>
        <time>2020-08-07T13:03:12Z</time>
      </trkpt>
      <trkpt lat="45.62655" lon="6.85081">
        <ele>1840.7</ele>
        <time>2020-08-07T13:03:13Z</time>
      </trkpt>
      <trkpt lat="45.62661" lon="6.85073">
        <ele>1840.9</ele>
        <time>2020-08-07T13:03:15Z</time>
      </trkpt>
      <trkpt lat="45.62665" lon="6.85068">
        <ele>1841</ele>
        <time>2020-08-07T13:03:17Z</time>
      </trkpt>
      <trkpt lat="45.62667" lon="6.85064">
        <ele>1841.1</ele>
        <time>2020-08-07T13:03:19Z</time>
      </trkpt>
      <trkpt lat="45.62671" lon="6.85058">
        <ele>1841.3</ele>
        <time>2020-08-07T13:03:21Z</time>
      </trkpt>
      <trkpt lat="45.62675" lon="6.85048">
        <ele>1841.5</ele>
        <time>2020-08-07T13:03:22Z</time>
      </trkpt>
      <trkpt lat="45.62678" lon="6.85042">
        <ele>1841.7</ele>
        <time>2020-08-07T13:03:25Z</time>
      </trkpt>
      <trkpt lat="45.62679" lon="6.85041">
        <ele>1841.7</ele>
        <time>2020-08-07T13:03:26Z</time>
      </trkpt>
      <trkpt lat="45.6268" lon="6.85039">
        <ele>1841.7</ele>
        <time>2020-08-07T13:03:27Z</time>
      </trkpt>
      <trkpt lat="45.62679" lon="6.85038">
        <ele>1841.8</ele>
        <time>2020-08-07T13:03:30Z</time>
      </trkpt>
      <trkpt lat="45.62679" lon="6.85037">
        <ele>1841.8</ele>
        <time>2020-08-07T13:03:32Z</time>
      </trkpt>
      <trkpt lat="45.62679" lon="6.85037">
        <ele>1841.8</ele>
        <time>2020-08-07T13:03:34Z</time>
      </trkpt>
      <trkpt lat="45.62679" lon="6.85037">
        <ele>1841.8</ele>
        <time>2020-08-07T13:03:36Z</time>
      </trkpt>
      <trkpt lat="45.62679" lon="6.85038">
        <ele>1841.8</ele>
        <time>2020-08-07T13:03:38Z</time>
      </trkpt>
      <trkpt lat="45.62679" lon="6.85038">
        <ele>1841.9</ele>
        <time>2020-08-07T13:03:39Z</time>
      </trkpt>
      <trkpt lat="45.62679" lon="6.85038">
        <ele>1841.9</ele>
        <time>2020-08-07T13:03:41Z</time>
      </trkpt>
      <trkpt lat="45.62676" lon="6.85029">
        <ele>1842.1</ele>
        <time>2020-08-07T13:10:53Z</time>
      </trkpt>
      <trkpt lat="45.62676" lon="6.85027">
        <ele>1842.2</ele>
        <time>2020-08-07T13:10:54Z</time>
      </trkpt>
      <trkpt lat="45.62678" lon="6.85024">
        <ele>1842.3</ele>
        <time>2020-08-07T13:10:56Z</time>
      </trkpt>
      <trkpt lat="45.6268" lon="6.8502">
        <ele>1842.4</ele>
        <time>2020-08-07T13:10:58Z</time>
      </trkpt>
      <trkpt lat="45.62678" lon="6.85022">
        <ele>1842.4</ele>
        <time>2020-08-07T13:11:00Z</time>
      </trkpt>
      <trkpt lat="45.62678" lon="6.85023">
        <ele>1842.5</ele>
        <time>2020-08-07T13:11:01Z</time>
      </trkpt>
      <trkpt lat="45.62679" lon="6.85022">
        <ele>1842.5</ele>
        <time>2020-08-07T13:11:02Z</time>
      </trkpt>
      <trkpt lat="45.62681" lon="6.8502">
        <ele>1842.6</ele>
        <time>2020-08-07T13:11:04Z</time>
      </trkpt>
      <trkpt lat="45.62682" lon="6.85019">
        <ele>1842.6</ele>
        <time>2020-08-07T13:11:06Z</time>
      </trkpt>
      <trkpt lat="45.62684" lon="6.85015">
        <ele>1842.7</ele>
        <time>2020-08-07T13:11:08Z</time>
      </trkpt>
      <trkpt lat="45.62689" lon="6.85005">
        <ele>1843</ele>
        <time>2020-08-07T13:11:10Z</time>
      </trkpt>
      <trkpt lat="45.62693" lon="6.84998">
        <ele>1843.2</ele>
        <time>2020-08-07T13:11:12Z</time>
      </trkpt>
      <trkpt lat="45.62694" lon="6.84995">
        <ele>1843.3</ele>
        <time>2020-08-07T13:11:13Z</time>
      </trkpt>
      <trkpt lat="45.62696" lon="6.84992">
        <ele>1843.4</ele>
        <time>2020-08-07T13:11:14Z</time>
      </trkpt>
      <trkpt lat="45.62698" lon="6.8499">
        <ele>1843.5</ele>
        <time>2020-08-07T13:11:15Z</time>
      </trkpt>
      <trkpt lat="45.62699" lon="6.84988">
        <ele>1843.5</ele>
        <time>2020-08-07T13:11:16Z</time>
      </trkpt>
      <trkpt lat="45.62701" lon="6.84985">
        <ele>1843.6</ele>
        <time>2020-08-07T13:11:18Z</time>
      </trkpt>
      <trkpt lat="45.62702" lon="6.84983">
        <ele>1843.7</ele>
        <time>2020-08-07T13:11:19Z</time>
      </trkpt>
      <trkpt lat="45.62704" lon="6.84983">
        <ele>1843.7</ele>
        <time>2020-08-07T13:11:20Z</time>
      </trkpt>
      <trkpt lat="45.62706" lon="6.84981">
        <ele>1843.8</ele>
        <time>2020-08-07T13:11:21Z</time>
      </trkpt>
      <trkpt lat="45.62708" lon="6.8498">
        <ele>1843.8</ele>
        <time>2020-08-07T13:11:22Z</time>
      </trkpt>
      <trkpt lat="45.62709" lon="6.8498">
        <ele>1843.9</ele>
        <time>2020-08-07T13:11:24Z</time>
      </trkpt>
      <trkpt lat="45.62709" lon="6.8498">
        <ele>1843.9</ele>
        <time>2020-08-07T13:11:25Z</time>
      </trkpt>
      <trkpt lat="45.62708" lon="6.8498">
        <ele>1843.9</ele>
        <time>2020-08-07T13:11:26Z</time>
      </trkpt>
      <trkpt lat="45.62708" lon="6.84979">
        <ele>1843.9</ele>
        <time>2020-08-07T13:11:28Z</time>
      </trkpt>
      <trkpt lat="45.62708" lon="6.84979">
        <ele>1843.9</ele>
        <time>2020-08-07T13:11:30Z</time>
      </trkpt>
      <trkpt lat="45.62708" lon="6.84979">
        <ele>1843.9</ele>
        <time>2020-08-07T13:11:31Z</time>
      </trkpt>
      <trkpt lat="45.62708" lon="6.84979">
        <ele>1843.9</ele>
        <time>2020-08-07T13:11:32Z</time>
      </trkpt>
      <trkpt lat="45.62708" lon="6.84978">
        <ele>1843.9</ele>
        <time>2020-08-07T13:11:34Z</time>
      </trkpt>
      <trkpt lat="45.62708" lon="6.84976">
        <ele>1844</ele>
        <time>2020-08-07T13:11:36Z</time>
      </trkpt>
      <trkpt lat="45.62709" lon="6.84973">
        <ele>1844</ele>
        <time>2020-08-07T13:11:37Z</time>
      </trkpt>
      <trkpt lat="45.6271" lon="6.84972">
        <ele>1844.1</ele>
        <time>2020-08-07T13:11:38Z</time>
      </trkpt>
      <trkpt lat="45.62716" lon="6.84966">
        <ele>1844.4</ele>
        <time>2020-08-07T13:11:41Z</time>
      </trkpt>
      <trkpt lat="45.62719" lon="6.84964">
        <ele>1844.5</ele>
        <time>2020-08-07T13:11:43Z</time>
      </trkpt>
      <trkpt lat="45.62722" lon="6.84961">
        <ele>1844.7</ele>
        <time>2020-08-07T13:11:44Z</time>
      </trkpt>
      <trkpt lat="45.62731" lon="6.84955">
        <ele>1845.1</ele>
        <time>2020-08-07T13:11:47Z</time>
      </trkpt>
      <trkpt lat="45.62736" lon="6.84949">
        <ele>1845.4</ele>
        <time>2020-08-07T13:11:49Z</time>
      </trkpt>
      <trkpt lat="45.62739" lon="6.84946">
        <ele>1845.6</ele>
        <time>2020-08-07T13:11:50Z</time>
      </trkpt>
      <trkpt lat="45.62743" lon="6.84943">
        <ele>1845.7</ele>
        <time>2020-08-07T13:11:51Z</time>
      </trkpt>
      <trkpt lat="45.62747" lon="6.84936">
        <ele>1845.9</ele>
        <time>2020-08-07T13:11:53Z</time>
      </trkpt>
      <trkpt lat="45.62749" lon="6.84932">
        <ele>1846</ele>
        <time>2020-08-07T13:11:55Z</time>
      </trkpt>
      <trkpt lat="45.62751" lon="6.84927">
        <ele>1846.1</ele>
        <time>2020-08-07T13:11:56Z</time>
      </trkpt>
      <trkpt lat="45.62753" lon="6.84922">
        <ele>1846.2</ele>
        <time>2020-08-07T13:11:57Z</time>
      </trkpt>
      <trkpt lat="45.62755" lon="6.84917">
        <ele>1846.3</ele>
        <time>2020-08-07T13:11:58Z</time>
      </trkpt>
      <trkpt lat="45.62759" lon="6.84909">
        <ele>1846.5</ele>
        <time>2020-08-07T13:11:59Z</time>
      </trkpt>
      <trkpt lat="45.62761" lon="6.84905">
        <ele>1846.6</ele>
        <time>2020-08-07T13:12:01Z</time>
      </trkpt>
      <trkpt lat="45.62765" lon="6.84896">
        <ele>1846.8</ele>
        <time>2020-08-07T13:12:03Z</time>
      </trkpt>
      <trkpt lat="45.62767" lon="6.84892">
        <ele>1846.9</ele>
        <time>2020-08-07T13:12:04Z</time>
      </trkpt>
      <trkpt lat="45.62771" lon="6.84885">
        <ele>1847.1</ele>
        <time>2020-08-07T13:12:05Z</time>
      </trkpt>
      <trkpt lat="45.62774" lon="6.8488">
        <ele>1847.3</ele>
        <time>2020-08-07T13:12:07Z</time>
      </trkpt>
      <trkpt lat="45.62784" lon="6.84874">
        <ele>1847.6</ele>
        <time>2020-08-07T13:12:09Z</time>
      </trkpt>
      <trkpt lat="45.62788" lon="6.84869">
        <ele>1847.8</ele>
        <time>2020-08-07T13:12:11Z</time>
      </trkpt>
      <trkpt lat="45.62792" lon="6.84866">
        <ele>1848</ele>
        <time>2020-08-07T13:12:12Z</time>
      </trkpt>
      <trkpt lat="45.62795" lon="6.84864">
        <ele>1848.1</ele>
        <time>2020-08-07T13:12:14Z</time>
      </trkpt>
      <trkpt lat="45.62798" lon="6.84862">
        <ele>1848.2</ele>
        <time>2020-08-07T13:12:15Z</time>
      </trkpt>
      <trkpt lat="45.62804" lon="6.84856">
        <ele>1848.5</ele>
        <time>2020-08-07T13:12:17Z</time>
      </trkpt>
      <trkpt lat="45.62811" lon="6.84851">
        <ele>1848.8</ele>
        <time>2020-08-07T13:12:20Z</time>
      </trkpt>
      <trkpt lat="45.62815" lon="6.84848">
        <ele>1848.9</ele>
        <time>2020-08-07T13:12:23Z</time>
      </trkpt>
      <trkpt lat="45.62817" lon="6.84847">
        <ele>1849</ele>
        <time>2020-08-07T13:12:24Z</time>
      </trkpt>
      <trkpt lat="45.62821" lon="6.84844">
        <ele>1849.2</ele>
        <time>2020-08-07T13:12:26Z</time>
      </trkpt>
      <trkpt lat="45.62824" lon="6.84842">
        <ele>1849.3</ele>
        <time>2020-08-07T13:12:27Z</time>
      </trkpt>
      <trkpt lat="45.62831" lon="6.8484">
        <ele>1849.6</ele>
        <time>2020-08-07T13:12:29Z</time>
      </trkpt>
      <trkpt lat="45.62837" lon="6.84838">
        <ele>1849.9</ele>
        <time>2020-08-07T13:12:31Z</time>
      </trkpt>
      <trkpt lat="45.62844" lon="6.84837">
        <ele>1850.2</ele>
        <time>2020-08-07T13:12:33Z</time>
      </trkpt>
      <trkpt lat="45.62849" lon="6.84834">
        <ele>1850.5</ele>
        <time>2020-08-07T13:12:34Z</time>
      </trkpt>
      <trkpt lat="45.62852" lon="6.84834">
        <ele>1850.6</ele>
        <time>2020-08-07T13:12:35Z</time>
      </trkpt>
      <trkpt lat="45.62857" lon="6.84832">
        <ele>1850.8</ele>
        <time>2020-08-07T13:12:36Z</time>
      </trkpt>
      <trkpt lat="45.62861" lon="6.8483">
        <ele>1851</ele>
        <time>2020-08-07T13:12:38Z</time>
      </trkpt>
      <trkpt lat="45.62866" lon="6.84828">
        <ele>1851.2</ele>
        <time>2020-08-07T13:12:40Z</time>
      </trkpt>
      <trkpt lat="45.62871" lon="6.84825">
        <ele>1851.4</ele>
        <time>2020-08-07T13:12:42Z</time>
      </trkpt>
      <trkpt lat="45.62874" lon="6.84824">
        <ele>1851.6</ele>
        <time>2020-08-07T13:12:43Z</time>
      </trkpt>
      <trkpt lat="45.62881" lon="6.84819">
        <ele>1851.9</ele>
        <time>2020-08-07T13:12:45Z</time>
      </trkpt>
      <trkpt lat="45.62884" lon="6.84818">
        <ele>1852</ele>
        <time>2020-08-07T13:12:47Z</time>
      </trkpt>
      <trkpt lat="45.62887" lon="6.84816">
        <ele>1852.2</ele>
        <time>2020-08-07T13:12:48Z</time>
      </trkpt>
      <trkpt lat="45.62892" lon="6.84812">
        <ele>1852.4</ele>
        <time>2020-08-07T13:12:50Z</time>
      </trkpt>
      <trkpt lat="45.62895" lon="6.8481">
        <ele>1852.5</ele>
        <time>2020-08-07T13:12:51Z</time>
      </trkpt>
      <trkpt lat="45.62898" lon="6.84807">
        <ele>1852.7</ele>
        <time>2020-08-07T13:12:52Z</time>
      </trkpt>
      <trkpt lat="45.62901" lon="6.84804">
        <ele>1852.8</ele>
        <time>2020-08-07T13:12:54Z</time>
      </trkpt>
      <trkpt lat="45.62904" lon="6.84801">
        <ele>1853</ele>
        <time>2020-08-07T13:12:56Z</time>
      </trkpt>
      <trkpt lat="45.62907" lon="6.84799">
        <ele>1853</ele>
        <time>2020-08-07T13:12:57Z</time>
      </trkpt>
      <trkpt lat="45.62911" lon="6.84794">
        <ele>1853.2</ele>
        <time>2020-08-07T13:12:58Z</time>
      </trkpt>
      <trkpt lat="45.62913" lon="6.84792">
        <ele>1853.3</ele>
        <time>2020-08-07T13:12:59Z</time>
      </trkpt>
      <trkpt lat="45.6292" lon="6.84785">
        <ele>1853.5</ele>
        <time>2020-08-07T13:13:01Z</time>
      </trkpt>
      <trkpt lat="45.62924" lon="6.84779">
        <ele>1853.7</ele>
        <time>2020-08-07T13:13:04Z</time>
      </trkpt>
      <trkpt lat="45.62925" lon="6.84777">
        <ele>1853.8</ele>
        <time>2020-08-07T13:13:05Z</time>
      </trkpt>
      <trkpt lat="45.62926" lon="6.84775">
        <ele>1853.8</ele>
        <time>2020-08-07T13:13:06Z</time>
      </trkpt>
      <trkpt lat="45.62928" lon="6.84771">
        <ele>1854</ele>
        <time>2020-08-07T13:13:08Z</time>
      </trkpt>
      <trkpt lat="45.62931" lon="6.84767">
        <ele>1854.2</ele>
        <time>2020-08-07T13:13:10Z</time>
      </trkpt>
      <trkpt lat="45.62934" lon="6.84762">
        <ele>1854.4</ele>
        <time>2020-08-07T13:13:11Z</time>
      </trkpt>
      <trkpt lat="45.62937" lon="6.84758">
        <ele>1854.6</ele>
        <time>2020-08-07T13:13:13Z</time>
      </trkpt>
      <trkpt lat="45.62939" lon="6.84755">
        <ele>1854.7</ele>
        <time>2020-08-07T13:13:14Z</time>
      </trkpt>
      <trkpt lat="45.62943" lon="6.8475">
        <ele>1854.9</ele>
        <time>2020-08-07T13:13:15Z</time>
      </trkpt>
      <trkpt lat="45.62945" lon="6.84748">
        <ele>1855</ele>
        <time>2020-08-07T13:13:16Z</time>
      </trkpt>
      <trkpt lat="45.62948" lon="6.84743">
        <ele>1855.2</ele>
        <time>2020-08-07T13:13:18Z</time>
      </trkpt>
      <trkpt lat="45.6295" lon="6.84742">
        <ele>1855.3</ele>
        <time>2020-08-07T13:13:19Z</time>
      </trkpt>
      <trkpt lat="45.62951" lon="6.8474">
        <ele>1855.3</ele>
        <time>2020-08-07T13:13:20Z</time>
      </trkpt>
      <trkpt lat="45.62955" lon="6.84736">
        <ele>1855.5</ele>
        <time>2020-08-07T13:13:21Z</time>
      </trkpt>
      <trkpt lat="45.62956" lon="6.84733">
        <ele>1855.6</ele>
        <time>2020-08-07T13:13:22Z</time>
      </trkpt>
      <trkpt lat="45.6296" lon="6.8473">
        <ele>1855.8</ele>
        <time>2020-08-07T13:13:24Z</time>
      </trkpt>
      <trkpt lat="45.62966" lon="6.84723">
        <ele>1856.1</ele>
        <time>2020-08-07T13:13:25Z</time>
      </trkpt>
      <trkpt lat="45.6297" lon="6.84719">
        <ele>1856.3</ele>
        <time>2020-08-07T13:13:27Z</time>
      </trkpt>
      <trkpt lat="45.62975" lon="6.84713">
        <ele>1856.5</ele>
        <time>2020-08-07T13:13:29Z</time>
      </trkpt>
      <trkpt lat="45.62979" lon="6.84708">
        <ele>1856.7</ele>
        <time>2020-08-07T13:13:32Z</time>
      </trkpt>
      <trkpt lat="45.62984" lon="6.84701">
        <ele>1856.6</ele>
        <time>2020-08-07T13:13:34Z</time>
      </trkpt>
      <trkpt lat="45.62988" lon="6.84697">
        <ele>1856.5</ele>
        <time>2020-08-07T13:13:35Z</time>
      </trkpt>
      <trkpt lat="45.6299" lon="6.84693">
        <ele>1856.5</ele>
        <time>2020-08-07T13:13:37Z</time>
      </trkpt>
      <trkpt lat="45.62993" lon="6.84689">
        <ele>1856.5</ele>
        <time>2020-08-07T13:13:38Z</time>
      </trkpt>
      <trkpt lat="45.62997" lon="6.84683">
        <ele>1856.6</ele>
        <time>2020-08-07T13:13:40Z</time>
      </trkpt>
      <trkpt lat="45.63" lon="6.84679">
        <ele>1856.6</ele>
        <time>2020-08-07T13:13:41Z</time>
      </trkpt>
      <trkpt lat="45.63011" lon="6.8467">
        <ele>1857.4</ele>
        <time>2020-08-07T13:13:43Z</time>
      </trkpt>
      <trkpt lat="45.63015" lon="6.84668">
        <ele>1857.6</ele>
        <time>2020-08-07T13:13:45Z</time>
      </trkpt>
      <trkpt lat="45.63019" lon="6.84668">
        <ele>1857.9</ele>
        <time>2020-08-07T13:13:47Z</time>
      </trkpt>
      <trkpt lat="45.63025" lon="6.84669">
        <ele>1858.2</ele>
        <time>2020-08-07T13:13:49Z</time>
      </trkpt>
      <trkpt lat="45.63028" lon="6.84672">
        <ele>1858.4</ele>
        <time>2020-08-07T13:13:50Z</time>
      </trkpt>
      <trkpt lat="45.63032" lon="6.84678">
        <ele>1858.7</ele>
        <time>2020-08-07T13:13:52Z</time>
      </trkpt>
      <trkpt lat="45.63037" lon="6.84684">
        <ele>1859</ele>
        <time>2020-08-07T13:13:54Z</time>
      </trkpt>
      <trkpt lat="45.63042" lon="6.8469">
        <ele>1859.3</ele>
        <time>2020-08-07T13:13:55Z</time>
      </trkpt>
      <trkpt lat="45.63048" lon="6.84697">
        <ele>1859.8</ele>
        <time>2020-08-07T13:13:57Z</time>
      </trkpt>
      <trkpt lat="45.63052" lon="6.84702">
        <ele>1860.1</ele>
        <time>2020-08-07T13:14:00Z</time>
      </trkpt>
      <trkpt lat="45.63057" lon="6.84708">
        <ele>1860.4</ele>
        <time>2020-08-07T13:14:02Z</time>
      </trkpt>
      <trkpt lat="45.63063" lon="6.84712">
        <ele>1860.7</ele>
        <time>2020-08-07T13:14:03Z</time>
      </trkpt>
      <trkpt lat="45.6307" lon="6.84717">
        <ele>1861</ele>
        <time>2020-08-07T13:14:05Z</time>
      </trkpt>
      <trkpt lat="45.63078" lon="6.84722">
        <ele>1861.5</ele>
        <time>2020-08-07T13:14:07Z</time>
      </trkpt>
      <trkpt lat="45.63082" lon="6.84724">
        <ele>1861.7</ele>
        <time>2020-08-07T13:14:10Z</time>
      </trkpt>
      <trkpt lat="45.63088" lon="6.84728">
        <ele>1862</ele>
        <time>2020-08-07T13:14:12Z</time>
      </trkpt>
      <trkpt lat="45.63095" lon="6.8473">
        <ele>1862.3</ele>
        <time>2020-08-07T13:14:13Z</time>
      </trkpt>
      <trkpt lat="45.63098" lon="6.84732">
        <ele>1862.5</ele>
        <time>2020-08-07T13:14:15Z</time>
      </trkpt>
      <trkpt lat="45.63105" lon="6.84737">
        <ele>1862.9</ele>
        <time>2020-08-07T13:14:17Z</time>
      </trkpt>
      <trkpt lat="45.6311" lon="6.84742">
        <ele>1863.2</ele>
        <time>2020-08-07T13:14:19Z</time>
      </trkpt>
      <trkpt lat="45.63114" lon="6.84748">
        <ele>1863.5</ele>
        <time>2020-08-07T13:14:20Z</time>
      </trkpt>
      <trkpt lat="45.63118" lon="6.84753">
        <ele>1863.7</ele>
        <time>2020-08-07T13:14:22Z</time>
      </trkpt>
      <trkpt lat="45.63122" lon="6.84758">
        <ele>1864</ele>
        <time>2020-08-07T13:14:23Z</time>
      </trkpt>
      <trkpt lat="45.63125" lon="6.84762">
        <ele>1864.2</ele>
        <time>2020-08-07T13:14:24Z</time>
      </trkpt>
      <trkpt lat="45.63128" lon="6.84767">
        <ele>1864.5</ele>
        <time>2020-08-07T13:14:26Z</time>
      </trkpt>
      <trkpt lat="45.63132" lon="6.84772">
        <ele>1864.8</ele>
        <time>2020-08-07T13:14:27Z</time>
      </trkpt>
      <trkpt lat="45.63136" lon="6.84775">
        <ele>1864.9</ele>
        <time>2020-08-07T13:14:29Z</time>
      </trkpt>
      <trkpt lat="45.63141" lon="6.84779">
        <ele>1865.2</ele>
        <time>2020-08-07T13:14:30Z</time>
      </trkpt>
      <trkpt lat="45.63145" lon="6.84781">
        <ele>1865.4</ele>
        <time>2020-08-07T13:14:32Z</time>
      </trkpt>
      <trkpt lat="45.63153" lon="6.84786">
        <ele>1865.8</ele>
        <time>2020-08-07T13:14:33Z</time>
      </trkpt>
      <trkpt lat="45.63155" lon="6.84787">
        <ele>1866</ele>
        <time>2020-08-07T13:14:35Z</time>
      </trkpt>
      <trkpt lat="45.63159" lon="6.84789">
        <ele>1866.1</ele>
        <time>2020-08-07T13:14:36Z</time>
      </trkpt>
      <trkpt lat="45.63164" lon="6.84792">
        <ele>1866.5</ele>
        <time>2020-08-07T13:14:37Z</time>
      </trkpt>
      <trkpt lat="45.63168" lon="6.84795">
        <ele>1866.7</ele>
        <time>2020-08-07T13:14:38Z</time>
      </trkpt>
      <trkpt lat="45.63173" lon="6.84798">
        <ele>1866.9</ele>
        <time>2020-08-07T13:14:40Z</time>
      </trkpt>
      <trkpt lat="45.63179" lon="6.84804">
        <ele>1867.3</ele>
        <time>2020-08-07T13:14:42Z</time>
      </trkpt>
      <trkpt lat="45.63186" lon="6.84812">
        <ele>1867.8</ele>
        <time>2020-08-07T13:14:45Z</time>
      </trkpt>
      <trkpt lat="45.63189" lon="6.84815">
        <ele>1868</ele>
        <time>2020-08-07T13:14:46Z</time>
      </trkpt>
      <trkpt lat="45.63192" lon="6.84818">
        <ele>1868.2</ele>
        <time>2020-08-07T13:14:47Z</time>
      </trkpt>
      <trkpt lat="45.63196" lon="6.84824">
        <ele>1868.5</ele>
        <time>2020-08-07T13:14:50Z</time>
      </trkpt>
      <trkpt lat="45.632" lon="6.84829">
        <ele>1868.8</ele>
        <time>2020-08-07T13:14:51Z</time>
      </trkpt>
      <trkpt lat="45.63202" lon="6.84833">
        <ele>1869</ele>
        <time>2020-08-07T13:14:53Z</time>
      </trkpt>
      <trkpt lat="45.63207" lon="6.84841">
        <ele>1869.4</ele>
        <time>2020-08-07T13:14:54Z</time>
      </trkpt>
      <trkpt lat="45.6321" lon="6.84845">
        <ele>1869.6</ele>
        <time>2020-08-07T13:14:55Z</time>
      </trkpt>
      <trkpt lat="45.63213" lon="6.8485">
        <ele>1869.9</ele>
        <time>2020-08-07T13:14:57Z</time>
      </trkpt>
      <trkpt lat="45.63214" lon="6.84853">
        <ele>1870</ele>
        <time>2020-08-07T13:14:59Z</time>
      </trkpt>
      <trkpt lat="45.6322" lon="6.8486">
        <ele>1870.5</ele>
        <time>2020-08-07T13:15:01Z</time>
      </trkpt>
      <trkpt lat="45.63224" lon="6.84866">
        <ele>1870.8</ele>
        <time>2020-08-07T13:15:03Z</time>
      </trkpt>
      <trkpt lat="45.63229" lon="6.84872">
        <ele>1871.2</ele>
        <time>2020-08-07T13:15:05Z</time>
      </trkpt>
      <trkpt lat="45.63231" lon="6.84874">
        <ele>1871.3</ele>
        <time>2020-08-07T13:15:06Z</time>
      </trkpt>
      <trkpt lat="45.63234" lon="6.84878">
        <ele>1871.6</ele>
        <time>2020-08-07T13:15:07Z</time>
      </trkpt>
      <trkpt lat="45.6324" lon="6.84884">
        <ele>1872</ele>
        <time>2020-08-07T13:15:08Z</time>
      </trkpt>
      <trkpt lat="45.63243" lon="6.84887">
        <ele>1872.2</ele>
        <time>2020-08-07T13:15:09Z</time>
      </trkpt>
      <trkpt lat="45.63252" lon="6.84893">
        <ele>1872.8</ele>
        <time>2020-08-07T13:15:12Z</time>
      </trkpt>
      <trkpt lat="45.63261" lon="6.84899">
        <ele>1873.3</ele>
        <time>2020-08-07T13:15:15Z</time>
      </trkpt>
      <trkpt lat="45.63264" lon="6.84902">
        <ele>1873.5</ele>
        <time>2020-08-07T13:15:16Z</time>
      </trkpt>
      <trkpt lat="45.63268" lon="6.84904">
        <ele>1873.8</ele>
        <time>2020-08-07T13:15:18Z</time>
      </trkpt>
      <trkpt lat="45.63275" lon="6.84906">
        <ele>1874.1</ele>
        <time>2020-08-07T13:15:20Z</time>
      </trkpt>
      <trkpt lat="45.63283" lon="6.84908">
        <ele>1874.6</ele>
        <time>2020-08-07T13:15:22Z</time>
      </trkpt>
      <trkpt lat="45.63293" lon="6.8491">
        <ele>1875.1</ele>
        <time>2020-08-07T13:15:25Z</time>
      </trkpt>
      <trkpt lat="45.63297" lon="6.84911">
        <ele>1875.3</ele>
        <time>2020-08-07T13:15:26Z</time>
      </trkpt>
      <trkpt lat="45.63301" lon="6.84912">
        <ele>1875.6</ele>
        <time>2020-08-07T13:15:28Z</time>
      </trkpt>
      <trkpt lat="45.63306" lon="6.84912">
        <ele>1875.8</ele>
        <time>2020-08-07T13:15:30Z</time>
      </trkpt>
      <trkpt lat="45.63312" lon="6.84912">
        <ele>1876.1</ele>
        <time>2020-08-07T13:15:32Z</time>
      </trkpt>
      <trkpt lat="45.63315" lon="6.84912">
        <ele>1876.3</ele>
        <time>2020-08-07T13:15:33Z</time>
      </trkpt>
      <trkpt lat="45.63318" lon="6.84912">
        <ele>1876.5</ele>
        <time>2020-08-07T13:15:34Z</time>
      </trkpt>
      <trkpt lat="45.63329" lon="6.84909">
        <ele>1877.1</ele>
        <time>2020-08-07T13:15:36Z</time>
      </trkpt>
      <trkpt lat="45.63333" lon="6.84908">
        <ele>1877.3</ele>
        <time>2020-08-07T13:15:38Z</time>
      </trkpt>
      <trkpt lat="45.63337" lon="6.84908">
        <ele>1877.5</ele>
        <time>2020-08-07T13:15:39Z</time>
      </trkpt>
      <trkpt lat="45.63348" lon="6.84907">
        <ele>1878.1</ele>
        <time>2020-08-07T13:15:42Z</time>
      </trkpt>
      <trkpt lat="45.63354" lon="6.84908">
        <ele>1878.4</ele>
        <time>2020-08-07T13:15:45Z</time>
      </trkpt>
      <trkpt lat="45.63357" lon="6.84908">
        <ele>1878.6</ele>
        <time>2020-08-07T13:15:46Z</time>
      </trkpt>
      <trkpt lat="45.63363" lon="6.84909">
        <ele>1878.9</ele>
        <time>2020-08-07T13:15:48Z</time>
      </trkpt>
      <trkpt lat="45.63367" lon="6.84909">
        <ele>1879.1</ele>
        <time>2020-08-07T13:15:49Z</time>
      </trkpt>
      <trkpt lat="45.6337" lon="6.84909">
        <ele>1879.2</ele>
        <time>2020-08-07T13:15:50Z</time>
      </trkpt>
      <trkpt lat="45.63377" lon="6.84911">
        <ele>1879.6</ele>
        <time>2020-08-07T13:15:52Z</time>
      </trkpt>
      <trkpt lat="45.63385" lon="6.84912">
        <ele>1880.1</ele>
        <time>2020-08-07T13:15:53Z</time>
      </trkpt>
      <trkpt lat="45.63389" lon="6.84912">
        <ele>1880.3</ele>
        <time>2020-08-07T13:15:54Z</time>
      </trkpt>
      <trkpt lat="45.63394" lon="6.84912">
        <ele>1880.5</ele>
        <time>2020-08-07T13:15:55Z</time>
      </trkpt>
      <trkpt lat="45.63398" lon="6.84912">
        <ele>1880.8</ele>
        <time>2020-08-07T13:15:58Z</time>
      </trkpt>
      <trkpt lat="45.63401" lon="6.84913">
        <ele>1880.9</ele>
        <time>2020-08-07T13:15:59Z</time>
      </trkpt>
      <trkpt lat="45.63409" lon="6.84914">
        <ele>1881.4</ele>
        <time>2020-08-07T13:16:00Z</time>
      </trkpt>
      <trkpt lat="45.63415" lon="6.84915">
        <ele>1881.7</ele>
        <time>2020-08-07T13:16:02Z</time>
      </trkpt>
      <trkpt lat="45.63424" lon="6.84917">
        <ele>1882.2</ele>
        <time>2020-08-07T13:16:04Z</time>
      </trkpt>
      <trkpt lat="45.63428" lon="6.84918">
        <ele>1882.4</ele>
        <time>2020-08-07T13:16:05Z</time>
      </trkpt>
      <trkpt lat="45.63438" lon="6.84922">
        <ele>1883.1</ele>
        <time>2020-08-07T13:16:08Z</time>
      </trkpt>
      <trkpt lat="45.63442" lon="6.84926">
        <ele>1883.4</ele>
        <time>2020-08-07T13:16:10Z</time>
      </trkpt>
      <trkpt lat="45.63446" lon="6.84928">
        <ele>1883.6</ele>
        <time>2020-08-07T13:16:12Z</time>
      </trkpt>
      <trkpt lat="45.63451" lon="6.84934">
        <ele>1884</ele>
        <time>2020-08-07T13:16:13Z</time>
      </trkpt>
      <trkpt lat="45.63455" lon="6.84939">
        <ele>1884.3</ele>
        <time>2020-08-07T13:16:14Z</time>
      </trkpt>
      <trkpt lat="45.63458" lon="6.84944">
        <ele>1884.7</ele>
        <time>2020-08-07T13:16:17Z</time>
      </trkpt>
      <trkpt lat="45.6346" lon="6.84949">
        <ele>1884.9</ele>
        <time>2020-08-07T13:16:18Z</time>
      </trkpt>
      <trkpt lat="45.63467" lon="6.84961">
        <ele>1885.5</ele>
        <time>2020-08-07T13:16:20Z</time>
      </trkpt>
      <trkpt lat="45.63468" lon="6.84967">
        <ele>1885.8</ele>
        <time>2020-08-07T13:16:22Z</time>
      </trkpt>
      <trkpt lat="45.63471" lon="6.84974">
        <ele>1886.1</ele>
        <time>2020-08-07T13:16:23Z</time>
      </trkpt>
      <trkpt lat="45.63473" lon="6.84978">
        <ele>1886.3</ele>
        <time>2020-08-07T13:16:24Z</time>
      </trkpt>
      <trkpt lat="45.63477" lon="6.84987">
        <ele>1886.7</ele>
        <time>2020-08-07T13:16:27Z</time>
      </trkpt>
      <trkpt lat="45.63478" lon="6.84991">
        <ele>1886.9</ele>
        <time>2020-08-07T13:16:28Z</time>
      </trkpt>
      <trkpt lat="45.63481" lon="6.84995">
        <ele>1887.1</ele>
        <time>2020-08-07T13:16:30Z</time>
      </trkpt>
      <trkpt lat="45.63484" lon="6.84998">
        <ele>1887.3</ele>
        <time>2020-08-07T13:16:31Z</time>
      </trkpt>
      <trkpt lat="45.63488" lon="6.85005">
        <ele>1887.6</ele>
        <time>2020-08-07T13:16:33Z</time>
      </trkpt>
      <trkpt lat="45.63491" lon="6.85008">
        <ele>1887.8</ele>
        <time>2020-08-07T13:16:34Z</time>
      </trkpt>
      <trkpt lat="45.635" lon="6.85016">
        <ele>1888.4</ele>
        <time>2020-08-07T13:16:35Z</time>
      </trkpt>
      <trkpt lat="45.63509" lon="6.85022">
        <ele>1888.9</ele>
        <time>2020-08-07T13:16:38Z</time>
      </trkpt>
      <trkpt lat="45.6352" lon="6.85025">
        <ele>1889.3</ele>
        <time>2020-08-07T13:16:41Z</time>
      </trkpt>
      <trkpt lat="45.6353" lon="6.85028">
        <ele>1889.8</ele>
        <time>2020-08-07T13:16:44Z</time>
      </trkpt>
      <trkpt lat="45.63534" lon="6.85029">
        <ele>1890</ele>
        <time>2020-08-07T13:16:45Z</time>
      </trkpt>
      <trkpt lat="45.63539" lon="6.8503">
        <ele>1890.2</ele>
        <time>2020-08-07T13:16:47Z</time>
      </trkpt>
      <trkpt lat="45.63543" lon="6.85032">
        <ele>1890.4</ele>
        <time>2020-08-07T13:16:48Z</time>
      </trkpt>
      <trkpt lat="45.63551" lon="6.85035">
        <ele>1890.8</ele>
        <time>2020-08-07T13:16:50Z</time>
      </trkpt>
      <trkpt lat="45.63555" lon="6.85037">
        <ele>1891</ele>
        <time>2020-08-07T13:16:51Z</time>
      </trkpt>
      <trkpt lat="45.63559" lon="6.85039">
        <ele>1891.1</ele>
        <time>2020-08-07T13:16:52Z</time>
      </trkpt>
      <trkpt lat="45.63564" lon="6.85041">
        <ele>1891.4</ele>
        <time>2020-08-07T13:16:54Z</time>
      </trkpt>
      <trkpt lat="45.63567" lon="6.85043">
        <ele>1891.5</ele>
        <time>2020-08-07T13:16:56Z</time>
      </trkpt>
      <trkpt lat="45.63574" lon="6.85048">
        <ele>1891.9</ele>
        <time>2020-08-07T13:16:58Z</time>
      </trkpt>
      <trkpt lat="45.6358" lon="6.85052">
        <ele>1892.2</ele>
        <time>2020-08-07T13:16:59Z</time>
      </trkpt>
      <trkpt lat="45.63583" lon="6.85053">
        <ele>1892.4</ele>
        <time>2020-08-07T13:17:00Z</time>
      </trkpt>
      <trkpt lat="45.63587" lon="6.85054">
        <ele>1892.5</ele>
        <time>2020-08-07T13:17:01Z</time>
      </trkpt>
      <trkpt lat="45.63595" lon="6.85053">
        <ele>1892.9</ele>
        <time>2020-08-07T13:17:03Z</time>
      </trkpt>
      <trkpt lat="45.63599" lon="6.85051">
        <ele>1893.1</ele>
        <time>2020-08-07T13:17:04Z</time>
      </trkpt>
      <trkpt lat="45.63603" lon="6.85047">
        <ele>1893.3</ele>
        <time>2020-08-07T13:17:05Z</time>
      </trkpt>
      <trkpt lat="45.6361" lon="6.8504">
        <ele>1893.5</ele>
        <time>2020-08-07T13:17:08Z</time>
      </trkpt>
      <trkpt lat="45.63613" lon="6.85037">
        <ele>1893.6</ele>
        <time>2020-08-07T13:17:09Z</time>
      </trkpt>
      <trkpt lat="45.63616" lon="6.85033">
        <ele>1893.7</ele>
        <time>2020-08-07T13:17:11Z</time>
      </trkpt>
      <trkpt lat="45.6362" lon="6.85029">
        <ele>1893.9</ele>
        <time>2020-08-07T13:17:12Z</time>
      </trkpt>
      <trkpt lat="45.63623" lon="6.85026">
        <ele>1894</ele>
        <time>2020-08-07T13:17:13Z</time>
      </trkpt>
      <trkpt lat="45.63629" lon="6.85018">
        <ele>1894.3</ele>
        <time>2020-08-07T13:17:15Z</time>
      </trkpt>
      <trkpt lat="45.63633" lon="6.85013">
        <ele>1894.5</ele>
        <time>2020-08-07T13:17:16Z</time>
      </trkpt>
      <trkpt lat="45.63636" lon="6.85009">
        <ele>1894.7</ele>
        <time>2020-08-07T13:17:17Z</time>
      </trkpt>
      <trkpt lat="45.63639" lon="6.85005">
        <ele>1894.8</ele>
        <time>2020-08-07T13:17:18Z</time>
      </trkpt>
      <trkpt lat="45.63644" lon="6.85">
        <ele>1895</ele>
        <time>2020-08-07T13:17:20Z</time>
      </trkpt>
      <trkpt lat="45.63648" lon="6.84996">
        <ele>1895.2</ele>
        <time>2020-08-07T13:17:21Z</time>
      </trkpt>
      <trkpt lat="45.63656" lon="6.84989">
        <ele>1895.5</ele>
        <time>2020-08-07T13:17:23Z</time>
      </trkpt>
      <trkpt lat="45.63659" lon="6.84985">
        <ele>1895.6</ele>
        <time>2020-08-07T13:17:24Z</time>
      </trkpt>
      <trkpt lat="45.63663" lon="6.84981">
        <ele>1895.8</ele>
        <time>2020-08-07T13:17:26Z</time>
      </trkpt>
      <trkpt lat="45.63665" lon="6.84979">
        <ele>1895.9</ele>
        <time>2020-08-07T13:17:28Z</time>
      </trkpt>
      <trkpt lat="45.63668" lon="6.84975">
        <ele>1896.1</ele>
        <time>2020-08-07T13:17:29Z</time>
      </trkpt>
      <trkpt lat="45.63673" lon="6.8497">
        <ele>1896.3</ele>
        <time>2020-08-07T13:17:30Z</time>
      </trkpt>
      <trkpt lat="45.63677" lon="6.84965">
        <ele>1896.4</ele>
        <time>2020-08-07T13:17:32Z</time>
      </trkpt>
      <trkpt lat="45.63682" lon="6.84961">
        <ele>1896.7</ele>
        <time>2020-08-07T13:17:33Z</time>
      </trkpt>
      <trkpt lat="45.63691" lon="6.84954">
        <ele>1897.1</ele>
        <time>2020-08-07T13:17:35Z</time>
      </trkpt>
      <trkpt lat="45.63696" lon="6.84951">
        <ele>1897.3</ele>
        <time>2020-08-07T13:17:37Z</time>
      </trkpt>
      <trkpt lat="45.63703" lon="6.84943">
        <ele>1897.7</ele>
        <time>2020-08-07T13:17:39Z</time>
      </trkpt>
      <trkpt lat="45.63707" lon="6.84939">
        <ele>1897.8</ele>
        <time>2020-08-07T13:17:40Z</time>
      </trkpt>
      <trkpt lat="45.6371" lon="6.84935">
        <ele>1898</ele>
        <time>2020-08-07T13:17:42Z</time>
      </trkpt>
      <trkpt lat="45.63713" lon="6.8493">
        <ele>1898.2</ele>
        <time>2020-08-07T13:17:43Z</time>
      </trkpt>
      <trkpt lat="45.63716" lon="6.84925">
        <ele>1898.5</ele>
        <time>2020-08-07T13:17:44Z</time>
      </trkpt>
      <trkpt lat="45.63719" lon="6.8492">
        <ele>1898.7</ele>
        <time>2020-08-07T13:17:45Z</time>
      </trkpt>
      <trkpt lat="45.63721" lon="6.84915">
        <ele>1898.9</ele>
        <time>2020-08-07T13:17:46Z</time>
      </trkpt>
      <trkpt lat="45.63723" lon="6.84909">
        <ele>1899.2</ele>
        <time>2020-08-07T13:17:48Z</time>
      </trkpt>
      <trkpt lat="45.63725" lon="6.84904">
        <ele>1899.4</ele>
        <time>2020-08-07T13:17:49Z</time>
      </trkpt>
      <trkpt lat="45.6373" lon="6.84896">
        <ele>1899.8</ele>
        <time>2020-08-07T13:17:51Z</time>
      </trkpt>
      <trkpt lat="45.63732" lon="6.84891">
        <ele>1900</ele>
        <time>2020-08-07T13:17:52Z</time>
      </trkpt>
      <trkpt lat="45.63734" lon="6.84887">
        <ele>1900.2</ele>
        <time>2020-08-07T13:17:54Z</time>
      </trkpt>
      <trkpt lat="45.63739" lon="6.84877">
        <ele>1900.6</ele>
        <time>2020-08-07T13:17:56Z</time>
      </trkpt>
      <trkpt lat="45.63742" lon="6.84874">
        <ele>1900.8</ele>
        <time>2020-08-07T13:17:58Z</time>
      </trkpt>
      <trkpt lat="45.63745" lon="6.8487">
        <ele>1901</ele>
        <time>2020-08-07T13:17:59Z</time>
      </trkpt>
      <trkpt lat="45.63749" lon="6.84862">
        <ele>1901.3</ele>
        <time>2020-08-07T13:18:02Z</time>
      </trkpt>
      <trkpt lat="45.63753" lon="6.84855">
        <ele>1901.6</ele>
        <time>2020-08-07T13:18:03Z</time>
      </trkpt>
      <trkpt lat="45.63757" lon="6.84848">
        <ele>1901.8</ele>
        <time>2020-08-07T13:18:05Z</time>
      </trkpt>
      <trkpt lat="45.63759" lon="6.84842">
        <ele>1902</ele>
        <time>2020-08-07T13:18:07Z</time>
      </trkpt>
      <trkpt lat="45.6376" lon="6.84838">
        <ele>1902.1</ele>
        <time>2020-08-07T13:18:08Z</time>
      </trkpt>
      <trkpt lat="45.63763" lon="6.8483">
        <ele>1902.4</ele>
        <time>2020-08-07T13:18:09Z</time>
      </trkpt>
      <trkpt lat="45.63764" lon="6.84825">
        <ele>1902.6</ele>
        <time>2020-08-07T13:18:11Z</time>
      </trkpt>
      <trkpt lat="45.63767" lon="6.84816">
        <ele>1902.9</ele>
        <time>2020-08-07T13:18:13Z</time>
      </trkpt>
      <trkpt lat="45.63769" lon="6.84797">
        <ele>1903.6</ele>
        <time>2020-08-07T13:18:15Z</time>
      </trkpt>
      <trkpt lat="45.63769" lon="6.8479">
        <ele>1903.8</ele>
        <time>2020-08-07T13:18:17Z</time>
      </trkpt>
      <trkpt lat="45.63769" lon="6.84777">
        <ele>1904.3</ele>
        <time>2020-08-07T13:18:19Z</time>
      </trkpt>
      <trkpt lat="45.63769" lon="6.84771">
        <ele>1904.6</ele>
        <time>2020-08-07T13:18:20Z</time>
      </trkpt>
      <trkpt lat="45.63769" lon="6.84765">
        <ele>1904.8</ele>
        <time>2020-08-07T13:18:21Z</time>
      </trkpt>
      <trkpt lat="45.6377" lon="6.84757">
        <ele>1905.1</ele>
        <time>2020-08-07T13:18:23Z</time>
      </trkpt>
      <trkpt lat="45.6377" lon="6.84744">
        <ele>1905.5</ele>
        <time>2020-08-07T13:18:25Z</time>
      </trkpt>
      <trkpt lat="45.6377" lon="6.84734">
        <ele>1905.9</ele>
        <time>2020-08-07T13:18:28Z</time>
      </trkpt>
      <trkpt lat="45.63771" lon="6.84729">
        <ele>1906.1</ele>
        <time>2020-08-07T13:18:29Z</time>
      </trkpt>
      <trkpt lat="45.63774" lon="6.84715">
        <ele>1906.6</ele>
        <time>2020-08-07T13:18:30Z</time>
      </trkpt>
      <trkpt lat="45.63776" lon="6.84708">
        <ele>1906.8</ele>
        <time>2020-08-07T13:18:32Z</time>
      </trkpt>
      <trkpt lat="45.63783" lon="6.84694">
        <ele>1907.3</ele>
        <time>2020-08-07T13:18:34Z</time>
      </trkpt>
      <trkpt lat="45.63787" lon="6.84689">
        <ele>1907.5</ele>
        <time>2020-08-07T13:18:37Z</time>
      </trkpt>
      <trkpt lat="45.63795" lon="6.84683">
        <ele>1907.9</ele>
        <time>2020-08-07T13:18:39Z</time>
      </trkpt>
      <trkpt lat="45.63798" lon="6.84681">
        <ele>1908.1</ele>
        <time>2020-08-07T13:18:40Z</time>
      </trkpt>
      <trkpt lat="45.63809" lon="6.84673">
        <ele>1908.7</ele>
        <time>2020-08-07T13:18:42Z</time>
      </trkpt>
      <trkpt lat="45.63819" lon="6.84671">
        <ele>1909.2</ele>
        <time>2020-08-07T13:18:45Z</time>
      </trkpt>
      <trkpt lat="45.63831" lon="6.84671">
        <ele>1909.9</ele>
        <time>2020-08-07T13:18:48Z</time>
      </trkpt>
      <trkpt lat="45.63841" lon="6.84671">
        <ele>1910.3</ele>
        <time>2020-08-07T13:18:51Z</time>
      </trkpt>
      <trkpt lat="45.63844" lon="6.84671">
        <ele>1910.2</ele>
        <time>2020-08-07T13:18:52Z</time>
      </trkpt>
      <trkpt lat="45.63849" lon="6.84671">
        <ele>1910.2</ele>
        <time>2020-08-07T13:18:54Z</time>
      </trkpt>
      <trkpt lat="45.63856" lon="6.84671">
        <ele>1910.4</ele>
        <time>2020-08-07T13:18:55Z</time>
      </trkpt>
      <trkpt lat="45.63862" lon="6.8467">
        <ele>1910.6</ele>
        <time>2020-08-07T13:18:58Z</time>
      </trkpt>
      <trkpt lat="45.63869" lon="6.84668">
        <ele>1911</ele>
        <time>2020-08-07T13:19:00Z</time>
      </trkpt>
      <trkpt lat="45.63875" lon="6.84665">
        <ele>1911.3</ele>
        <time>2020-08-07T13:19:01Z</time>
      </trkpt>
      <trkpt lat="45.63878" lon="6.84664">
        <ele>1911.4</ele>
        <time>2020-08-07T13:19:02Z</time>
      </trkpt>
      <trkpt lat="45.63883" lon="6.84662">
        <ele>1911.6</ele>
        <time>2020-08-07T13:19:03Z</time>
      </trkpt>
      <trkpt lat="45.63888" lon="6.84659">
        <ele>1911.8</ele>
        <time>2020-08-07T13:19:04Z</time>
      </trkpt>
      <trkpt lat="45.63896" lon="6.84656">
        <ele>1912.2</ele>
        <time>2020-08-07T13:19:07Z</time>
      </trkpt>
      <trkpt lat="45.63901" lon="6.84654">
        <ele>1912.4</ele>
        <time>2020-08-07T13:19:08Z</time>
      </trkpt>
      <trkpt lat="45.63906" lon="6.84653">
        <ele>1912.6</ele>
        <time>2020-08-07T13:19:10Z</time>
      </trkpt>
      <trkpt lat="45.63911" lon="6.84651">
        <ele>1912.8</ele>
        <time>2020-08-07T13:19:12Z</time>
      </trkpt>
      <trkpt lat="45.63918" lon="6.8465">
        <ele>1913.1</ele>
        <time>2020-08-07T13:19:14Z</time>
      </trkpt>
      <trkpt lat="45.63921" lon="6.84649">
        <ele>1913.2</ele>
        <time>2020-08-07T13:19:15Z</time>
      </trkpt>
      <trkpt lat="45.63929" lon="6.84644">
        <ele>1913.5</ele>
        <time>2020-08-07T13:19:16Z</time>
      </trkpt>
      <trkpt lat="45.63933" lon="6.84641">
        <ele>1913.6</ele>
        <time>2020-08-07T13:19:17Z</time>
      </trkpt>
      <trkpt lat="45.63937" lon="6.84637">
        <ele>1913.8</ele>
        <time>2020-08-07T13:19:19Z</time>
      </trkpt>
      <trkpt lat="45.63941" lon="6.84633">
        <ele>1913.9</ele>
        <time>2020-08-07T13:19:21Z</time>
      </trkpt>
      <trkpt lat="45.63947" lon="6.84624">
        <ele>1914.2</ele>
        <time>2020-08-07T13:19:22Z</time>
      </trkpt>
      <trkpt lat="45.6395" lon="6.84617">
        <ele>1914.4</ele>
        <time>2020-08-07T13:19:25Z</time>
      </trkpt>
      <trkpt lat="45.63959" lon="6.84604">
        <ele>1914.9</ele>
        <time>2020-08-07T13:19:27Z</time>
      </trkpt>
      <trkpt lat="45.63963" lon="6.84599">
        <ele>1915</ele>
        <time>2020-08-07T13:19:29Z</time>
      </trkpt>
      <trkpt lat="45.63966" lon="6.84595">
        <ele>1915.2</ele>
        <time>2020-08-07T13:19:31Z</time>
      </trkpt>
      <trkpt lat="45.63972" lon="6.84589">
        <ele>1915.5</ele>
        <time>2020-08-07T13:19:32Z</time>
      </trkpt>
      <trkpt lat="45.63976" lon="6.84585">
        <ele>1915.6</ele>
        <time>2020-08-07T13:19:33Z</time>
      </trkpt>
      <trkpt lat="45.6398" lon="6.84582">
        <ele>1915.8</ele>
        <time>2020-08-07T13:19:34Z</time>
      </trkpt>
      <trkpt lat="45.63989" lon="6.84574">
        <ele>1916.2</ele>
        <time>2020-08-07T13:19:37Z</time>
      </trkpt>
      <trkpt lat="45.63995" lon="6.84568">
        <ele>1916.6</ele>
        <time>2020-08-07T13:19:40Z</time>
      </trkpt>
      <trkpt lat="45.63998" lon="6.84565">
        <ele>1916.8</ele>
        <time>2020-08-07T13:19:41Z</time>
      </trkpt>
      <trkpt lat="45.64005" lon="6.84558">
        <ele>1917.2</ele>
        <time>2020-08-07T13:19:43Z</time>
      </trkpt>
      <trkpt lat="45.6401" lon="6.84554">
        <ele>1917.4</ele>
        <time>2020-08-07T13:19:46Z</time>
      </trkpt>
      <trkpt lat="45.6402" lon="6.84545">
        <ele>1917.9</ele>
        <time>2020-08-07T13:19:48Z</time>
      </trkpt>
      <trkpt lat="45.64024" lon="6.84542">
        <ele>1918.1</ele>
        <time>2020-08-07T13:19:50Z</time>
      </trkpt>
      <trkpt lat="45.64033" lon="6.84537">
        <ele>1918.5</ele>
        <time>2020-08-07T13:19:52Z</time>
      </trkpt>
      <trkpt lat="45.64036" lon="6.84534">
        <ele>1918.7</ele>
        <time>2020-08-07T13:19:53Z</time>
      </trkpt>
      <trkpt lat="45.6404" lon="6.84533">
        <ele>1918.8</ele>
        <time>2020-08-07T13:19:54Z</time>
      </trkpt>
      <trkpt lat="45.64045" lon="6.84531">
        <ele>1919.1</ele>
        <time>2020-08-07T13:19:56Z</time>
      </trkpt>
      <trkpt lat="45.64048" lon="6.8453">
        <ele>1919.2</ele>
        <time>2020-08-07T13:19:57Z</time>
      </trkpt>
      <trkpt lat="45.64055" lon="6.84527">
        <ele>1919.5</ele>
        <time>2020-08-07T13:19:59Z</time>
      </trkpt>
      <trkpt lat="45.64058" lon="6.84525">
        <ele>1919.7</ele>
        <time>2020-08-07T13:20:00Z</time>
      </trkpt>
      <trkpt lat="45.64062" lon="6.84522">
        <ele>1919.9</ele>
        <time>2020-08-07T13:20:01Z</time>
      </trkpt>
      <trkpt lat="45.64066" lon="6.84519">
        <ele>1920.1</ele>
        <time>2020-08-07T13:20:04Z</time>
      </trkpt>
      <trkpt lat="45.64073" lon="6.84513">
        <ele>1920.4</ele>
        <time>2020-08-07T13:20:05Z</time>
      </trkpt>
      <trkpt lat="45.64078" lon="6.84507">
        <ele>1920.5</ele>
        <time>2020-08-07T13:20:07Z</time>
      </trkpt>
      <trkpt lat="45.64085" lon="6.845">
        <ele>1921</ele>
        <time>2020-08-07T13:20:09Z</time>
      </trkpt>
      <trkpt lat="45.64089" lon="6.84496">
        <ele>1921.3</ele>
        <time>2020-08-07T13:20:11Z</time>
      </trkpt>
      <trkpt lat="45.64097" lon="6.84488">
        <ele>1921.9</ele>
        <time>2020-08-07T13:20:13Z</time>
      </trkpt>
      <trkpt lat="45.64102" lon="6.84483">
        <ele>1922.2</ele>
        <time>2020-08-07T13:20:16Z</time>
      </trkpt>
      <trkpt lat="45.64109" lon="6.84476">
        <ele>1922.8</ele>
        <time>2020-08-07T13:20:17Z</time>
      </trkpt>
      <trkpt lat="45.64113" lon="6.84473">
        <ele>1923</ele>
        <time>2020-08-07T13:20:18Z</time>
      </trkpt>
      <trkpt lat="45.64117" lon="6.84469">
        <ele>1923.3</ele>
        <time>2020-08-07T13:20:20Z</time>
      </trkpt>
      <trkpt lat="45.64124" lon="6.84462">
        <ele>1923.8</ele>
        <time>2020-08-07T13:20:22Z</time>
      </trkpt>
      <trkpt lat="45.64127" lon="6.84459">
        <ele>1924</ele>
        <time>2020-08-07T13:20:23Z</time>
      </trkpt>
      <trkpt lat="45.64131" lon="6.84456">
        <ele>1924.2</ele>
        <time>2020-08-07T13:20:24Z</time>
      </trkpt>
      <trkpt lat="45.64134" lon="6.84453">
        <ele>1924.5</ele>
        <time>2020-08-07T13:20:26Z</time>
      </trkpt>
      <trkpt lat="45.64138" lon="6.8445">
        <ele>1924.7</ele>
        <time>2020-08-07T13:20:28Z</time>
      </trkpt>
      <trkpt lat="45.64141" lon="6.84448">
        <ele>1924.9</ele>
        <time>2020-08-07T13:20:29Z</time>
      </trkpt>
      <trkpt lat="45.64148" lon="6.84443">
        <ele>1925.3</ele>
        <time>2020-08-07T13:20:30Z</time>
      </trkpt>
      <trkpt lat="45.64151" lon="6.84441">
        <ele>1925.5</ele>
        <time>2020-08-07T13:20:31Z</time>
      </trkpt>
      <trkpt lat="45.64155" lon="6.84439">
        <ele>1925.8</ele>
        <time>2020-08-07T13:20:33Z</time>
      </trkpt>
      <trkpt lat="45.64157" lon="6.84437">
        <ele>1926</ele>
        <time>2020-08-07T13:20:34Z</time>
      </trkpt>
      <trkpt lat="45.64161" lon="6.84435">
        <ele>1926.2</ele>
        <time>2020-08-07T13:20:36Z</time>
      </trkpt>
      <trkpt lat="45.64164" lon="6.84433">
        <ele>1926.4</ele>
        <time>2020-08-07T13:20:37Z</time>
      </trkpt>
      <trkpt lat="45.6417" lon="6.84433">
        <ele>1926.8</ele>
        <time>2020-08-07T13:20:39Z</time>
      </trkpt>
      <trkpt lat="45.64173" lon="6.84433">
        <ele>1926.9</ele>
        <time>2020-08-07T13:20:40Z</time>
      </trkpt>
      <trkpt lat="45.64177" lon="6.84437">
        <ele>1927.3</ele>
        <time>2020-08-07T13:20:41Z</time>
      </trkpt>
      <trkpt lat="45.64179" lon="6.8444">
        <ele>1927.5</ele>
        <time>2020-08-07T13:20:42Z</time>
      </trkpt>
      <trkpt lat="45.64183" lon="6.84447">
        <ele>1927.8</ele>
        <time>2020-08-07T13:20:45Z</time>
      </trkpt>
      <trkpt lat="45.64186" lon="6.84451">
        <ele>1928</ele>
        <time>2020-08-07T13:20:46Z</time>
      </trkpt>
      <trkpt lat="45.64187" lon="6.84455">
        <ele>1928.2</ele>
        <time>2020-08-07T13:20:47Z</time>
      </trkpt>
      <trkpt lat="45.64189" lon="6.84463">
        <ele>1928.5</ele>
        <time>2020-08-07T13:20:49Z</time>
      </trkpt>
      <trkpt lat="45.6419" lon="6.84468">
        <ele>1928.7</ele>
        <time>2020-08-07T13:20:50Z</time>
      </trkpt>
      <trkpt lat="45.64194" lon="6.84482">
        <ele>1929.2</ele>
        <time>2020-08-07T13:20:52Z</time>
      </trkpt>
      <trkpt lat="45.64196" lon="6.84487">
        <ele>1929.4</ele>
        <time>2020-08-07T13:20:53Z</time>
      </trkpt>
      <trkpt lat="45.64198" lon="6.84494">
        <ele>1929.7</ele>
        <time>2020-08-07T13:20:56Z</time>
      </trkpt>
      <trkpt lat="45.64199" lon="6.84499">
        <ele>1929.9</ele>
        <time>2020-08-07T13:20:57Z</time>
      </trkpt>
      <trkpt lat="45.64201" lon="6.84506">
        <ele>1930.1</ele>
        <time>2020-08-07T13:20:59Z</time>
      </trkpt>
      <trkpt lat="45.64205" lon="6.8452">
        <ele>1930.5</ele>
        <time>2020-08-07T13:21:01Z</time>
      </trkpt>
      <trkpt lat="45.64208" lon="6.84527">
        <ele>1930.8</ele>
        <time>2020-08-07T13:21:04Z</time>
      </trkpt>
      <trkpt lat="45.64212" lon="6.84539">
        <ele>1931.1</ele>
        <time>2020-08-07T13:21:05Z</time>
      </trkpt>
      <trkpt lat="45.64214" lon="6.84545">
        <ele>1931.3</ele>
        <time>2020-08-07T13:21:06Z</time>
      </trkpt>
      <trkpt lat="45.64221" lon="6.84556">
        <ele>1931.7</ele>
        <time>2020-08-07T13:21:09Z</time>
      </trkpt>
      <trkpt lat="45.64224" lon="6.84562">
        <ele>1931.8</ele>
        <time>2020-08-07T13:21:10Z</time>
      </trkpt>
      <trkpt lat="45.64232" lon="6.84573">
        <ele>1932.1</ele>
        <time>2020-08-07T13:21:13Z</time>
      </trkpt>
      <trkpt lat="45.64235" lon="6.84578">
        <ele>1932.2</ele>
        <time>2020-08-07T13:21:15Z</time>
      </trkpt>
      <trkpt lat="45.64239" lon="6.84582">
        <ele>1932.3</ele>
        <time>2020-08-07T13:21:16Z</time>
      </trkpt>
      <trkpt lat="45.64242" lon="6.84587">
        <ele>1932.4</ele>
        <time>2020-08-07T13:21:18Z</time>
      </trkpt>
      <trkpt lat="45.64248" lon="6.84594">
        <ele>1932.6</ele>
        <time>2020-08-07T13:21:19Z</time>
      </trkpt>
      <trkpt lat="45.64251" lon="6.84598">
        <ele>1932.7</ele>
        <time>2020-08-07T13:21:21Z</time>
      </trkpt>
      <trkpt lat="45.64259" lon="6.84609">
        <ele>1932.9</ele>
        <time>2020-08-07T13:21:23Z</time>
      </trkpt>
      <trkpt lat="45.64263" lon="6.84621">
        <ele>1933.1</ele>
        <time>2020-08-07T13:21:25Z</time>
      </trkpt>
      <trkpt lat="45.64269" lon="6.84627">
        <ele>1933.3</ele>
        <time>2020-08-07T13:21:27Z</time>
      </trkpt>
      <trkpt lat="45.64275" lon="6.84634">
        <ele>1933.5</ele>
        <time>2020-08-07T13:21:29Z</time>
      </trkpt>
      <trkpt lat="45.64281" lon="6.84643">
        <ele>1933.8</ele>
        <time>2020-08-07T13:21:31Z</time>
      </trkpt>
      <trkpt lat="45.64286" lon="6.84651">
        <ele>1934.1</ele>
        <time>2020-08-07T13:21:33Z</time>
      </trkpt>
      <trkpt lat="45.64291" lon="6.84659">
        <ele>1934.3</ele>
        <time>2020-08-07T13:21:34Z</time>
      </trkpt>
      <trkpt lat="45.64294" lon="6.84663">
        <ele>1934.5</ele>
        <time>2020-08-07T13:21:35Z</time>
      </trkpt>
      <trkpt lat="45.64297" lon="6.84668">
        <ele>1934.6</ele>
        <time>2020-08-07T13:21:37Z</time>
      </trkpt>
      <trkpt lat="45.64302" lon="6.84677">
        <ele>1935</ele>
        <time>2020-08-07T13:21:38Z</time>
      </trkpt>
      <trkpt lat="45.64305" lon="6.84682">
        <ele>1935.2</ele>
        <time>2020-08-07T13:21:39Z</time>
      </trkpt>
      <trkpt lat="45.64307" lon="6.84686">
        <ele>1935.4</ele>
        <time>2020-08-07T13:21:41Z</time>
      </trkpt>
      <trkpt lat="45.64312" lon="6.84694">
        <ele>1935.8</ele>
        <time>2020-08-07T13:21:42Z</time>
      </trkpt>
      <trkpt lat="45.64318" lon="6.84703">
        <ele>1936.3</ele>
        <time>2020-08-07T13:21:44Z</time>
      </trkpt>
      <trkpt lat="45.64321" lon="6.84707">
        <ele>1936.5</ele>
        <time>2020-08-07T13:21:45Z</time>
      </trkpt>
      <trkpt lat="45.64324" lon="6.84712">
        <ele>1936.8</ele>
        <time>2020-08-07T13:21:47Z</time>
      </trkpt>
      <trkpt lat="45.64327" lon="6.84716">
        <ele>1937</ele>
        <time>2020-08-07T13:21:49Z</time>
      </trkpt>
      <trkpt lat="45.6433" lon="6.84719">
        <ele>1937.3</ele>
        <time>2020-08-07T13:21:50Z</time>
      </trkpt>
      <trkpt lat="45.64335" lon="6.84724">
        <ele>1937.7</ele>
        <time>2020-08-07T13:21:51Z</time>
      </trkpt>
      <trkpt lat="45.64338" lon="6.84727">
        <ele>1937.9</ele>
        <time>2020-08-07T13:21:53Z</time>
      </trkpt>
      <trkpt lat="45.64344" lon="6.84733">
        <ele>1938.4</ele>
        <time>2020-08-07T13:21:54Z</time>
      </trkpt>
      <trkpt lat="45.64353" lon="6.84742">
        <ele>1939.1</ele>
        <time>2020-08-07T13:21:57Z</time>
      </trkpt>
      <trkpt lat="45.64357" lon="6.84746">
        <ele>1939.4</ele>
        <time>2020-08-07T13:21:59Z</time>
      </trkpt>
      <trkpt lat="45.6436" lon="6.8475">
        <ele>1939.7</ele>
        <time>2020-08-07T13:22:01Z</time>
      </trkpt>
      <trkpt lat="45.64367" lon="6.84759">
        <ele>1940.3</ele>
        <time>2020-08-07T13:22:02Z</time>
      </trkpt>
      <trkpt lat="45.64371" lon="6.84763">
        <ele>1940.6</ele>
        <time>2020-08-07T13:22:04Z</time>
      </trkpt>
      <trkpt lat="45.64376" lon="6.84767">
        <ele>1941</ele>
        <time>2020-08-07T13:22:07Z</time>
      </trkpt>
      <trkpt lat="45.64383" lon="6.84769">
        <ele>1941.4</ele>
        <time>2020-08-07T13:22:09Z</time>
      </trkpt>
      <trkpt lat="45.6439" lon="6.84771">
        <ele>1941.7</ele>
        <time>2020-08-07T13:22:11Z</time>
      </trkpt>
      <trkpt lat="45.64397" lon="6.84772">
        <ele>1942.1</ele>
        <time>2020-08-07T13:22:13Z</time>
      </trkpt>
      <trkpt lat="45.644" lon="6.84773">
        <ele>1942.2</ele>
        <time>2020-08-07T13:22:14Z</time>
      </trkpt>
      <trkpt lat="45.64406" lon="6.84775">
        <ele>1942.5</ele>
        <time>2020-08-07T13:22:15Z</time>
      </trkpt>
      <trkpt lat="45.64411" lon="6.84778">
        <ele>1942.7</ele>
        <time>2020-08-07T13:22:16Z</time>
      </trkpt>
      <trkpt lat="45.64417" lon="6.84781">
        <ele>1943</ele>
        <time>2020-08-07T13:22:19Z</time>
      </trkpt>
      <trkpt lat="45.64423" lon="6.84785">
        <ele>1943.3</ele>
        <time>2020-08-07T13:22:21Z</time>
      </trkpt>
      <trkpt lat="45.64426" lon="6.84787">
        <ele>1943.5</ele>
        <time>2020-08-07T13:22:22Z</time>
      </trkpt>
      <trkpt lat="45.64432" lon="6.84792">
        <ele>1943.8</ele>
        <time>2020-08-07T13:22:24Z</time>
      </trkpt>
      <trkpt lat="45.64437" lon="6.84798">
        <ele>1944.1</ele>
        <time>2020-08-07T13:22:26Z</time>
      </trkpt>
      <trkpt lat="45.64442" lon="6.84804">
        <ele>1944.4</ele>
        <time>2020-08-07T13:22:28Z</time>
      </trkpt>
      <trkpt lat="45.64445" lon="6.84807">
        <ele>1944.6</ele>
        <time>2020-08-07T13:22:29Z</time>
      </trkpt>
      <trkpt lat="45.6445" lon="6.84812">
        <ele>1944.9</ele>
        <time>2020-08-07T13:22:30Z</time>
      </trkpt>
      <trkpt lat="45.64452" lon="6.84815">
        <ele>1945.1</ele>
        <time>2020-08-07T13:22:31Z</time>
      </trkpt>
      <trkpt lat="45.64459" lon="6.84827">
        <ele>1945.5</ele>
        <time>2020-08-07T13:22:33Z</time>
      </trkpt>
      <trkpt lat="45.64463" lon="6.84832">
        <ele>1945.7</ele>
        <time>2020-08-07T13:22:35Z</time>
      </trkpt>
      <trkpt lat="45.64469" lon="6.84842">
        <ele>1946.1</ele>
        <time>2020-08-07T13:22:37Z</time>
      </trkpt>
      <trkpt lat="45.64472" lon="6.84849">
        <ele>1946.3</ele>
        <time>2020-08-07T13:22:39Z</time>
      </trkpt>
      <trkpt lat="45.64474" lon="6.84854">
        <ele>1946.5</ele>
        <time>2020-08-07T13:22:40Z</time>
      </trkpt>
      <trkpt lat="45.64476" lon="6.84859">
        <ele>1946.7</ele>
        <time>2020-08-07T13:22:42Z</time>
      </trkpt>
      <trkpt lat="45.64481" lon="6.84869">
        <ele>1947.1</ele>
        <time>2020-08-07T13:22:43Z</time>
      </trkpt>
      <trkpt lat="45.64483" lon="6.84874">
        <ele>1947.3</ele>
        <time>2020-08-07T13:22:45Z</time>
      </trkpt>
      <trkpt lat="45.64485" lon="6.84879">
        <ele>1947.5</ele>
        <time>2020-08-07T13:22:47Z</time>
      </trkpt>
      <trkpt lat="45.64489" lon="6.84887">
        <ele>1947.8</ele>
        <time>2020-08-07T13:22:49Z</time>
      </trkpt>
      <trkpt lat="45.64493" lon="6.84895">
        <ele>1948.1</ele>
        <time>2020-08-07T13:22:51Z</time>
      </trkpt>
      <trkpt lat="45.64499" lon="6.84905">
        <ele>1948.5</ele>
        <time>2020-08-07T13:22:52Z</time>
      </trkpt>
      <trkpt lat="45.64505" lon="6.84914">
        <ele>1948.9</ele>
        <time>2020-08-07T13:22:55Z</time>
      </trkpt>
      <trkpt lat="45.64508" lon="6.84917">
        <ele>1949.1</ele>
        <time>2020-08-07T13:22:56Z</time>
      </trkpt>
      <trkpt lat="45.64511" lon="6.8492">
        <ele>1949.3</ele>
        <time>2020-08-07T13:22:58Z</time>
      </trkpt>
      <trkpt lat="45.64515" lon="6.84925">
        <ele>1949.5</ele>
        <time>2020-08-07T13:22:59Z</time>
      </trkpt>
      <trkpt lat="45.64518" lon="6.84928">
        <ele>1949.7</ele>
        <time>2020-08-07T13:23:00Z</time>
      </trkpt>
      <trkpt lat="45.64527" lon="6.84936">
        <ele>1950.1</ele>
        <time>2020-08-07T13:23:02Z</time>
      </trkpt>
      <trkpt lat="45.6453" lon="6.84939">
        <ele>1950.3</ele>
        <time>2020-08-07T13:23:03Z</time>
      </trkpt>
      <trkpt lat="45.64535" lon="6.84943">
        <ele>1950.6</ele>
        <time>2020-08-07T13:23:05Z</time>
      </trkpt>
      <trkpt lat="45.64539" lon="6.84947">
        <ele>1950.8</ele>
        <time>2020-08-07T13:23:06Z</time>
      </trkpt>
      <trkpt lat="45.64542" lon="6.84952">
        <ele>1951.1</ele>
        <time>2020-08-07T13:23:07Z</time>
      </trkpt>
      <trkpt lat="45.64546" lon="6.8496">
        <ele>1951.4</ele>
        <time>2020-08-07T13:23:10Z</time>
      </trkpt>
      <trkpt lat="45.6455" lon="6.84967">
        <ele>1951.8</ele>
        <time>2020-08-07T13:23:11Z</time>
      </trkpt>
      <trkpt lat="45.64552" lon="6.84971">
        <ele>1952</ele>
        <time>2020-08-07T13:23:13Z</time>
      </trkpt>
      <trkpt lat="45.64559" lon="6.84986">
        <ele>1952.8</ele>
        <time>2020-08-07T13:23:15Z</time>
      </trkpt>
      <trkpt lat="45.64561" lon="6.84991">
        <ele>1953</ele>
        <time>2020-08-07T13:23:16Z</time>
      </trkpt>
      <trkpt lat="45.64567" lon="6.85002">
        <ele>1953.4</ele>
        <time>2020-08-07T13:23:19Z</time>
      </trkpt>
      <trkpt lat="45.64571" lon="6.85009">
        <ele>1953.6</ele>
        <time>2020-08-07T13:23:20Z</time>
      </trkpt>
      <trkpt lat="45.64576" lon="6.85018">
        <ele>1953.8</ele>
        <time>2020-08-07T13:23:23Z</time>
      </trkpt>
      <trkpt lat="45.64583" lon="6.85033">
        <ele>1954.3</ele>
        <time>2020-08-07T13:23:25Z</time>
      </trkpt>
      <trkpt lat="45.64588" lon="6.85037">
        <ele>1954.5</ele>
        <time>2020-08-07T13:23:27Z</time>
      </trkpt>
      <trkpt lat="45.64596" lon="6.85045">
        <ele>1954.8</ele>
        <time>2020-08-07T13:23:29Z</time>
      </trkpt>
      <trkpt lat="45.64601" lon="6.85049">
        <ele>1955</ele>
        <time>2020-08-07T13:23:31Z</time>
      </trkpt>
      <trkpt lat="45.64609" lon="6.85059">
        <ele>1955.5</ele>
        <time>2020-08-07T13:23:33Z</time>
      </trkpt>
      <trkpt lat="45.64613" lon="6.85063">
        <ele>1955.7</ele>
        <time>2020-08-07T13:23:35Z</time>
      </trkpt>
      <trkpt lat="45.64616" lon="6.85067">
        <ele>1955.9</ele>
        <time>2020-08-07T13:23:37Z</time>
      </trkpt>
      <trkpt lat="45.64622" lon="6.85073">
        <ele>1956.2</ele>
        <time>2020-08-07T13:23:38Z</time>
      </trkpt>
      <trkpt lat="45.64627" lon="6.8508">
        <ele>1956.6</ele>
        <time>2020-08-07T13:23:41Z</time>
      </trkpt>
      <trkpt lat="45.64634" lon="6.85089">
        <ele>1957</ele>
        <time>2020-08-07T13:23:42Z</time>
      </trkpt>
      <trkpt lat="45.64637" lon="6.85093">
        <ele>1957.3</ele>
        <time>2020-08-07T13:23:43Z</time>
      </trkpt>
      <trkpt lat="45.6464" lon="6.85099">
        <ele>1957.5</ele>
        <time>2020-08-07T13:23:45Z</time>
      </trkpt>
      <trkpt lat="45.64644" lon="6.85103">
        <ele>1957.8</ele>
        <time>2020-08-07T13:23:46Z</time>
      </trkpt>
      <trkpt lat="45.64648" lon="6.8511">
        <ele>1958.2</ele>
        <time>2020-08-07T13:23:48Z</time>
      </trkpt>
      <trkpt lat="45.64651" lon="6.85113">
        <ele>1958.4</ele>
        <time>2020-08-07T13:23:49Z</time>
      </trkpt>
      <trkpt lat="45.64653" lon="6.85116">
        <ele>1958.5</ele>
        <time>2020-08-07T13:23:50Z</time>
      </trkpt>
      <trkpt lat="45.64655" lon="6.8512">
        <ele>1958.7</ele>
        <time>2020-08-07T13:23:51Z</time>
      </trkpt>
      <trkpt lat="45.64658" lon="6.85124">
        <ele>1958.9</ele>
        <time>2020-08-07T13:23:52Z</time>
      </trkpt>
      <trkpt lat="45.64667" lon="6.85137">
        <ele>1959.5</ele>
        <time>2020-08-07T13:23:55Z</time>
      </trkpt>
      <trkpt lat="45.6467" lon="6.85142">
        <ele>1959.7</ele>
        <time>2020-08-07T13:23:56Z</time>
      </trkpt>
      <trkpt lat="45.64678" lon="6.85152">
        <ele>1960.2</ele>
        <time>2020-08-07T13:23:59Z</time>
      </trkpt>
      <trkpt lat="45.64682" lon="6.85157">
        <ele>1960.5</ele>
        <time>2020-08-07T13:24:00Z</time>
      </trkpt>
      <trkpt lat="45.64688" lon="6.85165">
        <ele>1961</ele>
        <time>2020-08-07T13:24:03Z</time>
      </trkpt>
      <trkpt lat="45.6469" lon="6.85168">
        <ele>1961.2</ele>
        <time>2020-08-07T13:24:04Z</time>
      </trkpt>
      <trkpt lat="45.64693" lon="6.85174">
        <ele>1961.5</ele>
        <time>2020-08-07T13:24:05Z</time>
      </trkpt>
      <trkpt lat="45.64695" lon="6.85178">
        <ele>1961.8</ele>
        <time>2020-08-07T13:24:06Z</time>
      </trkpt>
      <trkpt lat="45.64698" lon="6.85182">
        <ele>1962</ele>
        <time>2020-08-07T13:24:08Z</time>
      </trkpt>
      <trkpt lat="45.64701" lon="6.85186">
        <ele>1962.3</ele>
        <time>2020-08-07T13:24:09Z</time>
      </trkpt>
      <trkpt lat="45.64704" lon="6.85191">
        <ele>1962.6</ele>
        <time>2020-08-07T13:24:11Z</time>
      </trkpt>
      <trkpt lat="45.6471" lon="6.85199">
        <ele>1963.1</ele>
        <time>2020-08-07T13:24:13Z</time>
      </trkpt>
      <trkpt lat="45.64715" lon="6.85205">
        <ele>1963.5</ele>
        <time>2020-08-07T13:24:14Z</time>
      </trkpt>
      <trkpt lat="45.64719" lon="6.85208">
        <ele>1963.8</ele>
        <time>2020-08-07T13:24:16Z</time>
      </trkpt>
      <trkpt lat="45.6473" lon="6.85212">
        <ele>1964.3</ele>
        <time>2020-08-07T13:24:17Z</time>
      </trkpt>
      <trkpt lat="45.6474" lon="6.85213">
        <ele>1964.7</ele>
        <time>2020-08-07T13:24:20Z</time>
      </trkpt>
      <trkpt lat="45.64746" lon="6.85213">
        <ele>1964.9</ele>
        <time>2020-08-07T13:24:22Z</time>
      </trkpt>
      <trkpt lat="45.6475" lon="6.85213">
        <ele>1965.1</ele>
        <time>2020-08-07T13:24:24Z</time>
      </trkpt>
      <trkpt lat="45.64754" lon="6.85214">
        <ele>1965.2</ele>
        <time>2020-08-07T13:24:25Z</time>
      </trkpt>
      <trkpt lat="45.64768" lon="6.85217">
        <ele>1965.6</ele>
        <time>2020-08-07T13:24:27Z</time>
      </trkpt>
      <trkpt lat="45.64774" lon="6.8522">
        <ele>1965.8</ele>
        <time>2020-08-07T13:24:29Z</time>
      </trkpt>
      <trkpt lat="45.64778" lon="6.85223">
        <ele>1965.9</ele>
        <time>2020-08-07T13:24:31Z</time>
      </trkpt>
      <trkpt lat="45.64786" lon="6.85228">
        <ele>1966.1</ele>
        <time>2020-08-07T13:24:32Z</time>
      </trkpt>
      <trkpt lat="45.64792" lon="6.85232">
        <ele>1966.2</ele>
        <time>2020-08-07T13:24:33Z</time>
      </trkpt>
      <trkpt lat="45.64796" lon="6.85235">
        <ele>1966.3</ele>
        <time>2020-08-07T13:24:34Z</time>
      </trkpt>
      <trkpt lat="45.64801" lon="6.85237">
        <ele>1966.5</ele>
        <time>2020-08-07T13:24:36Z</time>
      </trkpt>
      <trkpt lat="45.64805" lon="6.8524">
        <ele>1966.6</ele>
        <time>2020-08-07T13:24:37Z</time>
      </trkpt>
      <trkpt lat="45.64809" lon="6.85243">
        <ele>1966.7</ele>
        <time>2020-08-07T13:24:39Z</time>
      </trkpt>
      <trkpt lat="45.64816" lon="6.85247">
        <ele>1966.9</ele>
        <time>2020-08-07T13:24:40Z</time>
      </trkpt>
      <trkpt lat="45.64822" lon="6.8525">
        <ele>1967</ele>
        <time>2020-08-07T13:24:42Z</time>
      </trkpt>
      <trkpt lat="45.64828" lon="6.85254">
        <ele>1967.2</ele>
        <time>2020-08-07T13:24:43Z</time>
      </trkpt>
      <trkpt lat="45.64837" lon="6.8526">
        <ele>1967.4</ele>
        <time>2020-08-07T13:24:45Z</time>
      </trkpt>
      <trkpt lat="45.64841" lon="6.85261">
        <ele>1967.5</ele>
        <time>2020-08-07T13:24:47Z</time>
      </trkpt>
      <trkpt lat="45.64849" lon="6.85265">
        <ele>1967.7</ele>
        <time>2020-08-07T13:24:48Z</time>
      </trkpt>
      <trkpt lat="45.64859" lon="6.8527">
        <ele>1968</ele>
        <time>2020-08-07T13:24:50Z</time>
      </trkpt>
      <trkpt lat="45.64866" lon="6.85273">
        <ele>1968.2</ele>
        <time>2020-08-07T13:24:52Z</time>
      </trkpt>
      <trkpt lat="45.64872" lon="6.85276">
        <ele>1968.3</ele>
        <time>2020-08-07T13:24:53Z</time>
      </trkpt>
      <trkpt lat="45.64876" lon="6.85278">
        <ele>1968.4</ele>
        <time>2020-08-07T13:24:54Z</time>
      </trkpt>
      <trkpt lat="45.64882" lon="6.85281">
        <ele>1968.6</ele>
        <time>2020-08-07T13:24:57Z</time>
      </trkpt>
      <trkpt lat="45.64886" lon="6.85283">
        <ele>1968.7</ele>
        <time>2020-08-07T13:24:58Z</time>
      </trkpt>
      <trkpt lat="45.64893" lon="6.85288">
        <ele>1969</ele>
        <time>2020-08-07T13:25:00Z</time>
      </trkpt>
      <trkpt lat="45.64901" lon="6.85294">
        <ele>1969.3</ele>
        <time>2020-08-07T13:25:02Z</time>
      </trkpt>
      <trkpt lat="45.64906" lon="6.85302">
        <ele>1969.6</ele>
        <time>2020-08-07T13:25:03Z</time>
      </trkpt>
      <trkpt lat="45.64911" lon="6.85311">
        <ele>1970</ele>
        <time>2020-08-07T13:25:06Z</time>
      </trkpt>
      <trkpt lat="45.64915" lon="6.8532">
        <ele>1970.4</ele>
        <time>2020-08-07T13:25:08Z</time>
      </trkpt>
      <trkpt lat="45.64917" lon="6.85324">
        <ele>1970.6</ele>
        <time>2020-08-07T13:25:09Z</time>
      </trkpt>
      <trkpt lat="45.64919" lon="6.85329">
        <ele>1970.8</ele>
        <time>2020-08-07T13:25:10Z</time>
      </trkpt>
      <trkpt lat="45.64921" lon="6.85334">
        <ele>1971</ele>
        <time>2020-08-07T13:25:11Z</time>
      </trkpt>
      <trkpt lat="45.64928" lon="6.8535">
        <ele>1971.7</ele>
        <time>2020-08-07T13:25:13Z</time>
      </trkpt>
      <trkpt lat="45.64932" lon="6.85357">
        <ele>1972.1</ele>
        <time>2020-08-07T13:25:15Z</time>
      </trkpt>
      <trkpt lat="45.64934" lon="6.85363">
        <ele>1972.4</ele>
        <time>2020-08-07T13:25:17Z</time>
      </trkpt>
      <trkpt lat="45.64939" lon="6.85373">
        <ele>1973.1</ele>
        <time>2020-08-07T13:25:18Z</time>
      </trkpt>
      <trkpt lat="45.64944" lon="6.85384">
        <ele>1973.7</ele>
        <time>2020-08-07T13:25:21Z</time>
      </trkpt>
      <trkpt lat="45.64946" lon="6.85389">
        <ele>1974</ele>
        <time>2020-08-07T13:25:22Z</time>
      </trkpt>
      <trkpt lat="45.6495" lon="6.85395">
        <ele>1974.3</ele>
        <time>2020-08-07T13:25:25Z</time>
      </trkpt>
      <trkpt lat="45.64955" lon="6.85406">
        <ele>1975</ele>
        <time>2020-08-07T13:25:26Z</time>
      </trkpt>
      <trkpt lat="45.64958" lon="6.85415">
        <ele>1975.4</ele>
        <time>2020-08-07T13:25:29Z</time>
      </trkpt>
      <trkpt lat="45.6496" lon="6.8542">
        <ele>1975.7</ele>
        <time>2020-08-07T13:25:30Z</time>
      </trkpt>
      <trkpt lat="45.64962" lon="6.85427">
        <ele>1976</ele>
        <time>2020-08-07T13:25:31Z</time>
      </trkpt>
      <trkpt lat="45.64963" lon="6.85433">
        <ele>1976.3</ele>
        <time>2020-08-07T13:25:33Z</time>
      </trkpt>
      <trkpt lat="45.64964" lon="6.85439">
        <ele>1976.6</ele>
        <time>2020-08-07T13:25:35Z</time>
      </trkpt>
      <trkpt lat="45.64966" lon="6.85451">
        <ele>1977.1</ele>
        <time>2020-08-07T13:25:36Z</time>
      </trkpt>
      <trkpt lat="45.64967" lon="6.85457">
        <ele>1977.4</ele>
        <time>2020-08-07T13:25:38Z</time>
      </trkpt>
      <trkpt lat="45.64968" lon="6.85462">
        <ele>1977.7</ele>
        <time>2020-08-07T13:25:39Z</time>
      </trkpt>
      <trkpt lat="45.64969" lon="6.85467">
        <ele>1977.9</ele>
        <time>2020-08-07T13:25:40Z</time>
      </trkpt>
      <trkpt lat="45.6497" lon="6.85472">
        <ele>1978.1</ele>
        <time>2020-08-07T13:25:42Z</time>
      </trkpt>
      <trkpt lat="45.64973" lon="6.8548">
        <ele>1978.6</ele>
        <time>2020-08-07T13:25:43Z</time>
      </trkpt>
      <trkpt lat="45.64977" lon="6.85492">
        <ele>1979.2</ele>
        <time>2020-08-07T13:25:45Z</time>
      </trkpt>
      <trkpt lat="45.64979" lon="6.85497">
        <ele>1979.4</ele>
        <time>2020-08-07T13:25:47Z</time>
      </trkpt>
      <trkpt lat="45.64983" lon="6.85505">
        <ele>1979.7</ele>
        <time>2020-08-07T13:25:48Z</time>
      </trkpt>
      <trkpt lat="45.64986" lon="6.85511">
        <ele>1979.9</ele>
        <time>2020-08-07T13:25:50Z</time>
      </trkpt>
      <trkpt lat="45.6499" lon="6.85518">
        <ele>1980.3</ele>
        <time>2020-08-07T13:25:52Z</time>
      </trkpt>
      <trkpt lat="45.64993" lon="6.85524">
        <ele>1980.6</ele>
        <time>2020-08-07T13:25:54Z</time>
      </trkpt>
      <trkpt lat="45.65001" lon="6.85535">
        <ele>1981.3</ele>
        <time>2020-08-07T13:25:56Z</time>
      </trkpt>
      <trkpt lat="45.65003" lon="6.85538">
        <ele>1981.6</ele>
        <time>2020-08-07T13:25:57Z</time>
      </trkpt>
      <trkpt lat="45.65007" lon="6.85543">
        <ele>1981.9</ele>
        <time>2020-08-07T13:25:59Z</time>
      </trkpt>
      <trkpt lat="45.65015" lon="6.85556">
        <ele>1982.7</ele>
        <time>2020-08-07T13:26:02Z</time>
      </trkpt>
      <trkpt lat="45.65017" lon="6.8556">
        <ele>1983</ele>
        <time>2020-08-07T13:26:03Z</time>
      </trkpt>
      <trkpt lat="45.65023" lon="6.85572">
        <ele>1983.5</ele>
        <time>2020-08-07T13:26:06Z</time>
      </trkpt>
      <trkpt lat="45.65025" lon="6.8558">
        <ele>1983.8</ele>
        <time>2020-08-07T13:26:07Z</time>
      </trkpt>
      <trkpt lat="45.65028" lon="6.85587">
        <ele>1984</ele>
        <time>2020-08-07T13:26:09Z</time>
      </trkpt>
      <trkpt lat="45.65032" lon="6.85598">
        <ele>1984.4</ele>
        <time>2020-08-07T13:26:12Z</time>
      </trkpt>
      <trkpt lat="45.65035" lon="6.85606">
        <ele>1984.7</ele>
        <time>2020-08-07T13:26:14Z</time>
      </trkpt>
      <trkpt lat="45.65037" lon="6.8561">
        <ele>1984.8</ele>
        <time>2020-08-07T13:26:15Z</time>
      </trkpt>
      <trkpt lat="45.65041" lon="6.85619">
        <ele>1985.1</ele>
        <time>2020-08-07T13:26:16Z</time>
      </trkpt>
      <trkpt lat="45.65044" lon="6.85624">
        <ele>1985.3</ele>
        <time>2020-08-07T13:26:17Z</time>
      </trkpt>
      <trkpt lat="45.65048" lon="6.85631">
        <ele>1985.5</ele>
        <time>2020-08-07T13:26:19Z</time>
      </trkpt>
      <trkpt lat="45.65052" lon="6.85637">
        <ele>1985.7</ele>
        <time>2020-08-07T13:26:20Z</time>
      </trkpt>
      <trkpt lat="45.65055" lon="6.8564">
        <ele>1985.8</ele>
        <time>2020-08-07T13:26:21Z</time>
      </trkpt>
      <trkpt lat="45.65058" lon="6.85644">
        <ele>1985.9</ele>
        <time>2020-08-07T13:26:23Z</time>
      </trkpt>
      <trkpt lat="45.65064" lon="6.85648">
        <ele>1986</ele>
        <time>2020-08-07T13:26:24Z</time>
      </trkpt>
      <trkpt lat="45.65071" lon="6.85653">
        <ele>1986.2</ele>
        <time>2020-08-07T13:26:26Z</time>
      </trkpt>
      <trkpt lat="45.65081" lon="6.85658">
        <ele>1986.3</ele>
        <time>2020-08-07T13:26:28Z</time>
      </trkpt>
      <trkpt lat="45.65086" lon="6.8566">
        <ele>1986.2</ele>
        <time>2020-08-07T13:26:29Z</time>
      </trkpt>
      <trkpt lat="45.65091" lon="6.85662">
        <ele>1986.2</ele>
        <time>2020-08-07T13:26:30Z</time>
      </trkpt>
      <trkpt lat="45.65096" lon="6.85665">
        <ele>1986.2</ele>
        <time>2020-08-07T13:26:31Z</time>
      </trkpt>
      <trkpt lat="45.65106" lon="6.85672">
        <ele>1986.1</ele>
        <time>2020-08-07T13:26:33Z</time>
      </trkpt>
      <trkpt lat="45.65112" lon="6.85676">
        <ele>1986.1</ele>
        <time>2020-08-07T13:26:34Z</time>
      </trkpt>
      <trkpt lat="45.65122" lon="6.85682">
        <ele>1986.2</ele>
        <time>2020-08-07T13:26:36Z</time>
      </trkpt>
      <trkpt lat="45.6513" lon="6.85689">
        <ele>1986.4</ele>
        <time>2020-08-07T13:26:38Z</time>
      </trkpt>
      <trkpt lat="45.65137" lon="6.85693">
        <ele>1986.6</ele>
        <time>2020-08-07T13:26:40Z</time>
      </trkpt>
      <trkpt lat="45.6514" lon="6.85695">
        <ele>1986.8</ele>
        <time>2020-08-07T13:26:41Z</time>
      </trkpt>
      <trkpt lat="45.65148" lon="6.857">
        <ele>1987.1</ele>
        <time>2020-08-07T13:26:43Z</time>
      </trkpt>
      <trkpt lat="45.65152" lon="6.85703">
        <ele>1987.2</ele>
        <time>2020-08-07T13:26:44Z</time>
      </trkpt>
      <trkpt lat="45.65154" lon="6.85705">
        <ele>1987.3</ele>
        <time>2020-08-07T13:26:45Z</time>
      </trkpt>
      <trkpt lat="45.65158" lon="6.85709">
        <ele>1987.5</ele>
        <time>2020-08-07T13:26:47Z</time>
      </trkpt>
      <trkpt lat="45.65163" lon="6.85711">
        <ele>1987.7</ele>
        <time>2020-08-07T13:26:48Z</time>
      </trkpt>
      <trkpt lat="45.65169" lon="6.85715">
        <ele>1988</ele>
        <time>2020-08-07T13:26:50Z</time>
      </trkpt>
      <trkpt lat="45.65181" lon="6.85724">
        <ele>1988.7</ele>
        <time>2020-08-07T13:26:52Z</time>
      </trkpt>
      <trkpt lat="45.65185" lon="6.85728">
        <ele>1988.9</ele>
        <time>2020-08-07T13:26:54Z</time>
      </trkpt>
      <trkpt lat="45.65193" lon="6.85736">
        <ele>1989.5</ele>
        <time>2020-08-07T13:26:56Z</time>
      </trkpt>
      <trkpt lat="45.65195" lon="6.85739">
        <ele>1989.7</ele>
        <time>2020-08-07T13:26:57Z</time>
      </trkpt>
      <trkpt lat="45.65198" lon="6.85743">
        <ele>1989.9</ele>
        <time>2020-08-07T13:26:59Z</time>
      </trkpt>
      <trkpt lat="45.65201" lon="6.85747">
        <ele>1990.1</ele>
        <time>2020-08-07T13:27:00Z</time>
      </trkpt>
      <trkpt lat="45.65204" lon="6.8575">
        <ele>1990.2</ele>
        <time>2020-08-07T13:27:02Z</time>
      </trkpt>
      <trkpt lat="45.65206" lon="6.85753">
        <ele>1990.4</ele>
        <time>2020-08-07T13:27:03Z</time>
      </trkpt>
      <trkpt lat="45.65216" lon="6.85765">
        <ele>1991.1</ele>
        <time>2020-08-07T13:27:05Z</time>
      </trkpt>
      <trkpt lat="45.65222" lon="6.85772">
        <ele>1991.6</ele>
        <time>2020-08-07T13:27:08Z</time>
      </trkpt>
      <trkpt lat="45.65225" lon="6.85775">
        <ele>1991.8</ele>
        <time>2020-08-07T13:27:09Z</time>
      </trkpt>
      <trkpt lat="45.65228" lon="6.85778">
        <ele>1992</ele>
        <time>2020-08-07T13:27:10Z</time>
      </trkpt>
      <trkpt lat="45.65232" lon="6.85783">
        <ele>1992.3</ele>
        <time>2020-08-07T13:27:13Z</time>
      </trkpt>
      <trkpt lat="45.65235" lon="6.85786">
        <ele>1992.5</ele>
        <time>2020-08-07T13:27:14Z</time>
      </trkpt>
      <trkpt lat="45.65242" lon="6.85792">
        <ele>1992.9</ele>
        <time>2020-08-07T13:27:15Z</time>
      </trkpt>
      <trkpt lat="45.65246" lon="6.85794">
        <ele>1993.1</ele>
        <time>2020-08-07T13:27:16Z</time>
      </trkpt>
      <trkpt lat="45.65249" lon="6.85797">
        <ele>1993.3</ele>
        <time>2020-08-07T13:27:18Z</time>
      </trkpt>
      <trkpt lat="45.65253" lon="6.85799">
        <ele>1993.5</ele>
        <time>2020-08-07T13:27:19Z</time>
      </trkpt>
      <trkpt lat="45.65256" lon="6.85801">
        <ele>1993.6</ele>
        <time>2020-08-07T13:27:20Z</time>
      </trkpt>
      <trkpt lat="45.65264" lon="6.85805">
        <ele>1993.9</ele>
        <time>2020-08-07T13:27:22Z</time>
      </trkpt>
      <trkpt lat="45.65268" lon="6.85807">
        <ele>1994.1</ele>
        <time>2020-08-07T13:27:23Z</time>
      </trkpt>
      <trkpt lat="45.65273" lon="6.85809">
        <ele>1994.2</ele>
        <time>2020-08-07T13:27:24Z</time>
      </trkpt>
      <trkpt lat="45.65278" lon="6.8581">
        <ele>1994.4</ele>
        <time>2020-08-07T13:27:25Z</time>
      </trkpt>
      <trkpt lat="45.65286" lon="6.85813">
        <ele>1994.6</ele>
        <time>2020-08-07T13:27:27Z</time>
      </trkpt>
      <trkpt lat="45.6529" lon="6.85815">
        <ele>1994.7</ele>
        <time>2020-08-07T13:27:29Z</time>
      </trkpt>
      <trkpt lat="45.65301" lon="6.8582">
        <ele>1995</ele>
        <time>2020-08-07T13:27:31Z</time>
      </trkpt>
      <trkpt lat="45.65307" lon="6.85823">
        <ele>1995.3</ele>
        <time>2020-08-07T13:27:33Z</time>
      </trkpt>
      <trkpt lat="45.6531" lon="6.85825">
        <ele>1995.4</ele>
        <time>2020-08-07T13:27:35Z</time>
      </trkpt>
      <trkpt lat="45.65317" lon="6.8583">
        <ele>1995.7</ele>
        <time>2020-08-07T13:27:37Z</time>
      </trkpt>
      <trkpt lat="45.65327" lon="6.85838">
        <ele>1996.1</ele>
        <time>2020-08-07T13:27:38Z</time>
      </trkpt>
      <trkpt lat="45.65331" lon="6.85842">
        <ele>1996.3</ele>
        <time>2020-08-07T13:27:40Z</time>
      </trkpt>
      <trkpt lat="45.65334" lon="6.85845">
        <ele>1996.5</ele>
        <time>2020-08-07T13:27:42Z</time>
      </trkpt>
      <trkpt lat="45.65338" lon="6.8585">
        <ele>1996.7</ele>
        <time>2020-08-07T13:27:43Z</time>
      </trkpt>
      <trkpt lat="45.65344" lon="6.85855">
        <ele>1997</ele>
        <time>2020-08-07T13:27:45Z</time>
      </trkpt>
      <trkpt lat="45.65351" lon="6.85863">
        <ele>1997.4</ele>
        <time>2020-08-07T13:27:46Z</time>
      </trkpt>
      <trkpt lat="45.65356" lon="6.85868">
        <ele>1997.8</ele>
        <time>2020-08-07T13:27:49Z</time>
      </trkpt>
      <trkpt lat="45.65361" lon="6.85875">
        <ele>1998.2</ele>
        <time>2020-08-07T13:27:50Z</time>
      </trkpt>
      <trkpt lat="45.65363" lon="6.8588">
        <ele>1998.4</ele>
        <time>2020-08-07T13:27:51Z</time>
      </trkpt>
      <trkpt lat="45.65366" lon="6.85884">
        <ele>1998.7</ele>
        <time>2020-08-07T13:27:52Z</time>
      </trkpt>
      <trkpt lat="45.65369" lon="6.85889">
        <ele>1998.9</ele>
        <time>2020-08-07T13:27:53Z</time>
      </trkpt>
      <trkpt lat="45.65374" lon="6.85897">
        <ele>1999.4</ele>
        <time>2020-08-07T13:27:55Z</time>
      </trkpt>
      <trkpt lat="45.65377" lon="6.85901">
        <ele>1999.7</ele>
        <time>2020-08-07T13:27:56Z</time>
      </trkpt>
      <trkpt lat="45.6538" lon="6.85905">
        <ele>1999.9</ele>
        <time>2020-08-07T13:27:57Z</time>
      </trkpt>
      <trkpt lat="45.65382" lon="6.85909">
        <ele>2000.1</ele>
        <time>2020-08-07T13:27:58Z</time>
      </trkpt>
      <trkpt lat="45.65385" lon="6.85912">
        <ele>2000.3</ele>
        <time>2020-08-07T13:27:59Z</time>
      </trkpt>
      <trkpt lat="45.65387" lon="6.85915">
        <ele>2000.5</ele>
        <time>2020-08-07T13:28:00Z</time>
      </trkpt>
      <trkpt lat="45.6539" lon="6.85918">
        <ele>2000.8</ele>
        <time>2020-08-07T13:28:01Z</time>
      </trkpt>
      <trkpt lat="45.65392" lon="6.85922">
        <ele>2001</ele>
        <time>2020-08-07T13:28:02Z</time>
      </trkpt>
      <trkpt lat="45.65395" lon="6.85926">
        <ele>2001.2</ele>
        <time>2020-08-07T13:28:04Z</time>
      </trkpt>
      <trkpt lat="45.65397" lon="6.8593">
        <ele>2001.4</ele>
        <time>2020-08-07T13:28:05Z</time>
      </trkpt>
      <trkpt lat="45.654" lon="6.85934">
        <ele>2001.7</ele>
        <time>2020-08-07T13:28:06Z</time>
      </trkpt>
      <trkpt lat="45.65403" lon="6.85938">
        <ele>2001.9</ele>
        <time>2020-08-07T13:28:07Z</time>
      </trkpt>
      <trkpt lat="45.65409" lon="6.85946">
        <ele>2002.5</ele>
        <time>2020-08-07T13:28:09Z</time>
      </trkpt>
      <trkpt lat="45.65413" lon="6.85951">
        <ele>2002.8</ele>
        <time>2020-08-07T13:28:11Z</time>
      </trkpt>
      <trkpt lat="45.65417" lon="6.85954">
        <ele>2003</ele>
        <time>2020-08-07T13:28:13Z</time>
      </trkpt>
      <trkpt lat="45.65424" lon="6.85959">
        <ele>2003.4</ele>
        <time>2020-08-07T13:28:14Z</time>
      </trkpt>
      <trkpt lat="45.65434" lon="6.85963">
        <ele>2003.9</ele>
        <time>2020-08-07T13:28:17Z</time>
      </trkpt>
      <trkpt lat="45.65438" lon="6.85964">
        <ele>2004</ele>
        <time>2020-08-07T13:28:19Z</time>
      </trkpt>
      <trkpt lat="45.65442" lon="6.85965">
        <ele>2004.2</ele>
        <time>2020-08-07T13:28:21Z</time>
      </trkpt>
      <trkpt lat="45.65449" lon="6.85967">
        <ele>2004.5</ele>
        <time>2020-08-07T13:28:23Z</time>
      </trkpt>
      <trkpt lat="45.65452" lon="6.85967">
        <ele>2004.6</ele>
        <time>2020-08-07T13:28:24Z</time>
      </trkpt>
      <trkpt lat="45.65456" lon="6.85968">
        <ele>2004.8</ele>
        <time>2020-08-07T13:28:25Z</time>
      </trkpt>
      <trkpt lat="45.6546" lon="6.85969">
        <ele>2004.9</ele>
        <time>2020-08-07T13:28:26Z</time>
      </trkpt>
      <trkpt lat="45.65469" lon="6.85973">
        <ele>2005.3</ele>
        <time>2020-08-07T13:28:27Z</time>
      </trkpt>
      <trkpt lat="45.65473" lon="6.85976">
        <ele>2005.5</ele>
        <time>2020-08-07T13:28:28Z</time>
      </trkpt>
      <trkpt lat="45.65478" lon="6.85979">
        <ele>2005.7</ele>
        <time>2020-08-07T13:28:30Z</time>
      </trkpt>
      <trkpt lat="45.65482" lon="6.85983">
        <ele>2005.9</ele>
        <time>2020-08-07T13:28:32Z</time>
      </trkpt>
      <trkpt lat="45.65484" lon="6.85986">
        <ele>2006</ele>
        <time>2020-08-07T13:28:33Z</time>
      </trkpt>
      <trkpt lat="45.65487" lon="6.85989">
        <ele>2006.2</ele>
        <time>2020-08-07T13:28:34Z</time>
      </trkpt>
      <trkpt lat="45.65492" lon="6.85995">
        <ele>2006.6</ele>
        <time>2020-08-07T13:28:36Z</time>
      </trkpt>
      <trkpt lat="45.65499" lon="6.86008">
        <ele>2007.2</ele>
        <time>2020-08-07T13:28:37Z</time>
      </trkpt>
      <trkpt lat="45.65502" lon="6.86014">
        <ele>2007.5</ele>
        <time>2020-08-07T13:28:39Z</time>
      </trkpt>
      <trkpt lat="45.65506" lon="6.86024">
        <ele>2008.1</ele>
        <time>2020-08-07T13:28:41Z</time>
      </trkpt>
      <trkpt lat="45.65508" lon="6.86029">
        <ele>2008.3</ele>
        <time>2020-08-07T13:28:42Z</time>
      </trkpt>
      <trkpt lat="45.6551" lon="6.86034">
        <ele>2008.6</ele>
        <time>2020-08-07T13:28:44Z</time>
      </trkpt>
      <trkpt lat="45.65513" lon="6.86041">
        <ele>2009</ele>
        <time>2020-08-07T13:28:45Z</time>
      </trkpt>
      <trkpt lat="45.65518" lon="6.86053">
        <ele>2009.7</ele>
        <time>2020-08-07T13:28:48Z</time>
      </trkpt>
      <trkpt lat="45.6552" lon="6.86058">
        <ele>2009.9</ele>
        <time>2020-08-07T13:28:51Z</time>
      </trkpt>
      <trkpt lat="45.65522" lon="6.86063">
        <ele>2010.2</ele>
        <time>2020-08-07T13:28:52Z</time>
      </trkpt>
      <trkpt lat="45.65526" lon="6.86072">
        <ele>2010.7</ele>
        <time>2020-08-07T13:28:53Z</time>
      </trkpt>
      <trkpt lat="45.65528" lon="6.86076">
        <ele>2010.9</ele>
        <time>2020-08-07T13:28:54Z</time>
      </trkpt>
      <trkpt lat="45.6553" lon="6.86081">
        <ele>2011.1</ele>
        <time>2020-08-07T13:28:55Z</time>
      </trkpt>
      <trkpt lat="45.65537" lon="6.86092">
        <ele>2011.7</ele>
        <time>2020-08-07T13:28:58Z</time>
      </trkpt>
      <trkpt lat="45.6554" lon="6.86095">
        <ele>2011.9</ele>
        <time>2020-08-07T13:28:59Z</time>
      </trkpt>
      <trkpt lat="45.65543" lon="6.86099">
        <ele>2012.1</ele>
        <time>2020-08-07T13:29:01Z</time>
      </trkpt>
      <trkpt lat="45.65546" lon="6.86103">
        <ele>2012.3</ele>
        <time>2020-08-07T13:29:03Z</time>
      </trkpt>
      <trkpt lat="45.65552" lon="6.86109">
        <ele>2012.7</ele>
        <time>2020-08-07T13:29:05Z</time>
      </trkpt>
      <trkpt lat="45.65557" lon="6.86114">
        <ele>2013.1</ele>
        <time>2020-08-07T13:29:06Z</time>
      </trkpt>
      <trkpt lat="45.6557" lon="6.86122">
        <ele>2013.7</ele>
        <time>2020-08-07T13:29:09Z</time>
      </trkpt>
      <trkpt lat="45.65574" lon="6.86124">
        <ele>2013.8</ele>
        <time>2020-08-07T13:29:11Z</time>
      </trkpt>
      <trkpt lat="45.65577" lon="6.86125">
        <ele>2014</ele>
        <time>2020-08-07T13:29:13Z</time>
      </trkpt>
      <trkpt lat="45.65587" lon="6.86127">
        <ele>2014.4</ele>
        <time>2020-08-07T13:29:14Z</time>
      </trkpt>
      <trkpt lat="45.65591" lon="6.86128">
        <ele>2014.6</ele>
        <time>2020-08-07T13:29:15Z</time>
      </trkpt>
      <trkpt lat="45.65595" lon="6.86129">
        <ele>2014.8</ele>
        <time>2020-08-07T13:29:17Z</time>
      </trkpt>
      <trkpt lat="45.65598" lon="6.86129">
        <ele>2014.9</ele>
        <time>2020-08-07T13:29:19Z</time>
      </trkpt>
      <trkpt lat="45.65605" lon="6.86131">
        <ele>2015.3</ele>
        <time>2020-08-07T13:29:21Z</time>
      </trkpt>
      <trkpt lat="45.65609" lon="6.86132">
        <ele>2015.4</ele>
        <time>2020-08-07T13:29:22Z</time>
      </trkpt>
      <trkpt lat="45.65613" lon="6.86134">
        <ele>2015.6</ele>
        <time>2020-08-07T13:29:23Z</time>
      </trkpt>
      <trkpt lat="45.65619" lon="6.86138">
        <ele>2016</ele>
        <time>2020-08-07T13:29:25Z</time>
      </trkpt>
      <trkpt lat="45.65625" lon="6.86142">
        <ele>2016.3</ele>
        <time>2020-08-07T13:29:27Z</time>
      </trkpt>
      <trkpt lat="45.65628" lon="6.86145">
        <ele>2016.5</ele>
        <time>2020-08-07T13:29:28Z</time>
      </trkpt>
      <trkpt lat="45.65633" lon="6.86151">
        <ele>2016.8</ele>
        <time>2020-08-07T13:29:29Z</time>
      </trkpt>
      <trkpt lat="45.65637" lon="6.86155">
        <ele>2017</ele>
        <time>2020-08-07T13:29:30Z</time>
      </trkpt>
      <trkpt lat="45.65641" lon="6.8616">
        <ele>2017.2</ele>
        <time>2020-08-07T13:29:32Z</time>
      </trkpt>
      <trkpt lat="45.65644" lon="6.86163">
        <ele>2017.4</ele>
        <time>2020-08-07T13:29:34Z</time>
      </trkpt>
      <trkpt lat="45.65649" lon="6.8617">
        <ele>2017.7</ele>
        <time>2020-08-07T13:29:36Z</time>
      </trkpt>
      <trkpt lat="45.65656" lon="6.86181">
        <ele>2018.3</ele>
        <time>2020-08-07T13:29:38Z</time>
      </trkpt>
      <trkpt lat="45.65659" lon="6.86186">
        <ele>2018.6</ele>
        <time>2020-08-07T13:29:40Z</time>
      </trkpt>
      <trkpt lat="45.65662" lon="6.86191">
        <ele>2018.8</ele>
        <time>2020-08-07T13:29:42Z</time>
      </trkpt>
      <trkpt lat="45.65668" lon="6.86206">
        <ele>2019.4</ele>
        <time>2020-08-07T13:29:44Z</time>
      </trkpt>
      <trkpt lat="45.6567" lon="6.86213">
        <ele>2019.7</ele>
        <time>2020-08-07T13:29:47Z</time>
      </trkpt>
      <trkpt lat="45.65672" lon="6.86222">
        <ele>2020</ele>
        <time>2020-08-07T13:29:49Z</time>
      </trkpt>
      <trkpt lat="45.65673" lon="6.86226">
        <ele>2020.1</ele>
        <time>2020-08-07T13:29:50Z</time>
      </trkpt>
      <trkpt lat="45.65676" lon="6.86235">
        <ele>2020.4</ele>
        <time>2020-08-07T13:29:51Z</time>
      </trkpt>
      <trkpt lat="45.65677" lon="6.8624">
        <ele>2020.6</ele>
        <time>2020-08-07T13:29:52Z</time>
      </trkpt>
      <trkpt lat="45.6568" lon="6.86248">
        <ele>2020.8</ele>
        <time>2020-08-07T13:29:54Z</time>
      </trkpt>
      <trkpt lat="45.65681" lon="6.86252">
        <ele>2021</ele>
        <time>2020-08-07T13:29:55Z</time>
      </trkpt>
      <trkpt lat="45.65683" lon="6.86256">
        <ele>2021.1</ele>
        <time>2020-08-07T13:29:56Z</time>
      </trkpt>
      <trkpt lat="45.65686" lon="6.86261">
        <ele>2021.3</ele>
        <time>2020-08-07T13:29:57Z</time>
      </trkpt>
      <trkpt lat="45.65689" lon="6.86265">
        <ele>2021.5</ele>
        <time>2020-08-07T13:29:58Z</time>
      </trkpt>
      <trkpt lat="45.65691" lon="6.86268">
        <ele>2021.6</ele>
        <time>2020-08-07T13:29:59Z</time>
      </trkpt>
      <trkpt lat="45.65693" lon="6.86272">
        <ele>2021.8</ele>
        <time>2020-08-07T13:30:00Z</time>
      </trkpt>
      <trkpt lat="45.65697" lon="6.86277">
        <ele>2022</ele>
        <time>2020-08-07T13:30:03Z</time>
      </trkpt>
      <trkpt lat="45.65699" lon="6.8628">
        <ele>2022.1</ele>
        <time>2020-08-07T13:30:04Z</time>
      </trkpt>
      <trkpt lat="45.65705" lon="6.86286">
        <ele>2022.5</ele>
        <time>2020-08-07T13:30:06Z</time>
      </trkpt>
      <trkpt lat="45.65708" lon="6.86289">
        <ele>2022.7</ele>
        <time>2020-08-07T13:30:07Z</time>
      </trkpt>
      <trkpt lat="45.65711" lon="6.86292">
        <ele>2022.8</ele>
        <time>2020-08-07T13:30:08Z</time>
      </trkpt>
      <trkpt lat="45.65716" lon="6.86299">
        <ele>2023.2</ele>
        <time>2020-08-07T13:30:10Z</time>
      </trkpt>
      <trkpt lat="45.65721" lon="6.86304">
        <ele>2023.4</ele>
        <time>2020-08-07T13:30:11Z</time>
      </trkpt>
      <trkpt lat="45.65728" lon="6.86312">
        <ele>2023.8</ele>
        <time>2020-08-07T13:30:13Z</time>
      </trkpt>
      <trkpt lat="45.65736" lon="6.8632">
        <ele>2024.2</ele>
        <time>2020-08-07T13:30:16Z</time>
      </trkpt>
      <trkpt lat="45.6574" lon="6.86324">
        <ele>2024.5</ele>
        <time>2020-08-07T13:30:17Z</time>
      </trkpt>
      <trkpt lat="45.65744" lon="6.86327">
        <ele>2024.6</ele>
        <time>2020-08-07T13:30:19Z</time>
      </trkpt>
      <trkpt lat="45.65747" lon="6.8633">
        <ele>2024.8</ele>
        <time>2020-08-07T13:30:21Z</time>
      </trkpt>
      <trkpt lat="45.65751" lon="6.86332">
        <ele>2024.9</ele>
        <time>2020-08-07T13:30:22Z</time>
      </trkpt>
      <trkpt lat="45.65757" lon="6.86335">
        <ele>2025.2</ele>
        <time>2020-08-07T13:30:23Z</time>
      </trkpt>
      <trkpt lat="45.65761" lon="6.86337">
        <ele>2025.3</ele>
        <time>2020-08-07T13:30:25Z</time>
      </trkpt>
      <trkpt lat="45.6577" lon="6.86341">
        <ele>2025.7</ele>
        <time>2020-08-07T13:30:27Z</time>
      </trkpt>
      <trkpt lat="45.65777" lon="6.86344">
        <ele>2025.9</ele>
        <time>2020-08-07T13:30:29Z</time>
      </trkpt>
      <trkpt lat="45.65789" lon="6.86351">
        <ele>2026.4</ele>
        <time>2020-08-07T13:30:31Z</time>
      </trkpt>
      <trkpt lat="45.65794" lon="6.86354">
        <ele>2026.6</ele>
        <time>2020-08-07T13:30:33Z</time>
      </trkpt>
      <trkpt lat="45.65797" lon="6.86357">
        <ele>2026.7</ele>
        <time>2020-08-07T13:30:34Z</time>
      </trkpt>
      <trkpt lat="45.65801" lon="6.86361">
        <ele>2026.9</ele>
        <time>2020-08-07T13:30:36Z</time>
      </trkpt>
      <trkpt lat="45.65805" lon="6.86365">
        <ele>2027</ele>
        <time>2020-08-07T13:30:37Z</time>
      </trkpt>
      <trkpt lat="45.65811" lon="6.86371">
        <ele>2027.2</ele>
        <time>2020-08-07T13:30:39Z</time>
      </trkpt>
      <trkpt lat="45.65814" lon="6.86374">
        <ele>2027.4</ele>
        <time>2020-08-07T13:30:40Z</time>
      </trkpt>
      <trkpt lat="45.6582" lon="6.86381">
        <ele>2027.6</ele>
        <time>2020-08-07T13:30:42Z</time>
      </trkpt>
      <trkpt lat="45.65823" lon="6.86384">
        <ele>2027.7</ele>
        <time>2020-08-07T13:30:43Z</time>
      </trkpt>
      <trkpt lat="45.65829" lon="6.86392">
        <ele>2027.9</ele>
        <time>2020-08-07T13:30:44Z</time>
      </trkpt>
      <trkpt lat="45.65835" lon="6.86397">
        <ele>2028.1</ele>
        <time>2020-08-07T13:30:46Z</time>
      </trkpt>
      <trkpt lat="45.65839" lon="6.86399">
        <ele>2028.2</ele>
        <time>2020-08-07T13:30:48Z</time>
      </trkpt>
      <trkpt lat="45.65855" lon="6.86407">
        <ele>2028.6</ele>
        <time>2020-08-07T13:30:50Z</time>
      </trkpt>
      <trkpt lat="45.65863" lon="6.8641">
        <ele>2028.8</ele>
        <time>2020-08-07T13:30:53Z</time>
      </trkpt>
      <trkpt lat="45.65868" lon="6.86412">
        <ele>2028.9</ele>
        <time>2020-08-07T13:30:54Z</time>
      </trkpt>
      <trkpt lat="45.65876" lon="6.86414">
        <ele>2029.2</ele>
        <time>2020-08-07T13:30:56Z</time>
      </trkpt>
      <trkpt lat="45.6588" lon="6.86413">
        <ele>2029.3</ele>
        <time>2020-08-07T13:30:57Z</time>
      </trkpt>
      <trkpt lat="45.65887" lon="6.86418">
        <ele>2029.6</ele>
        <time>2020-08-07T13:30:59Z</time>
      </trkpt>
      <trkpt lat="45.65895" lon="6.86425">
        <ele>2029.9</ele>
        <time>2020-08-07T13:31:01Z</time>
      </trkpt>
      <trkpt lat="45.65902" lon="6.86433">
        <ele>2030.2</ele>
        <time>2020-08-07T13:31:02Z</time>
      </trkpt>
      <trkpt lat="45.65905" lon="6.86436">
        <ele>2030.3</ele>
        <time>2020-08-07T13:31:04Z</time>
      </trkpt>
      <trkpt lat="45.6591" lon="6.86442">
        <ele>2030.6</ele>
        <time>2020-08-07T13:31:05Z</time>
      </trkpt>
      <trkpt lat="45.65915" lon="6.8645">
        <ele>2030.9</ele>
        <time>2020-08-07T13:31:07Z</time>
      </trkpt>
      <trkpt lat="45.65918" lon="6.86455">
        <ele>2031.1</ele>
        <time>2020-08-07T13:31:09Z</time>
      </trkpt>
      <trkpt lat="45.6592" lon="6.8646">
        <ele>2031.3</ele>
        <time>2020-08-07T13:31:10Z</time>
      </trkpt>
      <trkpt lat="45.65921" lon="6.86465">
        <ele>2031.5</ele>
        <time>2020-08-07T13:31:11Z</time>
      </trkpt>
      <trkpt lat="45.65926" lon="6.86477">
        <ele>2032</ele>
        <time>2020-08-07T13:31:13Z</time>
      </trkpt>
      <trkpt lat="45.65929" lon="6.86484">
        <ele>2032.3</ele>
        <time>2020-08-07T13:31:14Z</time>
      </trkpt>
      <trkpt lat="45.65931" lon="6.8649">
        <ele>2032.5</ele>
        <time>2020-08-07T13:31:17Z</time>
      </trkpt>
      <trkpt lat="45.65935" lon="6.86498">
        <ele>2032.9</ele>
        <time>2020-08-07T13:31:19Z</time>
      </trkpt>
      <trkpt lat="45.65939" lon="6.86508">
        <ele>2033.4</ele>
        <time>2020-08-07T13:31:21Z</time>
      </trkpt>
      <trkpt lat="45.65943" lon="6.86517">
        <ele>2033.8</ele>
        <time>2020-08-07T13:31:23Z</time>
      </trkpt>
      <trkpt lat="45.65945" lon="6.86521">
        <ele>2034</ele>
        <time>2020-08-07T13:31:24Z</time>
      </trkpt>
      <trkpt lat="45.65947" lon="6.86525">
        <ele>2034.2</ele>
        <time>2020-08-07T13:31:25Z</time>
      </trkpt>
      <trkpt lat="45.65949" lon="6.86533">
        <ele>2034.5</ele>
        <time>2020-08-07T13:31:27Z</time>
      </trkpt>
      <trkpt lat="45.65952" lon="6.8654">
        <ele>2034.9</ele>
        <time>2020-08-07T13:31:29Z</time>
      </trkpt>
      <trkpt lat="45.65959" lon="6.86556">
        <ele>2035.6</ele>
        <time>2020-08-07T13:31:31Z</time>
      </trkpt>
      <trkpt lat="45.65961" lon="6.86562">
        <ele>2035.9</ele>
        <time>2020-08-07T13:31:33Z</time>
      </trkpt>
      <trkpt lat="45.65965" lon="6.86572">
        <ele>2036.4</ele>
        <time>2020-08-07T13:31:35Z</time>
      </trkpt>
      <trkpt lat="45.65968" lon="6.86577">
        <ele>2036.6</ele>
        <time>2020-08-07T13:31:36Z</time>
      </trkpt>
      <trkpt lat="45.65971" lon="6.86581">
        <ele>2036.9</ele>
        <time>2020-08-07T13:31:37Z</time>
      </trkpt>
      <trkpt lat="45.65978" lon="6.86591">
        <ele>2037.5</ele>
        <time>2020-08-07T13:31:40Z</time>
      </trkpt>
      <trkpt lat="45.65982" lon="6.86597">
        <ele>2037.9</ele>
        <time>2020-08-07T13:31:43Z</time>
      </trkpt>
      <trkpt lat="45.65985" lon="6.866">
        <ele>2038</ele>
        <time>2020-08-07T13:31:44Z</time>
      </trkpt>
      <trkpt lat="45.6599" lon="6.86604">
        <ele>2038.4</ele>
        <time>2020-08-07T13:31:45Z</time>
      </trkpt>
      <trkpt lat="45.65993" lon="6.86607">
        <ele>2038.6</ele>
        <time>2020-08-07T13:31:46Z</time>
      </trkpt>
      <trkpt lat="45.65997" lon="6.8661">
        <ele>2039</ele>
        <time>2020-08-07T13:31:47Z</time>
      </trkpt>
      <trkpt lat="45.66" lon="6.86613">
        <ele>2039.2</ele>
        <time>2020-08-07T13:31:49Z</time>
      </trkpt>
      <trkpt lat="45.66003" lon="6.86616">
        <ele>2039.4</ele>
        <time>2020-08-07T13:31:51Z</time>
      </trkpt>
      <trkpt lat="45.66006" lon="6.86619">
        <ele>2039.6</ele>
        <time>2020-08-07T13:31:52Z</time>
      </trkpt>
      <trkpt lat="45.66008" lon="6.86622">
        <ele>2039.8</ele>
        <time>2020-08-07T13:31:53Z</time>
      </trkpt>
      <trkpt lat="45.66014" lon="6.8663">
        <ele>2040.2</ele>
        <time>2020-08-07T13:31:55Z</time>
      </trkpt>
      <trkpt lat="45.66018" lon="6.86635">
        <ele>2040.6</ele>
        <time>2020-08-07T13:31:56Z</time>
      </trkpt>
      <trkpt lat="45.66025" lon="6.86644">
        <ele>2041.1</ele>
        <time>2020-08-07T13:31:58Z</time>
      </trkpt>
      <trkpt lat="45.66027" lon="6.86649">
        <ele>2041.3</ele>
        <time>2020-08-07T13:32:01Z</time>
      </trkpt>
      <trkpt lat="45.66029" lon="6.86652">
        <ele>2041.5</ele>
        <time>2020-08-07T13:32:02Z</time>
      </trkpt>
      <trkpt lat="45.66031" lon="6.86656">
        <ele>2041.7</ele>
        <time>2020-08-07T13:32:03Z</time>
      </trkpt>
      <trkpt lat="45.66035" lon="6.86663">
        <ele>2042</ele>
        <time>2020-08-07T13:32:04Z</time>
      </trkpt>
      <trkpt lat="45.66038" lon="6.86668">
        <ele>2042.3</ele>
        <time>2020-08-07T13:32:05Z</time>
      </trkpt>
      <trkpt lat="45.66041" lon="6.86673">
        <ele>2042.5</ele>
        <time>2020-08-07T13:32:07Z</time>
      </trkpt>
      <trkpt lat="45.66047" lon="6.86682">
        <ele>2043.1</ele>
        <time>2020-08-07T13:32:09Z</time>
      </trkpt>
      <trkpt lat="45.66054" lon="6.86693">
        <ele>2043.7</ele>
        <time>2020-08-07T13:32:12Z</time>
      </trkpt>
      <trkpt lat="45.66058" lon="6.86699">
        <ele>2044</ele>
        <time>2020-08-07T13:32:15Z</time>
      </trkpt>
      <trkpt lat="45.66064" lon="6.86705">
        <ele>2044.5</ele>
        <time>2020-08-07T13:32:16Z</time>
      </trkpt>
      <trkpt lat="45.66068" lon="6.8671">
        <ele>2044.8</ele>
        <time>2020-08-07T13:32:18Z</time>
      </trkpt>
      <trkpt lat="45.6607" lon="6.86713">
        <ele>2045</ele>
        <time>2020-08-07T13:32:19Z</time>
      </trkpt>
      <trkpt lat="45.66074" lon="6.86717">
        <ele>2045.3</ele>
        <time>2020-08-07T13:32:20Z</time>
      </trkpt>
      <trkpt lat="45.66077" lon="6.8672">
        <ele>2045.5</ele>
        <time>2020-08-07T13:32:21Z</time>
      </trkpt>
      <trkpt lat="45.6608" lon="6.86723">
        <ele>2045.7</ele>
        <time>2020-08-07T13:32:23Z</time>
      </trkpt>
      <trkpt lat="45.66085" lon="6.86729">
        <ele>2046.1</ele>
        <time>2020-08-07T13:32:25Z</time>
      </trkpt>
      <trkpt lat="45.66088" lon="6.86732">
        <ele>2046.3</ele>
        <time>2020-08-07T13:32:27Z</time>
      </trkpt>
      <trkpt lat="45.66093" lon="6.86737">
        <ele>2046.7</ele>
        <time>2020-08-07T13:32:29Z</time>
      </trkpt>
      <trkpt lat="45.66096" lon="6.86739">
        <ele>2046.9</ele>
        <time>2020-08-07T13:32:30Z</time>
      </trkpt>
      <trkpt lat="45.66101" lon="6.86745">
        <ele>2047.3</ele>
        <time>2020-08-07T13:32:32Z</time>
      </trkpt>
      <trkpt lat="45.66106" lon="6.8675">
        <ele>2047.6</ele>
        <time>2020-08-07T13:32:33Z</time>
      </trkpt>
      <trkpt lat="45.6611" lon="6.86755">
        <ele>2047.9</ele>
        <time>2020-08-07T13:32:35Z</time>
      </trkpt>
      <trkpt lat="45.66115" lon="6.86761">
        <ele>2048.3</ele>
        <time>2020-08-07T13:32:37Z</time>
      </trkpt>
      <trkpt lat="45.6612" lon="6.86765">
        <ele>2048.6</ele>
        <time>2020-08-07T13:32:38Z</time>
      </trkpt>
      <trkpt lat="45.66122" lon="6.86769">
        <ele>2048.9</ele>
        <time>2020-08-07T13:32:40Z</time>
      </trkpt>
      <trkpt lat="45.66127" lon="6.86777">
        <ele>2049.3</ele>
        <time>2020-08-07T13:32:42Z</time>
      </trkpt>
      <trkpt lat="45.6613" lon="6.86781">
        <ele>2049.5</ele>
        <time>2020-08-07T13:32:43Z</time>
      </trkpt>
      <trkpt lat="45.66132" lon="6.86784">
        <ele>2049.7</ele>
        <time>2020-08-07T13:32:44Z</time>
      </trkpt>
      <trkpt lat="45.66141" lon="6.86796">
        <ele>2050.3</ele>
        <time>2020-08-07T13:32:46Z</time>
      </trkpt>
      <trkpt lat="45.66143" lon="6.868">
        <ele>2050.5</ele>
        <time>2020-08-07T13:32:47Z</time>
      </trkpt>
      <trkpt lat="45.66146" lon="6.86803">
        <ele>2050.7</ele>
        <time>2020-08-07T13:32:48Z</time>
      </trkpt>
      <trkpt lat="45.66149" lon="6.86808">
        <ele>2051</ele>
        <time>2020-08-07T13:32:51Z</time>
      </trkpt>
      <trkpt lat="45.66151" lon="6.86811">
        <ele>2051.2</ele>
        <time>2020-08-07T13:32:52Z</time>
      </trkpt>
      <trkpt lat="45.66153" lon="6.86815">
        <ele>2051.4</ele>
        <time>2020-08-07T13:32:53Z</time>
      </trkpt>
      <trkpt lat="45.66158" lon="6.86821">
        <ele>2051.7</ele>
        <time>2020-08-07T13:32:55Z</time>
      </trkpt>
      <trkpt lat="45.66161" lon="6.86828">
        <ele>2052</ele>
        <time>2020-08-07T13:32:57Z</time>
      </trkpt>
      <trkpt lat="45.66163" lon="6.86833">
        <ele>2052.2</ele>
        <time>2020-08-07T13:32:58Z</time>
      </trkpt>
      <trkpt lat="45.66167" lon="6.86843">
        <ele>2052.7</ele>
        <time>2020-08-07T13:32:59Z</time>
      </trkpt>
      <trkpt lat="45.66169" lon="6.86849">
        <ele>2052.9</ele>
        <time>2020-08-07T13:33:01Z</time>
      </trkpt>
      <trkpt lat="45.66173" lon="6.8686">
        <ele>2053.4</ele>
        <time>2020-08-07T13:33:03Z</time>
      </trkpt>
      <trkpt lat="45.66175" lon="6.86865">
        <ele>2053.6</ele>
        <time>2020-08-07T13:33:04Z</time>
      </trkpt>
      <trkpt lat="45.66176" lon="6.8687">
        <ele>2053.8</ele>
        <time>2020-08-07T13:33:05Z</time>
      </trkpt>
      <trkpt lat="45.66178" lon="6.86875">
        <ele>2054</ele>
        <time>2020-08-07T13:33:07Z</time>
      </trkpt>
      <trkpt lat="45.6618" lon="6.86878">
        <ele>2054.1</ele>
        <time>2020-08-07T13:33:09Z</time>
      </trkpt>
      <trkpt lat="45.66183" lon="6.86884">
        <ele>2054.4</ele>
        <time>2020-08-07T13:33:10Z</time>
      </trkpt>
      <trkpt lat="45.66185" lon="6.86888">
        <ele>2054.6</ele>
        <time>2020-08-07T13:33:11Z</time>
      </trkpt>
      <trkpt lat="45.66189" lon="6.86892">
        <ele>2054.8</ele>
        <time>2020-08-07T13:33:13Z</time>
      </trkpt>
      <trkpt lat="45.66191" lon="6.86895">
        <ele>2055</ele>
        <time>2020-08-07T13:33:14Z</time>
      </trkpt>
      <trkpt lat="45.66197" lon="6.869">
        <ele>2055.3</ele>
        <time>2020-08-07T13:33:16Z</time>
      </trkpt>
      <trkpt lat="45.662" lon="6.86902">
        <ele>2055.5</ele>
        <time>2020-08-07T13:33:17Z</time>
      </trkpt>
      <trkpt lat="45.66204" lon="6.86904">
        <ele>2055.7</ele>
        <time>2020-08-07T13:33:18Z</time>
      </trkpt>
      <trkpt lat="45.66211" lon="6.86908">
        <ele>2056.1</ele>
        <time>2020-08-07T13:33:19Z</time>
      </trkpt>
      <trkpt lat="45.66215" lon="6.8691">
        <ele>2056.3</ele>
        <time>2020-08-07T13:33:20Z</time>
      </trkpt>
      <trkpt lat="45.6622" lon="6.86913">
        <ele>2056.6</ele>
        <time>2020-08-07T13:33:23Z</time>
      </trkpt>
      <trkpt lat="45.66223" lon="6.86916">
        <ele>2056.9</ele>
        <time>2020-08-07T13:33:24Z</time>
      </trkpt>
      <trkpt lat="45.66226" lon="6.86919">
        <ele>2057</ele>
        <time>2020-08-07T13:33:25Z</time>
      </trkpt>
      <trkpt lat="45.66231" lon="6.86924">
        <ele>2057.4</ele>
        <time>2020-08-07T13:33:27Z</time>
      </trkpt>
      <trkpt lat="45.66236" lon="6.86934">
        <ele>2057.9</ele>
        <time>2020-08-07T13:33:28Z</time>
      </trkpt>
      <trkpt lat="45.66238" lon="6.8694">
        <ele>2058.2</ele>
        <time>2020-08-07T13:33:30Z</time>
      </trkpt>
      <trkpt lat="45.6624" lon="6.86946">
        <ele>2058.4</ele>
        <time>2020-08-07T13:33:32Z</time>
      </trkpt>
      <trkpt lat="45.66242" lon="6.86954">
        <ele>2058.8</ele>
        <time>2020-08-07T13:33:33Z</time>
      </trkpt>
      <trkpt lat="45.66243" lon="6.86959">
        <ele>2058.9</ele>
        <time>2020-08-07T13:33:34Z</time>
      </trkpt>
      <trkpt lat="45.66244" lon="6.86967">
        <ele>2059.3</ele>
        <time>2020-08-07T13:33:36Z</time>
      </trkpt>
      <trkpt lat="45.66244" lon="6.86976">
        <ele>2059.6</ele>
        <time>2020-08-07T13:33:38Z</time>
      </trkpt>
      <trkpt lat="45.66244" lon="6.86982">
        <ele>2059.9</ele>
        <time>2020-08-07T13:33:40Z</time>
      </trkpt>
      <trkpt lat="45.66242" lon="6.86993">
        <ele>2060.3</ele>
        <time>2020-08-07T13:33:42Z</time>
      </trkpt>
      <trkpt lat="45.66241" lon="6.86997">
        <ele>2060.5</ele>
        <time>2020-08-07T13:33:43Z</time>
      </trkpt>
      <trkpt lat="45.6624" lon="6.87006">
        <ele>2060.8</ele>
        <time>2020-08-07T13:33:44Z</time>
      </trkpt>
      <trkpt lat="45.66239" lon="6.87011">
        <ele>2061</ele>
        <time>2020-08-07T13:33:46Z</time>
      </trkpt>
      <trkpt lat="45.66237" lon="6.8702">
        <ele>2062.3</ele>
        <time>2020-08-07T13:33:47Z</time>
      </trkpt>
      <trkpt lat="45.66236" lon="6.87025">
        <ele>2063.2</ele>
        <time>2020-08-07T13:33:49Z</time>
      </trkpt>
      <trkpt lat="45.66232" lon="6.87037">
        <ele>2065.2</ele>
        <time>2020-08-07T13:33:50Z</time>
      </trkpt>
      <trkpt lat="45.66229" lon="6.87047">
        <ele>2066.6</ele>
        <time>2020-08-07T13:33:53Z</time>
      </trkpt>
      <trkpt lat="45.66228" lon="6.87052">
        <ele>2067.2</ele>
        <time>2020-08-07T13:33:54Z</time>
      </trkpt>
      <trkpt lat="45.66229" lon="6.87059">
        <ele>2068</ele>
        <time>2020-08-07T13:33:55Z</time>
      </trkpt>
      <trkpt lat="45.66232" lon="6.87068">
        <ele>2069.2</ele>
        <time>2020-08-07T13:33:57Z</time>
      </trkpt>
      <trkpt lat="45.6624" lon="6.87076">
        <ele>2070.7</ele>
        <time>2020-08-07T13:33:59Z</time>
      </trkpt>
      <trkpt lat="45.66245" lon="6.87078">
        <ele>2070.6</ele>
        <time>2020-08-07T13:34:00Z</time>
      </trkpt>
      <trkpt lat="45.6625" lon="6.87077">
        <ele>2070.1</ele>
        <time>2020-08-07T13:34:01Z</time>
      </trkpt>
      <trkpt lat="45.66257" lon="6.87073">
        <ele>2069.5</ele>
        <time>2020-08-07T13:34:03Z</time>
      </trkpt>
      <trkpt lat="45.66261" lon="6.87071">
        <ele>2069.2</ele>
        <time>2020-08-07T13:34:04Z</time>
      </trkpt>
      <trkpt lat="45.66275" lon="6.87061">
        <ele>2068.1</ele>
        <time>2020-08-07T13:34:06Z</time>
      </trkpt>
      <trkpt lat="45.6628" lon="6.87058">
        <ele>2067.8</ele>
        <time>2020-08-07T13:34:08Z</time>
      </trkpt>
      <trkpt lat="45.66288" lon="6.87055">
        <ele>2067.3</ele>
        <time>2020-08-07T13:34:10Z</time>
      </trkpt>
      <trkpt lat="45.66294" lon="6.87051">
        <ele>2066.9</ele>
        <time>2020-08-07T13:34:12Z</time>
      </trkpt>
      <trkpt lat="45.66297" lon="6.8705">
        <ele>2066.7</ele>
        <time>2020-08-07T13:34:13Z</time>
      </trkpt>
      <trkpt lat="45.66302" lon="6.87048">
        <ele>2066.4</ele>
        <time>2020-08-07T13:34:14Z</time>
      </trkpt>
      <trkpt lat="45.66309" lon="6.87044">
        <ele>2066</ele>
        <time>2020-08-07T13:34:17Z</time>
      </trkpt>
      <trkpt lat="45.66312" lon="6.87042">
        <ele>2065.8</ele>
        <time>2020-08-07T13:34:18Z</time>
      </trkpt>
      <trkpt lat="45.66321" lon="6.87039">
        <ele>2065.2</ele>
        <time>2020-08-07T13:34:19Z</time>
      </trkpt>
      <trkpt lat="45.66327" lon="6.87039">
        <ele>2064.7</ele>
        <time>2020-08-07T13:34:22Z</time>
      </trkpt>
      <trkpt lat="45.66337" lon="6.8704">
        <ele>2064.2</ele>
        <time>2020-08-07T13:34:23Z</time>
      </trkpt>
      <trkpt lat="45.66341" lon="6.87041">
        <ele>2064.5</ele>
        <time>2020-08-07T13:34:24Z</time>
      </trkpt>
      <trkpt lat="45.66346" lon="6.87042">
        <ele>2064.9</ele>
        <time>2020-08-07T13:34:25Z</time>
      </trkpt>
      <trkpt lat="45.6635" lon="6.87044">
        <ele>2065.1</ele>
        <time>2020-08-07T13:34:27Z</time>
      </trkpt>
      <trkpt lat="45.66354" lon="6.87046">
        <ele>2065.4</ele>
        <time>2020-08-07T13:34:29Z</time>
      </trkpt>
      <trkpt lat="45.66358" lon="6.87047">
        <ele>2065.7</ele>
        <time>2020-08-07T13:34:30Z</time>
      </trkpt>
      <trkpt lat="45.66362" lon="6.87048">
        <ele>2066</ele>
        <time>2020-08-07T13:34:31Z</time>
      </trkpt>
      <trkpt lat="45.66365" lon="6.87048">
        <ele>2066.3</ele>
        <time>2020-08-07T13:34:32Z</time>
      </trkpt>
      <trkpt lat="45.66369" lon="6.87049">
        <ele>2066.6</ele>
        <time>2020-08-07T13:34:33Z</time>
      </trkpt>
      <trkpt lat="45.66375" lon="6.8705">
        <ele>2067.1</ele>
        <time>2020-08-07T13:34:34Z</time>
      </trkpt>
      <trkpt lat="45.66386" lon="6.87052">
        <ele>2067.9</ele>
        <time>2020-08-07T13:34:36Z</time>
      </trkpt>
      <trkpt lat="45.6639" lon="6.87053">
        <ele>2068.2</ele>
        <time>2020-08-07T13:34:39Z</time>
      </trkpt>
      <trkpt lat="45.66397" lon="6.87054">
        <ele>2068.7</ele>
        <time>2020-08-07T13:34:41Z</time>
      </trkpt>
      <trkpt lat="45.66405" lon="6.87058">
        <ele>2069.4</ele>
        <time>2020-08-07T13:34:42Z</time>
      </trkpt>
      <trkpt lat="45.66409" lon="6.87059">
        <ele>2069.7</ele>
        <time>2020-08-07T13:34:43Z</time>
      </trkpt>
      <trkpt lat="45.66413" lon="6.87061">
        <ele>2070</ele>
        <time>2020-08-07T13:34:45Z</time>
      </trkpt>
      <trkpt lat="45.66416" lon="6.87063">
        <ele>2070.2</ele>
        <time>2020-08-07T13:34:46Z</time>
      </trkpt>
      <trkpt lat="45.66419" lon="6.87065">
        <ele>2070.5</ele>
        <time>2020-08-07T13:34:48Z</time>
      </trkpt>
      <trkpt lat="45.66423" lon="6.87067">
        <ele>2070.8</ele>
        <time>2020-08-07T13:34:49Z</time>
      </trkpt>
      <trkpt lat="45.66429" lon="6.8707">
        <ele>2071.3</ele>
        <time>2020-08-07T13:34:50Z</time>
      </trkpt>
      <trkpt lat="45.66432" lon="6.87071">
        <ele>2071.6</ele>
        <time>2020-08-07T13:34:52Z</time>
      </trkpt>
      <trkpt lat="45.66443" lon="6.87079">
        <ele>2072.6</ele>
        <time>2020-08-07T13:34:54Z</time>
      </trkpt>
      <trkpt lat="45.66451" lon="6.87085">
        <ele>2073.4</ele>
        <time>2020-08-07T13:34:57Z</time>
      </trkpt>
      <trkpt lat="45.66456" lon="6.87088">
        <ele>2073.8</ele>
        <time>2020-08-07T13:34:59Z</time>
      </trkpt>
      <trkpt lat="45.66459" lon="6.87091">
        <ele>2074.1</ele>
        <time>2020-08-07T13:35:01Z</time>
      </trkpt>
      <trkpt lat="45.66462" lon="6.87094">
        <ele>2074.4</ele>
        <time>2020-08-07T13:35:02Z</time>
      </trkpt>
      <trkpt lat="45.66466" lon="6.87098">
        <ele>2074.8</ele>
        <time>2020-08-07T13:35:03Z</time>
      </trkpt>
      <trkpt lat="45.6647" lon="6.87101">
        <ele>2075.1</ele>
        <time>2020-08-07T13:35:05Z</time>
      </trkpt>
      <trkpt lat="45.66479" lon="6.87111">
        <ele>2076</ele>
        <time>2020-08-07T13:35:07Z</time>
      </trkpt>
      <trkpt lat="45.66482" lon="6.87114">
        <ele>2076.3</ele>
        <time>2020-08-07T13:35:09Z</time>
      </trkpt>
      <trkpt lat="45.66489" lon="6.8712">
        <ele>2076.9</ele>
        <time>2020-08-07T13:35:11Z</time>
      </trkpt>
      <trkpt lat="45.66497" lon="6.87126">
        <ele>2077.6</ele>
        <time>2020-08-07T13:35:14Z</time>
      </trkpt>
      <trkpt lat="45.66502" lon="6.87129">
        <ele>2078</ele>
        <time>2020-08-07T13:35:16Z</time>
      </trkpt>
      <trkpt lat="45.66504" lon="6.87131">
        <ele>2078.2</ele>
        <time>2020-08-07T13:35:17Z</time>
      </trkpt>
      <trkpt lat="45.66511" lon="6.87134">
        <ele>2078.8</ele>
        <time>2020-08-07T13:35:19Z</time>
      </trkpt>
      <trkpt lat="45.66515" lon="6.87136">
        <ele>2079.1</ele>
        <time>2020-08-07T13:35:21Z</time>
      </trkpt>
      <trkpt lat="45.66519" lon="6.87137">
        <ele>2079.4</ele>
        <time>2020-08-07T13:35:22Z</time>
      </trkpt>
      <trkpt lat="45.66522" lon="6.87137">
        <ele>2079.6</ele>
        <time>2020-08-07T13:35:23Z</time>
      </trkpt>
      <trkpt lat="45.66525" lon="6.87137">
        <ele>2079.8</ele>
        <time>2020-08-07T13:35:24Z</time>
      </trkpt>
      <trkpt lat="45.66528" lon="6.87138">
        <ele>2080.1</ele>
        <time>2020-08-07T13:35:25Z</time>
      </trkpt>
      <trkpt lat="45.66532" lon="6.87138">
        <ele>2080.4</ele>
        <time>2020-08-07T13:35:26Z</time>
      </trkpt>
      <trkpt lat="45.66535" lon="6.87138">
        <ele>2080.6</ele>
        <time>2020-08-07T13:35:27Z</time>
      </trkpt>
      <trkpt lat="45.6654" lon="6.87137">
        <ele>2081</ele>
        <time>2020-08-07T13:35:29Z</time>
      </trkpt>
      <trkpt lat="45.66547" lon="6.87138">
        <ele>2081.6</ele>
        <time>2020-08-07T13:35:31Z</time>
      </trkpt>
      <trkpt lat="45.6655" lon="6.87139">
        <ele>2081.8</ele>
        <time>2020-08-07T13:35:32Z</time>
      </trkpt>
      <trkpt lat="45.66559" lon="6.87141">
        <ele>2082.5</ele>
        <time>2020-08-07T13:35:35Z</time>
      </trkpt>
      <trkpt lat="45.66563" lon="6.87142">
        <ele>2082.8</ele>
        <time>2020-08-07T13:35:38Z</time>
      </trkpt>
      <trkpt lat="45.66569" lon="6.87144">
        <ele>2083.3</ele>
        <time>2020-08-07T13:35:40Z</time>
      </trkpt>
      <trkpt lat="45.66576" lon="6.87146">
        <ele>2083.8</ele>
        <time>2020-08-07T13:35:41Z</time>
      </trkpt>
      <trkpt lat="45.6658" lon="6.87148">
        <ele>2084.2</ele>
        <time>2020-08-07T13:35:43Z</time>
      </trkpt>
      <trkpt lat="45.66584" lon="6.8715">
        <ele>2084.5</ele>
        <time>2020-08-07T13:35:44Z</time>
      </trkpt>
      <trkpt lat="45.66591" lon="6.87154">
        <ele>2085.1</ele>
        <time>2020-08-07T13:35:47Z</time>
      </trkpt>
      <trkpt lat="45.66594" lon="6.87155">
        <ele>2085.3</ele>
        <time>2020-08-07T13:35:48Z</time>
      </trkpt>
      <trkpt lat="45.66599" lon="6.87158">
        <ele>2085.7</ele>
        <time>2020-08-07T13:35:50Z</time>
      </trkpt>
      <trkpt lat="45.66601" lon="6.8716">
        <ele>2085.9</ele>
        <time>2020-08-07T13:35:51Z</time>
      </trkpt>
      <trkpt lat="45.66604" lon="6.87161">
        <ele>2086.1</ele>
        <time>2020-08-07T13:35:52Z</time>
      </trkpt>
      <trkpt lat="45.66607" lon="6.87164">
        <ele>2086.4</ele>
        <time>2020-08-07T13:35:53Z</time>
      </trkpt>
      <trkpt lat="45.66611" lon="6.87167">
        <ele>2086.8</ele>
        <time>2020-08-07T13:35:55Z</time>
      </trkpt>
      <trkpt lat="45.66613" lon="6.8717">
        <ele>2087</ele>
        <time>2020-08-07T13:35:56Z</time>
      </trkpt>
      <trkpt lat="45.66616" lon="6.87172">
        <ele>2087.2</ele>
        <time>2020-08-07T13:35:58Z</time>
      </trkpt>
      <trkpt lat="45.6662" lon="6.87176">
        <ele>2087.6</ele>
        <time>2020-08-07T13:36:00Z</time>
      </trkpt>
      <trkpt lat="45.66627" lon="6.87181">
        <ele>2088.2</ele>
        <time>2020-08-07T13:36:01Z</time>
      </trkpt>
      <trkpt lat="45.66631" lon="6.87184">
        <ele>2088.5</ele>
        <time>2020-08-07T13:36:04Z</time>
      </trkpt>
      <trkpt lat="45.66636" lon="6.87186">
        <ele>2089</ele>
        <time>2020-08-07T13:36:06Z</time>
      </trkpt>
      <trkpt lat="45.6664" lon="6.87189">
        <ele>2089.3</ele>
        <time>2020-08-07T13:36:07Z</time>
      </trkpt>
      <trkpt lat="45.66644" lon="6.87191">
        <ele>2089.7</ele>
        <time>2020-08-07T13:36:09Z</time>
      </trkpt>
      <trkpt lat="45.66649" lon="6.87192">
        <ele>2090.1</ele>
        <time>2020-08-07T13:36:11Z</time>
      </trkpt>
      <trkpt lat="45.66652" lon="6.87193">
        <ele>2090.3</ele>
        <time>2020-08-07T13:36:12Z</time>
      </trkpt>
      <trkpt lat="45.66659" lon="6.87195">
        <ele>2090.9</ele>
        <time>2020-08-07T13:36:13Z</time>
      </trkpt>
      <trkpt lat="45.66662" lon="6.87196">
        <ele>2091.1</ele>
        <time>2020-08-07T13:36:14Z</time>
      </trkpt>
      <trkpt lat="45.66665" lon="6.87196">
        <ele>2091.4</ele>
        <time>2020-08-07T13:36:15Z</time>
      </trkpt>
      <trkpt lat="45.66669" lon="6.87196">
        <ele>2091.7</ele>
        <time>2020-08-07T13:36:18Z</time>
      </trkpt>
      <trkpt lat="45.66674" lon="6.87197">
        <ele>2092.1</ele>
        <time>2020-08-07T13:36:20Z</time>
      </trkpt>
      <trkpt lat="45.66684" lon="6.87199">
        <ele>2092.8</ele>
        <time>2020-08-07T13:36:22Z</time>
      </trkpt>
      <trkpt lat="45.66695" lon="6.87201">
        <ele>2093.6</ele>
        <time>2020-08-07T13:36:25Z</time>
      </trkpt>
      <trkpt lat="45.66699" lon="6.87203">
        <ele>2093.9</ele>
        <time>2020-08-07T13:36:28Z</time>
      </trkpt>
      <trkpt lat="45.66704" lon="6.87205">
        <ele>2094.3</ele>
        <time>2020-08-07T13:36:29Z</time>
      </trkpt>
      <trkpt lat="45.66707" lon="6.87207">
        <ele>2094.6</ele>
        <time>2020-08-07T13:36:31Z</time>
      </trkpt>
      <trkpt lat="45.6671" lon="6.87208">
        <ele>2094.9</ele>
        <time>2020-08-07T13:36:32Z</time>
      </trkpt>
      <trkpt lat="45.66716" lon="6.8721">
        <ele>2095.3</ele>
        <time>2020-08-07T13:36:33Z</time>
      </trkpt>
      <trkpt lat="45.66719" lon="6.87211">
        <ele>2095.5</ele>
        <time>2020-08-07T13:36:35Z</time>
      </trkpt>
      <trkpt lat="45.66723" lon="6.87214">
        <ele>2095.9</ele>
        <time>2020-08-07T13:36:36Z</time>
      </trkpt>
      <trkpt lat="45.66726" lon="6.87217">
        <ele>2096.2</ele>
        <time>2020-08-07T13:36:37Z</time>
      </trkpt>
      <trkpt lat="45.66729" lon="6.87219">
        <ele>2096.4</ele>
        <time>2020-08-07T13:36:38Z</time>
      </trkpt>
      <trkpt lat="45.66733" lon="6.87222">
        <ele>2096.8</ele>
        <time>2020-08-07T13:36:39Z</time>
      </trkpt>
      <trkpt lat="45.66736" lon="6.87224">
        <ele>2097.1</ele>
        <time>2020-08-07T13:36:40Z</time>
      </trkpt>
      <trkpt lat="45.6674" lon="6.87226">
        <ele>2097.4</ele>
        <time>2020-08-07T13:36:43Z</time>
      </trkpt>
      <trkpt lat="45.66743" lon="6.87227">
        <ele>2097.6</ele>
        <time>2020-08-07T13:36:44Z</time>
      </trkpt>
      <trkpt lat="45.66747" lon="6.87229">
        <ele>2097.9</ele>
        <time>2020-08-07T13:36:46Z</time>
      </trkpt>
      <trkpt lat="45.66752" lon="6.87231">
        <ele>2098.3</ele>
        <time>2020-08-07T13:36:47Z</time>
      </trkpt>
      <trkpt lat="45.66756" lon="6.87232">
        <ele>2098.6</ele>
        <time>2020-08-07T13:36:49Z</time>
      </trkpt>
      <trkpt lat="45.66759" lon="6.87233">
        <ele>2098.8</ele>
        <time>2020-08-07T13:36:50Z</time>
      </trkpt>
      <trkpt lat="45.66765" lon="6.87234">
        <ele>2099.2</ele>
        <time>2020-08-07T13:36:52Z</time>
      </trkpt>
      <trkpt lat="45.66776" lon="6.87236">
        <ele>2100</ele>
        <time>2020-08-07T13:36:54Z</time>
      </trkpt>
      <trkpt lat="45.66781" lon="6.87236">
        <ele>2100.3</ele>
        <time>2020-08-07T13:36:57Z</time>
      </trkpt>
      <trkpt lat="45.66785" lon="6.87236">
        <ele>2100.7</ele>
        <time>2020-08-07T13:36:58Z</time>
      </trkpt>
      <trkpt lat="45.66789" lon="6.87236">
        <ele>2100.9</ele>
        <time>2020-08-07T13:36:59Z</time>
      </trkpt>
      <trkpt lat="45.66796" lon="6.87235">
        <ele>2101.5</ele>
        <time>2020-08-07T13:37:01Z</time>
      </trkpt>
      <trkpt lat="45.66799" lon="6.87235">
        <ele>2101.8</ele>
        <time>2020-08-07T13:37:02Z</time>
      </trkpt>
      <trkpt lat="45.66802" lon="6.87233">
        <ele>2102</ele>
        <time>2020-08-07T13:37:03Z</time>
      </trkpt>
      <trkpt lat="45.66806" lon="6.87232">
        <ele>2102.3</ele>
        <time>2020-08-07T13:37:05Z</time>
      </trkpt>
      <trkpt lat="45.66809" lon="6.8723">
        <ele>2102.6</ele>
        <time>2020-08-07T13:37:06Z</time>
      </trkpt>
      <trkpt lat="45.66815" lon="6.87228">
        <ele>2103</ele>
        <time>2020-08-07T13:37:08Z</time>
      </trkpt>
      <trkpt lat="45.66818" lon="6.87227">
        <ele>2103.2</ele>
        <time>2020-08-07T13:37:09Z</time>
      </trkpt>
      <trkpt lat="45.66827" lon="6.87225">
        <ele>2103.9</ele>
        <time>2020-08-07T13:37:11Z</time>
      </trkpt>
      <trkpt lat="45.66831" lon="6.87226">
        <ele>2104.2</ele>
        <time>2020-08-07T13:37:13Z</time>
      </trkpt>
      <trkpt lat="45.66835" lon="6.87227">
        <ele>2104.4</ele>
        <time>2020-08-07T13:37:14Z</time>
      </trkpt>
      <trkpt lat="45.6684" lon="6.8723">
        <ele>2104.8</ele>
        <time>2020-08-07T13:37:15Z</time>
      </trkpt>
      <trkpt lat="45.66843" lon="6.87232">
        <ele>2105.1</ele>
        <time>2020-08-07T13:37:16Z</time>
      </trkpt>
      <trkpt lat="45.66851" lon="6.8724">
        <ele>2105.7</ele>
        <time>2020-08-07T13:37:19Z</time>
      </trkpt>
      <trkpt lat="45.66853" lon="6.87242">
        <ele>2106</ele>
        <time>2020-08-07T13:37:20Z</time>
      </trkpt>
      <trkpt lat="45.66856" lon="6.87247">
        <ele>2106.3</ele>
        <time>2020-08-07T13:37:22Z</time>
      </trkpt>
      <trkpt lat="45.66857" lon="6.87251">
        <ele>2106.5</ele>
        <time>2020-08-07T13:37:23Z</time>
      </trkpt>
      <trkpt lat="45.66861" lon="6.87259">
        <ele>2107</ele>
        <time>2020-08-07T13:37:26Z</time>
      </trkpt>
      <trkpt lat="45.66865" lon="6.87265">
        <ele>2107</ele>
        <time>2020-08-07T13:37:27Z</time>
      </trkpt>
      <trkpt lat="45.66872" lon="6.8727">
        <ele>2107.5</ele>
        <time>2020-08-07T13:37:29Z</time>
      </trkpt>
      <trkpt lat="45.66881" lon="6.87272">
        <ele>2109.3</ele>
        <time>2020-08-07T13:37:32Z</time>
      </trkpt>
      <trkpt lat="45.66885" lon="6.87272">
        <ele>2110</ele>
        <time>2020-08-07T13:37:33Z</time>
      </trkpt>
      <trkpt lat="45.66888" lon="6.87272">
        <ele>2110.7</ele>
        <time>2020-08-07T13:37:34Z</time>
      </trkpt>
      <trkpt lat="45.66892" lon="6.87271">
        <ele>2111.3</ele>
        <time>2020-08-07T13:37:35Z</time>
      </trkpt>
      <trkpt lat="45.66899" lon="6.87267">
        <ele>2112.7</ele>
        <time>2020-08-07T13:37:38Z</time>
      </trkpt>
      <trkpt lat="45.66901" lon="6.87265">
        <ele>2113.2</ele>
        <time>2020-08-07T13:37:39Z</time>
      </trkpt>
      <trkpt lat="45.66905" lon="6.87263">
        <ele>2113.8</ele>
        <time>2020-08-07T13:37:41Z</time>
      </trkpt>
      <trkpt lat="45.66911" lon="6.8726">
        <ele>2115</ele>
        <time>2020-08-07T13:37:42Z</time>
      </trkpt>
      <trkpt lat="45.66914" lon="6.87259">
        <ele>2115.6</ele>
        <time>2020-08-07T13:37:44Z</time>
      </trkpt>
      <trkpt lat="45.66921" lon="6.87253">
        <ele>2117.2</ele>
        <time>2020-08-07T13:37:46Z</time>
      </trkpt>
      <trkpt lat="45.66926" lon="6.8725">
        <ele>2118</ele>
        <time>2020-08-07T13:37:48Z</time>
      </trkpt>
      <trkpt lat="45.66929" lon="6.8725">
        <ele>2118.6</ele>
        <time>2020-08-07T13:37:49Z</time>
      </trkpt>
      <trkpt lat="45.66932" lon="6.87249">
        <ele>2119.1</ele>
        <time>2020-08-07T13:37:50Z</time>
      </trkpt>
      <trkpt lat="45.66937" lon="6.87249">
        <ele>2120</ele>
        <time>2020-08-07T13:37:51Z</time>
      </trkpt>
      <trkpt lat="45.66941" lon="6.87251">
        <ele>2120.6</ele>
        <time>2020-08-07T13:37:53Z</time>
      </trkpt>
      <trkpt lat="45.66945" lon="6.87254">
        <ele>2121.2</ele>
        <time>2020-08-07T13:37:54Z</time>
      </trkpt>
      <trkpt lat="45.66948" lon="6.87258">
        <ele>2121.7</ele>
        <time>2020-08-07T13:37:55Z</time>
      </trkpt>
      <trkpt lat="45.66951" lon="6.87261">
        <ele>2122.2</ele>
        <time>2020-08-07T13:37:56Z</time>
      </trkpt>
      <trkpt lat="45.66954" lon="6.87266">
        <ele>2122.8</ele>
        <time>2020-08-07T13:37:58Z</time>
      </trkpt>
      <trkpt lat="45.66958" lon="6.87269">
        <ele>2123.3</ele>
        <time>2020-08-07T13:37:59Z</time>
      </trkpt>
      <trkpt lat="45.66962" lon="6.87272">
        <ele>2123.9</ele>
        <time>2020-08-07T13:38:02Z</time>
      </trkpt>
      <trkpt lat="45.66965" lon="6.87274">
        <ele>2124.3</ele>
        <time>2020-08-07T13:38:03Z</time>
      </trkpt>
      <trkpt lat="45.66971" lon="6.87277">
        <ele>2125</ele>
        <time>2020-08-07T13:38:04Z</time>
      </trkpt>
      <trkpt lat="45.66974" lon="6.87278">
        <ele>2125.3</ele>
        <time>2020-08-07T13:38:05Z</time>
      </trkpt>
      <trkpt lat="45.66981" lon="6.87281">
        <ele>2125.8</ele>
        <time>2020-08-07T13:38:07Z</time>
      </trkpt>
      <trkpt lat="45.66985" lon="6.87283">
        <ele>2126</ele>
        <time>2020-08-07T13:38:08Z</time>
      </trkpt>
      <trkpt lat="45.6699" lon="6.87285">
        <ele>2126.2</ele>
        <time>2020-08-07T13:38:11Z</time>
      </trkpt>
      <trkpt lat="45.66993" lon="6.87286">
        <ele>2126.4</ele>
        <time>2020-08-07T13:38:12Z</time>
      </trkpt>
      <trkpt lat="45.67002" lon="6.8729">
        <ele>2126.9</ele>
        <time>2020-08-07T13:38:13Z</time>
      </trkpt>
      <trkpt lat="45.67006" lon="6.87292">
        <ele>2127.1</ele>
        <time>2020-08-07T13:38:15Z</time>
      </trkpt>
      <trkpt lat="45.67012" lon="6.87295">
        <ele>2127.4</ele>
        <time>2020-08-07T13:38:17Z</time>
      </trkpt>
      <trkpt lat="45.67016" lon="6.87298">
        <ele>2127.6</ele>
        <time>2020-08-07T13:38:19Z</time>
      </trkpt>
      <trkpt lat="45.67022" lon="6.87303">
        <ele>2127.9</ele>
        <time>2020-08-07T13:38:21Z</time>
      </trkpt>
      <trkpt lat="45.67025" lon="6.87305">
        <ele>2128</ele>
        <time>2020-08-07T13:38:22Z</time>
      </trkpt>
      <trkpt lat="45.67031" lon="6.8731">
        <ele>2128.2</ele>
        <time>2020-08-07T13:38:24Z</time>
      </trkpt>
      <trkpt lat="45.67034" lon="6.87314">
        <ele>2128.4</ele>
        <time>2020-08-07T13:38:25Z</time>
      </trkpt>
      <trkpt lat="45.6704" lon="6.87318">
        <ele>2128.7</ele>
        <time>2020-08-07T13:38:26Z</time>
      </trkpt>
      <trkpt lat="45.67045" lon="6.87322">
        <ele>2128.9</ele>
        <time>2020-08-07T13:38:28Z</time>
      </trkpt>
      <trkpt lat="45.67053" lon="6.8733">
        <ele>2129.4</ele>
        <time>2020-08-07T13:38:30Z</time>
      </trkpt>
      <trkpt lat="45.67056" lon="6.87332">
        <ele>2129.5</ele>
        <time>2020-08-07T13:38:31Z</time>
      </trkpt>
      <trkpt lat="45.6706" lon="6.87336">
        <ele>2129.7</ele>
        <time>2020-08-07T13:38:33Z</time>
      </trkpt>
      <trkpt lat="45.67064" lon="6.8734">
        <ele>2130</ele>
        <time>2020-08-07T13:38:35Z</time>
      </trkpt>
      <trkpt lat="45.67068" lon="6.87349">
        <ele>2130.3</ele>
        <time>2020-08-07T13:38:36Z</time>
      </trkpt>
      <trkpt lat="45.67069" lon="6.87354">
        <ele>2130.5</ele>
        <time>2020-08-07T13:38:38Z</time>
      </trkpt>
      <trkpt lat="45.67069" lon="6.87359">
        <ele>2130.7</ele>
        <time>2020-08-07T13:38:39Z</time>
      </trkpt>
      <trkpt lat="45.67065" lon="6.87368">
        <ele>2130.9</ele>
        <time>2020-08-07T13:38:41Z</time>
      </trkpt>
      <trkpt lat="45.67055" lon="6.87374">
        <ele>2131.2</ele>
        <time>2020-08-07T13:38:42Z</time>
      </trkpt>
      <trkpt lat="45.67049" lon="6.87373">
        <ele>2131.4</ele>
        <time>2020-08-07T13:38:45Z</time>
      </trkpt>
      <trkpt lat="45.67046" lon="6.87373">
        <ele>2131.5</ele>
        <time>2020-08-07T13:38:46Z</time>
      </trkpt>
      <trkpt lat="45.67039" lon="6.87369">
        <ele>2131.7</ele>
        <time>2020-08-07T13:38:47Z</time>
      </trkpt>
      <trkpt lat="45.67035" lon="6.87367">
        <ele>2131.8</ele>
        <time>2020-08-07T13:38:49Z</time>
      </trkpt>
      <trkpt lat="45.67029" lon="6.87364">
        <ele>2132</ele>
        <time>2020-08-07T13:38:50Z</time>
      </trkpt>
      <trkpt lat="45.67025" lon="6.87361">
        <ele>2132.2</ele>
        <time>2020-08-07T13:38:51Z</time>
      </trkpt>
      <trkpt lat="45.67022" lon="6.87359">
        <ele>2132.3</ele>
        <time>2020-08-07T13:38:53Z</time>
      </trkpt>
      <trkpt lat="45.67017" lon="6.87356">
        <ele>2132.5</ele>
        <time>2020-08-07T13:38:54Z</time>
      </trkpt>
      <trkpt lat="45.67011" lon="6.8735">
        <ele>2132.9</ele>
        <time>2020-08-07T13:38:55Z</time>
      </trkpt>
      <trkpt lat="45.67007" lon="6.87346">
        <ele>2133.1</ele>
        <time>2020-08-07T13:38:56Z</time>
      </trkpt>
      <trkpt lat="45.67004" lon="6.87343">
        <ele>2133.3</ele>
        <time>2020-08-07T13:38:57Z</time>
      </trkpt>
      <trkpt lat="45.67" lon="6.87339">
        <ele>2133.5</ele>
        <time>2020-08-07T13:38:59Z</time>
      </trkpt>
      <trkpt lat="45.66997" lon="6.87336">
        <ele>2133.7</ele>
        <time>2020-08-07T13:39:00Z</time>
      </trkpt>
      <trkpt lat="45.66992" lon="6.87331">
        <ele>2134</ele>
        <time>2020-08-07T13:39:01Z</time>
      </trkpt>
      <trkpt lat="45.66982" lon="6.87324">
        <ele>2134.5</ele>
        <time>2020-08-07T13:39:03Z</time>
      </trkpt>
      <trkpt lat="45.66976" lon="6.8732">
        <ele>2134.8</ele>
        <time>2020-08-07T13:39:06Z</time>
      </trkpt>
      <trkpt lat="45.66969" lon="6.87318">
        <ele>2135.1</ele>
        <time>2020-08-07T13:39:07Z</time>
      </trkpt>
      <trkpt lat="45.66963" lon="6.87315">
        <ele>2135.4</ele>
        <time>2020-08-07T13:39:08Z</time>
      </trkpt>
      <trkpt lat="45.66959" lon="6.87314">
        <ele>2135.5</ele>
        <time>2020-08-07T13:39:09Z</time>
      </trkpt>
      <trkpt lat="45.66955" lon="6.87314">
        <ele>2135.7</ele>
        <time>2020-08-07T13:39:10Z</time>
      </trkpt>
      <trkpt lat="45.66949" lon="6.87316">
        <ele>2135.9</ele>
        <time>2020-08-07T13:39:12Z</time>
      </trkpt>
      <trkpt lat="45.66945" lon="6.87322">
        <ele>2136.2</ele>
        <time>2020-08-07T13:39:13Z</time>
      </trkpt>
      <trkpt lat="45.66943" lon="6.87328">
        <ele>2136.3</ele>
        <time>2020-08-07T13:39:15Z</time>
      </trkpt>
      <trkpt lat="45.66943" lon="6.87339">
        <ele>2136.5</ele>
        <time>2020-08-07T13:39:17Z</time>
      </trkpt>
      <trkpt lat="45.66946" lon="6.87345">
        <ele>2136.6</ele>
        <time>2020-08-07T13:39:18Z</time>
      </trkpt>
      <trkpt lat="45.66949" lon="6.8735">
        <ele>2136.6</ele>
        <time>2020-08-07T13:39:19Z</time>
      </trkpt>
      <trkpt lat="45.66955" lon="6.87354">
        <ele>2136.7</ele>
        <time>2020-08-07T13:39:20Z</time>
      </trkpt>
      <trkpt lat="45.66959" lon="6.87355">
        <ele>2136.8</ele>
        <time>2020-08-07T13:39:22Z</time>
      </trkpt>
      <trkpt lat="45.66961" lon="6.87358">
        <ele>2136.9</ele>
        <time>2020-08-07T13:39:23Z</time>
      </trkpt>
      <trkpt lat="45.66966" lon="6.87365">
        <ele>2137.1</ele>
        <time>2020-08-07T13:39:24Z</time>
      </trkpt>
      <trkpt lat="45.66971" lon="6.87372">
        <ele>2137.4</ele>
        <time>2020-08-07T13:39:26Z</time>
      </trkpt>
      <trkpt lat="45.66978" lon="6.87379">
        <ele>2137.7</ele>
        <time>2020-08-07T13:39:27Z</time>
      </trkpt>
      <trkpt lat="45.66986" lon="6.87388">
        <ele>2138.2</ele>
        <time>2020-08-07T13:39:29Z</time>
      </trkpt>
      <trkpt lat="45.66989" lon="6.87393">
        <ele>2138.5</ele>
        <time>2020-08-07T13:39:30Z</time>
      </trkpt>
      <trkpt lat="45.66997" lon="6.87403">
        <ele>2139</ele>
        <time>2020-08-07T13:39:33Z</time>
      </trkpt>
      <trkpt lat="45.67002" lon="6.87407">
        <ele>2139.3</ele>
        <time>2020-08-07T13:39:34Z</time>
      </trkpt>
      <trkpt lat="45.67007" lon="6.87413">
        <ele>2139.6</ele>
        <time>2020-08-07T13:39:37Z</time>
      </trkpt>
      <trkpt lat="45.67012" lon="6.8742">
        <ele>2140</ele>
        <time>2020-08-07T13:39:38Z</time>
      </trkpt>
      <trkpt lat="45.67016" lon="6.87424">
        <ele>2140.3</ele>
        <time>2020-08-07T13:39:39Z</time>
      </trkpt>
      <trkpt lat="45.6702" lon="6.87429">
        <ele>2140.5</ele>
        <time>2020-08-07T13:39:41Z</time>
      </trkpt>
      <trkpt lat="45.67023" lon="6.87433">
        <ele>2140.8</ele>
        <time>2020-08-07T13:39:42Z</time>
      </trkpt>
      <trkpt lat="45.67031" lon="6.87443">
        <ele>2141.4</ele>
        <time>2020-08-07T13:39:43Z</time>
      </trkpt>
      <trkpt lat="45.67036" lon="6.87448">
        <ele>2141.7</ele>
        <time>2020-08-07T13:39:46Z</time>
      </trkpt>
      <trkpt lat="45.67048" lon="6.87461">
        <ele>2142.6</ele>
        <time>2020-08-07T13:39:48Z</time>
      </trkpt>
      <trkpt lat="45.67052" lon="6.87466">
        <ele>2143</ele>
        <time>2020-08-07T13:39:50Z</time>
      </trkpt>
      <trkpt lat="45.67058" lon="6.87472">
        <ele>2143.3</ele>
        <time>2020-08-07T13:39:51Z</time>
      </trkpt>
      <trkpt lat="45.67062" lon="6.87477">
        <ele>2143.7</ele>
        <time>2020-08-07T13:39:53Z</time>
      </trkpt>
      <trkpt lat="45.67072" lon="6.87488">
        <ele>2144.3</ele>
        <time>2020-08-07T13:39:55Z</time>
      </trkpt>
      <trkpt lat="45.67078" lon="6.87495">
        <ele>2144.8</ele>
        <time>2020-08-07T13:39:58Z</time>
      </trkpt>
      <trkpt lat="45.67083" lon="6.875">
        <ele>2145</ele>
        <time>2020-08-07T13:39:59Z</time>
      </trkpt>
      <trkpt lat="45.67086" lon="6.87504">
        <ele>2145.3</ele>
        <time>2020-08-07T13:40:00Z</time>
      </trkpt>
      <trkpt lat="45.67094" lon="6.87512">
        <ele>2145.8</ele>
        <time>2020-08-07T13:40:02Z</time>
      </trkpt>
      <trkpt lat="45.67096" lon="6.87515">
        <ele>2146</ele>
        <time>2020-08-07T13:40:03Z</time>
      </trkpt>
      <trkpt lat="45.67104" lon="6.87524">
        <ele>2146.5</ele>
        <time>2020-08-07T13:40:05Z</time>
      </trkpt>
      <trkpt lat="45.67109" lon="6.87529">
        <ele>2146.8</ele>
        <time>2020-08-07T13:40:06Z</time>
      </trkpt>
      <trkpt lat="45.67116" lon="6.87538">
        <ele>2147.4</ele>
        <time>2020-08-07T13:40:08Z</time>
      </trkpt>
      <trkpt lat="45.67121" lon="6.87543">
        <ele>2147.8</ele>
        <time>2020-08-07T13:40:10Z</time>
      </trkpt>
      <trkpt lat="45.67128" lon="6.87551">
        <ele>2148.2</ele>
        <time>2020-08-07T13:40:12Z</time>
      </trkpt>
      <trkpt lat="45.67132" lon="6.87556">
        <ele>2148.5</ele>
        <time>2020-08-07T13:40:13Z</time>
      </trkpt>
      <trkpt lat="45.6714" lon="6.87565">
        <ele>2149</ele>
        <time>2020-08-07T13:40:15Z</time>
      </trkpt>
      <trkpt lat="45.67149" lon="6.87574">
        <ele>2149.2</ele>
        <time>2020-08-07T13:40:17Z</time>
      </trkpt>
      <trkpt lat="45.67153" lon="6.87578">
        <ele>2149.3</ele>
        <time>2020-08-07T13:40:18Z</time>
      </trkpt>
      <trkpt lat="45.67163" lon="6.87587">
        <ele>2149.4</ele>
        <time>2020-08-07T13:40:20Z</time>
      </trkpt>
      <trkpt lat="45.67168" lon="6.87593">
        <ele>2149.4</ele>
        <time>2020-08-07T13:40:21Z</time>
      </trkpt>
      <trkpt lat="45.67178" lon="6.87604">
        <ele>2149</ele>
        <time>2020-08-07T13:40:23Z</time>
      </trkpt>
      <trkpt lat="45.67183" lon="6.8761">
        <ele>2149.4</ele>
        <time>2020-08-07T13:40:24Z</time>
      </trkpt>
      <trkpt lat="45.67192" lon="6.87621">
        <ele>2150.1</ele>
        <time>2020-08-07T13:40:26Z</time>
      </trkpt>
      <trkpt lat="45.67201" lon="6.87633">
        <ele>2150.8</ele>
        <time>2020-08-07T13:40:28Z</time>
      </trkpt>
      <trkpt lat="45.6721" lon="6.87643">
        <ele>2151.5</ele>
        <time>2020-08-07T13:40:30Z</time>
      </trkpt>
      <trkpt lat="45.6722" lon="6.87654">
        <ele>2152.2</ele>
        <time>2020-08-07T13:40:32Z</time>
      </trkpt>
      <trkpt lat="45.67229" lon="6.87666">
        <ele>2152.8</ele>
        <time>2020-08-07T13:40:34Z</time>
      </trkpt>
      <trkpt lat="45.67234" lon="6.87671">
        <ele>2153.2</ele>
        <time>2020-08-07T13:40:35Z</time>
      </trkpt>
      <trkpt lat="45.67244" lon="6.87683">
        <ele>2153.9</ele>
        <time>2020-08-07T13:40:37Z</time>
      </trkpt>
      <trkpt lat="45.67254" lon="6.87693">
        <ele>2154.7</ele>
        <time>2020-08-07T13:40:39Z</time>
      </trkpt>
      <trkpt lat="45.67264" lon="6.87704">
        <ele>2155.4</ele>
        <time>2020-08-07T13:40:41Z</time>
      </trkpt>
      <trkpt lat="45.67269" lon="6.87709">
        <ele>2155.8</ele>
        <time>2020-08-07T13:40:42Z</time>
      </trkpt>
      <trkpt lat="45.67275" lon="6.87715">
        <ele>2156.2</ele>
        <time>2020-08-07T13:40:43Z</time>
      </trkpt>
      <trkpt lat="45.6728" lon="6.87721">
        <ele>2156.6</ele>
        <time>2020-08-07T13:40:44Z</time>
      </trkpt>
      <trkpt lat="45.6729" lon="6.87732">
        <ele>2157.4</ele>
        <time>2020-08-07T13:40:46Z</time>
      </trkpt>
      <trkpt lat="45.67295" lon="6.87739">
        <ele>2157.8</ele>
        <time>2020-08-07T13:40:47Z</time>
      </trkpt>
      <trkpt lat="45.67306" lon="6.8775">
        <ele>2158.6</ele>
        <time>2020-08-07T13:40:49Z</time>
      </trkpt>
      <trkpt lat="45.67316" lon="6.87762">
        <ele>2159.4</ele>
        <time>2020-08-07T13:40:51Z</time>
      </trkpt>
      <trkpt lat="45.67322" lon="6.87768">
        <ele>2159.8</ele>
        <time>2020-08-07T13:40:52Z</time>
      </trkpt>
      <trkpt lat="45.67333" lon="6.87781">
        <ele>2160.6</ele>
        <time>2020-08-07T13:40:54Z</time>
      </trkpt>
      <trkpt lat="45.67339" lon="6.87787">
        <ele>2161</ele>
        <time>2020-08-07T13:40:55Z</time>
      </trkpt>
      <trkpt lat="45.67345" lon="6.87794">
        <ele>2161.4</ele>
        <time>2020-08-07T13:40:56Z</time>
      </trkpt>
      <trkpt lat="45.67357" lon="6.87807">
        <ele>2162.2</ele>
        <time>2020-08-07T13:40:58Z</time>
      </trkpt>
      <trkpt lat="45.67369" lon="6.87822">
        <ele>2163.1</ele>
        <time>2020-08-07T13:41:00Z</time>
      </trkpt>
      <trkpt lat="45.67382" lon="6.87836">
        <ele>2164</ele>
        <time>2020-08-07T13:41:02Z</time>
      </trkpt>
      <trkpt lat="45.67389" lon="6.87843">
        <ele>2164.4</ele>
        <time>2020-08-07T13:41:03Z</time>
      </trkpt>
      <trkpt lat="45.67402" lon="6.87857">
        <ele>2164.9</ele>
        <time>2020-08-07T13:41:05Z</time>
      </trkpt>
      <trkpt lat="45.67415" lon="6.8787">
        <ele>2164.8</ele>
        <time>2020-08-07T13:41:07Z</time>
      </trkpt>
      <trkpt lat="45.67428" lon="6.87885">
        <ele>2164.6</ele>
        <time>2020-08-07T13:41:09Z</time>
      </trkpt>
      <trkpt lat="45.67442" lon="6.879">
        <ele>2164.4</ele>
        <time>2020-08-07T13:41:11Z</time>
      </trkpt>
      <trkpt lat="45.67449" lon="6.87908">
        <ele>2164.2</ele>
        <time>2020-08-07T13:41:12Z</time>
      </trkpt>
      <trkpt lat="45.67462" lon="6.87923">
        <ele>2163.9</ele>
        <time>2020-08-07T13:41:14Z</time>
      </trkpt>
      <trkpt lat="45.6747" lon="6.87932">
        <ele>2163.7</ele>
        <time>2020-08-07T13:41:15Z</time>
      </trkpt>
      <trkpt lat="45.67476" lon="6.8794">
        <ele>2163.5</ele>
        <time>2020-08-07T13:41:16Z</time>
      </trkpt>
      <trkpt lat="45.67483" lon="6.87949">
        <ele>2163.3</ele>
        <time>2020-08-07T13:41:17Z</time>
      </trkpt>
      <trkpt lat="45.67497" lon="6.87964">
        <ele>2163.3</ele>
        <time>2020-08-07T13:41:19Z</time>
      </trkpt>
      <trkpt lat="45.67512" lon="6.8798">
        <ele>2163.5</ele>
        <time>2020-08-07T13:41:21Z</time>
      </trkpt>
      <trkpt lat="45.67527" lon="6.87997">
        <ele>2163.8</ele>
        <time>2020-08-07T13:41:23Z</time>
      </trkpt>
      <trkpt lat="45.67542" lon="6.88014">
        <ele>2164.1</ele>
        <time>2020-08-07T13:41:25Z</time>
      </trkpt>
      <trkpt lat="45.67557" lon="6.88031">
        <ele>2164.3</ele>
        <time>2020-08-07T13:41:27Z</time>
      </trkpt>
      <trkpt lat="45.67565" lon="6.8804">
        <ele>2164.4</ele>
        <time>2020-08-07T13:41:28Z</time>
      </trkpt>
      <trkpt lat="45.6758" lon="6.88057">
        <ele>2164.7</ele>
        <time>2020-08-07T13:41:30Z</time>
      </trkpt>
      <trkpt lat="45.67588" lon="6.88066">
        <ele>2164.8</ele>
        <time>2020-08-07T13:41:31Z</time>
      </trkpt>
      <trkpt lat="45.67603" lon="6.88083">
        <ele>2165</ele>
        <time>2020-08-07T13:41:33Z</time>
      </trkpt>
      <trkpt lat="45.67611" lon="6.88091">
        <ele>2165.1</ele>
        <time>2020-08-07T13:41:34Z</time>
      </trkpt>
      <trkpt lat="45.67626" lon="6.88108">
        <ele>2165.7</ele>
        <time>2020-08-07T13:41:36Z</time>
      </trkpt>
      <trkpt lat="45.67641" lon="6.88126">
        <ele>2166.3</ele>
        <time>2020-08-07T13:41:38Z</time>
      </trkpt>
      <trkpt lat="45.67657" lon="6.88141">
        <ele>2167.2</ele>
        <time>2020-08-07T13:41:40Z</time>
      </trkpt>
      <trkpt lat="45.67665" lon="6.88148">
        <ele>2167.8</ele>
        <time>2020-08-07T13:41:41Z</time>
      </trkpt>
      <trkpt lat="45.67673" lon="6.88155">
        <ele>2168.3</ele>
        <time>2020-08-07T13:41:42Z</time>
      </trkpt>
      <trkpt lat="45.67689" lon="6.88166">
        <ele>2169.4</ele>
        <time>2020-08-07T13:41:44Z</time>
      </trkpt>
      <trkpt lat="45.67705" lon="6.88174">
        <ele>2170.5</ele>
        <time>2020-08-07T13:41:46Z</time>
      </trkpt>
      <trkpt lat="45.67712" lon="6.88178">
        <ele>2171</ele>
        <time>2020-08-07T13:41:47Z</time>
      </trkpt>
      <trkpt lat="45.67726" lon="6.88185">
        <ele>2172</ele>
        <time>2020-08-07T13:41:49Z</time>
      </trkpt>
      <trkpt lat="45.67733" lon="6.88188">
        <ele>2172.5</ele>
        <time>2020-08-07T13:41:50Z</time>
      </trkpt>
      <trkpt lat="45.67739" lon="6.88192">
        <ele>2172.9</ele>
        <time>2020-08-07T13:41:51Z</time>
      </trkpt>
      <trkpt lat="45.67745" lon="6.88195">
        <ele>2173.2</ele>
        <time>2020-08-07T13:41:52Z</time>
      </trkpt>
      <trkpt lat="45.67756" lon="6.88201">
        <ele>2173.7</ele>
        <time>2020-08-07T13:41:54Z</time>
      </trkpt>
      <trkpt lat="45.67761" lon="6.88204">
        <ele>2173.9</ele>
        <time>2020-08-07T13:41:55Z</time>
      </trkpt>
      <trkpt lat="45.67772" lon="6.88208">
        <ele>2174.3</ele>
        <time>2020-08-07T13:41:57Z</time>
      </trkpt>
      <trkpt lat="45.67777" lon="6.8821">
        <ele>2174.5</ele>
        <time>2020-08-07T13:41:58Z</time>
      </trkpt>
      <trkpt lat="45.67786" lon="6.88214">
        <ele>2175</ele>
        <time>2020-08-07T13:42:00Z</time>
      </trkpt>
      <trkpt lat="45.67791" lon="6.88216">
        <ele>2175.4</ele>
        <time>2020-08-07T13:42:01Z</time>
      </trkpt>
      <trkpt lat="45.678" lon="6.88222">
        <ele>2176.1</ele>
        <time>2020-08-07T13:42:03Z</time>
      </trkpt>
      <trkpt lat="45.6781" lon="6.88227">
        <ele>2176.9</ele>
        <time>2020-08-07T13:42:05Z</time>
      </trkpt>
      <trkpt lat="45.67814" lon="6.8823">
        <ele>2177.3</ele>
        <time>2020-08-07T13:42:06Z</time>
      </trkpt>
      <trkpt lat="45.67823" lon="6.88234">
        <ele>2177.9</ele>
        <time>2020-08-07T13:42:08Z</time>
      </trkpt>
      <trkpt lat="45.67828" lon="6.88236">
        <ele>2178.2</ele>
        <time>2020-08-07T13:42:09Z</time>
      </trkpt>
      <trkpt lat="45.67835" lon="6.8824">
        <ele>2178.8</ele>
        <time>2020-08-07T13:42:11Z</time>
      </trkpt>
      <trkpt lat="45.67842" lon="6.88243">
        <ele>2179.3</ele>
        <time>2020-08-07T13:42:13Z</time>
      </trkpt>
      <trkpt lat="45.67845" lon="6.88244">
        <ele>2179.6</ele>
        <time>2020-08-07T13:42:14Z</time>
      </trkpt>
      <trkpt lat="45.67852" lon="6.88247">
        <ele>2180.1</ele>
        <time>2020-08-07T13:42:16Z</time>
      </trkpt>
      <trkpt lat="45.67854" lon="6.8825">
        <ele>2180.3</ele>
        <time>2020-08-07T13:42:17Z</time>
      </trkpt>
      <trkpt lat="45.67861" lon="6.88253">
        <ele>2180.8</ele>
        <time>2020-08-07T13:42:20Z</time>
      </trkpt>
      <trkpt lat="45.67872" lon="6.88258">
        <ele>2181.7</ele>
        <time>2020-08-07T13:42:21Z</time>
      </trkpt>
      <trkpt lat="45.67877" lon="6.8826">
        <ele>2182</ele>
        <time>2020-08-07T13:42:23Z</time>
      </trkpt>
      <trkpt lat="45.67887" lon="6.88265">
        <ele>2182.9</ele>
        <time>2020-08-07T13:42:25Z</time>
      </trkpt>
      <trkpt lat="45.67892" lon="6.88268">
        <ele>2183.3</ele>
        <time>2020-08-07T13:42:28Z</time>
      </trkpt>
      <trkpt lat="45.67896" lon="6.8827">
        <ele>2183.6</ele>
        <time>2020-08-07T13:42:29Z</time>
      </trkpt>
      <trkpt lat="45.67904" lon="6.88277">
        <ele>2184.3</ele>
        <time>2020-08-07T13:42:30Z</time>
      </trkpt>
      <trkpt lat="45.67907" lon="6.88279">
        <ele>2184.6</ele>
        <time>2020-08-07T13:42:31Z</time>
      </trkpt>
      <trkpt lat="45.6791" lon="6.88282">
        <ele>2184.8</ele>
        <time>2020-08-07T13:42:32Z</time>
      </trkpt>
      <trkpt lat="45.67915" lon="6.88287">
        <ele>2185.2</ele>
        <time>2020-08-07T13:42:34Z</time>
      </trkpt>
      <trkpt lat="45.67919" lon="6.8829">
        <ele>2185.6</ele>
        <time>2020-08-07T13:42:35Z</time>
      </trkpt>
      <trkpt lat="45.67929" lon="6.88299">
        <ele>2186.2</ele>
        <time>2020-08-07T13:42:37Z</time>
      </trkpt>
      <trkpt lat="45.67936" lon="6.88306">
        <ele>2186.5</ele>
        <time>2020-08-07T13:42:40Z</time>
      </trkpt>
      <trkpt lat="45.6794" lon="6.8831">
        <ele>2186.7</ele>
        <time>2020-08-07T13:42:41Z</time>
      </trkpt>
      <trkpt lat="45.67944" lon="6.88314">
        <ele>2186.7</ele>
        <time>2020-08-07T13:42:42Z</time>
      </trkpt>
      <trkpt lat="45.67949" lon="6.88317">
        <ele>2186.8</ele>
        <time>2020-08-07T13:42:43Z</time>
      </trkpt>
      <trkpt lat="45.67957" lon="6.88323">
        <ele>2186.9</ele>
        <time>2020-08-07T13:42:45Z</time>
      </trkpt>
      <trkpt lat="45.67962" lon="6.88326">
        <ele>2187</ele>
        <time>2020-08-07T13:42:46Z</time>
      </trkpt>
      <trkpt lat="45.6797" lon="6.88333">
        <ele>2187.1</ele>
        <time>2020-08-07T13:42:48Z</time>
      </trkpt>
      <trkpt lat="45.67973" lon="6.88336">
        <ele>2187.1</ele>
        <time>2020-08-07T13:42:49Z</time>
      </trkpt>
      <trkpt lat="45.67977" lon="6.88341">
        <ele>2187.2</ele>
        <time>2020-08-07T13:42:50Z</time>
      </trkpt>
      <trkpt lat="45.67982" lon="6.88352">
        <ele>2187.3</ele>
        <time>2020-08-07T13:42:52Z</time>
      </trkpt>
      <trkpt lat="45.67983" lon="6.88356">
        <ele>2187.3</ele>
        <time>2020-08-07T13:42:53Z</time>
      </trkpt>
      <trkpt lat="45.67984" lon="6.88362">
        <ele>2187.4</ele>
        <time>2020-08-07T13:42:55Z</time>
      </trkpt>
      <trkpt lat="45.67984" lon="6.88364">
        <ele>2187.4</ele>
        <time>2020-08-07T13:42:56Z</time>
      </trkpt>
      <trkpt lat="45.67984" lon="6.88365">
        <ele>2187.4</ele>
        <time>2020-08-07T13:42:58Z</time>
      </trkpt>
      <trkpt lat="45.67984" lon="6.88364">
        <ele>2187.4</ele>
        <time>2020-08-07T13:43:00Z</time>
      </trkpt>
      <trkpt lat="45.67984" lon="6.88365">
        <ele>2187.4</ele>
        <time>2020-08-07T13:43:01Z</time>
      </trkpt>
      <trkpt lat="45.67984" lon="6.88365">
        <ele>2187.4</ele>
        <time>2020-08-07T13:43:03Z</time>
      </trkpt>
      <trkpt lat="45.67984" lon="6.88365">
        <ele>2187.4</ele>
        <time>2020-08-07T13:43:04Z</time>
      </trkpt>
      <trkpt lat="45.67984" lon="6.88365">
        <ele>2187.4</ele>
        <time>2020-08-07T13:43:06Z</time>
      </trkpt>
      <trkpt lat="45.6798" lon="6.88359">
        <ele>2187.3</ele>
        <time>2020-08-07T13:43:16Z</time>
      </trkpt>
      <trkpt lat="45.67979" lon="6.88357">
        <ele>2187.3</ele>
        <time>2020-08-07T13:43:19Z</time>
      </trkpt>
      <trkpt lat="45.67979" lon="6.88356">
        <ele>2187.3</ele>
        <time>2020-08-07T13:43:22Z</time>
      </trkpt>
      <trkpt lat="45.67976" lon="6.88348">
        <ele>2187.2</ele>
        <time>2020-08-07T13:43:24Z</time>
      </trkpt>
      <trkpt lat="45.67974" lon="6.88344">
        <ele>2187.2</ele>
        <time>2020-08-07T13:43:25Z</time>
      </trkpt>
      <trkpt lat="45.6797" lon="6.88339">
        <ele>2187.1</ele>
        <time>2020-08-07T13:43:26Z</time>
      </trkpt>
      <trkpt lat="45.67969" lon="6.88338">
        <ele>2187.1</ele>
        <time>2020-08-07T13:43:27Z</time>
      </trkpt>
      <trkpt lat="45.67967" lon="6.88336">
        <ele>2187.1</ele>
        <time>2020-08-07T13:43:29Z</time>
      </trkpt>
      <trkpt lat="45.67965" lon="6.88333">
        <ele>2187.1</ele>
        <time>2020-08-07T13:43:30Z</time>
      </trkpt>
      <trkpt lat="45.67965" lon="6.88333">
        <ele>2187.1</ele>
        <time>2020-08-07T13:43:32Z</time>
      </trkpt>
      <trkpt lat="45.67964" lon="6.88333">
        <ele>2187.1</ele>
        <time>2020-08-07T13:43:33Z</time>
      </trkpt>
      <trkpt lat="45.67964" lon="6.88333">
        <ele>2187</ele>
        <time>2020-08-07T13:43:35Z</time>
      </trkpt>
      <trkpt lat="45.67964" lon="6.88333">
        <ele>2187</ele>
        <time>2020-08-07T13:43:37Z</time>
      </trkpt>
      <trkpt lat="45.67964" lon="6.88333">
        <ele>2187</ele>
        <time>2020-08-07T13:43:38Z</time>
      </trkpt>
      <trkpt lat="45.67964" lon="6.88333">
        <ele>2187</ele>
        <time>2020-08-07T13:43:40Z</time>
      </trkpt>
      <trkpt lat="45.67963" lon="6.88333">
        <ele>2187</ele>
        <time>2020-08-07T13:43:41Z</time>
      </trkpt>
      <trkpt lat="45.67963" lon="6.88333">
        <ele>2187</ele>
        <time>2020-08-07T13:43:42Z</time>
      </trkpt>
      <trkpt lat="45.67965" lon="6.88327">
        <ele>2187</ele>
        <time>2020-08-07T13:46:46Z</time>
      </trkpt>
      <trkpt lat="45.67963" lon="6.88323">
        <ele>2187</ele>
        <time>2020-08-07T13:46:47Z</time>
      </trkpt>
      <trkpt lat="45.67963" lon="6.88328">
        <ele>2187</ele>
        <time>2020-08-07T13:46:50Z</time>
      </trkpt>
      <trkpt lat="45.6796" lon="6.88326">
        <ele>2186.9</ele>
        <time>2020-08-07T13:46:51Z</time>
      </trkpt>
      <trkpt lat="45.67957" lon="6.88313">
        <ele>2186.9</ele>
        <time>2020-08-07T13:46:54Z</time>
      </trkpt>
      <trkpt lat="45.67953" lon="6.88306">
        <ele>2186.8</ele>
        <time>2020-08-07T13:46:57Z</time>
      </trkpt>
      <trkpt lat="45.67952" lon="6.88305">
        <ele>2186.8</ele>
        <time>2020-08-07T13:46:58Z</time>
      </trkpt>
      <trkpt lat="45.67951" lon="6.88303">
        <ele>2186.8</ele>
        <time>2020-08-07T13:46:59Z</time>
      </trkpt>
      <trkpt lat="45.67946" lon="6.88302">
        <ele>2186.7</ele>
        <time>2020-08-07T13:47:01Z</time>
      </trkpt>
      <trkpt lat="45.67941" lon="6.883">
        <ele>2186.6</ele>
        <time>2020-08-07T13:47:02Z</time>
      </trkpt>
      <trkpt lat="45.67937" lon="6.88298">
        <ele>2186.5</ele>
        <time>2020-08-07T13:47:03Z</time>
      </trkpt>
      <trkpt lat="45.67932" lon="6.88297">
        <ele>2186.3</ele>
        <time>2020-08-07T13:47:05Z</time>
      </trkpt>
      <trkpt lat="45.67928" lon="6.88295">
        <ele>2186.1</ele>
        <time>2020-08-07T13:47:06Z</time>
      </trkpt>
      <trkpt lat="45.67923" lon="6.88293">
        <ele>2185.9</ele>
        <time>2020-08-07T13:47:08Z</time>
      </trkpt>
      <trkpt lat="45.67919" lon="6.88292">
        <ele>2185.6</ele>
        <time>2020-08-07T13:47:09Z</time>
      </trkpt>
      <trkpt lat="45.67914" lon="6.8829">
        <ele>2185.3</ele>
        <time>2020-08-07T15:06:51Z</time>
      </trkpt>
      <trkpt lat="45.6791" lon="6.88288">
        <ele>2185</ele>
        <time>2020-08-07T15:06:52Z</time>
      </trkpt>
      <trkpt lat="45.67905" lon="6.88287">
        <ele>2184.7</ele>
        <time>2020-08-07T15:06:53Z</time>
      </trkpt>
      <trkpt lat="45.67908" lon="6.88282">
        <ele>2184.4</ele>
        <time>2020-08-07T15:06:55Z</time>
      </trkpt>
      <trkpt lat="45.67906" lon="6.88282">
        <ele>2184.3</ele>
        <time>2020-08-07T15:06:57Z</time>
      </trkpt>
      <trkpt lat="45.67905" lon="6.8828">
        <ele>2184.1</ele>
        <time>2020-08-07T15:06:58Z</time>
      </trkpt>
      <trkpt lat="45.679" lon="6.88274">
        <ele>2183.7</ele>
        <time>2020-08-07T15:07:00Z</time>
      </trkpt>
      <trkpt lat="45.67893" lon="6.88265">
        <ele>2183</ele>
        <time>2020-08-07T15:07:02Z</time>
      </trkpt>
      <trkpt lat="45.67887" lon="6.8826">
        <ele>2182.4</ele>
        <time>2020-08-07T15:07:03Z</time>
      </trkpt>
      <trkpt lat="45.67879" lon="6.88256">
        <ele>2181.8</ele>
        <time>2020-08-07T15:07:04Z</time>
      </trkpt>
      <trkpt lat="45.67871" lon="6.88251">
        <ele>2181.2</ele>
        <time>2020-08-07T15:07:05Z</time>
      </trkpt>
      <trkpt lat="45.67862" lon="6.88248">
        <ele>2180.6</ele>
        <time>2020-08-07T15:07:06Z</time>
      </trkpt>
      <trkpt lat="45.67845" lon="6.8824">
        <ele>2179.3</ele>
        <time>2020-08-07T15:07:08Z</time>
      </trkpt>
      <trkpt lat="45.67826" lon="6.88232">
        <ele>2178</ele>
        <time>2020-08-07T15:07:10Z</time>
      </trkpt>
      <trkpt lat="45.67816" lon="6.88227">
        <ele>2177.3</ele>
        <time>2020-08-07T15:07:11Z</time>
      </trkpt>
      <trkpt lat="45.67797" lon="6.88218">
        <ele>2175.8</ele>
        <time>2020-08-07T15:07:13Z</time>
      </trkpt>
      <trkpt lat="45.67786" lon="6.88213">
        <ele>2175</ele>
        <time>2020-08-07T15:07:14Z</time>
      </trkpt>
      <trkpt lat="45.67765" lon="6.88204">
        <ele>2174</ele>
        <time>2020-08-07T15:07:16Z</time>
      </trkpt>
      <trkpt lat="45.67754" lon="6.88199">
        <ele>2173.6</ele>
        <time>2020-08-07T15:07:17Z</time>
      </trkpt>
      <trkpt lat="45.67732" lon="6.88188">
        <ele>2172.4</ele>
        <time>2020-08-07T15:07:19Z</time>
      </trkpt>
      <trkpt lat="45.67721" lon="6.88183">
        <ele>2171.7</ele>
        <time>2020-08-07T15:07:20Z</time>
      </trkpt>
      <trkpt lat="45.67701" lon="6.88172">
        <ele>2170.2</ele>
        <time>2020-08-07T15:07:22Z</time>
      </trkpt>
      <trkpt lat="45.6769" lon="6.88168">
        <ele>2169.5</ele>
        <time>2020-08-07T15:07:23Z</time>
      </trkpt>
      <trkpt lat="45.6767" lon="6.88156">
        <ele>2168.2</ele>
        <time>2020-08-07T15:07:25Z</time>
      </trkpt>
      <trkpt lat="45.67653" lon="6.88141">
        <ele>2167</ele>
        <time>2020-08-07T15:07:27Z</time>
      </trkpt>
      <trkpt lat="45.67644" lon="6.88131">
        <ele>2166.5</ele>
        <time>2020-08-07T15:07:28Z</time>
      </trkpt>
      <trkpt lat="45.67635" lon="6.8812">
        <ele>2166</ele>
        <time>2020-08-07T15:07:29Z</time>
      </trkpt>
      <trkpt lat="45.67617" lon="6.881">
        <ele>2165.4</ele>
        <time>2020-08-07T15:07:31Z</time>
      </trkpt>
      <trkpt lat="45.67599" lon="6.88081">
        <ele>2164.9</ele>
        <time>2020-08-07T15:07:33Z</time>
      </trkpt>
      <trkpt lat="45.6759" lon="6.8807">
        <ele>2164.8</ele>
        <time>2020-08-07T15:07:34Z</time>
      </trkpt>
      <trkpt lat="45.67581" lon="6.88061">
        <ele>2164.7</ele>
        <time>2020-08-07T15:07:35Z</time>
      </trkpt>
      <trkpt lat="45.67564" lon="6.88042">
        <ele>2164.4</ele>
        <time>2020-08-07T15:07:37Z</time>
      </trkpt>
      <trkpt lat="45.67555" lon="6.88033">
        <ele>2164.3</ele>
        <time>2020-08-07T15:07:38Z</time>
      </trkpt>
      <trkpt lat="45.67546" lon="6.88023">
        <ele>2164.2</ele>
        <time>2020-08-07T15:07:39Z</time>
      </trkpt>
      <trkpt lat="45.67538" lon="6.88014">
        <ele>2164</ele>
        <time>2020-08-07T15:07:40Z</time>
      </trkpt>
      <trkpt lat="45.6753" lon="6.88004">
        <ele>2163.8</ele>
        <time>2020-08-07T15:07:41Z</time>
      </trkpt>
      <trkpt lat="45.67521" lon="6.87994">
        <ele>2163.7</ele>
        <time>2020-08-07T15:07:42Z</time>
      </trkpt>
      <trkpt lat="45.67504" lon="6.87976">
        <ele>2163.4</ele>
        <time>2020-08-07T15:07:44Z</time>
      </trkpt>
      <trkpt lat="45.67495" lon="6.87966">
        <ele>2163.3</ele>
        <time>2020-08-07T15:07:45Z</time>
      </trkpt>
      <trkpt lat="45.67487" lon="6.87957">
        <ele>2163.3</ele>
        <time>2020-08-07T15:07:46Z</time>
      </trkpt>
      <trkpt lat="45.67479" lon="6.87947">
        <ele>2163.4</ele>
        <time>2020-08-07T15:07:47Z</time>
      </trkpt>
      <trkpt lat="45.67463" lon="6.87929">
        <ele>2163.8</ele>
        <time>2020-08-07T15:07:49Z</time>
      </trkpt>
      <trkpt lat="45.67447" lon="6.8791">
        <ele>2164.2</ele>
        <time>2020-08-07T15:07:51Z</time>
      </trkpt>
      <trkpt lat="45.6743" lon="6.87892">
        <ele>2164.5</ele>
        <time>2020-08-07T15:07:53Z</time>
      </trkpt>
      <trkpt lat="45.67414" lon="6.87874">
        <ele>2164.8</ele>
        <time>2020-08-07T15:07:55Z</time>
      </trkpt>
      <trkpt lat="45.67406" lon="6.87865">
        <ele>2164.8</ele>
        <time>2020-08-07T15:07:56Z</time>
      </trkpt>
      <trkpt lat="45.67391" lon="6.87848">
        <ele>2164.6</ele>
        <time>2020-08-07T15:07:58Z</time>
      </trkpt>
      <trkpt lat="45.67376" lon="6.87832">
        <ele>2163.6</ele>
        <time>2020-08-07T15:08:00Z</time>
      </trkpt>
      <trkpt lat="45.67368" lon="6.87823">
        <ele>2163</ele>
        <time>2020-08-07T15:08:01Z</time>
      </trkpt>
      <trkpt lat="45.6735" lon="6.87804">
        <ele>2161.8</ele>
        <time>2020-08-07T15:08:03Z</time>
      </trkpt>
      <trkpt lat="45.67332" lon="6.87785">
        <ele>2160.7</ele>
        <time>2020-08-07T15:08:05Z</time>
      </trkpt>
      <trkpt lat="45.67313" lon="6.87765">
        <ele>2159.3</ele>
        <time>2020-08-07T15:08:07Z</time>
      </trkpt>
      <trkpt lat="45.67304" lon="6.87754">
        <ele>2158.6</ele>
        <time>2020-08-07T15:08:08Z</time>
      </trkpt>
      <trkpt lat="45.67285" lon="6.87731">
        <ele>2157.1</ele>
        <time>2020-08-07T15:08:10Z</time>
      </trkpt>
      <trkpt lat="45.67276" lon="6.87719">
        <ele>2156.4</ele>
        <time>2020-08-07T15:08:11Z</time>
      </trkpt>
      <trkpt lat="45.67256" lon="6.87698">
        <ele>2154.9</ele>
        <time>2020-08-07T15:08:13Z</time>
      </trkpt>
      <trkpt lat="45.67246" lon="6.87688">
        <ele>2154.2</ele>
        <time>2020-08-07T15:08:14Z</time>
      </trkpt>
      <trkpt lat="45.67237" lon="6.87677">
        <ele>2153.4</ele>
        <time>2020-08-07T15:08:15Z</time>
      </trkpt>
      <trkpt lat="45.67228" lon="6.87666">
        <ele>2152.8</ele>
        <time>2020-08-07T15:08:16Z</time>
      </trkpt>
      <trkpt lat="45.67209" lon="6.87646">
        <ele>2151.5</ele>
        <time>2020-08-07T15:08:18Z</time>
      </trkpt>
      <trkpt lat="45.672" lon="6.87635">
        <ele>2150.8</ele>
        <time>2020-08-07T15:08:19Z</time>
      </trkpt>
      <trkpt lat="45.67181" lon="6.87615">
        <ele>2149.5</ele>
        <time>2020-08-07T15:08:21Z</time>
      </trkpt>
      <trkpt lat="45.67163" lon="6.87596">
        <ele>2149.4</ele>
        <time>2020-08-07T15:08:23Z</time>
      </trkpt>
      <trkpt lat="45.67146" lon="6.87575">
        <ele>2149.2</ele>
        <time>2020-08-07T15:08:25Z</time>
      </trkpt>
      <trkpt lat="45.67137" lon="6.87564">
        <ele>2148.8</ele>
        <time>2020-08-07T15:08:26Z</time>
      </trkpt>
      <trkpt lat="45.67119" lon="6.87544">
        <ele>2147.7</ele>
        <time>2020-08-07T15:08:28Z</time>
      </trkpt>
      <trkpt lat="45.6711" lon="6.87533">
        <ele>2147</ele>
        <time>2020-08-07T15:08:29Z</time>
      </trkpt>
      <trkpt lat="45.67092" lon="6.87512">
        <ele>2145.7</ele>
        <time>2020-08-07T15:08:31Z</time>
      </trkpt>
      <trkpt lat="45.67073" lon="6.87491">
        <ele>2144.4</ele>
        <time>2020-08-07T15:08:33Z</time>
      </trkpt>
      <trkpt lat="45.67053" lon="6.8747">
        <ele>2143</ele>
        <time>2020-08-07T15:08:35Z</time>
      </trkpt>
      <trkpt lat="45.67043" lon="6.87459">
        <ele>2142.3</ele>
        <time>2020-08-07T15:08:36Z</time>
      </trkpt>
      <trkpt lat="45.67022" lon="6.87435">
        <ele>2140.7</ele>
        <time>2020-08-07T15:08:38Z</time>
      </trkpt>
      <trkpt lat="45.67012" lon="6.87423">
        <ele>2140</ele>
        <time>2020-08-07T15:08:39Z</time>
      </trkpt>
      <trkpt lat="45.67002" lon="6.87411">
        <ele>2139.3</ele>
        <time>2020-08-07T15:08:40Z</time>
      </trkpt>
      <trkpt lat="45.66981" lon="6.87388">
        <ele>2138</ele>
        <time>2020-08-07T15:08:42Z</time>
      </trkpt>
      <trkpt lat="45.66971" lon="6.87376">
        <ele>2137.4</ele>
        <time>2020-08-07T15:08:43Z</time>
      </trkpt>
      <trkpt lat="45.66962" lon="6.87365">
        <ele>2137</ele>
        <time>2020-08-07T15:08:44Z</time>
      </trkpt>
      <trkpt lat="45.66954" lon="6.87356">
        <ele>2136.7</ele>
        <time>2020-08-07T15:08:45Z</time>
      </trkpt>
      <trkpt lat="45.66948" lon="6.87348">
        <ele>2136.6</ele>
        <time>2020-08-07T15:08:46Z</time>
      </trkpt>
      <trkpt lat="45.66944" lon="6.87339">
        <ele>2136.5</ele>
        <time>2020-08-07T15:08:47Z</time>
      </trkpt>
      <trkpt lat="45.66944" lon="6.8733">
        <ele>2136.3</ele>
        <time>2020-08-07T15:08:48Z</time>
      </trkpt>
      <trkpt lat="45.66955" lon="6.87318">
        <ele>2135.8</ele>
        <time>2020-08-07T15:08:50Z</time>
      </trkpt>
      <trkpt lat="45.66972" lon="6.87324">
        <ele>2135.1</ele>
        <time>2020-08-07T15:08:52Z</time>
      </trkpt>
      <trkpt lat="45.6698" lon="6.87328">
        <ele>2134.7</ele>
        <time>2020-08-07T15:08:53Z</time>
      </trkpt>
      <trkpt lat="45.66997" lon="6.87339">
        <ele>2133.9</ele>
        <time>2020-08-07T15:08:55Z</time>
      </trkpt>
      <trkpt lat="45.67014" lon="6.87356">
        <ele>2132.9</ele>
        <time>2020-08-07T15:08:57Z</time>
      </trkpt>
      <trkpt lat="45.67031" lon="6.8737">
        <ele>2132</ele>
        <time>2020-08-07T15:08:59Z</time>
      </trkpt>
      <trkpt lat="45.6704" lon="6.87376">
        <ele>2131.7</ele>
        <time>2020-08-07T15:09:00Z</time>
      </trkpt>
      <trkpt lat="45.67059" lon="6.87378">
        <ele>2131.2</ele>
        <time>2020-08-07T15:09:02Z</time>
      </trkpt>
      <trkpt lat="45.67066" lon="6.87372">
        <ele>2131</ele>
        <time>2020-08-07T15:09:03Z</time>
      </trkpt>
      <trkpt lat="45.67069" lon="6.87362">
        <ele>2130.7</ele>
        <time>2020-08-07T15:09:04Z</time>
      </trkpt>
      <trkpt lat="45.67067" lon="6.87349">
        <ele>2130.3</ele>
        <time>2020-08-07T15:09:05Z</time>
      </trkpt>
      <trkpt lat="45.67054" lon="6.87329">
        <ele>2129.4</ele>
        <time>2020-08-07T15:09:07Z</time>
      </trkpt>
      <trkpt lat="45.67036" lon="6.87315">
        <ele>2128.5</ele>
        <time>2020-08-07T15:09:09Z</time>
      </trkpt>
      <trkpt lat="45.67017" lon="6.873">
        <ele>2127.6</ele>
        <time>2020-08-07T15:09:11Z</time>
      </trkpt>
      <trkpt lat="45.66997" lon="6.87288">
        <ele>2126.6</ele>
        <time>2020-08-07T15:09:13Z</time>
      </trkpt>
      <trkpt lat="45.66976" lon="6.87279">
        <ele>2125.4</ele>
        <time>2020-08-07T15:09:15Z</time>
      </trkpt>
      <trkpt lat="45.66965" lon="6.87273">
        <ele>2124.2</ele>
        <time>2020-08-07T15:09:16Z</time>
      </trkpt>
      <trkpt lat="45.66947" lon="6.87256">
        <ele>2121.6</ele>
        <time>2020-08-07T15:09:18Z</time>
      </trkpt>
      <trkpt lat="45.6693" lon="6.87247">
        <ele>2118.9</ele>
        <time>2020-08-07T15:09:20Z</time>
      </trkpt>
      <trkpt lat="45.6692" lon="6.87249">
        <ele>2117.2</ele>
        <time>2020-08-07T15:09:21Z</time>
      </trkpt>
      <trkpt lat="45.66911" lon="6.87254">
        <ele>2115.3</ele>
        <time>2020-08-07T15:09:22Z</time>
      </trkpt>
      <trkpt lat="45.66901" lon="6.87261">
        <ele>2113.4</ele>
        <time>2020-08-07T15:09:23Z</time>
      </trkpt>
      <trkpt lat="45.66882" lon="6.87271">
        <ele>2109.5</ele>
        <time>2020-08-07T15:09:25Z</time>
      </trkpt>
      <trkpt lat="45.66872" lon="6.87269">
        <ele>2107.4</ele>
        <time>2020-08-07T15:09:26Z</time>
      </trkpt>
      <trkpt lat="45.66856" lon="6.87253">
        <ele>2106.5</ele>
        <time>2020-08-07T15:09:28Z</time>
      </trkpt>
      <trkpt lat="45.66849" lon="6.87241">
        <ele>2105.8</ele>
        <time>2020-08-07T15:09:29Z</time>
      </trkpt>
      <trkpt lat="45.66831" lon="6.87226">
        <ele>2104.2</ele>
        <time>2020-08-07T15:09:31Z</time>
      </trkpt>
      <trkpt lat="45.66808" lon="6.87226">
        <ele>2102.5</ele>
        <time>2020-08-07T15:09:33Z</time>
      </trkpt>
      <trkpt lat="45.66795" lon="6.87229">
        <ele>2101.6</ele>
        <time>2020-08-07T15:09:34Z</time>
      </trkpt>
      <trkpt lat="45.66771" lon="6.87233">
        <ele>2099.7</ele>
        <time>2020-08-07T15:09:36Z</time>
      </trkpt>
      <trkpt lat="45.66758" lon="6.87231">
        <ele>2098.8</ele>
        <time>2020-08-07T15:09:37Z</time>
      </trkpt>
      <trkpt lat="45.66732" lon="6.87221">
        <ele>2096.8</ele>
        <time>2020-08-07T15:09:39Z</time>
      </trkpt>
      <trkpt lat="45.66705" lon="6.87208">
        <ele>2094.6</ele>
        <time>2020-08-07T15:09:41Z</time>
      </trkpt>
      <trkpt lat="45.66676" lon="6.87199">
        <ele>2092.4</ele>
        <time>2020-08-07T15:09:43Z</time>
      </trkpt>
      <trkpt lat="45.66646" lon="6.87192">
        <ele>2090</ele>
        <time>2020-08-07T15:09:45Z</time>
      </trkpt>
      <trkpt lat="45.66631" lon="6.87185">
        <ele>2088.7</ele>
        <time>2020-08-07T15:09:46Z</time>
      </trkpt>
      <trkpt lat="45.66603" lon="6.87162">
        <ele>2086.2</ele>
        <time>2020-08-07T15:09:48Z</time>
      </trkpt>
      <trkpt lat="45.66574" lon="6.87144">
        <ele>2083.8</ele>
        <time>2020-08-07T15:09:50Z</time>
      </trkpt>
      <trkpt lat="45.66544" lon="6.87137">
        <ele>2081.3</ele>
        <time>2020-08-07T15:09:52Z</time>
      </trkpt>
      <trkpt lat="45.66513" lon="6.87132">
        <ele>2079.1</ele>
        <time>2020-08-07T15:09:54Z</time>
      </trkpt>
      <trkpt lat="45.66485" lon="6.87116">
        <ele>2076.6</ele>
        <time>2020-08-07T15:09:56Z</time>
      </trkpt>
      <trkpt lat="45.6646" lon="6.8709">
        <ele>2074.2</ele>
        <time>2020-08-07T15:09:58Z</time>
      </trkpt>
      <trkpt lat="45.66448" lon="6.87079">
        <ele>2073.1</ele>
        <time>2020-08-07T15:09:59Z</time>
      </trkpt>
      <trkpt lat="45.66434" lon="6.87069">
        <ele>2071.8</ele>
        <time>2020-08-07T15:10:00Z</time>
      </trkpt>
      <trkpt lat="45.66406" lon="6.87055">
        <ele>2069.5</ele>
        <time>2020-08-07T15:10:02Z</time>
      </trkpt>
      <trkpt lat="45.66392" lon="6.8705">
        <ele>2068.3</ele>
        <time>2020-08-07T15:10:03Z</time>
      </trkpt>
      <trkpt lat="45.66377" lon="6.87048">
        <ele>2067.2</ele>
        <time>2020-08-07T15:10:04Z</time>
      </trkpt>
      <trkpt lat="45.66351" lon="6.87043">
        <ele>2065.2</ele>
        <time>2020-08-07T15:10:06Z</time>
      </trkpt>
      <trkpt lat="45.66327" lon="6.87037">
        <ele>2064.7</ele>
        <time>2020-08-07T15:10:08Z</time>
      </trkpt>
      <trkpt lat="45.66315" lon="6.87037">
        <ele>2065.6</ele>
        <time>2020-08-07T15:10:09Z</time>
      </trkpt>
      <trkpt lat="45.66303" lon="6.87041">
        <ele>2066.3</ele>
        <time>2020-08-07T15:10:10Z</time>
      </trkpt>
      <trkpt lat="45.66279" lon="6.87052">
        <ele>2067.7</ele>
        <time>2020-08-07T15:10:12Z</time>
      </trkpt>
      <trkpt lat="45.66259" lon="6.87063">
        <ele>2069.3</ele>
        <time>2020-08-07T15:10:14Z</time>
      </trkpt>
      <trkpt lat="45.6625" lon="6.87069">
        <ele>2070</ele>
        <time>2020-08-07T15:10:15Z</time>
      </trkpt>
      <trkpt lat="45.66243" lon="6.87072">
        <ele>2070.8</ele>
        <time>2020-08-07T15:10:16Z</time>
      </trkpt>
      <trkpt lat="45.66228" lon="6.87062">
        <ele>2068.5</ele>
        <time>2020-08-07T15:10:18Z</time>
      </trkpt>
      <trkpt lat="45.66226" lon="6.87049">
        <ele>2067</ele>
        <time>2020-08-07T15:10:19Z</time>
      </trkpt>
      <trkpt lat="45.66233" lon="6.87027">
        <ele>2063.7</ele>
        <time>2020-08-07T15:10:21Z</time>
      </trkpt>
      <trkpt lat="45.66242" lon="6.87003">
        <ele>2060.8</ele>
        <time>2020-08-07T15:10:23Z</time>
      </trkpt>
      <trkpt lat="45.66244" lon="6.86973">
        <ele>2059.6</ele>
        <time>2020-08-07T15:10:25Z</time>
      </trkpt>
      <trkpt lat="45.66239" lon="6.86941">
        <ele>2058.3</ele>
        <time>2020-08-07T15:10:27Z</time>
      </trkpt>
      <trkpt lat="45.66232" lon="6.86927">
        <ele>2057.6</ele>
        <time>2020-08-07T15:10:28Z</time>
      </trkpt>
      <trkpt lat="45.66224" lon="6.86916">
        <ele>2056.9</ele>
        <time>2020-08-07T15:10:29Z</time>
      </trkpt>
      <trkpt lat="45.66202" lon="6.86901">
        <ele>2055.6</ele>
        <time>2020-08-07T15:10:31Z</time>
      </trkpt>
      <trkpt lat="45.66181" lon="6.86883">
        <ele>2054.4</ele>
        <time>2020-08-07T15:10:33Z</time>
      </trkpt>
      <trkpt lat="45.66168" lon="6.86852">
        <ele>2053.1</ele>
        <time>2020-08-07T15:10:35Z</time>
      </trkpt>
      <trkpt lat="45.66156" lon="6.8682">
        <ele>2051.7</ele>
        <time>2020-08-07T15:10:37Z</time>
      </trkpt>
      <trkpt lat="45.66138" lon="6.86792">
        <ele>2050.2</ele>
        <time>2020-08-07T15:10:39Z</time>
      </trkpt>
      <trkpt lat="45.66119" lon="6.86767">
        <ele>2048.7</ele>
        <time>2020-08-07T15:10:41Z</time>
      </trkpt>
      <trkpt lat="45.66096" lon="6.86741">
        <ele>2047</ele>
        <time>2020-08-07T15:10:43Z</time>
      </trkpt>
      <trkpt lat="45.66074" lon="6.86717">
        <ele>2045.3</ele>
        <time>2020-08-07T15:10:45Z</time>
      </trkpt>
      <trkpt lat="45.66063" lon="6.86705">
        <ele>2044.5</ele>
        <time>2020-08-07T15:10:46Z</time>
      </trkpt>
      <trkpt lat="45.66052" lon="6.86691">
        <ele>2043.6</ele>
        <time>2020-08-07T15:10:47Z</time>
      </trkpt>
      <trkpt lat="45.66042" lon="6.86677">
        <ele>2042.8</ele>
        <time>2020-08-07T15:10:48Z</time>
      </trkpt>
      <trkpt lat="45.66033" lon="6.86661">
        <ele>2042</ele>
        <time>2020-08-07T15:10:49Z</time>
      </trkpt>
      <trkpt lat="45.66013" lon="6.86631">
        <ele>2040.3</ele>
        <time>2020-08-07T15:10:51Z</time>
      </trkpt>
      <trkpt lat="45.66003" lon="6.86618">
        <ele>2039.5</ele>
        <time>2020-08-07T15:10:52Z</time>
      </trkpt>
      <trkpt lat="45.6598" lon="6.86593">
        <ele>2037.7</ele>
        <time>2020-08-07T15:10:54Z</time>
      </trkpt>
      <trkpt lat="45.65969" lon="6.86579">
        <ele>2036.8</ele>
        <time>2020-08-07T15:10:55Z</time>
      </trkpt>
      <trkpt lat="45.65953" lon="6.86544">
        <ele>2035</ele>
        <time>2020-08-07T15:10:57Z</time>
      </trkpt>
      <trkpt lat="45.65946" lon="6.86525">
        <ele>2034.2</ele>
        <time>2020-08-07T15:10:58Z</time>
      </trkpt>
      <trkpt lat="45.65931" lon="6.86488">
        <ele>2032.5</ele>
        <time>2020-08-07T15:11:00Z</time>
      </trkpt>
      <trkpt lat="45.65916" lon="6.86454">
        <ele>2031</ele>
        <time>2020-08-07T15:11:02Z</time>
      </trkpt>
      <trkpt lat="45.65907" lon="6.86439">
        <ele>2030.5</ele>
        <time>2020-08-07T15:11:03Z</time>
      </trkpt>
      <trkpt lat="45.65885" lon="6.86419">
        <ele>2029.5</ele>
        <time>2020-08-07T15:11:05Z</time>
      </trkpt>
      <trkpt lat="45.65872" lon="6.86412">
        <ele>2029.1</ele>
        <time>2020-08-07T15:11:06Z</time>
      </trkpt>
      <trkpt lat="45.65859" lon="6.86406">
        <ele>2028.7</ele>
        <time>2020-08-07T15:11:07Z</time>
      </trkpt>
      <trkpt lat="45.65847" lon="6.86401">
        <ele>2028.4</ele>
        <time>2020-08-07T15:11:08Z</time>
      </trkpt>
      <trkpt lat="45.65823" lon="6.86386">
        <ele>2027.8</ele>
        <time>2020-08-07T15:11:10Z</time>
      </trkpt>
      <trkpt lat="45.65802" lon="6.86364">
        <ele>2027</ele>
        <time>2020-08-07T15:11:12Z</time>
      </trkpt>
      <trkpt lat="45.65791" lon="6.86354">
        <ele>2026.5</ele>
        <time>2020-08-07T15:11:13Z</time>
      </trkpt>
      <trkpt lat="45.65768" lon="6.8634">
        <ele>2025.7</ele>
        <time>2020-08-07T15:11:15Z</time>
      </trkpt>
      <trkpt lat="45.65756" lon="6.86334">
        <ele>2025.2</ele>
        <time>2020-08-07T15:11:16Z</time>
      </trkpt>
      <trkpt lat="45.65735" lon="6.86321">
        <ele>2024.3</ele>
        <time>2020-08-07T15:11:18Z</time>
      </trkpt>
      <trkpt lat="45.65724" lon="6.86312">
        <ele>2023.8</ele>
        <time>2020-08-07T15:11:19Z</time>
      </trkpt>
      <trkpt lat="45.65715" lon="6.86301">
        <ele>2023.2</ele>
        <time>2020-08-07T15:11:20Z</time>
      </trkpt>
      <trkpt lat="45.65698" lon="6.86278">
        <ele>2022.1</ele>
        <time>2020-08-07T15:11:22Z</time>
      </trkpt>
      <trkpt lat="45.65689" lon="6.86267">
        <ele>2021.6</ele>
        <time>2020-08-07T15:11:23Z</time>
      </trkpt>
      <trkpt lat="45.65675" lon="6.86239">
        <ele>2020.5</ele>
        <time>2020-08-07T15:11:25Z</time>
      </trkpt>
      <trkpt lat="45.65667" lon="6.86206">
        <ele>2019.4</ele>
        <time>2020-08-07T15:11:27Z</time>
      </trkpt>
      <trkpt lat="45.65661" lon="6.8619">
        <ele>2018.8</ele>
        <time>2020-08-07T15:11:28Z</time>
      </trkpt>
      <trkpt lat="45.65653" lon="6.86177">
        <ele>2018.1</ele>
        <time>2020-08-07T15:11:29Z</time>
      </trkpt>
      <trkpt lat="45.65635" lon="6.86154">
        <ele>2016.9</ele>
        <time>2020-08-07T15:11:31Z</time>
      </trkpt>
      <trkpt lat="45.65613" lon="6.86135">
        <ele>2015.7</ele>
        <time>2020-08-07T15:11:33Z</time>
      </trkpt>
      <trkpt lat="45.65589" lon="6.86125">
        <ele>2014.5</ele>
        <time>2020-08-07T15:11:35Z</time>
      </trkpt>
      <trkpt lat="45.65564" lon="6.86118">
        <ele>2013.4</ele>
        <time>2020-08-07T15:11:37Z</time>
      </trkpt>
      <trkpt lat="45.65552" lon="6.86111">
        <ele>2012.8</ele>
        <time>2020-08-07T15:11:38Z</time>
      </trkpt>
      <trkpt lat="45.65541" lon="6.861">
        <ele>2012.1</ele>
        <time>2020-08-07T15:11:39Z</time>
      </trkpt>
      <trkpt lat="45.65524" lon="6.86071">
        <ele>2010.6</ele>
        <time>2020-08-07T15:11:41Z</time>
      </trkpt>
      <trkpt lat="45.65511" lon="6.86039">
        <ele>2008.8</ele>
        <time>2020-08-07T15:11:43Z</time>
      </trkpt>
      <trkpt lat="45.65505" lon="6.86022">
        <ele>2007.9</ele>
        <time>2020-08-07T15:11:44Z</time>
      </trkpt>
      <trkpt lat="45.65498" lon="6.86007">
        <ele>2007.1</ele>
        <time>2020-08-07T15:11:45Z</time>
      </trkpt>
      <trkpt lat="45.6548" lon="6.85981">
        <ele>2005.8</ele>
        <time>2020-08-07T15:11:47Z</time>
      </trkpt>
      <trkpt lat="45.65469" lon="6.85972">
        <ele>2005.3</ele>
        <time>2020-08-07T15:11:48Z</time>
      </trkpt>
      <trkpt lat="45.65456" lon="6.85967">
        <ele>2004.8</ele>
        <time>2020-08-07T15:11:49Z</time>
      </trkpt>
      <trkpt lat="45.65444" lon="6.85963">
        <ele>2004.2</ele>
        <time>2020-08-07T15:11:50Z</time>
      </trkpt>
      <trkpt lat="45.65431" lon="6.8596">
        <ele>2003.7</ele>
        <time>2020-08-07T15:11:51Z</time>
      </trkpt>
      <trkpt lat="45.65407" lon="6.85945">
        <ele>2002.4</ele>
        <time>2020-08-07T15:11:53Z</time>
      </trkpt>
      <trkpt lat="45.65397" lon="6.85932">
        <ele>2001.5</ele>
        <time>2020-08-07T15:11:54Z</time>
      </trkpt>
      <trkpt lat="45.65379" lon="6.85905">
        <ele>1999.9</ele>
        <time>2020-08-07T15:11:56Z</time>
      </trkpt>
      <trkpt lat="45.65361" lon="6.85877">
        <ele>1998.2</ele>
        <time>2020-08-07T15:11:58Z</time>
      </trkpt>
      <trkpt lat="45.6534" lon="6.85851">
        <ele>1996.8</ele>
        <time>2020-08-07T15:12:00Z</time>
      </trkpt>
      <trkpt lat="45.65316" lon="6.85828">
        <ele>1995.6</ele>
        <time>2020-08-07T15:12:02Z</time>
      </trkpt>
      <trkpt lat="45.65304" lon="6.85819">
        <ele>1995.1</ele>
        <time>2020-08-07T15:12:03Z</time>
      </trkpt>
      <trkpt lat="45.65277" lon="6.85807">
        <ele>1994.3</ele>
        <time>2020-08-07T15:12:05Z</time>
      </trkpt>
      <trkpt lat="45.65264" lon="6.85802">
        <ele>1993.9</ele>
        <time>2020-08-07T15:12:06Z</time>
      </trkpt>
      <trkpt lat="45.65251" lon="6.85796">
        <ele>1993.4</ele>
        <time>2020-08-07T15:12:07Z</time>
      </trkpt>
      <trkpt lat="45.65228" lon="6.8578">
        <ele>1992</ele>
        <time>2020-08-07T15:12:09Z</time>
      </trkpt>
      <trkpt lat="45.65218" lon="6.85768">
        <ele>1991.3</ele>
        <time>2020-08-07T15:12:10Z</time>
      </trkpt>
      <trkpt lat="45.65198" lon="6.85743">
        <ele>1989.8</ele>
        <time>2020-08-07T15:12:12Z</time>
      </trkpt>
      <trkpt lat="45.65188" lon="6.85731">
        <ele>1989.1</ele>
        <time>2020-08-07T15:12:13Z</time>
      </trkpt>
      <trkpt lat="45.65165" lon="6.85711">
        <ele>1987.7</ele>
        <time>2020-08-07T15:12:15Z</time>
      </trkpt>
      <trkpt lat="45.65153" lon="6.85702">
        <ele>1987.2</ele>
        <time>2020-08-07T15:12:16Z</time>
      </trkpt>
      <trkpt lat="45.65141" lon="6.85694">
        <ele>1986.8</ele>
        <time>2020-08-07T15:12:17Z</time>
      </trkpt>
      <trkpt lat="45.65116" lon="6.85678">
        <ele>1986.1</ele>
        <time>2020-08-07T15:12:19Z</time>
      </trkpt>
      <trkpt lat="45.65091" lon="6.85662">
        <ele>1986.2</ele>
        <time>2020-08-07T15:12:21Z</time>
      </trkpt>
      <trkpt lat="45.65079" lon="6.85655">
        <ele>1986.2</ele>
        <time>2020-08-07T15:12:22Z</time>
      </trkpt>
      <trkpt lat="45.65057" lon="6.8564">
        <ele>1985.8</ele>
        <time>2020-08-07T15:12:24Z</time>
      </trkpt>
      <trkpt lat="45.6504" lon="6.85615">
        <ele>1985.1</ele>
        <time>2020-08-07T15:12:26Z</time>
      </trkpt>
      <trkpt lat="45.65034" lon="6.85601">
        <ele>1984.5</ele>
        <time>2020-08-07T15:12:27Z</time>
      </trkpt>
      <trkpt lat="45.65022" lon="6.85571">
        <ele>1983.5</ele>
        <time>2020-08-07T15:12:29Z</time>
      </trkpt>
      <trkpt lat="45.65015" lon="6.85557">
        <ele>1982.8</ele>
        <time>2020-08-07T15:12:30Z</time>
      </trkpt>
      <trkpt lat="45.64998" lon="6.8553">
        <ele>1981.1</ele>
        <time>2020-08-07T15:12:32Z</time>
      </trkpt>
      <trkpt lat="45.64981" lon="6.85502">
        <ele>1979.6</ele>
        <time>2020-08-07T15:12:34Z</time>
      </trkpt>
      <trkpt lat="45.64974" lon="6.85486">
        <ele>1978.9</ele>
        <time>2020-08-07T15:12:35Z</time>
      </trkpt>
      <trkpt lat="45.64964" lon="6.85449">
        <ele>1977</ele>
        <time>2020-08-07T15:12:37Z</time>
      </trkpt>
      <trkpt lat="45.64961" lon="6.85429">
        <ele>1976.1</ele>
        <time>2020-08-07T15:12:38Z</time>
      </trkpt>
      <trkpt lat="45.64949" lon="6.85392">
        <ele>1974.2</ele>
        <time>2020-08-07T15:12:40Z</time>
      </trkpt>
      <trkpt lat="45.64933" lon="6.85359">
        <ele>1972.3</ele>
        <time>2020-08-07T15:12:42Z</time>
      </trkpt>
      <trkpt lat="45.64926" lon="6.85341">
        <ele>1971.4</ele>
        <time>2020-08-07T15:12:43Z</time>
      </trkpt>
      <trkpt lat="45.64918" lon="6.85324">
        <ele>1970.6</ele>
        <time>2020-08-07T15:12:44Z</time>
      </trkpt>
      <trkpt lat="45.649" lon="6.85294">
        <ele>1969.2</ele>
        <time>2020-08-07T15:12:46Z</time>
      </trkpt>
      <trkpt lat="45.64888" lon="6.85282">
        <ele>1968.8</ele>
        <time>2020-08-07T15:12:47Z</time>
      </trkpt>
      <trkpt lat="45.64875" lon="6.85274">
        <ele>1968.4</ele>
        <time>2020-08-07T15:12:48Z</time>
      </trkpt>
      <trkpt lat="45.64849" lon="6.85261">
        <ele>1967.7</ele>
        <time>2020-08-07T15:12:50Z</time>
      </trkpt>
      <trkpt lat="45.64823" lon="6.85249">
        <ele>1967</ele>
        <time>2020-08-07T15:12:52Z</time>
      </trkpt>
      <trkpt lat="45.6481" lon="6.85242">
        <ele>1966.7</ele>
        <time>2020-08-07T15:12:53Z</time>
      </trkpt>
      <trkpt lat="45.64784" lon="6.85227">
        <ele>1966</ele>
        <time>2020-08-07T15:12:55Z</time>
      </trkpt>
      <trkpt lat="45.64758" lon="6.85215">
        <ele>1965.3</ele>
        <time>2020-08-07T15:12:57Z</time>
      </trkpt>
      <trkpt lat="45.64744" lon="6.85212">
        <ele>1964.8</ele>
        <time>2020-08-07T15:12:58Z</time>
      </trkpt>
      <trkpt lat="45.64717" lon="6.85206">
        <ele>1963.6</ele>
        <time>2020-08-07T15:13:00Z</time>
      </trkpt>
      <trkpt lat="45.64695" lon="6.85182">
        <ele>1961.9</ele>
        <time>2020-08-07T15:13:02Z</time>
      </trkpt>
      <trkpt lat="45.64686" lon="6.85166">
        <ele>1961</ele>
        <time>2020-08-07T15:13:03Z</time>
      </trkpt>
      <trkpt lat="45.64677" lon="6.85151">
        <ele>1960.1</ele>
        <time>2020-08-07T15:13:04Z</time>
      </trkpt>
      <trkpt lat="45.64667" lon="6.85136">
        <ele>1959.5</ele>
        <time>2020-08-07T15:13:05Z</time>
      </trkpt>
      <trkpt lat="45.64647" lon="6.85107">
        <ele>1958</ele>
        <time>2020-08-07T15:13:07Z</time>
      </trkpt>
      <trkpt lat="45.64626" lon="6.85079">
        <ele>1956.5</ele>
        <time>2020-08-07T15:13:09Z</time>
      </trkpt>
      <trkpt lat="45.64615" lon="6.85065">
        <ele>1955.8</ele>
        <time>2020-08-07T15:13:10Z</time>
      </trkpt>
      <trkpt lat="45.64593" lon="6.85038">
        <ele>1954.6</ele>
        <time>2020-08-07T15:13:12Z</time>
      </trkpt>
      <trkpt lat="45.64571" lon="6.8501">
        <ele>1953.7</ele>
        <time>2020-08-07T15:13:14Z</time>
      </trkpt>
      <trkpt lat="45.64554" lon="6.84976">
        <ele>1952.3</ele>
        <time>2020-08-07T15:13:16Z</time>
      </trkpt>
      <trkpt lat="45.64536" lon="6.84945">
        <ele>1950.7</ele>
        <time>2020-08-07T15:13:18Z</time>
      </trkpt>
      <trkpt lat="45.64513" lon="6.84921">
        <ele>1949.4</ele>
        <time>2020-08-07T15:13:20Z</time>
      </trkpt>
      <trkpt lat="45.64502" lon="6.84907">
        <ele>1948.7</ele>
        <time>2020-08-07T15:13:21Z</time>
      </trkpt>
      <trkpt lat="45.64492" lon="6.84892">
        <ele>1948.1</ele>
        <time>2020-08-07T15:13:22Z</time>
      </trkpt>
      <trkpt lat="45.64477" lon="6.84859">
        <ele>1946.8</ele>
        <time>2020-08-07T15:13:24Z</time>
      </trkpt>
      <trkpt lat="45.6446" lon="6.84826">
        <ele>1945.5</ele>
        <time>2020-08-07T15:13:26Z</time>
      </trkpt>
      <trkpt lat="45.6445" lon="6.84811">
        <ele>1944.9</ele>
        <time>2020-08-07T15:13:27Z</time>
      </trkpt>
      <trkpt lat="45.64427" lon="6.84786">
        <ele>1943.5</ele>
        <time>2020-08-07T15:13:29Z</time>
      </trkpt>
      <trkpt lat="45.644" lon="6.84771">
        <ele>1942.2</ele>
        <time>2020-08-07T15:13:31Z</time>
      </trkpt>
      <trkpt lat="45.64372" lon="6.84762">
        <ele>1940.7</ele>
        <time>2020-08-07T15:13:33Z</time>
      </trkpt>
      <trkpt lat="45.64348" lon="6.84739">
        <ele>1938.7</ele>
        <time>2020-08-07T15:13:35Z</time>
      </trkpt>
      <trkpt lat="45.64335" lon="6.84725">
        <ele>1937.7</ele>
        <time>2020-08-07T15:13:36Z</time>
      </trkpt>
      <trkpt lat="45.64311" lon="6.84695">
        <ele>1935.8</ele>
        <time>2020-08-07T15:13:38Z</time>
      </trkpt>
      <trkpt lat="45.64291" lon="6.8466">
        <ele>1934.3</ele>
        <time>2020-08-07T15:13:40Z</time>
      </trkpt>
      <trkpt lat="45.6428" lon="6.84642">
        <ele>1933.8</ele>
        <time>2020-08-07T15:13:41Z</time>
      </trkpt>
      <trkpt lat="45.6427" lon="6.84624">
        <ele>1933.2</ele>
        <time>2020-08-07T15:13:42Z</time>
      </trkpt>
      <trkpt lat="45.64247" lon="6.84591">
        <ele>1932.5</ele>
        <time>2020-08-07T15:13:44Z</time>
      </trkpt>
      <trkpt lat="45.64236" lon="6.84576">
        <ele>1932.2</ele>
        <time>2020-08-07T15:13:45Z</time>
      </trkpt>
      <trkpt lat="45.64216" lon="6.84545">
        <ele>1931.3</ele>
        <time>2020-08-07T15:13:47Z</time>
      </trkpt>
      <trkpt lat="45.64208" lon="6.84528">
        <ele>1930.8</ele>
        <time>2020-08-07T15:13:48Z</time>
      </trkpt>
      <trkpt lat="45.64201" lon="6.84509">
        <ele>1930.2</ele>
        <time>2020-08-07T15:13:49Z</time>
      </trkpt>
      <trkpt lat="45.64191" lon="6.84475">
        <ele>1928.9</ele>
        <time>2020-08-07T15:13:51Z</time>
      </trkpt>
      <trkpt lat="45.64183" lon="6.84447">
        <ele>1927.8</ele>
        <time>2020-08-07T15:13:53Z</time>
      </trkpt>
      <trkpt lat="45.64178" lon="6.84437">
        <ele>1927.4</ele>
        <time>2020-08-07T15:13:54Z</time>
      </trkpt>
      <trkpt lat="45.64163" lon="6.84428">
        <ele>1926.4</ele>
        <time>2020-08-07T15:13:56Z</time>
      </trkpt>
      <trkpt lat="45.64154" lon="6.8443">
        <ele>1925.9</ele>
        <time>2020-08-07T15:13:57Z</time>
      </trkpt>
      <trkpt lat="45.64145" lon="6.84435">
        <ele>1925.3</ele>
        <time>2020-08-07T15:13:58Z</time>
      </trkpt>
      <trkpt lat="45.64126" lon="6.84449">
        <ele>1924.1</ele>
        <time>2020-08-07T15:14:00Z</time>
      </trkpt>
      <trkpt lat="45.64106" lon="6.84467">
        <ele>1922.7</ele>
        <time>2020-08-07T15:14:02Z</time>
      </trkpt>
      <trkpt lat="45.64096" lon="6.84477">
        <ele>1922</ele>
        <time>2020-08-07T15:14:03Z</time>
      </trkpt>
      <trkpt lat="45.64075" lon="6.84498">
        <ele>1920.6</ele>
        <time>2020-08-07T15:14:05Z</time>
      </trkpt>
      <trkpt lat="45.64052" lon="6.84517">
        <ele>1919.6</ele>
        <time>2020-08-07T15:14:07Z</time>
      </trkpt>
      <trkpt lat="45.6404" lon="6.84524">
        <ele>1919</ele>
        <time>2020-08-07T15:14:08Z</time>
      </trkpt>
      <trkpt lat="45.64027" lon="6.84532">
        <ele>1918.4</ele>
        <time>2020-08-07T15:14:09Z</time>
      </trkpt>
      <trkpt lat="45.64014" lon="6.84541">
        <ele>1917.8</ele>
        <time>2020-08-07T15:14:10Z</time>
      </trkpt>
      <trkpt lat="45.63989" lon="6.84562">
        <ele>1916.4</ele>
        <time>2020-08-07T15:14:12Z</time>
      </trkpt>
      <trkpt lat="45.63964" lon="6.84586">
        <ele>1915.2</ele>
        <time>2020-08-07T15:14:14Z</time>
      </trkpt>
      <trkpt lat="45.63953" lon="6.846">
        <ele>1914.7</ele>
        <time>2020-08-07T15:14:15Z</time>
      </trkpt>
      <trkpt lat="45.63935" lon="6.84629">
        <ele>1913.8</ele>
        <time>2020-08-07T15:14:17Z</time>
      </trkpt>
      <trkpt lat="45.63923" lon="6.84639">
        <ele>1913.4</ele>
        <time>2020-08-07T15:14:18Z</time>
      </trkpt>
      <trkpt lat="45.639" lon="6.84648">
        <ele>1912.4</ele>
        <time>2020-08-07T15:14:20Z</time>
      </trkpt>
      <trkpt lat="45.63878" lon="6.84656">
        <ele>1911.4</ele>
        <time>2020-08-07T15:14:22Z</time>
      </trkpt>
      <trkpt lat="45.63857" lon="6.84664">
        <ele>1910.5</ele>
        <time>2020-08-07T15:14:24Z</time>
      </trkpt>
      <trkpt lat="45.63847" lon="6.84665">
        <ele>1910.2</ele>
        <time>2020-08-07T15:14:25Z</time>
      </trkpt>
      <trkpt lat="45.63827" lon="6.84664">
        <ele>1909.6</ele>
        <time>2020-08-07T15:14:27Z</time>
      </trkpt>
      <trkpt lat="45.63816" lon="6.84664">
        <ele>1909.1</ele>
        <time>2020-08-07T15:14:28Z</time>
      </trkpt>
      <trkpt lat="45.63796" lon="6.84671">
        <ele>1908.1</ele>
        <time>2020-08-07T15:14:30Z</time>
      </trkpt>
      <trkpt lat="45.63786" lon="6.84677">
        <ele>1907.6</ele>
        <time>2020-08-07T15:14:31Z</time>
      </trkpt>
      <trkpt lat="45.63778" lon="6.84685">
        <ele>1907.2</ele>
        <time>2020-08-07T15:14:32Z</time>
      </trkpt>
      <trkpt lat="45.63772" lon="6.84694">
        <ele>1906.9</ele>
        <time>2020-08-07T15:14:33Z</time>
      </trkpt>
      <trkpt lat="45.63765" lon="6.84719">
        <ele>1906</ele>
        <time>2020-08-07T15:14:35Z</time>
      </trkpt>
      <trkpt lat="45.63764" lon="6.84747">
        <ele>1905.1</ele>
        <time>2020-08-07T15:14:37Z</time>
      </trkpt>
      <trkpt lat="45.63763" lon="6.84779">
        <ele>1903.9</ele>
        <time>2020-08-07T15:14:39Z</time>
      </trkpt>
      <trkpt lat="45.63759" lon="6.84814">
        <ele>1902.7</ele>
        <time>2020-08-07T15:14:41Z</time>
      </trkpt>
      <trkpt lat="45.63755" lon="6.84832">
        <ele>1902.1</ele>
        <time>2020-08-07T15:14:42Z</time>
      </trkpt>
      <trkpt lat="45.63748" lon="6.84849">
        <ele>1901.6</ele>
        <time>2020-08-07T15:14:43Z</time>
      </trkpt>
      <trkpt lat="45.63739" lon="6.84865">
        <ele>1901</ele>
        <time>2020-08-07T15:14:44Z</time>
      </trkpt>
      <trkpt lat="45.63721" lon="6.84895">
        <ele>1899.5</ele>
        <time>2020-08-07T15:14:46Z</time>
      </trkpt>
      <trkpt lat="45.63713" lon="6.84911">
        <ele>1898.8</ele>
        <time>2020-08-07T15:14:47Z</time>
      </trkpt>
      <trkpt lat="45.63694" lon="6.8494">
        <ele>1897.5</ele>
        <time>2020-08-07T15:14:49Z</time>
      </trkpt>
      <trkpt lat="45.6367" lon="6.84962">
        <ele>1896.4</ele>
        <time>2020-08-07T15:14:51Z</time>
      </trkpt>
      <trkpt lat="45.63658" lon="6.84973">
        <ele>1895.9</ele>
        <time>2020-08-07T15:14:52Z</time>
      </trkpt>
      <trkpt lat="45.63636" lon="6.84998">
        <ele>1894.9</ele>
        <time>2020-08-07T15:14:54Z</time>
      </trkpt>
      <trkpt lat="45.63625" lon="6.85012">
        <ele>1894.4</ele>
        <time>2020-08-07T15:14:55Z</time>
      </trkpt>
      <trkpt lat="45.63615" lon="6.85025">
        <ele>1893.8</ele>
        <time>2020-08-07T15:14:56Z</time>
      </trkpt>
      <trkpt lat="45.63594" lon="6.85045">
        <ele>1893</ele>
        <time>2020-08-07T15:14:58Z</time>
      </trkpt>
      <trkpt lat="45.63582" lon="6.85048">
        <ele>1892.5</ele>
        <time>2020-08-07T15:14:59Z</time>
      </trkpt>
      <trkpt lat="45.63557" lon="6.85034">
        <ele>1891.3</ele>
        <time>2020-08-07T15:15:01Z</time>
      </trkpt>
      <trkpt lat="45.63532" lon="6.8502">
        <ele>1890.1</ele>
        <time>2020-08-07T15:15:03Z</time>
      </trkpt>
      <trkpt lat="45.63505" lon="6.85013">
        <ele>1888.8</ele>
        <time>2020-08-07T15:15:05Z</time>
      </trkpt>
      <trkpt lat="45.63492" lon="6.85005">
        <ele>1888.1</ele>
        <time>2020-08-07T15:15:06Z</time>
      </trkpt>
      <trkpt lat="45.63482" lon="6.84993">
        <ele>1887.4</ele>
        <time>2020-08-07T15:15:07Z</time>
      </trkpt>
      <trkpt lat="45.63466" lon="6.84961">
        <ele>1885.9</ele>
        <time>2020-08-07T15:15:09Z</time>
      </trkpt>
      <trkpt lat="45.63451" lon="6.8493">
        <ele>1884.3</ele>
        <time>2020-08-07T15:15:11Z</time>
      </trkpt>
      <trkpt lat="45.63441" lon="6.84919">
        <ele>1883.5</ele>
        <time>2020-08-07T15:15:12Z</time>
      </trkpt>
      <trkpt lat="45.63415" lon="6.84908">
        <ele>1881.9</ele>
        <time>2020-08-07T15:15:14Z</time>
      </trkpt>
      <trkpt lat="45.63387" lon="6.84905">
        <ele>1880.4</ele>
        <time>2020-08-07T15:15:16Z</time>
      </trkpt>
      <trkpt lat="45.63359" lon="6.84902">
        <ele>1878.9</ele>
        <time>2020-08-07T15:15:18Z</time>
      </trkpt>
      <trkpt lat="45.6333" lon="6.84901">
        <ele>1877.3</ele>
        <time>2020-08-07T15:15:20Z</time>
      </trkpt>
      <trkpt lat="45.63301" lon="6.84904">
        <ele>1875.8</ele>
        <time>2020-08-07T15:15:22Z</time>
      </trkpt>
      <trkpt lat="45.63274" lon="6.84899">
        <ele>1874.3</ele>
        <time>2020-08-07T15:15:24Z</time>
      </trkpt>
      <trkpt lat="45.63261" lon="6.84894">
        <ele>1873.6</ele>
        <time>2020-08-07T15:15:25Z</time>
      </trkpt>
      <trkpt lat="45.63236" lon="6.84876">
        <ele>1872</ele>
        <time>2020-08-07T15:15:27Z</time>
      </trkpt>
      <trkpt lat="45.63225" lon="6.84863">
        <ele>1871.2</ele>
        <time>2020-08-07T15:15:28Z</time>
      </trkpt>
      <trkpt lat="45.63215" lon="6.84849">
        <ele>1870.3</ele>
        <time>2020-08-07T15:15:29Z</time>
      </trkpt>
      <trkpt lat="45.63205" lon="6.84834">
        <ele>1869.5</ele>
        <time>2020-08-07T15:15:30Z</time>
      </trkpt>
      <trkpt lat="45.63195" lon="6.84819">
        <ele>1868.7</ele>
        <time>2020-08-07T15:15:31Z</time>
      </trkpt>
      <trkpt lat="45.63172" lon="6.84793">
        <ele>1867.2</ele>
        <time>2020-08-07T15:15:33Z</time>
      </trkpt>
      <trkpt lat="45.6316" lon="6.84783">
        <ele>1866.4</ele>
        <time>2020-08-07T15:15:34Z</time>
      </trkpt>
      <trkpt lat="45.63133" lon="6.84765">
        <ele>1864.9</ele>
        <time>2020-08-07T15:15:36Z</time>
      </trkpt>
      <trkpt lat="45.6311" lon="6.84739">
        <ele>1863.5</ele>
        <time>2020-08-07T15:15:38Z</time>
      </trkpt>
      <trkpt lat="45.63087" lon="6.84717">
        <ele>1862.1</ele>
        <time>2020-08-07T15:15:40Z</time>
      </trkpt>
      <trkpt lat="45.63073" lon="6.84709">
        <ele>1861.4</ele>
        <time>2020-08-07T15:15:41Z</time>
      </trkpt>
      <trkpt lat="45.6306" lon="6.84701">
        <ele>1860.7</ele>
        <time>2020-08-07T15:15:42Z</time>
      </trkpt>
      <trkpt lat="45.6304" lon="6.84679">
        <ele>1859.4</ele>
        <time>2020-08-07T15:15:44Z</time>
      </trkpt>
      <trkpt lat="45.63025" lon="6.84659">
        <ele>1858.4</ele>
        <time>2020-08-07T15:15:46Z</time>
      </trkpt>
      <trkpt lat="45.63016" lon="6.84656">
        <ele>1857.9</ele>
        <time>2020-08-07T15:15:47Z</time>
      </trkpt>
      <trkpt lat="45.63007" lon="6.8466">
        <ele>1857.3</ele>
        <time>2020-08-07T15:15:48Z</time>
      </trkpt>
      <trkpt lat="45.62991" lon="6.84679">
        <ele>1856.6</ele>
        <time>2020-08-07T15:15:50Z</time>
      </trkpt>
      <trkpt lat="45.62985" lon="6.8469">
        <ele>1856.5</ele>
        <time>2020-08-07T15:15:51Z</time>
      </trkpt>
      <trkpt lat="45.6297" lon="6.8471">
        <ele>1856.4</ele>
        <time>2020-08-07T15:15:53Z</time>
      </trkpt>
      <trkpt lat="45.62954" lon="6.84726">
        <ele>1855.7</ele>
        <time>2020-08-07T15:15:55Z</time>
      </trkpt>
      <trkpt lat="45.62942" lon="6.8474">
        <ele>1855.1</ele>
        <time>2020-08-07T15:15:57Z</time>
      </trkpt>
      <trkpt lat="45.62937" lon="6.84747">
        <ele>1854.7</ele>
        <time>2020-08-07T15:15:58Z</time>
      </trkpt>
      <trkpt lat="45.62931" lon="6.84754">
        <ele>1854.4</ele>
        <time>2020-08-07T15:15:59Z</time>
      </trkpt>
      <trkpt lat="45.62925" lon="6.84761">
        <ele>1854.1</ele>
        <time>2020-08-07T15:16:00Z</time>
      </trkpt>
      <trkpt lat="45.62914" lon="6.84775">
        <ele>1853.5</ele>
        <time>2020-08-07T15:16:02Z</time>
      </trkpt>
      <trkpt lat="45.62908" lon="6.84782">
        <ele>1853.3</ele>
        <time>2020-08-07T15:16:03Z</time>
      </trkpt>
      <trkpt lat="45.62902" lon="6.84788">
        <ele>1853.1</ele>
        <time>2020-08-07T15:16:04Z</time>
      </trkpt>
      <trkpt lat="45.6289" lon="6.848">
        <ele>1852.5</ele>
        <time>2020-08-07T15:16:06Z</time>
      </trkpt>
      <trkpt lat="45.62884" lon="6.84805">
        <ele>1852.2</ele>
        <time>2020-08-07T15:16:07Z</time>
      </trkpt>
      <trkpt lat="45.62869" lon="6.84813">
        <ele>1851.5</ele>
        <time>2020-08-07T15:16:09Z</time>
      </trkpt>
      <trkpt lat="45.62853" lon="6.84821">
        <ele>1850.8</ele>
        <time>2020-08-07T15:16:11Z</time>
      </trkpt>
      <trkpt lat="45.62837" lon="6.84828">
        <ele>1850</ele>
        <time>2020-08-07T15:16:13Z</time>
      </trkpt>
      <trkpt lat="45.62829" lon="6.84832">
        <ele>1849.6</ele>
        <time>2020-08-07T15:16:14Z</time>
      </trkpt>
      <trkpt lat="45.6282" lon="6.84837">
        <ele>1849.2</ele>
        <time>2020-08-07T15:16:15Z</time>
      </trkpt>
      <trkpt lat="45.62811" lon="6.84841">
        <ele>1848.9</ele>
        <time>2020-08-07T15:16:16Z</time>
      </trkpt>
      <trkpt lat="45.62796" lon="6.84851">
        <ele>1848.3</ele>
        <time>2020-08-07T15:16:18Z</time>
      </trkpt>
      <trkpt lat="45.62781" lon="6.84862">
        <ele>1847.7</ele>
        <time>2020-08-07T15:16:20Z</time>
      </trkpt>
      <trkpt lat="45.62774" lon="6.84868">
        <ele>1847.4</ele>
        <time>2020-08-07T15:16:21Z</time>
      </trkpt>
      <trkpt lat="45.62767" lon="6.84876">
        <ele>1847.1</ele>
        <time>2020-08-07T15:16:22Z</time>
      </trkpt>
      <trkpt lat="45.62756" lon="6.84896">
        <ele>1846.6</ele>
        <time>2020-08-07T15:16:24Z</time>
      </trkpt>
      <trkpt lat="45.62747" lon="6.84918">
        <ele>1846.1</ele>
        <time>2020-08-07T15:16:26Z</time>
      </trkpt>
      <trkpt lat="45.62741" lon="6.8493">
        <ele>1845.9</ele>
        <time>2020-08-07T15:16:27Z</time>
      </trkpt>
      <trkpt lat="45.62735" lon="6.8494">
        <ele>1845.6</ele>
        <time>2020-08-07T15:16:28Z</time>
      </trkpt>
      <trkpt lat="45.62724" lon="6.84952">
        <ele>1844.9</ele>
        <time>2020-08-07T15:16:30Z</time>
      </trkpt>
      <trkpt lat="45.62714" lon="6.84961">
        <ele>1844.4</ele>
        <time>2020-08-07T15:16:32Z</time>
      </trkpt>
      <trkpt lat="45.62703" lon="6.8497">
        <ele>1843.9</ele>
        <time>2020-08-07T15:16:34Z</time>
      </trkpt>
      <trkpt lat="45.62698" lon="6.84975">
        <ele>1843.7</ele>
        <time>2020-08-07T15:16:35Z</time>
      </trkpt>
      <trkpt lat="45.62692" lon="6.84982">
        <ele>1843.4</ele>
        <time>2020-08-07T15:16:36Z</time>
      </trkpt>
      <trkpt lat="45.62686" lon="6.8499">
        <ele>1843.1</ele>
        <time>2020-08-07T15:16:37Z</time>
      </trkpt>
      <trkpt lat="45.62677" lon="6.85011">
        <ele>1842.5</ele>
        <time>2020-08-07T15:16:39Z</time>
      </trkpt>
      <trkpt lat="45.6267" lon="6.85035">
        <ele>1841.7</ele>
        <time>2020-08-07T15:16:41Z</time>
      </trkpt>
      <trkpt lat="45.6266" lon="6.85057">
        <ele>1841.1</ele>
        <time>2020-08-07T15:16:43Z</time>
      </trkpt>
      <trkpt lat="45.62654" lon="6.85066">
        <ele>1840.8</ele>
        <time>2020-08-07T15:16:44Z</time>
      </trkpt>
      <trkpt lat="45.62642" lon="6.8508">
        <ele>1840.4</ele>
        <time>2020-08-07T15:16:46Z</time>
      </trkpt>
      <trkpt lat="45.62636" lon="6.85087">
        <ele>1840.2</ele>
        <time>2020-08-07T15:16:47Z</time>
      </trkpt>
      <trkpt lat="45.6263" lon="6.85094">
        <ele>1840</ele>
        <time>2020-08-07T15:16:48Z</time>
      </trkpt>
      <trkpt lat="45.62619" lon="6.85108">
        <ele>1839.6</ele>
        <time>2020-08-07T15:16:50Z</time>
      </trkpt>
      <trkpt lat="45.6261" lon="6.85124">
        <ele>1839.1</ele>
        <time>2020-08-07T15:16:52Z</time>
      </trkpt>
      <trkpt lat="45.62602" lon="6.85144">
        <ele>1838.5</ele>
        <time>2020-08-07T15:16:54Z</time>
      </trkpt>
      <trkpt lat="45.62599" lon="6.85154">
        <ele>1838.2</ele>
        <time>2020-08-07T15:16:55Z</time>
      </trkpt>
      <trkpt lat="45.62593" lon="6.85175">
        <ele>1837.6</ele>
        <time>2020-08-07T15:16:57Z</time>
      </trkpt>
      <trkpt lat="45.6259" lon="6.85186">
        <ele>1837.2</ele>
        <time>2020-08-07T15:16:58Z</time>
      </trkpt>
      <trkpt lat="45.62585" lon="6.85208">
        <ele>1836.6</ele>
        <time>2020-08-07T15:17:00Z</time>
      </trkpt>
      <trkpt lat="45.6258" lon="6.85232">
        <ele>1835.8</ele>
        <time>2020-08-07T15:17:02Z</time>
      </trkpt>
      <trkpt lat="45.62578" lon="6.85246">
        <ele>1835.4</ele>
        <time>2020-08-07T15:17:03Z</time>
      </trkpt>
      <trkpt lat="45.62576" lon="6.85274">
        <ele>1834.5</ele>
        <time>2020-08-07T15:17:05Z</time>
      </trkpt>
      <trkpt lat="45.62575" lon="6.85289">
        <ele>1834</ele>
        <time>2020-08-07T15:17:06Z</time>
      </trkpt>
      <trkpt lat="45.62574" lon="6.85304">
        <ele>1833.6</ele>
        <time>2020-08-07T15:17:07Z</time>
      </trkpt>
      <trkpt lat="45.62573" lon="6.85319">
        <ele>1833.1</ele>
        <time>2020-08-07T15:17:08Z</time>
      </trkpt>
      <trkpt lat="45.62573" lon="6.85333">
        <ele>1832.7</ele>
        <time>2020-08-07T15:17:09Z</time>
      </trkpt>
      <trkpt lat="45.62573" lon="6.85348">
        <ele>1832.3</ele>
        <time>2020-08-07T15:17:10Z</time>
      </trkpt>
      <trkpt lat="45.62571" lon="6.85375">
        <ele>1831.6</ele>
        <time>2020-08-07T15:17:12Z</time>
      </trkpt>
      <trkpt lat="45.62569" lon="6.85388">
        <ele>1831.2</ele>
        <time>2020-08-07T15:17:13Z</time>
      </trkpt>
      <trkpt lat="45.62565" lon="6.85416">
        <ele>1830.6</ele>
        <time>2020-08-07T15:17:15Z</time>
      </trkpt>
      <trkpt lat="45.62564" lon="6.85431">
        <ele>1830.3</ele>
        <time>2020-08-07T15:17:16Z</time>
      </trkpt>
      <trkpt lat="45.62562" lon="6.85461">
        <ele>1829.4</ele>
        <time>2020-08-07T15:17:18Z</time>
      </trkpt>
      <trkpt lat="45.62562" lon="6.8549">
        <ele>1828.5</ele>
        <time>2020-08-07T15:17:20Z</time>
      </trkpt>
      <trkpt lat="45.62557" lon="6.85519">
        <ele>1827.6</ele>
        <time>2020-08-07T15:17:22Z</time>
      </trkpt>
      <trkpt lat="45.62551" lon="6.85531">
        <ele>1827.1</ele>
        <time>2020-08-07T15:17:23Z</time>
      </trkpt>
      <trkpt lat="45.62538" lon="6.85554">
        <ele>1826</ele>
        <time>2020-08-07T15:17:25Z</time>
      </trkpt>
      <trkpt lat="45.62526" lon="6.85578">
        <ele>1824.7</ele>
        <time>2020-08-07T15:17:27Z</time>
      </trkpt>
      <trkpt lat="45.62517" lon="6.85603">
        <ele>1823.3</ele>
        <time>2020-08-07T15:17:29Z</time>
      </trkpt>
      <trkpt lat="45.62507" lon="6.85628">
        <ele>1822.1</ele>
        <time>2020-08-07T15:17:31Z</time>
      </trkpt>
      <trkpt lat="45.62503" lon="6.8564">
        <ele>1821.5</ele>
        <time>2020-08-07T15:17:32Z</time>
      </trkpt>
      <trkpt lat="45.62494" lon="6.85659">
        <ele>1820.5</ele>
        <time>2020-08-07T15:17:34Z</time>
      </trkpt>
      <trkpt lat="45.62483" lon="6.8568">
        <ele>1819.2</ele>
        <time>2020-08-07T15:17:36Z</time>
      </trkpt>
      <trkpt lat="45.6247" lon="6.85697">
        <ele>1818.2</ele>
        <time>2020-08-07T15:17:38Z</time>
      </trkpt>
      <trkpt lat="45.62458" lon="6.8571">
        <ele>1816.8</ele>
        <time>2020-08-07T15:17:40Z</time>
      </trkpt>
      <trkpt lat="45.62444" lon="6.85723">
        <ele>1815.1</ele>
        <time>2020-08-07T15:17:42Z</time>
      </trkpt>
      <trkpt lat="45.62432" lon="6.85739">
        <ele>1814.2</ele>
        <time>2020-08-07T15:17:44Z</time>
      </trkpt>
      <trkpt lat="45.62422" lon="6.85755">
        <ele>1813.5</ele>
        <time>2020-08-07T15:17:46Z</time>
      </trkpt>
      <trkpt lat="45.62418" lon="6.85764">
        <ele>1813.1</ele>
        <time>2020-08-07T15:17:47Z</time>
      </trkpt>
      <trkpt lat="45.62415" lon="6.85772">
        <ele>1812.8</ele>
        <time>2020-08-07T15:17:48Z</time>
      </trkpt>
      <trkpt lat="45.62408" lon="6.85787">
        <ele>1812.2</ele>
        <time>2020-08-07T15:17:50Z</time>
      </trkpt>
      <trkpt lat="45.62403" lon="6.85794">
        <ele>1811.4</ele>
        <time>2020-08-07T15:17:51Z</time>
      </trkpt>
      <trkpt lat="45.62396" lon="6.85814">
        <ele>1811.1</ele>
        <time>2020-08-07T15:17:53Z</time>
      </trkpt>
      <trkpt lat="45.62395" lon="6.8584">
        <ele>1810.1</ele>
        <time>2020-08-07T15:17:55Z</time>
      </trkpt>
      <trkpt lat="45.62396" lon="6.8587">
        <ele>1809</ele>
        <time>2020-08-07T15:17:57Z</time>
      </trkpt>
      <trkpt lat="45.62396" lon="6.85886">
        <ele>1808.4</ele>
        <time>2020-08-07T15:17:58Z</time>
      </trkpt>
      <trkpt lat="45.62397" lon="6.85903">
        <ele>1807.8</ele>
        <time>2020-08-07T15:17:59Z</time>
      </trkpt>
      <trkpt lat="45.62397" lon="6.8592">
        <ele>1807.2</ele>
        <time>2020-08-07T15:18:00Z</time>
      </trkpt>
      <trkpt lat="45.62397" lon="6.85957">
        <ele>1805.7</ele>
        <time>2020-08-07T15:18:02Z</time>
      </trkpt>
      <trkpt lat="45.62397" lon="6.85977">
        <ele>1804.9</ele>
        <time>2020-08-07T15:18:03Z</time>
      </trkpt>
      <trkpt lat="45.62398" lon="6.85998">
        <ele>1804.1</ele>
        <time>2020-08-07T15:18:04Z</time>
      </trkpt>
      <trkpt lat="45.62399" lon="6.8604">
        <ele>1802.4</ele>
        <time>2020-08-07T15:18:06Z</time>
      </trkpt>
      <trkpt lat="45.624" lon="6.86062">
        <ele>1801.6</ele>
        <time>2020-08-07T15:18:07Z</time>
      </trkpt>
      <trkpt lat="45.62405" lon="6.86108">
        <ele>1799.8</ele>
        <time>2020-08-07T15:18:09Z</time>
      </trkpt>
      <trkpt lat="45.62406" lon="6.86132">
        <ele>1798.8</ele>
        <time>2020-08-07T15:18:10Z</time>
      </trkpt>
      <trkpt lat="45.62408" lon="6.86179">
        <ele>1796.6</ele>
        <time>2020-08-07T15:18:12Z</time>
      </trkpt>
      <trkpt lat="45.6241" lon="6.86202">
        <ele>1795.7</ele>
        <time>2020-08-07T15:18:13Z</time>
      </trkpt>
      <trkpt lat="45.62413" lon="6.86245">
        <ele>1793.9</ele>
        <time>2020-08-07T15:18:15Z</time>
      </trkpt>
      <trkpt lat="45.62413" lon="6.86265">
        <ele>1793.2</ele>
        <time>2020-08-07T15:18:16Z</time>
      </trkpt>
      <trkpt lat="45.62412" lon="6.86285">
        <ele>1792.5</ele>
        <time>2020-08-07T15:18:17Z</time>
      </trkpt>
      <trkpt lat="45.62406" lon="6.86324">
        <ele>1792.5</ele>
        <time>2020-08-07T15:18:19Z</time>
      </trkpt>
      <trkpt lat="45.62401" lon="6.86363">
        <ele>1790.7</ele>
        <time>2020-08-07T15:18:21Z</time>
      </trkpt>
      <trkpt lat="45.62399" lon="6.86399">
        <ele>1788.8</ele>
        <time>2020-08-07T15:18:23Z</time>
      </trkpt>
      <trkpt lat="45.62398" lon="6.86429">
        <ele>1787.5</ele>
        <time>2020-08-07T15:18:25Z</time>
      </trkpt>
      <trkpt lat="45.624" lon="6.86456">
        <ele>1786.5</ele>
        <time>2020-08-07T15:18:27Z</time>
      </trkpt>
      <trkpt lat="45.62411" lon="6.86477">
        <ele>1785.6</ele>
        <time>2020-08-07T15:18:29Z</time>
      </trkpt>
      <trkpt lat="45.62417" lon="6.86486">
        <ele>1785.2</ele>
        <time>2020-08-07T15:18:30Z</time>
      </trkpt>
      <trkpt lat="45.62425" lon="6.86504">
        <ele>1784.5</ele>
        <time>2020-08-07T15:18:32Z</time>
      </trkpt>
      <trkpt lat="45.62419" lon="6.86519">
        <ele>1783.7</ele>
        <time>2020-08-07T15:18:34Z</time>
      </trkpt>
      <trkpt lat="45.62413" lon="6.8652">
        <ele>1783.2</ele>
        <time>2020-08-07T15:18:35Z</time>
      </trkpt>
      <trkpt lat="45.62406" lon="6.86517">
        <ele>1782.7</ele>
        <time>2020-08-07T15:18:36Z</time>
      </trkpt>
      <trkpt lat="45.62401" lon="6.86508">
        <ele>1782.1</ele>
        <time>2020-08-07T15:18:37Z</time>
      </trkpt>
      <trkpt lat="45.62394" lon="6.86487">
        <ele>1781.3</ele>
        <time>2020-08-07T15:18:39Z</time>
      </trkpt>
      <trkpt lat="45.62391" lon="6.86474">
        <ele>1780.8</ele>
        <time>2020-08-07T15:18:40Z</time>
      </trkpt>
      <trkpt lat="45.62384" lon="6.86446">
        <ele>1779.7</ele>
        <time>2020-08-07T15:18:42Z</time>
      </trkpt>
      <trkpt lat="45.62378" lon="6.86412">
        <ele>1778.4</ele>
        <time>2020-08-07T15:18:44Z</time>
      </trkpt>
      <trkpt lat="45.62374" lon="6.86374">
        <ele>1776.7</ele>
        <time>2020-08-07T15:18:46Z</time>
      </trkpt>
      <trkpt lat="45.62369" lon="6.86334">
        <ele>1775.1</ele>
        <time>2020-08-07T15:18:48Z</time>
      </trkpt>
      <trkpt lat="45.62363" lon="6.86293">
        <ele>1773.7</ele>
        <time>2020-08-07T15:18:50Z</time>
      </trkpt>
      <trkpt lat="45.62354" lon="6.86251">
        <ele>1772.3</ele>
        <time>2020-08-07T15:18:52Z</time>
      </trkpt>
      <trkpt lat="45.62349" lon="6.86231">
        <ele>1771.5</ele>
        <time>2020-08-07T15:18:53Z</time>
      </trkpt>
      <trkpt lat="45.6234" lon="6.86189">
        <ele>1770.7</ele>
        <time>2020-08-07T15:18:55Z</time>
      </trkpt>
      <trkpt lat="45.62333" lon="6.86147">
        <ele>1768.9</ele>
        <time>2020-08-07T15:18:57Z</time>
      </trkpt>
      <trkpt lat="45.62329" lon="6.86125">
        <ele>1768</ele>
        <time>2020-08-07T15:18:58Z</time>
      </trkpt>
      <trkpt lat="45.62315" lon="6.86085">
        <ele>1766.4</ele>
        <time>2020-08-07T15:19:00Z</time>
      </trkpt>
      <trkpt lat="45.62297" lon="6.86049">
        <ele>1764.7</ele>
        <time>2020-08-07T15:19:02Z</time>
      </trkpt>
      <trkpt lat="45.62279" lon="6.86013">
        <ele>1763.1</ele>
        <time>2020-08-07T15:19:04Z</time>
      </trkpt>
      <trkpt lat="45.62273" lon="6.85993">
        <ele>1762.4</ele>
        <time>2020-08-07T15:19:05Z</time>
      </trkpt>
      <trkpt lat="45.62269" lon="6.85973">
        <ele>1761.6</ele>
        <time>2020-08-07T15:19:06Z</time>
      </trkpt>
      <trkpt lat="45.62267" lon="6.85952">
        <ele>1760.8</ele>
        <time>2020-08-07T15:19:07Z</time>
      </trkpt>
      <trkpt lat="45.62266" lon="6.85909">
        <ele>1759</ele>
        <time>2020-08-07T15:19:09Z</time>
      </trkpt>
      <trkpt lat="45.62265" lon="6.85888">
        <ele>1758.2</ele>
        <time>2020-08-07T15:19:10Z</time>
      </trkpt>
      <trkpt lat="45.62263" lon="6.85844">
        <ele>1756.7</ele>
        <time>2020-08-07T15:19:12Z</time>
      </trkpt>
      <trkpt lat="45.62261" lon="6.85801">
        <ele>1755.2</ele>
        <time>2020-08-07T15:19:14Z</time>
      </trkpt>
      <trkpt lat="45.62263" lon="6.8578">
        <ele>1754.3</ele>
        <time>2020-08-07T15:19:15Z</time>
      </trkpt>
      <trkpt lat="45.62271" lon="6.85762">
        <ele>1753.3</ele>
        <time>2020-08-07T15:19:16Z</time>
      </trkpt>
      <trkpt lat="45.62288" lon="6.85731">
        <ele>1751.5</ele>
        <time>2020-08-07T15:19:18Z</time>
      </trkpt>
      <trkpt lat="45.62297" lon="6.85692">
        <ele>1749.8</ele>
        <time>2020-08-07T15:19:20Z</time>
      </trkpt>
      <trkpt lat="45.62298" lon="6.85671">
        <ele>1748.9</ele>
        <time>2020-08-07T15:19:21Z</time>
      </trkpt>
      <trkpt lat="45.62301" lon="6.85628">
        <ele>1747.1</ele>
        <time>2020-08-07T15:19:23Z</time>
      </trkpt>
      <trkpt lat="45.62302" lon="6.85607">
        <ele>1746.3</ele>
        <time>2020-08-07T15:19:24Z</time>
      </trkpt>
      <trkpt lat="45.62305" lon="6.85566">
        <ele>1744.4</ele>
        <time>2020-08-07T15:19:26Z</time>
      </trkpt>
      <trkpt lat="45.62305" lon="6.85524">
        <ele>1741.3</ele>
        <time>2020-08-07T15:19:28Z</time>
      </trkpt>
      <trkpt lat="45.62302" lon="6.85481">
        <ele>1739.3</ele>
        <time>2020-08-07T15:19:30Z</time>
      </trkpt>
      <trkpt lat="45.62297" lon="6.8544">
        <ele>1737.7</ele>
        <time>2020-08-07T15:19:32Z</time>
      </trkpt>
      <trkpt lat="45.6229" lon="6.85399">
        <ele>1736.2</ele>
        <time>2020-08-07T15:19:34Z</time>
      </trkpt>
      <trkpt lat="45.62288" lon="6.85378">
        <ele>1735.6</ele>
        <time>2020-08-07T15:19:35Z</time>
      </trkpt>
      <trkpt lat="45.62284" lon="6.85339">
        <ele>1734.8</ele>
        <time>2020-08-07T15:19:37Z</time>
      </trkpt>
      <trkpt lat="45.62285" lon="6.85319">
        <ele>1734.4</ele>
        <time>2020-08-07T15:19:38Z</time>
      </trkpt>
      <trkpt lat="45.62288" lon="6.853">
        <ele>1734</ele>
        <time>2020-08-07T15:19:39Z</time>
      </trkpt>
      <trkpt lat="45.62294" lon="6.85263">
        <ele>1733.4</ele>
        <time>2020-08-07T15:19:41Z</time>
      </trkpt>
      <trkpt lat="45.62297" lon="6.85245">
        <ele>1733.2</ele>
        <time>2020-08-07T15:19:42Z</time>
      </trkpt>
      <trkpt lat="45.62306" lon="6.8521">
        <ele>1732.7</ele>
        <time>2020-08-07T15:19:44Z</time>
      </trkpt>
      <trkpt lat="45.62316" lon="6.85177">
        <ele>1732.6</ele>
        <time>2020-08-07T15:19:46Z</time>
      </trkpt>
      <trkpt lat="45.6232" lon="6.85161">
        <ele>1732.5</ele>
        <time>2020-08-07T15:19:47Z</time>
      </trkpt>
      <trkpt lat="45.62324" lon="6.85146">
        <ele>1732.3</ele>
        <time>2020-08-07T15:19:48Z</time>
      </trkpt>
      <trkpt lat="45.62328" lon="6.8513">
        <ele>1732.1</ele>
        <time>2020-08-07T15:19:49Z</time>
      </trkpt>
      <trkpt lat="45.62334" lon="6.85102">
        <ele>1731.5</ele>
        <time>2020-08-07T15:19:51Z</time>
      </trkpt>
      <trkpt lat="45.62337" lon="6.8509">
        <ele>1731.3</ele>
        <time>2020-08-07T15:19:52Z</time>
      </trkpt>
      <trkpt lat="45.62337" lon="6.85081">
        <ele>1731.1</ele>
        <time>2020-08-07T15:19:53Z</time>
      </trkpt>
      <trkpt lat="45.62332" lon="6.85072">
        <ele>1730.8</ele>
        <time>2020-08-07T15:19:54Z</time>
      </trkpt>
      <trkpt lat="45.62317" lon="6.85078">
        <ele>1730.1</ele>
        <time>2020-08-07T15:19:56Z</time>
      </trkpt>
      <trkpt lat="45.62309" lon="6.85103">
        <ele>1729.1</ele>
        <time>2020-08-07T15:19:58Z</time>
      </trkpt>
      <trkpt lat="45.62307" lon="6.85117">
        <ele>1728.6</ele>
        <time>2020-08-07T15:19:59Z</time>
      </trkpt>
      <trkpt lat="45.62304" lon="6.85147">
        <ele>1727.5</ele>
        <time>2020-08-07T15:20:01Z</time>
      </trkpt>
      <trkpt lat="45.62301" lon="6.85163">
        <ele>1726.9</ele>
        <time>2020-08-07T15:20:02Z</time>
      </trkpt>
      <trkpt lat="45.62297" lon="6.85178">
        <ele>1726.2</ele>
        <time>2020-08-07T15:20:03Z</time>
      </trkpt>
      <trkpt lat="45.62286" lon="6.85209">
        <ele>1724.9</ele>
        <time>2020-08-07T15:20:05Z</time>
      </trkpt>
      <trkpt lat="45.6228" lon="6.85225">
        <ele>1724.3</ele>
        <time>2020-08-07T15:20:06Z</time>
      </trkpt>
      <trkpt lat="45.62274" lon="6.85241">
        <ele>1723.7</ele>
        <time>2020-08-07T15:20:07Z</time>
      </trkpt>
      <trkpt lat="45.62263" lon="6.85275">
        <ele>1722.5</ele>
        <time>2020-08-07T15:20:09Z</time>
      </trkpt>
      <trkpt lat="45.62255" lon="6.85312">
        <ele>1721.2</ele>
        <time>2020-08-07T15:20:11Z</time>
      </trkpt>
      <trkpt lat="45.62252" lon="6.85332">
        <ele>1720.5</ele>
        <time>2020-08-07T15:20:12Z</time>
      </trkpt>
      <trkpt lat="45.62249" lon="6.85371">
        <ele>1719.1</ele>
        <time>2020-08-07T15:20:14Z</time>
      </trkpt>
      <trkpt lat="45.62249" lon="6.85391">
        <ele>1718.4</ele>
        <time>2020-08-07T15:20:15Z</time>
      </trkpt>
      <trkpt lat="45.62252" lon="6.8543">
        <ele>1717</ele>
        <time>2020-08-07T15:20:17Z</time>
      </trkpt>
      <trkpt lat="45.62251" lon="6.85449">
        <ele>1716.3</ele>
        <time>2020-08-07T15:20:18Z</time>
      </trkpt>
      <trkpt lat="45.62247" lon="6.85468">
        <ele>1715.6</ele>
        <time>2020-08-07T15:20:19Z</time>
      </trkpt>
      <trkpt lat="45.6224" lon="6.85507">
        <ele>1714.2</ele>
        <time>2020-08-07T15:20:21Z</time>
      </trkpt>
      <trkpt lat="45.62238" lon="6.85526">
        <ele>1713.5</ele>
        <time>2020-08-07T15:20:22Z</time>
      </trkpt>
      <trkpt lat="45.62225" lon="6.85559">
        <ele>1711.9</ele>
        <time>2020-08-07T15:20:24Z</time>
      </trkpt>
      <trkpt lat="45.62214" lon="6.85573">
        <ele>1711</ele>
        <time>2020-08-07T15:20:25Z</time>
      </trkpt>
      <trkpt lat="45.62205" lon="6.85586">
        <ele>1710.3</ele>
        <time>2020-08-07T15:20:26Z</time>
      </trkpt>
      <trkpt lat="45.62192" lon="6.85617">
        <ele>1709</ele>
        <time>2020-08-07T15:20:28Z</time>
      </trkpt>
      <trkpt lat="45.6219" lon="6.85635">
        <ele>1708.3</ele>
        <time>2020-08-07T15:20:29Z</time>
      </trkpt>
      <trkpt lat="45.62194" lon="6.85671">
        <ele>1707.1</ele>
        <time>2020-08-07T15:20:31Z</time>
      </trkpt>
      <trkpt lat="45.6219" lon="6.85706">
        <ele>1705.6</ele>
        <time>2020-08-07T15:20:33Z</time>
      </trkpt>
      <trkpt lat="45.62181" lon="6.8572">
        <ele>1704</ele>
        <time>2020-08-07T15:20:34Z</time>
      </trkpt>
      <trkpt lat="45.6216" lon="6.85739">
        <ele>1701.6</ele>
        <time>2020-08-07T15:20:36Z</time>
      </trkpt>
      <trkpt lat="45.62145" lon="6.85758">
        <ele>1699.5</ele>
        <time>2020-08-07T15:20:38Z</time>
      </trkpt>
      <trkpt lat="45.62139" lon="6.85771">
        <ele>1698.4</ele>
        <time>2020-08-07T15:20:39Z</time>
      </trkpt>
      <trkpt lat="45.62137" lon="6.85786">
        <ele>1697.2</ele>
        <time>2020-08-07T15:20:40Z</time>
      </trkpt>
      <trkpt lat="45.62133" lon="6.8582">
        <ele>1695.8</ele>
        <time>2020-08-07T15:20:42Z</time>
      </trkpt>
      <trkpt lat="45.62129" lon="6.85854">
        <ele>1695.6</ele>
        <time>2020-08-07T15:20:44Z</time>
      </trkpt>
      <trkpt lat="45.62127" lon="6.85872">
        <ele>1695.6</ele>
        <time>2020-08-07T15:20:45Z</time>
      </trkpt>
      <trkpt lat="45.62122" lon="6.85907">
        <ele>1695.8</ele>
        <time>2020-08-07T15:20:47Z</time>
      </trkpt>
      <trkpt lat="45.62119" lon="6.85941">
        <ele>1695.3</ele>
        <time>2020-08-07T15:20:49Z</time>
      </trkpt>
      <trkpt lat="45.62118" lon="6.85954">
        <ele>1694.9</ele>
        <time>2020-08-07T15:20:50Z</time>
      </trkpt>
      <trkpt lat="45.62117" lon="6.85963">
        <ele>1694.7</ele>
        <time>2020-08-07T15:20:51Z</time>
      </trkpt>
      <trkpt lat="45.62112" lon="6.85975">
        <ele>1694.3</ele>
        <time>2020-08-07T15:20:53Z</time>
      </trkpt>
      <trkpt lat="45.62101" lon="6.85972">
        <ele>1693.5</ele>
        <time>2020-08-07T15:20:55Z</time>
      </trkpt>
      <trkpt lat="45.62097" lon="6.85955">
        <ele>1692.4</ele>
        <time>2020-08-07T15:20:57Z</time>
      </trkpt>
      <trkpt lat="45.62099" lon="6.85945">
        <ele>1692</ele>
        <time>2020-08-07T15:20:58Z</time>
      </trkpt>
      <trkpt lat="45.62103" lon="6.85936">
        <ele>1691.7</ele>
        <time>2020-08-07T15:20:59Z</time>
      </trkpt>
      <trkpt lat="45.62107" lon="6.85925">
        <ele>1691.4</ele>
        <time>2020-08-07T15:21:00Z</time>
      </trkpt>
      <trkpt lat="45.6211" lon="6.85914">
        <ele>1691.1</ele>
        <time>2020-08-07T15:21:01Z</time>
      </trkpt>
      <trkpt lat="45.62114" lon="6.85887">
        <ele>1690.4</ele>
        <time>2020-08-07T15:21:03Z</time>
      </trkpt>
      <trkpt lat="45.62115" lon="6.85872">
        <ele>1689.9</ele>
        <time>2020-08-07T15:21:04Z</time>
      </trkpt>
      <trkpt lat="45.62116" lon="6.85855">
        <ele>1689.5</ele>
        <time>2020-08-07T15:21:05Z</time>
      </trkpt>
      <trkpt lat="45.62118" lon="6.85822">
        <ele>1688.6</ele>
        <time>2020-08-07T15:21:07Z</time>
      </trkpt>
      <trkpt lat="45.62119" lon="6.85789">
        <ele>1687.6</ele>
        <time>2020-08-07T15:21:09Z</time>
      </trkpt>
      <trkpt lat="45.62126" lon="6.85759">
        <ele>1686.7</ele>
        <time>2020-08-07T15:21:11Z</time>
      </trkpt>
      <trkpt lat="45.62137" lon="6.85733">
        <ele>1685.7</ele>
        <time>2020-08-07T15:21:13Z</time>
      </trkpt>
      <trkpt lat="45.62145" lon="6.85699">
        <ele>1684.6</ele>
        <time>2020-08-07T15:21:15Z</time>
      </trkpt>
      <trkpt lat="45.62142" lon="6.85661">
        <ele>1683.2</ele>
        <time>2020-08-07T15:21:17Z</time>
      </trkpt>
      <trkpt lat="45.6214" lon="6.85642">
        <ele>1682.5</ele>
        <time>2020-08-07T15:21:18Z</time>
      </trkpt>
      <trkpt lat="45.62142" lon="6.85623">
        <ele>1681.8</ele>
        <time>2020-08-07T15:21:19Z</time>
      </trkpt>
      <trkpt lat="45.62151" lon="6.85586">
        <ele>1680.5</ele>
        <time>2020-08-07T15:21:21Z</time>
      </trkpt>
      <trkpt lat="45.62156" lon="6.85566">
        <ele>1680</ele>
        <time>2020-08-07T15:21:22Z</time>
      </trkpt>
      <trkpt lat="45.62165" lon="6.85528">
        <ele>1678.6</ele>
        <time>2020-08-07T15:21:24Z</time>
      </trkpt>
      <trkpt lat="45.6217" lon="6.85489">
        <ele>1677.2</ele>
        <time>2020-08-07T15:21:26Z</time>
      </trkpt>
      <trkpt lat="45.62163" lon="6.85451">
        <ele>1675.8</ele>
        <time>2020-08-07T15:21:28Z</time>
      </trkpt>
      <trkpt lat="45.62156" lon="6.85433">
        <ele>1675.1</ele>
        <time>2020-08-07T15:21:29Z</time>
      </trkpt>
      <trkpt lat="45.62147" lon="6.85396">
        <ele>1673.6</ele>
        <time>2020-08-07T15:21:31Z</time>
      </trkpt>
      <trkpt lat="45.62146" lon="6.85377">
        <ele>1673</ele>
        <time>2020-08-07T15:21:32Z</time>
      </trkpt>
      <trkpt lat="45.62146" lon="6.85358">
        <ele>1672.3</ele>
        <time>2020-08-07T15:21:33Z</time>
      </trkpt>
      <trkpt lat="45.62145" lon="6.85319">
        <ele>1670.9</ele>
        <time>2020-08-07T15:21:35Z</time>
      </trkpt>
      <trkpt lat="45.62144" lon="6.85281">
        <ele>1669.7</ele>
        <time>2020-08-07T15:21:37Z</time>
      </trkpt>
      <trkpt lat="45.62143" lon="6.85239">
        <ele>1668.3</ele>
        <time>2020-08-07T15:21:39Z</time>
      </trkpt>
      <trkpt lat="45.62144" lon="6.85219">
        <ele>1667.5</ele>
        <time>2020-08-07T15:21:40Z</time>
      </trkpt>
      <trkpt lat="45.62148" lon="6.8518">
        <ele>1666.1</ele>
        <time>2020-08-07T15:21:42Z</time>
      </trkpt>
      <trkpt lat="45.62153" lon="6.85143">
        <ele>1664.7</ele>
        <time>2020-08-07T15:21:44Z</time>
      </trkpt>
      <trkpt lat="45.62156" lon="6.85124">
        <ele>1664</ele>
        <time>2020-08-07T15:21:45Z</time>
      </trkpt>
      <trkpt lat="45.62166" lon="6.85089">
        <ele>1662.7</ele>
        <time>2020-08-07T15:21:47Z</time>
      </trkpt>
      <trkpt lat="45.62176" lon="6.85056">
        <ele>1661.5</ele>
        <time>2020-08-07T15:21:49Z</time>
      </trkpt>
      <trkpt lat="45.6218" lon="6.85037">
        <ele>1660.9</ele>
        <time>2020-08-07T15:21:50Z</time>
      </trkpt>
      <trkpt lat="45.62179" lon="6.85001">
        <ele>1659.6</ele>
        <time>2020-08-07T15:21:52Z</time>
      </trkpt>
      <trkpt lat="45.62174" lon="6.84963">
        <ele>1658.3</ele>
        <time>2020-08-07T15:21:54Z</time>
      </trkpt>
      <trkpt lat="45.62172" lon="6.84942">
        <ele>1657.5</ele>
        <time>2020-08-07T15:21:55Z</time>
      </trkpt>
      <trkpt lat="45.62172" lon="6.84923">
        <ele>1656.7</ele>
        <time>2020-08-07T15:21:56Z</time>
      </trkpt>
      <trkpt lat="45.62172" lon="6.84885">
        <ele>1655.2</ele>
        <time>2020-08-07T15:21:58Z</time>
      </trkpt>
      <trkpt lat="45.62175" lon="6.84845">
        <ele>1653.8</ele>
        <time>2020-08-07T15:22:00Z</time>
      </trkpt>
      <trkpt lat="45.62177" lon="6.84805">
        <ele>1652.4</ele>
        <time>2020-08-07T15:22:02Z</time>
      </trkpt>
      <trkpt lat="45.62177" lon="6.84765">
        <ele>1650.9</ele>
        <time>2020-08-07T15:22:04Z</time>
      </trkpt>
      <trkpt lat="45.62176" lon="6.84745">
        <ele>1650</ele>
        <time>2020-08-07T15:22:05Z</time>
      </trkpt>
      <trkpt lat="45.62173" lon="6.84707">
        <ele>1647.7</ele>
        <time>2020-08-07T15:22:07Z</time>
      </trkpt>
      <trkpt lat="45.62172" lon="6.84687">
        <ele>1646.4</ele>
        <time>2020-08-07T15:22:08Z</time>
      </trkpt>
      <trkpt lat="45.62171" lon="6.84653">
        <ele>1644</ele>
        <time>2020-08-07T15:22:10Z</time>
      </trkpt>
      <trkpt lat="45.62178" lon="6.84624">
        <ele>1641.6</ele>
        <time>2020-08-07T15:22:12Z</time>
      </trkpt>
      <trkpt lat="45.62184" lon="6.8461">
        <ele>1641.3</ele>
        <time>2020-08-07T15:22:13Z</time>
      </trkpt>
      <trkpt lat="45.62192" lon="6.84595">
        <ele>1641</ele>
        <time>2020-08-07T15:22:14Z</time>
      </trkpt>
      <trkpt lat="45.62199" lon="6.8458">
        <ele>1640.8</ele>
        <time>2020-08-07T15:22:15Z</time>
      </trkpt>
      <trkpt lat="45.62213" lon="6.84549">
        <ele>1640.4</ele>
        <time>2020-08-07T15:22:17Z</time>
      </trkpt>
      <trkpt lat="45.62222" lon="6.84536">
        <ele>1640.2</ele>
        <time>2020-08-07T15:22:18Z</time>
      </trkpt>
      <trkpt lat="45.62243" lon="6.84512">
        <ele>1639.7</ele>
        <time>2020-08-07T15:22:20Z</time>
      </trkpt>
      <trkpt lat="45.62252" lon="6.84498">
        <ele>1639.5</ele>
        <time>2020-08-07T15:22:21Z</time>
      </trkpt>
      <trkpt lat="45.62266" lon="6.84466">
        <ele>1639.4</ele>
        <time>2020-08-07T15:22:23Z</time>
      </trkpt>
      <trkpt lat="45.62273" lon="6.84449">
        <ele>1639.3</ele>
        <time>2020-08-07T15:22:24Z</time>
      </trkpt>
      <trkpt lat="45.62285" lon="6.84412">
        <ele>1638.5</ele>
        <time>2020-08-07T15:22:26Z</time>
      </trkpt>
      <trkpt lat="45.62292" lon="6.84393">
        <ele>1638.1</ele>
        <time>2020-08-07T15:22:27Z</time>
      </trkpt>
      <trkpt lat="45.62299" lon="6.84373">
        <ele>1637.5</ele>
        <time>2020-08-07T15:22:28Z</time>
      </trkpt>
      <trkpt lat="45.62306" lon="6.84354">
        <ele>1637</ele>
        <time>2020-08-07T15:22:29Z</time>
      </trkpt>
      <trkpt lat="45.62311" lon="6.84333">
        <ele>1636.5</ele>
        <time>2020-08-07T15:22:30Z</time>
      </trkpt>
      <trkpt lat="45.62314" lon="6.84312">
        <ele>1636.1</ele>
        <time>2020-08-07T15:22:31Z</time>
      </trkpt>
      <trkpt lat="45.62322" lon="6.84272">
        <ele>1635.3</ele>
        <time>2020-08-07T15:22:33Z</time>
      </trkpt>
      <trkpt lat="45.62334" lon="6.84235">
        <ele>1634.6</ele>
        <time>2020-08-07T15:22:35Z</time>
      </trkpt>
      <trkpt lat="45.62342" lon="6.84218">
        <ele>1634.1</ele>
        <time>2020-08-07T15:22:36Z</time>
      </trkpt>
      <trkpt lat="45.6236" lon="6.84188">
        <ele>1632.7</ele>
        <time>2020-08-07T15:22:38Z</time>
      </trkpt>
      <trkpt lat="45.62371" lon="6.84176">
        <ele>1631.8</ele>
        <time>2020-08-07T15:22:39Z</time>
      </trkpt>
      <trkpt lat="45.62395" lon="6.84157">
        <ele>1630.1</ele>
        <time>2020-08-07T15:22:41Z</time>
      </trkpt>
      <trkpt lat="45.62408" lon="6.84149">
        <ele>1629.2</ele>
        <time>2020-08-07T15:22:42Z</time>
      </trkpt>
      <trkpt lat="45.62432" lon="6.84129">
        <ele>1627.5</ele>
        <time>2020-08-07T15:22:44Z</time>
      </trkpt>
      <trkpt lat="45.62448" lon="6.84096">
        <ele>1626.2</ele>
        <time>2020-08-07T15:22:46Z</time>
      </trkpt>
      <trkpt lat="45.62464" lon="6.84063">
        <ele>1624.8</ele>
        <time>2020-08-07T15:22:48Z</time>
      </trkpt>
      <trkpt lat="45.62474" lon="6.84049">
        <ele>1624</ele>
        <time>2020-08-07T15:22:49Z</time>
      </trkpt>
      <trkpt lat="45.62495" lon="6.84024">
        <ele>1622.7</ele>
        <time>2020-08-07T15:22:51Z</time>
      </trkpt>
      <trkpt lat="45.62505" lon="6.84013">
        <ele>1622.1</ele>
        <time>2020-08-07T15:22:52Z</time>
      </trkpt>
      <trkpt lat="45.6253" lon="6.83997">
        <ele>1620.7</ele>
        <time>2020-08-07T15:22:54Z</time>
      </trkpt>
      <trkpt lat="45.62543" lon="6.83992">
        <ele>1620</ele>
        <time>2020-08-07T15:22:55Z</time>
      </trkpt>
      <trkpt lat="45.62564" lon="6.8397">
        <ele>1618.5</ele>
        <time>2020-08-07T15:22:57Z</time>
      </trkpt>
      <trkpt lat="45.62579" lon="6.83935">
        <ele>1616.9</ele>
        <time>2020-08-07T15:22:59Z</time>
      </trkpt>
      <trkpt lat="45.62587" lon="6.83917">
        <ele>1616.1</ele>
        <time>2020-08-07T15:23:00Z</time>
      </trkpt>
      <trkpt lat="45.62595" lon="6.839">
        <ele>1615.3</ele>
        <time>2020-08-07T15:23:01Z</time>
      </trkpt>
      <trkpt lat="45.62608" lon="6.83865">
        <ele>1613.7</ele>
        <time>2020-08-07T15:23:03Z</time>
      </trkpt>
      <trkpt lat="45.62624" lon="6.83837">
        <ele>1612.2</ele>
        <time>2020-08-07T15:23:05Z</time>
      </trkpt>
      <trkpt lat="45.62635" lon="6.83825">
        <ele>1611.4</ele>
        <time>2020-08-07T15:23:06Z</time>
      </trkpt>
      <trkpt lat="45.62657" lon="6.838">
        <ele>1609.9</ele>
        <time>2020-08-07T15:23:08Z</time>
      </trkpt>
      <trkpt lat="45.62667" lon="6.83787">
        <ele>1609.1</ele>
        <time>2020-08-07T15:23:09Z</time>
      </trkpt>
      <trkpt lat="45.62677" lon="6.83771">
        <ele>1608.4</ele>
        <time>2020-08-07T15:23:10Z</time>
      </trkpt>
      <trkpt lat="45.62692" lon="6.83736">
        <ele>1606.9</ele>
        <time>2020-08-07T15:23:12Z</time>
      </trkpt>
      <trkpt lat="45.62706" lon="6.837">
        <ele>1605.3</ele>
        <time>2020-08-07T15:23:14Z</time>
      </trkpt>
      <trkpt lat="45.62713" lon="6.83682">
        <ele>1604.4</ele>
        <time>2020-08-07T15:23:15Z</time>
      </trkpt>
      <trkpt lat="45.6273" lon="6.83649">
        <ele>1602.8</ele>
        <time>2020-08-07T15:23:17Z</time>
      </trkpt>
      <trkpt lat="45.62753" lon="6.83626">
        <ele>1601.6</ele>
        <time>2020-08-07T15:23:19Z</time>
      </trkpt>
      <trkpt lat="45.62764" lon="6.83616">
        <ele>1601.1</ele>
        <time>2020-08-07T15:23:20Z</time>
      </trkpt>
      <trkpt lat="45.62782" lon="6.83586">
        <ele>1599.7</ele>
        <time>2020-08-07T15:23:22Z</time>
      </trkpt>
      <trkpt lat="45.62796" lon="6.83553">
        <ele>1598.3</ele>
        <time>2020-08-07T15:23:24Z</time>
      </trkpt>
      <trkpt lat="45.62811" lon="6.83528">
        <ele>1597.4</ele>
        <time>2020-08-07T15:23:26Z</time>
      </trkpt>
      <trkpt lat="45.62818" lon="6.8352">
        <ele>1597</ele>
        <time>2020-08-07T15:23:27Z</time>
      </trkpt>
      <trkpt lat="45.62825" lon="6.83503">
        <ele>1596.4</ele>
        <time>2020-08-07T15:23:29Z</time>
      </trkpt>
      <trkpt lat="45.62812" lon="6.83491">
        <ele>1595.6</ele>
        <time>2020-08-07T15:23:31Z</time>
      </trkpt>
      <trkpt lat="45.62803" lon="6.83496">
        <ele>1595.1</ele>
        <time>2020-08-07T15:23:32Z</time>
      </trkpt>
      <trkpt lat="45.62796" lon="6.83505">
        <ele>1594.6</ele>
        <time>2020-08-07T15:23:33Z</time>
      </trkpt>
      <trkpt lat="45.62791" lon="6.83516">
        <ele>1594.1</ele>
        <time>2020-08-07T15:23:34Z</time>
      </trkpt>
      <trkpt lat="45.62782" lon="6.8354">
        <ele>1593.1</ele>
        <time>2020-08-07T15:23:36Z</time>
      </trkpt>
      <trkpt lat="45.62777" lon="6.83552">
        <ele>1592.5</ele>
        <time>2020-08-07T15:23:37Z</time>
      </trkpt>
      <trkpt lat="45.62771" lon="6.83565">
        <ele>1591.9</ele>
        <time>2020-08-07T15:23:38Z</time>
      </trkpt>
      <trkpt lat="45.62757" lon="6.83589">
        <ele>1590.6</ele>
        <time>2020-08-07T15:23:40Z</time>
      </trkpt>
      <trkpt lat="45.62738" lon="6.83609">
        <ele>1589.4</ele>
        <time>2020-08-07T15:23:42Z</time>
      </trkpt>
      <trkpt lat="45.62727" lon="6.83618">
        <ele>1588.7</ele>
        <time>2020-08-07T15:23:43Z</time>
      </trkpt>
      <trkpt lat="45.62715" lon="6.83626">
        <ele>1588</ele>
        <time>2020-08-07T15:23:44Z</time>
      </trkpt>
      <trkpt lat="45.62693" lon="6.83643">
        <ele>1586.6</ele>
        <time>2020-08-07T15:23:46Z</time>
      </trkpt>
      <trkpt lat="45.62681" lon="6.83652">
        <ele>1585.8</ele>
        <time>2020-08-07T15:23:47Z</time>
      </trkpt>
      <trkpt lat="45.62658" lon="6.83671">
        <ele>1584.2</ele>
        <time>2020-08-07T15:23:49Z</time>
      </trkpt>
      <trkpt lat="45.6264" lon="6.83699">
        <ele>1582.8</ele>
        <time>2020-08-07T15:23:51Z</time>
      </trkpt>
      <trkpt lat="45.62632" lon="6.83716">
        <ele>1582.1</ele>
        <time>2020-08-07T15:23:52Z</time>
      </trkpt>
      <trkpt lat="45.62617" lon="6.8375">
        <ele>1580.7</ele>
        <time>2020-08-07T15:23:54Z</time>
      </trkpt>
      <trkpt lat="45.6261" lon="6.83766">
        <ele>1580</ele>
        <time>2020-08-07T15:23:55Z</time>
      </trkpt>
      <trkpt lat="45.62589" lon="6.83791">
        <ele>1578.4</ele>
        <time>2020-08-07T15:23:57Z</time>
      </trkpt>
      <trkpt lat="45.62569" lon="6.83818">
        <ele>1576.9</ele>
        <time>2020-08-07T15:23:59Z</time>
      </trkpt>
      <trkpt lat="45.6256" lon="6.83833">
        <ele>1576.1</ele>
        <time>2020-08-07T15:24:00Z</time>
      </trkpt>
      <trkpt lat="45.6255" lon="6.83847">
        <ele>1575.3</ele>
        <time>2020-08-07T15:24:01Z</time>
      </trkpt>
      <trkpt lat="45.62539" lon="6.83858">
        <ele>1574.6</ele>
        <time>2020-08-07T15:24:02Z</time>
      </trkpt>
      <trkpt lat="45.62515" lon="6.83873">
        <ele>1573.3</ele>
        <time>2020-08-07T15:24:04Z</time>
      </trkpt>
      <trkpt lat="45.62488" lon="6.83874">
        <ele>1571.6</ele>
        <time>2020-08-07T15:24:06Z</time>
      </trkpt>
      <trkpt lat="45.62474" lon="6.83872">
        <ele>1570.7</ele>
        <time>2020-08-07T15:24:07Z</time>
      </trkpt>
      <trkpt lat="45.62446" lon="6.83874">
        <ele>1568.4</ele>
        <time>2020-08-07T15:24:09Z</time>
      </trkpt>
      <trkpt lat="45.62432" lon="6.83882">
        <ele>1567</ele>
        <time>2020-08-07T15:24:10Z</time>
      </trkpt>
      <trkpt lat="45.62418" lon="6.83892">
        <ele>1565.8</ele>
        <time>2020-08-07T15:24:11Z</time>
      </trkpt>
      <trkpt lat="45.62392" lon="6.83915">
        <ele>1563.6</ele>
        <time>2020-08-07T15:24:13Z</time>
      </trkpt>
      <trkpt lat="45.6237" lon="6.83945">
        <ele>1561.7</ele>
        <time>2020-08-07T15:24:15Z</time>
      </trkpt>
      <trkpt lat="45.6236" lon="6.83962">
        <ele>1560.9</ele>
        <time>2020-08-07T15:24:16Z</time>
      </trkpt>
      <trkpt lat="45.62339" lon="6.83995">
        <ele>1559.2</ele>
        <time>2020-08-07T15:24:18Z</time>
      </trkpt>
      <trkpt lat="45.62329" lon="6.84011">
        <ele>1558.5</ele>
        <time>2020-08-07T15:24:19Z</time>
      </trkpt>
      <trkpt lat="45.62318" lon="6.84025">
        <ele>1557.7</ele>
        <time>2020-08-07T15:24:20Z</time>
      </trkpt>
      <trkpt lat="45.62291" lon="6.84043">
        <ele>1556.5</ele>
        <time>2020-08-07T15:24:22Z</time>
      </trkpt>
      <trkpt lat="45.62262" lon="6.84051">
        <ele>1555.4</ele>
        <time>2020-08-07T15:24:24Z</time>
      </trkpt>
      <trkpt lat="45.62234" lon="6.84061">
        <ele>1554.7</ele>
        <time>2020-08-07T15:24:26Z</time>
      </trkpt>
      <trkpt lat="45.6222" lon="6.84069">
        <ele>1554.4</ele>
        <time>2020-08-07T15:24:27Z</time>
      </trkpt>
      <trkpt lat="45.62197" lon="6.84086">
        <ele>1553.6</ele>
        <time>2020-08-07T15:24:29Z</time>
      </trkpt>
      <trkpt lat="45.62187" lon="6.84099">
        <ele>1553.1</ele>
        <time>2020-08-07T15:24:30Z</time>
      </trkpt>
      <trkpt lat="45.62179" lon="6.84114">
        <ele>1552.5</ele>
        <time>2020-08-07T15:24:31Z</time>
      </trkpt>
      <trkpt lat="45.62163" lon="6.84145">
        <ele>1551.4</ele>
        <time>2020-08-07T15:24:33Z</time>
      </trkpt>
      <trkpt lat="45.62142" lon="6.84171">
        <ele>1550.3</ele>
        <time>2020-08-07T15:24:35Z</time>
      </trkpt>
      <trkpt lat="45.62119" lon="6.84195">
        <ele>1548.8</ele>
        <time>2020-08-07T15:24:37Z</time>
      </trkpt>
      <trkpt lat="45.62109" lon="6.84209">
        <ele>1548.2</ele>
        <time>2020-08-07T15:24:38Z</time>
      </trkpt>
      <trkpt lat="45.62099" lon="6.84224">
        <ele>1547.5</ele>
        <time>2020-08-07T15:24:39Z</time>
      </trkpt>
      <trkpt lat="45.62082" lon="6.84258">
        <ele>1546.2</ele>
        <time>2020-08-07T15:24:41Z</time>
      </trkpt>
      <trkpt lat="45.62074" lon="6.84276">
        <ele>1545.5</ele>
        <time>2020-08-07T15:24:42Z</time>
      </trkpt>
      <trkpt lat="45.62059" lon="6.84313">
        <ele>1544.2</ele>
        <time>2020-08-07T15:24:44Z</time>
      </trkpt>
      <trkpt lat="45.62045" lon="6.84348">
        <ele>1543.2</ele>
        <time>2020-08-07T15:24:46Z</time>
      </trkpt>
      <trkpt lat="45.62033" lon="6.84384">
        <ele>1542</ele>
        <time>2020-08-07T15:24:48Z</time>
      </trkpt>
      <trkpt lat="45.62017" lon="6.84417">
        <ele>1540.7</ele>
        <time>2020-08-07T15:24:50Z</time>
      </trkpt>
      <trkpt lat="45.62" lon="6.84446">
        <ele>1539.6</ele>
        <time>2020-08-07T15:24:52Z</time>
      </trkpt>
      <trkpt lat="45.61988" lon="6.84476">
        <ele>1538.8</ele>
        <time>2020-08-07T15:24:54Z</time>
      </trkpt>
      <trkpt lat="45.61984" lon="6.84489">
        <ele>1538.6</ele>
        <time>2020-08-07T15:24:55Z</time>
      </trkpt>
      <trkpt lat="45.61978" lon="6.8451">
        <ele>1538.2</ele>
        <time>2020-08-07T15:24:57Z</time>
      </trkpt>
      <trkpt lat="45.61972" lon="6.84513">
        <ele>1538</ele>
        <time>2020-08-07T15:24:58Z</time>
      </trkpt>
      <trkpt lat="45.61963" lon="6.84495">
        <ele>1536.9</ele>
        <time>2020-08-07T15:25:00Z</time>
      </trkpt>
      <trkpt lat="45.61966" lon="6.84481">
        <ele>1536.4</ele>
        <time>2020-08-07T15:25:01Z</time>
      </trkpt>
      <trkpt lat="45.61978" lon="6.8446">
        <ele>1535.5</ele>
        <time>2020-08-07T15:25:03Z</time>
      </trkpt>
      <trkpt lat="45.61985" lon="6.84449">
        <ele>1535</ele>
        <time>2020-08-07T15:25:04Z</time>
      </trkpt>
      <trkpt lat="45.61998" lon="6.84426">
        <ele>1534.3</ele>
        <time>2020-08-07T15:25:06Z</time>
      </trkpt>
      <trkpt lat="45.62011" lon="6.84402">
        <ele>1533.5</ele>
        <time>2020-08-07T15:25:08Z</time>
      </trkpt>
      <trkpt lat="45.62022" lon="6.84375">
        <ele>1532.6</ele>
        <time>2020-08-07T15:25:10Z</time>
      </trkpt>
      <trkpt lat="45.62031" lon="6.84346">
        <ele>1531.6</ele>
        <time>2020-08-07T15:25:12Z</time>
      </trkpt>
      <trkpt lat="45.62034" lon="6.84329">
        <ele>1531.1</ele>
        <time>2020-08-07T15:25:13Z</time>
      </trkpt>
      <trkpt lat="45.62038" lon="6.84313">
        <ele>1530.4</ele>
        <time>2020-08-07T15:25:14Z</time>
      </trkpt>
      <trkpt lat="45.62042" lon="6.84297">
        <ele>1529.7</ele>
        <time>2020-08-07T15:25:15Z</time>
      </trkpt>
      <trkpt lat="45.62052" lon="6.84264">
        <ele>1528.2</ele>
        <time>2020-08-07T15:25:17Z</time>
      </trkpt>
      <trkpt lat="45.62063" lon="6.8423">
        <ele>1526.7</ele>
        <time>2020-08-07T15:25:19Z</time>
      </trkpt>
      <trkpt lat="45.62075" lon="6.84197">
        <ele>1525.1</ele>
        <time>2020-08-07T15:25:21Z</time>
      </trkpt>
      <trkpt lat="45.6208" lon="6.8418">
        <ele>1524.2</ele>
        <time>2020-08-07T15:25:22Z</time>
      </trkpt>
      <trkpt lat="45.62094" lon="6.84149">
        <ele>1522.6</ele>
        <time>2020-08-07T15:25:24Z</time>
      </trkpt>
      <trkpt lat="45.62103" lon="6.84136">
        <ele>1521.7</ele>
        <time>2020-08-07T15:25:25Z</time>
      </trkpt>
      <trkpt lat="45.62113" lon="6.84123">
        <ele>1520.7</ele>
        <time>2020-08-07T15:25:26Z</time>
      </trkpt>
      <trkpt lat="45.62133" lon="6.84098">
        <ele>1518.8</ele>
        <time>2020-08-07T15:25:28Z</time>
      </trkpt>
      <trkpt lat="45.62143" lon="6.84084">
        <ele>1517.8</ele>
        <time>2020-08-07T15:25:29Z</time>
      </trkpt>
      <trkpt lat="45.62164" lon="6.84056">
        <ele>1515.3</ele>
        <time>2020-08-07T15:25:31Z</time>
      </trkpt>
      <trkpt lat="45.62174" lon="6.84042">
        <ele>1514</ele>
        <time>2020-08-07T15:25:32Z</time>
      </trkpt>
      <trkpt lat="45.62185" lon="6.84028">
        <ele>1512.8</ele>
        <time>2020-08-07T15:25:33Z</time>
      </trkpt>
      <trkpt lat="45.62195" lon="6.84013">
        <ele>1511.5</ele>
        <time>2020-08-07T15:25:34Z</time>
      </trkpt>
      <trkpt lat="45.62217" lon="6.83984">
        <ele>1508.9</ele>
        <time>2020-08-07T15:25:36Z</time>
      </trkpt>
      <trkpt lat="45.62238" lon="6.83953">
        <ele>1506.6</ele>
        <time>2020-08-07T15:25:38Z</time>
      </trkpt>
      <trkpt lat="45.62248" lon="6.83937">
        <ele>1505.6</ele>
        <time>2020-08-07T15:25:39Z</time>
      </trkpt>
      <trkpt lat="45.62257" lon="6.83919">
        <ele>1504.7</ele>
        <time>2020-08-07T15:25:40Z</time>
      </trkpt>
      <trkpt lat="45.62265" lon="6.83899">
        <ele>1503.8</ele>
        <time>2020-08-07T15:25:41Z</time>
      </trkpt>
      <trkpt lat="45.62279" lon="6.8386">
        <ele>1502.5</ele>
        <time>2020-08-07T15:25:43Z</time>
      </trkpt>
      <trkpt lat="45.62285" lon="6.83841">
        <ele>1501.8</ele>
        <time>2020-08-07T15:25:44Z</time>
      </trkpt>
      <trkpt lat="45.623" lon="6.8381">
        <ele>1499.9</ele>
        <time>2020-08-07T15:25:46Z</time>
      </trkpt>
      <trkpt lat="45.62321" lon="6.83789">
        <ele>1499.2</ele>
        <time>2020-08-07T15:25:48Z</time>
      </trkpt>
      <trkpt lat="45.62344" lon="6.83778">
        <ele>1498.4</ele>
        <time>2020-08-07T15:25:50Z</time>
      </trkpt>
      <trkpt lat="45.62355" lon="6.83771">
        <ele>1498</ele>
        <time>2020-08-07T15:25:51Z</time>
      </trkpt>
      <trkpt lat="45.62371" lon="6.83745">
        <ele>1497.1</ele>
        <time>2020-08-07T15:25:53Z</time>
      </trkpt>
      <trkpt lat="45.62377" lon="6.83729">
        <ele>1496.6</ele>
        <time>2020-08-07T15:25:54Z</time>
      </trkpt>
      <trkpt lat="45.6239" lon="6.83704">
        <ele>1495.5</ele>
        <time>2020-08-07T15:25:56Z</time>
      </trkpt>
      <trkpt lat="45.62408" lon="6.83689">
        <ele>1494.5</ele>
        <time>2020-08-07T15:25:58Z</time>
      </trkpt>
      <trkpt lat="45.62419" lon="6.83662">
        <ele>1493.7</ele>
        <time>2020-08-07T15:26:00Z</time>
      </trkpt>
      <trkpt lat="45.62423" lon="6.83633">
        <ele>1492.8</ele>
        <time>2020-08-07T15:26:02Z</time>
      </trkpt>
      <trkpt lat="45.62425" lon="6.8362">
        <ele>1492.3</ele>
        <time>2020-08-07T15:26:03Z</time>
      </trkpt>
      <trkpt lat="45.62427" lon="6.83607">
        <ele>1491.9</ele>
        <time>2020-08-07T15:26:04Z</time>
      </trkpt>
      <trkpt lat="45.62437" lon="6.83584">
        <ele>1491</ele>
        <time>2020-08-07T15:26:06Z</time>
      </trkpt>
      <trkpt lat="45.62446" lon="6.83576">
        <ele>1490.5</ele>
        <time>2020-08-07T15:26:07Z</time>
      </trkpt>
      <trkpt lat="45.62465" lon="6.83561">
        <ele>1489.6</ele>
        <time>2020-08-07T15:26:09Z</time>
      </trkpt>
      <trkpt lat="45.62476" lon="6.83553">
        <ele>1489.1</ele>
        <time>2020-08-07T15:26:10Z</time>
      </trkpt>
      <trkpt lat="45.62486" lon="6.83545">
        <ele>1488.6</ele>
        <time>2020-08-07T15:26:11Z</time>
      </trkpt>
      <trkpt lat="45.62506" lon="6.83528">
        <ele>1487.5</ele>
        <time>2020-08-07T15:26:13Z</time>
      </trkpt>
      <trkpt lat="45.62524" lon="6.83513">
        <ele>1486.5</ele>
        <time>2020-08-07T15:26:15Z</time>
      </trkpt>
      <trkpt lat="45.62542" lon="6.83498">
        <ele>1485.7</ele>
        <time>2020-08-07T15:26:17Z</time>
      </trkpt>
      <trkpt lat="45.62559" lon="6.83482">
        <ele>1484.9</ele>
        <time>2020-08-07T15:26:19Z</time>
      </trkpt>
      <trkpt lat="45.62566" lon="6.83468">
        <ele>1484.4</ele>
        <time>2020-08-07T15:26:20Z</time>
      </trkpt>
      <trkpt lat="45.62571" lon="6.83436">
        <ele>1483.5</ele>
        <time>2020-08-07T15:26:22Z</time>
      </trkpt>
      <trkpt lat="45.62573" lon="6.8342">
        <ele>1483</ele>
        <time>2020-08-07T15:26:23Z</time>
      </trkpt>
      <trkpt lat="45.62576" lon="6.83391">
        <ele>1482.2</ele>
        <time>2020-08-07T15:26:25Z</time>
      </trkpt>
      <trkpt lat="45.62578" lon="6.83378">
        <ele>1481.8</ele>
        <time>2020-08-07T15:26:26Z</time>
      </trkpt>
      <trkpt lat="45.62588" lon="6.83355">
        <ele>1481</ele>
        <time>2020-08-07T15:26:28Z</time>
      </trkpt>
      <trkpt lat="45.62606" lon="6.83339">
        <ele>1480</ele>
        <time>2020-08-07T15:26:30Z</time>
      </trkpt>
      <trkpt lat="45.62614" lon="6.83332">
        <ele>1479.6</ele>
        <time>2020-08-07T15:26:31Z</time>
      </trkpt>
      <trkpt lat="45.62629" lon="6.83311">
        <ele>1478.9</ele>
        <time>2020-08-07T15:26:33Z</time>
      </trkpt>
      <trkpt lat="45.62635" lon="6.83296">
        <ele>1478.4</ele>
        <time>2020-08-07T15:26:34Z</time>
      </trkpt>
      <trkpt lat="45.62646" lon="6.83264">
        <ele>1477.4</ele>
        <time>2020-08-07T15:26:36Z</time>
      </trkpt>
      <trkpt lat="45.62658" lon="6.83229">
        <ele>1476.3</ele>
        <time>2020-08-07T15:26:38Z</time>
      </trkpt>
      <trkpt lat="45.62665" lon="6.83211">
        <ele>1475.6</ele>
        <time>2020-08-07T15:26:39Z</time>
      </trkpt>
      <trkpt lat="45.6268" lon="6.83173">
        <ele>1474.2</ele>
        <time>2020-08-07T15:26:41Z</time>
      </trkpt>
      <trkpt lat="45.62685" lon="6.8315">
        <ele>1473.5</ele>
        <time>2020-08-07T15:26:42Z</time>
      </trkpt>
      <trkpt lat="45.6269" lon="6.83107">
        <ele>1472.2</ele>
        <time>2020-08-07T15:26:44Z</time>
      </trkpt>
      <trkpt lat="45.62694" lon="6.83086">
        <ele>1471.6</ele>
        <time>2020-08-07T15:26:45Z</time>
      </trkpt>
      <trkpt lat="45.62702" lon="6.83047">
        <ele>1470.4</ele>
        <time>2020-08-07T15:26:47Z</time>
      </trkpt>
      <trkpt lat="45.62699" lon="6.83005">
        <ele>1469.2</ele>
        <time>2020-08-07T15:26:49Z</time>
      </trkpt>
      <trkpt lat="45.62686" lon="6.82964">
        <ele>1468.1</ele>
        <time>2020-08-07T15:26:51Z</time>
      </trkpt>
      <trkpt lat="45.62671" lon="6.82927">
        <ele>1467.1</ele>
        <time>2020-08-07T15:26:53Z</time>
      </trkpt>
      <trkpt lat="45.62658" lon="6.82891">
        <ele>1466.2</ele>
        <time>2020-08-07T15:26:55Z</time>
      </trkpt>
      <trkpt lat="45.62651" lon="6.82872">
        <ele>1465.7</ele>
        <time>2020-08-07T15:26:56Z</time>
      </trkpt>
      <trkpt lat="45.62639" lon="6.82841">
        <ele>1464.8</ele>
        <time>2020-08-07T15:26:58Z</time>
      </trkpt>
      <trkpt lat="45.62633" lon="6.82814">
        <ele>1464.1</ele>
        <time>2020-08-07T15:27:00Z</time>
      </trkpt>
      <trkpt lat="45.62639" lon="6.82789">
        <ele>1463.6</ele>
        <time>2020-08-07T15:27:02Z</time>
      </trkpt>
      <trkpt lat="45.62647" lon="6.82779">
        <ele>1463.3</ele>
        <time>2020-08-07T15:27:03Z</time>
      </trkpt>
      <trkpt lat="45.62666" lon="6.82769">
        <ele>1462.6</ele>
        <time>2020-08-07T15:27:05Z</time>
      </trkpt>
      <trkpt lat="45.62677" lon="6.82766">
        <ele>1462.2</ele>
        <time>2020-08-07T15:27:06Z</time>
      </trkpt>
      <trkpt lat="45.62688" lon="6.82762">
        <ele>1461.7</ele>
        <time>2020-08-07T15:27:07Z</time>
      </trkpt>
      <trkpt lat="45.62699" lon="6.82757">
        <ele>1461.3</ele>
        <time>2020-08-07T15:27:08Z</time>
      </trkpt>
      <trkpt lat="45.62719" lon="6.82737">
        <ele>1460.2</ele>
        <time>2020-08-07T15:27:10Z</time>
      </trkpt>
      <trkpt lat="45.62727" lon="6.82723">
        <ele>1459.7</ele>
        <time>2020-08-07T15:27:11Z</time>
      </trkpt>
      <trkpt lat="45.62741" lon="6.82699">
        <ele>1458.9</ele>
        <time>2020-08-07T15:27:13Z</time>
      </trkpt>
      <trkpt lat="45.62762" lon="6.82691">
        <ele>1458.2</ele>
        <time>2020-08-07T15:27:15Z</time>
      </trkpt>
      <trkpt lat="45.62785" lon="6.827">
        <ele>1457.5</ele>
        <time>2020-08-07T15:27:17Z</time>
      </trkpt>
      <trkpt lat="45.62806" lon="6.82708">
        <ele>1457.2</ele>
        <time>2020-08-07T15:27:19Z</time>
      </trkpt>
      <trkpt lat="45.62816" lon="6.82706">
        <ele>1457</ele>
        <time>2020-08-07T15:27:20Z</time>
      </trkpt>
      <trkpt lat="45.62822" lon="6.82686">
        <ele>1456.7</ele>
        <time>2020-08-07T15:27:22Z</time>
      </trkpt>
      <trkpt lat="45.6281" lon="6.82668">
        <ele>1456.3</ele>
        <time>2020-08-07T15:27:24Z</time>
      </trkpt>
      <trkpt lat="45.628" lon="6.82666">
        <ele>1455.7</ele>
        <time>2020-08-07T15:27:25Z</time>
      </trkpt>
      <trkpt lat="45.62791" lon="6.82666">
        <ele>1455.2</ele>
        <time>2020-08-07T15:27:26Z</time>
      </trkpt>
      <trkpt lat="45.62771" lon="6.82664">
        <ele>1454</ele>
        <time>2020-08-07T15:27:28Z</time>
      </trkpt>
      <trkpt lat="45.62751" lon="6.82661">
        <ele>1452.6</ele>
        <time>2020-08-07T15:27:30Z</time>
      </trkpt>
      <trkpt lat="45.62739" lon="6.82661">
        <ele>1451.8</ele>
        <time>2020-08-07T15:27:31Z</time>
      </trkpt>
      <trkpt lat="45.62716" lon="6.82668">
        <ele>1450.2</ele>
        <time>2020-08-07T15:27:33Z</time>
      </trkpt>
      <trkpt lat="45.62694" lon="6.82685">
        <ele>1448.5</ele>
        <time>2020-08-07T15:27:35Z</time>
      </trkpt>
      <trkpt lat="45.62669" lon="6.8269">
        <ele>1446.8</ele>
        <time>2020-08-07T15:27:37Z</time>
      </trkpt>
      <trkpt lat="45.62655" lon="6.8269">
        <ele>1445.9</ele>
        <time>2020-08-07T15:27:38Z</time>
      </trkpt>
      <trkpt lat="45.6263" lon="6.82694">
        <ele>1444.3</ele>
        <time>2020-08-07T15:27:40Z</time>
      </trkpt>
      <trkpt lat="45.62606" lon="6.82707">
        <ele>1442.5</ele>
        <time>2020-08-07T15:27:42Z</time>
      </trkpt>
      <trkpt lat="45.62595" lon="6.82716">
        <ele>1441.7</ele>
        <time>2020-08-07T15:27:43Z</time>
      </trkpt>
      <trkpt lat="45.62576" lon="6.82739">
        <ele>1440.1</ele>
        <time>2020-08-07T15:27:45Z</time>
      </trkpt>
      <trkpt lat="45.62569" lon="6.82754">
        <ele>1439.3</ele>
        <time>2020-08-07T15:27:46Z</time>
      </trkpt>
      <trkpt lat="45.62562" lon="6.82789">
        <ele>1437.6</ele>
        <time>2020-08-07T15:27:48Z</time>
      </trkpt>
      <trkpt lat="45.62562" lon="6.82826">
        <ele>1435.9</ele>
        <time>2020-08-07T15:27:50Z</time>
      </trkpt>
      <trkpt lat="45.62565" lon="6.82845">
        <ele>1435.1</ele>
        <time>2020-08-07T15:27:51Z</time>
      </trkpt>
      <trkpt lat="45.62572" lon="6.82882">
        <ele>1433.3</ele>
        <time>2020-08-07T15:27:53Z</time>
      </trkpt>
      <trkpt lat="45.62572" lon="6.829">
        <ele>1432.4</ele>
        <time>2020-08-07T15:27:54Z</time>
      </trkpt>
      <trkpt lat="45.62569" lon="6.82917">
        <ele>1431.4</ele>
        <time>2020-08-07T15:27:55Z</time>
      </trkpt>
      <trkpt lat="45.62562" lon="6.82953">
        <ele>1429.6</ele>
        <time>2020-08-07T15:27:57Z</time>
      </trkpt>
      <trkpt lat="45.6256" lon="6.82972">
        <ele>1428.7</ele>
        <time>2020-08-07T15:27:58Z</time>
      </trkpt>
      <trkpt lat="45.62561" lon="6.8301">
        <ele>1427</ele>
        <time>2020-08-07T15:28:00Z</time>
      </trkpt>
      <trkpt lat="45.62563" lon="6.83029">
        <ele>1426.2</ele>
        <time>2020-08-07T15:28:01Z</time>
      </trkpt>
      <trkpt lat="45.62568" lon="6.83068">
        <ele>1424.4</ele>
        <time>2020-08-07T15:28:03Z</time>
      </trkpt>
      <trkpt lat="45.6257" lon="6.83088">
        <ele>1423.6</ele>
        <time>2020-08-07T15:28:04Z</time>
      </trkpt>
      <trkpt lat="45.62571" lon="6.83123">
        <ele>1422.3</ele>
        <time>2020-08-07T15:28:06Z</time>
      </trkpt>
      <trkpt lat="45.62562" lon="6.83153">
        <ele>1421.1</ele>
        <time>2020-08-07T15:28:08Z</time>
      </trkpt>
      <trkpt lat="45.62543" lon="6.83173">
        <ele>1419.9</ele>
        <time>2020-08-07T15:28:10Z</time>
      </trkpt>
      <trkpt lat="45.62533" lon="6.83181">
        <ele>1419.4</ele>
        <time>2020-08-07T15:28:11Z</time>
      </trkpt>
      <trkpt lat="45.62519" lon="6.83194">
        <ele>1418.8</ele>
        <time>2020-08-07T15:28:13Z</time>
      </trkpt>
      <trkpt lat="45.62512" lon="6.83196">
        <ele>1418.5</ele>
        <time>2020-08-07T15:28:14Z</time>
      </trkpt>
      <trkpt lat="45.62503" lon="6.83181">
        <ele>1417.9</ele>
        <time>2020-08-07T15:28:16Z</time>
      </trkpt>
      <trkpt lat="45.62505" lon="6.83169">
        <ele>1417.4</ele>
        <time>2020-08-07T15:28:17Z</time>
      </trkpt>
      <trkpt lat="45.62522" lon="6.83155">
        <ele>1416.4</ele>
        <time>2020-08-07T15:28:19Z</time>
      </trkpt>
      <trkpt lat="45.62538" lon="6.83149">
        <ele>1415.5</ele>
        <time>2020-08-07T15:28:21Z</time>
      </trkpt>
      <trkpt lat="45.62545" lon="6.83143">
        <ele>1415.1</ele>
        <time>2020-08-07T15:28:22Z</time>
      </trkpt>
      <trkpt lat="45.62554" lon="6.8312">
        <ele>1414.1</ele>
        <time>2020-08-07T15:28:24Z</time>
      </trkpt>
      <trkpt lat="45.62555" lon="6.83105">
        <ele>1413.6</ele>
        <time>2020-08-07T15:28:25Z</time>
      </trkpt>
      <trkpt lat="45.62553" lon="6.8309">
        <ele>1413.1</ele>
        <time>2020-08-07T15:28:26Z</time>
      </trkpt>
      <trkpt lat="45.62549" lon="6.83075">
        <ele>1412.4</ele>
        <time>2020-08-07T15:28:27Z</time>
      </trkpt>
      <trkpt lat="45.62537" lon="6.83047">
        <ele>1411.3</ele>
        <time>2020-08-07T15:28:29Z</time>
      </trkpt>
      <trkpt lat="45.62521" lon="6.83021">
        <ele>1409.9</ele>
        <time>2020-08-07T15:28:31Z</time>
      </trkpt>
      <trkpt lat="45.62507" lon="6.82994">
        <ele>1408.5</ele>
        <time>2020-08-07T15:28:33Z</time>
      </trkpt>
      <trkpt lat="45.62503" lon="6.82959">
        <ele>1406.8</ele>
        <time>2020-08-07T15:28:35Z</time>
      </trkpt>
      <trkpt lat="45.62505" lon="6.82921">
        <ele>1405</ele>
        <time>2020-08-07T15:28:37Z</time>
      </trkpt>
      <trkpt lat="45.62509" lon="6.82882">
        <ele>1402.9</ele>
        <time>2020-08-07T15:28:39Z</time>
      </trkpt>
      <trkpt lat="45.62512" lon="6.82862">
        <ele>1401.8</ele>
        <time>2020-08-07T15:28:40Z</time>
      </trkpt>
      <trkpt lat="45.62516" lon="6.82824">
        <ele>1400.1</ele>
        <time>2020-08-07T15:28:42Z</time>
      </trkpt>
      <trkpt lat="45.62513" lon="6.82784">
        <ele>1398.4</ele>
        <time>2020-08-07T15:28:44Z</time>
      </trkpt>
      <trkpt lat="45.62507" lon="6.82765">
        <ele>1397.6</ele>
        <time>2020-08-07T15:28:45Z</time>
      </trkpt>
      <trkpt lat="45.62491" lon="6.82733">
        <ele>1395.9</ele>
        <time>2020-08-07T15:28:47Z</time>
      </trkpt>
      <trkpt lat="45.62484" lon="6.82719">
        <ele>1395.2</ele>
        <time>2020-08-07T15:28:48Z</time>
      </trkpt>
      <trkpt lat="45.6248" lon="6.82706">
        <ele>1394.5</ele>
        <time>2020-08-07T15:28:49Z</time>
      </trkpt>
      <trkpt lat="45.62482" lon="6.82677">
        <ele>1393.2</ele>
        <time>2020-08-07T15:28:51Z</time>
      </trkpt>
      <trkpt lat="45.62495" lon="6.82647">
        <ele>1391.5</ele>
        <time>2020-08-07T15:28:53Z</time>
      </trkpt>
      <trkpt lat="45.62512" lon="6.82617">
        <ele>1389.7</ele>
        <time>2020-08-07T15:28:55Z</time>
      </trkpt>
      <trkpt lat="45.6252" lon="6.82601">
        <ele>1388.9</ele>
        <time>2020-08-07T15:28:56Z</time>
      </trkpt>
      <trkpt lat="45.62528" lon="6.82585">
        <ele>1388.1</ele>
        <time>2020-08-07T15:28:57Z</time>
      </trkpt>
      <trkpt lat="45.62545" lon="6.82555">
        <ele>1386.5</ele>
        <time>2020-08-07T15:28:59Z</time>
      </trkpt>
      <trkpt lat="45.62555" lon="6.82542">
        <ele>1385.6</ele>
        <time>2020-08-07T15:29:00Z</time>
      </trkpt>
      <trkpt lat="45.62576" lon="6.82519">
        <ele>1383.8</ele>
        <time>2020-08-07T15:29:02Z</time>
      </trkpt>
      <trkpt lat="45.62587" lon="6.82508">
        <ele>1382.8</ele>
        <time>2020-08-07T15:29:03Z</time>
      </trkpt>
      <trkpt lat="45.62598" lon="6.82498">
        <ele>1381.9</ele>
        <time>2020-08-07T15:29:04Z</time>
      </trkpt>
      <trkpt lat="45.6261" lon="6.82489">
        <ele>1380.9</ele>
        <time>2020-08-07T15:29:05Z</time>
      </trkpt>
      <trkpt lat="45.62633" lon="6.82471">
        <ele>1379.1</ele>
        <time>2020-08-07T15:29:07Z</time>
      </trkpt>
      <trkpt lat="45.62657" lon="6.82456">
        <ele>1377.3</ele>
        <time>2020-08-07T15:29:09Z</time>
      </trkpt>
      <trkpt lat="45.62682" lon="6.82441">
        <ele>1375.5</ele>
        <time>2020-08-07T15:29:11Z</time>
      </trkpt>
      <trkpt lat="45.62696" lon="6.82437">
        <ele>1374.5</ele>
        <time>2020-08-07T15:29:12Z</time>
      </trkpt>
      <trkpt lat="45.62724" lon="6.82434">
        <ele>1372.7</ele>
        <time>2020-08-07T15:29:14Z</time>
      </trkpt>
      <trkpt lat="45.62738" lon="6.82432">
        <ele>1371.7</ele>
        <time>2020-08-07T15:29:15Z</time>
      </trkpt>
      <trkpt lat="45.62752" lon="6.82428">
        <ele>1370.8</ele>
        <time>2020-08-07T15:29:16Z</time>
      </trkpt>
      <trkpt lat="45.62766" lon="6.82421">
        <ele>1369.8</ele>
        <time>2020-08-07T15:29:17Z</time>
      </trkpt>
      <trkpt lat="45.62793" lon="6.82406">
        <ele>1367.7</ele>
        <time>2020-08-07T15:29:19Z</time>
      </trkpt>
      <trkpt lat="45.62808" lon="6.82398">
        <ele>1366.6</ele>
        <time>2020-08-07T15:29:20Z</time>
      </trkpt>
      <trkpt lat="45.62836" lon="6.8239">
        <ele>1364.5</ele>
        <time>2020-08-07T15:29:22Z</time>
      </trkpt>
      <trkpt lat="45.6285" lon="6.82386">
        <ele>1363.5</ele>
        <time>2020-08-07T15:29:23Z</time>
      </trkpt>
      <trkpt lat="45.62876" lon="6.82379">
        <ele>1361.6</ele>
        <time>2020-08-07T15:29:25Z</time>
      </trkpt>
      <trkpt lat="45.62897" lon="6.82355">
        <ele>1359.8</ele>
        <time>2020-08-07T15:29:27Z</time>
      </trkpt>
      <trkpt lat="45.62904" lon="6.82338">
        <ele>1358.9</ele>
        <time>2020-08-07T15:29:28Z</time>
      </trkpt>
      <trkpt lat="45.62917" lon="6.82305">
        <ele>1357.3</ele>
        <time>2020-08-07T15:29:30Z</time>
      </trkpt>
      <trkpt lat="45.62925" lon="6.82292">
        <ele>1356.6</ele>
        <time>2020-08-07T15:29:31Z</time>
      </trkpt>
      <trkpt lat="45.62935" lon="6.82283">
        <ele>1355.9</ele>
        <time>2020-08-07T15:29:32Z</time>
      </trkpt>
      <trkpt lat="45.62946" lon="6.82279">
        <ele>1355.3</ele>
        <time>2020-08-07T15:29:33Z</time>
      </trkpt>
      <trkpt lat="45.62967" lon="6.82278">
        <ele>1354.5</ele>
        <time>2020-08-07T15:29:35Z</time>
      </trkpt>
      <trkpt lat="45.62974" lon="6.82274">
        <ele>1354.2</ele>
        <time>2020-08-07T15:29:36Z</time>
      </trkpt>
      <trkpt lat="45.62977" lon="6.82265">
        <ele>1353.8</ele>
        <time>2020-08-07T15:29:37Z</time>
      </trkpt>
      <trkpt lat="45.62966" lon="6.82246">
        <ele>1353.5</ele>
        <time>2020-08-07T15:29:39Z</time>
      </trkpt>
      <trkpt lat="45.62956" lon="6.82244">
        <ele>1353.1</ele>
        <time>2020-08-07T15:29:40Z</time>
      </trkpt>
      <trkpt lat="45.62939" lon="6.82252">
        <ele>1352.5</ele>
        <time>2020-08-07T15:29:42Z</time>
      </trkpt>
      <trkpt lat="45.62922" lon="6.82264">
        <ele>1351.7</ele>
        <time>2020-08-07T15:29:44Z</time>
      </trkpt>
      <trkpt lat="45.62906" lon="6.82282">
        <ele>1350.6</ele>
        <time>2020-08-07T15:29:46Z</time>
      </trkpt>
      <trkpt lat="45.62892" lon="6.82306">
        <ele>1349.4</ele>
        <time>2020-08-07T15:29:48Z</time>
      </trkpt>
      <trkpt lat="45.62877" lon="6.82331">
        <ele>1348.2</ele>
        <time>2020-08-07T15:29:50Z</time>
      </trkpt>
      <trkpt lat="45.62855" lon="6.82345">
        <ele>1347.1</ele>
        <time>2020-08-07T15:29:52Z</time>
      </trkpt>
      <trkpt lat="45.62842" lon="6.82346">
        <ele>1346.5</ele>
        <time>2020-08-07T15:29:53Z</time>
      </trkpt>
      <trkpt lat="45.62816" lon="6.82347">
        <ele>1345.1</ele>
        <time>2020-08-07T15:29:55Z</time>
      </trkpt>
      <trkpt lat="45.62803" lon="6.82348">
        <ele>1344.4</ele>
        <time>2020-08-07T15:29:56Z</time>
      </trkpt>
      <trkpt lat="45.6279" lon="6.82351">
        <ele>1343.7</ele>
        <time>2020-08-07T15:29:57Z</time>
      </trkpt>
      <trkpt lat="45.62763" lon="6.82355">
        <ele>1342.4</ele>
        <time>2020-08-07T15:29:59Z</time>
      </trkpt>
      <trkpt lat="45.62749" lon="6.82354">
        <ele>1341.7</ele>
        <time>2020-08-07T15:30:00Z</time>
      </trkpt>
      <trkpt lat="45.62722" lon="6.82351">
        <ele>1340.2</ele>
        <time>2020-08-07T15:30:02Z</time>
      </trkpt>
      <trkpt lat="45.62708" lon="6.82351">
        <ele>1339.5</ele>
        <time>2020-08-07T15:30:03Z</time>
      </trkpt>
      <trkpt lat="45.62681" lon="6.82357">
        <ele>1338.1</ele>
        <time>2020-08-07T15:30:05Z</time>
      </trkpt>
      <trkpt lat="45.62668" lon="6.82359">
        <ele>1337.5</ele>
        <time>2020-08-07T15:30:06Z</time>
      </trkpt>
      <trkpt lat="45.62644" lon="6.8235">
        <ele>1336.2</ele>
        <time>2020-08-07T15:30:08Z</time>
      </trkpt>
      <trkpt lat="45.62622" lon="6.82336">
        <ele>1334.8</ele>
        <time>2020-08-07T15:30:10Z</time>
      </trkpt>
      <trkpt lat="45.62599" lon="6.82344">
        <ele>1333.4</ele>
        <time>2020-08-07T15:30:12Z</time>
      </trkpt>
      <trkpt lat="45.62576" lon="6.82359">
        <ele>1332.1</ele>
        <time>2020-08-07T15:30:14Z</time>
      </trkpt>
      <trkpt lat="45.62551" lon="6.82367">
        <ele>1330.9</ele>
        <time>2020-08-07T15:30:16Z</time>
      </trkpt>
      <trkpt lat="45.62526" lon="6.82376">
        <ele>1329.6</ele>
        <time>2020-08-07T15:30:18Z</time>
      </trkpt>
      <trkpt lat="45.62514" lon="6.82381">
        <ele>1329</ele>
        <time>2020-08-07T15:30:19Z</time>
      </trkpt>
      <trkpt lat="45.62502" lon="6.82387">
        <ele>1328.3</ele>
        <time>2020-08-07T15:30:20Z</time>
      </trkpt>
      <trkpt lat="45.62476" lon="6.82389">
        <ele>1326.8</ele>
        <time>2020-08-07T15:30:22Z</time>
      </trkpt>
      <trkpt lat="45.62453" lon="6.82379">
        <ele>1325.6</ele>
        <time>2020-08-07T15:30:24Z</time>
      </trkpt>
      <trkpt lat="45.62434" lon="6.8238">
        <ele>1324.5</ele>
        <time>2020-08-07T15:30:26Z</time>
      </trkpt>
      <trkpt lat="45.62425" lon="6.82389">
        <ele>1323.8</ele>
        <time>2020-08-07T15:30:27Z</time>
      </trkpt>
      <trkpt lat="45.62411" lon="6.82416">
        <ele>1322.4</ele>
        <time>2020-08-07T15:30:29Z</time>
      </trkpt>
      <trkpt lat="45.62403" lon="6.82429">
        <ele>1321.7</ele>
        <time>2020-08-07T15:30:30Z</time>
      </trkpt>
      <trkpt lat="45.62393" lon="6.8244">
        <ele>1321</ele>
        <time>2020-08-07T15:30:31Z</time>
      </trkpt>
      <trkpt lat="45.62372" lon="6.8246">
        <ele>1319.6</ele>
        <time>2020-08-07T15:30:33Z</time>
      </trkpt>
      <trkpt lat="45.62352" lon="6.82485">
        <ele>1318.1</ele>
        <time>2020-08-07T15:30:35Z</time>
      </trkpt>
      <trkpt lat="45.62333" lon="6.82516">
        <ele>1316.6</ele>
        <time>2020-08-07T15:30:37Z</time>
      </trkpt>
      <trkpt lat="45.62319" lon="6.8255">
        <ele>1315.1</ele>
        <time>2020-08-07T15:30:39Z</time>
      </trkpt>
      <trkpt lat="45.62314" lon="6.82568">
        <ele>1314.5</ele>
        <time>2020-08-07T15:30:40Z</time>
      </trkpt>
      <trkpt lat="45.62309" lon="6.82606">
        <ele>1313.1</ele>
        <time>2020-08-07T15:30:42Z</time>
      </trkpt>
      <trkpt lat="45.62312" lon="6.82645">
        <ele>1311.6</ele>
        <time>2020-08-07T15:30:44Z</time>
      </trkpt>
      <trkpt lat="45.62316" lon="6.82686">
        <ele>1310</ele>
        <time>2020-08-07T15:30:46Z</time>
      </trkpt>
      <trkpt lat="45.62316" lon="6.82708">
        <ele>1309.2</ele>
        <time>2020-08-07T15:30:47Z</time>
      </trkpt>
      <trkpt lat="45.62312" lon="6.82747">
        <ele>1307.7</ele>
        <time>2020-08-07T15:30:49Z</time>
      </trkpt>
      <trkpt lat="45.62308" lon="6.82766">
        <ele>1306.9</ele>
        <time>2020-08-07T15:30:50Z</time>
      </trkpt>
      <trkpt lat="45.62304" lon="6.82785">
        <ele>1306.3</ele>
        <time>2020-08-07T15:30:51Z</time>
      </trkpt>
      <trkpt lat="45.62297" lon="6.82816">
        <ele>1305.5</ele>
        <time>2020-08-07T15:30:53Z</time>
      </trkpt>
      <trkpt lat="45.62294" lon="6.82827">
        <ele>1305.2</ele>
        <time>2020-08-07T15:30:54Z</time>
      </trkpt>
      <trkpt lat="45.62282" lon="6.82834">
        <ele>1304.5</ele>
        <time>2020-08-07T15:30:56Z</time>
      </trkpt>
      <trkpt lat="45.62276" lon="6.82826">
        <ele>1304.1</ele>
        <time>2020-08-07T15:30:57Z</time>
      </trkpt>
      <trkpt lat="45.62277" lon="6.82801">
        <ele>1303.3</ele>
        <time>2020-08-07T15:30:59Z</time>
      </trkpt>
      <trkpt lat="45.62282" lon="6.82789">
        <ele>1303.1</ele>
        <time>2020-08-07T15:31:00Z</time>
      </trkpt>
      <trkpt lat="45.62293" lon="6.82768">
        <ele>1302.8</ele>
        <time>2020-08-07T15:31:02Z</time>
      </trkpt>
      <trkpt lat="45.62298" lon="6.82756">
        <ele>1302.6</ele>
        <time>2020-08-07T15:31:03Z</time>
      </trkpt>
      <trkpt lat="45.62303" lon="6.82727">
        <ele>1302.2</ele>
        <time>2020-08-07T15:31:05Z</time>
      </trkpt>
      <trkpt lat="45.62304" lon="6.82711">
        <ele>1301.9</ele>
        <time>2020-08-07T15:31:06Z</time>
      </trkpt>
      <trkpt lat="45.62299" lon="6.82679">
        <ele>1301.3</ele>
        <time>2020-08-07T15:31:08Z</time>
      </trkpt>
      <trkpt lat="45.62294" lon="6.82664">
        <ele>1300.9</ele>
        <time>2020-08-07T15:31:09Z</time>
      </trkpt>
      <trkpt lat="45.62284" lon="6.82634">
        <ele>1299.8</ele>
        <time>2020-08-07T15:31:11Z</time>
      </trkpt>
      <trkpt lat="45.62279" lon="6.82619">
        <ele>1299.3</ele>
        <time>2020-08-07T15:31:12Z</time>
      </trkpt>
      <trkpt lat="45.62276" lon="6.82602">
        <ele>1298.7</ele>
        <time>2020-08-07T15:31:13Z</time>
      </trkpt>
      <trkpt lat="45.62277" lon="6.82567">
        <ele>1297.6</ele>
        <time>2020-08-07T15:31:15Z</time>
      </trkpt>
      <trkpt lat="45.62286" lon="6.82533">
        <ele>1296.3</ele>
        <time>2020-08-07T15:31:17Z</time>
      </trkpt>
      <trkpt lat="45.62291" lon="6.82517">
        <ele>1295.6</ele>
        <time>2020-08-07T15:31:18Z</time>
      </trkpt>
      <trkpt lat="45.62303" lon="6.82485">
        <ele>1294.2</ele>
        <time>2020-08-07T15:31:20Z</time>
      </trkpt>
      <trkpt lat="45.62309" lon="6.8247">
        <ele>1293.5</ele>
        <time>2020-08-07T15:31:21Z</time>
      </trkpt>
      <trkpt lat="45.6232" lon="6.82437">
        <ele>1292</ele>
        <time>2020-08-07T15:31:23Z</time>
      </trkpt>
      <trkpt lat="45.62334" lon="6.82403">
        <ele>1290.6</ele>
        <time>2020-08-07T15:31:25Z</time>
      </trkpt>
      <trkpt lat="45.62342" lon="6.82385">
        <ele>1289.8</ele>
        <time>2020-08-07T15:31:26Z</time>
      </trkpt>
      <trkpt lat="45.6235" lon="6.82368">
        <ele>1289</ele>
        <time>2020-08-07T15:31:27Z</time>
      </trkpt>
      <trkpt lat="45.6236" lon="6.82351">
        <ele>1288.1</ele>
        <time>2020-08-07T15:31:28Z</time>
      </trkpt>
      <trkpt lat="45.62369" lon="6.82333">
        <ele>1287.3</ele>
        <time>2020-08-07T15:31:29Z</time>
      </trkpt>
      <trkpt lat="45.62378" lon="6.82315">
        <ele>1286.4</ele>
        <time>2020-08-07T15:31:30Z</time>
      </trkpt>
      <trkpt lat="45.62397" lon="6.82282">
        <ele>1284.5</ele>
        <time>2020-08-07T15:31:32Z</time>
      </trkpt>
      <trkpt lat="45.62407" lon="6.82266">
        <ele>1283.5</ele>
        <time>2020-08-07T15:31:33Z</time>
      </trkpt>
      <trkpt lat="45.6243" lon="6.82241">
        <ele>1281.9</ele>
        <time>2020-08-07T15:31:35Z</time>
      </trkpt>
      <trkpt lat="45.62441" lon="6.8223">
        <ele>1281.1</ele>
        <time>2020-08-07T15:31:36Z</time>
      </trkpt>
      <trkpt lat="45.62454" lon="6.82224">
        <ele>1280.3</ele>
        <time>2020-08-07T15:31:37Z</time>
      </trkpt>
      <trkpt lat="45.62481" lon="6.82216">
        <ele>1278.7</ele>
        <time>2020-08-07T15:31:39Z</time>
      </trkpt>
      <trkpt lat="45.62508" lon="6.82208">
        <ele>1277</ele>
        <time>2020-08-07T15:31:41Z</time>
      </trkpt>
      <trkpt lat="45.62522" lon="6.82202">
        <ele>1276.3</ele>
        <time>2020-08-07T15:31:42Z</time>
      </trkpt>
      <trkpt lat="45.62535" lon="6.82194">
        <ele>1275.5</ele>
        <time>2020-08-07T15:31:43Z</time>
      </trkpt>
      <trkpt lat="45.62561" lon="6.82184">
        <ele>1274</ele>
        <time>2020-08-07T15:31:45Z</time>
      </trkpt>
      <trkpt lat="45.62575" lon="6.82183">
        <ele>1273.3</ele>
        <time>2020-08-07T15:31:46Z</time>
      </trkpt>
      <trkpt lat="45.62589" lon="6.82184">
        <ele>1272.5</ele>
        <time>2020-08-07T15:31:47Z</time>
      </trkpt>
      <trkpt lat="45.62603" lon="6.82186">
        <ele>1271.8</ele>
        <time>2020-08-07T15:31:48Z</time>
      </trkpt>
      <trkpt lat="45.62617" lon="6.82186">
        <ele>1270.9</ele>
        <time>2020-08-07T15:31:49Z</time>
      </trkpt>
      <trkpt lat="45.62644" lon="6.82173">
        <ele>1268.9</ele>
        <time>2020-08-07T15:31:51Z</time>
      </trkpt>
      <trkpt lat="45.62656" lon="6.82165">
        <ele>1267.9</ele>
        <time>2020-08-07T15:31:52Z</time>
      </trkpt>
      <trkpt lat="45.62669" lon="6.82155">
        <ele>1266.8</ele>
        <time>2020-08-07T15:31:53Z</time>
      </trkpt>
      <trkpt lat="45.62693" lon="6.82131">
        <ele>1264.9</ele>
        <time>2020-08-07T15:31:55Z</time>
      </trkpt>
      <trkpt lat="45.62703" lon="6.82115">
        <ele>1263.9</ele>
        <time>2020-08-07T15:31:56Z</time>
      </trkpt>
      <trkpt lat="45.6272" lon="6.82088">
        <ele>1262.1</ele>
        <time>2020-08-07T15:31:58Z</time>
      </trkpt>
      <trkpt lat="45.62741" lon="6.82073">
        <ele>1260.3</ele>
        <time>2020-08-07T15:32:00Z</time>
      </trkpt>
      <trkpt lat="45.62766" lon="6.82065">
        <ele>1258.4</ele>
        <time>2020-08-07T15:32:02Z</time>
      </trkpt>
      <trkpt lat="45.62779" lon="6.8206">
        <ele>1257.4</ele>
        <time>2020-08-07T15:32:03Z</time>
      </trkpt>
      <trkpt lat="45.62805" lon="6.82049">
        <ele>1255.5</ele>
        <time>2020-08-07T15:32:05Z</time>
      </trkpt>
      <trkpt lat="45.62832" lon="6.82039">
        <ele>1253.4</ele>
        <time>2020-08-07T15:32:07Z</time>
      </trkpt>
      <trkpt lat="45.62845" lon="6.82033">
        <ele>1252.3</ele>
        <time>2020-08-07T15:32:08Z</time>
      </trkpt>
      <trkpt lat="45.62865" lon="6.82022">
        <ele>1250.8</ele>
        <time>2020-08-07T15:32:10Z</time>
      </trkpt>
      <trkpt lat="45.62872" lon="6.82015">
        <ele>1250.2</ele>
        <time>2020-08-07T15:32:11Z</time>
      </trkpt>
      <trkpt lat="45.62875" lon="6.81997">
        <ele>1249.3</ele>
        <time>2020-08-07T15:32:13Z</time>
      </trkpt>
      <trkpt lat="45.62869" lon="6.81989">
        <ele>1248.7</ele>
        <time>2020-08-07T15:32:14Z</time>
      </trkpt>
      <trkpt lat="45.62854" lon="6.81994">
        <ele>1247.7</ele>
        <time>2020-08-07T15:32:16Z</time>
      </trkpt>
      <trkpt lat="45.62846" lon="6.82">
        <ele>1247.1</ele>
        <time>2020-08-07T15:32:17Z</time>
      </trkpt>
      <trkpt lat="45.62839" lon="6.82006">
        <ele>1246.6</ele>
        <time>2020-08-07T15:32:18Z</time>
      </trkpt>
      <trkpt lat="45.62821" lon="6.82016">
        <ele>1245.4</ele>
        <time>2020-08-07T15:32:20Z</time>
      </trkpt>
      <trkpt lat="45.628" lon="6.82023">
        <ele>1244</ele>
        <time>2020-08-07T15:32:22Z</time>
      </trkpt>
      <trkpt lat="45.62778" lon="6.82029">
        <ele>1242.5</ele>
        <time>2020-08-07T15:32:24Z</time>
      </trkpt>
      <trkpt lat="45.62765" lon="6.8203">
        <ele>1241.7</ele>
        <time>2020-08-07T15:32:25Z</time>
      </trkpt>
      <trkpt lat="45.62753" lon="6.82032">
        <ele>1240.8</ele>
        <time>2020-08-07T15:32:26Z</time>
      </trkpt>
      <trkpt lat="45.62727" lon="6.82027">
        <ele>1238.9</ele>
        <time>2020-08-07T15:32:28Z</time>
      </trkpt>
      <trkpt lat="45.62715" lon="6.82022">
        <ele>1238</ele>
        <time>2020-08-07T15:32:29Z</time>
      </trkpt>
      <trkpt lat="45.62692" lon="6.82025">
        <ele>1236.4</ele>
        <time>2020-08-07T15:32:31Z</time>
      </trkpt>
      <trkpt lat="45.6267" lon="6.82045">
        <ele>1234.8</ele>
        <time>2020-08-07T15:32:33Z</time>
      </trkpt>
      <trkpt lat="45.6266" lon="6.82056">
        <ele>1234</ele>
        <time>2020-08-07T15:32:34Z</time>
      </trkpt>
      <trkpt lat="45.62637" lon="6.82074">
        <ele>1232.4</ele>
        <time>2020-08-07T15:32:36Z</time>
      </trkpt>
      <trkpt lat="45.62612" lon="6.82083">
        <ele>1230.8</ele>
        <time>2020-08-07T15:32:38Z</time>
      </trkpt>
      <trkpt lat="45.62598" lon="6.82086">
        <ele>1229.9</ele>
        <time>2020-08-07T15:32:39Z</time>
      </trkpt>
      <trkpt lat="45.62585" lon="6.82087">
        <ele>1229</ele>
        <time>2020-08-07T15:32:40Z</time>
      </trkpt>
      <trkpt lat="45.62571" lon="6.82088">
        <ele>1228.2</ele>
        <time>2020-08-07T15:32:41Z</time>
      </trkpt>
      <trkpt lat="45.62543" lon="6.8209">
        <ele>1226.3</ele>
        <time>2020-08-07T15:32:43Z</time>
      </trkpt>
      <trkpt lat="45.62515" lon="6.82095">
        <ele>1224.3</ele>
        <time>2020-08-07T15:32:45Z</time>
      </trkpt>
      <trkpt lat="45.625" lon="6.82098">
        <ele>1223.1</ele>
        <time>2020-08-07T15:32:46Z</time>
      </trkpt>
      <trkpt lat="45.62471" lon="6.82103">
        <ele>1221.6</ele>
        <time>2020-08-07T15:32:48Z</time>
      </trkpt>
      <trkpt lat="45.62456" lon="6.82105">
        <ele>1221</ele>
        <time>2020-08-07T15:32:49Z</time>
      </trkpt>
      <trkpt lat="45.62426" lon="6.82113">
        <ele>1220.1</ele>
        <time>2020-08-07T15:32:51Z</time>
      </trkpt>
      <trkpt lat="45.62399" lon="6.82127">
        <ele>1219.2</ele>
        <time>2020-08-07T15:32:53Z</time>
      </trkpt>
      <trkpt lat="45.62386" lon="6.82136">
        <ele>1218.7</ele>
        <time>2020-08-07T15:32:54Z</time>
      </trkpt>
      <trkpt lat="45.62372" lon="6.82144">
        <ele>1218.2</ele>
        <time>2020-08-07T15:32:55Z</time>
      </trkpt>
      <trkpt lat="45.62345" lon="6.82163">
        <ele>1217</ele>
        <time>2020-08-07T15:32:57Z</time>
      </trkpt>
      <trkpt lat="45.62319" lon="6.82187">
        <ele>1215.9</ele>
        <time>2020-08-07T15:32:59Z</time>
      </trkpt>
      <trkpt lat="45.62295" lon="6.82214">
        <ele>1215.1</ele>
        <time>2020-08-07T15:33:01Z</time>
      </trkpt>
      <trkpt lat="45.62269" lon="6.82236">
        <ele>1214.4</ele>
        <time>2020-08-07T15:33:03Z</time>
      </trkpt>
      <trkpt lat="45.62242" lon="6.82254">
        <ele>1213.5</ele>
        <time>2020-08-07T15:33:05Z</time>
      </trkpt>
      <trkpt lat="45.62218" lon="6.82272">
        <ele>1211.2</ele>
        <time>2020-08-07T15:33:07Z</time>
      </trkpt>
      <trkpt lat="45.62207" lon="6.82282">
        <ele>1210</ele>
        <time>2020-08-07T15:33:08Z</time>
      </trkpt>
      <trkpt lat="45.62186" lon="6.82306">
        <ele>1207.7</ele>
        <time>2020-08-07T15:33:10Z</time>
      </trkpt>
      <trkpt lat="45.62177" lon="6.82319">
        <ele>1206.5</ele>
        <time>2020-08-07T15:33:11Z</time>
      </trkpt>
      <trkpt lat="45.62159" lon="6.82343">
        <ele>1204.2</ele>
        <time>2020-08-07T15:33:13Z</time>
      </trkpt>
      <trkpt lat="45.6215" lon="6.82354">
        <ele>1203.1</ele>
        <time>2020-08-07T15:33:14Z</time>
      </trkpt>
      <trkpt lat="45.62131" lon="6.82375">
        <ele>1201</ele>
        <time>2020-08-07T15:33:16Z</time>
      </trkpt>
      <trkpt lat="45.62111" lon="6.82396">
        <ele>1198.8</ele>
        <time>2020-08-07T15:33:18Z</time>
      </trkpt>
      <trkpt lat="45.62095" lon="6.82423">
        <ele>1197.3</ele>
        <time>2020-08-07T15:33:20Z</time>
      </trkpt>
      <trkpt lat="45.6209" lon="6.8244">
        <ele>1196.8</ele>
        <time>2020-08-07T15:33:21Z</time>
      </trkpt>
      <trkpt lat="45.62086" lon="6.82456">
        <ele>1196.3</ele>
        <time>2020-08-07T15:33:22Z</time>
      </trkpt>
      <trkpt lat="45.62075" lon="6.82487">
        <ele>1195.6</ele>
        <time>2020-08-07T15:33:24Z</time>
      </trkpt>
      <trkpt lat="45.62069" lon="6.825">
        <ele>1195.2</ele>
        <time>2020-08-07T15:33:25Z</time>
      </trkpt>
      <trkpt lat="45.62062" lon="6.82512">
        <ele>1194.9</ele>
        <time>2020-08-07T15:33:26Z</time>
      </trkpt>
      <trkpt lat="45.62052" lon="6.82533">
        <ele>1194.6</ele>
        <time>2020-08-07T15:33:28Z</time>
      </trkpt>
      <trkpt lat="45.62049" lon="6.82544">
        <ele>1194.5</ele>
        <time>2020-08-07T15:33:29Z</time>
      </trkpt>
      <trkpt lat="45.62039" lon="6.82552">
        <ele>1194.3</ele>
        <time>2020-08-07T15:33:31Z</time>
      </trkpt>
      <trkpt lat="45.62032" lon="6.82537">
        <ele>1193.9</ele>
        <time>2020-08-07T15:33:33Z</time>
      </trkpt>
      <trkpt lat="45.62034" lon="6.82527">
        <ele>1193.6</ele>
        <time>2020-08-07T15:33:34Z</time>
      </trkpt>
      <trkpt lat="45.62039" lon="6.82519">
        <ele>1193.3</ele>
        <time>2020-08-07T15:33:35Z</time>
      </trkpt>
      <trkpt lat="45.62051" lon="6.82505">
        <ele>1192.6</ele>
        <time>2020-08-07T15:33:37Z</time>
      </trkpt>
      <trkpt lat="45.62057" lon="6.82496">
        <ele>1192.2</ele>
        <time>2020-08-07T15:33:38Z</time>
      </trkpt>
      <trkpt lat="45.62069" lon="6.82471">
        <ele>1191.1</ele>
        <time>2020-08-07T15:33:40Z</time>
      </trkpt>
      <trkpt lat="45.62074" lon="6.82456">
        <ele>1190.6</ele>
        <time>2020-08-07T15:33:41Z</time>
      </trkpt>
      <trkpt lat="45.62079" lon="6.8244">
        <ele>1190</ele>
        <time>2020-08-07T15:33:42Z</time>
      </trkpt>
      <trkpt lat="45.62083" lon="6.82424">
        <ele>1189.3</ele>
        <time>2020-08-07T15:33:43Z</time>
      </trkpt>
      <trkpt lat="45.62094" lon="6.82391">
        <ele>1187.6</ele>
        <time>2020-08-07T15:33:45Z</time>
      </trkpt>
      <trkpt lat="45.62107" lon="6.82358">
        <ele>1185.7</ele>
        <time>2020-08-07T15:33:47Z</time>
      </trkpt>
      <trkpt lat="45.6212" lon="6.82324">
        <ele>1183.9</ele>
        <time>2020-08-07T15:33:49Z</time>
      </trkpt>
      <trkpt lat="45.62129" lon="6.8231">
        <ele>1183.1</ele>
        <time>2020-08-07T15:33:50Z</time>
      </trkpt>
      <trkpt lat="45.6214" lon="6.82298">
        <ele>1182.2</ele>
        <time>2020-08-07T15:33:51Z</time>
      </trkpt>
      <trkpt lat="45.62163" lon="6.82279">
        <ele>1180.3</ele>
        <time>2020-08-07T15:33:53Z</time>
      </trkpt>
      <trkpt lat="45.62173" lon="6.82269">
        <ele>1179.6</ele>
        <time>2020-08-07T15:33:54Z</time>
      </trkpt>
      <trkpt lat="45.62188" lon="6.82241">
        <ele>1178.3</ele>
        <time>2020-08-07T15:33:56Z</time>
      </trkpt>
      <trkpt lat="45.62197" lon="6.82208">
        <ele>1177.2</ele>
        <time>2020-08-07T15:33:58Z</time>
      </trkpt>
      <trkpt lat="45.62206" lon="6.82174">
        <ele>1176</ele>
        <time>2020-08-07T15:34:00Z</time>
      </trkpt>
      <trkpt lat="45.62212" lon="6.82157">
        <ele>1175.3</ele>
        <time>2020-08-07T15:34:01Z</time>
      </trkpt>
      <trkpt lat="45.62219" lon="6.82141">
        <ele>1174.6</ele>
        <time>2020-08-07T15:34:02Z</time>
      </trkpt>
      <trkpt lat="45.62239" lon="6.82113">
        <ele>1173.1</ele>
        <time>2020-08-07T15:34:04Z</time>
      </trkpt>
      <trkpt lat="45.62251" lon="6.82102">
        <ele>1172.4</ele>
        <time>2020-08-07T15:34:05Z</time>
      </trkpt>
      <trkpt lat="45.62275" lon="6.82088">
        <ele>1171.1</ele>
        <time>2020-08-07T15:34:07Z</time>
      </trkpt>
      <trkpt lat="45.62298" lon="6.82072">
        <ele>1169.8</ele>
        <time>2020-08-07T15:34:09Z</time>
      </trkpt>
      <trkpt lat="45.62317" lon="6.82044">
        <ele>1168.2</ele>
        <time>2020-08-07T15:34:11Z</time>
      </trkpt>
      <trkpt lat="45.62333" lon="6.82011">
        <ele>1166.5</ele>
        <time>2020-08-07T15:34:13Z</time>
      </trkpt>
      <trkpt lat="45.62342" lon="6.81994">
        <ele>1165.7</ele>
        <time>2020-08-07T15:34:14Z</time>
      </trkpt>
      <trkpt lat="45.62362" lon="6.81965">
        <ele>1164.2</ele>
        <time>2020-08-07T15:34:16Z</time>
      </trkpt>
      <trkpt lat="45.62385" lon="6.81941">
        <ele>1162.5</ele>
        <time>2020-08-07T15:34:18Z</time>
      </trkpt>
      <trkpt lat="45.6241" lon="6.8192">
        <ele>1160.7</ele>
        <time>2020-08-07T15:34:20Z</time>
      </trkpt>
      <trkpt lat="45.62436" lon="6.81901">
        <ele>1158.9</ele>
        <time>2020-08-07T15:34:22Z</time>
      </trkpt>
      <trkpt lat="45.6245" lon="6.81891">
        <ele>1158.5</ele>
        <time>2020-08-07T15:34:23Z</time>
      </trkpt>
      <trkpt lat="45.62477" lon="6.8187">
        <ele>1157.2</ele>
        <time>2020-08-07T15:34:25Z</time>
      </trkpt>
      <trkpt lat="45.62503" lon="6.81847">
        <ele>1155.6</ele>
        <time>2020-08-07T15:34:27Z</time>
      </trkpt>
      <trkpt lat="45.62516" lon="6.81836">
        <ele>1154.8</ele>
        <time>2020-08-07T15:34:28Z</time>
      </trkpt>
      <trkpt lat="45.62529" lon="6.81827">
        <ele>1153.9</ele>
        <time>2020-08-07T15:34:29Z</time>
      </trkpt>
      <trkpt lat="45.62541" lon="6.8182">
        <ele>1153.2</ele>
        <time>2020-08-07T15:34:30Z</time>
      </trkpt>
      <trkpt lat="45.62566" lon="6.81817">
        <ele>1151.7</ele>
        <time>2020-08-07T15:34:32Z</time>
      </trkpt>
      <trkpt lat="45.62579" lon="6.81814">
        <ele>1150.8</ele>
        <time>2020-08-07T15:34:33Z</time>
      </trkpt>
      <trkpt lat="45.62602" lon="6.81796">
        <ele>1149.3</ele>
        <time>2020-08-07T15:34:35Z</time>
      </trkpt>
      <trkpt lat="45.62611" lon="6.81783">
        <ele>1148.6</ele>
        <time>2020-08-07T15:34:36Z</time>
      </trkpt>
      <trkpt lat="45.62627" lon="6.81753">
        <ele>1147.1</ele>
        <time>2020-08-07T15:34:38Z</time>
      </trkpt>
      <trkpt lat="45.62646" lon="6.81725">
        <ele>1145.3</ele>
        <time>2020-08-07T15:34:40Z</time>
      </trkpt>
      <trkpt lat="45.62665" lon="6.81692">
        <ele>1143.6</ele>
        <time>2020-08-07T15:34:42Z</time>
      </trkpt>
      <trkpt lat="45.62673" lon="6.81674">
        <ele>1142.7</ele>
        <time>2020-08-07T15:34:43Z</time>
      </trkpt>
      <trkpt lat="45.62688" lon="6.8164">
        <ele>1141.4</ele>
        <time>2020-08-07T15:34:45Z</time>
      </trkpt>
      <trkpt lat="45.62699" lon="6.81616">
        <ele>1140.5</ele>
        <time>2020-08-07T15:34:47Z</time>
      </trkpt>
      <trkpt lat="45.62702" lon="6.81607">
        <ele>1140.1</ele>
        <time>2020-08-07T15:34:48Z</time>
      </trkpt>
      <trkpt lat="45.62701" lon="6.8159">
        <ele>1139.6</ele>
        <time>2020-08-07T15:34:50Z</time>
      </trkpt>
      <trkpt lat="45.62695" lon="6.81585">
        <ele>1139.2</ele>
        <time>2020-08-07T15:34:51Z</time>
      </trkpt>
      <trkpt lat="45.62688" lon="6.81586">
        <ele>1138.9</ele>
        <time>2020-08-07T15:34:52Z</time>
      </trkpt>
      <trkpt lat="45.62683" lon="6.81592">
        <ele>1138.5</ele>
        <time>2020-08-07T15:34:53Z</time>
      </trkpt>
      <trkpt lat="45.62669" lon="6.81614">
        <ele>1137.4</ele>
        <time>2020-08-07T15:34:55Z</time>
      </trkpt>
      <trkpt lat="45.62661" lon="6.81625">
        <ele>1136.8</ele>
        <time>2020-08-07T15:34:56Z</time>
      </trkpt>
      <trkpt lat="45.62653" lon="6.81636">
        <ele>1136.1</ele>
        <time>2020-08-07T15:34:57Z</time>
      </trkpt>
      <trkpt lat="45.62636" lon="6.8166">
        <ele>1134.9</ele>
        <time>2020-08-07T15:34:59Z</time>
      </trkpt>
      <trkpt lat="45.62626" lon="6.81672">
        <ele>1134.2</ele>
        <time>2020-08-07T15:35:00Z</time>
      </trkpt>
      <trkpt lat="45.62616" lon="6.81683">
        <ele>1133.6</ele>
        <time>2020-08-07T15:35:01Z</time>
      </trkpt>
      <trkpt lat="45.62594" lon="6.81703">
        <ele>1132.3</ele>
        <time>2020-08-07T15:35:03Z</time>
      </trkpt>
      <trkpt lat="45.62583" lon="6.81713">
        <ele>1131.6</ele>
        <time>2020-08-07T15:35:04Z</time>
      </trkpt>
      <trkpt lat="45.62571" lon="6.81723">
        <ele>1130.9</ele>
        <time>2020-08-07T15:35:05Z</time>
      </trkpt>
      <trkpt lat="45.62545" lon="6.81733">
        <ele>1129.4</ele>
        <time>2020-08-07T15:35:07Z</time>
      </trkpt>
      <trkpt lat="45.62531" lon="6.81734">
        <ele>1128.6</ele>
        <time>2020-08-07T15:35:08Z</time>
      </trkpt>
      <trkpt lat="45.62504" lon="6.81734">
        <ele>1127.1</ele>
        <time>2020-08-07T15:35:10Z</time>
      </trkpt>
      <trkpt lat="45.62476" lon="6.81735">
        <ele>1125.7</ele>
        <time>2020-08-07T15:35:12Z</time>
      </trkpt>
      <trkpt lat="45.62462" lon="6.81737">
        <ele>1124.9</ele>
        <time>2020-08-07T15:35:13Z</time>
      </trkpt>
      <trkpt lat="45.62435" lon="6.81743">
        <ele>1123.4</ele>
        <time>2020-08-07T15:35:15Z</time>
      </trkpt>
      <trkpt lat="45.62408" lon="6.81753">
        <ele>1121.9</ele>
        <time>2020-08-07T15:35:17Z</time>
      </trkpt>
      <trkpt lat="45.62381" lon="6.81763">
        <ele>1120.3</ele>
        <time>2020-08-07T15:35:19Z</time>
      </trkpt>
      <trkpt lat="45.62368" lon="6.81768">
        <ele>1119.5</ele>
        <time>2020-08-07T15:35:20Z</time>
      </trkpt>
      <trkpt lat="45.62343" lon="6.81781">
        <ele>1118.1</ele>
        <time>2020-08-07T15:35:22Z</time>
      </trkpt>
      <trkpt lat="45.62332" lon="6.81792">
        <ele>1117.4</ele>
        <time>2020-08-07T15:35:23Z</time>
      </trkpt>
      <trkpt lat="45.62314" lon="6.81819">
        <ele>1115.9</ele>
        <time>2020-08-07T15:35:25Z</time>
      </trkpt>
      <trkpt lat="45.62305" lon="6.81834">
        <ele>1115.1</ele>
        <time>2020-08-07T15:35:26Z</time>
      </trkpt>
      <trkpt lat="45.62286" lon="6.81863">
        <ele>1113.4</ele>
        <time>2020-08-07T15:35:28Z</time>
      </trkpt>
      <trkpt lat="45.62263" lon="6.81885">
        <ele>1111.8</ele>
        <time>2020-08-07T15:35:30Z</time>
      </trkpt>
      <trkpt lat="45.62249" lon="6.8189">
        <ele>1111.1</ele>
        <time>2020-08-07T15:35:31Z</time>
      </trkpt>
      <trkpt lat="45.62236" lon="6.81893">
        <ele>1110.4</ele>
        <time>2020-08-07T15:35:32Z</time>
      </trkpt>
      <trkpt lat="45.62224" lon="6.81895">
        <ele>1109.8</ele>
        <time>2020-08-07T15:35:33Z</time>
      </trkpt>
      <trkpt lat="45.62201" lon="6.81908">
        <ele>1108.6</ele>
        <time>2020-08-07T15:35:35Z</time>
      </trkpt>
      <trkpt lat="45.6219" lon="6.81919">
        <ele>1107.9</ele>
        <time>2020-08-07T15:35:36Z</time>
      </trkpt>
      <trkpt lat="45.6217" lon="6.81947">
        <ele>1106.3</ele>
        <time>2020-08-07T15:35:38Z</time>
      </trkpt>
      <trkpt lat="45.62148" lon="6.81978">
        <ele>1104.6</ele>
        <time>2020-08-07T15:35:40Z</time>
      </trkpt>
      <trkpt lat="45.62124" lon="6.82009">
        <ele>1102.9</ele>
        <time>2020-08-07T15:35:42Z</time>
      </trkpt>
      <trkpt lat="45.621" lon="6.8204">
        <ele>1101.1</ele>
        <time>2020-08-07T15:35:44Z</time>
      </trkpt>
      <trkpt lat="45.62087" lon="6.82056">
        <ele>1100.1</ele>
        <time>2020-08-07T15:35:45Z</time>
      </trkpt>
      <trkpt lat="45.62061" lon="6.82085">
        <ele>1098.3</ele>
        <time>2020-08-07T15:35:47Z</time>
      </trkpt>
      <trkpt lat="45.62036" lon="6.82111">
        <ele>1097</ele>
        <time>2020-08-07T15:35:49Z</time>
      </trkpt>
      <trkpt lat="45.62015" lon="6.82142">
        <ele>1096</ele>
        <time>2020-08-07T15:35:51Z</time>
      </trkpt>
      <trkpt lat="45.62006" lon="6.82159">
        <ele>1095.5</ele>
        <time>2020-08-07T15:35:52Z</time>
      </trkpt>
      <trkpt lat="45.61997" lon="6.82175">
        <ele>1094.9</ele>
        <time>2020-08-07T15:35:53Z</time>
      </trkpt>
      <trkpt lat="45.61975" lon="6.822">
        <ele>1093.7</ele>
        <time>2020-08-07T15:35:55Z</time>
      </trkpt>
      <trkpt lat="45.61962" lon="6.82212">
        <ele>1093.1</ele>
        <time>2020-08-07T15:35:56Z</time>
      </trkpt>
      <trkpt lat="45.6194" lon="6.82234">
        <ele>1092.2</ele>
        <time>2020-08-07T15:35:58Z</time>
      </trkpt>
      <trkpt lat="45.61924" lon="6.8226">
        <ele>1091.6</ele>
        <time>2020-08-07T15:36:00Z</time>
      </trkpt>
      <trkpt lat="45.61914" lon="6.82289">
        <ele>1091.3</ele>
        <time>2020-08-07T15:36:02Z</time>
      </trkpt>
      <trkpt lat="45.61911" lon="6.82303">
        <ele>1091.1</ele>
        <time>2020-08-07T15:36:03Z</time>
      </trkpt>
      <trkpt lat="45.61902" lon="6.82323">
        <ele>1090.8</ele>
        <time>2020-08-07T15:36:05Z</time>
      </trkpt>
      <trkpt lat="45.61891" lon="6.82319">
        <ele>1090.2</ele>
        <time>2020-08-07T15:36:07Z</time>
      </trkpt>
      <trkpt lat="45.61893" lon="6.82295">
        <ele>1088.7</ele>
        <time>2020-08-07T15:36:09Z</time>
      </trkpt>
      <trkpt lat="45.61898" lon="6.82283">
        <ele>1087.9</ele>
        <time>2020-08-07T15:36:10Z</time>
      </trkpt>
      <trkpt lat="45.61911" lon="6.82256">
        <ele>1086.1</ele>
        <time>2020-08-07T15:36:12Z</time>
      </trkpt>
      <trkpt lat="45.61924" lon="6.82226">
        <ele>1084.3</ele>
        <time>2020-08-07T15:36:14Z</time>
      </trkpt>
      <trkpt lat="45.6193" lon="6.82209">
        <ele>1083.3</ele>
        <time>2020-08-07T15:36:15Z</time>
      </trkpt>
      <trkpt lat="45.61937" lon="6.82193">
        <ele>1082.3</ele>
        <time>2020-08-07T15:36:16Z</time>
      </trkpt>
      <trkpt lat="45.61944" lon="6.82177">
        <ele>1081.2</ele>
        <time>2020-08-07T15:36:17Z</time>
      </trkpt>
      <trkpt lat="45.61953" lon="6.8216">
        <ele>1080</ele>
        <time>2020-08-07T15:36:18Z</time>
      </trkpt>
      <trkpt lat="45.6197" lon="6.82128">
        <ele>1077.6</ele>
        <time>2020-08-07T15:36:20Z</time>
      </trkpt>
      <trkpt lat="45.61978" lon="6.82111">
        <ele>1076.4</ele>
        <time>2020-08-07T15:36:21Z</time>
      </trkpt>
      <trkpt lat="45.61987" lon="6.82093">
        <ele>1075.2</ele>
        <time>2020-08-07T15:36:22Z</time>
      </trkpt>
      <trkpt lat="45.61996" lon="6.82075">
        <ele>1074</ele>
        <time>2020-08-07T15:36:23Z</time>
      </trkpt>
      <trkpt lat="45.62005" lon="6.82059">
        <ele>1072.8</ele>
        <time>2020-08-07T15:36:24Z</time>
      </trkpt>
      <trkpt lat="45.62022" lon="6.82029">
        <ele>1070.9</ele>
        <time>2020-08-07T15:36:26Z</time>
      </trkpt>
      <trkpt lat="45.62038" lon="6.82002">
        <ele>1069.3</ele>
        <time>2020-08-07T15:36:28Z</time>
      </trkpt>
      <trkpt lat="45.62052" lon="6.81975">
        <ele>1068.1</ele>
        <time>2020-08-07T15:36:30Z</time>
      </trkpt>
      <trkpt lat="45.62058" lon="6.81963">
        <ele>1067.7</ele>
        <time>2020-08-07T15:36:31Z</time>
      </trkpt>
      <trkpt lat="45.62068" lon="6.81939">
        <ele>1066.9</ele>
        <time>2020-08-07T15:36:33Z</time>
      </trkpt>
      <trkpt lat="45.62073" lon="6.81923">
        <ele>1066.4</ele>
        <time>2020-08-07T15:36:34Z</time>
      </trkpt>
      <trkpt lat="45.62079" lon="6.8189">
        <ele>1065.3</ele>
        <time>2020-08-07T15:36:36Z</time>
      </trkpt>
      <trkpt lat="45.62082" lon="6.81873">
        <ele>1064.6</ele>
        <time>2020-08-07T15:36:37Z</time>
      </trkpt>
      <trkpt lat="45.62088" lon="6.81839">
        <ele>1063.1</ele>
        <time>2020-08-07T15:36:39Z</time>
      </trkpt>
      <trkpt lat="45.62095" lon="6.81804">
        <ele>1061.6</ele>
        <time>2020-08-07T15:36:41Z</time>
      </trkpt>
      <trkpt lat="45.621" lon="6.81787">
        <ele>1060.8</ele>
        <time>2020-08-07T15:36:42Z</time>
      </trkpt>
      <trkpt lat="45.62105" lon="6.81769">
        <ele>1060.1</ele>
        <time>2020-08-07T15:36:43Z</time>
      </trkpt>
      <trkpt lat="45.62112" lon="6.81752">
        <ele>1059.2</ele>
        <time>2020-08-07T15:36:44Z</time>
      </trkpt>
      <trkpt lat="45.62121" lon="6.81735">
        <ele>1058.2</ele>
        <time>2020-08-07T15:36:45Z</time>
      </trkpt>
      <trkpt lat="45.6214" lon="6.81706">
        <ele>1057.2</ele>
        <time>2020-08-07T15:36:47Z</time>
      </trkpt>
      <trkpt lat="45.62162" lon="6.8168">
        <ele>1056</ele>
        <time>2020-08-07T15:36:49Z</time>
      </trkpt>
      <trkpt lat="45.62174" lon="6.81669">
        <ele>1055.3</ele>
        <time>2020-08-07T15:36:50Z</time>
      </trkpt>
      <trkpt lat="45.62197" lon="6.81649">
        <ele>1053.9</ele>
        <time>2020-08-07T15:36:52Z</time>
      </trkpt>
      <trkpt lat="45.62209" lon="6.81638">
        <ele>1053.2</ele>
        <time>2020-08-07T15:36:53Z</time>
      </trkpt>
      <trkpt lat="45.62228" lon="6.81617">
        <ele>1052.1</ele>
        <time>2020-08-07T15:36:55Z</time>
      </trkpt>
      <trkpt lat="45.62234" lon="6.81602">
        <ele>1051.5</ele>
        <time>2020-08-07T15:36:56Z</time>
      </trkpt>
      <trkpt lat="45.62239" lon="6.81568">
        <ele>1050.5</ele>
        <time>2020-08-07T15:36:58Z</time>
      </trkpt>
      <trkpt lat="45.62242" lon="6.81552">
        <ele>1050</ele>
        <time>2020-08-07T15:36:59Z</time>
      </trkpt>
      <trkpt lat="45.62246" lon="6.81538">
        <ele>1049.5</ele>
        <time>2020-08-07T15:37:00Z</time>
      </trkpt>
      <trkpt lat="45.62262" lon="6.81515">
        <ele>1048.4</ele>
        <time>2020-08-07T15:37:02Z</time>
      </trkpt>
      <trkpt lat="45.62284" lon="6.81497">
        <ele>1047.2</ele>
        <time>2020-08-07T15:37:04Z</time>
      </trkpt>
      <trkpt lat="45.62295" lon="6.81488">
        <ele>1046.6</ele>
        <time>2020-08-07T15:37:05Z</time>
      </trkpt>
      <trkpt lat="45.62318" lon="6.8147">
        <ele>1045.3</ele>
        <time>2020-08-07T15:37:07Z</time>
      </trkpt>
      <trkpt lat="45.6233" lon="6.81461">
        <ele>1044.6</ele>
        <time>2020-08-07T15:37:08Z</time>
      </trkpt>
      <trkpt lat="45.62355" lon="6.81449">
        <ele>1043.2</ele>
        <time>2020-08-07T15:37:10Z</time>
      </trkpt>
      <trkpt lat="45.62368" lon="6.81444">
        <ele>1042.5</ele>
        <time>2020-08-07T15:37:11Z</time>
      </trkpt>
      <trkpt lat="45.62394" lon="6.81429">
        <ele>1040.9</ele>
        <time>2020-08-07T15:37:13Z</time>
      </trkpt>
      <trkpt lat="45.62405" lon="6.81416">
        <ele>1040.1</ele>
        <time>2020-08-07T15:37:14Z</time>
      </trkpt>
      <trkpt lat="45.62422" lon="6.81382">
        <ele>1038.8</ele>
        <time>2020-08-07T15:37:16Z</time>
      </trkpt>
      <trkpt lat="45.62428" lon="6.81365">
        <ele>1038.2</ele>
        <time>2020-08-07T15:37:17Z</time>
      </trkpt>
      <trkpt lat="45.62445" lon="6.81338">
        <ele>1037</ele>
        <time>2020-08-07T15:37:19Z</time>
      </trkpt>
      <trkpt lat="45.62469" lon="6.81319">
        <ele>1035.6</ele>
        <time>2020-08-07T15:37:21Z</time>
      </trkpt>
      <trkpt lat="45.62482" lon="6.81311">
        <ele>1035</ele>
        <time>2020-08-07T15:37:22Z</time>
      </trkpt>
      <trkpt lat="45.62494" lon="6.81301">
        <ele>1034.4</ele>
        <time>2020-08-07T15:37:23Z</time>
      </trkpt>
      <trkpt lat="45.62515" lon="6.81282">
        <ele>1033.3</ele>
        <time>2020-08-07T15:37:25Z</time>
      </trkpt>
      <trkpt lat="45.62533" lon="6.81269">
        <ele>1032.3</ele>
        <time>2020-08-07T15:37:27Z</time>
      </trkpt>
      <trkpt lat="45.62552" lon="6.81277">
        <ele>1031.2</ele>
        <time>2020-08-07T15:37:29Z</time>
      </trkpt>
      <trkpt lat="45.62571" lon="6.81295">
        <ele>1029.9</ele>
        <time>2020-08-07T15:37:31Z</time>
      </trkpt>
      <trkpt lat="45.62591" lon="6.81307">
        <ele>1028.6</ele>
        <time>2020-08-07T15:37:33Z</time>
      </trkpt>
      <trkpt lat="45.62602" lon="6.81307">
        <ele>1027.9</ele>
        <time>2020-08-07T15:37:34Z</time>
      </trkpt>
      <trkpt lat="45.62625" lon="6.81293">
        <ele>1026.4</ele>
        <time>2020-08-07T15:37:36Z</time>
      </trkpt>
      <trkpt lat="45.62635" lon="6.81283">
        <ele>1025.7</ele>
        <time>2020-08-07T15:37:37Z</time>
      </trkpt>
      <trkpt lat="45.62645" lon="6.81273">
        <ele>1025</ele>
        <time>2020-08-07T15:37:38Z</time>
      </trkpt>
      <trkpt lat="45.62654" lon="6.81264">
        <ele>1024.4</ele>
        <time>2020-08-07T15:37:39Z</time>
      </trkpt>
      <trkpt lat="45.62663" lon="6.81257">
        <ele>1023.8</ele>
        <time>2020-08-07T15:37:40Z</time>
      </trkpt>
      <trkpt lat="45.6267" lon="6.8125">
        <ele>1023.4</ele>
        <time>2020-08-07T15:37:41Z</time>
      </trkpt>
      <trkpt lat="45.62682" lon="6.81234">
        <ele>1022.5</ele>
        <time>2020-08-07T15:37:43Z</time>
      </trkpt>
      <trkpt lat="45.62686" lon="6.81222">
        <ele>1021.7</ele>
        <time>2020-08-07T15:37:44Z</time>
      </trkpt>
      <trkpt lat="45.62689" lon="6.81194">
        <ele>1019.9</ele>
        <time>2020-08-07T15:37:46Z</time>
      </trkpt>
      <trkpt lat="45.62691" lon="6.81178">
        <ele>1019</ele>
        <time>2020-08-07T15:37:47Z</time>
      </trkpt>
      <trkpt lat="45.62691" lon="6.81144">
        <ele>1016.9</ele>
        <time>2020-08-07T15:37:49Z</time>
      </trkpt>
      <trkpt lat="45.62689" lon="6.81125">
        <ele>1015.8</ele>
        <time>2020-08-07T15:37:50Z</time>
      </trkpt>
      <trkpt lat="45.62682" lon="6.81088">
        <ele>1013.4</ele>
        <time>2020-08-07T15:37:52Z</time>
      </trkpt>
      <trkpt lat="45.62679" lon="6.81069">
        <ele>1012.1</ele>
        <time>2020-08-07T15:37:53Z</time>
      </trkpt>
      <trkpt lat="45.62677" lon="6.81032">
        <ele>1009.5</ele>
        <time>2020-08-07T15:37:55Z</time>
      </trkpt>
      <trkpt lat="45.62679" lon="6.80997">
        <ele>1007.3</ele>
        <time>2020-08-07T15:37:57Z</time>
      </trkpt>
      <trkpt lat="45.6268" lon="6.8098">
        <ele>1006.2</ele>
        <time>2020-08-07T15:37:58Z</time>
      </trkpt>
      <trkpt lat="45.6268" lon="6.80963">
        <ele>1005.1</ele>
        <time>2020-08-07T15:37:59Z</time>
      </trkpt>
      <trkpt lat="45.62681" lon="6.80934">
        <ele>1003.5</ele>
        <time>2020-08-07T15:38:01Z</time>
      </trkpt>
      <trkpt lat="45.62681" lon="6.80922">
        <ele>1002.8</ele>
        <time>2020-08-07T15:38:02Z</time>
      </trkpt>
      <trkpt lat="45.62675" lon="6.80904">
        <ele>1001.6</ele>
        <time>2020-08-07T15:38:04Z</time>
      </trkpt>
      <trkpt lat="45.62661" lon="6.80898">
        <ele>1001.5</ele>
        <time>2020-08-07T15:38:06Z</time>
      </trkpt>
      <trkpt lat="45.62646" lon="6.80908">
        <ele>1001.2</ele>
        <time>2020-08-07T15:38:08Z</time>
      </trkpt>
      <trkpt lat="45.62633" lon="6.80929">
        <ele>1000.8</ele>
        <time>2020-08-07T15:38:10Z</time>
      </trkpt>
      <trkpt lat="45.62618" lon="6.80952">
        <ele>1000.2</ele>
        <time>2020-08-07T15:38:12Z</time>
      </trkpt>
      <trkpt lat="45.62602" lon="6.8098">
        <ele>999.5</ele>
        <time>2020-08-07T15:38:14Z</time>
      </trkpt>
      <trkpt lat="45.62595" lon="6.80995">
        <ele>999.1</ele>
        <time>2020-08-07T15:38:15Z</time>
      </trkpt>
      <trkpt lat="45.62588" lon="6.81012">
        <ele>998.6</ele>
        <time>2020-08-07T15:38:16Z</time>
      </trkpt>
      <trkpt lat="45.62576" lon="6.81047">
        <ele>997.7</ele>
        <time>2020-08-07T15:38:18Z</time>
      </trkpt>
      <trkpt lat="45.6257" lon="6.81065">
        <ele>997.3</ele>
        <time>2020-08-07T15:38:19Z</time>
      </trkpt>
      <trkpt lat="45.62559" lon="6.81102">
        <ele>996.6</ele>
        <time>2020-08-07T15:38:21Z</time>
      </trkpt>
      <trkpt lat="45.62548" lon="6.81135">
        <ele>996.2</ele>
        <time>2020-08-07T15:38:23Z</time>
      </trkpt>
      <trkpt lat="45.62537" lon="6.81156">
        <ele>996</ele>
        <time>2020-08-07T15:38:25Z</time>
      </trkpt>
      <trkpt lat="45.62522" lon="6.81158">
        <ele>995.6</ele>
        <time>2020-08-07T15:38:27Z</time>
      </trkpt>
      <trkpt lat="45.62515" lon="6.81146">
        <ele>994.4</ele>
        <time>2020-08-07T15:38:28Z</time>
      </trkpt>
      <trkpt lat="45.62509" lon="6.81117">
        <ele>992.4</ele>
        <time>2020-08-07T15:38:30Z</time>
      </trkpt>
      <trkpt lat="45.62506" lon="6.81085">
        <ele>990.3</ele>
        <time>2020-08-07T15:38:32Z</time>
      </trkpt>
      <trkpt lat="45.62504" lon="6.81067">
        <ele>989.1</ele>
        <time>2020-08-07T15:38:33Z</time>
      </trkpt>
      <trkpt lat="45.62498" lon="6.8103">
        <ele>986.7</ele>
        <time>2020-08-07T15:38:35Z</time>
      </trkpt>
      <trkpt lat="45.62492" lon="6.80992">
        <ele>984.1</ele>
        <time>2020-08-07T15:38:37Z</time>
      </trkpt>
      <trkpt lat="45.62489" lon="6.80972">
        <ele>982.8</ele>
        <time>2020-08-07T15:38:38Z</time>
      </trkpt>
      <trkpt lat="45.62483" lon="6.80931">
        <ele>980.1</ele>
        <time>2020-08-07T15:38:40Z</time>
      </trkpt>
      <trkpt lat="45.6248" lon="6.8091">
        <ele>978.7</ele>
        <time>2020-08-07T15:38:41Z</time>
      </trkpt>
      <trkpt lat="45.62474" lon="6.80869">
        <ele>976</ele>
        <time>2020-08-07T15:38:43Z</time>
      </trkpt>
      <trkpt lat="45.62471" lon="6.80849">
        <ele>974.8</ele>
        <time>2020-08-07T15:38:44Z</time>
      </trkpt>
      <trkpt lat="45.62469" lon="6.80833">
        <ele>973.7</ele>
        <time>2020-08-07T15:38:45Z</time>
      </trkpt>
      <trkpt lat="45.62466" lon="6.80819">
        <ele>972.8</ele>
        <time>2020-08-07T15:38:46Z</time>
      </trkpt>
      <trkpt lat="45.62457" lon="6.80797">
        <ele>971.1</ele>
        <time>2020-08-07T15:38:48Z</time>
      </trkpt>
      <trkpt lat="45.62441" lon="6.80795">
        <ele>969.4</ele>
        <time>2020-08-07T15:38:50Z</time>
      </trkpt>
      <trkpt lat="45.62434" lon="6.80804">
        <ele>968.8</ele>
        <time>2020-08-07T15:38:51Z</time>
      </trkpt>
      <trkpt lat="45.62423" lon="6.80828">
        <ele>968.1</ele>
        <time>2020-08-07T15:38:53Z</time>
      </trkpt>
      <trkpt lat="45.62418" lon="6.80841">
        <ele>967.7</ele>
        <time>2020-08-07T15:38:54Z</time>
      </trkpt>
      <trkpt lat="45.62406" lon="6.80869">
        <ele>966.8</ele>
        <time>2020-08-07T15:38:56Z</time>
      </trkpt>
      <trkpt lat="45.624" lon="6.80884">
        <ele>966.3</ele>
        <time>2020-08-07T15:38:57Z</time>
      </trkpt>
      <trkpt lat="45.62393" lon="6.80899">
        <ele>965.8</ele>
        <time>2020-08-07T15:38:58Z</time>
      </trkpt>
      <trkpt lat="45.62387" lon="6.80915">
        <ele>965</ele>
        <time>2020-08-07T15:38:59Z</time>
      </trkpt>
      <trkpt lat="45.62373" lon="6.80948">
        <ele>963.5</ele>
        <time>2020-08-07T15:39:01Z</time>
      </trkpt>
      <trkpt lat="45.6236" lon="6.8098">
        <ele>961.8</ele>
        <time>2020-08-07T15:39:03Z</time>
      </trkpt>
      <trkpt lat="45.62353" lon="6.80997">
        <ele>960.8</ele>
        <time>2020-08-07T15:39:04Z</time>
      </trkpt>
      <trkpt lat="45.62339" lon="6.81029">
        <ele>959</ele>
        <time>2020-08-07T15:39:06Z</time>
      </trkpt>
      <trkpt lat="45.62332" lon="6.81045">
        <ele>958.2</ele>
        <time>2020-08-07T15:39:07Z</time>
      </trkpt>
      <trkpt lat="45.62326" lon="6.81062">
        <ele>957.4</ele>
        <time>2020-08-07T15:39:08Z</time>
      </trkpt>
      <trkpt lat="45.62316" lon="6.81089">
        <ele>956.3</ele>
        <time>2020-08-07T15:39:10Z</time>
      </trkpt>
      <trkpt lat="45.62306" lon="6.81098">
        <ele>955.5</ele>
        <time>2020-08-07T15:39:12Z</time>
      </trkpt>
      <trkpt lat="45.62298" lon="6.81092">
        <ele>955.1</ele>
        <time>2020-08-07T15:39:13Z</time>
      </trkpt>
      <trkpt lat="45.62292" lon="6.8108">
        <ele>954.1</ele>
        <time>2020-08-07T15:39:14Z</time>
      </trkpt>
      <trkpt lat="45.62287" lon="6.81052">
        <ele>952.6</ele>
        <time>2020-08-07T15:39:16Z</time>
      </trkpt>
      <trkpt lat="45.62285" lon="6.81037">
        <ele>951.8</ele>
        <time>2020-08-07T15:39:17Z</time>
      </trkpt>
      <trkpt lat="45.62283" lon="6.81023">
        <ele>951.1</ele>
        <time>2020-08-07T15:39:18Z</time>
      </trkpt>
      <trkpt lat="45.62282" lon="6.81008">
        <ele>950.3</ele>
        <time>2020-08-07T15:39:19Z</time>
      </trkpt>
      <trkpt lat="45.62278" lon="6.80974">
        <ele>948.5</ele>
        <time>2020-08-07T15:39:21Z</time>
      </trkpt>
      <trkpt lat="45.62275" lon="6.80956">
        <ele>947.4</ele>
        <time>2020-08-07T15:39:22Z</time>
      </trkpt>
      <trkpt lat="45.6227" lon="6.8092">
        <ele>945.8</ele>
        <time>2020-08-07T15:39:24Z</time>
      </trkpt>
      <trkpt lat="45.62266" lon="6.80884">
        <ele>944.1</ele>
        <time>2020-08-07T15:39:26Z</time>
      </trkpt>
      <trkpt lat="45.62261" lon="6.8085">
        <ele>942.5</ele>
        <time>2020-08-07T15:39:28Z</time>
      </trkpt>
      <trkpt lat="45.62257" lon="6.80822">
        <ele>941.3</ele>
        <time>2020-08-07T15:39:30Z</time>
      </trkpt>
      <trkpt lat="45.62255" lon="6.80811">
        <ele>940.8</ele>
        <time>2020-08-07T15:39:31Z</time>
      </trkpt>
      <trkpt lat="45.62242" lon="6.80801">
        <ele>940.2</ele>
        <time>2020-08-07T15:39:33Z</time>
      </trkpt>
      <trkpt lat="45.62227" lon="6.80817">
        <ele>939.5</ele>
        <time>2020-08-07T15:39:35Z</time>
      </trkpt>
      <trkpt lat="45.6222" lon="6.80847">
        <ele>938.6</ele>
        <time>2020-08-07T15:39:37Z</time>
      </trkpt>
      <trkpt lat="45.62217" lon="6.80863">
        <ele>938.2</ele>
        <time>2020-08-07T15:39:38Z</time>
      </trkpt>
      <trkpt lat="45.6221" lon="6.80896">
        <ele>937.2</ele>
        <time>2020-08-07T15:39:40Z</time>
      </trkpt>
      <trkpt lat="45.62203" lon="6.80931">
        <ele>936.1</ele>
        <time>2020-08-07T15:39:42Z</time>
      </trkpt>
      <trkpt lat="45.62195" lon="6.80967">
        <ele>935.1</ele>
        <time>2020-08-07T15:39:44Z</time>
      </trkpt>
      <trkpt lat="45.62192" lon="6.80985">
        <ele>934.7</ele>
        <time>2020-08-07T15:39:45Z</time>
      </trkpt>
      <trkpt lat="45.62185" lon="6.8102">
        <ele>933.4</ele>
        <time>2020-08-07T15:39:47Z</time>
      </trkpt>
      <trkpt lat="45.62175" lon="6.81051">
        <ele>932</ele>
        <time>2020-08-07T15:39:49Z</time>
      </trkpt>
      <trkpt lat="45.62157" lon="6.81065">
        <ele>930.5</ele>
        <time>2020-08-07T15:39:51Z</time>
      </trkpt>
      <trkpt lat="45.62145" lon="6.81062">
        <ele>929.9</ele>
        <time>2020-08-07T15:39:52Z</time>
      </trkpt>
      <trkpt lat="45.62135" lon="6.81053">
        <ele>929.2</ele>
        <time>2020-08-07T15:39:53Z</time>
      </trkpt>
      <trkpt lat="45.62128" lon="6.81039">
        <ele>928.6</ele>
        <time>2020-08-07T15:39:54Z</time>
      </trkpt>
      <trkpt lat="45.62123" lon="6.81005">
        <ele>927.3</ele>
        <time>2020-08-07T15:39:56Z</time>
      </trkpt>
      <trkpt lat="45.62123" lon="6.80988">
        <ele>926.6</ele>
        <time>2020-08-07T15:39:57Z</time>
      </trkpt>
      <trkpt lat="45.62121" lon="6.80953">
        <ele>925.3</ele>
        <time>2020-08-07T15:39:59Z</time>
      </trkpt>
      <trkpt lat="45.6212" lon="6.80934">
        <ele>924.6</ele>
        <time>2020-08-07T15:40:00Z</time>
      </trkpt>
      <trkpt lat="45.62117" lon="6.80897">
        <ele>923.3</ele>
        <time>2020-08-07T15:40:02Z</time>
      </trkpt>
      <trkpt lat="45.62115" lon="6.80859">
        <ele>921.9</ele>
        <time>2020-08-07T15:40:04Z</time>
      </trkpt>
      <trkpt lat="45.62114" lon="6.80839">
        <ele>921</ele>
        <time>2020-08-07T15:40:05Z</time>
      </trkpt>
      <trkpt lat="45.62112" lon="6.8082">
        <ele>920.5</ele>
        <time>2020-08-07T15:40:06Z</time>
      </trkpt>
      <trkpt lat="45.6211" lon="6.80781">
        <ele>919.2</ele>
        <time>2020-08-07T15:40:08Z</time>
      </trkpt>
      <trkpt lat="45.62106" lon="6.80743">
        <ele>917.9</ele>
        <time>2020-08-07T15:40:10Z</time>
      </trkpt>
      <trkpt lat="45.62105" lon="6.80723">
        <ele>917.2</ele>
        <time>2020-08-07T15:40:11Z</time>
      </trkpt>
      <trkpt lat="45.62104" lon="6.80703">
        <ele>916.5</ele>
        <time>2020-08-07T15:40:12Z</time>
      </trkpt>
      <trkpt lat="45.62101" lon="6.80666">
        <ele>915.1</ele>
        <time>2020-08-07T15:40:14Z</time>
      </trkpt>
      <trkpt lat="45.62099" lon="6.80629">
        <ele>914.4</ele>
        <time>2020-08-07T15:40:16Z</time>
      </trkpt>
      <trkpt lat="45.62098" lon="6.8061">
        <ele>913.7</ele>
        <time>2020-08-07T15:40:17Z</time>
      </trkpt>
      <trkpt lat="45.62095" lon="6.80573">
        <ele>912.2</ele>
        <time>2020-08-07T15:40:19Z</time>
      </trkpt>
      <trkpt lat="45.62094" lon="6.80555">
        <ele>911.5</ele>
        <time>2020-08-07T15:40:20Z</time>
      </trkpt>
      <trkpt lat="45.62093" lon="6.80536">
        <ele>910.7</ele>
        <time>2020-08-07T15:40:21Z</time>
      </trkpt>
      <trkpt lat="45.62091" lon="6.80499">
        <ele>909.4</ele>
        <time>2020-08-07T15:40:23Z</time>
      </trkpt>
      <trkpt lat="45.62092" lon="6.8048">
        <ele>908.7</ele>
        <time>2020-08-07T15:40:24Z</time>
      </trkpt>
      <trkpt lat="45.62097" lon="6.80445">
        <ele>907.4</ele>
        <time>2020-08-07T15:40:26Z</time>
      </trkpt>
      <trkpt lat="45.62101" lon="6.80428">
        <ele>906.8</ele>
        <time>2020-08-07T15:40:27Z</time>
      </trkpt>
      <trkpt lat="45.6211" lon="6.80395">
        <ele>905.5</ele>
        <time>2020-08-07T15:40:29Z</time>
      </trkpt>
      <trkpt lat="45.6212" lon="6.80363">
        <ele>904.2</ele>
        <time>2020-08-07T15:40:31Z</time>
      </trkpt>
      <trkpt lat="45.62125" lon="6.80347">
        <ele>903.6</ele>
        <time>2020-08-07T15:40:32Z</time>
      </trkpt>
      <trkpt lat="45.6213" lon="6.80332">
        <ele>903.4</ele>
        <time>2020-08-07T15:40:33Z</time>
      </trkpt>
      <trkpt lat="45.6214" lon="6.80302">
        <ele>901.6</ele>
        <time>2020-08-07T15:40:35Z</time>
      </trkpt>
      <trkpt lat="45.62149" lon="6.80272">
        <ele>900.1</ele>
        <time>2020-08-07T15:40:37Z</time>
      </trkpt>
      <trkpt lat="45.62158" lon="6.80242">
        <ele>898.8</ele>
        <time>2020-08-07T15:40:39Z</time>
      </trkpt>
      <trkpt lat="45.62168" lon="6.80216">
        <ele>897.6</ele>
        <time>2020-08-07T15:40:41Z</time>
      </trkpt>
      <trkpt lat="45.62172" lon="6.80205">
        <ele>897.2</ele>
        <time>2020-08-07T15:40:42Z</time>
      </trkpt>
      <trkpt lat="45.62176" lon="6.80196">
        <ele>896.8</ele>
        <time>2020-08-07T15:40:43Z</time>
      </trkpt>
      <trkpt lat="45.62182" lon="6.80177">
        <ele>896.1</ele>
        <time>2020-08-07T15:40:45Z</time>
      </trkpt>
      <trkpt lat="45.62185" lon="6.8017">
        <ele>896</ele>
        <time>2020-08-07T15:40:46Z</time>
      </trkpt>
      <trkpt lat="45.6219" lon="6.80164">
        <ele>896</ele>
        <time>2020-08-07T15:40:48Z</time>
      </trkpt>
      <trkpt lat="45.62192" lon="6.80163">
        <ele>895.9</ele>
        <time>2020-08-07T15:40:49Z</time>
      </trkpt>
      <trkpt lat="45.62194" lon="6.8016">
        <ele>895.9</ele>
        <time>2020-08-07T15:40:51Z</time>
      </trkpt>
      <trkpt lat="45.62194" lon="6.80158">
        <ele>895.8</ele>
        <time>2020-08-07T15:40:52Z</time>
      </trkpt>
      <trkpt lat="45.62194" lon="6.80157">
        <ele>895.8</ele>
        <time>2020-08-07T15:40:53Z</time>
      </trkpt>
      <trkpt lat="45.62194" lon="6.80155">
        <ele>895.7</ele>
        <time>2020-08-07T15:40:55Z</time>
      </trkpt>
      <trkpt lat="45.62194" lon="6.80154">
        <ele>895.7</ele>
        <time>2020-08-07T15:40:57Z</time>
      </trkpt>
      <trkpt lat="45.62194" lon="6.80153">
        <ele>895.7</ele>
        <time>2020-08-07T15:40:58Z</time>
      </trkpt>
      <trkpt lat="45.62194" lon="6.80151">
        <ele>895.2</ele>
        <time>2020-08-07T15:40:59Z</time>
      </trkpt>
      <trkpt lat="45.62194" lon="6.8015">
        <ele>895.1</ele>
        <time>2020-08-07T15:41:01Z</time>
      </trkpt>
      <trkpt lat="45.62194" lon="6.80149">
        <ele>895.1</ele>
        <time>2020-08-07T15:41:03Z</time>
      </trkpt>
      <trkpt lat="45.62194" lon="6.80147">
        <ele>895</ele>
        <time>2020-08-07T15:41:04Z</time>
      </trkpt>
      <trkpt lat="45.62194" lon="6.80146">
        <ele>895</ele>
        <time>2020-08-07T15:41:05Z</time>
      </trkpt>
      <trkpt lat="45.62194" lon="6.80144">
        <ele>895</ele>
        <time>2020-08-07T15:41:07Z</time>
      </trkpt>
      <trkpt lat="45.62193" lon="6.80143">
        <ele>894.9</ele>
        <time>2020-08-07T15:41:09Z</time>
      </trkpt>
      <trkpt lat="45.62193" lon="6.80142">
        <ele>894.9</ele>
        <time>2020-08-07T15:41:10Z</time>
      </trkpt>
      <trkpt lat="45.62193" lon="6.8014">
        <ele>894.9</ele>
        <time>2020-08-07T15:41:12Z</time>
      </trkpt>
      <trkpt lat="45.62193" lon="6.80139">
        <ele>894.8</ele>
        <time>2020-08-07T15:42:16Z</time>
      </trkpt>
      <trkpt lat="45.62193" lon="6.80137">
        <ele>894.8</ele>
        <time>2020-08-07T15:42:18Z</time>
      </trkpt>
      <trkpt lat="45.62193" lon="6.80136">
        <ele>894.7</ele>
        <time>2020-08-07T15:42:20Z</time>
      </trkpt>
      <trkpt lat="45.62193" lon="6.80135">
        <ele>894.7</ele>
        <time>2020-08-07T15:42:22Z</time>
      </trkpt>
      <trkpt lat="45.62193" lon="6.80133">
        <ele>894.7</ele>
        <time>2020-08-07T15:42:23Z</time>
      </trkpt>
      <trkpt lat="45.62193" lon="6.80132">
        <ele>894.6</ele>
        <time>2020-08-07T15:42:25Z</time>
      </trkpt>
      <trkpt lat="45.62193" lon="6.80131">
        <ele>894.6</ele>
        <time>2020-08-07T15:42:27Z</time>
      </trkpt>
      <trkpt lat="45.62193" lon="6.80129">
        <ele>894.5</ele>
        <time>2020-08-07T15:42:28Z</time>
      </trkpt>
      <trkpt lat="45.62193" lon="6.80128">
        <ele>894.5</ele>
        <time>2020-08-07T15:47:42Z</time>
      </trkpt>
      <trkpt lat="45.62193" lon="6.80126">
        <ele>894.5</ele>
        <time>2020-08-07T15:47:43Z</time>
      </trkpt>
      <trkpt lat="45.62196" lon="6.80117">
        <ele>894.2</ele>
        <time>2020-08-07T15:47:44Z</time>
      </trkpt>
      <trkpt lat="45.62204" lon="6.80096">
        <ele>893.7</ele>
        <time>2020-08-07T15:47:46Z</time>
      </trkpt>
      <trkpt lat="45.62214" lon="6.80078">
        <ele>893.2</ele>
        <time>2020-08-07T15:47:48Z</time>
      </trkpt>
      <trkpt lat="45.62224" lon="6.80058">
        <ele>893</ele>
        <time>2020-08-07T15:47:50Z</time>
      </trkpt>
      <trkpt lat="45.62236" lon="6.80038">
        <ele>892.7</ele>
        <time>2020-08-07T15:47:52Z</time>
      </trkpt>
      <trkpt lat="45.62242" lon="6.80029">
        <ele>892.5</ele>
        <time>2020-08-07T15:47:53Z</time>
      </trkpt>
      <trkpt lat="45.62248" lon="6.8002">
        <ele>892.3</ele>
        <time>2020-08-07T15:47:54Z</time>
      </trkpt>
      <trkpt lat="45.62254" lon="6.80012">
        <ele>892.1</ele>
        <time>2020-08-07T15:47:55Z</time>
      </trkpt>
      <trkpt lat="45.62265" lon="6.79998">
        <ele>891.7</ele>
        <time>2020-08-07T15:47:57Z</time>
      </trkpt>
      <trkpt lat="45.6227" lon="6.7999">
        <ele>891.5</ele>
        <time>2020-08-07T15:47:58Z</time>
      </trkpt>
      <trkpt lat="45.62281" lon="6.79976">
        <ele>891.3</ele>
        <time>2020-08-07T15:48:00Z</time>
      </trkpt>
      <trkpt lat="45.62286" lon="6.79969">
        <ele>891</ele>
        <time>2020-08-07T15:48:01Z</time>
      </trkpt>
      <trkpt lat="45.62297" lon="6.79957">
        <ele>890.7</ele>
        <time>2020-08-07T15:48:03Z</time>
      </trkpt>
      <trkpt lat="45.62304" lon="6.79943">
        <ele>890.1</ele>
        <time>2020-08-07T15:48:05Z</time>
      </trkpt>
      <trkpt lat="45.62306" lon="6.79935">
        <ele>889.7</ele>
        <time>2020-08-07T15:48:06Z</time>
      </trkpt>
      <trkpt lat="45.6231" lon="6.79921">
        <ele>889.1</ele>
        <time>2020-08-07T15:48:08Z</time>
      </trkpt>
      <trkpt lat="45.62312" lon="6.79914">
        <ele>888.7</ele>
        <time>2020-08-07T15:48:09Z</time>
      </trkpt>
      <trkpt lat="45.62318" lon="6.79899">
        <ele>888</ele>
        <time>2020-08-07T15:48:11Z</time>
      </trkpt>
      <trkpt lat="45.62322" lon="6.79891">
        <ele>887.5</ele>
        <time>2020-08-07T15:48:12Z</time>
      </trkpt>
      <trkpt lat="45.62326" lon="6.79884">
        <ele>887.1</ele>
        <time>2020-08-07T15:48:13Z</time>
      </trkpt>
      <trkpt lat="45.62334" lon="6.79869">
        <ele>886.2</ele>
        <time>2020-08-07T15:48:15Z</time>
      </trkpt>
      <trkpt lat="45.62342" lon="6.79853">
        <ele>885.8</ele>
        <time>2020-08-07T15:48:17Z</time>
      </trkpt>
      <trkpt lat="45.6235" lon="6.79837">
        <ele>885.1</ele>
        <time>2020-08-07T15:48:19Z</time>
      </trkpt>
      <trkpt lat="45.62354" lon="6.79828">
        <ele>884.5</ele>
        <time>2020-08-07T15:48:20Z</time>
      </trkpt>
      <trkpt lat="45.62358" lon="6.79819">
        <ele>884</ele>
        <time>2020-08-07T15:48:21Z</time>
      </trkpt>
      <trkpt lat="45.62366" lon="6.79802">
        <ele>883</ele>
        <time>2020-08-07T15:48:23Z</time>
      </trkpt>
      <trkpt lat="45.6237" lon="6.79792">
        <ele>882.5</ele>
        <time>2020-08-07T15:48:24Z</time>
      </trkpt>
      <trkpt lat="45.62379" lon="6.79772">
        <ele>881.2</ele>
        <time>2020-08-07T15:48:26Z</time>
      </trkpt>
      <trkpt lat="45.62384" lon="6.79761">
        <ele>880.3</ele>
        <time>2020-08-07T15:48:27Z</time>
      </trkpt>
      <trkpt lat="45.62394" lon="6.7974">
        <ele>879.5</ele>
        <time>2020-08-07T15:48:29Z</time>
      </trkpt>
      <trkpt lat="45.62398" lon="6.79732">
        <ele>879.2</ele>
        <time>2020-08-07T15:48:30Z</time>
      </trkpt>
      <trkpt lat="45.62406" lon="6.79716">
        <ele>878.7</ele>
        <time>2020-08-07T15:48:32Z</time>
      </trkpt>
      <trkpt lat="45.62409" lon="6.79707">
        <ele>878.3</ele>
        <time>2020-08-07T15:48:33Z</time>
      </trkpt>
      <trkpt lat="45.62413" lon="6.79698">
        <ele>878</ele>
        <time>2020-08-07T15:48:34Z</time>
      </trkpt>
      <trkpt lat="45.62418" lon="6.79689">
        <ele>877.6</ele>
        <time>2020-08-07T15:48:35Z</time>
      </trkpt>
      <trkpt lat="45.62427" lon="6.79669">
        <ele>876.9</ele>
        <time>2020-08-07T15:48:37Z</time>
      </trkpt>
      <trkpt lat="45.62432" lon="6.79658">
        <ele>876.6</ele>
        <time>2020-08-07T15:48:38Z</time>
      </trkpt>
      <trkpt lat="45.62442" lon="6.79637">
        <ele>875.8</ele>
        <time>2020-08-07T15:48:40Z</time>
      </trkpt>
      <trkpt lat="45.62452" lon="6.79615">
        <ele>875</ele>
        <time>2020-08-07T15:48:42Z</time>
      </trkpt>
      <trkpt lat="45.62464" lon="6.79592">
        <ele>874.2</ele>
        <time>2020-08-07T15:48:44Z</time>
      </trkpt>
      <trkpt lat="45.62475" lon="6.79569">
        <ele>873.2</ele>
        <time>2020-08-07T15:48:46Z</time>
      </trkpt>
      <trkpt lat="45.62481" lon="6.79556">
        <ele>872.7</ele>
        <time>2020-08-07T15:48:47Z</time>
      </trkpt>
      <trkpt lat="45.62487" lon="6.79544">
        <ele>872.2</ele>
        <time>2020-08-07T15:48:48Z</time>
      </trkpt>
      <trkpt lat="45.62499" lon="6.7952">
        <ele>871.3</ele>
        <time>2020-08-07T15:48:50Z</time>
      </trkpt>
      <trkpt lat="45.62511" lon="6.79497">
        <ele>870.3</ele>
        <time>2020-08-07T15:48:52Z</time>
      </trkpt>
      <trkpt lat="45.62517" lon="6.79487">
        <ele>870.2</ele>
        <time>2020-08-07T15:48:53Z</time>
      </trkpt>
      <trkpt lat="45.62531" lon="6.79471">
        <ele>870</ele>
        <time>2020-08-07T15:48:55Z</time>
      </trkpt>
      <trkpt lat="45.62538" lon="6.79463">
        <ele>870.4</ele>
        <time>2020-08-07T15:48:56Z</time>
      </trkpt>
      <trkpt lat="45.62549" lon="6.79443">
        <ele>869.6</ele>
        <time>2020-08-07T15:48:58Z</time>
      </trkpt>
      <trkpt lat="45.62556" lon="6.79433">
        <ele>869.5</ele>
        <time>2020-08-07T15:48:59Z</time>
      </trkpt>
      <trkpt lat="45.62565" lon="6.79424">
        <ele>869.8</ele>
        <time>2020-08-07T15:49:00Z</time>
      </trkpt>
      <trkpt lat="45.62582" lon="6.79407">
        <ele>869.9</ele>
        <time>2020-08-07T15:49:02Z</time>
      </trkpt>
      <trkpt lat="45.62599" lon="6.79386">
        <ele>869.9</ele>
        <time>2020-08-07T15:49:04Z</time>
      </trkpt>
      <trkpt lat="45.62606" lon="6.79375">
        <ele>869.6</ele>
        <time>2020-08-07T15:49:05Z</time>
      </trkpt>
      <trkpt lat="45.62618" lon="6.7935">
        <ele>868.9</ele>
        <time>2020-08-07T15:49:07Z</time>
      </trkpt>
      <trkpt lat="45.62628" lon="6.79323">
        <ele>867.8</ele>
        <time>2020-08-07T15:49:09Z</time>
      </trkpt>
      <trkpt lat="45.62633" lon="6.79309">
        <ele>867.1</ele>
        <time>2020-08-07T15:49:10Z</time>
      </trkpt>
      <trkpt lat="45.62641" lon="6.79281">
        <ele>865.8</ele>
        <time>2020-08-07T15:49:12Z</time>
      </trkpt>
      <trkpt lat="45.62645" lon="6.79267">
        <ele>865.2</ele>
        <time>2020-08-07T15:49:13Z</time>
      </trkpt>
      <trkpt lat="45.6265" lon="6.79236">
        <ele>863.9</ele>
        <time>2020-08-07T15:49:15Z</time>
      </trkpt>
      <trkpt lat="45.62656" lon="6.79202">
        <ele>862.4</ele>
        <time>2020-08-07T15:49:17Z</time>
      </trkpt>
      <trkpt lat="45.62659" lon="6.79184">
        <ele>861.6</ele>
        <time>2020-08-07T15:49:18Z</time>
      </trkpt>
      <trkpt lat="45.62664" lon="6.79167">
        <ele>860.8</ele>
        <time>2020-08-07T15:49:19Z</time>
      </trkpt>
      <trkpt lat="45.62669" lon="6.79149">
        <ele>859.9</ele>
        <time>2020-08-07T15:49:20Z</time>
      </trkpt>
      <trkpt lat="45.62677" lon="6.79113">
        <ele>858.2</ele>
        <time>2020-08-07T15:49:22Z</time>
      </trkpt>
      <trkpt lat="45.6268" lon="6.79095">
        <ele>857.4</ele>
        <time>2020-08-07T15:49:23Z</time>
      </trkpt>
      <trkpt lat="45.62686" lon="6.79058">
        <ele>855.7</ele>
        <time>2020-08-07T15:49:25Z</time>
      </trkpt>
      <trkpt lat="45.6269" lon="6.79021">
        <ele>854</ele>
        <time>2020-08-07T15:49:27Z</time>
      </trkpt>
      <trkpt lat="45.62693" lon="6.79002">
        <ele>853.1</ele>
        <time>2020-08-07T15:49:28Z</time>
      </trkpt>
      <trkpt lat="45.62697" lon="6.78965">
        <ele>851.2</ele>
        <time>2020-08-07T15:49:30Z</time>
      </trkpt>
      <trkpt lat="45.62698" lon="6.78946">
        <ele>850.3</ele>
        <time>2020-08-07T15:49:31Z</time>
      </trkpt>
      <trkpt lat="45.62699" lon="6.78926">
        <ele>849.2</ele>
        <time>2020-08-07T15:49:32Z</time>
      </trkpt>
      <trkpt lat="45.62702" lon="6.78887">
        <ele>847.6</ele>
        <time>2020-08-07T15:49:34Z</time>
      </trkpt>
      <trkpt lat="45.62704" lon="6.78849">
        <ele>845.9</ele>
        <time>2020-08-07T15:49:36Z</time>
      </trkpt>
      <trkpt lat="45.62705" lon="6.7883">
        <ele>845</ele>
        <time>2020-08-07T15:49:37Z</time>
      </trkpt>
      <trkpt lat="45.62707" lon="6.78793">
        <ele>843.4</ele>
        <time>2020-08-07T15:49:39Z</time>
      </trkpt>
      <trkpt lat="45.6271" lon="6.78757">
        <ele>841.9</ele>
        <time>2020-08-07T15:49:41Z</time>
      </trkpt>
      <trkpt lat="45.62711" lon="6.7874">
        <ele>841.1</ele>
        <time>2020-08-07T15:49:42Z</time>
      </trkpt>
      <trkpt lat="45.62713" lon="6.78704">
        <ele>840.2</ele>
        <time>2020-08-07T15:49:44Z</time>
      </trkpt>
      <trkpt lat="45.62711" lon="6.7867">
        <ele>839.9</ele>
        <time>2020-08-07T15:49:46Z</time>
      </trkpt>
      <trkpt lat="45.62704" lon="6.78639">
        <ele>839.4</ele>
        <time>2020-08-07T15:49:48Z</time>
      </trkpt>
      <trkpt lat="45.62699" lon="6.78624">
        <ele>839.1</ele>
        <time>2020-08-07T15:49:49Z</time>
      </trkpt>
      <trkpt lat="45.62684" lon="6.78598">
        <ele>838.2</ele>
        <time>2020-08-07T15:49:51Z</time>
      </trkpt>
      <trkpt lat="45.62665" lon="6.78576">
        <ele>837.2</ele>
        <time>2020-08-07T15:49:53Z</time>
      </trkpt>
      <trkpt lat="45.62645" lon="6.78556">
        <ele>836.2</ele>
        <time>2020-08-07T15:49:55Z</time>
      </trkpt>
      <trkpt lat="45.62635" lon="6.78546">
        <ele>835.8</ele>
        <time>2020-08-07T15:49:56Z</time>
      </trkpt>
      <trkpt lat="45.62619" lon="6.78522">
        <ele>835</ele>
        <time>2020-08-07T15:49:58Z</time>
      </trkpt>
      <trkpt lat="45.62612" lon="6.78489">
        <ele>834</ele>
        <time>2020-08-07T15:50:00Z</time>
      </trkpt>
      <trkpt lat="45.62603" lon="6.78456">
        <ele>833.2</ele>
        <time>2020-08-07T15:50:02Z</time>
      </trkpt>
      <trkpt lat="45.62598" lon="6.7844">
        <ele>832.8</ele>
        <time>2020-08-07T15:50:03Z</time>
      </trkpt>
      <trkpt lat="45.62594" lon="6.78423">
        <ele>832.4</ele>
        <time>2020-08-07T15:50:04Z</time>
      </trkpt>
      <trkpt lat="45.62589" lon="6.78407">
        <ele>832.1</ele>
        <time>2020-08-07T15:50:05Z</time>
      </trkpt>
      <trkpt lat="45.6258" lon="6.78374">
        <ele>831.3</ele>
        <time>2020-08-07T15:50:07Z</time>
      </trkpt>
      <trkpt lat="45.62575" lon="6.78357">
        <ele>830.8</ele>
        <time>2020-08-07T15:50:08Z</time>
      </trkpt>
      <trkpt lat="45.62568" lon="6.78323">
        <ele>829.9</ele>
        <time>2020-08-07T15:50:10Z</time>
      </trkpt>
      <trkpt lat="45.62565" lon="6.78286">
        <ele>828.7</ele>
        <time>2020-08-07T15:50:12Z</time>
      </trkpt>
      <trkpt lat="45.62565" lon="6.78268">
        <ele>827.9</ele>
        <time>2020-08-07T15:50:13Z</time>
      </trkpt>
      <trkpt lat="45.62566" lon="6.78248">
        <ele>827.3</ele>
        <time>2020-08-07T15:50:14Z</time>
      </trkpt>
      <trkpt lat="45.62567" lon="6.78212">
        <ele>826.2</ele>
        <time>2020-08-07T15:50:16Z</time>
      </trkpt>
      <trkpt lat="45.62566" lon="6.78193">
        <ele>825.7</ele>
        <time>2020-08-07T15:50:17Z</time>
      </trkpt>
      <trkpt lat="45.62564" lon="6.78175">
        <ele>825.3</ele>
        <time>2020-08-07T15:50:18Z</time>
      </trkpt>
      <trkpt lat="45.62558" lon="6.78141">
        <ele>824.5</ele>
        <time>2020-08-07T15:50:20Z</time>
      </trkpt>
      <trkpt lat="45.62548" lon="6.78109">
        <ele>823.5</ele>
        <time>2020-08-07T15:50:22Z</time>
      </trkpt>
      <trkpt lat="45.62542" lon="6.78093">
        <ele>823</ele>
        <time>2020-08-07T15:50:23Z</time>
      </trkpt>
      <trkpt lat="45.62531" lon="6.78063">
        <ele>822.2</ele>
        <time>2020-08-07T15:50:25Z</time>
      </trkpt>
      <trkpt lat="45.62524" lon="6.78048">
        <ele>821.7</ele>
        <time>2020-08-07T15:50:26Z</time>
      </trkpt>
      <trkpt lat="45.6251" lon="6.7802">
        <ele>821</ele>
        <time>2020-08-07T15:50:28Z</time>
      </trkpt>
      <trkpt lat="45.62494" lon="6.77994">
        <ele>820.2</ele>
        <time>2020-08-07T15:50:30Z</time>
      </trkpt>
      <trkpt lat="45.62477" lon="6.77971">
        <ele>819.3</ele>
        <time>2020-08-07T15:50:32Z</time>
      </trkpt>
      <trkpt lat="45.62468" lon="6.7796">
        <ele>818.7</ele>
        <time>2020-08-07T15:50:33Z</time>
      </trkpt>
      <trkpt lat="45.62459" lon="6.7795">
        <ele>817.9</ele>
        <time>2020-08-07T15:50:34Z</time>
      </trkpt>
      <trkpt lat="45.62441" lon="6.7793">
        <ele>816.7</ele>
        <time>2020-08-07T15:50:36Z</time>
      </trkpt>
      <trkpt lat="45.62432" lon="6.77919">
        <ele>816</ele>
        <time>2020-08-07T15:50:37Z</time>
      </trkpt>
      <trkpt lat="45.62423" lon="6.77908">
        <ele>815.4</ele>
        <time>2020-08-07T15:50:38Z</time>
      </trkpt>
      <trkpt lat="45.62407" lon="6.77887">
        <ele>814.3</ele>
        <time>2020-08-07T15:50:40Z</time>
      </trkpt>
      <trkpt lat="45.62389" lon="6.77868">
        <ele>813.3</ele>
        <time>2020-08-07T15:50:42Z</time>
      </trkpt>
      <trkpt lat="45.6238" lon="6.7786">
        <ele>812.8</ele>
        <time>2020-08-07T15:50:43Z</time>
      </trkpt>
      <trkpt lat="45.62372" lon="6.77851">
        <ele>812.6</ele>
        <time>2020-08-07T15:50:44Z</time>
      </trkpt>
      <trkpt lat="45.62363" lon="6.77842">
        <ele>812.3</ele>
        <time>2020-08-07T15:50:45Z</time>
      </trkpt>
      <trkpt lat="45.62347" lon="6.77823">
        <ele>811.4</ele>
        <time>2020-08-07T15:50:47Z</time>
      </trkpt>
      <trkpt lat="45.62339" lon="6.77814">
        <ele>811</ele>
        <time>2020-08-07T15:50:48Z</time>
      </trkpt>
      <trkpt lat="45.62327" lon="6.7779">
        <ele>810.3</ele>
        <time>2020-08-07T15:50:50Z</time>
      </trkpt>
      <trkpt lat="45.62317" lon="6.77765">
        <ele>809.5</ele>
        <time>2020-08-07T15:50:52Z</time>
      </trkpt>
      <trkpt lat="45.62307" lon="6.77742">
        <ele>809</ele>
        <time>2020-08-07T15:50:54Z</time>
      </trkpt>
      <trkpt lat="45.62297" lon="6.7772">
        <ele>808.8</ele>
        <time>2020-08-07T15:50:56Z</time>
      </trkpt>
      <trkpt lat="45.62287" lon="6.77699">
        <ele>808.6</ele>
        <time>2020-08-07T15:50:58Z</time>
      </trkpt>
      <trkpt lat="45.62277" lon="6.77679">
        <ele>808.5</ele>
        <time>2020-08-07T15:51:00Z</time>
      </trkpt>
      <trkpt lat="45.62273" lon="6.7767">
        <ele>808.6</ele>
        <time>2020-08-07T15:51:01Z</time>
      </trkpt>
      <trkpt lat="45.62264" lon="6.7765">
        <ele>808.6</ele>
        <time>2020-08-07T15:51:03Z</time>
      </trkpt>
      <trkpt lat="45.6226" lon="6.77641">
        <ele>808.6</ele>
        <time>2020-08-07T15:51:04Z</time>
      </trkpt>
      <trkpt lat="45.62253" lon="6.77623">
        <ele>808.4</ele>
        <time>2020-08-07T15:51:06Z</time>
      </trkpt>
      <trkpt lat="45.62245" lon="6.77607">
        <ele>808.3</ele>
        <time>2020-08-07T15:51:08Z</time>
      </trkpt>
      <trkpt lat="45.62241" lon="6.77598">
        <ele>808.3</ele>
        <time>2020-08-07T15:51:09Z</time>
      </trkpt>
      <trkpt lat="45.62234" lon="6.77582">
        <ele>808.2</ele>
        <time>2020-08-07T15:51:11Z</time>
      </trkpt>
      <trkpt lat="45.62231" lon="6.77575">
        <ele>808.2</ele>
        <time>2020-08-07T15:51:12Z</time>
      </trkpt>
      <trkpt lat="45.62226" lon="6.77564">
        <ele>808.2</ele>
        <time>2020-08-07T15:51:14Z</time>
      </trkpt>
      <trkpt lat="45.62224" lon="6.7756">
        <ele>808.2</ele>
        <time>2020-08-07T15:51:15Z</time>
      </trkpt>
      <trkpt lat="45.62222" lon="6.77555">
        <ele>808.2</ele>
        <time>2020-08-07T15:51:16Z</time>
      </trkpt>
      <trkpt lat="45.6222" lon="6.77551">
        <ele>808.2</ele>
        <time>2020-08-07T15:51:17Z</time>
      </trkpt>
      <trkpt lat="45.62217" lon="6.77545">
        <ele>808.1</ele>
        <time>2020-08-07T15:51:19Z</time>
      </trkpt>
      <trkpt lat="45.62212" lon="6.77536">
        <ele>808.1</ele>
        <time>2020-08-07T15:51:21Z</time>
      </trkpt>
      <trkpt lat="45.62211" lon="6.77533">
        <ele>808.1</ele>
        <time>2020-08-07T15:51:22Z</time>
      </trkpt>
      <trkpt lat="45.62204" lon="6.77516">
        <ele>808.1</ele>
        <time>2020-08-07T15:51:25Z</time>
      </trkpt>
      <trkpt lat="45.62199" lon="6.77503">
        <ele>808.1</ele>
        <time>2020-08-07T15:51:27Z</time>
      </trkpt>
      <trkpt lat="45.62195" lon="6.77495">
        <ele>808.2</ele>
        <time>2020-08-07T15:51:28Z</time>
      </trkpt>
      <trkpt lat="45.62192" lon="6.77487">
        <ele>808.4</ele>
        <time>2020-08-07T15:51:29Z</time>
      </trkpt>
      <trkpt lat="45.62184" lon="6.7747">
        <ele>808.7</ele>
        <time>2020-08-07T15:51:31Z</time>
      </trkpt>
      <trkpt lat="45.6218" lon="6.77462">
        <ele>808.8</ele>
        <time>2020-08-07T15:51:32Z</time>
      </trkpt>
      <trkpt lat="45.62177" lon="6.77453">
        <ele>808.9</ele>
        <time>2020-08-07T15:51:33Z</time>
      </trkpt>
      <trkpt lat="45.6217" lon="6.77436">
        <ele>809.1</ele>
        <time>2020-08-07T15:51:35Z</time>
      </trkpt>
      <trkpt lat="45.62167" lon="6.77428">
        <ele>809.2</ele>
        <time>2020-08-07T15:51:36Z</time>
      </trkpt>
      <trkpt lat="45.62164" lon="6.7742">
        <ele>809.4</ele>
        <time>2020-08-07T15:51:37Z</time>
      </trkpt>
      <trkpt lat="45.62157" lon="6.77403">
        <ele>809.5</ele>
        <time>2020-08-07T15:51:39Z</time>
      </trkpt>
      <trkpt lat="45.62152" lon="6.77386">
        <ele>809.6</ele>
        <time>2020-08-07T15:51:41Z</time>
      </trkpt>
      <trkpt lat="45.62146" lon="6.7737">
        <ele>809.8</ele>
        <time>2020-08-07T15:51:43Z</time>
      </trkpt>
      <trkpt lat="45.62143" lon="6.77362">
        <ele>810</ele>
        <time>2020-08-07T15:51:44Z</time>
      </trkpt>
      <trkpt lat="45.6214" lon="6.77354">
        <ele>810.2</ele>
        <time>2020-08-07T15:51:45Z</time>
      </trkpt>
      <trkpt lat="45.62135" lon="6.77338">
        <ele>810.6</ele>
        <time>2020-08-07T15:51:47Z</time>
      </trkpt>
      <trkpt lat="45.6213" lon="6.77323">
        <ele>811</ele>
        <time>2020-08-07T15:51:49Z</time>
      </trkpt>
      <trkpt lat="45.62125" lon="6.7731">
        <ele>811.5</ele>
        <time>2020-08-07T15:51:51Z</time>
      </trkpt>
      <trkpt lat="45.6212" lon="6.77298">
        <ele>811.9</ele>
        <time>2020-08-07T15:51:53Z</time>
      </trkpt>
      <trkpt lat="45.62115" lon="6.77285">
        <ele>812.3</ele>
        <time>2020-08-07T15:51:55Z</time>
      </trkpt>
      <trkpt lat="45.62112" lon="6.77278">
        <ele>812.5</ele>
        <time>2020-08-07T15:51:56Z</time>
      </trkpt>
      <trkpt lat="45.62109" lon="6.77271">
        <ele>812.7</ele>
        <time>2020-08-07T15:51:57Z</time>
      </trkpt>
      <trkpt lat="45.62102" lon="6.77257">
        <ele>813.3</ele>
        <time>2020-08-07T15:51:59Z</time>
      </trkpt>
      <trkpt lat="45.62097" lon="6.77242">
        <ele>813.5</ele>
        <time>2020-08-07T15:52:01Z</time>
      </trkpt>
      <trkpt lat="45.62094" lon="6.77235">
        <ele>813.5</ele>
        <time>2020-08-07T15:52:02Z</time>
      </trkpt>
      <trkpt lat="45.6209" lon="6.77227">
        <ele>813.5</ele>
        <time>2020-08-07T15:52:03Z</time>
      </trkpt>
      <trkpt lat="45.62084" lon="6.77211">
        <ele>813.6</ele>
        <time>2020-08-07T15:52:05Z</time>
      </trkpt>
      <trkpt lat="45.62081" lon="6.77204">
        <ele>813.6</ele>
        <time>2020-08-07T15:52:06Z</time>
      </trkpt>
      <trkpt lat="45.62077" lon="6.77196">
        <ele>813.7</ele>
        <time>2020-08-07T15:52:07Z</time>
      </trkpt>
      <trkpt lat="45.62074" lon="6.77188">
        <ele>813.7</ele>
        <time>2020-08-07T15:52:08Z</time>
      </trkpt>
      <trkpt lat="45.62068" lon="6.77173">
        <ele>814</ele>
        <time>2020-08-07T15:52:10Z</time>
      </trkpt>
      <trkpt lat="45.62065" lon="6.77166">
        <ele>814.2</ele>
        <time>2020-08-07T15:52:11Z</time>
      </trkpt>
      <trkpt lat="45.62062" lon="6.77158">
        <ele>814.4</ele>
        <time>2020-08-07T15:52:12Z</time>
      </trkpt>
      <trkpt lat="45.62056" lon="6.77144">
        <ele>814.8</ele>
        <time>2020-08-07T15:52:14Z</time>
      </trkpt>
      <trkpt lat="45.62053" lon="6.77137">
        <ele>814.9</ele>
        <time>2020-08-07T15:52:15Z</time>
      </trkpt>
      <trkpt lat="45.62049" lon="6.77125">
        <ele>815.1</ele>
        <time>2020-08-07T15:52:17Z</time>
      </trkpt>
      <trkpt lat="45.62049" lon="6.77109">
        <ele>815.2</ele>
        <time>2020-08-07T15:52:19Z</time>
      </trkpt>
      <trkpt lat="45.62046" lon="6.77101">
        <ele>815.4</ele>
        <time>2020-08-07T15:52:20Z</time>
      </trkpt>
      <trkpt lat="45.62038" lon="6.77092">
        <ele>815.6</ele>
        <time>2020-08-07T15:52:22Z</time>
      </trkpt>
      <trkpt lat="45.62032" lon="6.77092">
        <ele>815.7</ele>
        <time>2020-08-07T15:52:23Z</time>
      </trkpt>
      <trkpt lat="45.62027" lon="6.77094">
        <ele>815.8</ele>
        <time>2020-08-07T15:52:24Z</time>
      </trkpt>
      <trkpt lat="45.62019" lon="6.77099">
        <ele>815.9</ele>
        <time>2020-08-07T15:52:26Z</time>
      </trkpt>
      <trkpt lat="45.62014" lon="6.77099">
        <ele>815.9</ele>
        <time>2020-08-07T15:52:27Z</time>
      </trkpt>
      <trkpt lat="45.62009" lon="6.77097">
        <ele>816</ele>
        <time>2020-08-07T15:52:28Z</time>
      </trkpt>
      <trkpt lat="45.61999" lon="6.77094">
        <ele>816.1</ele>
        <time>2020-08-07T15:52:30Z</time>
      </trkpt>
      <trkpt lat="45.61994" lon="6.77094">
        <ele>816.2</ele>
        <time>2020-08-07T15:52:31Z</time>
      </trkpt>
      <trkpt lat="45.61989" lon="6.77093">
        <ele>816.3</ele>
        <time>2020-08-07T15:52:32Z</time>
      </trkpt>
      <trkpt lat="45.61983" lon="6.77093">
        <ele>816.4</ele>
        <time>2020-08-07T15:52:33Z</time>
      </trkpt>
      <trkpt lat="45.61971" lon="6.77092">
        <ele>816.7</ele>
        <time>2020-08-07T15:52:35Z</time>
      </trkpt>
      <trkpt lat="45.61965" lon="6.77092">
        <ele>816.8</ele>
        <time>2020-08-07T15:52:36Z</time>
      </trkpt>
      <trkpt lat="45.61958" lon="6.77092">
        <ele>817</ele>
        <time>2020-08-07T15:52:37Z</time>
      </trkpt>
      <trkpt lat="45.61952" lon="6.77091">
        <ele>817.1</ele>
        <time>2020-08-07T15:52:38Z</time>
      </trkpt>
      <trkpt lat="45.61939" lon="6.7709">
        <ele>817.3</ele>
        <time>2020-08-07T15:52:40Z</time>
      </trkpt>
      <trkpt lat="45.61932" lon="6.7709">
        <ele>817.3</ele>
        <time>2020-08-07T15:52:41Z</time>
      </trkpt>
      <trkpt lat="45.61926" lon="6.77091">
        <ele>817.3</ele>
        <time>2020-08-07T15:52:42Z</time>
      </trkpt>
      <trkpt lat="45.61913" lon="6.7709">
        <ele>817.2</ele>
        <time>2020-08-07T15:52:44Z</time>
      </trkpt>
      <trkpt lat="45.61901" lon="6.77087">
        <ele>817</ele>
        <time>2020-08-07T15:52:46Z</time>
      </trkpt>
      <trkpt lat="45.61895" lon="6.77087">
        <ele>816.9</ele>
        <time>2020-08-07T15:52:47Z</time>
      </trkpt>
      <trkpt lat="45.61889" lon="6.77086">
        <ele>816.8</ele>
        <time>2020-08-07T15:52:48Z</time>
      </trkpt>
      <trkpt lat="45.61878" lon="6.77085">
        <ele>816.7</ele>
        <time>2020-08-07T15:52:50Z</time>
      </trkpt>
      <trkpt lat="45.61873" lon="6.77085">
        <ele>816.7</ele>
        <time>2020-08-07T15:52:51Z</time>
      </trkpt>
      <trkpt lat="45.61866" lon="6.77085">
        <ele>816.6</ele>
        <time>2020-08-07T15:52:53Z</time>
      </trkpt>
      <trkpt lat="45.6186" lon="6.77082">
        <ele>816.7</ele>
        <time>2020-08-07T15:52:55Z</time>
      </trkpt>
      <trkpt lat="45.61856" lon="6.77079">
        <ele>816.7</ele>
        <time>2020-08-07T15:52:56Z</time>
      </trkpt>
      <trkpt lat="45.61851" lon="6.77078">
        <ele>816.8</ele>
        <time>2020-08-07T15:52:57Z</time>
      </trkpt>
      <trkpt lat="45.61846" lon="6.77078">
        <ele>816.8</ele>
        <time>2020-08-07T15:52:58Z</time>
      </trkpt>
      <trkpt lat="45.61834" lon="6.77083">
        <ele>816.8</ele>
        <time>2020-08-07T15:53:00Z</time>
      </trkpt>
      <trkpt lat="45.61828" lon="6.77082">
        <ele>816.9</ele>
        <time>2020-08-07T15:53:01Z</time>
      </trkpt>
      <trkpt lat="45.61818" lon="6.77077">
        <ele>817</ele>
        <time>2020-08-07T15:53:03Z</time>
      </trkpt>
      <trkpt lat="45.61808" lon="6.77072">
        <ele>817.3</ele>
        <time>2020-08-07T15:53:05Z</time>
      </trkpt>
      <trkpt lat="45.61798" lon="6.77068">
        <ele>817.4</ele>
        <time>2020-08-07T15:53:07Z</time>
      </trkpt>
      <trkpt lat="45.61793" lon="6.77066">
        <ele>817.5</ele>
        <time>2020-08-07T15:53:08Z</time>
      </trkpt>
      <trkpt lat="45.61784" lon="6.77062">
        <ele>817.7</ele>
        <time>2020-08-07T15:53:10Z</time>
      </trkpt>
      <trkpt lat="45.61775" lon="6.77058">
        <ele>818.1</ele>
        <time>2020-08-07T15:53:12Z</time>
      </trkpt>
      <trkpt lat="45.6177" lon="6.77056">
        <ele>818.2</ele>
        <time>2020-08-07T15:53:13Z</time>
      </trkpt>
      <trkpt lat="45.61761" lon="6.77053">
        <ele>818.6</ele>
        <time>2020-08-07T15:53:15Z</time>
      </trkpt>
      <trkpt lat="45.61756" lon="6.77052">
        <ele>818.8</ele>
        <time>2020-08-07T15:53:16Z</time>
      </trkpt>
      <trkpt lat="45.61748" lon="6.77049">
        <ele>819.1</ele>
        <time>2020-08-07T15:53:18Z</time>
      </trkpt>
      <trkpt lat="45.6174" lon="6.77045">
        <ele>819.5</ele>
        <time>2020-08-07T15:53:20Z</time>
      </trkpt>
      <trkpt lat="45.61736" lon="6.77042">
        <ele>819.7</ele>
        <time>2020-08-07T15:53:21Z</time>
      </trkpt>
      <trkpt lat="45.61729" lon="6.77039">
        <ele>820</ele>
        <time>2020-08-07T15:53:23Z</time>
      </trkpt>
      <trkpt lat="45.61724" lon="6.77037">
        <ele>820.3</ele>
        <time>2020-08-07T15:53:24Z</time>
      </trkpt>
      <trkpt lat="45.61715" lon="6.77033">
        <ele>820.7</ele>
        <time>2020-08-07T15:53:26Z</time>
      </trkpt>
      <trkpt lat="45.6171" lon="6.77032">
        <ele>820.9</ele>
        <time>2020-08-07T15:53:27Z</time>
      </trkpt>
      <trkpt lat="45.61707" lon="6.77032">
        <ele>821</ele>
        <time>2020-08-07T15:53:29Z</time>
      </trkpt>
      <trkpt lat="45.61707" lon="6.77031">
        <ele>821.1</ele>
        <time>2020-08-07T15:53:30Z</time>
      </trkpt>
      <trkpt lat="45.61706" lon="6.77029">
        <ele>821.1</ele>
        <time>2020-08-07T15:53:31Z</time>
      </trkpt>
      <trkpt lat="45.61695" lon="6.77026">
        <ele>821.6</ele>
        <time>2020-08-07T15:53:33Z</time>
      </trkpt>
      <trkpt lat="45.6169" lon="6.77024">
        <ele>821.9</ele>
        <time>2020-08-07T15:53:36Z</time>
      </trkpt>
      <trkpt lat="45.6168" lon="6.77019">
        <ele>822.4</ele>
        <time>2020-08-07T15:53:37Z</time>
      </trkpt>
      <trkpt lat="45.61666" lon="6.77013">
        <ele>823.1</ele>
        <time>2020-08-07T15:53:38Z</time>
      </trkpt>
      <trkpt lat="45.61659" lon="6.77009">
        <ele>823.5</ele>
        <time>2020-08-07T15:53:41Z</time>
      </trkpt>
      <trkpt lat="45.6165" lon="6.77005">
        <ele>823.9</ele>
        <time>2020-08-07T15:53:43Z</time>
      </trkpt>
      <trkpt lat="45.61645" lon="6.77003">
        <ele>824.1</ele>
        <time>2020-08-07T15:53:44Z</time>
      </trkpt>
      <trkpt lat="45.61642" lon="6.77001">
        <ele>824.3</ele>
        <time>2020-08-07T15:53:45Z</time>
      </trkpt>
      <trkpt lat="45.61638" lon="6.76999">
        <ele>824.5</ele>
        <time>2020-08-07T15:53:46Z</time>
      </trkpt>
      <trkpt lat="45.61633" lon="6.76993">
        <ele>824.8</ele>
        <time>2020-08-07T15:53:48Z</time>
      </trkpt>
      <trkpt lat="45.61629" lon="6.76992">
        <ele>824.9</ele>
        <time>2020-08-07T15:53:50Z</time>
      </trkpt>
      <trkpt lat="45.61625" lon="6.76992">
        <ele>825</ele>
        <time>2020-08-07T15:53:51Z</time>
      </trkpt>
      <trkpt lat="45.6162" lon="6.7699">
        <ele>825.3</ele>
        <time>2020-08-07T15:53:53Z</time>
      </trkpt>
      <trkpt lat="45.61616" lon="6.76988">
        <ele>825.4</ele>
        <time>2020-08-07T15:53:54Z</time>
      </trkpt>
      <trkpt lat="45.61611" lon="6.76984">
        <ele>825.7</ele>
        <time>2020-08-07T15:53:55Z</time>
      </trkpt>
      <trkpt lat="45.61605" lon="6.76979">
        <ele>826</ele>
        <time>2020-08-07T15:53:58Z</time>
      </trkpt>
      <trkpt lat="45.616" lon="6.76974">
        <ele>826.3</ele>
        <time>2020-08-07T15:53:59Z</time>
      </trkpt>
      <trkpt lat="45.61592" lon="6.76965">
        <ele>826.8</ele>
        <time>2020-08-07T15:54:01Z</time>
      </trkpt>
      <trkpt lat="45.61588" lon="6.7696">
        <ele>827.1</ele>
        <time>2020-08-07T15:54:03Z</time>
      </trkpt>
      <trkpt lat="45.6158" lon="6.76951">
        <ele>827.6</ele>
        <time>2020-08-07T15:54:05Z</time>
      </trkpt>
      <trkpt lat="45.61577" lon="6.76947">
        <ele>827.7</ele>
        <time>2020-08-07T15:54:06Z</time>
      </trkpt>
      <trkpt lat="45.61573" lon="6.76942">
        <ele>828</ele>
        <time>2020-08-07T15:54:08Z</time>
      </trkpt>
      <trkpt lat="45.61569" lon="6.76936">
        <ele>828.3</ele>
        <time>2020-08-07T15:54:09Z</time>
      </trkpt>
      <trkpt lat="45.61565" lon="6.76932">
        <ele>828.5</ele>
        <time>2020-08-07T15:54:11Z</time>
      </trkpt>
      <trkpt lat="45.61562" lon="6.76928">
        <ele>828.7</ele>
        <time>2020-08-07T15:54:13Z</time>
      </trkpt>
      <trkpt lat="45.61557" lon="6.76921">
        <ele>829</ele>
        <time>2020-08-07T15:54:14Z</time>
      </trkpt>
      <trkpt lat="45.61553" lon="6.76916">
        <ele>829.3</ele>
        <time>2020-08-07T15:54:15Z</time>
      </trkpt>
      <trkpt lat="45.61549" lon="6.76912">
        <ele>829.5</ele>
        <time>2020-08-07T15:54:17Z</time>
      </trkpt>
      <trkpt lat="45.61545" lon="6.76911">
        <ele>829.7</ele>
        <time>2020-08-07T15:54:19Z</time>
      </trkpt>
      <trkpt lat="45.61543" lon="6.76911">
        <ele>829.7</ele>
        <time>2020-08-07T15:54:21Z</time>
      </trkpt>
      <trkpt lat="45.61542" lon="6.76912">
        <ele>829.6</ele>
        <time>2020-08-07T15:54:23Z</time>
      </trkpt>
      <trkpt lat="45.6154" lon="6.76912">
        <ele>829.6</ele>
        <time>2020-08-07T15:54:24Z</time>
      </trkpt>
      <trkpt lat="45.61539" lon="6.76913">
        <ele>829.6</ele>
        <time>2020-08-07T15:54:25Z</time>
      </trkpt>
      <trkpt lat="45.61537" lon="6.76913">
        <ele>829.5</ele>
        <time>2020-08-07T15:54:27Z</time>
      </trkpt>
      <trkpt lat="45.61536" lon="6.76912">
        <ele>829.5</ele>
        <time>2020-08-07T15:54:28Z</time>
      </trkpt>
      <trkpt lat="45.61535" lon="6.76912">
        <ele>829.5</ele>
        <time>2020-08-07T15:54:29Z</time>
      </trkpt>
      <trkpt lat="45.61532" lon="6.76911">
        <ele>829.4</ele>
        <time>2020-08-07T15:54:31Z</time>
      </trkpt>
      <trkpt lat="45.61528" lon="6.7691">
        <ele>829.3</ele>
        <time>2020-08-07T15:54:32Z</time>
      </trkpt>
      <trkpt lat="45.61526" lon="6.76909">
        <ele>829.2</ele>
        <time>2020-08-07T15:54:33Z</time>
      </trkpt>
      <trkpt lat="45.61523" lon="6.76909">
        <ele>829.1</ele>
        <time>2020-08-07T15:54:35Z</time>
      </trkpt>
      <trkpt lat="45.61522" lon="6.7691">
        <ele>829.1</ele>
        <time>2020-08-07T15:54:36Z</time>
      </trkpt>
      <trkpt lat="45.61521" lon="6.7691">
        <ele>829.1</ele>
        <time>2020-08-07T15:54:37Z</time>
      </trkpt>
      <trkpt lat="45.6152" lon="6.76912">
        <ele>829</ele>
        <time>2020-08-07T15:54:40Z</time>
      </trkpt>
      <trkpt lat="45.61521" lon="6.76913">
        <ele>829</ele>
        <time>2020-08-07T15:54:42Z</time>
      </trkpt>
      <trkpt lat="45.61521" lon="6.76913">
        <ele>829</ele>
        <time>2020-08-07T15:54:44Z</time>
      </trkpt>
      <trkpt lat="45.6152" lon="6.76913">
        <ele>828.9</ele>
        <time>2020-08-07T15:54:45Z</time>
      </trkpt>
      <trkpt lat="45.6152" lon="6.76913">
        <ele>828.9</ele>
        <time>2020-08-07T15:54:48Z</time>
      </trkpt>
      <trkpt lat="45.6152" lon="6.76914">
        <ele>828.9</ele>
        <time>2020-08-07T15:54:49Z</time>
      </trkpt>
      <trkpt lat="45.6152" lon="6.76914">
        <ele>828.9</ele>
        <time>2020-08-07T15:54:51Z</time>
      </trkpt>
    </trkseg>
  </trk>
</gpx>